<?xml version='1.0' encoding='UTF-8'?><gpx version="1.1" creator="JPX - https://github.com/jenetics/jpx" xmlns="http://www.topografix.com/GPX/1/1"><trk><trkseg><trkpt lat="43.1768123" lon="13.6684035"><ele>78.0</ele><time>2026-04-04T08:30:38.558Z</time></trkpt><trkpt lat="43.1767248" lon="13.6684327"><ele>78.0</ele><time>2026-04-04T08:33:24.557Z</time></trkpt><trkpt lat="43.1767864" lon="13.6683965"><ele>78.0</ele><time>2026-04-04T08:35:13.557Z</time></trkpt><trkpt lat="43.1768397" lon="13.6684782"><ele>78.0</ele><time>2026-04-04T08:35:15.558Z</time></trkpt><trkpt lat="43.1768796" lon="13.6685712"><ele>78.0</ele><time>2026-04-04T08:35:17.557Z</time></trkpt><trkpt lat="43.176918" lon="13.6686414"><ele>78.0</ele><time>2026-04-04T08:35:19.557Z</time></trkpt><trkpt lat="43.1769528" lon="13.6687307"><ele>77.16666666666667</ele><time>2026-04-04T08:35:21.558Z</time></trkpt><trkpt lat="43.1769793" lon="13.6688342"><ele>76.33333333333333</ele><time>2026-04-04T08:35:23.558Z</time></trkpt><trkpt lat="43.1769324" lon="13.6689246"><ele>75.5</ele><time>2026-04-04T08:35:25.557Z</time></trkpt><trkpt lat="43.1768562" lon="13.6690174"><ele>74.66666666666666</ele><time>2026-04-04T08:35:27.558Z</time></trkpt><trkpt lat="43.1768057" lon="13.6690707"><ele>73.83333333333333</ele><time>2026-04-04T08:35:28.557Z</time></trkpt><trkpt lat="43.1767493" lon="13.6691226"><ele>73.0</ele><time>2026-04-04T08:35:29.557Z</time></trkpt><trkpt lat="43.176641" lon="13.669243"><ele>73.0</ele><time>2026-04-04T08:35:31.558Z</time></trkpt><trkpt lat="43.1765718" lon="13.6692745"><ele>73.0</ele><time>2026-04-04T08:35:32.558Z</time></trkpt><trkpt lat="43.176481" lon="13.6693684"><ele>73.0</ele><time>2026-04-04T08:35:33.557Z</time></trkpt><trkpt lat="43.1763902" lon="13.6694642"><ele>73.0</ele><time>2026-04-04T08:35:34.557Z</time></trkpt><trkpt lat="43.1763066" lon="13.6695619"><ele>73.0</ele><time>2026-04-04T08:35:35.558Z</time></trkpt><trkpt lat="43.1762348" lon="13.6696695"><ele>72.8</ele><time>2026-04-04T08:35:36.558Z</time></trkpt><trkpt lat="43.1761668" lon="13.6697526"><ele>72.6</ele><time>2026-04-04T08:35:37.557Z</time></trkpt><trkpt lat="43.1760934" lon="13.6698366"><ele>72.4</ele><time>2026-04-04T08:35:38.557Z</time></trkpt><trkpt lat="43.1760184" lon="13.6699147"><ele>72.2</ele><time>2026-04-04T08:35:39.557Z</time></trkpt><trkpt lat="43.1759603" lon="13.6700148"><ele>72.0</ele><time>2026-04-04T08:35:40.558Z</time></trkpt><trkpt lat="43.1758915" lon="13.6701024"><ele>72.0</ele><time>2026-04-04T08:35:41.557Z</time></trkpt><trkpt lat="43.1758161" lon="13.6701878"><ele>72.0</ele><time>2026-04-04T08:35:42.557Z</time></trkpt><trkpt lat="43.1757308" lon="13.6702783"><ele>72.0</ele><time>2026-04-04T08:35:43.558Z</time></trkpt><trkpt lat="43.1756519" lon="13.6703681"><ele>72.0</ele><time>2026-04-04T08:35:44.557Z</time></trkpt><trkpt lat="43.1755761" lon="13.6704481"><ele>72.0</ele><time>2026-04-04T08:35:45.558Z</time></trkpt><trkpt lat="43.1755044" lon="13.6705224"><ele>71.66666666666667</ele><time>2026-04-04T08:35:46.557Z</time></trkpt><trkpt lat="43.1754349" lon="13.6705935"><ele>71.33333333333333</ele><time>2026-04-04T08:35:47.558Z</time></trkpt><trkpt lat="43.1753795" lon="13.6706638"><ele>71.0</ele><time>2026-04-04T08:35:48.557Z</time></trkpt><trkpt lat="43.1753256" lon="13.6707354"><ele>70.66666666666666</ele><time>2026-04-04T08:35:49.558Z</time></trkpt><trkpt lat="43.1752783" lon="13.6708083"><ele>70.33333333333333</ele><time>2026-04-04T08:35:50.557Z</time></trkpt><trkpt lat="43.175225" lon="13.6708745"><ele>70.0</ele><time>2026-04-04T08:35:51.557Z</time></trkpt><trkpt lat="43.1751702" lon="13.6709332"><ele>70.0</ele><time>2026-04-04T08:35:52.558Z</time></trkpt><trkpt lat="43.175119" lon="13.6709954"><ele>70.0</ele><time>2026-04-04T08:35:53.557Z</time></trkpt><trkpt lat="43.1750278" lon="13.6710781"><ele>70.0</ele><time>2026-04-04T08:35:55.558Z</time></trkpt><trkpt lat="43.1749612" lon="13.6711"><ele>70.0</ele><time>2026-04-04T08:35:58.557Z</time></trkpt><trkpt lat="43.1748829" lon="13.6711032"><ele>70.0</ele><time>2026-04-04T08:36:01.558Z</time></trkpt><trkpt lat="43.1747389" lon="13.6710903"><ele>70.0</ele><time>2026-04-04T08:36:03.557Z</time></trkpt><trkpt lat="43.1746536" lon="13.6710594"><ele>70.0</ele><time>2026-04-04T08:36:04.558Z</time></trkpt><trkpt lat="43.174571" lon="13.6709985"><ele>70.0</ele><time>2026-04-04T08:36:05.558Z</time></trkpt><trkpt lat="43.1745016" lon="13.6709072"><ele>70.0</ele><time>2026-04-04T08:36:06.558Z</time></trkpt><trkpt lat="43.1744596" lon="13.6707594"><ele>70.0</ele><time>2026-04-04T08:36:07.557Z</time></trkpt><trkpt lat="43.1744347" lon="13.6705825"><ele>70.0</ele><time>2026-04-04T08:36:08.558Z</time></trkpt><trkpt lat="43.1744056" lon="13.6703986"><ele>70.0</ele><time>2026-04-04T08:36:09.558Z</time></trkpt><trkpt lat="43.1743732" lon="13.6702147"><ele>70.0</ele><time>2026-04-04T08:36:10.558Z</time></trkpt><trkpt lat="43.174338" lon="13.6700299"><ele>70.0</ele><time>2026-04-04T08:36:11.557Z</time></trkpt><trkpt lat="43.1742971" lon="13.6698366"><ele>70.25</ele><time>2026-04-04T08:36:12.558Z</time></trkpt><trkpt lat="43.1742699" lon="13.6696386"><ele>70.5</ele><time>2026-04-04T08:36:13.557Z</time></trkpt><trkpt lat="43.1742368" lon="13.6694376"><ele>70.75</ele><time>2026-04-04T08:36:14.557Z</time></trkpt><trkpt lat="43.1741958" lon="13.6692391"><ele>71.0</ele><time>2026-04-04T08:36:15.558Z</time></trkpt><trkpt lat="43.1741521" lon="13.6690386"><ele>71.0</ele><time>2026-04-04T08:36:16.557Z</time></trkpt><trkpt lat="43.1741086" lon="13.6688369"><ele>71.0</ele><time>2026-04-04T08:36:17.558Z</time></trkpt><trkpt lat="43.1740676" lon="13.6686336"><ele>71.0</ele><time>2026-04-04T08:36:18.557Z</time></trkpt><trkpt lat="43.174032" lon="13.6684144"><ele>70.66666666666667</ele><time>2026-04-04T08:36:19.558Z</time></trkpt><trkpt lat="43.1739869" lon="13.6681993"><ele>70.33333333333333</ele><time>2026-04-04T08:36:20.558Z</time></trkpt><trkpt lat="43.173937" lon="13.667982"><ele>70.0</ele><time>2026-04-04T08:36:21.558Z</time></trkpt><trkpt lat="43.1738813" lon="13.6677634"><ele>70.0</ele><time>2026-04-04T08:36:22.558Z</time></trkpt><trkpt lat="43.1738214" lon="13.6675361"><ele>70.0</ele><time>2026-04-04T08:36:23.557Z</time></trkpt><trkpt lat="43.1737684" lon="13.6673176"><ele>70.0</ele><time>2026-04-04T08:36:24.557Z</time></trkpt><trkpt lat="43.1737198" lon="13.6670934"><ele>70.33333333333333</ele><time>2026-04-04T08:36:25.557Z</time></trkpt><trkpt lat="43.1736667" lon="13.6668672"><ele>70.66666666666667</ele><time>2026-04-04T08:36:26.558Z</time></trkpt><trkpt lat="43.1736063" lon="13.6666473"><ele>71.0</ele><time>2026-04-04T08:36:27.557Z</time></trkpt><trkpt lat="43.1735477" lon="13.6664092"><ele>71.0</ele><time>2026-04-04T08:36:28.557Z</time></trkpt><trkpt lat="43.1734995" lon="13.6661775"><ele>71.0</ele><time>2026-04-04T08:36:29.558Z</time></trkpt><trkpt lat="43.173447" lon="13.6659444"><ele>71.0</ele><time>2026-04-04T08:36:30.558Z</time></trkpt><trkpt lat="43.1733951" lon="13.665715"><ele>72.0</ele><time>2026-04-04T08:36:31.558Z</time></trkpt><trkpt lat="43.1733448" lon="13.6654806"><ele>73.0</ele><time>2026-04-04T08:36:32.558Z</time></trkpt><trkpt lat="43.1732962" lon="13.6652473"><ele>74.0</ele><time>2026-04-04T08:36:33.557Z</time></trkpt><trkpt lat="43.1732502" lon="13.6650211"><ele>74.0</ele><time>2026-04-04T08:36:34.558Z</time></trkpt><trkpt lat="43.1731997" lon="13.6647882"><ele>74.0</ele><time>2026-04-04T08:36:35.558Z</time></trkpt><trkpt lat="43.173145" lon="13.6645678"><ele>74.0</ele><time>2026-04-04T08:36:36.558Z</time></trkpt><trkpt lat="43.1730947" lon="13.6643433"><ele>74.33333333333334</ele><time>2026-04-04T08:36:37.557Z</time></trkpt><trkpt lat="43.173045" lon="13.6641069"><ele>74.66666666666667</ele><time>2026-04-04T08:36:38.558Z</time></trkpt><trkpt lat="43.1729918" lon="13.6638717"><ele>75.0</ele><time>2026-04-04T08:36:39.557Z</time></trkpt><trkpt lat="43.1729378" lon="13.6636246"><ele>75.0</ele><time>2026-04-04T08:36:40.557Z</time></trkpt><trkpt lat="43.1728919" lon="13.6633877"><ele>75.0</ele><time>2026-04-04T08:36:41.558Z</time></trkpt><trkpt lat="43.1728502" lon="13.6631387"><ele>75.0</ele><time>2026-04-04T08:36:42.558Z</time></trkpt><trkpt lat="43.1728018" lon="13.6628981"><ele>75.0</ele><time>2026-04-04T08:36:43.558Z</time></trkpt><trkpt lat="43.1727444" lon="13.6626638"><ele>75.0</ele><time>2026-04-04T08:36:44.558Z</time></trkpt><trkpt lat="43.172697" lon="13.6624288"><ele>75.0</ele><time>2026-04-04T08:36:45.557Z</time></trkpt><trkpt lat="43.1726408" lon="13.6621955"><ele>75.0</ele><time>2026-04-04T08:36:46.557Z</time></trkpt><trkpt lat="43.1725899" lon="13.6619536"><ele>75.0</ele><time>2026-04-04T08:36:47.558Z</time></trkpt><trkpt lat="43.1725332" lon="13.6617032"><ele>75.0</ele><time>2026-04-04T08:36:48.558Z</time></trkpt><trkpt lat="43.1724845" lon="13.6614454"><ele>75.0</ele><time>2026-04-04T08:36:49.558Z</time></trkpt><trkpt lat="43.1724396" lon="13.6611921"><ele>75.0</ele><time>2026-04-04T08:36:50.557Z</time></trkpt><trkpt lat="43.1723931" lon="13.6609398"><ele>75.0</ele><time>2026-04-04T08:36:51.558Z</time></trkpt><trkpt lat="43.1723476" lon="13.6606853"><ele>75.0</ele><time>2026-04-04T08:36:52.558Z</time></trkpt><trkpt lat="43.1722974" lon="13.6604313"><ele>75.0</ele><time>2026-04-04T08:36:53.558Z</time></trkpt><trkpt lat="43.1722666" lon="13.660182"><ele>75.0</ele><time>2026-04-04T08:36:54.558Z</time></trkpt><trkpt lat="43.1722417" lon="13.6599304"><ele>75.66666666666667</ele><time>2026-04-04T08:36:55.558Z</time></trkpt><trkpt lat="43.1722187" lon="13.6596743"><ele>76.33333333333334</ele><time>2026-04-04T08:36:56.557Z</time></trkpt><trkpt lat="43.1721917" lon="13.6594135"><ele>77.0</ele><time>2026-04-04T08:36:57.557Z</time></trkpt><trkpt lat="43.1721668" lon="13.6591488"><ele>77.33333333333334</ele><time>2026-04-04T08:36:58.558Z</time></trkpt><trkpt lat="43.1721419" lon="13.6588852"><ele>77.66666666666667</ele><time>2026-04-04T08:36:59.558Z</time></trkpt><trkpt lat="43.1721234" lon="13.6586143"><ele>78.0</ele><time>2026-04-04T08:37:00.557Z</time></trkpt><trkpt lat="43.1720937" lon="13.6583513"><ele>78.66666666666667</ele><time>2026-04-04T08:37:01.557Z</time></trkpt><trkpt lat="43.1720605" lon="13.6580958"><ele>79.33333333333334</ele><time>2026-04-04T08:37:02.557Z</time></trkpt><trkpt lat="43.172029" lon="13.657835"><ele>80.0</ele><time>2026-04-04T08:37:03.558Z</time></trkpt><trkpt lat="43.1719772" lon="13.6575818"><ele>80.33333333333334</ele><time>2026-04-04T08:37:04.557Z</time></trkpt><trkpt lat="43.1719053" lon="13.6573247"><ele>80.66666666666667</ele><time>2026-04-04T08:37:05.558Z</time></trkpt><trkpt lat="43.171842" lon="13.6570955"><ele>81.0</ele><time>2026-04-04T08:37:06.558Z</time></trkpt><trkpt lat="43.17176" lon="13.6568785"><ele>80.33333333333333</ele><time>2026-04-04T08:37:07.557Z</time></trkpt><trkpt lat="43.1716689" lon="13.6566524"><ele>79.66666666666666</ele><time>2026-04-04T08:37:08.557Z</time></trkpt><trkpt lat="43.1715664" lon="13.6564338"><ele>79.0</ele><time>2026-04-04T08:37:09.558Z</time></trkpt><trkpt lat="43.171462" lon="13.6562236"><ele>79.33333333333333</ele><time>2026-04-04T08:37:10.557Z</time></trkpt><trkpt lat="43.1713605" lon="13.6560118"><ele>79.66666666666667</ele><time>2026-04-04T08:37:11.558Z</time></trkpt><trkpt lat="43.1712407" lon="13.6558083"><ele>80.0</ele><time>2026-04-04T08:37:12.557Z</time></trkpt><trkpt lat="43.1711042" lon="13.655622"><ele>80.0</ele><time>2026-04-04T08:37:13.557Z</time></trkpt><trkpt lat="43.1709493" lon="13.6554365"><ele>80.0</ele><time>2026-04-04T08:37:14.557Z</time></trkpt><trkpt lat="43.1707944" lon="13.6552638"><ele>80.0</ele><time>2026-04-04T08:37:15.557Z</time></trkpt><trkpt lat="43.1706439" lon="13.6550905"><ele>80.66666666666667</ele><time>2026-04-04T08:37:16.558Z</time></trkpt><trkpt lat="43.1704854" lon="13.6549166"><ele>81.33333333333333</ele><time>2026-04-04T08:37:17.557Z</time></trkpt><trkpt lat="43.1703351" lon="13.6547421"><ele>82.0</ele><time>2026-04-04T08:37:18.557Z</time></trkpt><trkpt lat="43.1701935" lon="13.6545685"><ele>82.33333333333333</ele><time>2026-04-04T08:37:19.557Z</time></trkpt><trkpt lat="43.1700436" lon="13.6543945"><ele>82.66666666666667</ele><time>2026-04-04T08:37:20.557Z</time></trkpt><trkpt lat="43.1698911" lon="13.6542275"><ele>83.0</ele><time>2026-04-04T08:37:21.558Z</time></trkpt><trkpt lat="43.1697463" lon="13.6540466"><ele>83.0</ele><time>2026-04-04T08:37:22.558Z</time></trkpt><trkpt lat="43.1696053" lon="13.6538605"><ele>83.0</ele><time>2026-04-04T08:37:23.557Z</time></trkpt><trkpt lat="43.1694594" lon="13.6536819"><ele>83.0</ele><time>2026-04-04T08:37:24.557Z</time></trkpt><trkpt lat="43.1693137" lon="13.6535024"><ele>82.66666666666667</ele><time>2026-04-04T08:37:25.558Z</time></trkpt><trkpt lat="43.1691651" lon="13.6533289"><ele>82.33333333333333</ele><time>2026-04-04T08:37:26.558Z</time></trkpt><trkpt lat="43.1690178" lon="13.6531589"><ele>82.0</ele><time>2026-04-04T08:37:27.557Z</time></trkpt><trkpt lat="43.168865" lon="13.6530016"><ele>82.0</ele><time>2026-04-04T08:37:28.557Z</time></trkpt><trkpt lat="43.168703" lon="13.6528552"><ele>82.0</ele><time>2026-04-04T08:37:29.558Z</time></trkpt><trkpt lat="43.1685345" lon="13.6527065"><ele>82.0</ele><time>2026-04-04T08:37:30.557Z</time></trkpt><trkpt lat="43.1683603" lon="13.6525536"><ele>82.33333333333333</ele><time>2026-04-04T08:37:31.557Z</time></trkpt><trkpt lat="43.1681891" lon="13.6524013"><ele>82.66666666666667</ele><time>2026-04-04T08:37:32.557Z</time></trkpt><trkpt lat="43.168016" lon="13.6522517"><ele>83.0</ele><time>2026-04-04T08:37:33.558Z</time></trkpt><trkpt lat="43.1678414" lon="13.6520926"><ele>82.33333333333334</ele><time>2026-04-04T08:37:34.557Z</time></trkpt><trkpt lat="43.1676688" lon="13.6519332"><ele>81.66666666666667</ele><time>2026-04-04T08:37:35.558Z</time></trkpt><trkpt lat="43.1675007" lon="13.651777"><ele>81.0</ele><time>2026-04-04T08:37:36.557Z</time></trkpt><trkpt lat="43.1673338" lon="13.6516176"><ele>81.0</ele><time>2026-04-04T08:37:37.558Z</time></trkpt><trkpt lat="43.1671659" lon="13.6514612"><ele>81.0</ele><time>2026-04-04T08:37:38.557Z</time></trkpt><trkpt lat="43.1669901" lon="13.6513008"><ele>81.0</ele><time>2026-04-04T08:37:39.557Z</time></trkpt><trkpt lat="43.1668082" lon="13.6511358"><ele>81.66666666666667</ele><time>2026-04-04T08:37:40.557Z</time></trkpt><trkpt lat="43.1666376" lon="13.6509651"><ele>82.33333333333334</ele><time>2026-04-04T08:37:41.558Z</time></trkpt><trkpt lat="43.1664667" lon="13.6507992"><ele>83.0</ele><time>2026-04-04T08:37:42.558Z</time></trkpt><trkpt lat="43.1663082" lon="13.650618"><ele>83.0</ele><time>2026-04-04T08:37:43.557Z</time></trkpt><trkpt lat="43.1661565" lon="13.6504481"><ele>83.0</ele><time>2026-04-04T08:37:44.557Z</time></trkpt><trkpt lat="43.1660175" lon="13.6502392"><ele>83.0</ele><time>2026-04-04T08:37:45.557Z</time></trkpt><trkpt lat="43.1658875" lon="13.6500071"><ele>82.33333333333334</ele><time>2026-04-04T08:37:46.557Z</time></trkpt><trkpt lat="43.1657539" lon="13.6497852"><ele>81.66666666666667</ele><time>2026-04-04T08:37:47.558Z</time></trkpt><trkpt lat="43.1656156" lon="13.6495662"><ele>81.0</ele><time>2026-04-04T08:37:48.557Z</time></trkpt><trkpt lat="43.1654773" lon="13.6493478"><ele>82.66666666666667</ele><time>2026-04-04T08:37:49.557Z</time></trkpt><trkpt lat="43.1653331" lon="13.6491334"><ele>84.33333333333334</ele><time>2026-04-04T08:37:50.557Z</time></trkpt><trkpt lat="43.1651904" lon="13.6489213"><ele>86.0</ele><time>2026-04-04T08:37:51.558Z</time></trkpt><trkpt lat="43.1650371" lon="13.6487136"><ele>85.0</ele><time>2026-04-04T08:37:52.558Z</time></trkpt><trkpt lat="43.164898" lon="13.6484956"><ele>84.0</ele><time>2026-04-04T08:37:53.558Z</time></trkpt><trkpt lat="43.1647733" lon="13.6482613"><ele>83.0</ele><time>2026-04-04T08:37:54.557Z</time></trkpt><trkpt lat="43.1646582" lon="13.6480224"><ele>83.5</ele><time>2026-04-04T08:37:55.557Z</time></trkpt><trkpt lat="43.1645273" lon="13.6477659"><ele>84.0</ele><time>2026-04-04T08:37:56.557Z</time></trkpt><trkpt lat="43.1644215" lon="13.647495"><ele>84.0</ele><time>2026-04-04T08:37:57.558Z</time></trkpt><trkpt lat="43.1643289" lon="13.6472268"><ele>84.0</ele><time>2026-04-04T08:37:58.557Z</time></trkpt><trkpt lat="43.1642348" lon="13.6469582"><ele>84.0</ele><time>2026-04-04T08:37:59.558Z</time></trkpt><trkpt lat="43.1641414" lon="13.6466932"><ele>83.66666666666667</ele><time>2026-04-04T08:38:00.558Z</time></trkpt><trkpt lat="43.1640495" lon="13.6464318"><ele>83.33333333333334</ele><time>2026-04-04T08:38:01.558Z</time></trkpt><trkpt lat="43.163953" lon="13.6461727"><ele>83.0</ele><time>2026-04-04T08:38:02.557Z</time></trkpt><trkpt lat="43.1638577" lon="13.6459129"><ele>83.66666666666667</ele><time>2026-04-04T08:38:03.558Z</time></trkpt><trkpt lat="43.1637639" lon="13.6456508"><ele>84.33333333333333</ele><time>2026-04-04T08:38:04.557Z</time></trkpt><trkpt lat="43.1636717" lon="13.6453939"><ele>85.0</ele><time>2026-04-04T08:38:05.557Z</time></trkpt><trkpt lat="43.1635786" lon="13.645131"><ele>85.33333333333333</ele><time>2026-04-04T08:38:06.557Z</time></trkpt><trkpt lat="43.163484" lon="13.6448723"><ele>85.66666666666667</ele><time>2026-04-04T08:38:07.558Z</time></trkpt><trkpt lat="43.1633928" lon="13.6446123"><ele>86.0</ele><time>2026-04-04T08:38:08.557Z</time></trkpt><trkpt lat="43.1633026" lon="13.6443461"><ele>86.0</ele><time>2026-04-04T08:38:09.558Z</time></trkpt><trkpt lat="43.16321" lon="13.6440808"><ele>86.0</ele><time>2026-04-04T08:38:10.557Z</time></trkpt><trkpt lat="43.1631156" lon="13.6438232"><ele>86.0</ele><time>2026-04-04T08:38:11.558Z</time></trkpt><trkpt lat="43.163022" lon="13.6435592"><ele>85.66666666666667</ele><time>2026-04-04T08:38:12.557Z</time></trkpt><trkpt lat="43.1629238" lon="13.6432972"><ele>85.33333333333333</ele><time>2026-04-04T08:38:13.558Z</time></trkpt><trkpt lat="43.1628283" lon="13.6430318"><ele>85.0</ele><time>2026-04-04T08:38:14.557Z</time></trkpt><trkpt lat="43.1627311" lon="13.6427725"><ele>85.66666666666666</ele><time>2026-04-04T08:38:15.558Z</time></trkpt><trkpt lat="43.1626328" lon="13.6425137"><ele>86.33333333333333</ele><time>2026-04-04T08:38:16.557Z</time></trkpt><trkpt lat="43.1625388" lon="13.6422537"><ele>87.0</ele><time>2026-04-04T08:38:17.558Z</time></trkpt><trkpt lat="43.1624473" lon="13.6419901"><ele>86.66666666666667</ele><time>2026-04-04T08:38:18.557Z</time></trkpt><trkpt lat="43.1623477" lon="13.6417282"><ele>86.33333333333334</ele><time>2026-04-04T08:38:19.557Z</time></trkpt><trkpt lat="43.1622455" lon="13.6414708"><ele>86.0</ele><time>2026-04-04T08:38:20.557Z</time></trkpt><trkpt lat="43.1621423" lon="13.6412268"><ele>87.0</ele><time>2026-04-04T08:38:21.557Z</time></trkpt><trkpt lat="43.1620288" lon="13.6409797"><ele>88.0</ele><time>2026-04-04T08:38:22.558Z</time></trkpt><trkpt lat="43.1619117" lon="13.6407402"><ele>89.0</ele><time>2026-04-04T08:38:23.557Z</time></trkpt><trkpt lat="43.1617934" lon="13.6404987"><ele>89.0</ele><time>2026-04-04T08:38:24.557Z</time></trkpt><trkpt lat="43.1616835" lon="13.6402597"><ele>89.0</ele><time>2026-04-04T08:38:25.558Z</time></trkpt><trkpt lat="43.1615713" lon="13.6400213"><ele>89.0</ele><time>2026-04-04T08:38:26.558Z</time></trkpt><trkpt lat="43.1614567" lon="13.6397836"><ele>89.0</ele><time>2026-04-04T08:38:27.557Z</time></trkpt><trkpt lat="43.1613363" lon="13.6395509"><ele>89.0</ele><time>2026-04-04T08:38:28.557Z</time></trkpt><trkpt lat="43.1612155" lon="13.6393173"><ele>89.0</ele><time>2026-04-04T08:38:29.558Z</time></trkpt><trkpt lat="43.161086" lon="13.6390823"><ele>89.33333333333334</ele><time>2026-04-04T08:38:30.558Z</time></trkpt><trkpt lat="43.1609591" lon="13.638855"><ele>89.66666666666667</ele><time>2026-04-04T08:38:31.557Z</time></trkpt><trkpt lat="43.1608294" lon="13.6386201"><ele>90.0</ele><time>2026-04-04T08:38:32.557Z</time></trkpt><trkpt lat="43.1607025" lon="13.6383952"><ele>90.0</ele><time>2026-04-04T08:38:33.558Z</time></trkpt><trkpt lat="43.1605708" lon="13.6381703"><ele>90.0</ele><time>2026-04-04T08:38:34.558Z</time></trkpt><trkpt lat="43.1604455" lon="13.6379394"><ele>90.0</ele><time>2026-04-04T08:38:35.557Z</time></trkpt><trkpt lat="43.1603198" lon="13.6377136"><ele>90.0</ele><time>2026-04-04T08:38:36.557Z</time></trkpt><trkpt lat="43.1602009" lon="13.6374849"><ele>90.0</ele><time>2026-04-04T08:38:37.558Z</time></trkpt><trkpt lat="43.1600801" lon="13.6372506"><ele>90.0</ele><time>2026-04-04T08:38:38.557Z</time></trkpt><trkpt lat="43.1599635" lon="13.6370257"><ele>89.66666666666667</ele><time>2026-04-04T08:38:39.557Z</time></trkpt><trkpt lat="43.1598433" lon="13.6368076"><ele>89.33333333333334</ele><time>2026-04-04T08:38:40.557Z</time></trkpt><trkpt lat="43.159721" lon="13.6365891"><ele>89.0</ele><time>2026-04-04T08:38:41.557Z</time></trkpt><trkpt lat="43.159603" lon="13.6363651"><ele>89.0</ele><time>2026-04-04T08:38:42.558Z</time></trkpt><trkpt lat="43.15949" lon="13.6361429"><ele>89.0</ele><time>2026-04-04T08:38:43.557Z</time></trkpt><trkpt lat="43.1593789" lon="13.6359379"><ele>89.0</ele><time>2026-04-04T08:38:44.558Z</time></trkpt><trkpt lat="43.159267" lon="13.6357368"><ele>89.66666666666667</ele><time>2026-04-04T08:38:45.557Z</time></trkpt><trkpt lat="43.1591585" lon="13.6355367"><ele>90.33333333333333</ele><time>2026-04-04T08:38:46.557Z</time></trkpt><trkpt lat="43.1590534" lon="13.6353465"><ele>91.0</ele><time>2026-04-04T08:38:47.558Z</time></trkpt><trkpt lat="43.1589507" lon="13.6351616"><ele>91.0</ele><time>2026-04-04T08:38:48.557Z</time></trkpt><trkpt lat="43.158862" lon="13.6349831"><ele>91.0</ele><time>2026-04-04T08:38:49.557Z</time></trkpt><trkpt lat="43.1587843" lon="13.6348093"><ele>91.0</ele><time>2026-04-04T08:38:50.558Z</time></trkpt><trkpt lat="43.1587109" lon="13.6346457"><ele>91.0</ele><time>2026-04-04T08:38:51.557Z</time></trkpt><trkpt lat="43.1586409" lon="13.6344965"><ele>91.5</ele><time>2026-04-04T08:38:52.557Z</time></trkpt><trkpt lat="43.158569" lon="13.6343538"><ele>92.0</ele><time>2026-04-04T08:38:53.557Z</time></trkpt><trkpt lat="43.1585072" lon="13.6342085"><ele>92.5</ele><time>2026-04-04T08:38:54.557Z</time></trkpt><trkpt lat="43.1584445" lon="13.6340526"><ele>93.0</ele><time>2026-04-04T08:38:55.557Z</time></trkpt><trkpt lat="43.1583758" lon="13.6338906"><ele>93.0</ele><time>2026-04-04T08:38:56.558Z</time></trkpt><trkpt lat="43.1582983" lon="13.6337309"><ele>93.0</ele><time>2026-04-04T08:38:57.558Z</time></trkpt><trkpt lat="43.1582218" lon="13.6335633"><ele>93.0</ele><time>2026-04-04T08:38:58.558Z</time></trkpt><trkpt lat="43.1581503" lon="13.6333805"><ele>93.0</ele><time>2026-04-04T08:38:59.558Z</time></trkpt><trkpt lat="43.1580752" lon="13.6331879"><ele>93.0</ele><time>2026-04-04T08:39:00.557Z</time></trkpt><trkpt lat="43.1580056" lon="13.6329855"><ele>93.0</ele><time>2026-04-04T08:39:01.558Z</time></trkpt><trkpt lat="43.157922" lon="13.6327845"><ele>93.0</ele><time>2026-04-04T08:39:02.557Z</time></trkpt><trkpt lat="43.1578269" lon="13.6325901"><ele>94.0</ele><time>2026-04-04T08:39:03.557Z</time></trkpt><trkpt lat="43.1577319" lon="13.6323897"><ele>95.0</ele><time>2026-04-04T08:39:04.557Z</time></trkpt><trkpt lat="43.157632" lon="13.6321886"><ele>96.0</ele><time>2026-04-04T08:39:05.557Z</time></trkpt><trkpt lat="43.1575282" lon="13.6319828"><ele>95.33333333333333</ele><time>2026-04-04T08:39:06.557Z</time></trkpt><trkpt lat="43.1574169" lon="13.631781"><ele>94.66666666666666</ele><time>2026-04-04T08:39:07.557Z</time></trkpt><trkpt lat="43.1572861" lon="13.6315922"><ele>94.0</ele><time>2026-04-04T08:39:08.557Z</time></trkpt><trkpt lat="43.1571526" lon="13.6314139"><ele>94.0</ele><time>2026-04-04T08:39:09.558Z</time></trkpt><trkpt lat="43.1570176" lon="13.6312469"><ele>94.0</ele><time>2026-04-04T08:39:10.557Z</time></trkpt><trkpt lat="43.1568759" lon="13.6310835"><ele>94.0</ele><time>2026-04-04T08:39:11.558Z</time></trkpt><trkpt lat="43.1567302" lon="13.6309249"><ele>94.66666666666666</ele><time>2026-04-04T08:39:12.557Z</time></trkpt><trkpt lat="43.1565737" lon="13.630787"><ele>95.33333333333333</ele><time>2026-04-04T08:39:13.558Z</time></trkpt><trkpt lat="43.1564172" lon="13.6306506"><ele>96.0</ele><time>2026-04-04T08:39:14.557Z</time></trkpt><trkpt lat="43.1562551" lon="13.6305115"><ele>96.0</ele><time>2026-04-04T08:39:15.558Z</time></trkpt><trkpt lat="43.1560989" lon="13.6303806"><ele>96.0</ele><time>2026-04-04T08:39:16.558Z</time></trkpt><trkpt lat="43.1559359" lon="13.6302485"><ele>96.0</ele><time>2026-04-04T08:39:17.557Z</time></trkpt><trkpt lat="43.1557771" lon="13.630111"><ele>96.0</ele><time>2026-04-04T08:39:18.557Z</time></trkpt><trkpt lat="43.1556172" lon="13.6299665"><ele>96.0</ele><time>2026-04-04T08:39:19.557Z</time></trkpt><trkpt lat="43.1554594" lon="13.6298228"><ele>96.0</ele><time>2026-04-04T08:39:20.558Z</time></trkpt><trkpt lat="43.1553025" lon="13.6296826"><ele>96.0</ele><time>2026-04-04T08:39:21.557Z</time></trkpt><trkpt lat="43.1551519" lon="13.6295444"><ele>96.0</ele><time>2026-04-04T08:39:22.557Z</time></trkpt><trkpt lat="43.1549991" lon="13.6294056"><ele>96.0</ele><time>2026-04-04T08:39:23.557Z</time></trkpt><trkpt lat="43.1548396" lon="13.6292623"><ele>96.0</ele><time>2026-04-04T08:39:24.558Z</time></trkpt><trkpt lat="43.1546746" lon="13.629123"><ele>96.0</ele><time>2026-04-04T08:39:25.558Z</time></trkpt><trkpt lat="43.1545071" lon="13.6289814"><ele>96.0</ele><time>2026-04-04T08:39:26.558Z</time></trkpt><trkpt lat="43.1543421" lon="13.6288429"><ele>96.0</ele><time>2026-04-04T08:39:27.557Z</time></trkpt><trkpt lat="43.1541789" lon="13.6287216"><ele>96.0</ele><time>2026-04-04T08:39:28.558Z</time></trkpt><trkpt lat="43.1540116" lon="13.6286177"><ele>96.0</ele><time>2026-04-04T08:39:29.558Z</time></trkpt><trkpt lat="43.153844" lon="13.628508"><ele>97.0</ele><time>2026-04-04T08:39:30.558Z</time></trkpt><trkpt lat="43.1536663" lon="13.6283998"><ele>98.0</ele><time>2026-04-04T08:39:31.557Z</time></trkpt><trkpt lat="43.1535008" lon="13.6282802"><ele>99.0</ele><time>2026-04-04T08:39:32.558Z</time></trkpt><trkpt lat="43.1533321" lon="13.6281811"><ele>98.33333333333334</ele><time>2026-04-04T08:39:33.557Z</time></trkpt><trkpt lat="43.1531622" lon="13.6280813"><ele>97.66666666666667</ele><time>2026-04-04T08:39:34.557Z</time></trkpt><trkpt lat="43.1529937" lon="13.627975"><ele>97.0</ele><time>2026-04-04T08:39:35.557Z</time></trkpt><trkpt lat="43.1528268" lon="13.6278733"><ele>97.33333333333334</ele><time>2026-04-04T08:39:36.557Z</time></trkpt><trkpt lat="43.1526658" lon="13.6277675"><ele>97.66666666666666</ele><time>2026-04-04T08:39:37.558Z</time></trkpt><trkpt lat="43.1525084" lon="13.627661"><ele>98.0</ele><time>2026-04-04T08:39:38.557Z</time></trkpt><trkpt lat="43.15234" lon="13.627557"><ele>98.0</ele><time>2026-04-04T08:39:39.557Z</time></trkpt><trkpt lat="43.1521689" lon="13.6274458"><ele>98.0</ele><time>2026-04-04T08:39:40.556Z</time></trkpt><trkpt lat="43.1520046" lon="13.6273314"><ele>98.0</ele><time>2026-04-04T08:39:41.557Z</time></trkpt><trkpt lat="43.1518415" lon="13.6272096"><ele>98.0</ele><time>2026-04-04T08:39:42.556Z</time></trkpt><trkpt lat="43.1516816" lon="13.6270705"><ele>98.0</ele><time>2026-04-04T08:39:43.557Z</time></trkpt><trkpt lat="43.1515308" lon="13.6269234"><ele>98.0</ele><time>2026-04-04T08:39:44.556Z</time></trkpt><trkpt lat="43.1513794" lon="13.6267857"><ele>98.33333333333333</ele><time>2026-04-04T08:39:45.556Z</time></trkpt><trkpt lat="43.1512265" lon="13.6266363"><ele>98.66666666666666</ele><time>2026-04-04T08:39:46.556Z</time></trkpt><trkpt lat="43.1510729" lon="13.6264912"><ele>99.0</ele><time>2026-04-04T08:39:47.556Z</time></trkpt><trkpt lat="43.1509156" lon="13.6263441"><ele>99.0</ele><time>2026-04-04T08:39:48.556Z</time></trkpt><trkpt lat="43.1507664" lon="13.6261993"><ele>99.0</ele><time>2026-04-04T08:39:49.557Z</time></trkpt><trkpt lat="43.1506224" lon="13.6260538"><ele>99.0</ele><time>2026-04-04T08:39:50.557Z</time></trkpt><trkpt lat="43.1504807" lon="13.6259089"><ele>99.33333333333334</ele><time>2026-04-04T08:39:51.556Z</time></trkpt><trkpt lat="43.1503423" lon="13.6257657"><ele>99.66666666666667</ele><time>2026-04-04T08:39:52.557Z</time></trkpt><trkpt lat="43.1502081" lon="13.625616"><ele>100.0</ele><time>2026-04-04T08:39:53.557Z</time></trkpt><trkpt lat="43.1500852" lon="13.6254764"><ele>100.0</ele><time>2026-04-04T08:39:54.556Z</time></trkpt><trkpt lat="43.1499635" lon="13.6253239"><ele>100.0</ele><time>2026-04-04T08:39:55.556Z</time></trkpt><trkpt lat="43.1498407" lon="13.6251645"><ele>100.0</ele><time>2026-04-04T08:39:56.557Z</time></trkpt><trkpt lat="43.1497195" lon="13.6250094"><ele>99.66666666666667</ele><time>2026-04-04T08:39:57.557Z</time></trkpt><trkpt lat="43.1495893" lon="13.6248481"><ele>99.33333333333334</ele><time>2026-04-04T08:39:58.556Z</time></trkpt><trkpt lat="43.1494473" lon="13.6247013"><ele>99.0</ele><time>2026-04-04T08:39:59.557Z</time></trkpt><trkpt lat="43.1492995" lon="13.6245732"><ele>99.33333333333334</ele><time>2026-04-04T08:40:00.557Z</time></trkpt><trkpt lat="43.1491419" lon="13.6244591"><ele>99.66666666666667</ele><time>2026-04-04T08:40:01.557Z</time></trkpt><trkpt lat="43.1489701" lon="13.6243536"><ele>100.0</ele><time>2026-04-04T08:40:02.557Z</time></trkpt><trkpt lat="43.1488029" lon="13.6242536"><ele>100.66666666666667</ele><time>2026-04-04T08:40:03.556Z</time></trkpt><trkpt lat="43.1486429" lon="13.6241436"><ele>101.33333333333334</ele><time>2026-04-04T08:40:04.557Z</time></trkpt><trkpt lat="43.1484822" lon="13.6240185"><ele>102.0</ele><time>2026-04-04T08:40:05.556Z</time></trkpt><trkpt lat="43.1483325" lon="13.623879"><ele>102.0</ele><time>2026-04-04T08:40:06.556Z</time></trkpt><trkpt lat="43.1481995" lon="13.6237264"><ele>102.0</ele><time>2026-04-04T08:40:07.557Z</time></trkpt><trkpt lat="43.1480904" lon="13.6235516"><ele>102.0</ele><time>2026-04-04T08:40:08.557Z</time></trkpt><trkpt lat="43.1479917" lon="13.6233489"><ele>102.0</ele><time>2026-04-04T08:40:09.557Z</time></trkpt><trkpt lat="43.1478978" lon="13.6231329"><ele>102.0</ele><time>2026-04-04T08:40:10.557Z</time></trkpt><trkpt lat="43.1478081" lon="13.6229198"><ele>102.0</ele><time>2026-04-04T08:40:11.556Z</time></trkpt><trkpt lat="43.1477345" lon="13.6226916"><ele>102.66666666666666</ele><time>2026-04-04T08:40:12.556Z</time></trkpt><trkpt lat="43.1476499" lon="13.6224646"><ele>103.33333333333333</ele><time>2026-04-04T08:40:13.556Z</time></trkpt><trkpt lat="43.1475702" lon="13.6222382"><ele>104.0</ele><time>2026-04-04T08:40:14.556Z</time></trkpt><trkpt lat="43.1474938" lon="13.6220108"><ele>103.66666666666666</ele><time>2026-04-04T08:40:15.557Z</time></trkpt><trkpt lat="43.1474228" lon="13.6217924"><ele>103.33333333333334</ele><time>2026-04-04T08:40:16.556Z</time></trkpt><trkpt lat="43.1473442" lon="13.621564"><ele>103.0</ele><time>2026-04-04T08:40:17.556Z</time></trkpt><trkpt lat="43.1472605" lon="13.6213423"><ele>104.0</ele><time>2026-04-04T08:40:18.556Z</time></trkpt><trkpt lat="43.1471909" lon="13.6211241"><ele>105.0</ele><time>2026-04-04T08:40:19.556Z</time></trkpt><trkpt lat="43.1471167" lon="13.6208889"><ele>106.0</ele><time>2026-04-04T08:40:20.557Z</time></trkpt><trkpt lat="43.147038" lon="13.6206494"><ele>106.0</ele><time>2026-04-04T08:40:21.557Z</time></trkpt><trkpt lat="43.1469555" lon="13.6204223"><ele>106.0</ele><time>2026-04-04T08:40:22.556Z</time></trkpt><trkpt lat="43.1468737" lon="13.6201956"><ele>106.0</ele><time>2026-04-04T08:40:23.556Z</time></trkpt><trkpt lat="43.1467878" lon="13.6199801"><ele>107.33333333333334</ele><time>2026-04-04T08:40:24.557Z</time></trkpt><trkpt lat="43.1467055" lon="13.6197567"><ele>108.66666666666666</ele><time>2026-04-04T08:40:25.556Z</time></trkpt><trkpt lat="43.1466251" lon="13.6195432"><ele>110.0</ele><time>2026-04-04T08:40:26.556Z</time></trkpt><trkpt lat="43.1465489" lon="13.6193302"><ele>109.0</ele><time>2026-04-04T08:40:27.556Z</time></trkpt><trkpt lat="43.1464582" lon="13.619121"><ele>108.0</ele><time>2026-04-04T08:40:28.556Z</time></trkpt><trkpt lat="43.1463743" lon="13.6189006"><ele>107.0</ele><time>2026-04-04T08:40:29.556Z</time></trkpt><trkpt lat="43.1462788" lon="13.6186815"><ele>108.0</ele><time>2026-04-04T08:40:30.556Z</time></trkpt><trkpt lat="43.1461801" lon="13.6184665"><ele>109.0</ele><time>2026-04-04T08:40:31.557Z</time></trkpt><trkpt lat="43.146101" lon="13.6182591"><ele>110.0</ele><time>2026-04-04T08:40:32.557Z</time></trkpt><trkpt lat="43.1459935" lon="13.6180528"><ele>110.0</ele><time>2026-04-04T08:40:33.557Z</time></trkpt><trkpt lat="43.1458782" lon="13.6178446"><ele>110.0</ele><time>2026-04-04T08:40:34.556Z</time></trkpt><trkpt lat="43.1457581" lon="13.6176313"><ele>110.0</ele><time>2026-04-04T08:40:35.557Z</time></trkpt><trkpt lat="43.1456532" lon="13.617417"><ele>109.66666666666666</ele><time>2026-04-04T08:40:36.556Z</time></trkpt><trkpt lat="43.1455551" lon="13.6172082"><ele>109.33333333333334</ele><time>2026-04-04T08:40:37.556Z</time></trkpt><trkpt lat="43.1454432" lon="13.616999"><ele>109.0</ele><time>2026-04-04T08:40:38.556Z</time></trkpt><trkpt lat="43.1453276" lon="13.6167874"><ele>110.33333333333334</ele><time>2026-04-04T08:40:39.556Z</time></trkpt><trkpt lat="43.1452089" lon="13.6165892"><ele>111.66666666666666</ele><time>2026-04-04T08:40:40.556Z</time></trkpt><trkpt lat="43.1450891" lon="13.6163924"><ele>113.0</ele><time>2026-04-04T08:40:41.556Z</time></trkpt><trkpt lat="43.1449568" lon="13.6162112"><ele>112.66666666666666</ele><time>2026-04-04T08:40:42.556Z</time></trkpt><trkpt lat="43.1448256" lon="13.6160276"><ele>112.33333333333334</ele><time>2026-04-04T08:40:43.556Z</time></trkpt><trkpt lat="43.144689" lon="13.6158492"><ele>112.0</ele><time>2026-04-04T08:40:44.556Z</time></trkpt><trkpt lat="43.1445437" lon="13.6156721"><ele>112.0</ele><time>2026-04-04T08:40:45.556Z</time></trkpt><trkpt lat="43.1444054" lon="13.6154996"><ele>112.0</ele><time>2026-04-04T08:40:46.557Z</time></trkpt><trkpt lat="43.1442672" lon="13.6153238"><ele>112.0</ele><time>2026-04-04T08:40:47.556Z</time></trkpt><trkpt lat="43.1441275" lon="13.6151501"><ele>112.33333333333334</ele><time>2026-04-04T08:40:48.556Z</time></trkpt><trkpt lat="43.1439945" lon="13.6149795"><ele>112.66666666666666</ele><time>2026-04-04T08:40:49.556Z</time></trkpt><trkpt lat="43.143867" lon="13.6148069"><ele>113.0</ele><time>2026-04-04T08:40:50.556Z</time></trkpt><trkpt lat="43.1437322" lon="13.6146345"><ele>114.0</ele><time>2026-04-04T08:40:51.556Z</time></trkpt><trkpt lat="43.1436057" lon="13.6144501"><ele>115.0</ele><time>2026-04-04T08:40:52.556Z</time></trkpt><trkpt lat="43.1434745" lon="13.6142756"><ele>116.0</ele><time>2026-04-04T08:40:53.557Z</time></trkpt><trkpt lat="43.1433376" lon="13.6141123"><ele>116.33333333333333</ele><time>2026-04-04T08:40:54.557Z</time></trkpt><trkpt lat="43.1432067" lon="13.6139436"><ele>116.66666666666666</ele><time>2026-04-04T08:40:55.557Z</time></trkpt><trkpt lat="43.1430711" lon="13.6137634"><ele>117.0</ele><time>2026-04-04T08:40:56.557Z</time></trkpt><trkpt lat="43.1429363" lon="13.6135814"><ele>117.0</ele><time>2026-04-04T08:40:57.557Z</time></trkpt><trkpt lat="43.142788" lon="13.6134067"><ele>117.0</ele><time>2026-04-04T08:40:58.557Z</time></trkpt><trkpt lat="43.1426418" lon="13.6132235"><ele>117.0</ele><time>2026-04-04T08:40:59.556Z</time></trkpt><trkpt lat="43.1424937" lon="13.6130472"><ele>116.0</ele><time>2026-04-04T08:41:00.556Z</time></trkpt><trkpt lat="43.1423449" lon="13.6128793"><ele>115.0</ele><time>2026-04-04T08:41:01.556Z</time></trkpt><trkpt lat="43.1422032" lon="13.6127172"><ele>114.0</ele><time>2026-04-04T08:41:02.557Z</time></trkpt><trkpt lat="43.1420536" lon="13.6125504"><ele>114.0</ele><time>2026-04-04T08:41:03.557Z</time></trkpt><trkpt lat="43.1419035" lon="13.6123794"><ele>114.0</ele><time>2026-04-04T08:41:04.555Z</time></trkpt><trkpt lat="43.1417595" lon="13.6122073"><ele>114.0</ele><time>2026-04-04T08:41:05.556Z</time></trkpt><trkpt lat="43.1416077" lon="13.6120483"><ele>115.0</ele><time>2026-04-04T08:41:06.556Z</time></trkpt><trkpt lat="43.1414585" lon="13.6118848"><ele>116.0</ele><time>2026-04-04T08:41:07.557Z</time></trkpt><trkpt lat="43.1413129" lon="13.6117216"><ele>117.0</ele><time>2026-04-04T08:41:08.556Z</time></trkpt><trkpt lat="43.1411696" lon="13.6115479"><ele>117.0</ele><time>2026-04-04T08:41:09.557Z</time></trkpt><trkpt lat="43.1410252" lon="13.6113819"><ele>117.0</ele><time>2026-04-04T08:41:10.556Z</time></trkpt><trkpt lat="43.1408732" lon="13.6112294"><ele>117.0</ele><time>2026-04-04T08:41:11.557Z</time></trkpt><trkpt lat="43.1407306" lon="13.6110564"><ele>116.33333333333334</ele><time>2026-04-04T08:41:12.556Z</time></trkpt><trkpt lat="43.1405763" lon="13.6109004"><ele>115.66666666666667</ele><time>2026-04-04T08:41:13.557Z</time></trkpt><trkpt lat="43.1404214" lon="13.6107409"><ele>115.0</ele><time>2026-04-04T08:41:14.556Z</time></trkpt><trkpt lat="43.1402776" lon="13.6105809"><ele>115.0</ele><time>2026-04-04T08:41:15.556Z</time></trkpt><trkpt lat="43.1401253" lon="13.6104148"><ele>115.0</ele><time>2026-04-04T08:41:16.557Z</time></trkpt><trkpt lat="43.1399753" lon="13.6102458"><ele>115.0</ele><time>2026-04-04T08:41:17.556Z</time></trkpt><trkpt lat="43.1398237" lon="13.6100786"><ele>115.0</ele><time>2026-04-04T08:41:18.556Z</time></trkpt><trkpt lat="43.1396682" lon="13.6099056"><ele>115.0</ele><time>2026-04-04T08:41:19.557Z</time></trkpt><trkpt lat="43.1395184" lon="13.609733"><ele>115.0</ele><time>2026-04-04T08:41:20.557Z</time></trkpt><trkpt lat="43.1393738" lon="13.6095659"><ele>115.0</ele><time>2026-04-04T08:41:21.557Z</time></trkpt><trkpt lat="43.1392231" lon="13.6094076"><ele>115.0</ele><time>2026-04-04T08:41:22.556Z</time></trkpt><trkpt lat="43.1390714" lon="13.6092442"><ele>115.0</ele><time>2026-04-04T08:41:23.557Z</time></trkpt><trkpt lat="43.1389184" lon="13.6090825"><ele>115.0</ele><time>2026-04-04T08:41:24.556Z</time></trkpt><trkpt lat="43.1387602" lon="13.6089233"><ele>115.0</ele><time>2026-04-04T08:41:25.557Z</time></trkpt><trkpt lat="43.1385984" lon="13.6087655"><ele>115.0</ele><time>2026-04-04T08:41:26.556Z</time></trkpt><trkpt lat="43.1384297" lon="13.6086138"><ele>114.66666666666667</ele><time>2026-04-04T08:41:27.557Z</time></trkpt><trkpt lat="43.1382643" lon="13.6084657"><ele>114.33333333333334</ele><time>2026-04-04T08:41:28.556Z</time></trkpt><trkpt lat="43.1381046" lon="13.6083166"><ele>114.0</ele><time>2026-04-04T08:41:29.556Z</time></trkpt><trkpt lat="43.1379474" lon="13.6081527"><ele>114.0</ele><time>2026-04-04T08:41:30.556Z</time></trkpt><trkpt lat="43.1377938" lon="13.6079915"><ele>114.0</ele><time>2026-04-04T08:41:31.556Z</time></trkpt><trkpt lat="43.1376347" lon="13.6078368"><ele>114.0</ele><time>2026-04-04T08:41:32.556Z</time></trkpt><trkpt lat="43.1374721" lon="13.6076847"><ele>114.33333333333334</ele><time>2026-04-04T08:41:33.556Z</time></trkpt><trkpt lat="43.1373117" lon="13.6075414"><ele>114.66666666666667</ele><time>2026-04-04T08:41:34.557Z</time></trkpt><trkpt lat="43.1371563" lon="13.6074027"><ele>115.0</ele><time>2026-04-04T08:41:35.556Z</time></trkpt><trkpt lat="43.1369942" lon="13.6072517"><ele>115.0</ele><time>2026-04-04T08:41:36.556Z</time></trkpt><trkpt lat="43.1368362" lon="13.6071024"><ele>115.0</ele><time>2026-04-04T08:41:37.556Z</time></trkpt><trkpt lat="43.1366779" lon="13.6069506"><ele>115.0</ele><time>2026-04-04T08:41:38.556Z</time></trkpt><trkpt lat="43.1365131" lon="13.6068"><ele>115.66666666666667</ele><time>2026-04-04T08:41:39.556Z</time></trkpt><trkpt lat="43.1363432" lon="13.6066467"><ele>116.33333333333334</ele><time>2026-04-04T08:41:40.556Z</time></trkpt><trkpt lat="43.1361861" lon="13.6064914"><ele>117.0</ele><time>2026-04-04T08:41:41.557Z</time></trkpt><trkpt lat="43.1360233" lon="13.6063466"><ele>117.0</ele><time>2026-04-04T08:41:42.557Z</time></trkpt><trkpt lat="43.1358602" lon="13.6062089"><ele>117.0</ele><time>2026-04-04T08:41:43.557Z</time></trkpt><trkpt lat="43.1356969" lon="13.6060677"><ele>117.0</ele><time>2026-04-04T08:41:44.556Z</time></trkpt><trkpt lat="43.1355392" lon="13.6059346"><ele>118.33333333333334</ele><time>2026-04-04T08:41:45.556Z</time></trkpt><trkpt lat="43.1353929" lon="13.6057875"><ele>119.66666666666667</ele><time>2026-04-04T08:41:46.556Z</time></trkpt><trkpt lat="43.135254" lon="13.6056171"><ele>121.0</ele><time>2026-04-04T08:41:47.556Z</time></trkpt><trkpt lat="43.1351254" lon="13.6054365"><ele>119.33333333333334</ele><time>2026-04-04T08:41:48.557Z</time></trkpt><trkpt lat="43.1350112" lon="13.6052551"><ele>117.66666666666666</ele><time>2026-04-04T08:41:49.557Z</time></trkpt><trkpt lat="43.1349088" lon="13.6050675"><ele>116.0</ele><time>2026-04-04T08:41:50.556Z</time></trkpt><trkpt lat="43.1348092" lon="13.6048694"><ele>116.0</ele><time>2026-04-04T08:41:51.556Z</time></trkpt><trkpt lat="43.1347059" lon="13.6046818"><ele>116.0</ele><time>2026-04-04T08:41:52.557Z</time></trkpt><trkpt lat="43.1346112" lon="13.6045002"><ele>116.0</ele><time>2026-04-04T08:41:53.557Z</time></trkpt><trkpt lat="43.134523" lon="13.604327"><ele>118.66666666666666</ele><time>2026-04-04T08:41:54.556Z</time></trkpt><trkpt lat="43.1344104" lon="13.6041529"><ele>121.33333333333334</ele><time>2026-04-04T08:41:55.556Z</time></trkpt><trkpt lat="43.13428" lon="13.6039775"><ele>124.0</ele><time>2026-04-04T08:41:56.556Z</time></trkpt><trkpt lat="43.1341465" lon="13.6038126"><ele>123.0</ele><time>2026-04-04T08:41:57.556Z</time></trkpt><trkpt lat="43.1340097" lon="13.6036684"><ele>122.0</ele><time>2026-04-04T08:41:58.556Z</time></trkpt><trkpt lat="43.133879" lon="13.6035411"><ele>121.0</ele><time>2026-04-04T08:41:59.556Z</time></trkpt><trkpt lat="43.1337526" lon="13.6034222"><ele>121.0</ele><time>2026-04-04T08:42:00.557Z</time></trkpt><trkpt lat="43.1336351" lon="13.6033037"><ele>121.0</ele><time>2026-04-04T08:42:01.557Z</time></trkpt><trkpt lat="43.1335249" lon="13.6031749"><ele>121.0</ele><time>2026-04-04T08:42:02.556Z</time></trkpt><trkpt lat="43.1334311" lon="13.603082"><ele>121.0</ele><time>2026-04-04T08:42:03.556Z</time></trkpt><trkpt lat="43.1333621" lon="13.6030019"><ele>121.00000000000001</ele><time>2026-04-04T08:42:04.557Z</time></trkpt><trkpt lat="43.1333191" lon="13.6029229"><ele>121.0</ele><time>2026-04-04T08:42:05.557Z</time></trkpt><trkpt lat="43.1332818" lon="13.6028507"><ele>121.0</ele><time>2026-04-04T08:42:06.557Z</time></trkpt><trkpt lat="43.1332144" lon="13.6027218"><ele>121.0</ele><time>2026-04-04T08:42:08.556Z</time></trkpt><trkpt lat="43.1331803" lon="13.6026491"><ele>121.00000000000001</ele><time>2026-04-04T08:42:09.556Z</time></trkpt><trkpt lat="43.1331405" lon="13.6025599"><ele>121.0</ele><time>2026-04-04T08:42:10.556Z</time></trkpt><trkpt lat="43.1331042" lon="13.6024629"><ele>121.0</ele><time>2026-04-04T08:42:11.556Z</time></trkpt><trkpt lat="43.1330687" lon="13.6023702"><ele>121.0</ele><time>2026-04-04T08:42:12.557Z</time></trkpt><trkpt lat="43.1330239" lon="13.6022788"><ele>121.0</ele><time>2026-04-04T08:42:13.556Z</time></trkpt><trkpt lat="43.1329725" lon="13.602171"><ele>121.0</ele><time>2026-04-04T08:42:14.556Z</time></trkpt><trkpt lat="43.1329102" lon="13.6020178"><ele>121.0</ele><time>2026-04-04T08:42:15.557Z</time></trkpt><trkpt lat="43.1328425" lon="13.6018559"><ele>122.0</ele><time>2026-04-04T08:42:16.556Z</time></trkpt><trkpt lat="43.1327749" lon="13.6016759"><ele>123.0</ele><time>2026-04-04T08:42:17.556Z</time></trkpt><trkpt lat="43.1327127" lon="13.6014747"><ele>124.0</ele><time>2026-04-04T08:42:18.556Z</time></trkpt><trkpt lat="43.1326502" lon="13.6012599"><ele>124.0</ele><time>2026-04-04T08:42:19.557Z</time></trkpt><trkpt lat="43.1325751" lon="13.6010402"><ele>124.0</ele><time>2026-04-04T08:42:20.556Z</time></trkpt><trkpt lat="43.1324649" lon="13.6008239"><ele>124.0</ele><time>2026-04-04T08:42:21.556Z</time></trkpt><trkpt lat="43.1323511" lon="13.6006173"><ele>124.0</ele><time>2026-04-04T08:42:22.557Z</time></trkpt><trkpt lat="43.1322163" lon="13.600428"><ele>124.0</ele><time>2026-04-04T08:42:23.557Z</time></trkpt><trkpt lat="43.1320696" lon="13.6002421"><ele>124.0</ele><time>2026-04-04T08:42:24.556Z</time></trkpt><trkpt lat="43.1319267" lon="13.6000458"><ele>124.66666666666667</ele><time>2026-04-04T08:42:25.556Z</time></trkpt><trkpt lat="43.1317847" lon="13.5998429"><ele>125.33333333333334</ele><time>2026-04-04T08:42:26.557Z</time></trkpt><trkpt lat="43.1316609" lon="13.5996569"><ele>126.0</ele><time>2026-04-04T08:42:27.557Z</time></trkpt><trkpt lat="43.1315551" lon="13.5994997"><ele>126.0</ele><time>2026-04-04T08:42:28.556Z</time></trkpt><trkpt lat="43.1314509" lon="13.59935"><ele>126.0</ele><time>2026-04-04T08:42:29.557Z</time></trkpt><trkpt lat="43.1313484" lon="13.5992256"><ele>126.0</ele><time>2026-04-04T08:42:30.557Z</time></trkpt><trkpt lat="43.1312532" lon="13.5990995"><ele>126.0</ele><time>2026-04-04T08:42:31.556Z</time></trkpt><trkpt lat="43.1311718" lon="13.598966"><ele>126.0</ele><time>2026-04-04T08:42:32.557Z</time></trkpt><trkpt lat="43.1310926" lon="13.5988292"><ele>126.0</ele><time>2026-04-04T08:42:33.556Z</time></trkpt><trkpt lat="43.1310168" lon="13.5986818"><ele>126.0</ele><time>2026-04-04T08:42:34.557Z</time></trkpt><trkpt lat="43.1309412" lon="13.5985486"><ele>126.0</ele><time>2026-04-04T08:42:35.557Z</time></trkpt><trkpt lat="43.1308534" lon="13.5984196"><ele>126.0</ele><time>2026-04-04T08:42:36.557Z</time></trkpt><trkpt lat="43.1307598" lon="13.5982932"><ele>126.0</ele><time>2026-04-04T08:42:37.557Z</time></trkpt><trkpt lat="43.1306555" lon="13.5981774"><ele>126.0</ele><time>2026-04-04T08:42:38.556Z</time></trkpt><trkpt lat="43.1305474" lon="13.5980683"><ele>126.0</ele><time>2026-04-04T08:42:39.556Z</time></trkpt><trkpt lat="43.1304381" lon="13.5979661"><ele>126.0</ele><time>2026-04-04T08:42:40.557Z</time></trkpt><trkpt lat="43.1303272" lon="13.5978635"><ele>126.0</ele><time>2026-04-04T08:42:41.556Z</time></trkpt><trkpt lat="43.1302109" lon="13.5977697"><ele>126.0</ele><time>2026-04-04T08:42:42.556Z</time></trkpt><trkpt lat="43.1300947" lon="13.5976806"><ele>126.0</ele><time>2026-04-04T08:42:43.556Z</time></trkpt><trkpt lat="43.1299786" lon="13.5976021"><ele>126.25</ele><time>2026-04-04T08:42:44.557Z</time></trkpt><trkpt lat="43.1298575" lon="13.5975333"><ele>126.5</ele><time>2026-04-04T08:42:45.556Z</time></trkpt><trkpt lat="43.1297441" lon="13.5974663"><ele>126.75</ele><time>2026-04-04T08:42:46.557Z</time></trkpt><trkpt lat="43.1296349" lon="13.5973959"><ele>127.0</ele><time>2026-04-04T08:42:47.557Z</time></trkpt><trkpt lat="43.1295305" lon="13.5973069"><ele>127.0</ele><time>2026-04-04T08:42:48.557Z</time></trkpt><trkpt lat="43.1294182" lon="13.5972132"><ele>127.0</ele><time>2026-04-04T08:42:49.556Z</time></trkpt><trkpt lat="43.1292957" lon="13.5971053"><ele>127.0</ele><time>2026-04-04T08:42:50.556Z</time></trkpt><trkpt lat="43.129172" lon="13.5969963"><ele>127.0</ele><time>2026-04-04T08:42:51.557Z</time></trkpt><trkpt lat="43.1290446" lon="13.5968793"><ele>127.0</ele><time>2026-04-04T08:42:52.557Z</time></trkpt><trkpt lat="43.1289198" lon="13.596756"><ele>127.0</ele><time>2026-04-04T08:42:53.556Z</time></trkpt><trkpt lat="43.1288039" lon="13.5966247"><ele>127.0</ele><time>2026-04-04T08:42:54.556Z</time></trkpt><trkpt lat="43.1286893" lon="13.5965038"><ele>127.0</ele><time>2026-04-04T08:42:55.557Z</time></trkpt><trkpt lat="43.1285752" lon="13.5963717"><ele>127.0</ele><time>2026-04-04T08:42:56.557Z</time></trkpt><trkpt lat="43.1284735" lon="13.5962422"><ele>127.0</ele><time>2026-04-04T08:42:57.556Z</time></trkpt><trkpt lat="43.1283816" lon="13.596113"><ele>127.0</ele><time>2026-04-04T08:42:58.557Z</time></trkpt><trkpt lat="43.1282981" lon="13.595978"><ele>127.0</ele><time>2026-04-04T08:42:59.556Z</time></trkpt><trkpt lat="43.1282146" lon="13.595841"><ele>127.0</ele><time>2026-04-04T08:43:00.557Z</time></trkpt><trkpt lat="43.1281306" lon="13.5956948"><ele>127.0</ele><time>2026-04-04T08:43:01.556Z</time></trkpt><trkpt lat="43.1280505" lon="13.5955407"><ele>127.0</ele><time>2026-04-04T08:43:02.556Z</time></trkpt><trkpt lat="43.1279656" lon="13.5953874"><ele>127.0</ele><time>2026-04-04T08:43:03.556Z</time></trkpt><trkpt lat="43.1278755" lon="13.5952347"><ele>127.0</ele><time>2026-04-04T08:43:04.557Z</time></trkpt><trkpt lat="43.1277892" lon="13.5950831"><ele>127.0</ele><time>2026-04-04T08:43:05.557Z</time></trkpt><trkpt lat="43.1277003" lon="13.5949283"><ele>127.0</ele><time>2026-04-04T08:43:06.556Z</time></trkpt><trkpt lat="43.1276069" lon="13.5947681"><ele>127.0</ele><time>2026-04-04T08:43:07.556Z</time></trkpt><trkpt lat="43.1275148" lon="13.5946041"><ele>126.75</ele><time>2026-04-04T08:43:08.556Z</time></trkpt><trkpt lat="43.127424" lon="13.594439"><ele>126.5</ele><time>2026-04-04T08:43:09.556Z</time></trkpt><trkpt lat="43.1273372" lon="13.5942834"><ele>126.25</ele><time>2026-04-04T08:43:10.557Z</time></trkpt><trkpt lat="43.1272553" lon="13.5941269"><ele>126.0</ele><time>2026-04-04T08:43:11.556Z</time></trkpt><trkpt lat="43.127172" lon="13.5939653"><ele>126.0</ele><time>2026-04-04T08:43:12.556Z</time></trkpt><trkpt lat="43.1270977" lon="13.5938087"><ele>126.0</ele><time>2026-04-04T08:43:13.556Z</time></trkpt><trkpt lat="43.1270255" lon="13.593647"><ele>126.0</ele><time>2026-04-04T08:43:14.557Z</time></trkpt><trkpt lat="43.1269555" lon="13.5934822"><ele>126.0</ele><time>2026-04-04T08:43:15.556Z</time></trkpt><trkpt lat="43.1268903" lon="13.5933251"><ele>126.0</ele><time>2026-04-04T08:43:16.556Z</time></trkpt><trkpt lat="43.1268277" lon="13.5931721"><ele>126.0</ele><time>2026-04-04T08:43:17.557Z</time></trkpt><trkpt lat="43.1267689" lon="13.5930305"><ele>126.0</ele><time>2026-04-04T08:43:18.557Z</time></trkpt><trkpt lat="43.1267156" lon="13.5929134"><ele>126.0</ele><time>2026-04-04T08:43:19.557Z</time></trkpt><trkpt lat="43.1266586" lon="13.59281"><ele>126.0</ele><time>2026-04-04T08:43:20.557Z</time></trkpt><trkpt lat="43.1266007" lon="13.5927216"><ele>126.0</ele><time>2026-04-04T08:43:21.556Z</time></trkpt><trkpt lat="43.1265481" lon="13.5926526"><ele>126.0</ele><time>2026-04-04T08:43:22.557Z</time></trkpt><trkpt lat="43.1264596" lon="13.5925536"><ele>126.0</ele><time>2026-04-04T08:43:24.557Z</time></trkpt><trkpt lat="43.1263893" lon="13.5924821"><ele>126.0</ele><time>2026-04-04T08:43:26.557Z</time></trkpt><trkpt lat="43.1263492" lon="13.5924024"><ele>126.0</ele><time>2026-04-04T08:43:28.557Z</time></trkpt><trkpt lat="43.1263472" lon="13.5922585"><ele>126.0</ele><time>2026-04-04T08:43:30.556Z</time></trkpt><trkpt lat="43.1263442" lon="13.5921695"><ele>126.0</ele><time>2026-04-04T08:43:31.557Z</time></trkpt><trkpt lat="43.1263213" lon="13.5920834"><ele>126.0</ele><time>2026-04-04T08:43:32.556Z</time></trkpt><trkpt lat="43.126282" lon="13.5920019"><ele>126.0</ele><time>2026-04-04T08:43:33.557Z</time></trkpt><trkpt lat="43.1262316" lon="13.5919228"><ele>126.0</ele><time>2026-04-04T08:43:34.556Z</time></trkpt><trkpt lat="43.1261759" lon="13.5918346"><ele>126.0</ele><time>2026-04-04T08:43:35.557Z</time></trkpt><trkpt lat="43.126129" lon="13.5917387"><ele>126.0</ele><time>2026-04-04T08:43:36.556Z</time></trkpt><trkpt lat="43.1261077" lon="13.5916274"><ele>126.6</ele><time>2026-04-04T08:43:37.556Z</time></trkpt><trkpt lat="43.1260866" lon="13.5915048"><ele>127.19999999999999</ele><time>2026-04-04T08:43:38.556Z</time></trkpt><trkpt lat="43.126051" lon="13.5913772"><ele>127.80000000000001</ele><time>2026-04-04T08:43:39.556Z</time></trkpt><trkpt lat="43.1259977" lon="13.5912631"><ele>128.4</ele><time>2026-04-04T08:43:40.557Z</time></trkpt><trkpt lat="43.1259341" lon="13.5911497"><ele>129.0</ele><time>2026-04-04T08:43:41.556Z</time></trkpt><trkpt lat="43.1258617" lon="13.5910398"><ele>128.8</ele><time>2026-04-04T08:43:42.556Z</time></trkpt><trkpt lat="43.1257911" lon="13.5909328"><ele>128.60000000000002</ele><time>2026-04-04T08:43:43.557Z</time></trkpt><trkpt lat="43.1257247" lon="13.5908349"><ele>128.4</ele><time>2026-04-04T08:43:44.557Z</time></trkpt><trkpt lat="43.1256565" lon="13.5907383"><ele>128.20000000000002</ele><time>2026-04-04T08:43:45.556Z</time></trkpt><trkpt lat="43.1255957" lon="13.5906382"><ele>128.0</ele><time>2026-04-04T08:43:46.557Z</time></trkpt><trkpt lat="43.125536" lon="13.590545"><ele>128.0</ele><time>2026-04-04T08:43:47.557Z</time></trkpt><trkpt lat="43.1254668" lon="13.5904474"><ele>128.0</ele><time>2026-04-04T08:43:48.557Z</time></trkpt><trkpt lat="43.1254017" lon="13.5903441"><ele>128.0</ele><time>2026-04-04T08:43:49.557Z</time></trkpt><trkpt lat="43.1253354" lon="13.5902343"><ele>128.0</ele><time>2026-04-04T08:43:50.556Z</time></trkpt><trkpt lat="43.1252662" lon="13.5901162"><ele>128.0</ele><time>2026-04-04T08:43:51.557Z</time></trkpt><trkpt lat="43.1251995" lon="13.5899967"><ele>128.6</ele><time>2026-04-04T08:43:52.556Z</time></trkpt><trkpt lat="43.1251365" lon="13.5898786"><ele>129.20000000000002</ele><time>2026-04-04T08:43:53.556Z</time></trkpt><trkpt lat="43.1250761" lon="13.5897582"><ele>129.8</ele><time>2026-04-04T08:43:54.556Z</time></trkpt><trkpt lat="43.1250228" lon="13.5896309"><ele>130.4</ele><time>2026-04-04T08:43:55.557Z</time></trkpt><trkpt lat="43.1249697" lon="13.5894959"><ele>131.0</ele><time>2026-04-04T08:43:56.556Z</time></trkpt><trkpt lat="43.1249168" lon="13.5893509"><ele>131.5</ele><time>2026-04-04T08:43:57.556Z</time></trkpt><trkpt lat="43.124862" lon="13.5891889"><ele>132.0</ele><time>2026-04-04T08:43:58.556Z</time></trkpt><trkpt lat="43.1248081" lon="13.5890212"><ele>132.5</ele><time>2026-04-04T08:43:59.557Z</time></trkpt><trkpt lat="43.1247609" lon="13.5888537"><ele>133.0</ele><time>2026-04-04T08:44:00.557Z</time></trkpt><trkpt lat="43.1247096" lon="13.5886785"><ele>133.5</ele><time>2026-04-04T08:44:01.556Z</time></trkpt><trkpt lat="43.1246529" lon="13.5885038"><ele>134.0</ele><time>2026-04-04T08:44:02.556Z</time></trkpt><trkpt lat="43.1245956" lon="13.5883392"><ele>134.5</ele><time>2026-04-04T08:44:03.557Z</time></trkpt><trkpt lat="43.1245314" lon="13.5881888"><ele>135.0</ele><time>2026-04-04T08:44:04.556Z</time></trkpt><trkpt lat="43.1244671" lon="13.5880421"><ele>135.0</ele><time>2026-04-04T08:44:05.557Z</time></trkpt><trkpt lat="43.1244095" lon="13.587897"><ele>135.0</ele><time>2026-04-04T08:44:06.557Z</time></trkpt><trkpt lat="43.1243522" lon="13.587758"><ele>135.0</ele><time>2026-04-04T08:44:07.556Z</time></trkpt><trkpt lat="43.1242964" lon="13.5876218"><ele>135.0</ele><time>2026-04-04T08:44:08.557Z</time></trkpt><trkpt lat="43.124244" lon="13.587505"><ele>135.0</ele><time>2026-04-04T08:44:09.557Z</time></trkpt><trkpt lat="43.1241846" lon="13.5873779"><ele>135.0</ele><time>2026-04-04T08:44:10.557Z</time></trkpt><trkpt lat="43.1241158" lon="13.587253"><ele>135.0</ele><time>2026-04-04T08:44:11.557Z</time></trkpt><trkpt lat="43.1240392" lon="13.5871289"><ele>135.0</ele><time>2026-04-04T08:44:12.556Z</time></trkpt><trkpt lat="43.1239589" lon="13.5870004"><ele>134.75</ele><time>2026-04-04T08:44:13.557Z</time></trkpt><trkpt lat="43.1238713" lon="13.5868698"><ele>134.5</ele><time>2026-04-04T08:44:14.556Z</time></trkpt><trkpt lat="43.1237904" lon="13.5867261"><ele>134.25</ele><time>2026-04-04T08:44:15.556Z</time></trkpt><trkpt lat="43.1237146" lon="13.5865729"><ele>134.0</ele><time>2026-04-04T08:44:16.557Z</time></trkpt><trkpt lat="43.123641" lon="13.5864159"><ele>134.0</ele><time>2026-04-04T08:44:17.556Z</time></trkpt><trkpt lat="43.1235741" lon="13.5862556"><ele>134.0</ele><time>2026-04-04T08:44:18.556Z</time></trkpt><trkpt lat="43.123514" lon="13.5860849"><ele>134.0</ele><time>2026-04-04T08:44:19.556Z</time></trkpt><trkpt lat="43.1234573" lon="13.5859073"><ele>134.0</ele><time>2026-04-04T08:44:20.556Z</time></trkpt><trkpt lat="43.123407" lon="13.5857245"><ele>134.25</ele><time>2026-04-04T08:44:21.556Z</time></trkpt><trkpt lat="43.1233708" lon="13.5855282"><ele>134.5</ele><time>2026-04-04T08:44:22.557Z</time></trkpt><trkpt lat="43.1233358" lon="13.5853413"><ele>134.75</ele><time>2026-04-04T08:44:23.557Z</time></trkpt><trkpt lat="43.1233046" lon="13.585151"><ele>135.0</ele><time>2026-04-04T08:44:24.556Z</time></trkpt><trkpt lat="43.1232686" lon="13.5849719"><ele>134.8</ele><time>2026-04-04T08:44:25.556Z</time></trkpt><trkpt lat="43.1232425" lon="13.5848131"><ele>134.6</ele><time>2026-04-04T08:44:26.556Z</time></trkpt><trkpt lat="43.1232046" lon="13.5846653"><ele>134.4</ele><time>2026-04-04T08:44:27.556Z</time></trkpt><trkpt lat="43.1231634" lon="13.5845385"><ele>134.2</ele><time>2026-04-04T08:44:28.557Z</time></trkpt><trkpt lat="43.1231182" lon="13.5844127"><ele>134.0</ele><time>2026-04-04T08:44:29.557Z</time></trkpt><trkpt lat="43.1230743" lon="13.5842856"><ele>134.6</ele><time>2026-04-04T08:44:30.556Z</time></trkpt><trkpt lat="43.1230292" lon="13.5841555"><ele>135.2</ele><time>2026-04-04T08:44:31.557Z</time></trkpt><trkpt lat="43.1229842" lon="13.5840142"><ele>135.79999999999998</ele><time>2026-04-04T08:44:32.557Z</time></trkpt><trkpt lat="43.1229366" lon="13.5838728"><ele>136.4</ele><time>2026-04-04T08:44:33.556Z</time></trkpt><trkpt lat="43.1228885" lon="13.583742"><ele>137.0</ele><time>2026-04-04T08:44:34.557Z</time></trkpt><trkpt lat="43.1228354" lon="13.5836085"><ele>137.0</ele><time>2026-04-04T08:44:35.557Z</time></trkpt><trkpt lat="43.1227863" lon="13.5834681"><ele>137.0</ele><time>2026-04-04T08:44:36.556Z</time></trkpt><trkpt lat="43.1227364" lon="13.583312"><ele>137.0</ele><time>2026-04-04T08:44:37.556Z</time></trkpt><trkpt lat="43.122674" lon="13.5831436"><ele>137.0</ele><time>2026-04-04T08:44:38.556Z</time></trkpt><trkpt lat="43.1226036" lon="13.5829607"><ele>137.0</ele><time>2026-04-04T08:44:39.557Z</time></trkpt><trkpt lat="43.1225303" lon="13.5827711"><ele>137.0</ele><time>2026-04-04T08:44:40.557Z</time></trkpt><trkpt lat="43.1224564" lon="13.5825863"><ele>137.0</ele><time>2026-04-04T08:44:41.556Z</time></trkpt><trkpt lat="43.1223912" lon="13.5824005"><ele>137.0</ele><time>2026-04-04T08:44:42.557Z</time></trkpt><trkpt lat="43.1223252" lon="13.5822213"><ele>137.0</ele><time>2026-04-04T08:44:43.557Z</time></trkpt><trkpt lat="43.1222586" lon="13.582037"><ele>137.0</ele><time>2026-04-04T08:44:44.556Z</time></trkpt><trkpt lat="43.1221894" lon="13.5818473"><ele>138.0</ele><time>2026-04-04T08:44:45.557Z</time></trkpt><trkpt lat="43.122119" lon="13.581646"><ele>139.0</ele><time>2026-04-04T08:44:46.557Z</time></trkpt><trkpt lat="43.1220498" lon="13.5814441"><ele>140.0</ele><time>2026-04-04T08:44:47.556Z</time></trkpt><trkpt lat="43.1219856" lon="13.5812368"><ele>140.66666666666666</ele><time>2026-04-04T08:44:48.557Z</time></trkpt><trkpt lat="43.1219177" lon="13.5810254"><ele>141.33333333333334</ele><time>2026-04-04T08:44:49.556Z</time></trkpt><trkpt lat="43.1218476" lon="13.5808225"><ele>142.0</ele><time>2026-04-04T08:44:50.556Z</time></trkpt><trkpt lat="43.1217759" lon="13.5806225"><ele>142.0</ele><time>2026-04-04T08:44:51.557Z</time></trkpt><trkpt lat="43.1217025" lon="13.5804301"><ele>142.0</ele><time>2026-04-04T08:44:52.557Z</time></trkpt><trkpt lat="43.1216193" lon="13.580244"><ele>142.0</ele><time>2026-04-04T08:44:53.556Z</time></trkpt><trkpt lat="43.1215367" lon="13.5800608"><ele>142.33333333333334</ele><time>2026-04-04T08:44:54.557Z</time></trkpt><trkpt lat="43.1214522" lon="13.579879"><ele>142.66666666666666</ele><time>2026-04-04T08:44:55.557Z</time></trkpt><trkpt lat="43.1213719" lon="13.5797113"><ele>143.0</ele><time>2026-04-04T08:44:56.556Z</time></trkpt><trkpt lat="43.1212915" lon="13.5795363"><ele>143.5</ele><time>2026-04-04T08:44:57.556Z</time></trkpt><trkpt lat="43.1212143" lon="13.5793826"><ele>144.0</ele><time>2026-04-04T08:44:58.556Z</time></trkpt><trkpt lat="43.1211506" lon="13.5792347"><ele>144.5</ele><time>2026-04-04T08:44:59.556Z</time></trkpt><trkpt lat="43.1210935" lon="13.5790874"><ele>145.0</ele><time>2026-04-04T08:45:00.556Z</time></trkpt><trkpt lat="43.1210418" lon="13.5789502"><ele>145.0</ele><time>2026-04-04T08:45:01.556Z</time></trkpt><trkpt lat="43.1209893" lon="13.5788202"><ele>145.0</ele><time>2026-04-04T08:45:02.557Z</time></trkpt><trkpt lat="43.1209332" lon="13.5786917"><ele>145.0</ele><time>2026-04-04T08:45:03.557Z</time></trkpt><trkpt lat="43.1208735" lon="13.5785597"><ele>145.0</ele><time>2026-04-04T08:45:04.557Z</time></trkpt><trkpt lat="43.1208149" lon="13.5784277"><ele>145.0</ele><time>2026-04-04T08:45:05.557Z</time></trkpt><trkpt lat="43.1207505" lon="13.5782881"><ele>145.5</ele><time>2026-04-04T08:45:06.557Z</time></trkpt><trkpt lat="43.1206874" lon="13.5781333"><ele>146.0</ele><time>2026-04-04T08:45:07.557Z</time></trkpt><trkpt lat="43.1206205" lon="13.5779824"><ele>146.5</ele><time>2026-04-04T08:45:08.556Z</time></trkpt><trkpt lat="43.1205552" lon="13.5778299"><ele>147.0</ele><time>2026-04-04T08:45:09.556Z</time></trkpt><trkpt lat="43.12049" lon="13.5776808"><ele>147.5</ele><time>2026-04-04T08:45:10.557Z</time></trkpt><trkpt lat="43.120425" lon="13.5775308"><ele>148.0</ele><time>2026-04-04T08:45:11.556Z</time></trkpt><trkpt lat="43.1203629" lon="13.577374"><ele>148.5</ele><time>2026-04-04T08:45:12.557Z</time></trkpt><trkpt lat="43.1203025" lon="13.5772186"><ele>149.0</ele><time>2026-04-04T08:45:13.556Z</time></trkpt><trkpt lat="43.1202432" lon="13.5770527"><ele>149.66666666666666</ele><time>2026-04-04T08:45:14.556Z</time></trkpt><trkpt lat="43.1201845" lon="13.5768651"><ele>150.33333333333334</ele><time>2026-04-04T08:45:15.557Z</time></trkpt><trkpt lat="43.1201322" lon="13.5766486"><ele>151.0</ele><time>2026-04-04T08:45:16.557Z</time></trkpt><trkpt lat="43.1200741" lon="13.5764367"><ele>151.0</ele><time>2026-04-04T08:45:17.556Z</time></trkpt><trkpt lat="43.1200124" lon="13.5762442"><ele>151.0</ele><time>2026-04-04T08:45:18.556Z</time></trkpt><trkpt lat="43.1199516" lon="13.5760664"><ele>151.0</ele><time>2026-04-04T08:45:19.557Z</time></trkpt><trkpt lat="43.1198933" lon="13.5759035"><ele>151.0</ele><time>2026-04-04T08:45:20.557Z</time></trkpt><trkpt lat="43.119841" lon="13.5757397"><ele>150.75</ele><time>2026-04-04T08:45:21.556Z</time></trkpt><trkpt lat="43.1197823" lon="13.5755724"><ele>150.5</ele><time>2026-04-04T08:45:22.557Z</time></trkpt><trkpt lat="43.1197312" lon="13.5754097"><ele>150.25</ele><time>2026-04-04T08:45:23.556Z</time></trkpt><trkpt lat="43.1196785" lon="13.5752533"><ele>150.0</ele><time>2026-04-04T08:45:24.556Z</time></trkpt><trkpt lat="43.1196267" lon="13.5750938"><ele>150.0</ele><time>2026-04-04T08:45:25.557Z</time></trkpt><trkpt lat="43.1195761" lon="13.5749326"><ele>150.0</ele><time>2026-04-04T08:45:26.557Z</time></trkpt><trkpt lat="43.1195229" lon="13.5747656"><ele>150.0</ele><time>2026-04-04T08:45:27.557Z</time></trkpt><trkpt lat="43.1194702" lon="13.5745985"><ele>150.0</ele><time>2026-04-04T08:45:28.557Z</time></trkpt><trkpt lat="43.119411" lon="13.5744348"><ele>150.5</ele><time>2026-04-04T08:45:29.556Z</time></trkpt><trkpt lat="43.1193491" lon="13.5742676"><ele>151.0</ele><time>2026-04-04T08:45:30.557Z</time></trkpt><trkpt lat="43.1192905" lon="13.5741019"><ele>151.5</ele><time>2026-04-04T08:45:31.557Z</time></trkpt><trkpt lat="43.1192293" lon="13.5739424"><ele>152.0</ele><time>2026-04-04T08:45:32.557Z</time></trkpt><trkpt lat="43.1191741" lon="13.5737717"><ele>152.25</ele><time>2026-04-04T08:45:33.556Z</time></trkpt><trkpt lat="43.1191092" lon="13.5736043"><ele>152.5</ele><time>2026-04-04T08:45:34.556Z</time></trkpt><trkpt lat="43.1190412" lon="13.5734411"><ele>152.75</ele><time>2026-04-04T08:45:35.556Z</time></trkpt><trkpt lat="43.1189803" lon="13.5732778"><ele>153.0</ele><time>2026-04-04T08:45:36.556Z</time></trkpt><trkpt lat="43.1189213" lon="13.5731174"><ele>152.5</ele><time>2026-04-04T08:45:37.557Z</time></trkpt><trkpt lat="43.1188699" lon="13.5729603"><ele>152.0</ele><time>2026-04-04T08:45:38.556Z</time></trkpt><trkpt lat="43.1188218" lon="13.5728157"><ele>151.5</ele><time>2026-04-04T08:45:39.556Z</time></trkpt><trkpt lat="43.1187772" lon="13.5726775"><ele>151.0</ele><time>2026-04-04T08:45:40.557Z</time></trkpt><trkpt lat="43.1187233" lon="13.5725333"><ele>151.0</ele><time>2026-04-04T08:45:41.557Z</time></trkpt><trkpt lat="43.1186701" lon="13.5723832"><ele>151.0</ele><time>2026-04-04T08:45:42.556Z</time></trkpt><trkpt lat="43.1186076" lon="13.5722283"><ele>151.0</ele><time>2026-04-04T08:45:43.556Z</time></trkpt><trkpt lat="43.1185528" lon="13.5720665"><ele>151.0</ele><time>2026-04-04T08:45:44.556Z</time></trkpt><trkpt lat="43.1184955" lon="13.5719104"><ele>151.75</ele><time>2026-04-04T08:45:45.556Z</time></trkpt><trkpt lat="43.1184337" lon="13.5717538"><ele>152.5</ele><time>2026-04-04T08:45:46.556Z</time></trkpt><trkpt lat="43.1183711" lon="13.5715923"><ele>153.25</ele><time>2026-04-04T08:45:47.557Z</time></trkpt><trkpt lat="43.1183104" lon="13.5714282"><ele>154.0</ele><time>2026-04-04T08:45:48.557Z</time></trkpt><trkpt lat="43.1182459" lon="13.5712626"><ele>154.0</ele><time>2026-04-04T08:45:49.557Z</time></trkpt><trkpt lat="43.1181837" lon="13.5710916"><ele>154.0</ele><time>2026-04-04T08:45:50.556Z</time></trkpt><trkpt lat="43.118132" lon="13.570921"><ele>154.0</ele><time>2026-04-04T08:45:51.557Z</time></trkpt><trkpt lat="43.1180723" lon="13.5707565"><ele>154.0</ele><time>2026-04-04T08:45:52.557Z</time></trkpt><trkpt lat="43.1180102" lon="13.5705904"><ele>154.0</ele><time>2026-04-04T08:45:53.556Z</time></trkpt><trkpt lat="43.1179442" lon="13.5704168"><ele>154.0</ele><time>2026-04-04T08:45:54.556Z</time></trkpt><trkpt lat="43.1178815" lon="13.570253"><ele>154.0</ele><time>2026-04-04T08:45:55.556Z</time></trkpt><trkpt lat="43.1178201" lon="13.5700913"><ele>154.0</ele><time>2026-04-04T08:45:56.557Z</time></trkpt><trkpt lat="43.117761" lon="13.5699285"><ele>154.25</ele><time>2026-04-04T08:45:57.557Z</time></trkpt><trkpt lat="43.1177037" lon="13.5697756"><ele>154.5</ele><time>2026-04-04T08:45:58.557Z</time></trkpt><trkpt lat="43.1176427" lon="13.5696375"><ele>154.75</ele><time>2026-04-04T08:45:59.557Z</time></trkpt><trkpt lat="43.1175799" lon="13.5695111"><ele>155.0</ele><time>2026-04-04T08:46:00.556Z</time></trkpt><trkpt lat="43.1175224" lon="13.5693878"><ele>155.0</ele><time>2026-04-04T08:46:01.557Z</time></trkpt><trkpt lat="43.1174601" lon="13.5692801"><ele>155.0</ele><time>2026-04-04T08:46:02.557Z</time></trkpt><trkpt lat="43.1174012" lon="13.5691774"><ele>155.0</ele><time>2026-04-04T08:46:03.556Z</time></trkpt><trkpt lat="43.1173428" lon="13.5690867"><ele>155.0</ele><time>2026-04-04T08:46:04.556Z</time></trkpt><trkpt lat="43.1172793" lon="13.5690156"><ele>155.0</ele><time>2026-04-04T08:46:05.555Z</time></trkpt><trkpt lat="43.1171757" lon="13.5689731"><ele>154.75</ele><time>2026-04-04T08:46:07.556Z</time></trkpt><trkpt lat="43.1170689" lon="13.5690306"><ele>154.5</ele><time>2026-04-04T08:46:09.556Z</time></trkpt><trkpt lat="43.1169785" lon="13.5690879"><ele>154.25</ele><time>2026-04-04T08:46:10.555Z</time></trkpt><trkpt lat="43.1168704" lon="13.5691648"><ele>154.0</ele><time>2026-04-04T08:46:11.555Z</time></trkpt><trkpt lat="43.1167615" lon="13.5692741"><ele>154.0</ele><time>2026-04-04T08:46:12.555Z</time></trkpt><trkpt lat="43.1166606" lon="13.5694014"><ele>154.0</ele><time>2026-04-04T08:46:13.556Z</time></trkpt><trkpt lat="43.1165712" lon="13.5695146"><ele>154.0</ele><time>2026-04-04T08:46:14.556Z</time></trkpt><trkpt lat="43.1164902" lon="13.5695989"><ele>154.0</ele><time>2026-04-04T08:46:15.555Z</time></trkpt><trkpt lat="43.1164117" lon="13.5696362"><ele>154.0</ele><time>2026-04-04T08:46:16.555Z</time></trkpt><trkpt lat="43.1163177" lon="13.5696653"><ele>153.6</ele><time>2026-04-04T08:46:17.555Z</time></trkpt><trkpt lat="43.1162294" lon="13.5697076"><ele>153.2</ele><time>2026-04-04T08:46:18.556Z</time></trkpt><trkpt lat="43.1161505" lon="13.5697881"><ele>152.79999999999998</ele><time>2026-04-04T08:46:19.556Z</time></trkpt><trkpt lat="43.1160896" lon="13.5698969"><ele>152.4</ele><time>2026-04-04T08:46:20.555Z</time></trkpt><trkpt lat="43.116034" lon="13.5700408"><ele>152.0</ele><time>2026-04-04T08:46:21.556Z</time></trkpt><trkpt lat="43.1159653" lon="13.5701892"><ele>152.0</ele><time>2026-04-04T08:46:22.555Z</time></trkpt><trkpt lat="43.1158733" lon="13.5703197"><ele>152.0</ele><time>2026-04-04T08:46:23.556Z</time></trkpt><trkpt lat="43.1157597" lon="13.5704466"><ele>152.0</ele><time>2026-04-04T08:46:24.556Z</time></trkpt><trkpt lat="43.1156516" lon="13.5705698"><ele>152.0</ele><time>2026-04-04T08:46:25.555Z</time></trkpt><trkpt lat="43.1155468" lon="13.5707174"><ele>151.33333333333331</ele><time>2026-04-04T08:46:26.556Z</time></trkpt><trkpt lat="43.1154464" lon="13.5709036"><ele>150.66666666666666</ele><time>2026-04-04T08:46:27.556Z</time></trkpt><trkpt lat="43.1153585" lon="13.5710909"><ele>150.0</ele><time>2026-04-04T08:46:28.556Z</time></trkpt><trkpt lat="43.1152632" lon="13.5712859"><ele>150.0</ele><time>2026-04-04T08:46:29.556Z</time></trkpt><trkpt lat="43.1151653" lon="13.571493"><ele>150.0</ele><time>2026-04-04T08:46:30.556Z</time></trkpt><trkpt lat="43.1150713" lon="13.5717145"><ele>150.0</ele><time>2026-04-04T08:46:31.555Z</time></trkpt><trkpt lat="43.1149558" lon="13.5719511"><ele>148.66666666666666</ele><time>2026-04-04T08:46:32.556Z</time></trkpt><trkpt lat="43.1148349" lon="13.5721771"><ele>147.33333333333331</ele><time>2026-04-04T08:46:33.555Z</time></trkpt><trkpt lat="43.1147196" lon="13.5723802"><ele>146.0</ele><time>2026-04-04T08:46:34.555Z</time></trkpt><trkpt lat="43.1146163" lon="13.5725664"><ele>146.0</ele><time>2026-04-04T08:46:35.555Z</time></trkpt><trkpt lat="43.1145235" lon="13.5727597"><ele>146.0</ele><time>2026-04-04T08:46:36.556Z</time></trkpt><trkpt lat="43.1144397" lon="13.5729089"><ele>146.0</ele><time>2026-04-04T08:46:37.555Z</time></trkpt><trkpt lat="43.1143756" lon="13.5730377"><ele>146.0</ele><time>2026-04-04T08:46:38.555Z</time></trkpt><trkpt lat="43.1143234" lon="13.5731289"><ele>146.16666666666666</ele><time>2026-04-04T08:46:39.555Z</time></trkpt><trkpt lat="43.1142774" lon="13.5731946"><ele>146.33333333333331</ele><time>2026-04-04T08:46:40.555Z</time></trkpt><trkpt lat="43.1142089" lon="13.5732234"><ele>146.5</ele><time>2026-04-04T08:46:42.555Z</time></trkpt><trkpt lat="43.1141343" lon="13.5731467"><ele>146.66666666666666</ele><time>2026-04-04T08:46:44.555Z</time></trkpt><trkpt lat="43.1140383" lon="13.5731242"><ele>146.83333333333334</ele><time>2026-04-04T08:46:46.555Z</time></trkpt><trkpt lat="43.1139628" lon="13.5732005"><ele>147.0</ele><time>2026-04-04T08:46:48.555Z</time></trkpt><trkpt lat="43.1138722" lon="13.5732914"><ele>146.66666666666666</ele><time>2026-04-04T08:46:50.555Z</time></trkpt><trkpt lat="43.1137845" lon="13.5733231"><ele>146.33333333333334</ele><time>2026-04-04T08:46:52.556Z</time></trkpt><trkpt lat="43.1137145" lon="13.5732989"><ele>146.0</ele><time>2026-04-04T08:46:54.556Z</time></trkpt><trkpt lat="43.1135978" lon="13.5732232"><ele>145.66666666666669</ele><time>2026-04-04T08:46:56.556Z</time></trkpt><trkpt lat="43.1135281" lon="13.5731739"><ele>145.33333333333334</ele><time>2026-04-04T08:46:57.555Z</time></trkpt><trkpt lat="43.1134648" lon="13.5731318"><ele>145.0</ele><time>2026-04-04T08:46:58.555Z</time></trkpt><trkpt lat="43.1134045" lon="13.5730919"><ele>145.0</ele><time>2026-04-04T08:46:59.555Z</time></trkpt><trkpt lat="43.1133386" lon="13.5730482"><ele>145.0</ele><time>2026-04-04T08:47:00.555Z</time></trkpt><trkpt lat="43.1132689" lon="13.5730029"><ele>145.0</ele><time>2026-04-04T08:47:01.555Z</time></trkpt><trkpt lat="43.1131975" lon="13.5729586"><ele>145.0</ele><time>2026-04-04T08:47:02.556Z</time></trkpt><trkpt lat="43.1131261" lon="13.5729114"><ele>145.0</ele><time>2026-04-04T08:47:03.555Z</time></trkpt><trkpt lat="43.113052" lon="13.5728657"><ele>145.0</ele><time>2026-04-04T08:47:04.556Z</time></trkpt><trkpt lat="43.1129753" lon="13.5728147"><ele>144.5</ele><time>2026-04-04T08:47:05.555Z</time></trkpt><trkpt lat="43.1128972" lon="13.5727677"><ele>144.0</ele><time>2026-04-04T08:47:06.556Z</time></trkpt><trkpt lat="43.1128188" lon="13.5727269"><ele>143.5</ele><time>2026-04-04T08:47:07.555Z</time></trkpt><trkpt lat="43.1127384" lon="13.5726958"><ele>143.0</ele><time>2026-04-04T08:47:08.555Z</time></trkpt><trkpt lat="43.1126519" lon="13.5726765"><ele>142.5</ele><time>2026-04-04T08:47:09.555Z</time></trkpt><trkpt lat="43.1125539" lon="13.5726572"><ele>142.0</ele><time>2026-04-04T08:47:10.556Z</time></trkpt><trkpt lat="43.1124549" lon="13.5726367"><ele>142.0</ele><time>2026-04-04T08:47:11.555Z</time></trkpt><trkpt lat="43.1123586" lon="13.5725997"><ele>142.0</ele><time>2026-04-04T08:47:12.555Z</time></trkpt><trkpt lat="43.1122679" lon="13.5725535"><ele>142.0</ele><time>2026-04-04T08:47:13.555Z</time></trkpt><trkpt lat="43.1121784" lon="13.5725023"><ele>142.0</ele><time>2026-04-04T08:47:14.556Z</time></trkpt><trkpt lat="43.1120875" lon="13.5724489"><ele>142.0</ele><time>2026-04-04T08:47:15.555Z</time></trkpt><trkpt lat="43.111998" lon="13.5723968"><ele>142.0</ele><time>2026-04-04T08:47:16.555Z</time></trkpt><trkpt lat="43.1119124" lon="13.5723432"><ele>142.0</ele><time>2026-04-04T08:47:17.556Z</time></trkpt><trkpt lat="43.1118363" lon="13.5722952"><ele>142.0</ele><time>2026-04-04T08:47:18.556Z</time></trkpt><trkpt lat="43.1117756" lon="13.5722613"><ele>142.0</ele><time>2026-04-04T08:47:19.555Z</time></trkpt><trkpt lat="43.1116696" lon="13.5722108"><ele>142.0</ele><time>2026-04-04T08:47:21.556Z</time></trkpt><trkpt lat="43.1115614" lon="13.5721713"><ele>142.4</ele><time>2026-04-04T08:47:23.555Z</time></trkpt><trkpt lat="43.1114619" lon="13.5721398"><ele>142.79999999999998</ele><time>2026-04-04T08:47:25.556Z</time></trkpt><trkpt lat="43.1113613" lon="13.5721023"><ele>143.2</ele><time>2026-04-04T08:47:27.555Z</time></trkpt><trkpt lat="43.1112493" lon="13.5720726"><ele>143.6</ele><time>2026-04-04T08:47:29.556Z</time></trkpt><trkpt lat="43.1111876" lon="13.5720531"><ele>144.0</ele><time>2026-04-04T08:47:30.555Z</time></trkpt><trkpt lat="43.111083" lon="13.5720219"><ele>144.2</ele><time>2026-04-04T08:47:32.555Z</time></trkpt><trkpt lat="43.1109842" lon="13.571987"><ele>144.4</ele><time>2026-04-04T08:47:34.556Z</time></trkpt><trkpt lat="43.1108768" lon="13.5719504"><ele>144.6</ele><time>2026-04-04T08:47:36.555Z</time></trkpt><trkpt lat="43.1107826" lon="13.5719166"><ele>144.8</ele><time>2026-04-04T08:47:38.556Z</time></trkpt><trkpt lat="43.1107187" lon="13.5718437"><ele>145.0</ele><time>2026-04-04T08:47:40.555Z</time></trkpt><trkpt lat="43.1106906" lon="13.5717245"><ele>145.0</ele><time>2026-04-04T08:47:42.555Z</time></trkpt><trkpt lat="43.1106732" lon="13.5716245"><ele>145.0</ele><time>2026-04-04T08:47:44.555Z</time></trkpt><trkpt lat="43.1106443" lon="13.5715234"><ele>145.0</ele><time>2026-04-04T08:47:48.555Z</time></trkpt><trkpt lat="43.1106288" lon="13.5714243"><ele>145.0</ele><time>2026-04-04T08:47:50.556Z</time></trkpt><trkpt lat="43.1106061" lon="13.5713138"><ele>145.0</ele><time>2026-04-04T08:47:52.556Z</time></trkpt><trkpt lat="43.1105838" lon="13.5712159"><ele>145.0</ele><time>2026-04-04T08:47:54.556Z</time></trkpt><trkpt lat="43.1105534" lon="13.5711113"><ele>145.2</ele><time>2026-04-04T08:47:56.555Z</time></trkpt><trkpt lat="43.1105248" lon="13.5709879"><ele>145.4</ele><time>2026-04-04T08:47:58.555Z</time></trkpt><trkpt lat="43.1104916" lon="13.5708665"><ele>145.6</ele><time>2026-04-04T08:48:00.555Z</time></trkpt><trkpt lat="43.1104487" lon="13.570726"><ele>145.8</ele><time>2026-04-04T08:48:02.555Z</time></trkpt><trkpt lat="43.1104031" lon="13.5705938"><ele>146.0</ele><time>2026-04-04T08:48:04.556Z</time></trkpt><trkpt lat="43.1103596" lon="13.5704414"><ele>146.0</ele><time>2026-04-04T08:48:06.556Z</time></trkpt><trkpt lat="43.1103164" lon="13.5702786"><ele>146.0</ele><time>2026-04-04T08:48:08.556Z</time></trkpt><trkpt lat="43.110273" lon="13.5701174"><ele>146.0</ele><time>2026-04-04T08:48:10.555Z</time></trkpt><trkpt lat="43.110234" lon="13.5699719"><ele>146.0</ele><time>2026-04-04T08:48:12.556Z</time></trkpt><trkpt lat="43.1101935" lon="13.5698285"><ele>146.0</ele><time>2026-04-04T08:48:14.555Z</time></trkpt><trkpt lat="43.1101524" lon="13.5696666"><ele>146.0</ele><time>2026-04-04T08:48:16.556Z</time></trkpt><trkpt lat="43.1101147" lon="13.5695103"><ele>146.0</ele><time>2026-04-04T08:48:18.555Z</time></trkpt><trkpt lat="43.1100915" lon="13.5693678"><ele>146.0</ele><time>2026-04-04T08:48:20.555Z</time></trkpt><trkpt lat="43.1100682" lon="13.5692606"><ele>146.0</ele><time>2026-04-04T08:48:22.556Z</time></trkpt><trkpt lat="43.1100353" lon="13.5691544"><ele>146.0</ele><time>2026-04-04T08:48:24.556Z</time></trkpt><trkpt lat="43.1099892" lon="13.569034"><ele>146.0</ele><time>2026-04-04T08:48:26.555Z</time></trkpt><trkpt lat="43.1099213" lon="13.568983"><ele>146.0</ele><time>2026-04-04T08:48:29.555Z</time></trkpt><trkpt lat="43.1098577" lon="13.5690229"><ele>146.0</ele><time>2026-04-04T08:48:31.556Z</time></trkpt><trkpt lat="43.1098001" lon="13.5690771"><ele>146.0</ele><time>2026-04-04T08:48:33.555Z</time></trkpt><trkpt lat="43.1097144" lon="13.5691188"><ele>146.0</ele><time>2026-04-04T08:48:35.555Z</time></trkpt><trkpt lat="43.1096454" lon="13.5691269"><ele>146.0</ele><time>2026-04-04T08:48:37.555Z</time></trkpt><trkpt lat="43.109589" lon="13.5690449"><ele>146.0</ele><time>2026-04-04T08:48:41.556Z</time></trkpt><trkpt lat="43.1095825" lon="13.5689303"><ele>146.0</ele><time>2026-04-04T08:48:43.556Z</time></trkpt><trkpt lat="43.1095741" lon="13.5687934"><ele>146.0</ele><time>2026-04-04T08:48:45.555Z</time></trkpt><trkpt lat="43.109561" lon="13.5686814"><ele>146.0</ele><time>2026-04-04T08:48:47.555Z</time></trkpt><trkpt lat="43.1095204" lon="13.5685949"><ele>146.0</ele><time>2026-04-04T08:48:49.556Z</time></trkpt><trkpt lat="43.1094557" lon="13.5685592"><ele>146.0</ele><time>2026-04-04T08:48:51.555Z</time></trkpt><trkpt lat="43.1093819" lon="13.5685966"><ele>146.0</ele><time>2026-04-04T08:48:53.556Z</time></trkpt><trkpt lat="43.1093328" lon="13.5686761"><ele>146.0</ele><time>2026-04-04T08:48:55.556Z</time></trkpt><trkpt lat="43.109296" lon="13.5687625"><ele>146.0</ele><time>2026-04-04T08:48:57.555Z</time></trkpt><trkpt lat="43.1092661" lon="13.5688504"><ele>146.0</ele><time>2026-04-04T08:48:59.555Z</time></trkpt><trkpt lat="43.1092484" lon="13.5689506"><ele>146.0</ele><time>2026-04-04T08:49:01.555Z</time></trkpt><trkpt lat="43.1092386" lon="13.5690486"><ele>146.0</ele><time>2026-04-04T08:49:03.555Z</time></trkpt><trkpt lat="43.1092133" lon="13.5691282"><ele>146.0</ele><time>2026-04-04T08:49:05.555Z</time></trkpt><trkpt lat="43.1091536" lon="13.5692157"><ele>146.0</ele><time>2026-04-04T08:49:08.555Z</time></trkpt><trkpt lat="43.1090691" lon="13.5692009"><ele>146.0</ele><time>2026-04-04T08:49:11.555Z</time></trkpt><trkpt lat="43.1090206" lon="13.5691009"><ele>146.0</ele><time>2026-04-04T08:49:14.556Z</time></trkpt><trkpt lat="43.1089819" lon="13.5690215"><ele>146.0</ele><time>2026-04-04T08:49:16.555Z</time></trkpt><trkpt lat="43.1089418" lon="13.5689402"><ele>146.0</ele><time>2026-04-04T08:49:18.555Z</time></trkpt><trkpt lat="43.1088842" lon="13.5688532"><ele>145.66666666666666</ele><time>2026-04-04T08:49:20.556Z</time></trkpt><trkpt lat="43.1088345" lon="13.5687554"><ele>145.33333333333331</ele><time>2026-04-04T08:49:22.556Z</time></trkpt><trkpt lat="43.1087908" lon="13.5686626"><ele>145.0</ele><time>2026-04-04T08:49:24.555Z</time></trkpt><trkpt lat="43.1087473" lon="13.5685721"><ele>144.66666666666666</ele><time>2026-04-04T08:49:26.556Z</time></trkpt><trkpt lat="43.1086996" lon="13.5684839"><ele>144.33333333333334</ele><time>2026-04-04T08:49:28.555Z</time></trkpt><trkpt lat="43.1086552" lon="13.5684119"><ele>144.0</ele><time>2026-04-04T08:49:31.556Z</time></trkpt><trkpt lat="43.1086185" lon="13.5683347"><ele>144.0</ele><time>2026-04-04T08:49:37.555Z</time></trkpt><trkpt lat="43.1085844" lon="13.5682586"><ele>144.0</ele><time>2026-04-04T08:49:46.556Z</time></trkpt><trkpt lat="43.1085145" lon="13.5681475"><ele>144.0</ele><time>2026-04-04T08:49:48.555Z</time></trkpt><trkpt lat="43.1084681" lon="13.5680695"><ele>144.0</ele><time>2026-04-04T08:49:49.555Z</time></trkpt><trkpt lat="43.1084088" lon="13.5679779"><ele>144.0</ele><time>2026-04-04T08:49:50.555Z</time></trkpt><trkpt lat="43.1083455" lon="13.5678797"><ele>144.0</ele><time>2026-04-04T08:49:51.555Z</time></trkpt><trkpt lat="43.1082825" lon="13.5677743"><ele>143.75</ele><time>2026-04-04T08:49:52.555Z</time></trkpt><trkpt lat="43.1082177" lon="13.5676618"><ele>143.5</ele><time>2026-04-04T08:49:53.555Z</time></trkpt><trkpt lat="43.1081466" lon="13.5675314"><ele>143.25</ele><time>2026-04-04T08:49:54.556Z</time></trkpt><trkpt lat="43.1080703" lon="13.5673938"><ele>143.0</ele><time>2026-04-04T08:49:55.555Z</time></trkpt><trkpt lat="43.10799" lon="13.5672487"><ele>143.0</ele><time>2026-04-04T08:49:56.555Z</time></trkpt><trkpt lat="43.1079069" lon="13.5671104"><ele>143.0</ele><time>2026-04-04T08:49:57.555Z</time></trkpt><trkpt lat="43.107829" lon="13.5669816"><ele>143.0</ele><time>2026-04-04T08:49:58.556Z</time></trkpt><trkpt lat="43.1077579" lon="13.5668607"><ele>143.0</ele><time>2026-04-04T08:49:59.556Z</time></trkpt><trkpt lat="43.1076866" lon="13.5667346"><ele>142.75</ele><time>2026-04-04T08:50:00.555Z</time></trkpt><trkpt lat="43.1076085" lon="13.5666017"><ele>142.5</ele><time>2026-04-04T08:50:01.555Z</time></trkpt><trkpt lat="43.1075287" lon="13.5664542"><ele>142.25</ele><time>2026-04-04T08:50:02.555Z</time></trkpt><trkpt lat="43.1074406" lon="13.5662915"><ele>142.0</ele><time>2026-04-04T08:50:03.556Z</time></trkpt><trkpt lat="43.1073421" lon="13.5661154"><ele>142.66666666666669</ele><time>2026-04-04T08:50:04.556Z</time></trkpt><trkpt lat="43.1072391" lon="13.5659354"><ele>143.33333333333334</ele><time>2026-04-04T08:50:05.555Z</time></trkpt><trkpt lat="43.1071208" lon="13.5657405"><ele>144.0</ele><time>2026-04-04T08:50:06.556Z</time></trkpt><trkpt lat="43.106997" lon="13.5655199"><ele>144.5</ele><time>2026-04-04T08:50:07.555Z</time></trkpt><trkpt lat="43.1068564" lon="13.565274"><ele>145.0</ele><time>2026-04-04T08:50:08.555Z</time></trkpt><trkpt lat="43.1067108" lon="13.5650266"><ele>145.0</ele><time>2026-04-04T08:50:09.555Z</time></trkpt><trkpt lat="43.1065647" lon="13.5647614"><ele>145.0</ele><time>2026-04-04T08:50:10.555Z</time></trkpt><trkpt lat="43.106417" lon="13.5644867"><ele>145.0</ele><time>2026-04-04T08:50:11.556Z</time></trkpt><trkpt lat="43.1062641" lon="13.5641969"><ele>145.0</ele><time>2026-04-04T08:50:12.555Z</time></trkpt><trkpt lat="43.1061082" lon="13.563908"><ele>144.5</ele><time>2026-04-04T08:50:13.555Z</time></trkpt><trkpt lat="43.1059588" lon="13.5636284"><ele>144.0</ele><time>2026-04-04T08:50:14.556Z</time></trkpt><trkpt lat="43.1058166" lon="13.5633767"><ele>144.66666666666666</ele><time>2026-04-04T08:50:15.555Z</time></trkpt><trkpt lat="43.105694" lon="13.5631568"><ele>145.33333333333331</ele><time>2026-04-04T08:50:16.556Z</time></trkpt><trkpt lat="43.1055907" lon="13.5629731"><ele>146.0</ele><time>2026-04-04T08:50:17.555Z</time></trkpt><trkpt lat="43.1055085" lon="13.5628199"><ele>146.2</ele><time>2026-04-04T08:50:18.555Z</time></trkpt><trkpt lat="43.1054398" lon="13.562706"><ele>146.39999999999998</ele><time>2026-04-04T08:50:19.555Z</time></trkpt><trkpt lat="43.1053886" lon="13.5626217"><ele>146.6</ele><time>2026-04-04T08:50:20.556Z</time></trkpt><trkpt lat="43.1053473" lon="13.562555"><ele>146.79999999999998</ele><time>2026-04-04T08:50:21.556Z</time></trkpt><trkpt lat="43.1052777" lon="13.5624508"><ele>147.0</ele><time>2026-04-04T08:50:23.556Z</time></trkpt><trkpt lat="43.1052146" lon="13.5623299"><ele>147.0</ele><time>2026-04-04T08:50:25.555Z</time></trkpt><trkpt lat="43.1051458" lon="13.5622092"><ele>147.0</ele><time>2026-04-04T08:50:27.556Z</time></trkpt><trkpt lat="43.1051059" lon="13.5621123"><ele>147.0</ele><time>2026-04-04T08:50:29.556Z</time></trkpt><trkpt lat="43.1050814" lon="13.5620241"><ele>147.0</ele><time>2026-04-04T08:50:32.556Z</time></trkpt><trkpt lat="43.1050452" lon="13.5619525"><ele>147.0</ele><time>2026-04-04T08:50:35.556Z</time></trkpt><trkpt lat="43.1050123" lon="13.5618576"><ele>147.0</ele><time>2026-04-04T08:50:37.555Z</time></trkpt><trkpt lat="43.104943" lon="13.5617279"><ele>146.85714285714286</ele><time>2026-04-04T08:50:39.556Z</time></trkpt><trkpt lat="43.1049029" lon="13.5616581"><ele>146.71428571428572</ele><time>2026-04-04T08:50:40.556Z</time></trkpt><trkpt lat="43.1048595" lon="13.5615833"><ele>146.57142857142856</ele><time>2026-04-04T08:50:41.555Z</time></trkpt><trkpt lat="43.1048131" lon="13.5615097"><ele>146.42857142857144</ele><time>2026-04-04T08:50:42.556Z</time></trkpt><trkpt lat="43.1047644" lon="13.5614295"><ele>146.28571428571428</ele><time>2026-04-04T08:50:43.556Z</time></trkpt><trkpt lat="43.1047144" lon="13.5613505"><ele>146.14285714285714</ele><time>2026-04-04T08:50:44.555Z</time></trkpt><trkpt lat="43.1046669" lon="13.5612727"><ele>146.0</ele><time>2026-04-04T08:50:45.555Z</time></trkpt><trkpt lat="43.1046212" lon="13.5611908"><ele>146.0</ele><time>2026-04-04T08:50:46.555Z</time></trkpt><trkpt lat="43.1045749" lon="13.5611083"><ele>146.0</ele><time>2026-04-04T08:50:47.556Z</time></trkpt><trkpt lat="43.1045311" lon="13.5610318"><ele>146.0</ele><time>2026-04-04T08:50:48.555Z</time></trkpt><trkpt lat="43.1044892" lon="13.5609628"><ele>146.0</ele><time>2026-04-04T08:50:49.556Z</time></trkpt><trkpt lat="43.1044064" lon="13.5608278"><ele>146.0</ele><time>2026-04-04T08:50:51.556Z</time></trkpt><trkpt lat="43.1043588" lon="13.5607532"><ele>146.0</ele><time>2026-04-04T08:50:52.555Z</time></trkpt><trkpt lat="43.1043117" lon="13.5606718"><ele>146.0</ele><time>2026-04-04T08:50:53.555Z</time></trkpt><trkpt lat="43.1042649" lon="13.5605857"><ele>146.0</ele><time>2026-04-04T08:50:54.556Z</time></trkpt><trkpt lat="43.1042221" lon="13.5604999"><ele>146.0</ele><time>2026-04-04T08:50:55.555Z</time></trkpt><trkpt lat="43.1041791" lon="13.5604171"><ele>146.0</ele><time>2026-04-04T08:50:56.556Z</time></trkpt><trkpt lat="43.1041361" lon="13.5603411"><ele>146.0</ele><time>2026-04-04T08:50:57.556Z</time></trkpt><trkpt lat="43.1040916" lon="13.5602634"><ele>146.0</ele><time>2026-04-04T08:50:58.556Z</time></trkpt><trkpt lat="43.1040451" lon="13.5601791"><ele>146.0</ele><time>2026-04-04T08:50:59.556Z</time></trkpt><trkpt lat="43.1039998" lon="13.5600992"><ele>145.83333333333331</ele><time>2026-04-04T08:51:00.555Z</time></trkpt><trkpt lat="43.1039549" lon="13.5600143"><ele>145.66666666666666</ele><time>2026-04-04T08:51:01.556Z</time></trkpt><trkpt lat="43.1039085" lon="13.5599256"><ele>145.5</ele><time>2026-04-04T08:51:02.556Z</time></trkpt><trkpt lat="43.1038628" lon="13.5598373"><ele>145.33333333333334</ele><time>2026-04-04T08:51:03.555Z</time></trkpt><trkpt lat="43.1038161" lon="13.5597499"><ele>145.16666666666669</ele><time>2026-04-04T08:51:04.556Z</time></trkpt><trkpt lat="43.1037621" lon="13.5596648"><ele>145.0</ele><time>2026-04-04T08:51:05.555Z</time></trkpt><trkpt lat="43.1037124" lon="13.5595806"><ele>145.5</ele><time>2026-04-04T08:51:06.556Z</time></trkpt><trkpt lat="43.103665" lon="13.5594957"><ele>146.0</ele><time>2026-04-04T08:51:07.556Z</time></trkpt><trkpt lat="43.1036178" lon="13.559402"><ele>146.5</ele><time>2026-04-04T08:51:08.556Z</time></trkpt><trkpt lat="43.1035671" lon="13.5593105"><ele>147.0</ele><time>2026-04-04T08:51:09.555Z</time></trkpt><trkpt lat="43.1035144" lon="13.5592223"><ele>147.5</ele><time>2026-04-04T08:51:10.555Z</time></trkpt><trkpt lat="43.1034638" lon="13.5591317"><ele>148.0</ele><time>2026-04-04T08:51:11.555Z</time></trkpt><trkpt lat="43.1034137" lon="13.5590426"><ele>148.0</ele><time>2026-04-04T08:51:12.555Z</time></trkpt><trkpt lat="43.1033633" lon="13.5589544"><ele>148.0</ele><time>2026-04-04T08:51:13.556Z</time></trkpt><trkpt lat="43.1033079" lon="13.5588857"><ele>148.0</ele><time>2026-04-04T08:51:14.556Z</time></trkpt><trkpt lat="43.103254" lon="13.5588007"><ele>148.0</ele><time>2026-04-04T08:51:15.556Z</time></trkpt><trkpt lat="43.103206" lon="13.5587109"><ele>148.0</ele><time>2026-04-04T08:51:16.555Z</time></trkpt><trkpt lat="43.1031606" lon="13.5586199"><ele>148.0</ele><time>2026-04-04T08:51:17.555Z</time></trkpt><trkpt lat="43.1031128" lon="13.5585261"><ele>148.16666666666669</ele><time>2026-04-04T08:51:18.556Z</time></trkpt><trkpt lat="43.103066" lon="13.5584363"><ele>148.33333333333334</ele><time>2026-04-04T08:51:19.555Z</time></trkpt><trkpt lat="43.1030146" lon="13.5583476"><ele>148.5</ele><time>2026-04-04T08:51:20.556Z</time></trkpt><trkpt lat="43.1029655" lon="13.5582569"><ele>148.66666666666666</ele><time>2026-04-04T08:51:21.556Z</time></trkpt><trkpt lat="43.1029182" lon="13.5581731"><ele>148.83333333333331</ele><time>2026-04-04T08:51:22.555Z</time></trkpt><trkpt lat="43.1028753" lon="13.5580903"><ele>149.0</ele><time>2026-04-04T08:51:23.555Z</time></trkpt><trkpt lat="43.102827" lon="13.5580115"><ele>149.0</ele><time>2026-04-04T08:51:24.556Z</time></trkpt><trkpt lat="43.1027757" lon="13.5579349"><ele>149.0</ele><time>2026-04-04T08:51:25.555Z</time></trkpt><trkpt lat="43.102729" lon="13.5578624"><ele>149.0</ele><time>2026-04-04T08:51:26.555Z</time></trkpt><trkpt lat="43.1026856" lon="13.5577894"><ele>149.0</ele><time>2026-04-04T08:51:27.556Z</time></trkpt><trkpt lat="43.1026454" lon="13.5577174"><ele>149.0</ele><time>2026-04-04T08:51:28.556Z</time></trkpt><trkpt lat="43.1026021" lon="13.5576437"><ele>149.0</ele><time>2026-04-04T08:51:29.555Z</time></trkpt><trkpt lat="43.1025601" lon="13.5575705"><ele>149.0</ele><time>2026-04-04T08:51:30.556Z</time></trkpt><trkpt lat="43.1025235" lon="13.557496"><ele>149.0</ele><time>2026-04-04T08:51:31.556Z</time></trkpt><trkpt lat="43.1024848" lon="13.5574235"><ele>149.0</ele><time>2026-04-04T08:51:32.556Z</time></trkpt><trkpt lat="43.1024472" lon="13.5573537"><ele>149.0</ele><time>2026-04-04T08:51:33.556Z</time></trkpt><trkpt lat="43.1024084" lon="13.5572783"><ele>149.0</ele><time>2026-04-04T08:51:34.556Z</time></trkpt><trkpt lat="43.1023645" lon="13.5572003"><ele>149.0</ele><time>2026-04-04T08:51:35.556Z</time></trkpt><trkpt lat="43.1023209" lon="13.5571229"><ele>149.0</ele><time>2026-04-04T08:51:36.556Z</time></trkpt><trkpt lat="43.1022761" lon="13.5570423"><ele>149.0</ele><time>2026-04-04T08:51:37.556Z</time></trkpt><trkpt lat="43.1022344" lon="13.5569572"><ele>148.66666666666666</ele><time>2026-04-04T08:51:38.556Z</time></trkpt><trkpt lat="43.1021928" lon="13.5568719"><ele>148.33333333333331</ele><time>2026-04-04T08:51:39.555Z</time></trkpt><trkpt lat="43.1021441" lon="13.5567915"><ele>148.0</ele><time>2026-04-04T08:51:40.555Z</time></trkpt><trkpt lat="43.1020983" lon="13.5567078"><ele>147.66666666666666</ele><time>2026-04-04T08:51:41.556Z</time></trkpt><trkpt lat="43.102056" lon="13.556627"><ele>147.33333333333334</ele><time>2026-04-04T08:51:42.555Z</time></trkpt><trkpt lat="43.1020159" lon="13.5565559"><ele>147.0</ele><time>2026-04-04T08:51:43.555Z</time></trkpt><trkpt lat="43.1019411" lon="13.5564302"><ele>147.0</ele><time>2026-04-04T08:51:45.556Z</time></trkpt><trkpt lat="43.1018727" lon="13.5563025"><ele>147.0</ele><time>2026-04-04T08:51:47.555Z</time></trkpt><trkpt lat="43.1018079" lon="13.5561832"><ele>147.0</ele><time>2026-04-04T08:51:49.555Z</time></trkpt><trkpt lat="43.1017517" lon="13.5560709"><ele>147.0</ele><time>2026-04-04T08:51:51.556Z</time></trkpt><trkpt lat="43.1016918" lon="13.5559742"><ele>147.0</ele><time>2026-04-04T08:51:53.556Z</time></trkpt><trkpt lat="43.1016371" lon="13.555885"><ele>147.0</ele><time>2026-04-04T08:51:55.556Z</time></trkpt><trkpt lat="43.1015902" lon="13.5557964"><ele>147.0</ele><time>2026-04-04T08:51:57.556Z</time></trkpt><trkpt lat="43.10154" lon="13.5557068"><ele>147.0</ele><time>2026-04-04T08:51:59.556Z</time></trkpt><trkpt lat="43.1014911" lon="13.5556253"><ele>147.0</ele><time>2026-04-04T08:52:01.555Z</time></trkpt><trkpt lat="43.1014466" lon="13.5555456"><ele>147.0</ele><time>2026-04-04T08:52:03.556Z</time></trkpt><trkpt lat="43.1014064" lon="13.5554671"><ele>147.0</ele><time>2026-04-04T08:52:05.555Z</time></trkpt><trkpt lat="43.1013669" lon="13.555397"><ele>147.0</ele><time>2026-04-04T08:52:07.555Z</time></trkpt><trkpt lat="43.1013067" lon="13.5552972"><ele>147.33333333333334</ele><time>2026-04-04T08:52:10.555Z</time></trkpt><trkpt lat="43.1012647" lon="13.5552147"><ele>147.66666666666666</ele><time>2026-04-04T08:52:13.554Z</time></trkpt><trkpt lat="43.1012441" lon="13.5551124"><ele>148.0</ele><time>2026-04-04T08:52:17.555Z</time></trkpt><trkpt lat="43.1012657" lon="13.5550157"><ele>148.33333333333331</ele><time>2026-04-04T08:52:20.554Z</time></trkpt><trkpt lat="43.1013155" lon="13.5549376"><ele>148.66666666666666</ele><time>2026-04-04T08:52:22.555Z</time></trkpt><trkpt lat="43.1013864" lon="13.5548545"><ele>149.0</ele><time>2026-04-04T08:52:24.554Z</time></trkpt><trkpt lat="43.1014694" lon="13.5547524"><ele>149.0</ele><time>2026-04-04T08:52:26.555Z</time></trkpt><trkpt lat="43.1015565" lon="13.5546484"><ele>149.0</ele><time>2026-04-04T08:52:28.555Z</time></trkpt><trkpt lat="43.1016527" lon="13.5545479"><ele>149.0</ele><time>2026-04-04T08:52:30.555Z</time></trkpt><trkpt lat="43.1017405" lon="13.5544561"><ele>149.0</ele><time>2026-04-04T08:52:32.554Z</time></trkpt><trkpt lat="43.1018263" lon="13.5543921"><ele>149.0</ele><time>2026-04-04T08:52:34.555Z</time></trkpt><trkpt lat="43.1019162" lon="13.5543158"><ele>149.5</ele><time>2026-04-04T08:52:36.554Z</time></trkpt><trkpt lat="43.1019964" lon="13.5541922"><ele>150.0</ele><time>2026-04-04T08:52:38.554Z</time></trkpt><trkpt lat="43.1020426" lon="13.5541238"><ele>150.5</ele><time>2026-04-04T08:52:39.555Z</time></trkpt><trkpt lat="43.1020906" lon="13.5540576"><ele>151.0</ele><time>2026-04-04T08:52:40.554Z</time></trkpt><trkpt lat="43.1021336" lon="13.5539749"><ele>151.5</ele><time>2026-04-04T08:52:41.555Z</time></trkpt><trkpt lat="43.1021853" lon="13.5538567"><ele>152.0</ele><time>2026-04-04T08:52:43.555Z</time></trkpt><trkpt lat="43.1021714" lon="13.5537621"><ele>152.6</ele><time>2026-04-04T08:52:45.555Z</time></trkpt><trkpt lat="43.1021009" lon="13.5537042"><ele>153.2</ele><time>2026-04-04T08:52:47.555Z</time></trkpt><trkpt lat="43.1019726" lon="13.5536511"><ele>153.8</ele><time>2026-04-04T08:52:49.555Z</time></trkpt><trkpt lat="43.1018988" lon="13.553599"><ele>154.4</ele><time>2026-04-04T08:52:50.554Z</time></trkpt><trkpt lat="43.1018236" lon="13.5535313"><ele>155.0</ele><time>2026-04-04T08:52:51.554Z</time></trkpt><trkpt lat="43.1017438" lon="13.5534528"><ele>155.0</ele><time>2026-04-04T08:52:52.554Z</time></trkpt><trkpt lat="43.1016752" lon="13.5533833"><ele>155.0</ele><time>2026-04-04T08:52:53.555Z</time></trkpt><trkpt lat="43.1016146" lon="13.5533297"><ele>155.0</ele><time>2026-04-04T08:52:54.555Z</time></trkpt><trkpt lat="43.1015483" lon="13.5532848"><ele>155.0</ele><time>2026-04-04T08:52:55.554Z</time></trkpt><trkpt lat="43.1014852" lon="13.553238"><ele>155.0</ele><time>2026-04-04T08:52:56.555Z</time></trkpt><trkpt lat="43.1014261" lon="13.5531822"><ele>155.0</ele><time>2026-04-04T08:52:57.554Z</time></trkpt><trkpt lat="43.1013756" lon="13.5531096"><ele>155.0</ele><time>2026-04-04T08:52:58.555Z</time></trkpt><trkpt lat="43.1013261" lon="13.5530354"><ele>155.16666666666666</ele><time>2026-04-04T08:52:59.554Z</time></trkpt><trkpt lat="43.1012754" lon="13.55297"><ele>155.33333333333331</ele><time>2026-04-04T08:53:00.554Z</time></trkpt><trkpt lat="43.1012201" lon="13.5529096"><ele>155.5</ele><time>2026-04-04T08:53:01.554Z</time></trkpt><trkpt lat="43.1011583" lon="13.5528588"><ele>155.66666666666666</ele><time>2026-04-04T08:53:02.554Z</time></trkpt><trkpt lat="43.1010925" lon="13.552795"><ele>155.83333333333334</ele><time>2026-04-04T08:53:03.554Z</time></trkpt><trkpt lat="43.1010241" lon="13.5527144"><ele>156.0</ele><time>2026-04-04T08:53:04.555Z</time></trkpt><trkpt lat="43.1009469" lon="13.5526107"><ele>156.0</ele><time>2026-04-04T08:53:05.555Z</time></trkpt><trkpt lat="43.1008571" lon="13.5525103"><ele>156.0</ele><time>2026-04-04T08:53:06.555Z</time></trkpt><trkpt lat="43.1007625" lon="13.5524125"><ele>156.0</ele><time>2026-04-04T08:53:07.554Z</time></trkpt><trkpt lat="43.1006663" lon="13.5523261"><ele>156.0</ele><time>2026-04-04T08:53:08.554Z</time></trkpt><trkpt lat="43.1005589" lon="13.5522364"><ele>155.6</ele><time>2026-04-04T08:53:09.554Z</time></trkpt><trkpt lat="43.1004514" lon="13.5521529"><ele>155.2</ele><time>2026-04-04T08:53:10.554Z</time></trkpt><trkpt lat="43.1003531" lon="13.5520753"><ele>154.8</ele><time>2026-04-04T08:53:11.554Z</time></trkpt><trkpt lat="43.1002694" lon="13.5519927"><ele>154.4</ele><time>2026-04-04T08:53:12.554Z</time></trkpt><trkpt lat="43.1001945" lon="13.5519202"><ele>154.0</ele><time>2026-04-04T08:53:13.555Z</time></trkpt><trkpt lat="43.100113" lon="13.551849"><ele>153.66666666666669</ele><time>2026-04-04T08:53:14.555Z</time></trkpt><trkpt lat="43.1000283" lon="13.5517791"><ele>153.33333333333334</ele><time>2026-04-04T08:53:15.554Z</time></trkpt><trkpt lat="43.0999551" lon="13.5517101"><ele>153.0</ele><time>2026-04-04T08:53:16.555Z</time></trkpt><trkpt lat="43.0998825" lon="13.5516438"><ele>152.66666666666666</ele><time>2026-04-04T08:53:17.554Z</time></trkpt><trkpt lat="43.0998124" lon="13.5515917"><ele>152.33333333333331</ele><time>2026-04-04T08:53:18.554Z</time></trkpt><trkpt lat="43.0997493" lon="13.5515366"><ele>152.0</ele><time>2026-04-04T08:53:19.554Z</time></trkpt><trkpt lat="43.0996854" lon="13.5514764"><ele>152.0</ele><time>2026-04-04T08:53:20.554Z</time></trkpt><trkpt lat="43.0996233" lon="13.5514041"><ele>152.0</ele><time>2026-04-04T08:53:21.555Z</time></trkpt><trkpt lat="43.0995644" lon="13.5513222"><ele>152.0</ele><time>2026-04-04T08:53:22.555Z</time></trkpt><trkpt lat="43.099509" lon="13.5512477"><ele>152.0</ele><time>2026-04-04T08:53:23.555Z</time></trkpt><trkpt lat="43.0994595" lon="13.5511861"><ele>152.0</ele><time>2026-04-04T08:53:24.554Z</time></trkpt><trkpt lat="43.0993665" lon="13.5510749"><ele>152.0</ele><time>2026-04-04T08:53:26.554Z</time></trkpt><trkpt lat="43.0993111" lon="13.5510214"><ele>152.5</ele><time>2026-04-04T08:53:27.554Z</time></trkpt><trkpt lat="43.0992015" lon="13.5509328"><ele>153.0</ele><time>2026-04-04T08:53:29.554Z</time></trkpt><trkpt lat="43.0991383" lon="13.5508952"><ele>153.5</ele><time>2026-04-04T08:53:30.555Z</time></trkpt><trkpt lat="43.0990772" lon="13.5508628"><ele>154.0</ele><time>2026-04-04T08:53:31.555Z</time></trkpt><trkpt lat="43.0990104" lon="13.5508223"><ele>154.5</ele><time>2026-04-04T08:53:32.555Z</time></trkpt><trkpt lat="43.0989455" lon="13.55078"><ele>155.0</ele><time>2026-04-04T08:53:33.555Z</time></trkpt><trkpt lat="43.0988826" lon="13.5507469"><ele>155.0</ele><time>2026-04-04T08:53:34.555Z</time></trkpt><trkpt lat="43.098818" lon="13.5507103"><ele>155.0</ele><time>2026-04-04T08:53:35.555Z</time></trkpt><trkpt lat="43.0987525" lon="13.5506885"><ele>155.0</ele><time>2026-04-04T08:53:36.555Z</time></trkpt><trkpt lat="43.0986866" lon="13.5506787"><ele>155.0</ele><time>2026-04-04T08:53:37.555Z</time></trkpt><trkpt lat="43.0986177" lon="13.5506438"><ele>155.0</ele><time>2026-04-04T08:53:38.555Z</time></trkpt><trkpt lat="43.0985386" lon="13.550595"><ele>155.0</ele><time>2026-04-04T08:53:39.554Z</time></trkpt><trkpt lat="43.0984538" lon="13.5505492"><ele>155.0</ele><time>2026-04-04T08:53:40.555Z</time></trkpt><trkpt lat="43.0983667" lon="13.5505057"><ele>155.0</ele><time>2026-04-04T08:53:41.554Z</time></trkpt><trkpt lat="43.0982809" lon="13.5504708"><ele>155.0</ele><time>2026-04-04T08:53:42.555Z</time></trkpt><trkpt lat="43.0982021" lon="13.5504299"><ele>155.0</ele><time>2026-04-04T08:53:43.554Z</time></trkpt><trkpt lat="43.0981329" lon="13.5503885"><ele>155.0</ele><time>2026-04-04T08:53:44.555Z</time></trkpt><trkpt lat="43.0980411" lon="13.5503215"><ele>155.0</ele><time>2026-04-04T08:53:46.554Z</time></trkpt><trkpt lat="43.0979939" lon="13.5502537"><ele>155.66666666666666</ele><time>2026-04-04T08:53:51.554Z</time></trkpt><trkpt lat="43.0979214" lon="13.550178"><ele>156.33333333333331</ele><time>2026-04-04T08:53:55.555Z</time></trkpt><trkpt lat="43.0978418" lon="13.5500567"><ele>157.0</ele><time>2026-04-04T08:53:57.554Z</time></trkpt><trkpt lat="43.0978128" lon="13.5499701"><ele>157.66666666666666</ele><time>2026-04-04T08:53:58.555Z</time></trkpt><trkpt lat="43.0977896" lon="13.5498665"><ele>158.33333333333334</ele><time>2026-04-04T08:53:59.554Z</time></trkpt><trkpt lat="43.0977657" lon="13.5497596"><ele>159.0</ele><time>2026-04-04T08:54:00.554Z</time></trkpt><trkpt lat="43.0977456" lon="13.549646"><ele>159.0</ele><time>2026-04-04T08:54:01.554Z</time></trkpt><trkpt lat="43.09773" lon="13.5495432"><ele>159.0</ele><time>2026-04-04T08:54:02.555Z</time></trkpt><trkpt lat="43.0977111" lon="13.5494256"><ele>159.0</ele><time>2026-04-04T08:54:03.555Z</time></trkpt><trkpt lat="43.0976914" lon="13.5492955"><ele>159.0</ele><time>2026-04-04T08:54:04.555Z</time></trkpt><trkpt lat="43.0976731" lon="13.5491584"><ele>159.0</ele><time>2026-04-04T08:54:05.554Z</time></trkpt><trkpt lat="43.097668" lon="13.5490034"><ele>159.0</ele><time>2026-04-04T08:54:06.554Z</time></trkpt><trkpt lat="43.097669" lon="13.5488446"><ele>159.0</ele><time>2026-04-04T08:54:07.554Z</time></trkpt><trkpt lat="43.0976741" lon="13.5487023"><ele>159.0</ele><time>2026-04-04T08:54:08.555Z</time></trkpt><trkpt lat="43.0976788" lon="13.548574"><ele>159.0</ele><time>2026-04-04T08:54:09.555Z</time></trkpt><trkpt lat="43.0976805" lon="13.5484586"><ele>159.0</ele><time>2026-04-04T08:54:10.555Z</time></trkpt><trkpt lat="43.0976767" lon="13.5483505"><ele>159.0</ele><time>2026-04-04T08:54:11.554Z</time></trkpt><trkpt lat="43.0976816" lon="13.5482643"><ele>159.0</ele><time>2026-04-04T08:54:12.555Z</time></trkpt><trkpt lat="43.0977087" lon="13.5481522"><ele>159.0</ele><time>2026-04-04T08:54:14.554Z</time></trkpt><trkpt lat="43.0977977" lon="13.54815"><ele>159.0</ele><time>2026-04-04T08:54:17.555Z</time></trkpt><trkpt lat="43.0978836" lon="13.5481487"><ele>159.0</ele><time>2026-04-04T08:54:19.555Z</time></trkpt><trkpt lat="43.0979548" lon="13.5480268"><ele>159.0</ele><time>2026-04-04T08:54:21.555Z</time></trkpt><trkpt lat="43.0979859" lon="13.5479147"><ele>158.5</ele><time>2026-04-04T08:54:22.554Z</time></trkpt><trkpt lat="43.0980165" lon="13.5477757"><ele>158.0</ele><time>2026-04-04T08:54:23.555Z</time></trkpt><trkpt lat="43.0980457" lon="13.5476142"><ele>157.5</ele><time>2026-04-04T08:54:24.554Z</time></trkpt><trkpt lat="43.0980698" lon="13.5474398"><ele>157.0</ele><time>2026-04-04T08:54:25.554Z</time></trkpt><trkpt lat="43.0980903" lon="13.5472709"><ele>157.0</ele><time>2026-04-04T08:54:26.555Z</time></trkpt><trkpt lat="43.0981055" lon="13.5471115"><ele>157.0</ele><time>2026-04-04T08:54:27.555Z</time></trkpt><trkpt lat="43.0981193" lon="13.5469621"><ele>157.0</ele><time>2026-04-04T08:54:28.555Z</time></trkpt><trkpt lat="43.0981314" lon="13.5468148"><ele>157.0</ele><time>2026-04-04T08:54:29.554Z</time></trkpt><trkpt lat="43.0981445" lon="13.5466698"><ele>157.0</ele><time>2026-04-04T08:54:30.554Z</time></trkpt><trkpt lat="43.0981552" lon="13.5465368"><ele>157.0</ele><time>2026-04-04T08:54:31.555Z</time></trkpt><trkpt lat="43.0981652" lon="13.5464072"><ele>157.0</ele><time>2026-04-04T08:54:32.555Z</time></trkpt><trkpt lat="43.0981737" lon="13.5462719"><ele>157.0</ele><time>2026-04-04T08:54:33.554Z</time></trkpt><trkpt lat="43.0981877" lon="13.5461417"><ele>157.0</ele><time>2026-04-04T08:54:34.554Z</time></trkpt><trkpt lat="43.098201" lon="13.5460139"><ele>157.0</ele><time>2026-04-04T08:54:35.554Z</time></trkpt><trkpt lat="43.098224" lon="13.5458859"><ele>157.0</ele><time>2026-04-04T08:54:36.554Z</time></trkpt><trkpt lat="43.098245" lon="13.5457643"><ele>157.0</ele><time>2026-04-04T08:54:37.554Z</time></trkpt><trkpt lat="43.0982628" lon="13.5456448"><ele>157.0</ele><time>2026-04-04T08:54:38.554Z</time></trkpt><trkpt lat="43.0982772" lon="13.5455305"><ele>157.0</ele><time>2026-04-04T08:54:39.555Z</time></trkpt><trkpt lat="43.0982881" lon="13.5454203"><ele>157.0</ele><time>2026-04-04T08:54:40.554Z</time></trkpt><trkpt lat="43.0983033" lon="13.5453112"><ele>157.0</ele><time>2026-04-04T08:54:41.554Z</time></trkpt><trkpt lat="43.09832" lon="13.5452059"><ele>157.28571428571428</ele><time>2026-04-04T08:54:42.554Z</time></trkpt><trkpt lat="43.0983358" lon="13.545103"><ele>157.57142857142856</ele><time>2026-04-04T08:54:43.554Z</time></trkpt><trkpt lat="43.0983486" lon="13.5450031"><ele>157.85714285714283</ele><time>2026-04-04T08:54:44.555Z</time></trkpt><trkpt lat="43.0983602" lon="13.5449079"><ele>158.14285714285714</ele><time>2026-04-04T08:54:45.554Z</time></trkpt><trkpt lat="43.0983691" lon="13.5448174"><ele>158.42857142857144</ele><time>2026-04-04T08:54:46.554Z</time></trkpt><trkpt lat="43.0983762" lon="13.5447254"><ele>158.7142857142857</ele><time>2026-04-04T08:54:47.554Z</time></trkpt><trkpt lat="43.0983877" lon="13.5446353"><ele>159.0</ele><time>2026-04-04T08:54:48.555Z</time></trkpt><trkpt lat="43.0983934" lon="13.5445458"><ele>159.14285714285714</ele><time>2026-04-04T08:54:49.554Z</time></trkpt><trkpt lat="43.0984011" lon="13.5444564"><ele>159.2857142857143</ele><time>2026-04-04T08:54:50.554Z</time></trkpt><trkpt lat="43.0984094" lon="13.5443689"><ele>159.42857142857144</ele><time>2026-04-04T08:54:51.554Z</time></trkpt><trkpt lat="43.0984166" lon="13.5442765"><ele>159.57142857142856</ele><time>2026-04-04T08:54:52.555Z</time></trkpt><trkpt lat="43.0984256" lon="13.5441773"><ele>159.71428571428572</ele><time>2026-04-04T08:54:53.554Z</time></trkpt><trkpt lat="43.0984365" lon="13.5440661"><ele>159.85714285714286</ele><time>2026-04-04T08:54:54.555Z</time></trkpt><trkpt lat="43.0984493" lon="13.5439429"><ele>160.0</ele><time>2026-04-04T08:54:55.554Z</time></trkpt><trkpt lat="43.0984614" lon="13.543817"><ele>160.0</ele><time>2026-04-04T08:54:56.555Z</time></trkpt><trkpt lat="43.098474" lon="13.5436766"><ele>160.0</ele><time>2026-04-04T08:54:57.555Z</time></trkpt><trkpt lat="43.0984907" lon="13.5435307"><ele>160.0</ele><time>2026-04-04T08:54:58.555Z</time></trkpt><trkpt lat="43.098508" lon="13.5433899"><ele>160.0</ele><time>2026-04-04T08:54:59.555Z</time></trkpt><trkpt lat="43.0985266" lon="13.5432587"><ele>160.0</ele><time>2026-04-04T08:55:00.555Z</time></trkpt><trkpt lat="43.0985469" lon="13.5431215"><ele>160.0</ele><time>2026-04-04T08:55:01.555Z</time></trkpt><trkpt lat="43.098578" lon="13.5429725"><ele>160.0</ele><time>2026-04-04T08:55:02.554Z</time></trkpt><trkpt lat="43.0986108" lon="13.5428276"><ele>160.0</ele><time>2026-04-04T08:55:03.555Z</time></trkpt><trkpt lat="43.0986395" lon="13.542696"><ele>160.0</ele><time>2026-04-04T08:55:04.554Z</time></trkpt><trkpt lat="43.0986665" lon="13.5425803"><ele>160.0</ele><time>2026-04-04T08:55:05.555Z</time></trkpt><trkpt lat="43.0986902" lon="13.5424838"><ele>160.0</ele><time>2026-04-04T08:55:06.554Z</time></trkpt><trkpt lat="43.0987507" lon="13.5423576"><ele>160.0</ele><time>2026-04-04T08:55:08.555Z</time></trkpt><trkpt lat="43.09887" lon="13.5423229"><ele>160.0</ele><time>2026-04-04T08:55:10.554Z</time></trkpt><trkpt lat="43.0989648" lon="13.5422911"><ele>160.0</ele><time>2026-04-04T08:55:12.554Z</time></trkpt><trkpt lat="43.0989162" lon="13.5422136"><ele>160.0</ele><time>2026-04-04T08:55:58.555Z</time></trkpt><trkpt lat="43.0987924" lon="13.5422456"><ele>160.0</ele><time>2026-04-04T08:56:00.555Z</time></trkpt><trkpt lat="43.0987189" lon="13.5422744"><ele>160.0</ele><time>2026-04-04T08:56:01.554Z</time></trkpt><trkpt lat="43.0986268" lon="13.5423059"><ele>160.0</ele><time>2026-04-04T08:56:02.554Z</time></trkpt><trkpt lat="43.0985185" lon="13.5423205"><ele>160.0</ele><time>2026-04-04T08:56:03.554Z</time></trkpt><trkpt lat="43.0984006" lon="13.5423207"><ele>160.0</ele><time>2026-04-04T08:56:04.554Z</time></trkpt><trkpt lat="43.098281" lon="13.5422964"><ele>159.25</ele><time>2026-04-04T08:56:05.554Z</time></trkpt><trkpt lat="43.0981632" lon="13.5422624"><ele>158.5</ele><time>2026-04-04T08:56:06.554Z</time></trkpt><trkpt lat="43.0980445" lon="13.5422313"><ele>157.75</ele><time>2026-04-04T08:56:07.554Z</time></trkpt><trkpt lat="43.0979279" lon="13.5421993"><ele>157.0</ele><time>2026-04-04T08:56:08.554Z</time></trkpt><trkpt lat="43.0978246" lon="13.5421714"><ele>157.0</ele><time>2026-04-04T08:56:09.555Z</time></trkpt><trkpt lat="43.0977279" lon="13.5421426"><ele>157.0</ele><time>2026-04-04T08:56:10.554Z</time></trkpt><trkpt lat="43.0976359" lon="13.542108"><ele>157.0</ele><time>2026-04-04T08:56:11.555Z</time></trkpt><trkpt lat="43.097537" lon="13.5420761"><ele>157.0</ele><time>2026-04-04T08:56:12.555Z</time></trkpt><trkpt lat="43.0974277" lon="13.5420487"><ele>157.0</ele><time>2026-04-04T08:56:13.555Z</time></trkpt><trkpt lat="43.0973037" lon="13.542016"><ele>158.75</ele><time>2026-04-04T08:56:14.554Z</time></trkpt><trkpt lat="43.0971718" lon="13.5419805"><ele>160.5</ele><time>2026-04-04T08:56:15.555Z</time></trkpt><trkpt lat="43.0970319" lon="13.5419409"><ele>162.25</ele><time>2026-04-04T08:56:16.554Z</time></trkpt><trkpt lat="43.0969076" lon="13.5418855"><ele>164.0</ele><time>2026-04-04T08:56:17.555Z</time></trkpt><trkpt lat="43.0967952" lon="13.5417954"><ele>164.0</ele><time>2026-04-04T08:56:18.554Z</time></trkpt><trkpt lat="43.0967041" lon="13.541664"><ele>164.0</ele><time>2026-04-04T08:56:19.555Z</time></trkpt><trkpt lat="43.0966318" lon="13.5415113"><ele>164.0</ele><time>2026-04-04T08:56:20.554Z</time></trkpt><trkpt lat="43.0965835" lon="13.5413498"><ele>164.0</ele><time>2026-04-04T08:56:21.554Z</time></trkpt><trkpt lat="43.0965565" lon="13.5411752"><ele>168.5</ele><time>2026-04-04T08:56:22.554Z</time></trkpt><trkpt lat="43.0965323" lon="13.5409946"><ele>173.0</ele><time>2026-04-04T08:56:23.555Z</time></trkpt><trkpt lat="43.0965181" lon="13.5407957"><ele>177.5</ele><time>2026-04-04T08:56:24.555Z</time></trkpt><trkpt lat="43.0964864" lon="13.540597"><ele>182.0</ele><time>2026-04-04T08:56:25.554Z</time></trkpt><trkpt lat="43.0964454" lon="13.5403983"><ele>181.5</ele><time>2026-04-04T08:56:26.554Z</time></trkpt><trkpt lat="43.0964001" lon="13.540194"><ele>181.0</ele><time>2026-04-04T08:56:27.554Z</time></trkpt><trkpt lat="43.0963565" lon="13.5400023"><ele>180.5</ele><time>2026-04-04T08:56:28.555Z</time></trkpt><trkpt lat="43.0962946" lon="13.5398237"><ele>180.0</ele><time>2026-04-04T08:56:29.554Z</time></trkpt><trkpt lat="43.09623" lon="13.5396612"><ele>179.4</ele><time>2026-04-04T08:56:30.555Z</time></trkpt><trkpt lat="43.0961928" lon="13.5395196"><ele>178.8</ele><time>2026-04-04T08:56:31.554Z</time></trkpt><trkpt lat="43.0961819" lon="13.539354"><ele>178.2</ele><time>2026-04-04T08:56:32.555Z</time></trkpt><trkpt lat="43.0961654" lon="13.5392014"><ele>177.6</ele><time>2026-04-04T08:56:33.554Z</time></trkpt><trkpt lat="43.0961422" lon="13.5390681"><ele>177.0</ele><time>2026-04-04T08:56:34.555Z</time></trkpt><trkpt lat="43.0961092" lon="13.5389588"><ele>177.0</ele><time>2026-04-04T08:56:35.555Z</time></trkpt><trkpt lat="43.0960663" lon="13.5388722"><ele>177.0</ele><time>2026-04-04T08:56:36.555Z</time></trkpt><trkpt lat="43.096005" lon="13.5388005"><ele>177.0</ele><time>2026-04-04T08:56:37.554Z</time></trkpt><trkpt lat="43.0959352" lon="13.5387153"><ele>177.0</ele><time>2026-04-04T08:56:38.554Z</time></trkpt><trkpt lat="43.0958606" lon="13.5385945"><ele>177.0</ele><time>2026-04-04T08:56:39.554Z</time></trkpt><trkpt lat="43.0957844" lon="13.5384384"><ele>181.33333333333334</ele><time>2026-04-04T08:56:40.554Z</time></trkpt><trkpt lat="43.0957044" lon="13.5382517"><ele>185.66666666666669</ele><time>2026-04-04T08:56:41.555Z</time></trkpt><trkpt lat="43.0956277" lon="13.5380599"><ele>190.0</ele><time>2026-04-04T08:56:42.554Z</time></trkpt><trkpt lat="43.0955712" lon="13.5378793"><ele>190.5</ele><time>2026-04-04T08:56:43.554Z</time></trkpt><trkpt lat="43.0955363" lon="13.5377039"><ele>191.0</ele><time>2026-04-04T08:56:44.554Z</time></trkpt><trkpt lat="43.0955442" lon="13.5375294"><ele>191.5</ele><time>2026-04-04T08:56:45.555Z</time></trkpt><trkpt lat="43.0955893" lon="13.5373382"><ele>192.0</ele><time>2026-04-04T08:56:46.555Z</time></trkpt><trkpt lat="43.0956456" lon="13.5371389"><ele>193.66666666666669</ele><time>2026-04-04T08:56:47.554Z</time></trkpt><trkpt lat="43.0957083" lon="13.536917"><ele>195.33333333333334</ele><time>2026-04-04T08:56:48.555Z</time></trkpt><trkpt lat="43.0957768" lon="13.5366633"><ele>197.0</ele><time>2026-04-04T08:56:49.554Z</time></trkpt><trkpt lat="43.0958445" lon="13.5364056"><ele>190.66666666666669</ele><time>2026-04-04T08:56:50.554Z</time></trkpt><trkpt lat="43.0959097" lon="13.5361708"><ele>184.33333333333334</ele><time>2026-04-04T08:56:51.555Z</time></trkpt><trkpt lat="43.0959563" lon="13.5359481"><ele>178.0</ele><time>2026-04-04T08:56:52.555Z</time></trkpt><trkpt lat="43.0959861" lon="13.5357435"><ele>178.0</ele><time>2026-04-04T08:56:53.555Z</time></trkpt><trkpt lat="43.0960045" lon="13.5355617"><ele>178.0</ele><time>2026-04-04T08:56:54.555Z</time></trkpt><trkpt lat="43.0960126" lon="13.5354133"><ele>178.0</ele><time>2026-04-04T08:56:55.554Z</time></trkpt><trkpt lat="43.0960197" lon="13.5352988"><ele>178.0</ele><time>2026-04-04T08:56:56.555Z</time></trkpt><trkpt lat="43.0960402" lon="13.5351776"><ele>178.0</ele><time>2026-04-04T08:56:58.554Z</time></trkpt><trkpt lat="43.0961329" lon="13.5351518"><ele>178.4</ele><time>2026-04-04T08:57:01.554Z</time></trkpt><trkpt lat="43.0962257" lon="13.5351773"><ele>178.8</ele><time>2026-04-04T08:57:03.555Z</time></trkpt><trkpt lat="43.09632" lon="13.5351998"><ele>179.2</ele><time>2026-04-04T08:57:05.554Z</time></trkpt><trkpt lat="43.0964166" lon="13.5352169"><ele>179.6</ele><time>2026-04-04T08:57:07.554Z</time></trkpt><trkpt lat="43.0965213" lon="13.5352276"><ele>180.0</ele><time>2026-04-04T08:57:09.554Z</time></trkpt><trkpt lat="43.0966127" lon="13.5352538"><ele>177.83333333333334</ele><time>2026-04-04T08:57:11.554Z</time></trkpt><trkpt lat="43.0966977" lon="13.5352508"><ele>175.66666666666666</ele><time>2026-04-04T08:57:13.554Z</time></trkpt><trkpt lat="43.0967778" lon="13.5351889"><ele>173.5</ele><time>2026-04-04T08:57:15.554Z</time></trkpt><trkpt lat="43.096836" lon="13.5351307"><ele>171.33333333333331</ele><time>2026-04-04T08:57:17.554Z</time></trkpt><trkpt lat="43.0969084" lon="13.5350909"><ele>169.16666666666666</ele><time>2026-04-04T08:57:19.553Z</time></trkpt><trkpt lat="43.0969746" lon="13.5350825"><ele>167.0</ele><time>2026-04-04T08:57:21.553Z</time></trkpt><trkpt lat="43.0970483" lon="13.5350898"><ele>167.0</ele><time>2026-04-04T08:57:23.553Z</time></trkpt><trkpt lat="43.0971222" lon="13.5350678"><ele>167.0</ele><time>2026-04-04T08:57:25.553Z</time></trkpt><trkpt lat="43.0971821" lon="13.5350292"><ele>167.0</ele><time>2026-04-04T08:57:27.553Z</time></trkpt><trkpt lat="43.0972314" lon="13.5349749"><ele>167.0</ele><time>2026-04-04T08:57:29.553Z</time></trkpt><trkpt lat="43.0972787" lon="13.5349141"><ele>167.0</ele><time>2026-04-04T08:57:31.553Z</time></trkpt><trkpt lat="43.0973379" lon="13.5348498"><ele>167.0</ele><time>2026-04-04T08:57:33.554Z</time></trkpt><trkpt lat="43.0973986" lon="13.5347647"><ele>167.0</ele><time>2026-04-04T08:57:36.554Z</time></trkpt><trkpt lat="43.0973979" lon="13.5346402"><ele>167.28571428571428</ele><time>2026-04-04T08:57:39.553Z</time></trkpt><trkpt lat="43.0973996" lon="13.5345297"><ele>167.57142857142858</ele><time>2026-04-04T08:57:41.553Z</time></trkpt><trkpt lat="43.097385" lon="13.5344378"><ele>167.85714285714286</ele><time>2026-04-04T08:57:43.554Z</time></trkpt><trkpt lat="43.0973647" lon="13.5343555"><ele>168.14285714285714</ele><time>2026-04-04T08:57:45.554Z</time></trkpt><trkpt lat="43.0973465" lon="13.5342598"><ele>168.42857142857142</ele><time>2026-04-04T08:57:47.553Z</time></trkpt><trkpt lat="43.097333" lon="13.5341709"><ele>168.71428571428572</ele><time>2026-04-04T08:57:49.554Z</time></trkpt><trkpt lat="43.097321" lon="13.5340565"><ele>169.0</ele><time>2026-04-04T08:57:51.554Z</time></trkpt><trkpt lat="43.0973149" lon="13.5338996"><ele>169.0</ele><time>2026-04-04T08:57:53.554Z</time></trkpt><trkpt lat="43.0973145" lon="13.5338083"><ele>169.0</ele><time>2026-04-04T08:57:54.554Z</time></trkpt><trkpt lat="43.0973115" lon="13.5337177"><ele>169.0</ele><time>2026-04-04T08:57:55.554Z</time></trkpt><trkpt lat="43.0972964" lon="13.5336274"><ele>169.0</ele><time>2026-04-04T08:57:56.554Z</time></trkpt><trkpt lat="43.0972658" lon="13.5335459"><ele>169.0</ele><time>2026-04-04T08:57:57.554Z</time></trkpt><trkpt lat="43.0972314" lon="13.5334696"><ele>169.0</ele><time>2026-04-04T08:57:58.553Z</time></trkpt><trkpt lat="43.0971556" lon="13.533348"><ele>168.6</ele><time>2026-04-04T08:58:00.554Z</time></trkpt><trkpt lat="43.097085" lon="13.5332012"><ele>168.2</ele><time>2026-04-04T08:58:02.553Z</time></trkpt><trkpt lat="43.0970621" lon="13.5330998"><ele>167.79999999999998</ele><time>2026-04-04T08:58:03.553Z</time></trkpt><trkpt lat="43.0970383" lon="13.5329804"><ele>167.39999999999998</ele><time>2026-04-04T08:58:04.554Z</time></trkpt><trkpt lat="43.0970097" lon="13.5328548"><ele>167.0</ele><time>2026-04-04T08:58:05.553Z</time></trkpt><trkpt lat="43.0969769" lon="13.5327345"><ele>166.5</ele><time>2026-04-04T08:58:06.553Z</time></trkpt><trkpt lat="43.0969465" lon="13.5326283"><ele>166.0</ele><time>2026-04-04T08:58:07.554Z</time></trkpt><trkpt lat="43.0969219" lon="13.5325325"><ele>165.5</ele><time>2026-04-04T08:58:08.554Z</time></trkpt><trkpt lat="43.0969025" lon="13.5324405"><ele>165.0</ele><time>2026-04-04T08:58:09.553Z</time></trkpt><trkpt lat="43.0968751" lon="13.5323295"><ele>164.5</ele><time>2026-04-04T08:58:10.554Z</time></trkpt><trkpt lat="43.0968563" lon="13.5322065"><ele>164.0</ele><time>2026-04-04T08:58:11.553Z</time></trkpt><trkpt lat="43.0968284" lon="13.5320956"><ele>164.0</ele><time>2026-04-04T08:58:12.554Z</time></trkpt><trkpt lat="43.0968018" lon="13.5319873"><ele>164.0</ele><time>2026-04-04T08:58:13.554Z</time></trkpt><trkpt lat="43.096781" lon="13.5318711"><ele>164.0</ele><time>2026-04-04T08:58:14.554Z</time></trkpt><trkpt lat="43.0967686" lon="13.5317457"><ele>164.0</ele><time>2026-04-04T08:58:15.553Z</time></trkpt><trkpt lat="43.0967623" lon="13.531623"><ele>164.0</ele><time>2026-04-04T08:58:16.554Z</time></trkpt><trkpt lat="43.096763" lon="13.5315055"><ele>164.0</ele><time>2026-04-04T08:58:17.554Z</time></trkpt><trkpt lat="43.096764" lon="13.5313962"><ele>164.0</ele><time>2026-04-04T08:58:18.553Z</time></trkpt><trkpt lat="43.0967625" lon="13.5312892"><ele>164.0</ele><time>2026-04-04T08:58:19.553Z</time></trkpt><trkpt lat="43.0967588" lon="13.5312022"><ele>164.0</ele><time>2026-04-04T08:58:20.554Z</time></trkpt><trkpt lat="43.0967419" lon="13.5310582"><ele>164.0</ele><time>2026-04-04T08:58:22.553Z</time></trkpt><trkpt lat="43.0967285" lon="13.5309229"><ele>164.0</ele><time>2026-04-04T08:58:24.554Z</time></trkpt><trkpt lat="43.096725" lon="13.5307852"><ele>164.0</ele><time>2026-04-04T08:58:26.554Z</time></trkpt><trkpt lat="43.0967364" lon="13.5306622"><ele>164.16666666666666</ele><time>2026-04-04T08:58:28.554Z</time></trkpt><trkpt lat="43.0967435" lon="13.5305567"><ele>164.33333333333331</ele><time>2026-04-04T08:58:30.553Z</time></trkpt><trkpt lat="43.0967416" lon="13.5304441"><ele>164.5</ele><time>2026-04-04T08:58:32.553Z</time></trkpt><trkpt lat="43.0967282" lon="13.5302995"><ele>164.66666666666666</ele><time>2026-04-04T08:58:34.553Z</time></trkpt><trkpt lat="43.0967066" lon="13.5302107"><ele>164.83333333333334</ele><time>2026-04-04T08:58:35.554Z</time></trkpt><trkpt lat="43.0966795" lon="13.53011"><ele>165.0</ele><time>2026-04-04T08:58:36.554Z</time></trkpt><trkpt lat="43.0966609" lon="13.5300003"><ele>165.0</ele><time>2026-04-04T08:58:37.553Z</time></trkpt><trkpt lat="43.0966401" lon="13.5298819"><ele>165.0</ele><time>2026-04-04T08:58:38.553Z</time></trkpt><trkpt lat="43.0966183" lon="13.5297576"><ele>165.0</ele><time>2026-04-04T08:58:39.554Z</time></trkpt><trkpt lat="43.0965936" lon="13.5296215"><ele>165.0</ele><time>2026-04-04T08:58:40.553Z</time></trkpt><trkpt lat="43.0965745" lon="13.5294777"><ele>165.0</ele><time>2026-04-04T08:58:41.554Z</time></trkpt><trkpt lat="43.0965573" lon="13.5293185"><ele>165.5</ele><time>2026-04-04T08:58:42.553Z</time></trkpt><trkpt lat="43.0965451" lon="13.5291527"><ele>166.0</ele><time>2026-04-04T08:58:43.553Z</time></trkpt><trkpt lat="43.0965341" lon="13.5289885"><ele>166.5</ele><time>2026-04-04T08:58:44.553Z</time></trkpt><trkpt lat="43.0965231" lon="13.5288228"><ele>167.0</ele><time>2026-04-04T08:58:45.553Z</time></trkpt><trkpt lat="43.0965071" lon="13.5286566"><ele>167.6</ele><time>2026-04-04T08:58:46.553Z</time></trkpt><trkpt lat="43.0964891" lon="13.5284902"><ele>168.2</ele><time>2026-04-04T08:58:47.553Z</time></trkpt><trkpt lat="43.0964731" lon="13.5283343"><ele>168.8</ele><time>2026-04-04T08:58:48.553Z</time></trkpt><trkpt lat="43.0964629" lon="13.5281908"><ele>169.4</ele><time>2026-04-04T08:58:49.553Z</time></trkpt><trkpt lat="43.0964598" lon="13.5280726"><ele>170.0</ele><time>2026-04-04T08:58:50.553Z</time></trkpt><trkpt lat="43.0964549" lon="13.5279754"><ele>170.2</ele><time>2026-04-04T08:58:51.554Z</time></trkpt><trkpt lat="43.0964339" lon="13.5278173"><ele>170.4</ele><time>2026-04-04T08:58:53.554Z</time></trkpt><trkpt lat="43.0964025" lon="13.5276432"><ele>170.60000000000002</ele><time>2026-04-04T08:58:55.554Z</time></trkpt><trkpt lat="43.0963967" lon="13.5275466"><ele>170.8</ele><time>2026-04-04T08:58:56.554Z</time></trkpt><trkpt lat="43.0963877" lon="13.5274366"><ele>171.0</ele><time>2026-04-04T08:58:57.554Z</time></trkpt><trkpt lat="43.096373" lon="13.5273108"><ele>171.0</ele><time>2026-04-04T08:58:58.554Z</time></trkpt><trkpt lat="43.0963607" lon="13.5271751"><ele>171.0</ele><time>2026-04-04T08:58:59.553Z</time></trkpt><trkpt lat="43.0963466" lon="13.5270451"><ele>171.0</ele><time>2026-04-04T08:59:00.554Z</time></trkpt><trkpt lat="43.096334" lon="13.5269186"><ele>171.0</ele><time>2026-04-04T08:59:01.554Z</time></trkpt><trkpt lat="43.0963179" lon="13.5267995"><ele>171.0</ele><time>2026-04-04T08:59:02.553Z</time></trkpt><trkpt lat="43.0962996" lon="13.5266852"><ele>170.66666666666666</ele><time>2026-04-04T08:59:03.554Z</time></trkpt><trkpt lat="43.0962796" lon="13.5265861"><ele>170.33333333333334</ele><time>2026-04-04T08:59:04.554Z</time></trkpt><trkpt lat="43.096272" lon="13.5264966"><ele>170.0</ele><time>2026-04-04T08:59:05.554Z</time></trkpt><trkpt lat="43.0962718" lon="13.5263576"><ele>169.66666666666669</ele><time>2026-04-04T08:59:07.554Z</time></trkpt><trkpt lat="43.0963294" lon="13.5264002"><ele>169.33333333333334</ele><time>2026-04-04T08:59:13.554Z</time></trkpt><trkpt lat="43.0963063" lon="13.5263038"><ele>169.0</ele><time>2026-04-04T09:04:23.553Z</time></trkpt><trkpt lat="43.0963249" lon="13.5262017"><ele>169.0</ele><time>2026-04-04T09:04:26.553Z</time></trkpt><trkpt lat="43.0963186" lon="13.5260926"><ele>169.0</ele><time>2026-04-04T09:04:29.553Z</time></trkpt><trkpt lat="43.0963103" lon="13.52598"><ele>169.0</ele><time>2026-04-04T09:04:32.552Z</time></trkpt><trkpt lat="43.0963099" lon="13.5258781"><ele>169.0</ele><time>2026-04-04T09:04:34.553Z</time></trkpt><trkpt lat="43.0962969" lon="13.5257532"><ele>169.0</ele><time>2026-04-04T09:04:36.553Z</time></trkpt><trkpt lat="43.0962865" lon="13.5256287"><ele>169.0</ele><time>2026-04-04T09:04:38.553Z</time></trkpt><trkpt lat="43.0962716" lon="13.5254989"><ele>168.6</ele><time>2026-04-04T09:04:40.552Z</time></trkpt><trkpt lat="43.0962608" lon="13.5253777"><ele>168.2</ele><time>2026-04-04T09:04:42.552Z</time></trkpt><trkpt lat="43.096241" lon="13.5252556"><ele>167.79999999999998</ele><time>2026-04-04T09:04:44.553Z</time></trkpt><trkpt lat="43.0961964" lon="13.5250858"><ele>167.39999999999998</ele><time>2026-04-04T09:04:46.553Z</time></trkpt><trkpt lat="43.0961808" lon="13.5249849"><ele>167.0</ele><time>2026-04-04T09:04:47.552Z</time></trkpt><trkpt lat="43.0961692" lon="13.5248648"><ele>167.0</ele><time>2026-04-04T09:04:48.552Z</time></trkpt><trkpt lat="43.0961539" lon="13.5247568"><ele>167.0</ele><time>2026-04-04T09:04:49.553Z</time></trkpt><trkpt lat="43.0961398" lon="13.5246507"><ele>167.0</ele><time>2026-04-04T09:04:50.552Z</time></trkpt><trkpt lat="43.0961229" lon="13.5245561"><ele>167.0</ele><time>2026-04-04T09:04:51.553Z</time></trkpt><trkpt lat="43.0961038" lon="13.524461"><ele>167.0</ele><time>2026-04-04T09:04:52.552Z</time></trkpt><trkpt lat="43.0960789" lon="13.5243613"><ele>167.0</ele><time>2026-04-04T09:04:53.552Z</time></trkpt><trkpt lat="43.0960507" lon="13.5242619"><ele>167.0</ele><time>2026-04-04T09:04:54.552Z</time></trkpt><trkpt lat="43.0960255" lon="13.524163"><ele>167.0</ele><time>2026-04-04T09:04:55.553Z</time></trkpt><trkpt lat="43.0960062" lon="13.5240649"><ele>167.0</ele><time>2026-04-04T09:04:56.553Z</time></trkpt><trkpt lat="43.0959739" lon="13.5239818"><ele>167.0</ele><time>2026-04-04T09:04:57.553Z</time></trkpt><trkpt lat="43.0959422" lon="13.5238372"><ele>167.0</ele><time>2026-04-04T09:04:59.553Z</time></trkpt><trkpt lat="43.0959204" lon="13.5236579"><ele>167.16666666666666</ele><time>2026-04-04T09:05:01.552Z</time></trkpt><trkpt lat="43.0959072" lon="13.523553"><ele>167.33333333333331</ele><time>2026-04-04T09:05:02.553Z</time></trkpt><trkpt lat="43.0958984" lon="13.5234445"><ele>167.5</ele><time>2026-04-04T09:05:03.553Z</time></trkpt><trkpt lat="43.0958994" lon="13.5233474"><ele>167.66666666666666</ele><time>2026-04-04T09:05:04.553Z</time></trkpt><trkpt lat="43.0959133" lon="13.5231867"><ele>167.83333333333334</ele><time>2026-04-04T09:05:06.552Z</time></trkpt><trkpt lat="43.0959283" lon="13.5230933"><ele>168.0</ele><time>2026-04-04T09:05:07.553Z</time></trkpt><trkpt lat="43.0959483" lon="13.5230017"><ele>168.0</ele><time>2026-04-04T09:05:08.553Z</time></trkpt><trkpt lat="43.095975" lon="13.5229167"><ele>168.0</ele><time>2026-04-04T09:05:09.552Z</time></trkpt><trkpt lat="43.0960133" lon="13.5228233"><ele>168.0</ele><time>2026-04-04T09:05:10.553Z</time></trkpt><trkpt lat="43.0960517" lon="13.52272"><ele>168.0</ele><time>2026-04-04T09:05:11.552Z</time></trkpt><trkpt lat="43.0960817" lon="13.5226167"><ele>168.0</ele><time>2026-04-04T09:05:12.552Z</time></trkpt><trkpt lat="43.096105" lon="13.5225217"><ele>168.0</ele><time>2026-04-04T09:05:13.552Z</time></trkpt><trkpt lat="43.09612" lon="13.522415"><ele>167.66666666666666</ele><time>2026-04-04T09:05:14.552Z</time></trkpt><trkpt lat="43.096115" lon="13.5223083"><ele>167.33333333333334</ele><time>2026-04-04T09:05:15.552Z</time></trkpt><trkpt lat="43.096115" lon="13.5222083"><ele>167.0</ele><time>2026-04-04T09:05:16.553Z</time></trkpt><trkpt lat="43.0961017" lon="13.5220667"><ele>166.66666666666669</ele><time>2026-04-04T09:05:18.552Z</time></trkpt><trkpt lat="43.096075" lon="13.52196"><ele>166.33333333333334</ele><time>2026-04-04T09:05:20.553Z</time></trkpt><trkpt lat="43.0960617" lon="13.52186"><ele>166.0</ele><time>2026-04-04T09:05:22.553Z</time></trkpt><trkpt lat="43.09605" lon="13.5217517"><ele>165.8</ele><time>2026-04-04T09:05:24.552Z</time></trkpt><trkpt lat="43.0960433" lon="13.5216283"><ele>165.60000000000002</ele><time>2026-04-04T09:05:26.552Z</time></trkpt><trkpt lat="43.0960283" lon="13.5214883"><ele>165.4</ele><time>2026-04-04T09:05:28.552Z</time></trkpt><trkpt lat="43.09602" lon="13.5213483"><ele>165.2</ele><time>2026-04-04T09:05:30.552Z</time></trkpt><trkpt lat="43.096025" lon="13.5212333"><ele>165.0</ele><time>2026-04-04T09:05:32.552Z</time></trkpt><trkpt lat="43.0959933" lon="13.521335"><ele>165.0</ele><time>2026-04-04T09:06:47.552Z</time></trkpt><trkpt lat="43.0959833" lon="13.5214567"><ele>165.0</ele><time>2026-04-04T09:06:49.552Z</time></trkpt><trkpt lat="43.0959883" lon="13.52161"><ele>165.0</ele><time>2026-04-04T09:06:51.552Z</time></trkpt><trkpt lat="43.0959983" lon="13.52178"><ele>165.0</ele><time>2026-04-04T09:06:53.552Z</time></trkpt><trkpt lat="43.0960083" lon="13.5218717"><ele>165.0</ele><time>2026-04-04T09:06:54.553Z</time></trkpt><trkpt lat="43.0960317" lon="13.5220267"><ele>165.2</ele><time>2026-04-04T09:06:56.553Z</time></trkpt><trkpt lat="43.0960717" lon="13.5221783"><ele>165.4</ele><time>2026-04-04T09:06:58.552Z</time></trkpt><trkpt lat="43.09608" lon="13.5223017"><ele>165.60000000000002</ele><time>2026-04-04T09:07:00.552Z</time></trkpt><trkpt lat="43.09607" lon="13.52243"><ele>165.8</ele><time>2026-04-04T09:07:02.553Z</time></trkpt><trkpt lat="43.0960467" lon="13.522555"><ele>166.0</ele><time>2026-04-04T09:07:04.553Z</time></trkpt><trkpt lat="43.096015" lon="13.5226733"><ele>166.0</ele><time>2026-04-04T09:07:06.551Z</time></trkpt><trkpt lat="43.0960567" lon="13.5226083"><ele>166.0</ele><time>2026-04-04T09:07:16.551Z</time></trkpt><trkpt lat="43.0960733" lon="13.522505"><ele>166.0</ele><time>2026-04-04T09:07:17.551Z</time></trkpt><trkpt lat="43.0960833" lon="13.5223783"><ele>166.0</ele><time>2026-04-04T09:07:18.551Z</time></trkpt><trkpt lat="43.0960783" lon="13.522245"><ele>166.0</ele><time>2026-04-04T09:07:19.551Z</time></trkpt><trkpt lat="43.0960767" lon="13.522125"><ele>166.0</ele><time>2026-04-04T09:07:20.552Z</time></trkpt><trkpt lat="43.0960717" lon="13.52201"><ele>165.83333333333334</ele><time>2026-04-04T09:07:21.551Z</time></trkpt><trkpt lat="43.0960567" lon="13.5218967"><ele>165.66666666666669</ele><time>2026-04-04T09:07:22.551Z</time></trkpt><trkpt lat="43.0960467" lon="13.5217933"><ele>165.5</ele><time>2026-04-04T09:07:23.551Z</time></trkpt><trkpt lat="43.0960333" lon="13.5216867"><ele>165.33333333333334</ele><time>2026-04-04T09:07:24.551Z</time></trkpt><trkpt lat="43.0960233" lon="13.5215833"><ele>165.16666666666666</ele><time>2026-04-04T09:07:25.551Z</time></trkpt><trkpt lat="43.096015" lon="13.521475"><ele>165.0</ele><time>2026-04-04T09:07:26.552Z</time></trkpt><trkpt lat="43.0960033" lon="13.5213617"><ele>165.0</ele><time>2026-04-04T09:07:27.552Z</time></trkpt><trkpt lat="43.0959983" lon="13.52125"><ele>165.0</ele><time>2026-04-04T09:07:28.551Z</time></trkpt><trkpt lat="43.096" lon="13.5211583"><ele>165.0</ele><time>2026-04-04T09:07:29.551Z</time></trkpt><trkpt lat="43.095995" lon="13.5210717"><ele>165.0</ele><time>2026-04-04T09:07:31.552Z</time></trkpt><trkpt lat="43.0959833" lon="13.520905"><ele>165.0</ele><time>2026-04-04T09:08:45.552Z</time></trkpt><trkpt lat="43.095985" lon="13.5208133"><ele>165.0</ele><time>2026-04-04T09:08:46.551Z</time></trkpt><trkpt lat="43.0959883" lon="13.520715"><ele>165.16666666666666</ele><time>2026-04-04T09:08:47.551Z</time></trkpt><trkpt lat="43.0959883" lon="13.520625"><ele>165.33333333333334</ele><time>2026-04-04T09:08:48.552Z</time></trkpt><trkpt lat="43.0959883" lon="13.520535"><ele>165.5</ele><time>2026-04-04T09:08:49.551Z</time></trkpt><trkpt lat="43.0959917" lon="13.5203783"><ele>165.66666666666669</ele><time>2026-04-04T09:08:51.552Z</time></trkpt><trkpt lat="43.0959767" lon="13.5202917"><ele>165.83333333333334</ele><time>2026-04-04T09:08:52.551Z</time></trkpt><trkpt lat="43.09596" lon="13.520195"><ele>166.0</ele><time>2026-04-04T09:08:53.552Z</time></trkpt><trkpt lat="43.0959367" lon="13.5200783"><ele>166.0</ele><time>2026-04-04T09:08:54.551Z</time></trkpt><trkpt lat="43.0958983" lon="13.51994"><ele>166.0</ele><time>2026-04-04T09:08:55.551Z</time></trkpt><trkpt lat="43.0958317" lon="13.5197783"><ele>166.0</ele><time>2026-04-04T09:08:56.552Z</time></trkpt><trkpt lat="43.0957717" lon="13.519625"><ele>166.0</ele><time>2026-04-04T09:08:57.552Z</time></trkpt><trkpt lat="43.095715" lon="13.5194933"><ele>166.4</ele><time>2026-04-04T09:08:58.551Z</time></trkpt><trkpt lat="43.095665" lon="13.51937"><ele>166.8</ele><time>2026-04-04T09:08:59.552Z</time></trkpt><trkpt lat="43.09561" lon="13.51926"><ele>167.20000000000002</ele><time>2026-04-04T09:09:00.551Z</time></trkpt><trkpt lat="43.09554" lon="13.5191483"><ele>167.60000000000002</ele><time>2026-04-04T09:09:01.552Z</time></trkpt><trkpt lat="43.0954633" lon="13.5190233"><ele>168.0</ele><time>2026-04-04T09:09:02.551Z</time></trkpt><trkpt lat="43.095375" lon="13.5189133"><ele>168.0</ele><time>2026-04-04T09:09:03.551Z</time></trkpt><trkpt lat="43.095295" lon="13.5187967"><ele>168.0</ele><time>2026-04-04T09:09:04.551Z</time></trkpt><trkpt lat="43.0952133" lon="13.5186833"><ele>168.0</ele><time>2026-04-04T09:09:05.551Z</time></trkpt><trkpt lat="43.095145" lon="13.5185733"><ele>168.0</ele><time>2026-04-04T09:09:06.552Z</time></trkpt><trkpt lat="43.0950817" lon="13.518465"><ele>168.0</ele><time>2026-04-04T09:09:07.551Z</time></trkpt><trkpt lat="43.0950267" lon="13.5183517"><ele>168.0</ele><time>2026-04-04T09:09:08.551Z</time></trkpt><trkpt lat="43.094975" lon="13.5182333"><ele>168.0</ele><time>2026-04-04T09:09:09.551Z</time></trkpt><trkpt lat="43.094935" lon="13.5181133"><ele>168.0</ele><time>2026-04-04T09:09:10.551Z</time></trkpt><trkpt lat="43.0949017" lon="13.5180217"><ele>168.0</ele><time>2026-04-04T09:09:11.552Z</time></trkpt><trkpt lat="43.0948767" lon="13.5179383"><ele>168.0</ele><time>2026-04-04T09:09:12.551Z</time></trkpt><trkpt lat="43.0948383" lon="13.5177867"><ele>168.33333333333334</ele><time>2026-04-04T09:09:14.551Z</time></trkpt><trkpt lat="43.0948" lon="13.5176667"><ele>168.66666666666666</ele><time>2026-04-04T09:09:16.551Z</time></trkpt><trkpt lat="43.0947183" lon="13.5176283"><ele>169.0</ele><time>2026-04-04T09:09:19.552Z</time></trkpt><trkpt lat="43.094665" lon="13.51769"><ele>169.33333333333331</ele><time>2026-04-04T09:09:21.551Z</time></trkpt><trkpt lat="43.0946" lon="13.51777"><ele>169.66666666666666</ele><time>2026-04-04T09:09:23.551Z</time></trkpt><trkpt lat="43.0945383" lon="13.5178517"><ele>170.0</ele><time>2026-04-04T09:09:25.551Z</time></trkpt><trkpt lat="43.0944383" lon="13.5179617"><ele>170.0</ele><time>2026-04-04T09:09:27.552Z</time></trkpt><trkpt lat="43.0943717" lon="13.51804"><ele>170.0</ele><time>2026-04-04T09:09:28.552Z</time></trkpt><trkpt lat="43.0942867" lon="13.5181333"><ele>170.0</ele><time>2026-04-04T09:09:29.551Z</time></trkpt><trkpt lat="43.0941917" lon="13.51824"><ele>170.0</ele><time>2026-04-04T09:09:30.552Z</time></trkpt><trkpt lat="43.09409" lon="13.5183583"><ele>171.0</ele><time>2026-04-04T09:09:31.552Z</time></trkpt><trkpt lat="43.0939833" lon="13.51847"><ele>172.0</ele><time>2026-04-04T09:09:32.552Z</time></trkpt><trkpt lat="43.093885" lon="13.5185833"><ele>173.0</ele><time>2026-04-04T09:09:33.551Z</time></trkpt><trkpt lat="43.0937867" lon="13.5186967"><ele>174.0</ele><time>2026-04-04T09:09:34.552Z</time></trkpt><trkpt lat="43.0936783" lon="13.51882"><ele>174.0</ele><time>2026-04-04T09:09:35.551Z</time></trkpt><trkpt lat="43.09358" lon="13.5189333"><ele>174.0</ele><time>2026-04-04T09:09:36.552Z</time></trkpt><trkpt lat="43.0934917" lon="13.5190317"><ele>174.0</ele><time>2026-04-04T09:09:37.551Z</time></trkpt><trkpt lat="43.0934167" lon="13.5191033"><ele>174.0</ele><time>2026-04-04T09:09:38.551Z</time></trkpt><trkpt lat="43.0933467" lon="13.5191717"><ele>174.0</ele><time>2026-04-04T09:09:39.552Z</time></trkpt><trkpt lat="43.0932867" lon="13.5192333"><ele>174.6</ele><time>2026-04-04T09:09:40.552Z</time></trkpt><trkpt lat="43.093235" lon="13.519285"><ele>175.2</ele><time>2026-04-04T09:09:41.552Z</time></trkpt><trkpt lat="43.0931467" lon="13.519335"><ele>175.79999999999998</ele><time>2026-04-04T09:09:43.552Z</time></trkpt><trkpt lat="43.0930917" lon="13.51926"><ele>176.39999999999998</ele><time>2026-04-04T09:09:46.551Z</time></trkpt><trkpt lat="43.0930617" lon="13.5191233"><ele>177.0</ele><time>2026-04-04T09:09:48.552Z</time></trkpt><trkpt lat="43.09302" lon="13.518985"><ele>177.0</ele><time>2026-04-04T09:09:50.551Z</time></trkpt><trkpt lat="43.09297" lon="13.518875"><ele>177.0</ele><time>2026-04-04T09:09:52.551Z</time></trkpt><trkpt lat="43.092925" lon="13.518775"><ele>177.0</ele><time>2026-04-04T09:09:54.551Z</time></trkpt><trkpt lat="43.092885" lon="13.5186717"><ele>177.0</ele><time>2026-04-04T09:09:56.552Z</time></trkpt><trkpt lat="43.0928283" lon="13.518575"><ele>177.0</ele><time>2026-04-04T09:09:58.551Z</time></trkpt><trkpt lat="43.0927533" lon="13.5184433"><ele>177.5</ele><time>2026-04-04T09:10:00.551Z</time></trkpt><trkpt lat="43.0927033" lon="13.51834"><ele>178.0</ele><time>2026-04-04T09:10:01.552Z</time></trkpt><trkpt lat="43.0926417" lon="13.5182517"><ele>178.5</ele><time>2026-04-04T09:10:02.552Z</time></trkpt><trkpt lat="43.0925767" lon="13.51809"><ele>179.0</ele><time>2026-04-04T09:10:03.551Z</time></trkpt><trkpt lat="43.092505" lon="13.517925"><ele>179.0</ele><time>2026-04-04T09:10:04.551Z</time></trkpt><trkpt lat="43.0924333" lon="13.51776"><ele>179.0</ele><time>2026-04-04T09:10:05.551Z</time></trkpt><trkpt lat="43.092355" lon="13.5175883"><ele>179.0</ele><time>2026-04-04T09:10:06.552Z</time></trkpt><trkpt lat="43.0922733" lon="13.5174083"><ele>179.0</ele><time>2026-04-04T09:10:07.551Z</time></trkpt><trkpt lat="43.092195" lon="13.5172317"><ele>179.66666666666666</ele><time>2026-04-04T09:10:08.552Z</time></trkpt><trkpt lat="43.0921183" lon="13.5170583"><ele>180.33333333333334</ele><time>2026-04-04T09:10:09.552Z</time></trkpt><trkpt lat="43.0920333" lon="13.5168833"><ele>181.0</ele><time>2026-04-04T09:10:10.552Z</time></trkpt><trkpt lat="43.0919517" lon="13.5166967"><ele>181.0</ele><time>2026-04-04T09:10:11.551Z</time></trkpt><trkpt lat="43.0918683" lon="13.5165117"><ele>181.0</ele><time>2026-04-04T09:10:12.551Z</time></trkpt><trkpt lat="43.0917867" lon="13.51633"><ele>181.0</ele><time>2026-04-04T09:10:13.551Z</time></trkpt><trkpt lat="43.0917" lon="13.516145"><ele>180.66666666666669</ele><time>2026-04-04T09:10:14.551Z</time></trkpt><trkpt lat="43.0916083" lon="13.5159567"><ele>180.33333333333334</ele><time>2026-04-04T09:10:15.552Z</time></trkpt><trkpt lat="43.0915133" lon="13.515775"><ele>180.0</ele><time>2026-04-04T09:10:16.551Z</time></trkpt><trkpt lat="43.0914233" lon="13.515595"><ele>182.33333333333334</ele><time>2026-04-04T09:10:17.551Z</time></trkpt><trkpt lat="43.0913317" lon="13.5154117"><ele>184.66666666666669</ele><time>2026-04-04T09:10:18.552Z</time></trkpt><trkpt lat="43.09124" lon="13.5152183"><ele>187.0</ele><time>2026-04-04T09:10:19.551Z</time></trkpt><trkpt lat="43.0911467" lon="13.5150283"><ele>187.0</ele><time>2026-04-04T09:10:20.552Z</time></trkpt><trkpt lat="43.09105" lon="13.514845"><ele>187.0</ele><time>2026-04-04T09:10:21.552Z</time></trkpt><trkpt lat="43.09096" lon="13.5146517"><ele>187.0</ele><time>2026-04-04T09:10:22.552Z</time></trkpt><trkpt lat="43.09086" lon="13.514465"><ele>187.66666666666669</ele><time>2026-04-04T09:10:23.552Z</time></trkpt><trkpt lat="43.090775" lon="13.5142733"><ele>188.33333333333334</ele><time>2026-04-04T09:10:24.552Z</time></trkpt><trkpt lat="43.0907033" lon="13.5140533"><ele>189.0</ele><time>2026-04-04T09:10:25.551Z</time></trkpt><trkpt lat="43.09063" lon="13.51384"><ele>187.0</ele><time>2026-04-04T09:10:26.552Z</time></trkpt><trkpt lat="43.09054" lon="13.513635"><ele>185.0</ele><time>2026-04-04T09:10:27.552Z</time></trkpt><trkpt lat="43.0904433" lon="13.5134317"><ele>183.0</ele><time>2026-04-04T09:10:28.551Z</time></trkpt><trkpt lat="43.0903467" lon="13.5132333"><ele>183.0</ele><time>2026-04-04T09:10:29.552Z</time></trkpt><trkpt lat="43.09024" lon="13.513035"><ele>183.0</ele><time>2026-04-04T09:10:30.551Z</time></trkpt><trkpt lat="43.09014" lon="13.5128483"><ele>183.0</ele><time>2026-04-04T09:10:31.551Z</time></trkpt><trkpt lat="43.0900317" lon="13.512655"><ele>183.66666666666666</ele><time>2026-04-04T09:10:32.552Z</time></trkpt><trkpt lat="43.0899217" lon="13.51245"><ele>184.33333333333331</ele><time>2026-04-04T09:10:33.551Z</time></trkpt><trkpt lat="43.0898033" lon="13.5122483"><ele>185.0</ele><time>2026-04-04T09:10:34.551Z</time></trkpt><trkpt lat="43.0896967" lon="13.5120383"><ele>183.33333333333331</ele><time>2026-04-04T09:10:35.551Z</time></trkpt><trkpt lat="43.08958" lon="13.511845"><ele>181.66666666666666</ele><time>2026-04-04T09:10:36.552Z</time></trkpt><trkpt lat="43.0894617" lon="13.511655"><ele>180.0</ele><time>2026-04-04T09:10:37.551Z</time></trkpt><trkpt lat="43.0893517" lon="13.5114683"><ele>180.0</ele><time>2026-04-04T09:10:38.551Z</time></trkpt><trkpt lat="43.08924" lon="13.511275"><ele>180.0</ele><time>2026-04-04T09:10:39.552Z</time></trkpt><trkpt lat="43.089125" lon="13.5110817"><ele>180.0</ele><time>2026-04-04T09:10:40.552Z</time></trkpt><trkpt lat="43.0890083" lon="13.510895"><ele>181.0</ele><time>2026-04-04T09:10:41.552Z</time></trkpt><trkpt lat="43.0888883" lon="13.51071"><ele>182.0</ele><time>2026-04-04T09:10:42.551Z</time></trkpt><trkpt lat="43.0887667" lon="13.5105233"><ele>183.0</ele><time>2026-04-04T09:10:43.551Z</time></trkpt><trkpt lat="43.0886417" lon="13.5103417"><ele>183.0</ele><time>2026-04-04T09:10:44.552Z</time></trkpt><trkpt lat="43.088515" lon="13.5101683"><ele>183.0</ele><time>2026-04-04T09:10:45.552Z</time></trkpt><trkpt lat="43.0883967" lon="13.50999"><ele>183.0</ele><time>2026-04-04T09:10:46.551Z</time></trkpt><trkpt lat="43.0882783" lon="13.5098067"><ele>186.33333333333331</ele><time>2026-04-04T09:10:47.552Z</time></trkpt><trkpt lat="43.088165" lon="13.5096033"><ele>189.66666666666666</ele><time>2026-04-04T09:10:48.552Z</time></trkpt><trkpt lat="43.08808" lon="13.509395"><ele>193.0</ele><time>2026-04-04T09:10:49.552Z</time></trkpt><trkpt lat="43.088" lon="13.5091767"><ele>193.0</ele><time>2026-04-04T09:10:50.551Z</time></trkpt><trkpt lat="43.0879333" lon="13.5089517"><ele>193.0</ele><time>2026-04-04T09:10:51.551Z</time></trkpt><trkpt lat="43.0878767" lon="13.5087083"><ele>193.0</ele><time>2026-04-04T09:10:52.551Z</time></trkpt><trkpt lat="43.0878217" lon="13.5084867"><ele>190.0</ele><time>2026-04-04T09:10:53.551Z</time></trkpt><trkpt lat="43.0877617" lon="13.5082617"><ele>187.0</ele><time>2026-04-04T09:10:54.552Z</time></trkpt><trkpt lat="43.0877167" lon="13.5080383"><ele>184.0</ele><time>2026-04-04T09:10:55.551Z</time></trkpt><trkpt lat="43.0876717" lon="13.5078083"><ele>183.33333333333334</ele><time>2026-04-04T09:10:56.551Z</time></trkpt><trkpt lat="43.0876317" lon="13.5075767"><ele>182.66666666666666</ele><time>2026-04-04T09:10:57.551Z</time></trkpt><trkpt lat="43.0876083" lon="13.50734"><ele>182.0</ele><time>2026-04-04T09:10:58.551Z</time></trkpt><trkpt lat="43.08757" lon="13.5071167"><ele>181.33333333333331</ele><time>2026-04-04T09:10:59.552Z</time></trkpt><trkpt lat="43.0875283" lon="13.5068933"><ele>180.66666666666666</ele><time>2026-04-04T09:11:00.551Z</time></trkpt><trkpt lat="43.0874833" lon="13.5066633"><ele>180.0</ele><time>2026-04-04T09:11:01.552Z</time></trkpt><trkpt lat="43.08744" lon="13.50644"><ele>182.33333333333334</ele><time>2026-04-04T09:11:02.551Z</time></trkpt><trkpt lat="43.0873683" lon="13.506225"><ele>184.66666666666669</ele><time>2026-04-04T09:11:03.552Z</time></trkpt><trkpt lat="43.0872617" lon="13.5060433"><ele>187.0</ele><time>2026-04-04T09:11:04.551Z</time></trkpt><trkpt lat="43.0871367" lon="13.5058717"><ele>187.0</ele><time>2026-04-04T09:11:05.552Z</time></trkpt><trkpt lat="43.0870117" lon="13.5056983"><ele>187.0</ele><time>2026-04-04T09:11:06.552Z</time></trkpt><trkpt lat="43.0868983" lon="13.5055267"><ele>187.0</ele><time>2026-04-04T09:11:07.552Z</time></trkpt><trkpt lat="43.08679" lon="13.5053417"><ele>185.33333333333334</ele><time>2026-04-04T09:11:08.551Z</time></trkpt><trkpt lat="43.0866983" lon="13.5051483"><ele>183.66666666666666</ele><time>2026-04-04T09:11:09.552Z</time></trkpt><trkpt lat="43.0866117" lon="13.5049467"><ele>182.0</ele><time>2026-04-04T09:11:10.551Z</time></trkpt><trkpt lat="43.0865467" lon="13.5047217"><ele>184.33333333333331</ele><time>2026-04-04T09:11:11.551Z</time></trkpt><trkpt lat="43.0864867" lon="13.5045117"><ele>186.66666666666666</ele><time>2026-04-04T09:11:12.551Z</time></trkpt><trkpt lat="43.0864317" lon="13.5043"><ele>189.0</ele><time>2026-04-04T09:11:13.552Z</time></trkpt><trkpt lat="43.0863683" lon="13.504055"><ele>189.0</ele><time>2026-04-04T09:11:14.552Z</time></trkpt><trkpt lat="43.0863117" lon="13.503825"><ele>189.0</ele><time>2026-04-04T09:11:15.552Z</time></trkpt><trkpt lat="43.0862517" lon="13.5035933"><ele>189.0</ele><time>2026-04-04T09:11:16.551Z</time></trkpt><trkpt lat="43.0861883" lon="13.5033633"><ele>187.33333333333334</ele><time>2026-04-04T09:11:17.551Z</time></trkpt><trkpt lat="43.0861317" lon="13.503135"><ele>185.66666666666669</ele><time>2026-04-04T09:11:18.551Z</time></trkpt><trkpt lat="43.08609" lon="13.5029067"><ele>184.0</ele><time>2026-04-04T09:11:19.551Z</time></trkpt><trkpt lat="43.0860317" lon="13.5026867"><ele>183.33333333333334</ele><time>2026-04-04T09:11:20.552Z</time></trkpt><trkpt lat="43.0859733" lon="13.5024367"><ele>182.66666666666666</ele><time>2026-04-04T09:11:21.552Z</time></trkpt><trkpt lat="43.0859267" lon="13.50222"><ele>182.0</ele><time>2026-04-04T09:11:22.552Z</time></trkpt><trkpt lat="43.0858667" lon="13.5019967"><ele>180.66666666666666</ele><time>2026-04-04T09:11:23.552Z</time></trkpt><trkpt lat="43.0858" lon="13.5017917"><ele>179.33333333333334</ele><time>2026-04-04T09:11:24.551Z</time></trkpt><trkpt lat="43.08573" lon="13.50157"><ele>178.0</ele><time>2026-04-04T09:11:25.551Z</time></trkpt><trkpt lat="43.08566" lon="13.5013533"><ele>180.66666666666669</ele><time>2026-04-04T09:11:26.552Z</time></trkpt><trkpt lat="43.0856133" lon="13.5011117"><ele>183.33333333333334</ele><time>2026-04-04T09:11:27.551Z</time></trkpt><trkpt lat="43.0855533" lon="13.5008683"><ele>186.0</ele><time>2026-04-04T09:11:28.552Z</time></trkpt><trkpt lat="43.0854917" lon="13.5006333"><ele>185.33333333333334</ele><time>2026-04-04T09:11:29.55Z</time></trkpt><trkpt lat="43.0854317" lon="13.5003967"><ele>184.66666666666669</ele><time>2026-04-04T09:11:30.55Z</time></trkpt><trkpt lat="43.0853817" lon="13.500165"><ele>184.0</ele><time>2026-04-04T09:11:31.551Z</time></trkpt><trkpt lat="43.08534" lon="13.4999383"><ele>184.0</ele><time>2026-04-04T09:11:32.55Z</time></trkpt><trkpt lat="43.0852917" lon="13.49971"><ele>184.0</ele><time>2026-04-04T09:11:33.55Z</time></trkpt><trkpt lat="43.0852367" lon="13.4994917"><ele>184.0</ele><time>2026-04-04T09:11:34.55Z</time></trkpt><trkpt lat="43.0851933" lon="13.4992667"><ele>184.0</ele><time>2026-04-04T09:11:35.551Z</time></trkpt><trkpt lat="43.085175" lon="13.4990267"><ele>184.0</ele><time>2026-04-04T09:11:36.55Z</time></trkpt><trkpt lat="43.0851783" lon="13.49881"><ele>184.0</ele><time>2026-04-04T09:11:37.551Z</time></trkpt><trkpt lat="43.0851967" lon="13.4985733"><ele>184.33333333333334</ele><time>2026-04-04T09:11:38.55Z</time></trkpt><trkpt lat="43.0852217" lon="13.4983617"><ele>184.66666666666666</ele><time>2026-04-04T09:11:39.55Z</time></trkpt><trkpt lat="43.085255" lon="13.4981283"><ele>185.0</ele><time>2026-04-04T09:11:40.55Z</time></trkpt><trkpt lat="43.085285" lon="13.4979067"><ele>185.0</ele><time>2026-04-04T09:11:41.55Z</time></trkpt><trkpt lat="43.0852983" lon="13.4976783"><ele>185.0</ele><time>2026-04-04T09:11:42.55Z</time></trkpt><trkpt lat="43.0853183" lon="13.4974667"><ele>185.0</ele><time>2026-04-04T09:11:43.551Z</time></trkpt><trkpt lat="43.085335" lon="13.4972317"><ele>185.33333333333331</ele><time>2026-04-04T09:11:44.55Z</time></trkpt><trkpt lat="43.08535" lon="13.4970017"><ele>185.66666666666666</ele><time>2026-04-04T09:11:45.551Z</time></trkpt><trkpt lat="43.0853467" lon="13.496765"><ele>186.0</ele><time>2026-04-04T09:11:46.551Z</time></trkpt><trkpt lat="43.0853283" lon="13.4965383"><ele>186.0</ele><time>2026-04-04T09:11:47.55Z</time></trkpt><trkpt lat="43.0852933" lon="13.4963133"><ele>186.0</ele><time>2026-04-04T09:11:48.55Z</time></trkpt><trkpt lat="43.0852517" lon="13.4960917"><ele>186.0</ele><time>2026-04-04T09:11:49.55Z</time></trkpt><trkpt lat="43.085195" lon="13.4958667"><ele>185.66666666666666</ele><time>2026-04-04T09:11:50.551Z</time></trkpt><trkpt lat="43.0851317" lon="13.4956383"><ele>185.33333333333331</ele><time>2026-04-04T09:11:51.551Z</time></trkpt><trkpt lat="43.0850867" lon="13.4954133"><ele>185.0</ele><time>2026-04-04T09:11:52.55Z</time></trkpt><trkpt lat="43.085035" lon="13.4951833"><ele>184.33333333333331</ele><time>2026-04-04T09:11:53.551Z</time></trkpt><trkpt lat="43.084985" lon="13.4949567"><ele>183.66666666666666</ele><time>2026-04-04T09:11:54.551Z</time></trkpt><trkpt lat="43.0849417" lon="13.4947367"><ele>183.0</ele><time>2026-04-04T09:11:55.55Z</time></trkpt><trkpt lat="43.0848917" lon="13.4945217"><ele>184.66666666666666</ele><time>2026-04-04T09:11:56.551Z</time></trkpt><trkpt lat="43.0848367" lon="13.4942867"><ele>186.33333333333331</ele><time>2026-04-04T09:11:57.55Z</time></trkpt><trkpt lat="43.08477" lon="13.4940617"><ele>188.0</ele><time>2026-04-04T09:11:58.55Z</time></trkpt><trkpt lat="43.0847117" lon="13.4938183"><ele>187.66666666666666</ele><time>2026-04-04T09:11:59.551Z</time></trkpt><trkpt lat="43.084655" lon="13.4935883"><ele>187.33333333333334</ele><time>2026-04-04T09:12:00.551Z</time></trkpt><trkpt lat="43.0846033" lon="13.49338"><ele>187.0</ele><time>2026-04-04T09:12:01.551Z</time></trkpt><trkpt lat="43.0845633" lon="13.4931883"><ele>187.0</ele><time>2026-04-04T09:12:02.55Z</time></trkpt><trkpt lat="43.0845167" lon="13.49301"><ele>187.0</ele><time>2026-04-04T09:12:03.551Z</time></trkpt><trkpt lat="43.0844383" lon="13.4928817"><ele>187.0</ele><time>2026-04-04T09:12:04.551Z</time></trkpt><trkpt lat="43.0843667" lon="13.4928167"><ele>187.0</ele><time>2026-04-04T09:12:05.551Z</time></trkpt><trkpt lat="43.0842783" lon="13.4927683"><ele>187.0</ele><time>2026-04-04T09:12:06.55Z</time></trkpt><trkpt lat="43.0841783" lon="13.4927567"><ele>189.33333333333334</ele><time>2026-04-04T09:12:07.55Z</time></trkpt><trkpt lat="43.0840483" lon="13.4927867"><ele>191.66666666666669</ele><time>2026-04-04T09:12:08.55Z</time></trkpt><trkpt lat="43.0838933" lon="13.4928267"><ele>194.0</ele><time>2026-04-04T09:12:09.551Z</time></trkpt><trkpt lat="43.08372" lon="13.492875"><ele>194.0</ele><time>2026-04-04T09:12:10.55Z</time></trkpt><trkpt lat="43.0835717" lon="13.4928817"><ele>194.0</ele><time>2026-04-04T09:12:11.551Z</time></trkpt><trkpt lat="43.083435" lon="13.4928617"><ele>194.0</ele><time>2026-04-04T09:12:12.55Z</time></trkpt><trkpt lat="43.0833067" lon="13.49281"><ele>194.0</ele><time>2026-04-04T09:12:13.551Z</time></trkpt><trkpt lat="43.0832017" lon="13.49272"><ele>197.25</ele><time>2026-04-04T09:12:14.55Z</time></trkpt><trkpt lat="43.083135" lon="13.4926083"><ele>200.5</ele><time>2026-04-04T09:12:15.55Z</time></trkpt><trkpt lat="43.0830917" lon="13.4924383"><ele>203.75</ele><time>2026-04-04T09:12:16.55Z</time></trkpt><trkpt lat="43.0830517" lon="13.492295"><ele>207.0</ele><time>2026-04-04T09:12:17.551Z</time></trkpt><trkpt lat="43.0829667" lon="13.4922067"><ele>207.0</ele><time>2026-04-04T09:12:18.551Z</time></trkpt><trkpt lat="43.082855" lon="13.4921717"><ele>207.0</ele><time>2026-04-04T09:12:19.55Z</time></trkpt><trkpt lat="43.0827367" lon="13.492195"><ele>207.0</ele><time>2026-04-04T09:12:20.55Z</time></trkpt><trkpt lat="43.08262" lon="13.492255"><ele>207.0</ele><time>2026-04-04T09:12:21.55Z</time></trkpt><trkpt lat="43.0825067" lon="13.4923183"><ele>208.16666666666666</ele><time>2026-04-04T09:12:22.551Z</time></trkpt><trkpt lat="43.0824" lon="13.4923867"><ele>209.33333333333331</ele><time>2026-04-04T09:12:23.551Z</time></trkpt><trkpt lat="43.08231" lon="13.4924617"><ele>210.5</ele><time>2026-04-04T09:12:24.551Z</time></trkpt><trkpt lat="43.082245" lon="13.4924967"><ele>211.66666666666666</ele><time>2026-04-04T09:12:25.55Z</time></trkpt><trkpt lat="43.082175" lon="13.492545"><ele>212.83333333333331</ele><time>2026-04-04T09:12:27.551Z</time></trkpt><trkpt lat="43.0821433" lon="13.492455"><ele>214.0</ele><time>2026-04-04T09:12:35.551Z</time></trkpt><trkpt lat="43.0820967" lon="13.4923217"><ele>214.0</ele><time>2026-04-04T09:12:36.551Z</time></trkpt><trkpt lat="43.08204" lon="13.49217"><ele>213.99999999999997</ele><time>2026-04-04T09:12:37.55Z</time></trkpt><trkpt lat="43.08199" lon="13.492035"><ele>213.99999999999997</ele><time>2026-04-04T09:12:38.55Z</time></trkpt><trkpt lat="43.0819517" lon="13.4919033"><ele>214.0</ele><time>2026-04-04T09:12:39.551Z</time></trkpt><trkpt lat="43.0819083" lon="13.4917833"><ele>214.0</ele><time>2026-04-04T09:12:40.551Z</time></trkpt><trkpt lat="43.081855" lon="13.4916667"><ele>214.16666666666666</ele><time>2026-04-04T09:12:41.551Z</time></trkpt><trkpt lat="43.0818183" lon="13.491545"><ele>214.33333333333331</ele><time>2026-04-04T09:12:42.551Z</time></trkpt><trkpt lat="43.0817817" lon="13.4914267"><ele>214.5</ele><time>2026-04-04T09:12:43.551Z</time></trkpt><trkpt lat="43.0817483" lon="13.491325"><ele>214.66666666666669</ele><time>2026-04-04T09:12:44.55Z</time></trkpt><trkpt lat="43.08171" lon="13.4912367"><ele>214.83333333333334</ele><time>2026-04-04T09:12:45.55Z</time></trkpt><trkpt lat="43.0816633" lon="13.491165"><ele>215.0</ele><time>2026-04-04T09:12:46.55Z</time></trkpt><trkpt lat="43.0816167" lon="13.491105"><ele>215.4</ele><time>2026-04-04T09:12:47.551Z</time></trkpt><trkpt lat="43.081525" lon="13.491025"><ele>215.8</ele><time>2026-04-04T09:12:49.55Z</time></trkpt><trkpt lat="43.0814517" lon="13.49099"><ele>216.2</ele><time>2026-04-04T09:12:51.55Z</time></trkpt><trkpt lat="43.08139" lon="13.4909517"><ele>216.6</ele><time>2026-04-04T09:15:11.55Z</time></trkpt><trkpt lat="43.08133" lon="13.4908733"><ele>217.0</ele><time>2026-04-04T09:15:13.55Z</time></trkpt><trkpt lat="43.08121" lon="13.4907883"><ele>217.0</ele><time>2026-04-04T09:15:15.55Z</time></trkpt><trkpt lat="43.0811233" lon="13.4907433"><ele>217.0</ele><time>2026-04-04T09:15:16.551Z</time></trkpt><trkpt lat="43.081015" lon="13.4906817"><ele>217.0</ele><time>2026-04-04T09:15:17.551Z</time></trkpt><trkpt lat="43.0808617" lon="13.4905767"><ele>217.0</ele><time>2026-04-04T09:15:18.55Z</time></trkpt><trkpt lat="43.080705" lon="13.4904433"><ele>217.33333333333331</ele><time>2026-04-04T09:15:19.55Z</time></trkpt><trkpt lat="43.08055" lon="13.4903067"><ele>217.66666666666669</ele><time>2026-04-04T09:15:20.55Z</time></trkpt><trkpt lat="43.0803933" lon="13.4901967"><ele>218.0</ele><time>2026-04-04T09:15:21.551Z</time></trkpt><trkpt lat="43.0802467" lon="13.4900933"><ele>218.0</ele><time>2026-04-04T09:15:22.55Z</time></trkpt><trkpt lat="43.080095" lon="13.4900033"><ele>218.0</ele><time>2026-04-04T09:15:23.55Z</time></trkpt><trkpt lat="43.0799383" lon="13.489915"><ele>218.0</ele><time>2026-04-04T09:15:24.55Z</time></trkpt><trkpt lat="43.079765" lon="13.48984"><ele>219.0</ele><time>2026-04-04T09:15:25.551Z</time></trkpt><trkpt lat="43.0795967" lon="13.4897717"><ele>220.0</ele><time>2026-04-04T09:15:26.55Z</time></trkpt><trkpt lat="43.0794367" lon="13.4897183"><ele>221.0</ele><time>2026-04-04T09:15:27.55Z</time></trkpt><trkpt lat="43.0792933" lon="13.4896717"><ele>221.0</ele><time>2026-04-04T09:15:28.551Z</time></trkpt><trkpt lat="43.0791733" lon="13.4896133"><ele>221.0</ele><time>2026-04-04T09:15:29.55Z</time></trkpt><trkpt lat="43.0790467" lon="13.489565"><ele>221.0</ele><time>2026-04-04T09:15:30.551Z</time></trkpt><trkpt lat="43.0789217" lon="13.4895167"><ele>221.0</ele><time>2026-04-04T09:15:31.551Z</time></trkpt><trkpt lat="43.0788" lon="13.4894567"><ele>221.25</ele><time>2026-04-04T09:15:32.551Z</time></trkpt><trkpt lat="43.0786783" lon="13.4893967"><ele>221.5</ele><time>2026-04-04T09:15:33.551Z</time></trkpt><trkpt lat="43.0785617" lon="13.4893333"><ele>221.75</ele><time>2026-04-04T09:15:34.551Z</time></trkpt><trkpt lat="43.0784417" lon="13.489275"><ele>222.0</ele><time>2026-04-04T09:15:35.551Z</time></trkpt><trkpt lat="43.0783483" lon="13.4892083"><ele>223.0</ele><time>2026-04-04T09:15:36.551Z</time></trkpt><trkpt lat="43.0782533" lon="13.4891333"><ele>224.0</ele><time>2026-04-04T09:15:37.55Z</time></trkpt><trkpt lat="43.078165" lon="13.48903"><ele>225.0</ele><time>2026-04-04T09:15:38.55Z</time></trkpt><trkpt lat="43.07807" lon="13.488915"><ele>226.0</ele><time>2026-04-04T09:15:39.55Z</time></trkpt><trkpt lat="43.07797" lon="13.4887833"><ele>225.75</ele><time>2026-04-04T09:15:40.55Z</time></trkpt><trkpt lat="43.077875" lon="13.4886333"><ele>225.5</ele><time>2026-04-04T09:15:41.55Z</time></trkpt><trkpt lat="43.0777733" lon="13.4884833"><ele>225.25</ele><time>2026-04-04T09:15:42.551Z</time></trkpt><trkpt lat="43.077675" lon="13.4883267"><ele>225.0</ele><time>2026-04-04T09:15:43.55Z</time></trkpt><trkpt lat="43.077585" lon="13.48817"><ele>225.0</ele><time>2026-04-04T09:15:44.551Z</time></trkpt><trkpt lat="43.0775" lon="13.488005"><ele>225.0</ele><time>2026-04-04T09:15:45.551Z</time></trkpt><trkpt lat="43.0774217" lon="13.48784"><ele>225.0</ele><time>2026-04-04T09:15:46.55Z</time></trkpt><trkpt lat="43.0773483" lon="13.48768"><ele>225.0</ele><time>2026-04-04T09:15:47.55Z</time></trkpt><trkpt lat="43.0772817" lon="13.4875167"><ele>225.0</ele><time>2026-04-04T09:15:48.551Z</time></trkpt><trkpt lat="43.07721" lon="13.4873717"><ele>225.0</ele><time>2026-04-04T09:15:49.551Z</time></trkpt><trkpt lat="43.0771283" lon="13.4872133"><ele>225.0</ele><time>2026-04-04T09:15:50.551Z</time></trkpt><trkpt lat="43.0770467" lon="13.4870567"><ele>225.0</ele><time>2026-04-04T09:15:51.551Z</time></trkpt><trkpt lat="43.0769633" lon="13.486905"><ele>224.75</ele><time>2026-04-04T09:15:52.551Z</time></trkpt><trkpt lat="43.07688" lon="13.486755"><ele>224.5</ele><time>2026-04-04T09:15:53.55Z</time></trkpt><trkpt lat="43.0768017" lon="13.4866183"><ele>224.25</ele><time>2026-04-04T09:15:54.55Z</time></trkpt><trkpt lat="43.07674" lon="13.4864967"><ele>224.0</ele><time>2026-04-04T09:15:55.55Z</time></trkpt><trkpt lat="43.0766733" lon="13.4863667"><ele>224.00000000000003</ele><time>2026-04-04T09:15:56.551Z</time></trkpt><trkpt lat="43.076615" lon="13.4862567"><ele>224.0</ele><time>2026-04-04T09:15:57.551Z</time></trkpt><trkpt lat="43.0765617" lon="13.4861433"><ele>224.0</ele><time>2026-04-04T09:15:58.551Z</time></trkpt><trkpt lat="43.07653" lon="13.48605"><ele>224.0</ele><time>2026-04-04T09:15:59.55Z</time></trkpt><trkpt lat="43.0765133" lon="13.4859567"><ele>224.00000000000003</ele><time>2026-04-04T09:16:00.55Z</time></trkpt><trkpt lat="43.0765017" lon="13.485845"><ele>224.0</ele><time>2026-04-04T09:16:01.55Z</time></trkpt><trkpt lat="43.0764883" lon="13.485715"><ele>224.0</ele><time>2026-04-04T09:16:02.551Z</time></trkpt><trkpt lat="43.076495" lon="13.4855633"><ele>224.0</ele><time>2026-04-04T09:16:03.55Z</time></trkpt><trkpt lat="43.07652" lon="13.4853983"><ele>224.0</ele><time>2026-04-04T09:16:04.551Z</time></trkpt><trkpt lat="43.0765567" lon="13.485235"><ele>224.0</ele><time>2026-04-04T09:16:05.55Z</time></trkpt><trkpt lat="43.0765917" lon="13.485095"><ele>223.75</ele><time>2026-04-04T09:16:06.55Z</time></trkpt><trkpt lat="43.0766217" lon="13.4849383"><ele>223.5</ele><time>2026-04-04T09:16:07.55Z</time></trkpt><trkpt lat="43.0766433" lon="13.4847717"><ele>223.25</ele><time>2026-04-04T09:16:08.55Z</time></trkpt><trkpt lat="43.0766667" lon="13.484615"><ele>223.0</ele><time>2026-04-04T09:16:09.551Z</time></trkpt><trkpt lat="43.0766833" lon="13.4844667"><ele>222.49999999999997</ele><time>2026-04-04T09:16:10.55Z</time></trkpt><trkpt lat="43.0766967" lon="13.4843283"><ele>222.0</ele><time>2026-04-04T09:16:11.55Z</time></trkpt><trkpt lat="43.0767117" lon="13.4842117"><ele>221.5</ele><time>2026-04-04T09:16:12.55Z</time></trkpt><trkpt lat="43.0767367" lon="13.4841033"><ele>221.0</ele><time>2026-04-04T09:16:13.55Z</time></trkpt><trkpt lat="43.076745" lon="13.4839983"><ele>220.49999999999997</ele><time>2026-04-04T09:16:14.55Z</time></trkpt><trkpt lat="43.076725" lon="13.483875"><ele>220.0</ele><time>2026-04-04T09:16:15.55Z</time></trkpt><trkpt lat="43.0767017" lon="13.483745"><ele>220.75</ele><time>2026-04-04T09:16:16.551Z</time></trkpt><trkpt lat="43.076655" lon="13.4835917"><ele>221.5</ele><time>2026-04-04T09:16:17.551Z</time></trkpt><trkpt lat="43.0766" lon="13.4834417"><ele>222.25</ele><time>2026-04-04T09:16:18.549Z</time></trkpt><trkpt lat="43.07653" lon="13.483295"><ele>223.0</ele><time>2026-04-04T09:16:19.549Z</time></trkpt><trkpt lat="43.0764417" lon="13.4831317"><ele>223.0</ele><time>2026-04-04T09:16:20.55Z</time></trkpt><trkpt lat="43.076345" lon="13.482985"><ele>223.0</ele><time>2026-04-04T09:16:21.549Z</time></trkpt><trkpt lat="43.076255" lon="13.4828417"><ele>223.0</ele><time>2026-04-04T09:16:22.549Z</time></trkpt><trkpt lat="43.0761583" lon="13.4827083"><ele>223.0</ele><time>2026-04-04T09:16:23.549Z</time></trkpt><trkpt lat="43.07606" lon="13.4825717"><ele>222.5</ele><time>2026-04-04T09:16:24.549Z</time></trkpt><trkpt lat="43.075955" lon="13.48244"><ele>222.0</ele><time>2026-04-04T09:16:25.549Z</time></trkpt><trkpt lat="43.0758383" lon="13.4823017"><ele>221.5</ele><time>2026-04-04T09:16:26.549Z</time></trkpt><trkpt lat="43.07575" lon="13.482185"><ele>221.0</ele><time>2026-04-04T09:16:27.549Z</time></trkpt><trkpt lat="43.0756717" lon="13.4820817"><ele>220.16666666666669</ele><time>2026-04-04T09:16:28.549Z</time></trkpt><trkpt lat="43.0756067" lon="13.48199"><ele>219.33333333333334</ele><time>2026-04-04T09:16:29.549Z</time></trkpt><trkpt lat="43.07555" lon="13.4818983"><ele>218.5</ele><time>2026-04-04T09:16:30.55Z</time></trkpt><trkpt lat="43.075505" lon="13.4818067"><ele>217.66666666666669</ele><time>2026-04-04T09:16:31.55Z</time></trkpt><trkpt lat="43.07548" lon="13.4817133"><ele>216.83333333333334</ele><time>2026-04-04T09:16:32.549Z</time></trkpt><trkpt lat="43.0754583" lon="13.4816133"><ele>216.0</ele><time>2026-04-04T09:16:33.55Z</time></trkpt><trkpt lat="43.0754383" lon="13.4815133"><ele>216.0</ele><time>2026-04-04T09:16:34.55Z</time></trkpt><trkpt lat="43.07542" lon="13.4814067"><ele>216.0</ele><time>2026-04-04T09:16:35.55Z</time></trkpt><trkpt lat="43.075415" lon="13.48128"><ele>216.0</ele><time>2026-04-04T09:16:36.549Z</time></trkpt><trkpt lat="43.0754167" lon="13.481165"><ele>216.0</ele><time>2026-04-04T09:16:37.549Z</time></trkpt><trkpt lat="43.075415" lon="13.4810633"><ele>216.0</ele><time>2026-04-04T09:16:38.55Z</time></trkpt><trkpt lat="43.0753917" lon="13.4809817"><ele>216.0</ele><time>2026-04-04T09:16:39.55Z</time></trkpt><trkpt lat="43.075355" lon="13.4809017"><ele>214.4</ele><time>2026-04-04T09:16:40.549Z</time></trkpt><trkpt lat="43.075315" lon="13.4808233"><ele>212.8</ele><time>2026-04-04T09:16:41.549Z</time></trkpt><trkpt lat="43.0752833" lon="13.4807067"><ele>211.20000000000002</ele><time>2026-04-04T09:16:43.55Z</time></trkpt><trkpt lat="43.0753667" lon="13.4806467"><ele>209.60000000000002</ele><time>2026-04-04T09:16:46.55Z</time></trkpt><trkpt lat="43.07549" lon="13.480765"><ele>208.0</ele><time>2026-04-04T09:16:48.549Z</time></trkpt><trkpt lat="43.0755633" lon="13.4808283"><ele>207.99999999999997</ele><time>2026-04-04T09:16:49.549Z</time></trkpt><trkpt lat="43.0756833" lon="13.4808567"><ele>208.0</ele><time>2026-04-04T09:16:51.55Z</time></trkpt><trkpt lat="43.0757433" lon="13.4808283"><ele>208.0</ele><time>2026-04-04T09:16:52.549Z</time></trkpt><trkpt lat="43.0758033" lon="13.4807783"><ele>208.0</ele><time>2026-04-04T09:16:53.549Z</time></trkpt><trkpt lat="43.0758767" lon="13.4807083"><ele>207.99999999999997</ele><time>2026-04-04T09:16:54.549Z</time></trkpt><trkpt lat="43.075945" lon="13.48064"><ele>208.0</ele><time>2026-04-04T09:16:55.549Z</time></trkpt><trkpt lat="43.0760117" lon="13.4805633"><ele>206.83333333333331</ele><time>2026-04-04T09:16:56.549Z</time></trkpt><trkpt lat="43.0760667" lon="13.4804917"><ele>205.66666666666666</ele><time>2026-04-04T09:16:57.549Z</time></trkpt><trkpt lat="43.0761167" lon="13.48041"><ele>204.5</ele><time>2026-04-04T09:16:58.549Z</time></trkpt><trkpt lat="43.0761533" lon="13.48031"><ele>203.33333333333331</ele><time>2026-04-04T09:16:59.549Z</time></trkpt><trkpt lat="43.0761867" lon="13.48021"><ele>202.16666666666666</ele><time>2026-04-04T09:17:00.549Z</time></trkpt><trkpt lat="43.0762167" lon="13.4801067"><ele>201.0</ele><time>2026-04-04T09:17:01.55Z</time></trkpt><trkpt lat="43.076255" lon="13.4799867"><ele>200.4</ele><time>2026-04-04T09:17:02.55Z</time></trkpt><trkpt lat="43.0762967" lon="13.4798533"><ele>199.8</ele><time>2026-04-04T09:17:03.55Z</time></trkpt><trkpt lat="43.0763433" lon="13.4797233"><ele>199.20000000000002</ele><time>2026-04-04T09:17:04.55Z</time></trkpt><trkpt lat="43.07639" lon="13.4796033"><ele>198.60000000000002</ele><time>2026-04-04T09:17:05.549Z</time></trkpt><trkpt lat="43.0764367" lon="13.4794883"><ele>198.0</ele><time>2026-04-04T09:17:06.549Z</time></trkpt><trkpt lat="43.076465" lon="13.4793867"><ele>198.0</ele><time>2026-04-04T09:17:07.55Z</time></trkpt><trkpt lat="43.07649" lon="13.4792983"><ele>198.0</ele><time>2026-04-04T09:17:08.549Z</time></trkpt><trkpt lat="43.07656" lon="13.4791817"><ele>198.0</ele><time>2026-04-04T09:17:10.549Z</time></trkpt><trkpt lat="43.0766117" lon="13.4791033"><ele>198.0</ele><time>2026-04-04T09:17:12.55Z</time></trkpt><trkpt lat="43.0765783" lon="13.4789933"><ele>198.0</ele><time>2026-04-04T09:17:24.549Z</time></trkpt><trkpt lat="43.0765183" lon="13.47886"><ele>198.0</ele><time>2026-04-04T09:17:26.55Z</time></trkpt><trkpt lat="43.0764783" lon="13.47878"><ele>198.0</ele><time>2026-04-04T09:17:27.55Z</time></trkpt><trkpt lat="43.0764317" lon="13.47872"><ele>198.0</ele><time>2026-04-04T09:17:28.549Z</time></trkpt><trkpt lat="43.0763817" lon="13.4786633"><ele>198.0</ele><time>2026-04-04T09:17:29.549Z</time></trkpt><trkpt lat="43.0763133" lon="13.4785967"><ele>198.0</ele><time>2026-04-04T09:17:31.55Z</time></trkpt><trkpt lat="43.0762533" lon="13.47851"><ele>198.0</ele><time>2026-04-04T09:17:33.549Z</time></trkpt><trkpt lat="43.0761667" lon="13.4783967"><ele>198.0</ele><time>2026-04-04T09:17:35.55Z</time></trkpt><trkpt lat="43.0760817" lon="13.4782633"><ele>198.0</ele><time>2026-04-04T09:17:37.549Z</time></trkpt><trkpt lat="43.0760333" lon="13.4781717"><ele>198.0</ele><time>2026-04-04T09:17:38.549Z</time></trkpt><trkpt lat="43.07598" lon="13.4780883"><ele>198.0</ele><time>2026-04-04T09:17:39.55Z</time></trkpt><trkpt lat="43.0759267" lon="13.4780083"><ele>198.0</ele><time>2026-04-04T09:17:40.55Z</time></trkpt><trkpt lat="43.0758733" lon="13.477955"><ele>198.0</ele><time>2026-04-04T09:17:41.55Z</time></trkpt><trkpt lat="43.0758083" lon="13.477915"><ele>198.16666666666666</ele><time>2026-04-04T09:17:42.549Z</time></trkpt><trkpt lat="43.075735" lon="13.4778733"><ele>198.33333333333331</ele><time>2026-04-04T09:17:43.549Z</time></trkpt><trkpt lat="43.0756623" lon="13.4778306"><ele>198.5</ele><time>2026-04-04T09:17:44.55Z</time></trkpt><trkpt lat="43.0755898" lon="13.4777845"><ele>198.66666666666666</ele><time>2026-04-04T09:17:45.549Z</time></trkpt><trkpt lat="43.0755189" lon="13.4777346"><ele>198.83333333333331</ele><time>2026-04-04T09:17:46.549Z</time></trkpt><trkpt lat="43.0754472" lon="13.4776873"><ele>199.0</ele><time>2026-04-04T09:17:47.549Z</time></trkpt><trkpt lat="43.0753812" lon="13.4776414"><ele>198.99999999999997</ele><time>2026-04-04T09:17:48.55Z</time></trkpt><trkpt lat="43.0753213" lon="13.4775936"><ele>199.0</ele><time>2026-04-04T09:17:49.549Z</time></trkpt><trkpt lat="43.075268" lon="13.4775456"><ele>199.0</ele><time>2026-04-04T09:17:50.55Z</time></trkpt><trkpt lat="43.0752022" lon="13.4774262"><ele>199.0</ele><time>2026-04-04T09:17:52.549Z</time></trkpt><trkpt lat="43.0751781" lon="13.4772639"><ele>198.99999999999997</ele><time>2026-04-04T09:17:54.549Z</time></trkpt><trkpt lat="43.0751374" lon="13.4771743"><ele>199.0</ele><time>2026-04-04T09:17:56.549Z</time></trkpt><trkpt lat="43.0750957" lon="13.4770769"><ele>198.66666666666666</ele><time>2026-04-04T09:17:59.549Z</time></trkpt><trkpt lat="43.0750893" lon="13.4769655"><ele>198.33333333333331</ele><time>2026-04-04T09:18:01.549Z</time></trkpt><trkpt lat="43.0750557" lon="13.476819"><ele>198.0</ele><time>2026-04-04T09:18:03.549Z</time></trkpt><trkpt lat="43.0750294" lon="13.476684"><ele>197.66666666666669</ele><time>2026-04-04T09:18:05.549Z</time></trkpt><trkpt lat="43.0750076" lon="13.4765831"><ele>197.33333333333334</ele><time>2026-04-04T09:18:07.549Z</time></trkpt><trkpt lat="43.0749509" lon="13.4765298"><ele>197.0</ele><time>2026-04-04T09:18:09.549Z</time></trkpt><trkpt lat="43.0748903" lon="13.4764487"><ele>198.33333333333334</ele><time>2026-04-04T09:18:11.549Z</time></trkpt><trkpt lat="43.0748465" lon="13.4763124"><ele>199.66666666666669</ele><time>2026-04-04T09:18:13.55Z</time></trkpt><trkpt lat="43.074803" lon="13.4762"><ele>201.0</ele><time>2026-04-04T09:18:15.55Z</time></trkpt><trkpt lat="43.0747306" lon="13.4761544"><ele>202.33333333333331</ele><time>2026-04-04T09:18:17.55Z</time></trkpt><trkpt lat="43.0746593" lon="13.4761429"><ele>203.66666666666666</ele><time>2026-04-04T09:18:31.549Z</time></trkpt><trkpt lat="43.0745803" lon="13.4761706"><ele>205.0</ele><time>2026-04-04T09:18:33.549Z</time></trkpt><trkpt lat="43.0744899" lon="13.4761993"><ele>205.0</ele><time>2026-04-04T09:18:35.549Z</time></trkpt><trkpt lat="43.0743884" lon="13.4762199"><ele>205.0</ele><time>2026-04-04T09:18:37.549Z</time></trkpt><trkpt lat="43.0742854" lon="13.4762404"><ele>205.0</ele><time>2026-04-04T09:18:39.55Z</time></trkpt><trkpt lat="43.0741796" lon="13.4762325"><ele>205.0</ele><time>2026-04-04T09:18:41.55Z</time></trkpt><trkpt lat="43.0740494" lon="13.4761929"><ele>205.0</ele><time>2026-04-04T09:18:43.549Z</time></trkpt><trkpt lat="43.073989" lon="13.4761478"><ele>208.6</ele><time>2026-04-04T09:18:44.549Z</time></trkpt><trkpt lat="43.0739053" lon="13.4760345"><ele>212.2</ele><time>2026-04-04T09:18:46.55Z</time></trkpt><trkpt lat="43.0738767" lon="13.4758619"><ele>215.8</ele><time>2026-04-04T09:18:48.549Z</time></trkpt><trkpt lat="43.0738615" lon="13.475752"><ele>219.4</ele><time>2026-04-04T09:18:49.549Z</time></trkpt><trkpt lat="43.0738389" lon="13.4756341"><ele>223.0</ele><time>2026-04-04T09:18:50.549Z</time></trkpt><trkpt lat="43.0738042" lon="13.4755135"><ele>222.0</ele><time>2026-04-04T09:18:51.55Z</time></trkpt><trkpt lat="43.073753" lon="13.4753897"><ele>221.0</ele><time>2026-04-04T09:18:52.549Z</time></trkpt><trkpt lat="43.073685" lon="13.4752756"><ele>220.0</ele><time>2026-04-04T09:18:53.55Z</time></trkpt><trkpt lat="43.0736167" lon="13.4751619"><ele>219.0</ele><time>2026-04-04T09:18:54.55Z</time></trkpt><trkpt lat="43.0735422" lon="13.4750569"><ele>218.0</ele><time>2026-04-04T09:18:55.549Z</time></trkpt><trkpt lat="43.0734735" lon="13.474938"><ele>218.0</ele><time>2026-04-04T09:18:56.55Z</time></trkpt><trkpt lat="43.0733992" lon="13.4748227"><ele>218.0</ele><time>2026-04-04T09:18:57.55Z</time></trkpt><trkpt lat="43.0733322" lon="13.4747061"><ele>218.0</ele><time>2026-04-04T09:18:58.55Z</time></trkpt><trkpt lat="43.0732689" lon="13.4745739"><ele>218.0</ele><time>2026-04-04T09:18:59.549Z</time></trkpt><trkpt lat="43.0732025" lon="13.4744193"><ele>218.5</ele><time>2026-04-04T09:19:00.549Z</time></trkpt><trkpt lat="43.0731279" lon="13.4742676"><ele>219.0</ele><time>2026-04-04T09:19:01.549Z</time></trkpt><trkpt lat="43.0730551" lon="13.4741093"><ele>219.5</ele><time>2026-04-04T09:19:02.55Z</time></trkpt><trkpt lat="43.0729835" lon="13.4739624"><ele>220.0</ele><time>2026-04-04T09:19:03.549Z</time></trkpt><trkpt lat="43.072921" lon="13.4738258"><ele>218.16666666666666</ele><time>2026-04-04T09:19:04.55Z</time></trkpt><trkpt lat="43.072861" lon="13.4737049"><ele>216.33333333333331</ele><time>2026-04-04T09:19:05.549Z</time></trkpt><trkpt lat="43.0728093" lon="13.4735941"><ele>214.5</ele><time>2026-04-04T09:19:06.55Z</time></trkpt><trkpt lat="43.072761" lon="13.4734873"><ele>212.66666666666669</ele><time>2026-04-04T09:19:07.549Z</time></trkpt><trkpt lat="43.0727171" lon="13.4733957"><ele>210.83333333333334</ele><time>2026-04-04T09:19:08.549Z</time></trkpt><trkpt lat="43.0726719" lon="13.4733232"><ele>209.0</ele><time>2026-04-04T09:19:09.549Z</time></trkpt><trkpt lat="43.0725769" lon="13.4732112"><ele>209.0</ele><time>2026-04-04T09:19:11.55Z</time></trkpt><trkpt lat="43.0725225" lon="13.4731626"><ele>209.0</ele><time>2026-04-04T09:19:12.55Z</time></trkpt><trkpt lat="43.0724645" lon="13.4731186"><ele>209.0</ele><time>2026-04-04T09:19:13.549Z</time></trkpt><trkpt lat="43.0724037" lon="13.4730818"><ele>209.0</ele><time>2026-04-04T09:19:14.55Z</time></trkpt><trkpt lat="43.0723089" lon="13.4730335"><ele>209.0</ele><time>2026-04-04T09:19:16.55Z</time></trkpt><trkpt lat="43.0722347" lon="13.473011"><ele>209.0</ele><time>2026-04-04T09:19:19.55Z</time></trkpt><trkpt lat="43.0721712" lon="13.4729644"><ele>209.0</ele><time>2026-04-04T09:19:22.549Z</time></trkpt><trkpt lat="43.0720763" lon="13.4728966"><ele>209.75</ele><time>2026-04-04T09:19:24.549Z</time></trkpt><trkpt lat="43.0719799" lon="13.472829"><ele>210.5</ele><time>2026-04-04T09:19:26.55Z</time></trkpt><trkpt lat="43.0718886" lon="13.4727694"><ele>211.25</ele><time>2026-04-04T09:19:28.55Z</time></trkpt><trkpt lat="43.0717895" lon="13.4726878"><ele>212.0</ele><time>2026-04-04T09:19:30.549Z</time></trkpt><trkpt lat="43.0716808" lon="13.4725826"><ele>212.00000000000003</ele><time>2026-04-04T09:19:32.55Z</time></trkpt><trkpt lat="43.0716169" lon="13.4725169"><ele>212.0</ele><time>2026-04-04T09:19:33.55Z</time></trkpt><trkpt lat="43.0715541" lon="13.4724549"><ele>212.0</ele><time>2026-04-04T09:19:34.55Z</time></trkpt><trkpt lat="43.0714835" lon="13.4723773"><ele>212.0</ele><time>2026-04-04T09:19:35.549Z</time></trkpt><trkpt lat="43.0714177" lon="13.4722995"><ele>212.00000000000003</ele><time>2026-04-04T09:19:36.55Z</time></trkpt><trkpt lat="43.0713584" lon="13.4722081"><ele>212.0</ele><time>2026-04-04T09:19:37.549Z</time></trkpt><trkpt lat="43.0712982" lon="13.472123"><ele>212.33333333333334</ele><time>2026-04-04T09:19:38.55Z</time></trkpt><trkpt lat="43.0712383" lon="13.4720406"><ele>212.66666666666669</ele><time>2026-04-04T09:19:39.549Z</time></trkpt><trkpt lat="43.0711754" lon="13.4719581"><ele>213.0</ele><time>2026-04-04T09:19:40.55Z</time></trkpt><trkpt lat="43.0711121" lon="13.4718782"><ele>213.33333333333331</ele><time>2026-04-04T09:19:41.549Z</time></trkpt><trkpt lat="43.0710471" lon="13.4718001"><ele>213.66666666666666</ele><time>2026-04-04T09:19:42.55Z</time></trkpt><trkpt lat="43.0709805" lon="13.4717249"><ele>214.0</ele><time>2026-04-04T09:19:43.55Z</time></trkpt><trkpt lat="43.0709083" lon="13.4716484"><ele>213.99999999999997</ele><time>2026-04-04T09:19:44.55Z</time></trkpt><trkpt lat="43.0708393" lon="13.4715807"><ele>214.0</ele><time>2026-04-04T09:19:45.549Z</time></trkpt><trkpt lat="43.0707738" lon="13.471509"><ele>214.0</ele><time>2026-04-04T09:19:46.549Z</time></trkpt><trkpt lat="43.0707087" lon="13.4714409"><ele>214.0</ele><time>2026-04-04T09:19:47.55Z</time></trkpt><trkpt lat="43.0706463" lon="13.4713834"><ele>213.99999999999997</ele><time>2026-04-04T09:19:48.549Z</time></trkpt><trkpt lat="43.070588" lon="13.471337"><ele>214.0</ele><time>2026-04-04T09:19:49.549Z</time></trkpt><trkpt lat="43.0705296" lon="13.4713009"><ele>212.79999999999998</ele><time>2026-04-04T09:19:50.549Z</time></trkpt><trkpt lat="43.0704128" lon="13.4712415"><ele>211.59999999999997</ele><time>2026-04-04T09:19:52.549Z</time></trkpt><trkpt lat="43.0702951" lon="13.4711882"><ele>210.4</ele><time>2026-04-04T09:19:54.55Z</time></trkpt><trkpt lat="43.0702259" lon="13.471168"><ele>209.2</ele><time>2026-04-04T09:19:55.549Z</time></trkpt><trkpt lat="43.0701509" lon="13.4711586"><ele>208.0</ele><time>2026-04-04T09:19:56.55Z</time></trkpt><trkpt lat="43.070069" lon="13.4711538"><ele>207.99999999999997</ele><time>2026-04-04T09:19:57.549Z</time></trkpt><trkpt lat="43.0699928" lon="13.471148"><ele>208.0</ele><time>2026-04-04T09:19:58.549Z</time></trkpt><trkpt lat="43.069908" lon="13.471146"><ele>208.0</ele><time>2026-04-04T09:19:59.55Z</time></trkpt><trkpt lat="43.0698252" lon="13.4711395"><ele>208.0</ele><time>2026-04-04T09:20:00.549Z</time></trkpt><trkpt lat="43.0697403" lon="13.4711278"><ele>207.99999999999997</ele><time>2026-04-04T09:20:01.549Z</time></trkpt><trkpt lat="43.0696525" lon="13.4711284"><ele>208.0</ele><time>2026-04-04T09:20:02.549Z</time></trkpt><trkpt lat="43.0695624" lon="13.4711325"><ele>208.8</ele><time>2026-04-04T09:20:03.549Z</time></trkpt><trkpt lat="43.0694746" lon="13.4711244"><ele>209.60000000000002</ele><time>2026-04-04T09:20:04.549Z</time></trkpt><trkpt lat="43.0693821" lon="13.4711155"><ele>210.39999999999998</ele><time>2026-04-04T09:20:05.55Z</time></trkpt><trkpt lat="43.0692886" lon="13.4711105"><ele>211.2</ele><time>2026-04-04T09:20:06.55Z</time></trkpt><trkpt lat="43.0691953" lon="13.4711167"><ele>212.0</ele><time>2026-04-04T09:20:07.55Z</time></trkpt><trkpt lat="43.0691036" lon="13.4711206"><ele>212.2</ele><time>2026-04-04T09:20:08.549Z</time></trkpt><trkpt lat="43.0690206" lon="13.4711218"><ele>212.39999999999998</ele><time>2026-04-04T09:20:09.549Z</time></trkpt><trkpt lat="43.068936" lon="13.4711245"><ele>212.60000000000002</ele><time>2026-04-04T09:20:10.549Z</time></trkpt><trkpt lat="43.0688455" lon="13.4711267"><ele>212.8</ele><time>2026-04-04T09:20:11.549Z</time></trkpt><trkpt lat="43.0687492" lon="13.4711221"><ele>213.0</ele><time>2026-04-04T09:20:12.55Z</time></trkpt><trkpt lat="43.0686541" lon="13.4711202"><ele>213.0</ele><time>2026-04-04T09:20:13.549Z</time></trkpt><trkpt lat="43.068565" lon="13.4711276"><ele>213.0</ele><time>2026-04-04T09:20:14.549Z</time></trkpt><trkpt lat="43.0684689" lon="13.4711213"><ele>213.0</ele><time>2026-04-04T09:20:15.55Z</time></trkpt><trkpt lat="43.0683701" lon="13.4711092"><ele>213.0</ele><time>2026-04-04T09:20:16.55Z</time></trkpt><trkpt lat="43.0682847" lon="13.4710956"><ele>213.0</ele><time>2026-04-04T09:20:17.55Z</time></trkpt><trkpt lat="43.0682151" lon="13.4710912"><ele>213.0</ele><time>2026-04-04T09:20:18.549Z</time></trkpt><trkpt lat="43.0681139" lon="13.4711331"><ele>213.2</ele><time>2026-04-04T09:20:20.55Z</time></trkpt><trkpt lat="43.0680399" lon="13.4712445"><ele>213.4</ele><time>2026-04-04T09:20:22.549Z</time></trkpt><trkpt lat="43.06795" lon="13.4713611"><ele>213.59999999999997</ele><time>2026-04-04T09:20:24.55Z</time></trkpt><trkpt lat="43.0678925" lon="13.4714196"><ele>213.79999999999998</ele><time>2026-04-04T09:20:25.549Z</time></trkpt><trkpt lat="43.0678311" lon="13.471472"><ele>214.0</ele><time>2026-04-04T09:20:26.55Z</time></trkpt><trkpt lat="43.0677584" lon="13.4715145"><ele>216.66666666666666</ele><time>2026-04-04T09:20:27.549Z</time></trkpt><trkpt lat="43.0676794" lon="13.47155"><ele>219.33333333333331</ele><time>2026-04-04T09:20:28.549Z</time></trkpt><trkpt lat="43.067604" lon="13.4715794"><ele>222.0</ele><time>2026-04-04T09:20:29.55Z</time></trkpt><trkpt lat="43.067522" lon="13.4716041"><ele>224.66666666666669</ele><time>2026-04-04T09:20:30.549Z</time></trkpt><trkpt lat="43.0674314" lon="13.4716204"><ele>227.33333333333334</ele><time>2026-04-04T09:20:31.549Z</time></trkpt><trkpt lat="43.067329" lon="13.4716229"><ele>230.0</ele><time>2026-04-04T09:20:32.55Z</time></trkpt><trkpt lat="43.067222" lon="13.4716251"><ele>230.0</ele><time>2026-04-04T09:20:33.55Z</time></trkpt><trkpt lat="43.0670978" lon="13.4716188"><ele>230.0</ele><time>2026-04-04T09:20:34.549Z</time></trkpt><trkpt lat="43.0669646" lon="13.4716134"><ele>230.0</ele><time>2026-04-04T09:20:35.549Z</time></trkpt><trkpt lat="43.0668317" lon="13.4716034"><ele>230.0</ele><time>2026-04-04T09:20:36.55Z</time></trkpt><trkpt lat="43.0666946" lon="13.4715747"><ele>234.0</ele><time>2026-04-04T09:20:37.55Z</time></trkpt><trkpt lat="43.0665492" lon="13.4715329"><ele>238.0</ele><time>2026-04-04T09:20:38.549Z</time></trkpt><trkpt lat="43.0664054" lon="13.4714921"><ele>242.0</ele><time>2026-04-04T09:20:39.549Z</time></trkpt><trkpt lat="43.0662526" lon="13.4714363"><ele>242.0</ele><time>2026-04-04T09:20:40.549Z</time></trkpt><trkpt lat="43.0661119" lon="13.4713914"><ele>242.0</ele><time>2026-04-04T09:20:41.549Z</time></trkpt><trkpt lat="43.0659701" lon="13.4713369"><ele>242.0</ele><time>2026-04-04T09:20:42.549Z</time></trkpt><trkpt lat="43.0658294" lon="13.4712811"><ele>242.0</ele><time>2026-04-04T09:20:43.549Z</time></trkpt><trkpt lat="43.0656894" lon="13.4712237"><ele>236.5</ele><time>2026-04-04T09:20:44.549Z</time></trkpt><trkpt lat="43.0655509" lon="13.4711641"><ele>231.0</ele><time>2026-04-04T09:20:45.549Z</time></trkpt><trkpt lat="43.0654177" lon="13.4711083"><ele>225.5</ele><time>2026-04-04T09:20:46.55Z</time></trkpt><trkpt lat="43.0652834" lon="13.4710666"><ele>220.0</ele><time>2026-04-04T09:20:47.55Z</time></trkpt><trkpt lat="43.0651475" lon="13.4710515"><ele>220.0</ele><time>2026-04-04T09:20:48.55Z</time></trkpt><trkpt lat="43.0650138" lon="13.4710621"><ele>220.0</ele><time>2026-04-04T09:20:49.55Z</time></trkpt><trkpt lat="43.0648819" lon="13.4711097"><ele>220.0</ele><time>2026-04-04T09:20:50.55Z</time></trkpt><trkpt lat="43.0647492" lon="13.4712043"><ele>220.0</ele><time>2026-04-04T09:20:51.549Z</time></trkpt><trkpt lat="43.0646198" lon="13.4712983"><ele>223.33333333333331</ele><time>2026-04-04T09:20:52.549Z</time></trkpt><trkpt lat="43.0644886" lon="13.4713949"><ele>226.66666666666669</ele><time>2026-04-04T09:20:53.549Z</time></trkpt><trkpt lat="43.0643504" lon="13.4714796"><ele>230.0</ele><time>2026-04-04T09:20:54.549Z</time></trkpt><trkpt lat="43.0642001" lon="13.4715561"><ele>229.33333333333334</ele><time>2026-04-04T09:20:55.549Z</time></trkpt><trkpt lat="43.0640492" lon="13.4716296"><ele>228.66666666666669</ele><time>2026-04-04T09:20:56.549Z</time></trkpt><trkpt lat="43.0638946" lon="13.4717002"><ele>228.0</ele><time>2026-04-04T09:20:57.549Z</time></trkpt><trkpt lat="43.0637391" lon="13.4717539"><ele>228.0</ele><time>2026-04-04T09:20:58.549Z</time></trkpt><trkpt lat="43.0635785" lon="13.4717984"><ele>228.0</ele><time>2026-04-04T09:20:59.549Z</time></trkpt><trkpt lat="43.0634201" lon="13.4718253"><ele>228.0</ele><time>2026-04-04T09:21:00.548Z</time></trkpt><trkpt lat="43.0632637" lon="13.4718285"><ele>227.66666666666669</ele><time>2026-04-04T09:21:01.549Z</time></trkpt><trkpt lat="43.0631089" lon="13.4718088"><ele>227.33333333333334</ele><time>2026-04-04T09:21:02.549Z</time></trkpt><trkpt lat="43.0629475" lon="13.471785"><ele>227.0</ele><time>2026-04-04T09:21:03.549Z</time></trkpt><trkpt lat="43.0627794" lon="13.4717456"><ele>227.0</ele><time>2026-04-04T09:21:04.549Z</time></trkpt><trkpt lat="43.0626135" lon="13.4717001"><ele>227.0</ele><time>2026-04-04T09:21:05.548Z</time></trkpt><trkpt lat="43.0624529" lon="13.4716497"><ele>227.0</ele><time>2026-04-04T09:21:06.548Z</time></trkpt><trkpt lat="43.0623044" lon="13.4715786"><ele>226.75</ele><time>2026-04-04T09:21:07.548Z</time></trkpt><trkpt lat="43.0621612" lon="13.4715007"><ele>226.5</ele><time>2026-04-04T09:21:08.549Z</time></trkpt><trkpt lat="43.0620318" lon="13.4714155"><ele>226.25</ele><time>2026-04-04T09:21:09.549Z</time></trkpt><trkpt lat="43.0619136" lon="13.4713065"><ele>226.0</ele><time>2026-04-04T09:21:10.549Z</time></trkpt><trkpt lat="43.0618137" lon="13.471163"><ele>226.0</ele><time>2026-04-04T09:21:11.548Z</time></trkpt><trkpt lat="43.0617054" lon="13.4710407"><ele>226.0</ele><time>2026-04-04T09:21:12.548Z</time></trkpt><trkpt lat="43.0615898" lon="13.4709551"><ele>226.0</ele><time>2026-04-04T09:21:13.549Z</time></trkpt><trkpt lat="43.0614653" lon="13.4708993"><ele>226.0</ele><time>2026-04-04T09:21:14.548Z</time></trkpt><trkpt lat="43.06133" lon="13.4708903"><ele>227.0</ele><time>2026-04-04T09:21:15.548Z</time></trkpt><trkpt lat="43.0611958" lon="13.470928"><ele>228.0</ele><time>2026-04-04T09:21:16.549Z</time></trkpt><trkpt lat="43.0610588" lon="13.4710086"><ele>229.0</ele><time>2026-04-04T09:21:17.548Z</time></trkpt><trkpt lat="43.0609082" lon="13.4711172"><ele>228.33333333333331</ele><time>2026-04-04T09:21:18.549Z</time></trkpt><trkpt lat="43.0607507" lon="13.4712295"><ele>227.66666666666669</ele><time>2026-04-04T09:21:19.548Z</time></trkpt><trkpt lat="43.0605868" lon="13.4713347"><ele>227.0</ele><time>2026-04-04T09:21:20.549Z</time></trkpt><trkpt lat="43.0604231" lon="13.471441"><ele>228.66666666666669</ele><time>2026-04-04T09:21:21.549Z</time></trkpt><trkpt lat="43.0602635" lon="13.4715257"><ele>230.33333333333331</ele><time>2026-04-04T09:21:22.549Z</time></trkpt><trkpt lat="43.0601068" lon="13.4716245"><ele>232.0</ele><time>2026-04-04T09:21:23.549Z</time></trkpt><trkpt lat="43.0599581" lon="13.4717039"><ele>232.33333333333331</ele><time>2026-04-04T09:21:24.549Z</time></trkpt><trkpt lat="43.0598057" lon="13.4717807"><ele>232.66666666666669</ele><time>2026-04-04T09:21:25.548Z</time></trkpt><trkpt lat="43.0596413" lon="13.4718496"><ele>233.0</ele><time>2026-04-04T09:21:26.549Z</time></trkpt><trkpt lat="43.059471" lon="13.4718987"><ele>233.0</ele><time>2026-04-04T09:21:27.549Z</time></trkpt><trkpt lat="43.0592952" lon="13.4719212"><ele>233.0</ele><time>2026-04-04T09:21:28.548Z</time></trkpt><trkpt lat="43.0591228" lon="13.471905"><ele>233.0</ele><time>2026-04-04T09:21:29.549Z</time></trkpt><trkpt lat="43.0589544" lon="13.4718535"><ele>234.0</ele><time>2026-04-04T09:21:30.548Z</time></trkpt><trkpt lat="43.0587865" lon="13.4717731"><ele>235.0</ele><time>2026-04-04T09:21:31.548Z</time></trkpt><trkpt lat="43.0586238" lon="13.4716799"><ele>236.0</ele><time>2026-04-04T09:21:32.548Z</time></trkpt><trkpt lat="43.0584664" lon="13.471564"><ele>236.0</ele><time>2026-04-04T09:21:33.549Z</time></trkpt><trkpt lat="43.0583145" lon="13.4714364"><ele>236.0</ele><time>2026-04-04T09:21:34.549Z</time></trkpt><trkpt lat="43.0581682" lon="13.4713084"><ele>236.0</ele><time>2026-04-04T09:21:35.548Z</time></trkpt><trkpt lat="43.058033" lon="13.4711646"><ele>236.33333333333334</ele><time>2026-04-04T09:21:36.548Z</time></trkpt><trkpt lat="43.0579005" lon="13.4710066"><ele>236.66666666666669</ele><time>2026-04-04T09:21:37.549Z</time></trkpt><trkpt lat="43.0577695" lon="13.470845"><ele>237.0</ele><time>2026-04-04T09:21:38.548Z</time></trkpt><trkpt lat="43.0576361" lon="13.4706883"><ele>237.0</ele><time>2026-04-04T09:21:39.549Z</time></trkpt><trkpt lat="43.0574889" lon="13.4705288"><ele>237.0</ele><time>2026-04-04T09:21:40.549Z</time></trkpt><trkpt lat="43.0573426" lon="13.470366"><ele>237.0</ele><time>2026-04-04T09:21:41.548Z</time></trkpt><trkpt lat="43.0571979" lon="13.4702011"><ele>237.0</ele><time>2026-04-04T09:21:42.548Z</time></trkpt><trkpt lat="43.0570562" lon="13.4700358"><ele>237.0</ele><time>2026-04-04T09:21:43.548Z</time></trkpt><trkpt lat="43.0569144" lon="13.4698751"><ele>237.0</ele><time>2026-04-04T09:21:44.548Z</time></trkpt><trkpt lat="43.0567727" lon="13.469711"><ele>237.33333333333331</ele><time>2026-04-04T09:21:45.548Z</time></trkpt><trkpt lat="43.0566286" lon="13.4695462"><ele>237.66666666666666</ele><time>2026-04-04T09:21:46.549Z</time></trkpt><trkpt lat="43.0564852" lon="13.4693822"><ele>238.0</ele><time>2026-04-04T09:21:47.549Z</time></trkpt><trkpt lat="43.0563467" lon="13.4692112"><ele>238.0</ele><time>2026-04-04T09:21:48.548Z</time></trkpt><trkpt lat="43.0562049" lon="13.469044"><ele>238.0</ele><time>2026-04-04T09:21:49.548Z</time></trkpt><trkpt lat="43.0560657" lon="13.4688831"><ele>238.0</ele><time>2026-04-04T09:21:50.548Z</time></trkpt><trkpt lat="43.0559266" lon="13.4687295"><ele>238.33333333333331</ele><time>2026-04-04T09:21:51.548Z</time></trkpt><trkpt lat="43.0557782" lon="13.4686244"><ele>238.66666666666669</ele><time>2026-04-04T09:21:52.548Z</time></trkpt><trkpt lat="43.0556161" lon="13.4685622"><ele>239.0</ele><time>2026-04-04T09:21:53.548Z</time></trkpt><trkpt lat="43.0554489" lon="13.4685355"><ele>239.0</ele><time>2026-04-04T09:21:54.548Z</time></trkpt><trkpt lat="43.0552618" lon="13.4685612"><ele>239.0</ele><time>2026-04-04T09:21:55.548Z</time></trkpt><trkpt lat="43.0550903" lon="13.4685986"><ele>239.0</ele><time>2026-04-04T09:21:56.548Z</time></trkpt><trkpt lat="43.0549137" lon="13.4686411"><ele>238.0</ele><time>2026-04-04T09:21:57.548Z</time></trkpt><trkpt lat="43.0547406" lon="13.4686759"><ele>237.0</ele><time>2026-04-04T09:21:58.549Z</time></trkpt><trkpt lat="43.0545697" lon="13.4687133"><ele>236.0</ele><time>2026-04-04T09:21:59.548Z</time></trkpt><trkpt lat="43.0543913" lon="13.468749"><ele>237.66666666666669</ele><time>2026-04-04T09:22:00.549Z</time></trkpt><trkpt lat="43.0542159" lon="13.4687847"><ele>239.33333333333331</ele><time>2026-04-04T09:22:01.549Z</time></trkpt><trkpt lat="43.0540392" lon="13.4688132"><ele>241.0</ele><time>2026-04-04T09:22:02.549Z</time></trkpt><trkpt lat="43.0538596" lon="13.4688478"><ele>241.0</ele><time>2026-04-04T09:22:03.548Z</time></trkpt><trkpt lat="43.0536818" lon="13.4688877"><ele>241.0</ele><time>2026-04-04T09:22:04.548Z</time></trkpt><trkpt lat="43.053501" lon="13.4689302"><ele>241.0</ele><time>2026-04-04T09:22:05.549Z</time></trkpt><trkpt lat="43.0533203" lon="13.4689698"><ele>241.0</ele><time>2026-04-04T09:22:06.549Z</time></trkpt><trkpt lat="43.0531435" lon="13.4690037"><ele>241.0</ele><time>2026-04-04T09:22:07.548Z</time></trkpt><trkpt lat="43.0529705" lon="13.4690311"><ele>241.0</ele><time>2026-04-04T09:22:08.549Z</time></trkpt><trkpt lat="43.0527938" lon="13.4690604"><ele>241.0</ele><time>2026-04-04T09:22:09.548Z</time></trkpt><trkpt lat="43.0526109" lon="13.4690938"><ele>241.0</ele><time>2026-04-04T09:22:10.548Z</time></trkpt><trkpt lat="43.0524214" lon="13.4691273"><ele>241.0</ele><time>2026-04-04T09:22:11.549Z</time></trkpt><trkpt lat="43.0522399" lon="13.469157"><ele>240.33333333333331</ele><time>2026-04-04T09:22:12.548Z</time></trkpt><trkpt lat="43.0520595" lon="13.469186"><ele>239.66666666666669</ele><time>2026-04-04T09:22:13.549Z</time></trkpt><trkpt lat="43.0518806" lon="13.4692199"><ele>239.0</ele><time>2026-04-04T09:22:14.549Z</time></trkpt><trkpt lat="43.0516949" lon="13.4692524"><ele>239.0</ele><time>2026-04-04T09:22:15.549Z</time></trkpt><trkpt lat="43.0515109" lon="13.4692924"><ele>239.0</ele><time>2026-04-04T09:22:16.548Z</time></trkpt><trkpt lat="43.0513269" lon="13.4693273"><ele>239.0</ele><time>2026-04-04T09:22:17.548Z</time></trkpt><trkpt lat="43.0511359" lon="13.4693646"><ele>239.0</ele><time>2026-04-04T09:22:18.548Z</time></trkpt><trkpt lat="43.0509433" lon="13.4693977"><ele>239.0</ele><time>2026-04-04T09:22:19.549Z</time></trkpt><trkpt lat="43.0507575" lon="13.4694344"><ele>239.0</ele><time>2026-04-04T09:22:20.548Z</time></trkpt><trkpt lat="43.0505759" lon="13.4694647"><ele>239.66666666666669</ele><time>2026-04-04T09:22:21.549Z</time></trkpt><trkpt lat="43.0503943" lon="13.4694992"><ele>240.33333333333331</ele><time>2026-04-04T09:22:22.548Z</time></trkpt><trkpt lat="43.0502039" lon="13.4695287"><ele>241.0</ele><time>2026-04-04T09:22:23.549Z</time></trkpt><trkpt lat="43.0500174" lon="13.4695609"><ele>241.0</ele><time>2026-04-04T09:22:24.549Z</time></trkpt><trkpt lat="43.0498332" lon="13.469605"><ele>241.0</ele><time>2026-04-04T09:22:25.548Z</time></trkpt><trkpt lat="43.0496533" lon="13.4696556"><ele>241.0</ele><time>2026-04-04T09:22:26.548Z</time></trkpt><trkpt lat="43.049471" lon="13.4697223"><ele>242.66666666666666</ele><time>2026-04-04T09:22:27.548Z</time></trkpt><trkpt lat="43.0492866" lon="13.4697963"><ele>244.33333333333331</ele><time>2026-04-04T09:22:28.549Z</time></trkpt><trkpt lat="43.0490982" lon="13.4698606"><ele>246.0</ele><time>2026-04-04T09:22:29.548Z</time></trkpt><trkpt lat="43.0489109" lon="13.4699233"><ele>246.0</ele><time>2026-04-04T09:22:30.548Z</time></trkpt><trkpt lat="43.0487264" lon="13.4699901"><ele>246.0</ele><time>2026-04-04T09:22:31.549Z</time></trkpt><trkpt lat="43.0485438" lon="13.4700594"><ele>246.0</ele><time>2026-04-04T09:22:32.549Z</time></trkpt><trkpt lat="43.0483604" lon="13.4701224"><ele>245.33333333333331</ele><time>2026-04-04T09:22:33.548Z</time></trkpt><trkpt lat="43.0481744" lon="13.4701813"><ele>244.66666666666666</ele><time>2026-04-04T09:22:34.548Z</time></trkpt><trkpt lat="43.0479854" lon="13.4702338"><ele>244.0</ele><time>2026-04-04T09:22:35.549Z</time></trkpt><trkpt lat="43.047803" lon="13.470291"><ele>244.0</ele><time>2026-04-04T09:22:36.549Z</time></trkpt><trkpt lat="43.0476203" lon="13.4703552"><ele>244.0</ele><time>2026-04-04T09:22:37.548Z</time></trkpt><trkpt lat="43.0474399" lon="13.4704181"><ele>244.0</ele><time>2026-04-04T09:22:38.549Z</time></trkpt><trkpt lat="43.0472557" lon="13.4704925"><ele>244.33333333333331</ele><time>2026-04-04T09:22:39.548Z</time></trkpt><trkpt lat="43.047073" lon="13.4705832"><ele>244.66666666666669</ele><time>2026-04-04T09:22:40.548Z</time></trkpt><trkpt lat="43.0468969" lon="13.4707008"><ele>245.0</ele><time>2026-04-04T09:22:41.549Z</time></trkpt><trkpt lat="43.0467274" lon="13.4708273"><ele>244.0</ele><time>2026-04-04T09:22:42.548Z</time></trkpt><trkpt lat="43.0465643" lon="13.4709548"><ele>243.0</ele><time>2026-04-04T09:22:43.549Z</time></trkpt><trkpt lat="43.0464011" lon="13.471076"><ele>242.0</ele><time>2026-04-04T09:22:44.548Z</time></trkpt><trkpt lat="43.0462305" lon="13.4711853"><ele>243.0</ele><time>2026-04-04T09:22:45.549Z</time></trkpt><trkpt lat="43.0460539" lon="13.4712892"><ele>244.0</ele><time>2026-04-04T09:22:46.549Z</time></trkpt><trkpt lat="43.0458741" lon="13.4713756"><ele>245.0</ele><time>2026-04-04T09:22:47.548Z</time></trkpt><trkpt lat="43.0456934" lon="13.4714353"><ele>245.33333333333334</ele><time>2026-04-04T09:22:48.548Z</time></trkpt><trkpt lat="43.0455109" lon="13.4714872"><ele>245.66666666666669</ele><time>2026-04-04T09:22:49.549Z</time></trkpt><trkpt lat="43.045321" lon="13.4715202"><ele>246.0</ele><time>2026-04-04T09:22:50.549Z</time></trkpt><trkpt lat="43.0451389" lon="13.4715318"><ele>246.33333333333331</ele><time>2026-04-04T09:22:51.548Z</time></trkpt><trkpt lat="43.044952" lon="13.4715154"><ele>246.66666666666666</ele><time>2026-04-04T09:22:52.548Z</time></trkpt><trkpt lat="43.0447713" lon="13.4714784"><ele>247.0</ele><time>2026-04-04T09:22:53.548Z</time></trkpt><trkpt lat="43.0445925" lon="13.4714398"><ele>247.0</ele><time>2026-04-04T09:22:54.549Z</time></trkpt><trkpt lat="43.0444215" lon="13.4713957"><ele>247.0</ele><time>2026-04-04T09:22:55.548Z</time></trkpt><trkpt lat="43.0442417" lon="13.4713456"><ele>247.0</ele><time>2026-04-04T09:22:56.549Z</time></trkpt><trkpt lat="43.0440643" lon="13.4712997"><ele>246.66666666666666</ele><time>2026-04-04T09:22:57.548Z</time></trkpt><trkpt lat="43.0438788" lon="13.4712509"><ele>246.33333333333331</ele><time>2026-04-04T09:22:58.549Z</time></trkpt><trkpt lat="43.0436924" lon="13.4712053"><ele>246.0</ele><time>2026-04-04T09:22:59.548Z</time></trkpt><trkpt lat="43.0435107" lon="13.4711662"><ele>246.0</ele><time>2026-04-04T09:23:00.548Z</time></trkpt><trkpt lat="43.0433292" lon="13.4711244"><ele>246.0</ele><time>2026-04-04T09:23:01.549Z</time></trkpt><trkpt lat="43.0431516" lon="13.4710666"><ele>246.0</ele><time>2026-04-04T09:23:02.549Z</time></trkpt><trkpt lat="43.0429855" lon="13.4709637"><ele>247.33333333333331</ele><time>2026-04-04T09:23:03.548Z</time></trkpt><trkpt lat="43.0428295" lon="13.4708284"><ele>248.66666666666666</ele><time>2026-04-04T09:23:04.548Z</time></trkpt><trkpt lat="43.0426845" lon="13.4706652"><ele>250.0</ele><time>2026-04-04T09:23:05.549Z</time></trkpt><trkpt lat="43.0425567" lon="13.4704648"><ele>251.33333333333331</ele><time>2026-04-04T09:23:06.548Z</time></trkpt><trkpt lat="43.0424373" lon="13.4702655"><ele>252.66666666666669</ele><time>2026-04-04T09:23:07.548Z</time></trkpt><trkpt lat="43.0423122" lon="13.4700742"><ele>254.0</ele><time>2026-04-04T09:23:08.549Z</time></trkpt><trkpt lat="43.0421875" lon="13.4698839"><ele>254.0</ele><time>2026-04-04T09:23:09.549Z</time></trkpt><trkpt lat="43.042059" lon="13.4696944"><ele>254.0</ele><time>2026-04-04T09:23:10.548Z</time></trkpt><trkpt lat="43.0419292" lon="13.4695055"><ele>254.0</ele><time>2026-04-04T09:23:11.548Z</time></trkpt><trkpt lat="43.0417981" lon="13.4693167"><ele>254.66666666666669</ele><time>2026-04-04T09:23:12.548Z</time></trkpt><trkpt lat="43.0416738" lon="13.4691147"><ele>255.33333333333331</ele><time>2026-04-04T09:23:13.549Z</time></trkpt><trkpt lat="43.0415436" lon="13.4689244"><ele>256.0</ele><time>2026-04-04T09:23:14.548Z</time></trkpt><trkpt lat="43.0414208" lon="13.4687307"><ele>256.0</ele><time>2026-04-04T09:23:15.549Z</time></trkpt><trkpt lat="43.0413003" lon="13.4685359"><ele>256.0</ele><time>2026-04-04T09:23:16.548Z</time></trkpt><trkpt lat="43.0411782" lon="13.4683444"><ele>256.0</ele><time>2026-04-04T09:23:17.548Z</time></trkpt><trkpt lat="43.0410617" lon="13.4681453"><ele>256.0</ele><time>2026-04-04T09:23:18.548Z</time></trkpt><trkpt lat="43.0409425" lon="13.4679633"><ele>256.0</ele><time>2026-04-04T09:23:19.549Z</time></trkpt><trkpt lat="43.0408068" lon="13.4678118"><ele>256.0</ele><time>2026-04-04T09:23:20.549Z</time></trkpt><trkpt lat="43.0406617" lon="13.4676949"><ele>255.66666666666666</ele><time>2026-04-04T09:23:21.549Z</time></trkpt><trkpt lat="43.0404997" lon="13.4676193"><ele>255.33333333333331</ele><time>2026-04-04T09:23:22.548Z</time></trkpt><trkpt lat="43.0403295" lon="13.4675626"><ele>255.0</ele><time>2026-04-04T09:23:23.548Z</time></trkpt><trkpt lat="43.0401617" lon="13.4675215"><ele>255.0</ele><time>2026-04-04T09:23:24.549Z</time></trkpt><trkpt lat="43.0399952" lon="13.4674745"><ele>255.0</ele><time>2026-04-04T09:23:25.549Z</time></trkpt><trkpt lat="43.039827" lon="13.4674165"><ele>255.0</ele><time>2026-04-04T09:23:26.549Z</time></trkpt><trkpt lat="43.0396522" lon="13.4673556"><ele>256.3333333333333</ele><time>2026-04-04T09:23:27.549Z</time></trkpt><trkpt lat="43.0394745" lon="13.4672986"><ele>257.66666666666663</ele><time>2026-04-04T09:23:28.549Z</time></trkpt><trkpt lat="43.0393003" lon="13.4672473"><ele>259.0</ele><time>2026-04-04T09:23:29.548Z</time></trkpt><trkpt lat="43.0391199" lon="13.4671881"><ele>259.0</ele><time>2026-04-04T09:23:30.549Z</time></trkpt><trkpt lat="43.0389402" lon="13.4671236"><ele>259.0</ele><time>2026-04-04T09:23:31.548Z</time></trkpt><trkpt lat="43.0387513" lon="13.4670373"><ele>259.0</ele><time>2026-04-04T09:23:32.548Z</time></trkpt><trkpt lat="43.0385671" lon="13.4669537"><ele>259.0</ele><time>2026-04-04T09:23:33.548Z</time></trkpt><trkpt lat="43.0383896" lon="13.4668698"><ele>259.0</ele><time>2026-04-04T09:23:34.548Z</time></trkpt><trkpt lat="43.0382152" lon="13.4667823"><ele>259.0</ele><time>2026-04-04T09:23:35.549Z</time></trkpt><trkpt lat="43.0380365" lon="13.4666973"><ele>261.3333333333333</ele><time>2026-04-04T09:23:36.548Z</time></trkpt><trkpt lat="43.0378566" lon="13.4666305"><ele>263.6666666666667</ele><time>2026-04-04T09:23:37.549Z</time></trkpt><trkpt lat="43.0376779" lon="13.466567"><ele>266.0</ele><time>2026-04-04T09:23:38.548Z</time></trkpt><trkpt lat="43.0375011" lon="13.4665001"><ele>265.33333333333337</ele><time>2026-04-04T09:23:39.548Z</time></trkpt><trkpt lat="43.0373223" lon="13.4664584"><ele>264.6666666666667</ele><time>2026-04-04T09:23:40.549Z</time></trkpt><trkpt lat="43.0371489" lon="13.4664512"><ele>264.0</ele><time>2026-04-04T09:23:41.549Z</time></trkpt><trkpt lat="43.0369809" lon="13.4664672"><ele>264.0</ele><time>2026-04-04T09:23:42.549Z</time></trkpt><trkpt lat="43.036815" lon="13.4665204"><ele>264.0</ele><time>2026-04-04T09:23:43.548Z</time></trkpt><trkpt lat="43.0366552" lon="13.4665793"><ele>264.0</ele><time>2026-04-04T09:23:44.549Z</time></trkpt><trkpt lat="43.0364922" lon="13.4666415"><ele>263.3333333333333</ele><time>2026-04-04T09:23:45.549Z</time></trkpt><trkpt lat="43.0363196" lon="13.4666913"><ele>262.66666666666663</ele><time>2026-04-04T09:23:46.549Z</time></trkpt><trkpt lat="43.0361452" lon="13.4667319"><ele>262.0</ele><time>2026-04-04T09:23:47.548Z</time></trkpt><trkpt lat="43.0359802" lon="13.4667647"><ele>262.0</ele><time>2026-04-04T09:23:48.548Z</time></trkpt><trkpt lat="43.0358189" lon="13.466798"><ele>262.0</ele><time>2026-04-04T09:23:49.548Z</time></trkpt><trkpt lat="43.03565" lon="13.4667953"><ele>262.0</ele><time>2026-04-04T09:23:50.548Z</time></trkpt><trkpt lat="43.0354819" lon="13.4667571"><ele>263.66666666666663</ele><time>2026-04-04T09:23:51.548Z</time></trkpt><trkpt lat="43.0353068" lon="13.4667184"><ele>265.3333333333333</ele><time>2026-04-04T09:23:52.549Z</time></trkpt><trkpt lat="43.0351297" lon="13.4666752"><ele>267.0</ele><time>2026-04-04T09:23:53.549Z</time></trkpt><trkpt lat="43.0349496" lon="13.4666364"><ele>268.0</ele><time>2026-04-04T09:23:54.549Z</time></trkpt><trkpt lat="43.0347688" lon="13.4665984"><ele>269.0</ele><time>2026-04-04T09:23:55.549Z</time></trkpt><trkpt lat="43.0345906" lon="13.4665668"><ele>270.0</ele><time>2026-04-04T09:23:56.548Z</time></trkpt><trkpt lat="43.0344073" lon="13.4665261"><ele>270.0</ele><time>2026-04-04T09:23:57.549Z</time></trkpt><trkpt lat="43.0342213" lon="13.4664832"><ele>270.0</ele><time>2026-04-04T09:23:58.548Z</time></trkpt><trkpt lat="43.0340345" lon="13.4664423"><ele>270.0</ele><time>2026-04-04T09:23:59.549Z</time></trkpt><trkpt lat="43.0338487" lon="13.4664015"><ele>269.6666666666667</ele><time>2026-04-04T09:24:00.549Z</time></trkpt><trkpt lat="43.0336662" lon="13.4663819"><ele>269.33333333333337</ele><time>2026-04-04T09:24:01.548Z</time></trkpt><trkpt lat="43.0334859" lon="13.4663842"><ele>269.0</ele><time>2026-04-04T09:24:02.549Z</time></trkpt><trkpt lat="43.0333099" lon="13.4664307"><ele>270.0</ele><time>2026-04-04T09:24:03.549Z</time></trkpt><trkpt lat="43.0331415" lon="13.4665017"><ele>271.0</ele><time>2026-04-04T09:24:04.549Z</time></trkpt><trkpt lat="43.0329676" lon="13.4665594"><ele>272.0</ele><time>2026-04-04T09:24:05.549Z</time></trkpt><trkpt lat="43.0327904" lon="13.4665936"><ele>272.0</ele><time>2026-04-04T09:24:06.549Z</time></trkpt><trkpt lat="43.0326149" lon="13.4666028"><ele>272.0</ele><time>2026-04-04T09:24:07.549Z</time></trkpt><trkpt lat="43.0324412" lon="13.4665729"><ele>272.0</ele><time>2026-04-04T09:24:08.548Z</time></trkpt><trkpt lat="43.0322708" lon="13.4664999"><ele>274.6666666666667</ele><time>2026-04-04T09:24:09.548Z</time></trkpt><trkpt lat="43.0321163" lon="13.4664148"><ele>277.3333333333333</ele><time>2026-04-04T09:24:10.548Z</time></trkpt><trkpt lat="43.0319525" lon="13.4663213"><ele>280.0</ele><time>2026-04-04T09:24:11.549Z</time></trkpt><trkpt lat="43.0317945" lon="13.4662228"><ele>276.0</ele><time>2026-04-04T09:24:12.549Z</time></trkpt><trkpt lat="43.0316243" lon="13.4661312"><ele>272.0</ele><time>2026-04-04T09:24:13.549Z</time></trkpt><trkpt lat="43.0314566" lon="13.4660562"><ele>268.0</ele><time>2026-04-04T09:24:14.548Z</time></trkpt><trkpt lat="43.0312967" lon="13.4659988"><ele>268.0</ele><time>2026-04-04T09:24:15.549Z</time></trkpt><trkpt lat="43.0311393" lon="13.4659569"><ele>268.0</ele><time>2026-04-04T09:24:16.549Z</time></trkpt><trkpt lat="43.0309935" lon="13.4659016"><ele>268.0</ele><time>2026-04-04T09:24:17.548Z</time></trkpt><trkpt lat="43.0308437" lon="13.4658554"><ele>273.66666666666663</ele><time>2026-04-04T09:24:18.549Z</time></trkpt><trkpt lat="43.0306883" lon="13.4657988"><ele>279.3333333333333</ele><time>2026-04-04T09:24:19.548Z</time></trkpt><trkpt lat="43.0305366" lon="13.4657117"><ele>285.0</ele><time>2026-04-04T09:24:20.549Z</time></trkpt><trkpt lat="43.0303942" lon="13.465588"><ele>279.3333333333333</ele><time>2026-04-04T09:24:21.548Z</time></trkpt><trkpt lat="43.0302677" lon="13.465427"><ele>273.66666666666663</ele><time>2026-04-04T09:24:22.548Z</time></trkpt><trkpt lat="43.0301494" lon="13.4652541"><ele>268.0</ele><time>2026-04-04T09:24:23.549Z</time></trkpt><trkpt lat="43.0300199" lon="13.465088"><ele>269.66666666666663</ele><time>2026-04-04T09:24:24.549Z</time></trkpt><trkpt lat="43.0298915" lon="13.4649358"><ele>271.3333333333333</ele><time>2026-04-04T09:24:25.549Z</time></trkpt><trkpt lat="43.0297689" lon="13.464793"><ele>273.0</ele><time>2026-04-04T09:24:26.548Z</time></trkpt><trkpt lat="43.0296433" lon="13.4646665"><ele>267.6666666666667</ele><time>2026-04-04T09:24:27.548Z</time></trkpt><trkpt lat="43.0295004" lon="13.4645794"><ele>262.33333333333337</ele><time>2026-04-04T09:24:28.549Z</time></trkpt><trkpt lat="43.0293517" lon="13.4645243"><ele>257.0</ele><time>2026-04-04T09:24:29.549Z</time></trkpt><trkpt lat="43.0291972" lon="13.4645128"><ele>257.0</ele><time>2026-04-04T09:24:30.549Z</time></trkpt><trkpt lat="43.0290418" lon="13.4645545"><ele>257.0</ele><time>2026-04-04T09:24:31.549Z</time></trkpt><trkpt lat="43.028897" lon="13.4646402"><ele>257.0</ele><time>2026-04-04T09:24:32.549Z</time></trkpt><trkpt lat="43.0287656" lon="13.464761"><ele>260.0</ele><time>2026-04-04T09:24:33.549Z</time></trkpt><trkpt lat="43.02864" lon="13.4648928"><ele>263.0</ele><time>2026-04-04T09:24:34.549Z</time></trkpt><trkpt lat="43.0285094" lon="13.465031"><ele>266.0</ele><time>2026-04-04T09:24:35.548Z</time></trkpt><trkpt lat="43.0283767" lon="13.465168"><ele>265.33333333333337</ele><time>2026-04-04T09:24:36.548Z</time></trkpt><trkpt lat="43.0282244" lon="13.4652622"><ele>264.6666666666667</ele><time>2026-04-04T09:24:37.548Z</time></trkpt><trkpt lat="43.0280785" lon="13.4653476"><ele>264.0</ele><time>2026-04-04T09:24:38.548Z</time></trkpt><trkpt lat="43.0279136" lon="13.4653917"><ele>264.0</ele><time>2026-04-04T09:24:39.548Z</time></trkpt><trkpt lat="43.0277351" lon="13.465384"><ele>264.0</ele><time>2026-04-04T09:24:40.548Z</time></trkpt><trkpt lat="43.0275637" lon="13.4653655"><ele>264.0</ele><time>2026-04-04T09:24:41.549Z</time></trkpt><trkpt lat="43.0273876" lon="13.4653257"><ele>264.3333333333333</ele><time>2026-04-04T09:24:42.549Z</time></trkpt><trkpt lat="43.0272029" lon="13.4652778"><ele>264.66666666666663</ele><time>2026-04-04T09:24:43.548Z</time></trkpt><trkpt lat="43.0270184" lon="13.4652225"><ele>265.0</ele><time>2026-04-04T09:24:44.549Z</time></trkpt><trkpt lat="43.0268417" lon="13.465171"><ele>265.0</ele><time>2026-04-04T09:24:45.548Z</time></trkpt><trkpt lat="43.026668" lon="13.4651016"><ele>265.0</ele><time>2026-04-04T09:24:46.548Z</time></trkpt><trkpt lat="43.0265053" lon="13.4650054"><ele>265.0</ele><time>2026-04-04T09:24:47.549Z</time></trkpt><trkpt lat="43.0263478" lon="13.4649067"><ele>268.3333333333333</ele><time>2026-04-04T09:24:48.548Z</time></trkpt><trkpt lat="43.0262006" lon="13.4647941"><ele>271.6666666666667</ele><time>2026-04-04T09:24:49.548Z</time></trkpt><trkpt lat="43.0260871" lon="13.4646578"><ele>275.0</ele><time>2026-04-04T09:24:50.548Z</time></trkpt><trkpt lat="43.0260064" lon="13.4644822"><ele>275.0</ele><time>2026-04-04T09:24:51.549Z</time></trkpt><trkpt lat="43.0259621" lon="13.4642653"><ele>275.0</ele><time>2026-04-04T09:24:52.548Z</time></trkpt><trkpt lat="43.0259149" lon="13.4640554"><ele>275.0</ele><time>2026-04-04T09:24:53.548Z</time></trkpt><trkpt lat="43.0258527" lon="13.4638535"><ele>278.6666666666667</ele><time>2026-04-04T09:24:54.548Z</time></trkpt><trkpt lat="43.0257677" lon="13.4636774"><ele>282.3333333333333</ele><time>2026-04-04T09:24:55.549Z</time></trkpt><trkpt lat="43.025664" lon="13.4635065"><ele>286.0</ele><time>2026-04-04T09:24:56.548Z</time></trkpt><trkpt lat="43.0255534" lon="13.4633449"><ele>286.0</ele><time>2026-04-04T09:24:57.549Z</time></trkpt><trkpt lat="43.025443" lon="13.463183"><ele>286.0</ele><time>2026-04-04T09:24:58.548Z</time></trkpt><trkpt lat="43.0253463" lon="13.4630236"><ele>286.0</ele><time>2026-04-04T09:24:59.549Z</time></trkpt><trkpt lat="43.025246" lon="13.4628794"><ele>285.75</ele><time>2026-04-04T09:25:00.548Z</time></trkpt><trkpt lat="43.02513" lon="13.4627737"><ele>285.5</ele><time>2026-04-04T09:25:01.548Z</time></trkpt><trkpt lat="43.0250027" lon="13.4627289"><ele>285.25</ele><time>2026-04-04T09:25:02.548Z</time></trkpt><trkpt lat="43.0248614" lon="13.4627283"><ele>285.0</ele><time>2026-04-04T09:25:03.548Z</time></trkpt><trkpt lat="43.0247169" lon="13.4627404"><ele>285.0</ele><time>2026-04-04T09:25:04.549Z</time></trkpt><trkpt lat="43.0245771" lon="13.4627454"><ele>285.0</ele><time>2026-04-04T09:25:05.548Z</time></trkpt><trkpt lat="43.0244491" lon="13.4627161"><ele>285.0</ele><time>2026-04-04T09:25:06.548Z</time></trkpt><trkpt lat="43.0243245" lon="13.4626414"><ele>285.0</ele><time>2026-04-04T09:25:07.549Z</time></trkpt><trkpt lat="43.0242187" lon="13.4625268"><ele>285.0</ele><time>2026-04-04T09:25:08.548Z</time></trkpt><trkpt lat="43.024163" lon="13.4623407"><ele>285.0</ele><time>2026-04-04T09:25:09.548Z</time></trkpt><trkpt lat="43.024074" lon="13.462204"><ele>285.0</ele><time>2026-04-04T09:25:10.549Z</time></trkpt><trkpt lat="43.0239998" lon="13.4620928"><ele>285.0</ele><time>2026-04-04T09:25:11.548Z</time></trkpt><trkpt lat="43.0239156" lon="13.4620425"><ele>284.2</ele><time>2026-04-04T09:25:12.549Z</time></trkpt><trkpt lat="43.0238122" lon="13.4620361"><ele>283.4</ele><time>2026-04-04T09:25:13.549Z</time></trkpt><trkpt lat="43.0237122" lon="13.4620429"><ele>282.6</ele><time>2026-04-04T09:25:14.549Z</time></trkpt><trkpt lat="43.0236197" lon="13.46204"><ele>281.8</ele><time>2026-04-04T09:25:15.549Z</time></trkpt><trkpt lat="43.0235335" lon="13.461995"><ele>281.0</ele><time>2026-04-04T09:25:16.549Z</time></trkpt><trkpt lat="43.0234691" lon="13.4619252"><ele>281.0</ele><time>2026-04-04T09:25:17.548Z</time></trkpt><trkpt lat="43.0234173" lon="13.4618312"><ele>281.0</ele><time>2026-04-04T09:25:18.548Z</time></trkpt><trkpt lat="43.0233994" lon="13.461713"><ele>281.0</ele><time>2026-04-04T09:25:19.549Z</time></trkpt><trkpt lat="43.0233988" lon="13.4615836"><ele>281.0</ele><time>2026-04-04T09:25:20.549Z</time></trkpt><trkpt lat="43.0234186" lon="13.4614568"><ele>281.0</ele><time>2026-04-04T09:25:21.549Z</time></trkpt><trkpt lat="43.0234538" lon="13.4613508"><ele>281.0</ele><time>2026-04-04T09:25:22.549Z</time></trkpt><trkpt lat="43.0235433" lon="13.4612685"><ele>286.33333333333337</ele><time>2026-04-04T09:25:23.549Z</time></trkpt><trkpt lat="43.023664" lon="13.4611982"><ele>291.6666666666667</ele><time>2026-04-04T09:25:24.548Z</time></trkpt><trkpt lat="43.0238129" lon="13.4611425"><ele>297.0</ele><time>2026-04-04T09:25:25.549Z</time></trkpt><trkpt lat="43.0239838" lon="13.461113"><ele>295.6666666666667</ele><time>2026-04-04T09:25:26.548Z</time></trkpt><trkpt lat="43.0241518" lon="13.4611077"><ele>294.33333333333337</ele><time>2026-04-04T09:25:27.549Z</time></trkpt><trkpt lat="43.0243111" lon="13.4611398"><ele>293.0</ele><time>2026-04-04T09:25:28.549Z</time></trkpt><trkpt lat="43.0244624" lon="13.4611855"><ele>293.0</ele><time>2026-04-04T09:25:29.549Z</time></trkpt><trkpt lat="43.0245969" lon="13.4612467"><ele>293.0</ele><time>2026-04-04T09:25:30.548Z</time></trkpt><trkpt lat="43.0247287" lon="13.4612578"><ele>293.0</ele><time>2026-04-04T09:25:31.549Z</time></trkpt><trkpt lat="43.0248652" lon="13.4612171"><ele>293.0</ele><time>2026-04-04T09:25:32.548Z</time></trkpt><trkpt lat="43.0249904" lon="13.4611402"><ele>292.75</ele><time>2026-04-04T09:25:33.549Z</time></trkpt><trkpt lat="43.0251068" lon="13.4610322"><ele>292.5</ele><time>2026-04-04T09:25:34.548Z</time></trkpt><trkpt lat="43.0252223" lon="13.4609173"><ele>292.25</ele><time>2026-04-04T09:25:35.548Z</time></trkpt><trkpt lat="43.025346" lon="13.4608051"><ele>292.0</ele><time>2026-04-04T09:25:36.549Z</time></trkpt><trkpt lat="43.0254722" lon="13.4606901"><ele>292.0</ele><time>2026-04-04T09:25:37.548Z</time></trkpt><trkpt lat="43.0255637" lon="13.46058"><ele>292.0</ele><time>2026-04-04T09:25:38.549Z</time></trkpt><trkpt lat="43.0256282" lon="13.4604514"><ele>292.0</ele><time>2026-04-04T09:25:39.548Z</time></trkpt><trkpt lat="43.0256522" lon="13.4603006"><ele>292.0</ele><time>2026-04-04T09:25:40.548Z</time></trkpt><trkpt lat="43.0256513" lon="13.4601502"><ele>291.5</ele><time>2026-04-04T09:25:41.549Z</time></trkpt><trkpt lat="43.0256025" lon="13.4599784"><ele>291.0</ele><time>2026-04-04T09:25:42.548Z</time></trkpt><trkpt lat="43.0255195" lon="13.4598049"><ele>290.5</ele><time>2026-04-04T09:25:43.548Z</time></trkpt><trkpt lat="43.0254275" lon="13.4596339"><ele>290.0</ele><time>2026-04-04T09:25:44.548Z</time></trkpt><trkpt lat="43.0253336" lon="13.4594679"><ele>290.0</ele><time>2026-04-04T09:25:45.548Z</time></trkpt><trkpt lat="43.0252365" lon="13.4593147"><ele>290.0</ele><time>2026-04-04T09:25:46.549Z</time></trkpt><trkpt lat="43.025128" lon="13.4591877"><ele>290.0</ele><time>2026-04-04T09:25:47.549Z</time></trkpt><trkpt lat="43.0250174" lon="13.4591084"><ele>290.0</ele><time>2026-04-04T09:25:48.548Z</time></trkpt><trkpt lat="43.0249023" lon="13.4590747"><ele>292.75</ele><time>2026-04-04T09:25:49.548Z</time></trkpt><trkpt lat="43.0247799" lon="13.4590876"><ele>295.5</ele><time>2026-04-04T09:25:50.549Z</time></trkpt><trkpt lat="43.0246498" lon="13.4591056"><ele>298.25</ele><time>2026-04-04T09:25:51.548Z</time></trkpt><trkpt lat="43.0245232" lon="13.4590997"><ele>301.0</ele><time>2026-04-04T09:25:52.548Z</time></trkpt><trkpt lat="43.024418" lon="13.4590414"><ele>301.0</ele><time>2026-04-04T09:25:53.549Z</time></trkpt><trkpt lat="43.0243475" lon="13.4589118"><ele>301.0</ele><time>2026-04-04T09:25:54.549Z</time></trkpt><trkpt lat="43.0243064" lon="13.4587458"><ele>301.0</ele><time>2026-04-04T09:25:55.549Z</time></trkpt><trkpt lat="43.0242924" lon="13.4585497"><ele>301.0</ele><time>2026-04-04T09:25:56.549Z</time></trkpt><trkpt lat="43.0242981" lon="13.4583517"><ele>300.25</ele><time>2026-04-04T09:25:57.548Z</time></trkpt><trkpt lat="43.0243335" lon="13.4581527"><ele>299.5</ele><time>2026-04-04T09:25:58.548Z</time></trkpt><trkpt lat="43.0243724" lon="13.4579654"><ele>298.75</ele><time>2026-04-04T09:25:59.549Z</time></trkpt><trkpt lat="43.0243927" lon="13.4577961"><ele>298.0</ele><time>2026-04-04T09:26:00.549Z</time></trkpt><trkpt lat="43.0243867" lon="13.4576365"><ele>297.8</ele><time>2026-04-04T09:26:01.548Z</time></trkpt><trkpt lat="43.0243301" lon="13.4575139"><ele>297.6</ele><time>2026-04-04T09:26:02.548Z</time></trkpt><trkpt lat="43.0242465" lon="13.4574156"><ele>297.4</ele><time>2026-04-04T09:26:03.549Z</time></trkpt><trkpt lat="43.0241452" lon="13.4573483"><ele>297.2</ele><time>2026-04-04T09:26:04.548Z</time></trkpt><trkpt lat="43.024027" lon="13.4573322"><ele>297.0</ele><time>2026-04-04T09:26:05.548Z</time></trkpt><trkpt lat="43.0239037" lon="13.4573481"><ele>297.0</ele><time>2026-04-04T09:26:06.549Z</time></trkpt><trkpt lat="43.023778" lon="13.457389"><ele>297.0</ele><time>2026-04-04T09:26:07.549Z</time></trkpt><trkpt lat="43.0236505" lon="13.4574336"><ele>297.0</ele><time>2026-04-04T09:26:08.549Z</time></trkpt><trkpt lat="43.023528" lon="13.4574566"><ele>297.0</ele><time>2026-04-04T09:26:09.549Z</time></trkpt><trkpt lat="43.0234099" lon="13.4574375"><ele>297.0</ele><time>2026-04-04T09:26:10.548Z</time></trkpt><trkpt lat="43.0232911" lon="13.4573759"><ele>297.0</ele><time>2026-04-04T09:26:11.548Z</time></trkpt><trkpt lat="43.0231665" lon="13.4572882"><ele>297.0</ele><time>2026-04-04T09:26:12.548Z</time></trkpt><trkpt lat="43.0230353" lon="13.4571914"><ele>297.0</ele><time>2026-04-04T09:26:13.548Z</time></trkpt><trkpt lat="43.0229052" lon="13.4570845"><ele>297.0</ele><time>2026-04-04T09:26:14.547Z</time></trkpt><trkpt lat="43.0227867" lon="13.4569521"><ele>297.0</ele><time>2026-04-04T09:26:15.548Z</time></trkpt><trkpt lat="43.0226877" lon="13.4567924"><ele>297.0</ele><time>2026-04-04T09:26:16.548Z</time></trkpt><trkpt lat="43.0226163" lon="13.4566163"><ele>297.0</ele><time>2026-04-04T09:26:17.548Z</time></trkpt><trkpt lat="43.0225421" lon="13.4564222"><ele>297.0</ele><time>2026-04-04T09:26:18.548Z</time></trkpt><trkpt lat="43.022466" lon="13.4562231"><ele>297.0</ele><time>2026-04-04T09:26:19.547Z</time></trkpt><trkpt lat="43.0223922" lon="13.456027"><ele>303.6666666666667</ele><time>2026-04-04T09:26:20.548Z</time></trkpt><trkpt lat="43.0223199" lon="13.4558094"><ele>310.33333333333337</ele><time>2026-04-04T09:26:21.548Z</time></trkpt><trkpt lat="43.022232" lon="13.4555914"><ele>317.0</ele><time>2026-04-04T09:26:22.548Z</time></trkpt><trkpt lat="43.0221571" lon="13.4553732"><ele>317.0</ele><time>2026-04-04T09:26:23.548Z</time></trkpt><trkpt lat="43.0220929" lon="13.4551522"><ele>317.0</ele><time>2026-04-04T09:26:24.547Z</time></trkpt><trkpt lat="43.0220262" lon="13.4549406"><ele>317.0</ele><time>2026-04-04T09:26:25.548Z</time></trkpt><trkpt lat="43.0219614" lon="13.4547418"><ele>312.6666666666667</ele><time>2026-04-04T09:26:26.547Z</time></trkpt><trkpt lat="43.0219103" lon="13.4545393"><ele>308.3333333333333</ele><time>2026-04-04T09:26:27.547Z</time></trkpt><trkpt lat="43.0218577" lon="13.4543309"><ele>304.0</ele><time>2026-04-04T09:26:28.547Z</time></trkpt><trkpt lat="43.0218063" lon="13.4541132"><ele>304.0</ele><time>2026-04-04T09:26:29.548Z</time></trkpt><trkpt lat="43.0217778" lon="13.4538857"><ele>304.0</ele><time>2026-04-04T09:26:30.547Z</time></trkpt><trkpt lat="43.0217632" lon="13.45365"><ele>304.0</ele><time>2026-04-04T09:26:31.548Z</time></trkpt><trkpt lat="43.0217646" lon="13.453403"><ele>305.0</ele><time>2026-04-04T09:26:32.548Z</time></trkpt><trkpt lat="43.0217716" lon="13.453163"><ele>306.0</ele><time>2026-04-04T09:26:33.548Z</time></trkpt><trkpt lat="43.0217797" lon="13.4529204"><ele>307.0</ele><time>2026-04-04T09:26:34.548Z</time></trkpt><trkpt lat="43.0217876" lon="13.4526919"><ele>307.0</ele><time>2026-04-04T09:26:35.548Z</time></trkpt><trkpt lat="43.0217839" lon="13.4524721"><ele>307.0</ele><time>2026-04-04T09:26:36.548Z</time></trkpt><trkpt lat="43.0217768" lon="13.452254"><ele>307.0</ele><time>2026-04-04T09:26:37.547Z</time></trkpt><trkpt lat="43.0217701" lon="13.4520429"><ele>307.66666666666663</ele><time>2026-04-04T09:26:38.547Z</time></trkpt><trkpt lat="43.0217679" lon="13.4518332"><ele>308.3333333333333</ele><time>2026-04-04T09:26:39.547Z</time></trkpt><trkpt lat="43.021763" lon="13.4516135"><ele>309.0</ele><time>2026-04-04T09:26:40.548Z</time></trkpt><trkpt lat="43.0217958" lon="13.4514086"><ele>310.5</ele><time>2026-04-04T09:26:41.547Z</time></trkpt><trkpt lat="43.0218354" lon="13.4512183"><ele>312.0</ele><time>2026-04-04T09:26:42.547Z</time></trkpt><trkpt lat="43.0218957" lon="13.4510431"><ele>313.5</ele><time>2026-04-04T09:26:43.547Z</time></trkpt><trkpt lat="43.0219881" lon="13.4508783"><ele>315.0</ele><time>2026-04-04T09:26:44.548Z</time></trkpt><trkpt lat="43.0220958" lon="13.4506999"><ele>315.0</ele><time>2026-04-04T09:26:45.548Z</time></trkpt><trkpt lat="43.022216" lon="13.4505333"><ele>315.0</ele><time>2026-04-04T09:26:46.547Z</time></trkpt><trkpt lat="43.0223433" lon="13.4503745"><ele>315.0</ele><time>2026-04-04T09:26:47.547Z</time></trkpt><trkpt lat="43.0224531" lon="13.4502032"><ele>311.3333333333333</ele><time>2026-04-04T09:26:48.548Z</time></trkpt><trkpt lat="43.0225596" lon="13.4500324"><ele>307.66666666666663</ele><time>2026-04-04T09:26:49.548Z</time></trkpt><trkpt lat="43.0226643" lon="13.4498514"><ele>304.0</ele><time>2026-04-04T09:26:50.548Z</time></trkpt><trkpt lat="43.0227541" lon="13.4496543"><ele>308.0</ele><time>2026-04-04T09:26:51.547Z</time></trkpt><trkpt lat="43.0228388" lon="13.4494508"><ele>312.0</ele><time>2026-04-04T09:26:52.547Z</time></trkpt><trkpt lat="43.0229245" lon="13.4492467"><ele>316.0</ele><time>2026-04-04T09:26:53.548Z</time></trkpt><trkpt lat="43.02301" lon="13.4490491"><ele>316.0</ele><time>2026-04-04T09:26:54.547Z</time></trkpt><trkpt lat="43.0230955" lon="13.448854"><ele>316.0</ele><time>2026-04-04T09:26:55.547Z</time></trkpt><trkpt lat="43.0231902" lon="13.4486705"><ele>316.0</ele><time>2026-04-04T09:26:56.547Z</time></trkpt><trkpt lat="43.0232688" lon="13.4484696"><ele>312.66666666666663</ele><time>2026-04-04T09:26:57.547Z</time></trkpt><trkpt lat="43.0233282" lon="13.4482546"><ele>309.3333333333333</ele><time>2026-04-04T09:26:58.547Z</time></trkpt><trkpt lat="43.0233499" lon="13.4480296"><ele>306.0</ele><time>2026-04-04T09:26:59.548Z</time></trkpt><trkpt lat="43.0233361" lon="13.4478137"><ele>311.3333333333333</ele><time>2026-04-04T09:27:00.547Z</time></trkpt><trkpt lat="43.0233085" lon="13.4476013"><ele>316.66666666666663</ele><time>2026-04-04T09:27:01.548Z</time></trkpt><trkpt lat="43.0232499" lon="13.4473923"><ele>322.0</ele><time>2026-04-04T09:27:02.547Z</time></trkpt><trkpt lat="43.0231631" lon="13.4471908"><ele>322.3333333333333</ele><time>2026-04-04T09:27:03.547Z</time></trkpt><trkpt lat="43.0230692" lon="13.4469944"><ele>322.6666666666667</ele><time>2026-04-04T09:27:04.548Z</time></trkpt><trkpt lat="43.0230068" lon="13.4467485"><ele>323.0</ele><time>2026-04-04T09:27:05.547Z</time></trkpt><trkpt lat="43.0229504" lon="13.4465277"><ele>323.0</ele><time>2026-04-04T09:27:06.547Z</time></trkpt><trkpt lat="43.0228886" lon="13.4463062"><ele>323.0</ele><time>2026-04-04T09:27:07.547Z</time></trkpt><trkpt lat="43.0228178" lon="13.4460908"><ele>323.0</ele><time>2026-04-04T09:27:08.547Z</time></trkpt><trkpt lat="43.022748" lon="13.4458711"><ele>323.33333333333337</ele><time>2026-04-04T09:27:09.548Z</time></trkpt><trkpt lat="43.022715" lon="13.4456413"><ele>323.6666666666667</ele><time>2026-04-04T09:27:10.547Z</time></trkpt><trkpt lat="43.0227215" lon="13.4454051"><ele>324.0</ele><time>2026-04-04T09:27:11.548Z</time></trkpt><trkpt lat="43.0227283" lon="13.4451743"><ele>323.3333333333333</ele><time>2026-04-04T09:27:12.547Z</time></trkpt><trkpt lat="43.0227855" lon="13.4449219"><ele>322.66666666666663</ele><time>2026-04-04T09:27:13.548Z</time></trkpt><trkpt lat="43.0228311" lon="13.4447014"><ele>322.0</ele><time>2026-04-04T09:27:14.548Z</time></trkpt><trkpt lat="43.0228549" lon="13.4444772"><ele>322.0</ele><time>2026-04-04T09:27:15.547Z</time></trkpt><trkpt lat="43.0228614" lon="13.4442455"><ele>322.0</ele><time>2026-04-04T09:27:16.547Z</time></trkpt><trkpt lat="43.0228813" lon="13.4440165"><ele>322.0</ele><time>2026-04-04T09:27:17.548Z</time></trkpt><trkpt lat="43.0229005" lon="13.4437905"><ele>320.66666666666663</ele><time>2026-04-04T09:27:18.548Z</time></trkpt><trkpt lat="43.0229123" lon="13.4435615"><ele>319.3333333333333</ele><time>2026-04-04T09:27:19.547Z</time></trkpt><trkpt lat="43.0229395" lon="13.4433063"><ele>318.0</ele><time>2026-04-04T09:27:20.548Z</time></trkpt><trkpt lat="43.0229644" lon="13.4430669"><ele>319.3333333333333</ele><time>2026-04-04T09:27:21.547Z</time></trkpt><trkpt lat="43.0229884" lon="13.4428211"><ele>320.66666666666663</ele><time>2026-04-04T09:27:22.548Z</time></trkpt><trkpt lat="43.0230255" lon="13.4425984"><ele>322.0</ele><time>2026-04-04T09:27:23.548Z</time></trkpt><trkpt lat="43.0230528" lon="13.4423638"><ele>322.0</ele><time>2026-04-04T09:27:24.547Z</time></trkpt><trkpt lat="43.0230627" lon="13.4421361"><ele>322.0</ele><time>2026-04-04T09:27:25.547Z</time></trkpt><trkpt lat="43.0230708" lon="13.441905"><ele>322.0</ele><time>2026-04-04T09:27:26.548Z</time></trkpt><trkpt lat="43.0230696" lon="13.4416679"><ele>320.3333333333333</ele><time>2026-04-04T09:27:27.548Z</time></trkpt><trkpt lat="43.0230563" lon="13.4414312"><ele>318.6666666666667</ele><time>2026-04-04T09:27:28.548Z</time></trkpt><trkpt lat="43.0230228" lon="13.4412"><ele>317.0</ele><time>2026-04-04T09:27:29.548Z</time></trkpt><trkpt lat="43.0229677" lon="13.4409903"><ele>317.0</ele><time>2026-04-04T09:27:30.547Z</time></trkpt><trkpt lat="43.0228933" lon="13.4407961"><ele>317.0</ele><time>2026-04-04T09:27:31.547Z</time></trkpt><trkpt lat="43.0227995" lon="13.4406059"><ele>317.0</ele><time>2026-04-04T09:27:32.547Z</time></trkpt><trkpt lat="43.022703" lon="13.440417"><ele>313.6666666666667</ele><time>2026-04-04T09:27:33.548Z</time></trkpt><trkpt lat="43.0226068" lon="13.4402255"><ele>310.3333333333333</ele><time>2026-04-04T09:27:34.547Z</time></trkpt><trkpt lat="43.0225098" lon="13.4400364"><ele>307.0</ele><time>2026-04-04T09:27:35.547Z</time></trkpt><trkpt lat="43.0224126" lon="13.4398476"><ele>310.3333333333333</ele><time>2026-04-04T09:27:36.547Z</time></trkpt><trkpt lat="43.0223165" lon="13.4396579"><ele>313.6666666666667</ele><time>2026-04-04T09:27:37.547Z</time></trkpt><trkpt lat="43.0222146" lon="13.4394696"><ele>317.0</ele><time>2026-04-04T09:27:38.548Z</time></trkpt><trkpt lat="43.0221017" lon="13.4392925"><ele>317.0</ele><time>2026-04-04T09:27:39.548Z</time></trkpt><trkpt lat="43.0220079" lon="13.4391072"><ele>317.0</ele><time>2026-04-04T09:27:40.547Z</time></trkpt><trkpt lat="43.0219328" lon="13.4389201"><ele>317.0</ele><time>2026-04-04T09:27:41.548Z</time></trkpt><trkpt lat="43.021887" lon="13.4387228"><ele>317.33333333333337</ele><time>2026-04-04T09:27:42.548Z</time></trkpt><trkpt lat="43.0218782" lon="13.4385013"><ele>317.6666666666667</ele><time>2026-04-04T09:27:43.548Z</time></trkpt><trkpt lat="43.0218852" lon="13.4382689"><ele>318.0</ele><time>2026-04-04T09:27:44.548Z</time></trkpt><trkpt lat="43.0218924" lon="13.4380283"><ele>318.3333333333333</ele><time>2026-04-04T09:27:45.548Z</time></trkpt><trkpt lat="43.0218929" lon="13.4377873"><ele>318.66666666666663</ele><time>2026-04-04T09:27:46.547Z</time></trkpt><trkpt lat="43.0218808" lon="13.4375508"><ele>319.0</ele><time>2026-04-04T09:27:47.548Z</time></trkpt><trkpt lat="43.021855" lon="13.4373101"><ele>317.0</ele><time>2026-04-04T09:27:48.548Z</time></trkpt><trkpt lat="43.0218207" lon="13.4370647"><ele>315.0</ele><time>2026-04-04T09:27:49.548Z</time></trkpt><trkpt lat="43.0217838" lon="13.4368241"><ele>313.0</ele><time>2026-04-04T09:27:50.548Z</time></trkpt><trkpt lat="43.0217466" lon="13.4365774"><ele>313.0</ele><time>2026-04-04T09:27:51.548Z</time></trkpt><trkpt lat="43.0217118" lon="13.4363319"><ele>313.0</ele><time>2026-04-04T09:27:52.547Z</time></trkpt><trkpt lat="43.0216974" lon="13.4360914"><ele>313.0</ele><time>2026-04-04T09:27:53.547Z</time></trkpt><trkpt lat="43.0216639" lon="13.4358626"><ele>316.0</ele><time>2026-04-04T09:27:54.547Z</time></trkpt><trkpt lat="43.0216144" lon="13.4356263"><ele>319.0</ele><time>2026-04-04T09:27:55.548Z</time></trkpt><trkpt lat="43.0215773" lon="13.4353863"><ele>322.0</ele><time>2026-04-04T09:27:56.548Z</time></trkpt><trkpt lat="43.0215486" lon="13.4351522"><ele>322.3333333333333</ele><time>2026-04-04T09:27:57.548Z</time></trkpt><trkpt lat="43.021558" lon="13.4349123"><ele>322.6666666666667</ele><time>2026-04-04T09:27:58.548Z</time></trkpt><trkpt lat="43.0215724" lon="13.4346734"><ele>323.0</ele><time>2026-04-04T09:27:59.547Z</time></trkpt><trkpt lat="43.0215821" lon="13.4344361"><ele>325.33333333333337</ele><time>2026-04-04T09:28:00.548Z</time></trkpt><trkpt lat="43.0215908" lon="13.4341943"><ele>327.6666666666667</ele><time>2026-04-04T09:28:01.547Z</time></trkpt><trkpt lat="43.0216043" lon="13.4339497"><ele>330.0</ele><time>2026-04-04T09:28:02.547Z</time></trkpt><trkpt lat="43.0216077" lon="13.4337118"><ele>331.6666666666667</ele><time>2026-04-04T09:28:03.547Z</time></trkpt><trkpt lat="43.0216094" lon="13.4334763"><ele>333.33333333333337</ele><time>2026-04-04T09:28:04.548Z</time></trkpt><trkpt lat="43.0216083" lon="13.4332392"><ele>335.0</ele><time>2026-04-04T09:28:05.548Z</time></trkpt><trkpt lat="43.0216058" lon="13.433005"><ele>335.33333333333337</ele><time>2026-04-04T09:28:06.548Z</time></trkpt><trkpt lat="43.0216008" lon="13.4327654"><ele>335.6666666666667</ele><time>2026-04-04T09:28:07.548Z</time></trkpt><trkpt lat="43.0215939" lon="13.4325256"><ele>336.0</ele><time>2026-04-04T09:28:08.548Z</time></trkpt><trkpt lat="43.0215854" lon="13.4322896"><ele>335.3333333333333</ele><time>2026-04-04T09:28:09.548Z</time></trkpt><trkpt lat="43.0215699" lon="13.432051"><ele>334.66666666666663</ele><time>2026-04-04T09:28:10.548Z</time></trkpt><trkpt lat="43.0215514" lon="13.4318238"><ele>334.0</ele><time>2026-04-04T09:28:11.547Z</time></trkpt><trkpt lat="43.021528" lon="13.4315961"><ele>334.0</ele><time>2026-04-04T09:28:12.548Z</time></trkpt><trkpt lat="43.0214973" lon="13.4313785"><ele>334.0</ele><time>2026-04-04T09:28:13.548Z</time></trkpt><trkpt lat="43.0214606" lon="13.4311612"><ele>334.0</ele><time>2026-04-04T09:28:14.547Z</time></trkpt><trkpt lat="43.0214189" lon="13.430939"><ele>332.66666666666663</ele><time>2026-04-04T09:28:15.547Z</time></trkpt><trkpt lat="43.0213704" lon="13.4307262"><ele>331.3333333333333</ele><time>2026-04-04T09:28:16.548Z</time></trkpt><trkpt lat="43.0213258" lon="13.4305074"><ele>330.0</ele><time>2026-04-04T09:28:17.548Z</time></trkpt><trkpt lat="43.021275" lon="13.430292"><ele>327.6666666666667</ele><time>2026-04-04T09:28:18.548Z</time></trkpt><trkpt lat="43.0212033" lon="13.43009"><ele>325.33333333333337</ele><time>2026-04-04T09:28:19.548Z</time></trkpt><trkpt lat="43.0211083" lon="13.429895"><ele>323.0</ele><time>2026-04-04T09:28:20.547Z</time></trkpt><trkpt lat="43.0209867" lon="13.4297217"><ele>324.33333333333337</ele><time>2026-04-04T09:28:21.548Z</time></trkpt><trkpt lat="43.02084" lon="13.4295617"><ele>325.6666666666667</ele><time>2026-04-04T09:28:22.548Z</time></trkpt><trkpt lat="43.0207067" lon="13.4293917"><ele>327.0</ele><time>2026-04-04T09:28:23.547Z</time></trkpt><trkpt lat="43.0205717" lon="13.4292317"><ele>327.0</ele><time>2026-04-04T09:28:24.547Z</time></trkpt><trkpt lat="43.0204367" lon="13.4290733"><ele>327.0</ele><time>2026-04-04T09:28:25.547Z</time></trkpt><trkpt lat="43.0203" lon="13.42891"><ele>327.0</ele><time>2026-04-04T09:28:26.547Z</time></trkpt><trkpt lat="43.0201617" lon="13.428755"><ele>328.3333333333333</ele><time>2026-04-04T09:28:27.547Z</time></trkpt><trkpt lat="43.02001" lon="13.4286067"><ele>329.66666666666663</ele><time>2026-04-04T09:28:28.547Z</time></trkpt><trkpt lat="43.019855" lon="13.428465"><ele>331.0</ele><time>2026-04-04T09:28:29.547Z</time></trkpt><trkpt lat="43.0197067" lon="13.4283183"><ele>331.0</ele><time>2026-04-04T09:28:30.548Z</time></trkpt><trkpt lat="43.01955" lon="13.428185"><ele>331.0</ele><time>2026-04-04T09:28:31.547Z</time></trkpt><trkpt lat="43.0193967" lon="13.42806"><ele>331.0</ele><time>2026-04-04T09:28:32.548Z</time></trkpt><trkpt lat="43.0192567" lon="13.4279383"><ele>330.3333333333333</ele><time>2026-04-04T09:28:33.547Z</time></trkpt><trkpt lat="43.0191083" lon="13.4278083"><ele>329.6666666666667</ele><time>2026-04-04T09:28:34.547Z</time></trkpt><trkpt lat="43.01898" lon="13.4276717"><ele>329.0</ele><time>2026-04-04T09:28:35.548Z</time></trkpt><trkpt lat="43.0188367" lon="13.4275317"><ele>329.0</ele><time>2026-04-04T09:28:36.547Z</time></trkpt><trkpt lat="43.0187083" lon="13.427395"><ele>329.0</ele><time>2026-04-04T09:28:37.547Z</time></trkpt><trkpt lat="43.0185583" lon="13.427305"><ele>329.0</ele><time>2026-04-04T09:28:38.547Z</time></trkpt><trkpt lat="43.0184067" lon="13.42724"><ele>334.6666666666667</ele><time>2026-04-04T09:28:39.547Z</time></trkpt><trkpt lat="43.018245" lon="13.42721"><ele>340.3333333333333</ele><time>2026-04-04T09:28:40.547Z</time></trkpt><trkpt lat="43.0180717" lon="13.427195"><ele>346.0</ele><time>2026-04-04T09:28:41.547Z</time></trkpt><trkpt lat="43.0179017" lon="13.42717"><ele>346.3333333333333</ele><time>2026-04-04T09:28:42.548Z</time></trkpt><trkpt lat="43.017735" lon="13.427115"><ele>346.6666666666667</ele><time>2026-04-04T09:28:43.547Z</time></trkpt><trkpt lat="43.0175717" lon="13.427015"><ele>347.0</ele><time>2026-04-04T09:28:44.548Z</time></trkpt><trkpt lat="43.01742" lon="13.4268983"><ele>347.0</ele><time>2026-04-04T09:28:45.547Z</time></trkpt><trkpt lat="43.0172833" lon="13.4267483"><ele>347.0</ele><time>2026-04-04T09:28:46.548Z</time></trkpt><trkpt lat="43.0171783" lon="13.4265617"><ele>347.0</ele><time>2026-04-04T09:28:47.547Z</time></trkpt><trkpt lat="43.0170817" lon="13.4263817"><ele>343.33333333333337</ele><time>2026-04-04T09:28:48.547Z</time></trkpt><trkpt lat="43.0170017" lon="13.4261883"><ele>339.6666666666667</ele><time>2026-04-04T09:28:49.548Z</time></trkpt><trkpt lat="43.01693" lon="13.42599"><ele>336.0</ele><time>2026-04-04T09:28:50.548Z</time></trkpt><trkpt lat="43.01686" lon="13.4257633"><ele>336.0</ele><time>2026-04-04T09:28:51.547Z</time></trkpt><trkpt lat="43.0167967" lon="13.4255333"><ele>336.0</ele><time>2026-04-04T09:28:52.547Z</time></trkpt><trkpt lat="43.0167333" lon="13.4253133"><ele>336.0</ele><time>2026-04-04T09:28:53.548Z</time></trkpt><trkpt lat="43.01665" lon="13.4251"><ele>336.6666666666667</ele><time>2026-04-04T09:28:54.547Z</time></trkpt><trkpt lat="43.0165417" lon="13.4249167"><ele>337.33333333333337</ele><time>2026-04-04T09:28:55.548Z</time></trkpt><trkpt lat="43.0164267" lon="13.4247417"><ele>338.0</ele><time>2026-04-04T09:28:56.547Z</time></trkpt><trkpt lat="43.01631" lon="13.4245767"><ele>335.6666666666667</ele><time>2026-04-04T09:28:57.547Z</time></trkpt><trkpt lat="43.0161817" lon="13.4244267"><ele>333.3333333333333</ele><time>2026-04-04T09:28:58.548Z</time></trkpt><trkpt lat="43.0160483" lon="13.4242783"><ele>331.0</ele><time>2026-04-04T09:28:59.548Z</time></trkpt><trkpt lat="43.0159267" lon="13.42412"><ele>332.3333333333333</ele><time>2026-04-04T09:29:00.547Z</time></trkpt><trkpt lat="43.0158033" lon="13.42395"><ele>333.6666666666667</ele><time>2026-04-04T09:29:01.547Z</time></trkpt><trkpt lat="43.0157033" lon="13.4237733"><ele>335.0</ele><time>2026-04-04T09:29:02.547Z</time></trkpt><trkpt lat="43.0156" lon="13.4235967"><ele>335.0</ele><time>2026-04-04T09:29:03.548Z</time></trkpt><trkpt lat="43.015485" lon="13.4234167"><ele>335.0</ele><time>2026-04-04T09:29:04.548Z</time></trkpt><trkpt lat="43.01539" lon="13.4232317"><ele>335.0</ele><time>2026-04-04T09:29:05.548Z</time></trkpt><trkpt lat="43.0153183" lon="13.4230333"><ele>334.33333333333337</ele><time>2026-04-04T09:29:06.548Z</time></trkpt><trkpt lat="43.015225" lon="13.4228467"><ele>333.6666666666667</ele><time>2026-04-04T09:29:07.548Z</time></trkpt><trkpt lat="43.01514" lon="13.4226633"><ele>333.0</ele><time>2026-04-04T09:29:08.547Z</time></trkpt><trkpt lat="43.015065" lon="13.4224867"><ele>332.75</ele><time>2026-04-04T09:29:09.548Z</time></trkpt><trkpt lat="43.0149833" lon="13.42233"><ele>332.5</ele><time>2026-04-04T09:29:10.547Z</time></trkpt><trkpt lat="43.0148967" lon="13.4221917"><ele>332.25</ele><time>2026-04-04T09:29:11.547Z</time></trkpt><trkpt lat="43.0148033" lon="13.4220783"><ele>332.0</ele><time>2026-04-04T09:29:12.547Z</time></trkpt><trkpt lat="43.0147" lon="13.422005"><ele>332.0</ele><time>2026-04-04T09:29:13.548Z</time></trkpt><trkpt lat="43.0145883" lon="13.4219683"><ele>332.0</ele><time>2026-04-04T09:29:14.548Z</time></trkpt><trkpt lat="43.01449" lon="13.4219417"><ele>332.0</ele><time>2026-04-04T09:29:15.548Z</time></trkpt><trkpt lat="43.0143817" lon="13.4219367"><ele>332.0</ele><time>2026-04-04T09:29:16.548Z</time></trkpt><trkpt lat="43.0142867" lon="13.4219333"><ele>332.0</ele><time>2026-04-04T09:29:17.547Z</time></trkpt><trkpt lat="43.0141867" lon="13.4219367"><ele>332.25</ele><time>2026-04-04T09:29:18.548Z</time></trkpt><trkpt lat="43.0140933" lon="13.42193"><ele>332.5</ele><time>2026-04-04T09:29:19.547Z</time></trkpt><trkpt lat="43.013985" lon="13.4219267"><ele>332.75</ele><time>2026-04-04T09:29:20.548Z</time></trkpt><trkpt lat="43.0138583" lon="13.421925"><ele>333.0</ele><time>2026-04-04T09:29:21.548Z</time></trkpt><trkpt lat="43.0137283" lon="13.4219283"><ele>333.0</ele><time>2026-04-04T09:29:22.548Z</time></trkpt><trkpt lat="43.013575" lon="13.4219267"><ele>333.0</ele><time>2026-04-04T09:29:23.547Z</time></trkpt><trkpt lat="43.0134217" lon="13.4219183"><ele>333.0</ele><time>2026-04-04T09:29:24.548Z</time></trkpt><trkpt lat="43.0132683" lon="13.4219133"><ele>334.6666666666667</ele><time>2026-04-04T09:29:25.548Z</time></trkpt><trkpt lat="43.013115" lon="13.4219033"><ele>336.33333333333337</ele><time>2026-04-04T09:29:26.548Z</time></trkpt><trkpt lat="43.0129667" lon="13.4218917"><ele>338.0</ele><time>2026-04-04T09:29:27.547Z</time></trkpt><trkpt lat="43.0128167" lon="13.421885"><ele>338.0</ele><time>2026-04-04T09:29:28.548Z</time></trkpt><trkpt lat="43.0126667" lon="13.4218767"><ele>338.0</ele><time>2026-04-04T09:29:29.548Z</time></trkpt><trkpt lat="43.012525" lon="13.421865"><ele>338.0</ele><time>2026-04-04T09:29:30.547Z</time></trkpt><trkpt lat="43.0123817" lon="13.4218517"><ele>338.0</ele><time>2026-04-04T09:29:31.547Z</time></trkpt><trkpt lat="43.0122433" lon="13.4218383"><ele>339.25</ele><time>2026-04-04T09:29:32.548Z</time></trkpt><trkpt lat="43.0121133" lon="13.4218067"><ele>340.5</ele><time>2026-04-04T09:29:33.548Z</time></trkpt><trkpt lat="43.0120033" lon="13.4217333"><ele>341.75</ele><time>2026-04-04T09:29:34.548Z</time></trkpt><trkpt lat="43.0119267" lon="13.4216183"><ele>343.0</ele><time>2026-04-04T09:29:35.547Z</time></trkpt><trkpt lat="43.011855" lon="13.4214833"><ele>343.0</ele><time>2026-04-04T09:29:36.548Z</time></trkpt><trkpt lat="43.0118017" lon="13.4213267"><ele>343.0</ele><time>2026-04-04T09:29:37.548Z</time></trkpt><trkpt lat="43.011745" lon="13.4211583"><ele>343.0</ele><time>2026-04-04T09:29:38.548Z</time></trkpt><trkpt lat="43.0116633" lon="13.4209967"><ele>343.0</ele><time>2026-04-04T09:29:39.548Z</time></trkpt><trkpt lat="43.0115667" lon="13.420855"><ele>343.75</ele><time>2026-04-04T09:29:40.547Z</time></trkpt><trkpt lat="43.0114567" lon="13.4207233"><ele>344.5</ele><time>2026-04-04T09:29:41.548Z</time></trkpt><trkpt lat="43.011345" lon="13.4205933"><ele>345.25</ele><time>2026-04-04T09:29:42.548Z</time></trkpt><trkpt lat="43.0112217" lon="13.4204833"><ele>346.0</ele><time>2026-04-04T09:29:43.548Z</time></trkpt><trkpt lat="43.0110867" lon="13.420365"><ele>347.66666666666663</ele><time>2026-04-04T09:29:44.548Z</time></trkpt><trkpt lat="43.01095" lon="13.4202567"><ele>349.3333333333333</ele><time>2026-04-04T09:29:45.548Z</time></trkpt><trkpt lat="43.0108083" lon="13.4201483"><ele>351.0</ele><time>2026-04-04T09:29:46.547Z</time></trkpt><trkpt lat="43.01068" lon="13.4200283"><ele>351.0</ele><time>2026-04-04T09:29:47.547Z</time></trkpt><trkpt lat="43.01055" lon="13.41991"><ele>351.0</ele><time>2026-04-04T09:29:48.548Z</time></trkpt><trkpt lat="43.0104217" lon="13.4197967"><ele>351.0</ele><time>2026-04-04T09:29:49.547Z</time></trkpt><trkpt lat="43.0103017" lon="13.41967"><ele>353.6666666666667</ele><time>2026-04-04T09:29:50.548Z</time></trkpt><trkpt lat="43.01019" lon="13.4195233"><ele>356.33333333333337</ele><time>2026-04-04T09:29:51.548Z</time></trkpt><trkpt lat="43.01008" lon="13.4193767"><ele>359.0</ele><time>2026-04-04T09:29:52.547Z</time></trkpt><trkpt lat="43.0099817" lon="13.4192217"><ele>359.0</ele><time>2026-04-04T09:29:53.547Z</time></trkpt><trkpt lat="43.0098933" lon="13.4190583"><ele>359.0</ele><time>2026-04-04T09:29:54.547Z</time></trkpt><trkpt lat="43.0098" lon="13.418895"><ele>359.0</ele><time>2026-04-04T09:29:55.548Z</time></trkpt><trkpt lat="43.0096967" lon="13.4187433"><ele>355.0</ele><time>2026-04-04T09:29:56.547Z</time></trkpt><trkpt lat="43.0096" lon="13.418585"><ele>351.0</ele><time>2026-04-04T09:29:57.547Z</time></trkpt><trkpt lat="43.0094933" lon="13.4184383"><ele>347.0</ele><time>2026-04-04T09:29:58.548Z</time></trkpt><trkpt lat="43.0093767" lon="13.4182783"><ele>347.0</ele><time>2026-04-04T09:29:59.547Z</time></trkpt><trkpt lat="43.0092633" lon="13.4181217"><ele>347.0</ele><time>2026-04-04T09:30:00.547Z</time></trkpt><trkpt lat="43.009155" lon="13.417955"><ele>347.0</ele><time>2026-04-04T09:30:01.548Z</time></trkpt><trkpt lat="43.0090483" lon="13.4177933"><ele>350.6666666666667</ele><time>2026-04-04T09:30:02.548Z</time></trkpt><trkpt lat="43.0089483" lon="13.4176217"><ele>354.3333333333333</ele><time>2026-04-04T09:30:03.547Z</time></trkpt><trkpt lat="43.0088483" lon="13.4174533"><ele>358.0</ele><time>2026-04-04T09:30:04.547Z</time></trkpt><trkpt lat="43.008735" lon="13.4172933"><ele>353.3333333333333</ele><time>2026-04-04T09:30:05.548Z</time></trkpt><trkpt lat="43.0086467" lon="13.41712"><ele>348.6666666666667</ele><time>2026-04-04T09:30:06.547Z</time></trkpt><trkpt lat="43.0085367" lon="13.4169617"><ele>344.0</ele><time>2026-04-04T09:30:07.548Z</time></trkpt><trkpt lat="43.008405" lon="13.41682"><ele>355.6666666666667</ele><time>2026-04-04T09:30:08.547Z</time></trkpt><trkpt lat="43.0082967" lon="13.416665"><ele>367.3333333333333</ele><time>2026-04-04T09:30:09.547Z</time></trkpt><trkpt lat="43.0081867" lon="13.4165233"><ele>379.0</ele><time>2026-04-04T09:30:10.547Z</time></trkpt><trkpt lat="43.00807" lon="13.41638"><ele>373.3333333333333</ele><time>2026-04-04T09:30:11.547Z</time></trkpt><trkpt lat="43.00795" lon="13.416235"><ele>367.6666666666667</ele><time>2026-04-04T09:30:12.548Z</time></trkpt><trkpt lat="43.0078367" lon="13.4161017"><ele>362.0</ele><time>2026-04-04T09:30:13.547Z</time></trkpt><trkpt lat="43.00773" lon="13.4159583"><ele>362.0</ele><time>2026-04-04T09:30:14.548Z</time></trkpt><trkpt lat="43.00763" lon="13.4158133"><ele>362.0</ele><time>2026-04-04T09:30:15.547Z</time></trkpt><trkpt lat="43.0075567" lon="13.4156483"><ele>362.0</ele><time>2026-04-04T09:30:16.547Z</time></trkpt><trkpt lat="43.0075517" lon="13.4154533"><ele>362.0</ele><time>2026-04-04T09:30:17.548Z</time></trkpt><trkpt lat="43.0075367" lon="13.415305"><ele>359.40000000000003</ele><time>2026-04-04T09:30:18.548Z</time></trkpt><trkpt lat="43.0075433" lon="13.4151633"><ele>356.8</ele><time>2026-04-04T09:30:19.548Z</time></trkpt><trkpt lat="43.0075983" lon="13.4150317"><ele>354.2</ele><time>2026-04-04T09:30:20.548Z</time></trkpt><trkpt lat="43.0076733" lon="13.414915"><ele>351.6</ele><time>2026-04-04T09:30:21.548Z</time></trkpt><trkpt lat="43.0077433" lon="13.4147983"><ele>349.0</ele><time>2026-04-04T09:30:22.548Z</time></trkpt><trkpt lat="43.0078117" lon="13.4146917"><ele>347.8333333333333</ele><time>2026-04-04T09:30:23.547Z</time></trkpt><trkpt lat="43.007875" lon="13.4145833"><ele>346.66666666666663</ele><time>2026-04-04T09:30:24.548Z</time></trkpt><trkpt lat="43.0079283" lon="13.4144883"><ele>345.5</ele><time>2026-04-04T09:30:25.547Z</time></trkpt><trkpt lat="43.0079717" lon="13.4144117"><ele>344.3333333333333</ele><time>2026-04-04T09:30:26.548Z</time></trkpt><trkpt lat="43.00802" lon="13.4143517"><ele>343.1666666666667</ele><time>2026-04-04T09:30:27.547Z</time></trkpt><trkpt lat="43.0080867" lon="13.4143033"><ele>342.0</ele><time>2026-04-04T09:30:28.547Z</time></trkpt><trkpt lat="43.0081517" lon="13.41427"><ele>342.0</ele><time>2026-04-04T09:30:29.547Z</time></trkpt><trkpt lat="43.0082267" lon="13.4142367"><ele>342.0</ele><time>2026-04-04T09:30:30.548Z</time></trkpt><trkpt lat="43.0082933" lon="13.414185"><ele>342.0</ele><time>2026-04-04T09:30:31.547Z</time></trkpt><trkpt lat="43.0083517" lon="13.4141133"><ele>342.0</ele><time>2026-04-04T09:30:32.547Z</time></trkpt><trkpt lat="43.00842" lon="13.4140133"><ele>342.0</ele><time>2026-04-04T09:30:33.548Z</time></trkpt><trkpt lat="43.00849" lon="13.4139017"><ele>342.0</ele><time>2026-04-04T09:30:34.548Z</time></trkpt><trkpt lat="43.0085583" lon="13.4137867"><ele>340.6</ele><time>2026-04-04T09:30:35.547Z</time></trkpt><trkpt lat="43.00863" lon="13.4136833"><ele>339.20000000000005</ele><time>2026-04-04T09:30:36.548Z</time></trkpt><trkpt lat="43.0086933" lon="13.4135783"><ele>337.8</ele><time>2026-04-04T09:30:37.548Z</time></trkpt><trkpt lat="43.0087667" lon="13.4135017"><ele>336.4</ele><time>2026-04-04T09:30:38.547Z</time></trkpt><trkpt lat="43.0088467" lon="13.4134267"><ele>335.0</ele><time>2026-04-04T09:30:39.547Z</time></trkpt><trkpt lat="43.00893" lon="13.413355"><ele>335.0</ele><time>2026-04-04T09:30:40.547Z</time></trkpt><trkpt lat="43.0090033" lon="13.4132767"><ele>335.0</ele><time>2026-04-04T09:30:41.548Z</time></trkpt><trkpt lat="43.0090867" lon="13.4131967"><ele>335.0</ele><time>2026-04-04T09:30:42.547Z</time></trkpt><trkpt lat="43.0091617" lon="13.413135"><ele>335.0</ele><time>2026-04-04T09:30:43.548Z</time></trkpt><trkpt lat="43.0092333" lon="13.4130917"><ele>335.0</ele><time>2026-04-04T09:30:44.548Z</time></trkpt><trkpt lat="43.0093" lon="13.4130567"><ele>335.0</ele><time>2026-04-04T09:30:45.548Z</time></trkpt><trkpt lat="43.00942" lon="13.4130433"><ele>334.5</ele><time>2026-04-04T09:30:47.548Z</time></trkpt><trkpt lat="43.0094867" lon="13.4130333"><ele>334.0</ele><time>2026-04-04T09:30:48.548Z</time></trkpt><trkpt lat="43.00955" lon="13.4130267"><ele>333.5</ele><time>2026-04-04T09:30:49.547Z</time></trkpt><trkpt lat="43.009675" lon="13.413015"><ele>333.0</ele><time>2026-04-04T09:30:51.548Z</time></trkpt><trkpt lat="43.0097517" lon="13.4130017"><ele>332.5</ele><time>2026-04-04T09:30:52.547Z</time></trkpt><trkpt lat="43.00982" lon="13.41299"><ele>332.0</ele><time>2026-04-04T09:30:53.547Z</time></trkpt><trkpt lat="43.0098933" lon="13.41297"><ele>332.0</ele><time>2026-04-04T09:30:54.547Z</time></trkpt><trkpt lat="43.009975" lon="13.412945"><ele>332.0</ele><time>2026-04-04T09:30:55.547Z</time></trkpt><trkpt lat="43.0100617" lon="13.4129183"><ele>332.0</ele><time>2026-04-04T09:30:56.547Z</time></trkpt><trkpt lat="43.0101317" lon="13.4128983"><ele>332.0</ele><time>2026-04-04T09:30:57.548Z</time></trkpt><trkpt lat="43.01021" lon="13.4128983"><ele>332.0</ele><time>2026-04-04T09:30:58.548Z</time></trkpt><trkpt lat="43.01029" lon="13.4129017"><ele>332.0</ele><time>2026-04-04T09:30:59.548Z</time></trkpt><trkpt lat="43.01037" lon="13.412905"><ele>331.1666666666667</ele><time>2026-04-04T09:31:00.547Z</time></trkpt><trkpt lat="43.0104567" lon="13.41291"><ele>330.33333333333337</ele><time>2026-04-04T09:31:01.547Z</time></trkpt><trkpt lat="43.0105433" lon="13.412925"><ele>329.5</ele><time>2026-04-04T09:31:02.548Z</time></trkpt><trkpt lat="43.0106233" lon="13.412935"><ele>328.6666666666667</ele><time>2026-04-04T09:31:03.548Z</time></trkpt><trkpt lat="43.010705" lon="13.412945"><ele>327.8333333333333</ele><time>2026-04-04T09:31:04.548Z</time></trkpt><trkpt lat="43.0107717" lon="13.41295"><ele>327.0</ele><time>2026-04-04T09:31:05.548Z</time></trkpt><trkpt lat="43.01088" lon="13.4129367"><ele>326.5</ele><time>2026-04-04T09:31:07.548Z</time></trkpt><trkpt lat="43.010975" lon="13.4129083"><ele>326.0</ele><time>2026-04-04T09:31:09.548Z</time></trkpt><trkpt lat="43.01105" lon="13.4129367"><ele>325.5</ele><time>2026-04-04T09:31:11.547Z</time></trkpt><trkpt lat="43.0111167" lon="13.4130033"><ele>325.0</ele><time>2026-04-04T09:31:13.548Z</time></trkpt><trkpt lat="43.0111983" lon="13.412965"><ele>324.5</ele><time>2026-04-04T09:31:18.547Z</time></trkpt><trkpt lat="43.011265" lon="13.4128767"><ele>324.0</ele><time>2026-04-04T09:31:21.547Z</time></trkpt><trkpt lat="43.0113367" lon="13.4128283"><ele>324.0</ele><time>2026-04-04T09:31:24.547Z</time></trkpt><trkpt lat="43.0114083" lon="13.41278"><ele>324.0</ele><time>2026-04-04T09:31:27.548Z</time></trkpt><trkpt lat="43.0114983" lon="13.4127433"><ele>324.0</ele><time>2026-04-04T09:31:30.547Z</time></trkpt><trkpt lat="43.0115783" lon="13.41281"><ele>324.0</ele><time>2026-04-04T09:31:32.547Z</time></trkpt><trkpt lat="43.0116433" lon="13.4129167"><ele>324.0</ele><time>2026-04-04T09:31:34.547Z</time></trkpt><trkpt lat="43.0116983" lon="13.4129833"><ele>324.0</ele><time>2026-04-04T09:31:36.547Z</time></trkpt><trkpt lat="43.0117833" lon="13.41304"><ele>324.1666666666667</ele><time>2026-04-04T09:31:54.547Z</time></trkpt><trkpt lat="43.0118917" lon="13.4130383"><ele>324.3333333333333</ele><time>2026-04-04T09:31:56.548Z</time></trkpt><trkpt lat="43.01198" lon="13.412995"><ele>324.5</ele><time>2026-04-04T09:31:58.548Z</time></trkpt><trkpt lat="43.012025" lon="13.412925"><ele>324.66666666666663</ele><time>2026-04-04T09:32:00.547Z</time></trkpt><trkpt lat="43.0120467" lon="13.41283"><ele>324.8333333333333</ele><time>2026-04-04T09:32:02.548Z</time></trkpt><trkpt lat="43.0120067" lon="13.4127283"><ele>325.0</ele><time>2026-04-04T09:32:04.547Z</time></trkpt><trkpt lat="43.0119233" lon="13.4125833"><ele>324.8</ele><time>2026-04-04T09:32:06.547Z</time></trkpt><trkpt lat="43.01186" lon="13.4124667"><ele>324.6</ele><time>2026-04-04T09:32:07.546Z</time></trkpt><trkpt lat="43.0118117" lon="13.41234"><ele>324.4</ele><time>2026-04-04T09:32:08.546Z</time></trkpt><trkpt lat="43.0117817" lon="13.4122083"><ele>324.2</ele><time>2026-04-04T09:32:09.546Z</time></trkpt><trkpt lat="43.0117567" lon="13.41207"><ele>324.0</ele><time>2026-04-04T09:32:10.547Z</time></trkpt><trkpt lat="43.011725" lon="13.4119283"><ele>324.0</ele><time>2026-04-04T09:32:11.547Z</time></trkpt><trkpt lat="43.0116883" lon="13.4117783"><ele>324.0</ele><time>2026-04-04T09:32:12.547Z</time></trkpt><trkpt lat="43.011645" lon="13.4116217"><ele>324.0</ele><time>2026-04-04T09:32:13.547Z</time></trkpt><trkpt lat="43.0115883" lon="13.4114867"><ele>324.0</ele><time>2026-04-04T09:32:14.546Z</time></trkpt><trkpt lat="43.0115283" lon="13.4113483"><ele>326.25</ele><time>2026-04-04T09:32:15.546Z</time></trkpt><trkpt lat="43.0114567" lon="13.4112067"><ele>328.5</ele><time>2026-04-04T09:32:16.547Z</time></trkpt><trkpt lat="43.0113683" lon="13.4110733"><ele>330.75</ele><time>2026-04-04T09:32:17.547Z</time></trkpt><trkpt lat="43.0112733" lon="13.41096"><ele>333.0</ele><time>2026-04-04T09:32:18.547Z</time></trkpt><trkpt lat="43.0111733" lon="13.41085"><ele>333.0</ele><time>2026-04-04T09:32:19.547Z</time></trkpt><trkpt lat="43.0110717" lon="13.4107483"><ele>333.0</ele><time>2026-04-04T09:32:20.546Z</time></trkpt><trkpt lat="43.0109917" lon="13.4106233"><ele>333.0</ele><time>2026-04-04T09:32:21.546Z</time></trkpt><trkpt lat="43.0109317" lon="13.4104883"><ele>333.0</ele><time>2026-04-04T09:32:22.547Z</time></trkpt><trkpt lat="43.01088" lon="13.4103533"><ele>332.25</ele><time>2026-04-04T09:32:23.547Z</time></trkpt><trkpt lat="43.01084" lon="13.4102033"><ele>331.5</ele><time>2026-04-04T09:32:24.546Z</time></trkpt><trkpt lat="43.0108133" lon="13.4100417"><ele>330.75</ele><time>2026-04-04T09:32:25.547Z</time></trkpt><trkpt lat="43.0107933" lon="13.4098833"><ele>330.0</ele><time>2026-04-04T09:32:26.547Z</time></trkpt><trkpt lat="43.010785" lon="13.4097167"><ele>331.25</ele><time>2026-04-04T09:32:27.547Z</time></trkpt><trkpt lat="43.0107783" lon="13.409555"><ele>332.5</ele><time>2026-04-04T09:32:28.546Z</time></trkpt><trkpt lat="43.0107667" lon="13.4093733"><ele>333.75</ele><time>2026-04-04T09:32:29.547Z</time></trkpt><trkpt lat="43.0107567" lon="13.4091983"><ele>335.0</ele><time>2026-04-04T09:32:30.546Z</time></trkpt><trkpt lat="43.010735" lon="13.4090233"><ele>335.0</ele><time>2026-04-04T09:32:31.546Z</time></trkpt><trkpt lat="43.01072" lon="13.4088483"><ele>335.0</ele><time>2026-04-04T09:32:32.546Z</time></trkpt><trkpt lat="43.0107083" lon="13.4086717"><ele>335.0</ele><time>2026-04-04T09:32:33.547Z</time></trkpt><trkpt lat="43.0106933" lon="13.4084917"><ele>335.0</ele><time>2026-04-04T09:32:34.547Z</time></trkpt><trkpt lat="43.010685" lon="13.408305"><ele>335.0</ele><time>2026-04-04T09:32:35.547Z</time></trkpt><trkpt lat="43.0106767" lon="13.4081333"><ele>335.0</ele><time>2026-04-04T09:32:36.547Z</time></trkpt><trkpt lat="43.010665" lon="13.407955"><ele>335.0</ele><time>2026-04-04T09:32:37.547Z</time></trkpt><trkpt lat="43.01065" lon="13.4077717"><ele>335.0</ele><time>2026-04-04T09:32:38.547Z</time></trkpt><trkpt lat="43.01064" lon="13.4075933"><ele>334.0</ele><time>2026-04-04T09:32:39.547Z</time></trkpt><trkpt lat="43.0106417" lon="13.4074183"><ele>333.0</ele><time>2026-04-04T09:32:40.546Z</time></trkpt><trkpt lat="43.0106483" lon="13.407245"><ele>332.0</ele><time>2026-04-04T09:32:41.546Z</time></trkpt><trkpt lat="43.010655" lon="13.407065"><ele>331.0</ele><time>2026-04-04T09:32:42.546Z</time></trkpt><trkpt lat="43.01066" lon="13.4068933"><ele>330.75</ele><time>2026-04-04T09:32:43.546Z</time></trkpt><trkpt lat="43.010665" lon="13.4067217"><ele>330.5</ele><time>2026-04-04T09:32:44.547Z</time></trkpt><trkpt lat="43.0106733" lon="13.4065417"><ele>330.25</ele><time>2026-04-04T09:32:45.547Z</time></trkpt><trkpt lat="43.0106767" lon="13.40636"><ele>330.0</ele><time>2026-04-04T09:32:46.546Z</time></trkpt><trkpt lat="43.0106783" lon="13.4061833"><ele>330.4</ele><time>2026-04-04T09:32:47.547Z</time></trkpt><trkpt lat="43.0106917" lon="13.4060267"><ele>330.8</ele><time>2026-04-04T09:32:48.546Z</time></trkpt><trkpt lat="43.01072" lon="13.4058717"><ele>331.20000000000005</ele><time>2026-04-04T09:32:49.546Z</time></trkpt><trkpt lat="43.010755" lon="13.405745"><ele>331.6</ele><time>2026-04-04T09:32:50.547Z</time></trkpt><trkpt lat="43.01079" lon="13.40563"><ele>332.0</ele><time>2026-04-04T09:32:51.547Z</time></trkpt><trkpt lat="43.01082" lon="13.40552"><ele>332.33333333333337</ele><time>2026-04-04T09:32:52.547Z</time></trkpt><trkpt lat="43.0108483" lon="13.40542"><ele>332.6666666666667</ele><time>2026-04-04T09:32:53.547Z</time></trkpt><trkpt lat="43.0108717" lon="13.4053267"><ele>333.0</ele><time>2026-04-04T09:32:54.547Z</time></trkpt><trkpt lat="43.010885" lon="13.4052417"><ele>333.3333333333333</ele><time>2026-04-04T09:32:55.546Z</time></trkpt><trkpt lat="43.0108717" lon="13.4050783"><ele>333.66666666666663</ele><time>2026-04-04T09:32:57.547Z</time></trkpt><trkpt lat="43.0108583" lon="13.4049367"><ele>334.0</ele><time>2026-04-04T09:32:59.546Z</time></trkpt><trkpt lat="43.0108233" lon="13.4047833"><ele>335.0</ele><time>2026-04-04T09:33:01.547Z</time></trkpt><trkpt lat="43.010825" lon="13.4046083"><ele>336.0</ele><time>2026-04-04T09:33:03.547Z</time></trkpt><trkpt lat="43.010835" lon="13.40451"><ele>337.0</ele><time>2026-04-04T09:33:04.546Z</time></trkpt><trkpt lat="43.0108483" lon="13.404405"><ele>338.0</ele><time>2026-04-04T09:33:05.547Z</time></trkpt><trkpt lat="43.0108667" lon="13.404315"><ele>339.0</ele><time>2026-04-04T09:33:06.547Z</time></trkpt><trkpt lat="43.0108867" lon="13.404215"><ele>340.0</ele><time>2026-04-04T09:33:07.546Z</time></trkpt><trkpt lat="43.0109033" lon="13.4041233"><ele>340.0</ele><time>2026-04-04T09:33:08.547Z</time></trkpt><trkpt lat="43.0109283" lon="13.404035"><ele>340.0</ele><time>2026-04-04T09:33:09.546Z</time></trkpt><trkpt lat="43.0109617" lon="13.403945"><ele>340.0</ele><time>2026-04-04T09:33:10.547Z</time></trkpt><trkpt lat="43.0109917" lon="13.4038433"><ele>340.0</ele><time>2026-04-04T09:33:11.547Z</time></trkpt><trkpt lat="43.0110167" lon="13.4037433"><ele>340.0</ele><time>2026-04-04T09:33:12.546Z</time></trkpt><trkpt lat="43.011035" lon="13.4036433"><ele>340.0</ele><time>2026-04-04T09:33:13.546Z</time></trkpt><trkpt lat="43.0110617" lon="13.4035333"><ele>340.3333333333333</ele><time>2026-04-04T09:33:14.546Z</time></trkpt><trkpt lat="43.0110867" lon="13.4034233"><ele>340.66666666666663</ele><time>2026-04-04T09:33:15.546Z</time></trkpt><trkpt lat="43.0111183" lon="13.4033117"><ele>341.0</ele><time>2026-04-04T09:33:16.546Z</time></trkpt><trkpt lat="43.0111483" lon="13.403195"><ele>341.3333333333333</ele><time>2026-04-04T09:33:17.547Z</time></trkpt><trkpt lat="43.0111833" lon="13.4030817"><ele>341.6666666666667</ele><time>2026-04-04T09:33:18.546Z</time></trkpt><trkpt lat="43.0112217" lon="13.402975"><ele>342.0</ele><time>2026-04-04T09:33:19.547Z</time></trkpt><trkpt lat="43.011255" lon="13.4028733"><ele>342.0</ele><time>2026-04-04T09:33:20.547Z</time></trkpt><trkpt lat="43.0112983" lon="13.4027767"><ele>342.0</ele><time>2026-04-04T09:33:21.546Z</time></trkpt><trkpt lat="43.0113533" lon="13.4026783"><ele>342.0</ele><time>2026-04-04T09:33:22.546Z</time></trkpt><trkpt lat="43.011415" lon="13.402585"><ele>342.0</ele><time>2026-04-04T09:33:23.546Z</time></trkpt><trkpt lat="43.011475" lon="13.40249"><ele>342.0</ele><time>2026-04-04T09:33:24.547Z</time></trkpt><trkpt lat="43.0115167" lon="13.4023733"><ele>342.0</ele><time>2026-04-04T09:33:25.547Z</time></trkpt><trkpt lat="43.01155" lon="13.402265"><ele>342.0</ele><time>2026-04-04T09:33:26.546Z</time></trkpt><trkpt lat="43.011575" lon="13.4021417"><ele>342.0</ele><time>2026-04-04T09:33:27.547Z</time></trkpt><trkpt lat="43.0115983" lon="13.4020117"><ele>342.0</ele><time>2026-04-04T09:33:28.547Z</time></trkpt><trkpt lat="43.0116217" lon="13.4018617"><ele>342.0</ele><time>2026-04-04T09:33:29.546Z</time></trkpt><trkpt lat="43.0116517" lon="13.4016817"><ele>343.0</ele><time>2026-04-04T09:33:30.546Z</time></trkpt><trkpt lat="43.0116917" lon="13.4014983"><ele>344.0</ele><time>2026-04-04T09:33:31.546Z</time></trkpt><trkpt lat="43.0117133" lon="13.4012933"><ele>345.0</ele><time>2026-04-04T09:33:32.547Z</time></trkpt><trkpt lat="43.0117167" lon="13.4010983"><ele>346.0</ele><time>2026-04-04T09:33:33.547Z</time></trkpt><trkpt lat="43.0117" lon="13.4008983"><ele>346.0</ele><time>2026-04-04T09:33:34.546Z</time></trkpt><trkpt lat="43.0116767" lon="13.400695"><ele>346.0</ele><time>2026-04-04T09:33:35.546Z</time></trkpt><trkpt lat="43.01164" lon="13.400495"><ele>346.0</ele><time>2026-04-04T09:33:36.546Z</time></trkpt><trkpt lat="43.01159" lon="13.4002833"><ele>342.0</ele><time>2026-04-04T09:33:37.547Z</time></trkpt><trkpt lat="43.0115417" lon="13.4000817"><ele>338.0</ele><time>2026-04-04T09:33:38.547Z</time></trkpt><trkpt lat="43.011485" lon="13.3998733"><ele>334.0</ele><time>2026-04-04T09:33:39.547Z</time></trkpt><trkpt lat="43.0114233" lon="13.3996733"><ele>336.0</ele><time>2026-04-04T09:33:40.547Z</time></trkpt><trkpt lat="43.01137" lon="13.3994867"><ele>338.0</ele><time>2026-04-04T09:33:41.546Z</time></trkpt><trkpt lat="43.0112983" lon="13.3992883"><ele>340.0</ele><time>2026-04-04T09:33:42.547Z</time></trkpt><trkpt lat="43.011245" lon="13.3990917"><ele>340.0</ele><time>2026-04-04T09:33:43.546Z</time></trkpt><trkpt lat="43.0112117" lon="13.398905"><ele>340.0</ele><time>2026-04-04T09:33:44.547Z</time></trkpt><trkpt lat="43.0111933" lon="13.39873"><ele>340.0</ele><time>2026-04-04T09:33:45.547Z</time></trkpt><trkpt lat="43.01118" lon="13.3985617"><ele>340.0</ele><time>2026-04-04T09:33:46.546Z</time></trkpt><trkpt lat="43.0111683" lon="13.3983867"><ele>341.75</ele><time>2026-04-04T09:33:47.546Z</time></trkpt><trkpt lat="43.0111567" lon="13.3982433"><ele>343.5</ele><time>2026-04-04T09:33:48.547Z</time></trkpt><trkpt lat="43.01116" lon="13.3980767"><ele>345.25</ele><time>2026-04-04T09:33:49.547Z</time></trkpt><trkpt lat="43.0111483" lon="13.3979167"><ele>347.0</ele><time>2026-04-04T09:33:50.546Z</time></trkpt><trkpt lat="43.01115" lon="13.3977467"><ele>348.5</ele><time>2026-04-04T09:33:51.547Z</time></trkpt><trkpt lat="43.01115" lon="13.3975767"><ele>350.0</ele><time>2026-04-04T09:33:52.547Z</time></trkpt><trkpt lat="43.0111483" lon="13.397405"><ele>351.5</ele><time>2026-04-04T09:33:53.547Z</time></trkpt><trkpt lat="43.0111483" lon="13.3972383"><ele>353.0</ele><time>2026-04-04T09:33:54.547Z</time></trkpt><trkpt lat="43.0111617" lon="13.3970717"><ele>353.25</ele><time>2026-04-04T09:33:55.546Z</time></trkpt><trkpt lat="43.0111717" lon="13.3969083"><ele>353.5</ele><time>2026-04-04T09:33:56.546Z</time></trkpt><trkpt lat="43.0112" lon="13.3967483"><ele>353.75</ele><time>2026-04-04T09:33:57.547Z</time></trkpt><trkpt lat="43.0112333" lon="13.39659"><ele>354.0</ele><time>2026-04-04T09:33:58.547Z</time></trkpt><trkpt lat="43.0112733" lon="13.396445"><ele>353.3333333333333</ele><time>2026-04-04T09:33:59.547Z</time></trkpt><trkpt lat="43.0113017" lon="13.3963283"><ele>352.6666666666667</ele><time>2026-04-04T09:34:00.546Z</time></trkpt><trkpt lat="43.0113283" lon="13.3962417"><ele>352.0</ele><time>2026-04-04T09:34:01.547Z</time></trkpt><trkpt lat="43.0113583" lon="13.39614"><ele>351.33333333333337</ele><time>2026-04-04T09:34:03.547Z</time></trkpt><trkpt lat="43.0112917" lon="13.39615"><ele>350.6666666666667</ele><time>2026-04-04T09:34:23.546Z</time></trkpt><trkpt lat="43.0112217" lon="13.3962133"><ele>350.0</ele><time>2026-04-04T09:34:25.547Z</time></trkpt><trkpt lat="43.011175" lon="13.396295"><ele>351.0</ele><time>2026-04-04T09:34:26.547Z</time></trkpt><trkpt lat="43.0111083" lon="13.3964017"><ele>352.0</ele><time>2026-04-04T09:34:27.546Z</time></trkpt><trkpt lat="43.0110217" lon="13.3965267"><ele>353.0</ele><time>2026-04-04T09:34:28.547Z</time></trkpt><trkpt lat="43.010925" lon="13.3966733"><ele>354.0</ele><time>2026-04-04T09:34:29.546Z</time></trkpt><trkpt lat="43.01082" lon="13.3968267"><ele>350.0</ele><time>2026-04-04T09:34:30.547Z</time></trkpt><trkpt lat="43.0107" lon="13.396985"><ele>346.0</ele><time>2026-04-04T09:34:31.547Z</time></trkpt><trkpt lat="43.01058" lon="13.3971233"><ele>342.0</ele><time>2026-04-04T09:34:32.547Z</time></trkpt><trkpt lat="43.0104633" lon="13.39725"><ele>341.25</ele><time>2026-04-04T09:34:33.546Z</time></trkpt><trkpt lat="43.0103467" lon="13.3973467"><ele>340.5</ele><time>2026-04-04T09:34:34.547Z</time></trkpt><trkpt lat="43.0102167" lon="13.3973917"><ele>339.75</ele><time>2026-04-04T09:34:35.546Z</time></trkpt><trkpt lat="43.010075" lon="13.3974"><ele>339.0</ele><time>2026-04-04T09:34:36.546Z</time></trkpt><trkpt lat="43.00991" lon="13.39739"><ele>341.3333333333333</ele><time>2026-04-04T09:34:37.547Z</time></trkpt><trkpt lat="43.0097367" lon="13.3973983"><ele>343.66666666666663</ele><time>2026-04-04T09:34:38.546Z</time></trkpt><trkpt lat="43.009565" lon="13.39741"><ele>346.0</ele><time>2026-04-04T09:34:39.546Z</time></trkpt><trkpt lat="43.0094" lon="13.397405"><ele>346.0</ele><time>2026-04-04T09:34:40.547Z</time></trkpt><trkpt lat="43.0092417" lon="13.3974033"><ele>346.0</ele><time>2026-04-04T09:34:41.547Z</time></trkpt><trkpt lat="43.009095" lon="13.397415"><ele>346.0</ele><time>2026-04-04T09:34:42.547Z</time></trkpt><trkpt lat="43.0089733" lon="13.397425"><ele>346.0</ele><time>2026-04-04T09:34:43.546Z</time></trkpt><trkpt lat="43.00887" lon="13.3974483"><ele>351.20000000000005</ele><time>2026-04-04T09:34:44.547Z</time></trkpt><trkpt lat="43.0087833" lon="13.3975"><ele>356.40000000000003</ele><time>2026-04-04T09:34:45.547Z</time></trkpt><trkpt lat="43.00871" lon="13.3975767"><ele>361.6</ele><time>2026-04-04T09:34:46.546Z</time></trkpt><trkpt lat="43.0086667" lon="13.3976817"><ele>366.8</ele><time>2026-04-04T09:34:47.547Z</time></trkpt><trkpt lat="43.0086333" lon="13.397825"><ele>372.0</ele><time>2026-04-04T09:34:48.547Z</time></trkpt><trkpt lat="43.00862" lon="13.3979833"><ele>371.5</ele><time>2026-04-04T09:34:49.546Z</time></trkpt><trkpt lat="43.008635" lon="13.3981883"><ele>371.0</ele><time>2026-04-04T09:34:50.546Z</time></trkpt><trkpt lat="43.0086783" lon="13.3983983"><ele>370.5</ele><time>2026-04-04T09:34:51.547Z</time></trkpt><trkpt lat="43.0087017" lon="13.39857"><ele>370.0</ele><time>2026-04-04T09:34:52.546Z</time></trkpt><trkpt lat="43.0087083" lon="13.39873"><ele>369.5</ele><time>2026-04-04T09:34:53.546Z</time></trkpt><trkpt lat="43.0086917" lon="13.39887"><ele>369.0</ele><time>2026-04-04T09:34:54.546Z</time></trkpt><trkpt lat="43.0086433" lon="13.3989733"><ele>368.5</ele><time>2026-04-04T09:34:55.546Z</time></trkpt><trkpt lat="43.00858" lon="13.39906"><ele>368.0</ele><time>2026-04-04T09:34:56.547Z</time></trkpt><trkpt lat="43.0085133" lon="13.39913"><ele>367.5</ele><time>2026-04-04T09:34:57.547Z</time></trkpt><trkpt lat="43.0084483" lon="13.3991633"><ele>367.0</ele><time>2026-04-04T09:34:58.547Z</time></trkpt><trkpt lat="43.0083783" lon="13.3991583"><ele>367.0</ele><time>2026-04-04T09:34:59.547Z</time></trkpt><trkpt lat="43.0083133" lon="13.3991283"><ele>367.0</ele><time>2026-04-04T09:35:00.546Z</time></trkpt><trkpt lat="43.00826" lon="13.3989733"><ele>367.0</ele><time>2026-04-04T09:35:02.546Z</time></trkpt><trkpt lat="43.00827" lon="13.3988367"><ele>367.0</ele><time>2026-04-04T09:35:03.547Z</time></trkpt><trkpt lat="43.00829" lon="13.3986783"><ele>367.0</ele><time>2026-04-04T09:35:04.547Z</time></trkpt><trkpt lat="43.008305" lon="13.3985133"><ele>368.5</ele><time>2026-04-04T09:35:05.546Z</time></trkpt><trkpt lat="43.0082983" lon="13.3983617"><ele>370.0</ele><time>2026-04-04T09:35:06.546Z</time></trkpt><trkpt lat="43.008275" lon="13.398205"><ele>371.5</ele><time>2026-04-04T09:35:07.546Z</time></trkpt><trkpt lat="43.00825" lon="13.3980417"><ele>373.0</ele><time>2026-04-04T09:35:08.547Z</time></trkpt><trkpt lat="43.008215" lon="13.39788"><ele>373.75</ele><time>2026-04-04T09:35:09.547Z</time></trkpt><trkpt lat="43.0081783" lon="13.3977167"><ele>374.5</ele><time>2026-04-04T09:35:10.547Z</time></trkpt><trkpt lat="43.008135" lon="13.3975583"><ele>375.25</ele><time>2026-04-04T09:35:11.546Z</time></trkpt><trkpt lat="43.00809" lon="13.3974167"><ele>376.0</ele><time>2026-04-04T09:35:12.547Z</time></trkpt><trkpt lat="43.0080617" lon="13.3972717"><ele>376.3333333333333</ele><time>2026-04-04T09:35:13.547Z</time></trkpt><trkpt lat="43.0080383" lon="13.39714"><ele>376.66666666666663</ele><time>2026-04-04T09:35:14.546Z</time></trkpt><trkpt lat="43.0080167" lon="13.39703"><ele>377.0</ele><time>2026-04-04T09:35:15.546Z</time></trkpt><trkpt lat="43.0079933" lon="13.3969383"><ele>377.3333333333333</ele><time>2026-04-04T09:35:16.546Z</time></trkpt><trkpt lat="43.00798" lon="13.3968517"><ele>377.6666666666667</ele><time>2026-04-04T09:35:17.547Z</time></trkpt><trkpt lat="43.00796" lon="13.3967683"><ele>378.0</ele><time>2026-04-04T09:35:18.546Z</time></trkpt><trkpt lat="43.007915" lon="13.3966333"><ele>378.0</ele><time>2026-04-04T09:35:20.546Z</time></trkpt><trkpt lat="43.0078967" lon="13.39652"><ele>378.0</ele><time>2026-04-04T09:35:22.546Z</time></trkpt><trkpt lat="43.00789" lon="13.3964117"><ele>378.0</ele><time>2026-04-04T09:35:24.546Z</time></trkpt><trkpt lat="43.0078733" lon="13.3963183"><ele>378.0</ele><time>2026-04-04T09:35:26.546Z</time></trkpt><trkpt lat="43.00786" lon="13.3962267"><ele>378.0</ele><time>2026-04-04T09:35:29.546Z</time></trkpt><trkpt lat="43.0078617" lon="13.396125"><ele>378.0</ele><time>2026-04-04T09:35:33.546Z</time></trkpt><trkpt lat="43.00785" lon="13.3960317"><ele>378.0</ele><time>2026-04-04T09:35:35.546Z</time></trkpt><trkpt lat="43.0078283" lon="13.395885"><ele>378.3333333333333</ele><time>2026-04-04T09:35:37.547Z</time></trkpt><trkpt lat="43.0078167" lon="13.3957883"><ele>378.6666666666667</ele><time>2026-04-04T09:35:38.546Z</time></trkpt><trkpt lat="43.0078217" lon="13.3956883"><ele>379.0</ele><time>2026-04-04T09:35:39.546Z</time></trkpt><trkpt lat="43.0078317" lon="13.3955883"><ele>379.33333333333337</ele><time>2026-04-04T09:35:40.547Z</time></trkpt><trkpt lat="43.0078417" lon="13.3954883"><ele>379.6666666666667</ele><time>2026-04-04T09:35:41.547Z</time></trkpt><trkpt lat="43.0078617" lon="13.39538"><ele>380.0</ele><time>2026-04-04T09:35:42.547Z</time></trkpt><trkpt lat="43.0078867" lon="13.3952767"><ele>380.4</ele><time>2026-04-04T09:35:43.546Z</time></trkpt><trkpt lat="43.00791" lon="13.395165"><ele>380.8</ele><time>2026-04-04T09:35:44.547Z</time></trkpt><trkpt lat="43.0079483" lon="13.39503"><ele>381.20000000000005</ele><time>2026-04-04T09:35:45.547Z</time></trkpt><trkpt lat="43.00798" lon="13.3948967"><ele>381.6</ele><time>2026-04-04T09:35:46.546Z</time></trkpt><trkpt lat="43.0080217" lon="13.3947533"><ele>382.0</ele><time>2026-04-04T09:35:47.546Z</time></trkpt><trkpt lat="43.0080583" lon="13.3946217"><ele>380.8</ele><time>2026-04-04T09:35:48.547Z</time></trkpt><trkpt lat="43.0080917" lon="13.3944917"><ele>379.6</ele><time>2026-04-04T09:35:49.546Z</time></trkpt><trkpt lat="43.008115" lon="13.394365"><ele>378.40000000000003</ele><time>2026-04-04T09:35:50.546Z</time></trkpt><trkpt lat="43.0081333" lon="13.3942367"><ele>377.20000000000005</ele><time>2026-04-04T09:35:51.547Z</time></trkpt><trkpt lat="43.0081317" lon="13.39412"><ele>376.0</ele><time>2026-04-04T09:35:52.547Z</time></trkpt><trkpt lat="43.00811" lon="13.3940167"><ele>376.0</ele><time>2026-04-04T09:35:53.547Z</time></trkpt><trkpt lat="43.0080733" lon="13.3939283"><ele>376.0</ele><time>2026-04-04T09:35:54.546Z</time></trkpt><trkpt lat="43.0080333" lon="13.393855"><ele>376.0</ele><time>2026-04-04T09:35:55.547Z</time></trkpt><trkpt lat="43.0079317" lon="13.393805"><ele>376.0</ele><time>2026-04-04T09:35:57.547Z</time></trkpt><trkpt lat="43.0078383" lon="13.3938483"><ele>376.0</ele><time>2026-04-04T09:35:59.546Z</time></trkpt><trkpt lat="43.007905" lon="13.3939"><ele>376.0</ele><time>2026-04-04T09:36:04.547Z</time></trkpt><trkpt lat="43.00797" lon="13.3938833"><ele>376.0</ele><time>2026-04-04T09:36:05.547Z</time></trkpt><trkpt lat="43.008035" lon="13.3938733"><ele>376.0</ele><time>2026-04-04T09:36:06.546Z</time></trkpt><trkpt lat="43.008115" lon="13.3938517"><ele>376.0</ele><time>2026-04-04T09:36:08.546Z</time></trkpt><trkpt lat="43.0081867" lon="13.3938667"><ele>376.0</ele><time>2026-04-04T09:36:24.547Z</time></trkpt><trkpt lat="43.0082367" lon="13.3939333"><ele>376.0</ele><time>2026-04-04T09:36:28.547Z</time></trkpt><trkpt lat="43.008355" lon="13.39399"><ele>376.0</ele><time>2026-04-04T09:36:56.546Z</time></trkpt><trkpt lat="43.008425" lon="13.39403"><ele>374.7142857142857</ele><time>2026-04-04T09:36:59.546Z</time></trkpt><trkpt lat="43.00849" lon="13.3940717"><ele>373.42857142857144</ele><time>2026-04-04T09:37:02.546Z</time></trkpt><trkpt lat="43.0085417" lon="13.3941217"><ele>372.1428571428571</ele><time>2026-04-04T09:37:05.547Z</time></trkpt><trkpt lat="43.0085983" lon="13.3942517"><ele>370.8571428571429</ele><time>2026-04-04T09:37:15.546Z</time></trkpt><trkpt lat="43.0086433" lon="13.394335"><ele>369.5714285714286</ele><time>2026-04-04T09:37:19.547Z</time></trkpt><trkpt lat="43.0086883" lon="13.3943967"><ele>368.2857142857143</ele><time>2026-04-04T09:37:22.546Z</time></trkpt><trkpt lat="43.0087233" lon="13.39447"><ele>367.0</ele><time>2026-04-04T09:37:25.546Z</time></trkpt><trkpt lat="43.008785" lon="13.394525"><ele>367.0</ele><time>2026-04-04T09:37:29.546Z</time></trkpt><trkpt lat="43.0088517" lon="13.3945117"><ele>367.0</ele><time>2026-04-04T09:37:32.545Z</time></trkpt><trkpt lat="43.008905" lon="13.3944233"><ele>367.0</ele><time>2026-04-04T09:37:35.546Z</time></trkpt><trkpt lat="43.0089283" lon="13.394325"><ele>367.0</ele><time>2026-04-04T09:37:37.545Z</time></trkpt><trkpt lat="43.0089117" lon="13.3942083"><ele>367.0</ele><time>2026-04-04T09:37:40.545Z</time></trkpt><trkpt lat="43.0088717" lon="13.394095"><ele>367.0</ele><time>2026-04-04T09:37:42.545Z</time></trkpt><trkpt lat="43.0088033" lon="13.3939817"><ele>367.0</ele><time>2026-04-04T09:37:44.546Z</time></trkpt><trkpt lat="43.0087067" lon="13.393895"><ele>367.0</ele><time>2026-04-04T09:37:46.546Z</time></trkpt><trkpt lat="43.0086433" lon="13.3938517"><ele>367.0</ele><time>2026-04-04T09:37:47.545Z</time></trkpt><trkpt lat="43.0085867" lon="13.3938083"><ele>367.0</ele><time>2026-04-04T09:37:48.545Z</time></trkpt><trkpt lat="43.00849" lon="13.393735"><ele>367.0</ele><time>2026-04-04T09:37:50.546Z</time></trkpt><trkpt lat="43.0084217" lon="13.3936983"><ele>367.0</ele><time>2026-04-04T09:37:52.545Z</time></trkpt><trkpt lat="43.008375" lon="13.3936333"><ele>366.0</ele><time>2026-04-04T09:37:54.545Z</time></trkpt><trkpt lat="43.0083" lon="13.393545"><ele>365.0</ele><time>2026-04-04T09:37:56.545Z</time></trkpt><trkpt lat="43.0082033" lon="13.3934667"><ele>364.0</ele><time>2026-04-04T09:37:58.546Z</time></trkpt><trkpt lat="43.0081133" lon="13.39341"><ele>363.0</ele><time>2026-04-04T09:38:00.546Z</time></trkpt><trkpt lat="43.0080333" lon="13.3933683"><ele>362.0</ele><time>2026-04-04T09:38:02.546Z</time></trkpt><trkpt lat="43.0079467" lon="13.3933383"><ele>362.0</ele><time>2026-04-04T09:38:05.545Z</time></trkpt><trkpt lat="43.0078817" lon="13.393305"><ele>362.0</ele><time>2026-04-04T09:38:07.545Z</time></trkpt><trkpt lat="43.0077867" lon="13.39321"><ele>362.0</ele><time>2026-04-04T09:38:54.545Z</time></trkpt><trkpt lat="43.0077133" lon="13.3931883"><ele>362.0</ele><time>2026-04-04T09:38:56.545Z</time></trkpt><trkpt lat="43.0076383" lon="13.3931433"><ele>362.0</ele><time>2026-04-04T09:38:59.545Z</time></trkpt><trkpt lat="43.0075667" lon="13.3931217"><ele>362.0</ele><time>2026-04-04T09:39:01.545Z</time></trkpt><trkpt lat="43.0074967" lon="13.3930867"><ele>362.5</ele><time>2026-04-04T09:39:04.546Z</time></trkpt><trkpt lat="43.007485" lon="13.392995"><ele>363.0</ele><time>2026-04-04T09:39:18.545Z</time></trkpt><trkpt lat="43.0074283" lon="13.392905"><ele>363.5</ele><time>2026-04-04T09:49:59.544Z</time></trkpt><trkpt lat="43.007455" lon="13.3927967"><ele>364.0</ele><time>2026-04-04T09:50:03.543Z</time></trkpt><trkpt lat="43.007505" lon="13.3927"><ele>364.5</ele><time>2026-04-04T09:50:06.544Z</time></trkpt><trkpt lat="43.0075733" lon="13.3926617"><ele>365.0</ele><time>2026-04-04T09:50:09.544Z</time></trkpt><trkpt lat="43.0076517" lon="13.3926833"><ele>365.0</ele><time>2026-04-04T09:50:12.544Z</time></trkpt><trkpt lat="43.0077433" lon="13.3926833"><ele>365.0</ele><time>2026-04-04T09:50:15.543Z</time></trkpt><trkpt lat="43.00782" lon="13.39269"><ele>365.0</ele><time>2026-04-04T09:50:17.544Z</time></trkpt><trkpt lat="43.007905" lon="13.3927033"><ele>365.0</ele><time>2026-04-04T09:50:19.544Z</time></trkpt><trkpt lat="43.0079917" lon="13.39269"><ele>365.0</ele><time>2026-04-04T09:50:22.543Z</time></trkpt><trkpt lat="43.0080667" lon="13.3926667"><ele>365.0</ele><time>2026-04-04T09:50:24.544Z</time></trkpt><trkpt lat="43.0081633" lon="13.3926717"><ele>365.0</ele><time>2026-04-04T09:50:27.544Z</time></trkpt><trkpt lat="43.0082383" lon="13.3927017"><ele>365.0</ele><time>2026-04-04T09:50:29.544Z</time></trkpt><trkpt lat="43.0082983" lon="13.39273"><ele>365.0</ele><time>2026-04-04T09:50:31.544Z</time></trkpt><trkpt lat="43.008385" lon="13.3927483"><ele>365.0</ele><time>2026-04-04T09:51:12.543Z</time></trkpt><trkpt lat="43.0084417" lon="13.3928283"><ele>365.0</ele><time>2026-04-04T09:51:14.543Z</time></trkpt><trkpt lat="43.0085133" lon="13.3929183"><ele>365.0</ele><time>2026-04-04T09:51:16.544Z</time></trkpt><trkpt lat="43.0085883" lon="13.392995"><ele>364.6</ele><time>2026-04-04T09:51:18.544Z</time></trkpt><trkpt lat="43.00867" lon="13.39308"><ele>364.2</ele><time>2026-04-04T09:51:20.544Z</time></trkpt><trkpt lat="43.0087517" lon="13.39316"><ele>363.79999999999995</ele><time>2026-04-04T09:51:22.543Z</time></trkpt><trkpt lat="43.0088433" lon="13.39323"><ele>363.4</ele><time>2026-04-04T09:51:24.544Z</time></trkpt><trkpt lat="43.0089267" lon="13.3932733"><ele>363.0</ele><time>2026-04-04T09:51:26.543Z</time></trkpt><trkpt lat="43.0090167" lon="13.393295"><ele>363.0</ele><time>2026-04-04T09:51:28.543Z</time></trkpt><trkpt lat="43.0090867" lon="13.3933"><ele>363.0</ele><time>2026-04-04T09:51:30.543Z</time></trkpt><trkpt lat="43.0090167" lon="13.3932933"><ele>363.0</ele><time>2026-04-04T09:51:58.543Z</time></trkpt><trkpt lat="43.00893" lon="13.3932533"><ele>363.0</ele><time>2026-04-04T09:52:00.543Z</time></trkpt><trkpt lat="43.0088333" lon="13.3931683"><ele>363.0</ele><time>2026-04-04T09:52:02.543Z</time></trkpt><trkpt lat="43.00876" lon="13.3930833"><ele>363.0</ele><time>2026-04-04T09:52:04.543Z</time></trkpt><trkpt lat="43.0086933" lon="13.3930167"><ele>363.8333333333333</ele><time>2026-04-04T09:52:06.543Z</time></trkpt><trkpt lat="43.0086217" lon="13.3929617"><ele>364.6666666666667</ele><time>2026-04-04T09:52:08.543Z</time></trkpt><trkpt lat="43.0085533" lon="13.3928883"><ele>365.5</ele><time>2026-04-04T09:52:10.544Z</time></trkpt><trkpt lat="43.0084967" lon="13.3927967"><ele>366.33333333333337</ele><time>2026-04-04T09:52:12.543Z</time></trkpt><trkpt lat="43.008445" lon="13.39272"><ele>367.1666666666667</ele><time>2026-04-04T09:52:15.544Z</time></trkpt><trkpt lat="43.0084167" lon="13.3926417"><ele>368.0</ele><time>2026-04-04T09:52:19.544Z</time></trkpt><trkpt lat="43.0083783" lon="13.3925583"><ele>367.5</ele><time>2026-04-04T09:52:21.544Z</time></trkpt><trkpt lat="43.00832" lon="13.3924967"><ele>367.0</ele><time>2026-04-04T09:52:23.543Z</time></trkpt><trkpt lat="43.00828" lon="13.3923917"><ele>366.5</ele><time>2026-04-04T09:52:26.543Z</time></trkpt><trkpt lat="43.0082733" lon="13.3923017"><ele>366.0</ele><time>2026-04-04T09:52:28.543Z</time></trkpt><trkpt lat="43.008285" lon="13.3921883"><ele>365.5</ele><time>2026-04-04T09:52:32.544Z</time></trkpt><trkpt lat="43.0082817" lon="13.3920833"><ele>365.0</ele><time>2026-04-04T09:52:35.544Z</time></trkpt><trkpt lat="43.008275" lon="13.391985"><ele>366.5714285714286</ele><time>2026-04-04T09:52:39.543Z</time></trkpt><trkpt lat="43.008285" lon="13.3918917"><ele>368.14285714285717</ele><time>2026-04-04T09:52:41.543Z</time></trkpt><trkpt lat="43.008245" lon="13.3918083"><ele>369.7142857142857</ele><time>2026-04-04T10:00:57.541Z</time></trkpt><trkpt lat="43.0082067" lon="13.3917317"><ele>371.28571428571433</ele><time>2026-04-04T10:00:59.54Z</time></trkpt><trkpt lat="43.0081433" lon="13.391675"><ele>372.85714285714283</ele><time>2026-04-04T10:01:01.541Z</time></trkpt><trkpt lat="43.008075" lon="13.39165"><ele>374.42857142857144</ele><time>2026-04-04T10:01:03.54Z</time></trkpt><trkpt lat="43.0080067" lon="13.3916217"><ele>376.0</ele><time>2026-04-04T10:01:06.54Z</time></trkpt><trkpt lat="43.00794" lon="13.3916183"><ele>376.0</ele><time>2026-04-04T10:01:09.54Z</time></trkpt><trkpt lat="43.0078567" lon="13.3916067"><ele>376.0</ele><time>2026-04-04T10:01:13.541Z</time></trkpt><trkpt lat="43.00779" lon="13.391595"><ele>376.0</ele><time>2026-04-04T10:01:19.54Z</time></trkpt><trkpt lat="43.0077233" lon="13.3915467"><ele>376.0</ele><time>2026-04-04T10:01:21.54Z</time></trkpt><trkpt lat="43.0076867" lon="13.3914583"><ele>376.0</ele><time>2026-04-04T10:01:23.54Z</time></trkpt><trkpt lat="43.0077067" lon="13.3913483"><ele>376.0</ele><time>2026-04-04T10:01:25.54Z</time></trkpt><trkpt lat="43.007775" lon="13.3912383"><ele>376.0</ele><time>2026-04-04T10:01:27.54Z</time></trkpt><trkpt lat="43.0078567" lon="13.3912217"><ele>376.0</ele><time>2026-04-04T10:01:30.54Z</time></trkpt><trkpt lat="43.0079233" lon="13.391275"><ele>376.0</ele><time>2026-04-04T10:01:32.54Z</time></trkpt><trkpt lat="43.0079917" lon="13.39134"><ele>376.0</ele><time>2026-04-04T10:01:34.54Z</time></trkpt><trkpt lat="43.0080567" lon="13.3913967"><ele>376.0</ele><time>2026-04-04T10:01:36.54Z</time></trkpt><trkpt lat="43.0081417" lon="13.391445"><ele>376.0</ele><time>2026-04-04T10:01:38.541Z</time></trkpt><trkpt lat="43.0082567" lon="13.391475"><ele>375.0</ele><time>2026-04-04T10:01:40.541Z</time></trkpt><trkpt lat="43.0083533" lon="13.3914817"><ele>374.0</ele><time>2026-04-04T10:01:42.54Z</time></trkpt><trkpt lat="43.00844" lon="13.391455"><ele>373.0</ele><time>2026-04-04T10:01:44.54Z</time></trkpt><trkpt lat="43.0085017" lon="13.3914283"><ele>372.0</ele><time>2026-04-04T10:01:46.54Z</time></trkpt><trkpt lat="43.0085317" lon="13.39134"><ele>371.0</ele><time>2026-04-04T10:01:49.541Z</time></trkpt><trkpt lat="43.0085433" lon="13.3912183"><ele>370.0</ele><time>2026-04-04T10:01:51.54Z</time></trkpt><trkpt lat="43.0085533" lon="13.391035"><ele>368.66666666666663</ele><time>2026-04-04T10:01:53.541Z</time></trkpt><trkpt lat="43.00856" lon="13.390945"><ele>367.3333333333333</ele><time>2026-04-04T10:01:54.541Z</time></trkpt><trkpt lat="43.008565" lon="13.3907983"><ele>366.0</ele><time>2026-04-04T10:01:56.54Z</time></trkpt><trkpt lat="43.00857" lon="13.3907033"><ele>364.6666666666667</ele><time>2026-04-04T10:01:57.541Z</time></trkpt><trkpt lat="43.0085817" lon="13.3905983"><ele>363.33333333333337</ele><time>2026-04-04T10:01:58.541Z</time></trkpt><trkpt lat="43.0085833" lon="13.3904883"><ele>362.0</ele><time>2026-04-04T10:01:59.541Z</time></trkpt><trkpt lat="43.0085867" lon="13.3904017"><ele>361.85714285714283</ele><time>2026-04-04T10:02:00.54Z</time></trkpt><trkpt lat="43.008595" lon="13.3902833"><ele>361.71428571428567</ele><time>2026-04-04T10:02:01.541Z</time></trkpt><trkpt lat="43.0086033" lon="13.3901733"><ele>361.57142857142856</ele><time>2026-04-04T10:02:02.541Z</time></trkpt><trkpt lat="43.0086183" lon="13.3900783"><ele>361.42857142857144</ele><time>2026-04-04T10:02:03.541Z</time></trkpt><trkpt lat="43.0086167" lon="13.389985"><ele>361.2857142857143</ele><time>2026-04-04T10:02:04.54Z</time></trkpt><trkpt lat="43.0086217" lon="13.3898917"><ele>361.14285714285717</ele><time>2026-04-04T10:02:05.541Z</time></trkpt><trkpt lat="43.0086167" lon="13.3898"><ele>361.0</ele><time>2026-04-04T10:02:06.54Z</time></trkpt><trkpt lat="43.0085967" lon="13.3897183"><ele>360.8333333333333</ele><time>2026-04-04T10:02:07.54Z</time></trkpt><trkpt lat="43.008575" lon="13.3896317"><ele>360.66666666666663</ele><time>2026-04-04T10:02:08.54Z</time></trkpt><trkpt lat="43.0085483" lon="13.38954"><ele>360.5</ele><time>2026-04-04T10:02:09.54Z</time></trkpt><trkpt lat="43.0085333" lon="13.38945"><ele>360.3333333333333</ele><time>2026-04-04T10:02:10.54Z</time></trkpt><trkpt lat="43.0085133" lon="13.3893033"><ele>360.1666666666667</ele><time>2026-04-04T10:02:12.54Z</time></trkpt><trkpt lat="43.0084933" lon="13.38921"><ele>360.0</ele><time>2026-04-04T10:02:14.54Z</time></trkpt><trkpt lat="43.0084933" lon="13.3891067"><ele>360.0</ele><time>2026-04-04T10:02:17.541Z</time></trkpt><trkpt lat="43.0085183" lon="13.3889983"><ele>360.0</ele><time>2026-04-04T10:02:19.54Z</time></trkpt><trkpt lat="43.00855" lon="13.38886"><ele>360.0</ele><time>2026-04-04T10:02:21.541Z</time></trkpt><trkpt lat="43.0085717" lon="13.3887133"><ele>360.0</ele><time>2026-04-04T10:02:23.54Z</time></trkpt><trkpt lat="43.0086" lon="13.3885433"><ele>360.0</ele><time>2026-04-04T10:02:25.541Z</time></trkpt><trkpt lat="43.008635" lon="13.3883867"><ele>360.2</ele><time>2026-04-04T10:02:27.541Z</time></trkpt><trkpt lat="43.0086617" lon="13.388305"><ele>360.4</ele><time>2026-04-04T10:02:28.541Z</time></trkpt><trkpt lat="43.0087" lon="13.3881483"><ele>360.6</ele><time>2026-04-04T10:02:30.541Z</time></trkpt><trkpt lat="43.0087533" lon="13.3879933"><ele>360.8</ele><time>2026-04-04T10:02:32.541Z</time></trkpt><trkpt lat="43.0087567" lon="13.3878417"><ele>361.0</ele><time>2026-04-04T10:02:34.54Z</time></trkpt><trkpt lat="43.0087817" lon="13.387685"><ele>362.3333333333333</ele><time>2026-04-04T10:02:36.541Z</time></trkpt><trkpt lat="43.0088233" lon="13.3875233"><ele>363.66666666666663</ele><time>2026-04-04T10:02:38.54Z</time></trkpt><trkpt lat="43.0088567" lon="13.3874383"><ele>365.0</ele><time>2026-04-04T10:02:39.541Z</time></trkpt><trkpt lat="43.0088967" lon="13.3873517"><ele>366.3333333333333</ele><time>2026-04-04T10:02:40.54Z</time></trkpt><trkpt lat="43.0089383" lon="13.38726"><ele>367.6666666666667</ele><time>2026-04-04T10:02:41.541Z</time></trkpt><trkpt lat="43.00898" lon="13.3871667"><ele>369.0</ele><time>2026-04-04T10:02:42.54Z</time></trkpt><trkpt lat="43.00902" lon="13.387075"><ele>370.3333333333333</ele><time>2026-04-04T10:02:43.54Z</time></trkpt><trkpt lat="43.0090533" lon="13.3869783"><ele>371.6666666666667</ele><time>2026-04-04T10:02:44.541Z</time></trkpt><trkpt lat="43.0090833" lon="13.386885"><ele>373.0</ele><time>2026-04-04T10:02:45.54Z</time></trkpt><trkpt lat="43.0090917" lon="13.386795"><ele>374.33333333333337</ele><time>2026-04-04T10:02:46.541Z</time></trkpt><trkpt lat="43.0091383" lon="13.3866183"><ele>375.6666666666667</ele><time>2026-04-04T10:02:48.541Z</time></trkpt><trkpt lat="43.0091517" lon="13.386505"><ele>377.0</ele><time>2026-04-04T10:02:49.541Z</time></trkpt><trkpt lat="43.00916" lon="13.3863983"><ele>373.5</ele><time>2026-04-04T10:02:50.541Z</time></trkpt><trkpt lat="43.00917" lon="13.3862883"><ele>370.0</ele><time>2026-04-04T10:02:51.541Z</time></trkpt><trkpt lat="43.0091883" lon="13.3861883"><ele>366.5</ele><time>2026-04-04T10:02:52.54Z</time></trkpt><trkpt lat="43.0092067" lon="13.38609"><ele>363.0</ele><time>2026-04-04T10:02:53.54Z</time></trkpt><trkpt lat="43.0092367" lon="13.385985"><ele>359.5</ele><time>2026-04-04T10:02:54.541Z</time></trkpt><trkpt lat="43.00926" lon="13.385875"><ele>356.0</ele><time>2026-04-04T10:02:55.54Z</time></trkpt><trkpt lat="43.009285" lon="13.3857767"><ele>355.99999999999994</ele><time>2026-04-04T10:02:56.54Z</time></trkpt><trkpt lat="43.009305" lon="13.3856767"><ele>356.0</ele><time>2026-04-04T10:02:57.541Z</time></trkpt><trkpt lat="43.0093217" lon="13.3855833"><ele>356.0</ele><time>2026-04-04T10:02:58.541Z</time></trkpt><trkpt lat="43.009335" lon="13.38549"><ele>356.0</ele><time>2026-04-04T10:02:59.54Z</time></trkpt><trkpt lat="43.0093467" lon="13.3853867"><ele>356.0</ele><time>2026-04-04T10:03:00.54Z</time></trkpt><trkpt lat="43.009355" lon="13.3852883"><ele>355.99999999999994</ele><time>2026-04-04T10:03:01.541Z</time></trkpt><trkpt lat="43.00936" lon="13.3852017"><ele>356.0</ele><time>2026-04-04T10:03:02.541Z</time></trkpt><trkpt lat="43.009385" lon="13.38507"><ele>356.20000000000005</ele><time>2026-04-04T10:03:04.54Z</time></trkpt><trkpt lat="43.00942" lon="13.38493"><ele>356.40000000000003</ele><time>2026-04-04T10:03:06.54Z</time></trkpt><trkpt lat="43.0094383" lon="13.38482"><ele>356.6</ele><time>2026-04-04T10:03:08.54Z</time></trkpt><trkpt lat="43.0094167" lon="13.3846783"><ele>356.8</ele><time>2026-04-04T10:03:11.539Z</time></trkpt><trkpt lat="43.0093467" lon="13.3845517"><ele>357.0</ele><time>2026-04-04T10:03:13.54Z</time></trkpt><trkpt lat="43.00929" lon="13.3844833"><ele>357.0</ele><time>2026-04-04T10:03:14.54Z</time></trkpt><trkpt lat="43.0092317" lon="13.3844233"><ele>357.0</ele><time>2026-04-04T10:03:15.539Z</time></trkpt><trkpt lat="43.009145" lon="13.3843267"><ele>357.0</ele><time>2026-04-04T10:03:17.539Z</time></trkpt><trkpt lat="43.0091083" lon="13.384255"><ele>357.0</ele><time>2026-04-04T10:03:18.539Z</time></trkpt><trkpt lat="43.00907" lon="13.384165"><ele>357.0</ele><time>2026-04-04T10:03:19.54Z</time></trkpt><trkpt lat="43.0090367" lon="13.3840717"><ele>357.0</ele><time>2026-04-04T10:03:20.539Z</time></trkpt><trkpt lat="43.0089983" lon="13.38398"><ele>357.5</ele><time>2026-04-04T10:03:21.539Z</time></trkpt><trkpt lat="43.00897" lon="13.3838883"><ele>358.0</ele><time>2026-04-04T10:03:22.54Z</time></trkpt><trkpt lat="43.0089367" lon="13.3837983"><ele>358.5</ele><time>2026-04-04T10:03:23.54Z</time></trkpt><trkpt lat="43.0088767" lon="13.383675"><ele>359.0</ele><time>2026-04-04T10:03:25.539Z</time></trkpt><trkpt lat="43.00883" lon="13.383605"><ele>359.5</ele><time>2026-04-04T10:03:27.54Z</time></trkpt><trkpt lat="43.0087417" lon="13.383595"><ele>360.0</ele><time>2026-04-04T10:03:30.54Z</time></trkpt><trkpt lat="43.008665" lon="13.3835883"><ele>360.0</ele><time>2026-04-04T10:03:33.539Z</time></trkpt><trkpt lat="43.0085917" lon="13.3835767"><ele>360.0</ele><time>2026-04-04T10:03:37.539Z</time></trkpt><trkpt lat="43.008505" lon="13.38353"><ele>360.0</ele><time>2026-04-04T10:03:42.54Z</time></trkpt><trkpt lat="43.0084433" lon="13.3834667"><ele>360.0</ele><time>2026-04-04T10:03:44.54Z</time></trkpt><trkpt lat="43.0083833" lon="13.38339"><ele>360.0</ele><time>2026-04-04T10:03:46.539Z</time></trkpt><trkpt lat="43.0083217" lon="13.3833333"><ele>360.0</ele><time>2026-04-04T10:03:48.539Z</time></trkpt><trkpt lat="43.008255" lon="13.383295"><ele>360.0</ele><time>2026-04-04T10:03:50.54Z</time></trkpt><trkpt lat="43.0081867" lon="13.3832533"><ele>360.0</ele><time>2026-04-04T10:03:52.539Z</time></trkpt><trkpt lat="43.00823" lon="13.3833267"><ele>360.0</ele><time>2026-04-04T10:08:08.539Z</time></trkpt><trkpt lat="43.008315" lon="13.3833767"><ele>360.0</ele><time>2026-04-04T10:08:11.539Z</time></trkpt><trkpt lat="43.008365" lon="13.383445"><ele>360.0</ele><time>2026-04-04T10:08:13.539Z</time></trkpt><trkpt lat="43.0084417" lon="13.383515"><ele>360.0</ele><time>2026-04-04T10:08:22.538Z</time></trkpt><trkpt lat="43.0085017" lon="13.3835533"><ele>360.0</ele><time>2026-04-04T10:08:25.538Z</time></trkpt><trkpt lat="43.0085717" lon="13.3835733"><ele>360.0</ele><time>2026-04-04T10:08:30.538Z</time></trkpt><trkpt lat="43.0086567" lon="13.3835933"><ele>360.0</ele><time>2026-04-04T10:08:33.539Z</time></trkpt><trkpt lat="43.0087267" lon="13.38363"><ele>360.0</ele><time>2026-04-04T10:08:35.539Z</time></trkpt><trkpt lat="43.008805" lon="13.383705"><ele>360.0</ele><time>2026-04-04T10:08:38.538Z</time></trkpt><trkpt lat="43.0088517" lon="13.3837733"><ele>360.0</ele><time>2026-04-04T10:08:40.538Z</time></trkpt><trkpt lat="43.008895" lon="13.3838367"><ele>359.5</ele><time>2026-04-04T10:08:42.538Z</time></trkpt><trkpt lat="43.0089367" lon="13.3839417"><ele>359.0</ele><time>2026-04-04T10:08:45.539Z</time></trkpt><trkpt lat="43.0089833" lon="13.3840433"><ele>358.5</ele><time>2026-04-04T10:08:48.539Z</time></trkpt><trkpt lat="43.00903" lon="13.3841233"><ele>358.0</ele><time>2026-04-04T10:08:50.538Z</time></trkpt><trkpt lat="43.00907" lon="13.3842133"><ele>357.5</ele><time>2026-04-04T10:08:52.538Z</time></trkpt><trkpt lat="43.00911" lon="13.384305"><ele>357.0</ele><time>2026-04-04T10:08:54.538Z</time></trkpt><trkpt lat="43.0091617" lon="13.3843883"><ele>357.0</ele><time>2026-04-04T10:08:56.539Z</time></trkpt><trkpt lat="43.0092133" lon="13.3844583"><ele>357.0</ele><time>2026-04-04T10:08:58.538Z</time></trkpt><trkpt lat="43.0092667" lon="13.3845367"><ele>357.0</ele><time>2026-04-04T10:09:00.538Z</time></trkpt><trkpt lat="43.0093183" lon="13.38463"><ele>357.0</ele><time>2026-04-04T10:09:02.538Z</time></trkpt><trkpt lat="43.0093433" lon="13.3847167"><ele>357.0</ele><time>2026-04-04T10:09:04.538Z</time></trkpt><trkpt lat="43.009345" lon="13.38482"><ele>357.0</ele><time>2026-04-04T10:09:06.539Z</time></trkpt><trkpt lat="43.00932" lon="13.38491"><ele>356.8333333333333</ele><time>2026-04-04T10:09:08.538Z</time></trkpt><trkpt lat="43.0092883" lon="13.3850067"><ele>356.6666666666667</ele><time>2026-04-04T10:09:11.538Z</time></trkpt><trkpt lat="43.0092633" lon="13.38512"><ele>356.5</ele><time>2026-04-04T10:09:14.538Z</time></trkpt><trkpt lat="43.00926" lon="13.38525"><ele>356.33333333333337</ele><time>2026-04-04T10:09:17.538Z</time></trkpt><trkpt lat="43.0092467" lon="13.38538"><ele>356.1666666666667</ele><time>2026-04-04T10:09:19.539Z</time></trkpt><trkpt lat="43.0092333" lon="13.38548"><ele>356.0</ele><time>2026-04-04T10:09:21.539Z</time></trkpt><trkpt lat="43.0092117" lon="13.38558"><ele>356.0</ele><time>2026-04-04T10:09:23.539Z</time></trkpt><trkpt lat="43.00919" lon="13.3856983"><ele>356.0</ele><time>2026-04-04T10:09:25.538Z</time></trkpt><trkpt lat="43.0091733" lon="13.38583"><ele>356.0</ele><time>2026-04-04T10:09:27.539Z</time></trkpt><trkpt lat="43.0091683" lon="13.3859667"><ele>356.0</ele><time>2026-04-04T10:09:29.539Z</time></trkpt><trkpt lat="43.009155" lon="13.3860917"><ele>356.0</ele><time>2026-04-04T10:09:31.538Z</time></trkpt><trkpt lat="43.0091033" lon="13.3862433"><ele>360.20000000000005</ele><time>2026-04-04T10:09:33.539Z</time></trkpt><trkpt lat="43.0090883" lon="13.386375"><ele>364.40000000000003</ele><time>2026-04-04T10:09:35.539Z</time></trkpt><trkpt lat="43.0090733" lon="13.3865133"><ele>368.6</ele><time>2026-04-04T10:09:37.538Z</time></trkpt><trkpt lat="43.0090567" lon="13.3866533"><ele>372.8</ele><time>2026-04-04T10:09:39.539Z</time></trkpt><trkpt lat="43.009015" lon="13.38679"><ele>377.0</ele><time>2026-04-04T10:09:41.538Z</time></trkpt><trkpt lat="43.0089583" lon="13.386925"><ele>377.0</ele><time>2026-04-04T10:09:43.538Z</time></trkpt><trkpt lat="43.0089017" lon="13.38705"><ele>377.0</ele><time>2026-04-04T10:09:45.538Z</time></trkpt><trkpt lat="43.0088367" lon="13.3871817"><ele>377.0</ele><time>2026-04-04T10:09:47.537Z</time></trkpt><trkpt lat="43.0088067" lon="13.3872583"><ele>377.0</ele><time>2026-04-04T10:09:48.537Z</time></trkpt><trkpt lat="43.0087683" lon="13.3873433"><ele>377.0</ele><time>2026-04-04T10:09:49.538Z</time></trkpt><trkpt lat="43.008735" lon="13.3874183"><ele>377.0</ele><time>2026-04-04T10:09:50.538Z</time></trkpt><trkpt lat="43.008675" lon="13.387555"><ele>375.40000000000003</ele><time>2026-04-04T10:09:52.537Z</time></trkpt><trkpt lat="43.00864" lon="13.3876967"><ele>373.8</ele><time>2026-04-04T10:09:54.538Z</time></trkpt><trkpt lat="43.0086167" lon="13.3878417"><ele>372.2</ele><time>2026-04-04T10:09:56.537Z</time></trkpt><trkpt lat="43.0086033" lon="13.38797"><ele>370.6</ele><time>2026-04-04T10:09:58.538Z</time></trkpt><trkpt lat="43.0085917" lon="13.3881083"><ele>369.0</ele><time>2026-04-04T10:10:00.537Z</time></trkpt><trkpt lat="43.0085667" lon="13.3882433"><ele>367.6666666666667</ele><time>2026-04-04T10:10:02.538Z</time></trkpt><trkpt lat="43.0085617" lon="13.3883367"><ele>366.3333333333333</ele><time>2026-04-04T10:10:04.537Z</time></trkpt><trkpt lat="43.00855" lon="13.3884417"><ele>365.0</ele><time>2026-04-04T10:10:07.537Z</time></trkpt><trkpt lat="43.0085383" lon="13.3885683"><ele>363.66666666666663</ele><time>2026-04-04T10:10:10.538Z</time></trkpt><trkpt lat="43.0085383" lon="13.3886817"><ele>362.3333333333333</ele><time>2026-04-04T10:10:12.537Z</time></trkpt><trkpt lat="43.0085233" lon="13.3887817"><ele>361.0</ele><time>2026-04-04T10:10:14.537Z</time></trkpt><trkpt lat="43.0085167" lon="13.3888733"><ele>360.8333333333333</ele><time>2026-04-04T10:10:16.538Z</time></trkpt><trkpt lat="43.0085" lon="13.3889783"><ele>360.66666666666663</ele><time>2026-04-04T10:10:18.538Z</time></trkpt><trkpt lat="43.008475" lon="13.38907"><ele>360.5</ele><time>2026-04-04T10:10:20.538Z</time></trkpt><trkpt lat="43.0084633" lon="13.389165"><ele>360.3333333333333</ele><time>2026-04-04T10:10:22.537Z</time></trkpt><trkpt lat="43.008455" lon="13.3892783"><ele>360.1666666666667</ele><time>2026-04-04T10:10:24.538Z</time></trkpt><trkpt lat="43.0084583" lon="13.389405"><ele>360.0</ele><time>2026-04-04T10:10:26.537Z</time></trkpt><trkpt lat="43.0085" lon="13.3895617"><ele>360.0</ele><time>2026-04-04T10:10:28.538Z</time></trkpt><trkpt lat="43.0085333" lon="13.3896483"><ele>360.0</ele><time>2026-04-04T10:10:29.537Z</time></trkpt><trkpt lat="43.008565" lon="13.389735"><ele>360.0</ele><time>2026-04-04T10:10:30.537Z</time></trkpt><trkpt lat="43.0085917" lon="13.3898833"><ele>360.0</ele><time>2026-04-04T10:10:32.537Z</time></trkpt><trkpt lat="43.0085883" lon="13.3900317"><ele>360.0</ele><time>2026-04-04T10:10:34.538Z</time></trkpt><trkpt lat="43.0085783" lon="13.390205"><ele>360.1428571428571</ele><time>2026-04-04T10:10:36.538Z</time></trkpt><trkpt lat="43.0085733" lon="13.3903033"><ele>360.28571428571433</ele><time>2026-04-04T10:10:37.538Z</time></trkpt><trkpt lat="43.0085717" lon="13.390395"><ele>360.42857142857144</ele><time>2026-04-04T10:10:38.537Z</time></trkpt><trkpt lat="43.0085683" lon="13.3904883"><ele>360.57142857142856</ele><time>2026-04-04T10:10:39.537Z</time></trkpt><trkpt lat="43.0085717" lon="13.390585"><ele>360.71428571428567</ele><time>2026-04-04T10:10:40.537Z</time></trkpt><trkpt lat="43.0085733" lon="13.3906867"><ele>360.8571428571429</ele><time>2026-04-04T10:10:41.537Z</time></trkpt><trkpt lat="43.0085717" lon="13.3908"><ele>361.0</ele><time>2026-04-04T10:10:42.537Z</time></trkpt><trkpt lat="43.0085683" lon="13.3909267"><ele>361.16666666666663</ele><time>2026-04-04T10:10:43.538Z</time></trkpt><trkpt lat="43.0085633" lon="13.3910417"><ele>361.3333333333333</ele><time>2026-04-04T10:10:44.538Z</time></trkpt><trkpt lat="43.0085617" lon="13.39114"><ele>361.5</ele><time>2026-04-04T10:10:45.537Z</time></trkpt><trkpt lat="43.008545" lon="13.391285"><ele>361.6666666666667</ele><time>2026-04-04T10:10:47.538Z</time></trkpt><trkpt lat="43.0085" lon="13.3913617"><ele>361.83333333333337</ele><time>2026-04-04T10:10:49.537Z</time></trkpt><trkpt lat="43.0084083" lon="13.3913967"><ele>362.0</ele><time>2026-04-04T10:10:51.538Z</time></trkpt><trkpt lat="43.0082867" lon="13.3914067"><ele>364.33333333333337</ele><time>2026-04-04T10:10:53.538Z</time></trkpt><trkpt lat="43.0082167" lon="13.3914033"><ele>366.6666666666667</ele><time>2026-04-04T10:10:54.538Z</time></trkpt><trkpt lat="43.0081317" lon="13.3913817"><ele>369.0</ele><time>2026-04-04T10:10:55.538Z</time></trkpt><trkpt lat="43.008055" lon="13.3913467"><ele>371.3333333333333</ele><time>2026-04-04T10:10:56.537Z</time></trkpt><trkpt lat="43.00798" lon="13.3913"><ele>373.66666666666663</ele><time>2026-04-04T10:10:57.537Z</time></trkpt><trkpt lat="43.0079167" lon="13.3912517"><ele>376.0</ele><time>2026-04-04T10:10:58.538Z</time></trkpt><trkpt lat="43.0078333" lon="13.3911617"><ele>376.0</ele><time>2026-04-04T10:11:00.537Z</time></trkpt><trkpt lat="43.0077433" lon="13.3912017"><ele>376.0</ele><time>2026-04-04T10:11:15.537Z</time></trkpt><trkpt lat="43.0076833" lon="13.3913383"><ele>376.0</ele><time>2026-04-04T10:11:17.537Z</time></trkpt><trkpt lat="43.0076383" lon="13.3914483"><ele>376.0</ele><time>2026-04-04T10:11:19.538Z</time></trkpt><trkpt lat="43.0075517" lon="13.3914567"><ele>376.0</ele><time>2026-04-04T10:11:37.537Z</time></trkpt><trkpt lat="43.00757" lon="13.39128"><ele>376.6</ele><time>2026-04-04T10:11:40.537Z</time></trkpt><trkpt lat="43.0076" lon="13.3911667"><ele>377.20000000000005</ele><time>2026-04-04T10:11:41.537Z</time></trkpt><trkpt lat="43.007625" lon="13.3910333"><ele>377.79999999999995</ele><time>2026-04-04T10:11:42.537Z</time></trkpt><trkpt lat="43.0076383" lon="13.390885"><ele>378.4</ele><time>2026-04-04T10:11:43.537Z</time></trkpt><trkpt lat="43.0076467" lon="13.3907283"><ele>379.0</ele><time>2026-04-04T10:11:44.538Z</time></trkpt><trkpt lat="43.0076333" lon="13.3905633"><ele>378.75</ele><time>2026-04-04T10:11:45.537Z</time></trkpt><trkpt lat="43.0076017" lon="13.3903933"><ele>378.5</ele><time>2026-04-04T10:11:46.538Z</time></trkpt><trkpt lat="43.0075567" lon="13.3902333"><ele>378.25</ele><time>2026-04-04T10:11:47.537Z</time></trkpt><trkpt lat="43.00752" lon="13.3900717"><ele>378.0</ele><time>2026-04-04T10:11:48.537Z</time></trkpt><trkpt lat="43.0074783" lon="13.389915"><ele>382.25</ele><time>2026-04-04T10:11:49.537Z</time></trkpt><trkpt lat="43.007435" lon="13.3897617"><ele>386.5</ele><time>2026-04-04T10:11:50.538Z</time></trkpt><trkpt lat="43.0074083" lon="13.3896"><ele>390.75</ele><time>2026-04-04T10:11:51.538Z</time></trkpt><trkpt lat="43.0073917" lon="13.389425"><ele>395.0</ele><time>2026-04-04T10:11:52.537Z</time></trkpt><trkpt lat="43.0073917" lon="13.389255"><ele>395.75</ele><time>2026-04-04T10:11:53.537Z</time></trkpt><trkpt lat="43.00739" lon="13.38908"><ele>396.5</ele><time>2026-04-04T10:11:54.538Z</time></trkpt><trkpt lat="43.0073967" lon="13.3889017"><ele>397.25</ele><time>2026-04-04T10:11:55.538Z</time></trkpt><trkpt lat="43.0074233" lon="13.388705"><ele>398.0</ele><time>2026-04-04T10:11:56.538Z</time></trkpt><trkpt lat="43.007455" lon="13.38851"><ele>398.75</ele><time>2026-04-04T10:11:57.538Z</time></trkpt><trkpt lat="43.0074917" lon="13.3883183"><ele>399.5</ele><time>2026-04-04T10:11:58.537Z</time></trkpt><trkpt lat="43.007535" lon="13.38812"><ele>400.25</ele><time>2026-04-04T10:11:59.537Z</time></trkpt><trkpt lat="43.00758" lon="13.3879217"><ele>401.0</ele><time>2026-04-04T10:12:00.538Z</time></trkpt><trkpt lat="43.007635" lon="13.3877433"><ele>399.25</ele><time>2026-04-04T10:12:01.537Z</time></trkpt><trkpt lat="43.0076983" lon="13.38757"><ele>397.5</ele><time>2026-04-04T10:12:02.538Z</time></trkpt><trkpt lat="43.0077667" lon="13.3873933"><ele>395.75</ele><time>2026-04-04T10:12:03.537Z</time></trkpt><trkpt lat="43.0078217" lon="13.387215"><ele>394.0</ele><time>2026-04-04T10:12:04.537Z</time></trkpt><trkpt lat="43.0078733" lon="13.3870283"><ele>394.0</ele><time>2026-04-04T10:12:05.537Z</time></trkpt><trkpt lat="43.0079167" lon="13.38683"><ele>394.0</ele><time>2026-04-04T10:12:06.537Z</time></trkpt><trkpt lat="43.007965" lon="13.3866267"><ele>394.0</ele><time>2026-04-04T10:12:07.537Z</time></trkpt><trkpt lat="43.0080067" lon="13.3864283"><ele>394.75</ele><time>2026-04-04T10:12:08.538Z</time></trkpt><trkpt lat="43.0080617" lon="13.38624"><ele>395.5</ele><time>2026-04-04T10:12:09.538Z</time></trkpt><trkpt lat="43.0081133" lon="13.3860667"><ele>396.25</ele><time>2026-04-04T10:12:10.537Z</time></trkpt><trkpt lat="43.0081583" lon="13.38589"><ele>397.0</ele><time>2026-04-04T10:12:11.537Z</time></trkpt><trkpt lat="43.0082" lon="13.385705"><ele>397.0</ele><time>2026-04-04T10:12:12.538Z</time></trkpt><trkpt lat="43.0082133" lon="13.3855167"><ele>397.0</ele><time>2026-04-04T10:12:13.538Z</time></trkpt><trkpt lat="43.00819" lon="13.38532"><ele>397.0</ele><time>2026-04-04T10:12:14.537Z</time></trkpt><trkpt lat="43.00815" lon="13.38513"><ele>397.0</ele><time>2026-04-04T10:12:15.537Z</time></trkpt><trkpt lat="43.008095" lon="13.3849567"><ele>397.0</ele><time>2026-04-04T10:12:16.537Z</time></trkpt><trkpt lat="43.008015" lon="13.3847917"><ele>397.0</ele><time>2026-04-04T10:12:17.538Z</time></trkpt><trkpt lat="43.0079333" lon="13.38464"><ele>397.0</ele><time>2026-04-04T10:12:18.537Z</time></trkpt><trkpt lat="43.0078333" lon="13.3845083"><ele>397.0</ele><time>2026-04-04T10:12:19.537Z</time></trkpt><trkpt lat="43.0077317" lon="13.384375"><ele>397.5</ele><time>2026-04-04T10:12:20.538Z</time></trkpt><trkpt lat="43.0076233" lon="13.38424"><ele>398.0</ele><time>2026-04-04T10:12:21.537Z</time></trkpt><trkpt lat="43.0075183" lon="13.3841033"><ele>398.5</ele><time>2026-04-04T10:12:22.537Z</time></trkpt><trkpt lat="43.007415" lon="13.3839733"><ele>399.0</ele><time>2026-04-04T10:12:23.537Z</time></trkpt><trkpt lat="43.0073167" lon="13.3838417"><ele>399.0</ele><time>2026-04-04T10:12:24.538Z</time></trkpt><trkpt lat="43.0072133" lon="13.3837117"><ele>399.0</ele><time>2026-04-04T10:12:25.538Z</time></trkpt><trkpt lat="43.007125" lon="13.3835767"><ele>399.0</ele><time>2026-04-04T10:12:26.537Z</time></trkpt><trkpt lat="43.007015" lon="13.3834567"><ele>399.0</ele><time>2026-04-04T10:12:27.538Z</time></trkpt><trkpt lat="43.0069217" lon="13.3833333"><ele>399.0</ele><time>2026-04-04T10:12:28.538Z</time></trkpt><trkpt lat="43.0068017" lon="13.3832317"><ele>399.0</ele><time>2026-04-04T10:12:29.537Z</time></trkpt><trkpt lat="43.0066933" lon="13.3831283"><ele>399.0</ele><time>2026-04-04T10:12:30.537Z</time></trkpt><trkpt lat="43.00658" lon="13.3830483"><ele>399.0</ele><time>2026-04-04T10:12:31.537Z</time></trkpt><trkpt lat="43.0064367" lon="13.3829733"><ele>398.75</ele><time>2026-04-04T10:12:32.538Z</time></trkpt><trkpt lat="43.0063217" lon="13.3828783"><ele>398.5</ele><time>2026-04-04T10:12:33.537Z</time></trkpt><trkpt lat="43.0062083" lon="13.3827817"><ele>398.25</ele><time>2026-04-04T10:12:34.537Z</time></trkpt><trkpt lat="43.0061" lon="13.3826833"><ele>398.0</ele><time>2026-04-04T10:12:35.538Z</time></trkpt><trkpt lat="43.0059867" lon="13.3825783"><ele>398.0</ele><time>2026-04-04T10:12:36.537Z</time></trkpt><trkpt lat="43.00588" lon="13.3824633"><ele>398.0</ele><time>2026-04-04T10:12:37.537Z</time></trkpt><trkpt lat="43.0057867" lon="13.3823367"><ele>398.0</ele><time>2026-04-04T10:12:38.538Z</time></trkpt><trkpt lat="43.00571" lon="13.382185"><ele>398.0</ele><time>2026-04-04T10:12:39.538Z</time></trkpt><trkpt lat="43.0056233" lon="13.3820367"><ele>399.25</ele><time>2026-04-04T10:12:40.537Z</time></trkpt><trkpt lat="43.00554" lon="13.3818833"><ele>400.5</ele><time>2026-04-04T10:12:41.538Z</time></trkpt><trkpt lat="43.0054517" lon="13.381735"><ele>401.75</ele><time>2026-04-04T10:12:42.538Z</time></trkpt><trkpt lat="43.0053567" lon="13.3815917"><ele>403.0</ele><time>2026-04-04T10:12:43.537Z</time></trkpt><trkpt lat="43.0052483" lon="13.3814583"><ele>402.0</ele><time>2026-04-04T10:12:44.537Z</time></trkpt><trkpt lat="43.0051367" lon="13.381325"><ele>401.0</ele><time>2026-04-04T10:12:45.538Z</time></trkpt><trkpt lat="43.0050367" lon="13.3812067"><ele>400.0</ele><time>2026-04-04T10:12:46.537Z</time></trkpt><trkpt lat="43.0049417" lon="13.3811083"><ele>399.0</ele><time>2026-04-04T10:12:47.537Z</time></trkpt><trkpt lat="43.0048533" lon="13.3810133"><ele>399.0</ele><time>2026-04-04T10:12:48.538Z</time></trkpt><trkpt lat="43.0047483" lon="13.3809367"><ele>399.0</ele><time>2026-04-04T10:12:49.538Z</time></trkpt><trkpt lat="43.0046533" lon="13.3808683"><ele>399.0</ele><time>2026-04-04T10:12:50.537Z</time></trkpt><trkpt lat="43.0045667" lon="13.380805"><ele>399.0</ele><time>2026-04-04T10:12:51.538Z</time></trkpt><trkpt lat="43.004485" lon="13.3807467"><ele>399.0</ele><time>2026-04-04T10:12:52.538Z</time></trkpt><trkpt lat="43.004415" lon="13.3806783"><ele>399.0</ele><time>2026-04-04T10:12:53.538Z</time></trkpt><trkpt lat="43.0043617" lon="13.3805933"><ele>399.0</ele><time>2026-04-04T10:12:54.537Z</time></trkpt><trkpt lat="43.0043217" lon="13.380505"><ele>399.0</ele><time>2026-04-04T10:12:55.537Z</time></trkpt><trkpt lat="43.0043133" lon="13.3803383"><ele>399.0</ele><time>2026-04-04T10:12:57.538Z</time></trkpt><trkpt lat="43.0043433" lon="13.3802567"><ele>399.0</ele><time>2026-04-04T10:12:58.538Z</time></trkpt><trkpt lat="43.0043983" lon="13.3802033"><ele>399.0</ele><time>2026-04-04T10:12:59.537Z</time></trkpt><trkpt lat="43.0044833" lon="13.3801767"><ele>396.4</ele><time>2026-04-04T10:13:00.538Z</time></trkpt><trkpt lat="43.0045783" lon="13.3801533"><ele>393.79999999999995</ele><time>2026-04-04T10:13:01.538Z</time></trkpt><trkpt lat="43.0046817" lon="13.3801183"><ele>391.20000000000005</ele><time>2026-04-04T10:13:02.538Z</time></trkpt><trkpt lat="43.0047733" lon="13.3800767"><ele>388.6</ele><time>2026-04-04T10:13:03.538Z</time></trkpt><trkpt lat="43.00486" lon="13.380025"><ele>386.0</ele><time>2026-04-04T10:13:04.537Z</time></trkpt><trkpt lat="43.004935" lon="13.3799233"><ele>385.0</ele><time>2026-04-04T10:13:05.538Z</time></trkpt><trkpt lat="43.0049983" lon="13.37979"><ele>384.0</ele><time>2026-04-04T10:13:06.537Z</time></trkpt><trkpt lat="43.00503" lon="13.3796467"><ele>383.0</ele><time>2026-04-04T10:13:07.538Z</time></trkpt><trkpt lat="43.0050383" lon="13.379505"><ele>382.0</ele><time>2026-04-04T10:13:08.537Z</time></trkpt><trkpt lat="43.005035" lon="13.379345"><ele>381.0</ele><time>2026-04-04T10:13:09.537Z</time></trkpt><trkpt lat="43.0050417" lon="13.3791867"><ele>377.75</ele><time>2026-04-04T10:13:10.538Z</time></trkpt><trkpt lat="43.0050517" lon="13.37903"><ele>374.5</ele><time>2026-04-04T10:13:11.537Z</time></trkpt><trkpt lat="43.0050783" lon="13.3788783"><ele>371.25</ele><time>2026-04-04T10:13:12.537Z</time></trkpt><trkpt lat="43.0051183" lon="13.3787233"><ele>368.0</ele><time>2026-04-04T10:13:13.538Z</time></trkpt><trkpt lat="43.0051683" lon="13.3785683"><ele>367.1666666666667</ele><time>2026-04-04T10:13:14.537Z</time></trkpt><trkpt lat="43.0051967" lon="13.3784333"><ele>366.33333333333337</ele><time>2026-04-04T10:13:15.537Z</time></trkpt><trkpt lat="43.0052217" lon="13.37833"><ele>365.5</ele><time>2026-04-04T10:13:16.536Z</time></trkpt><trkpt lat="43.0052583" lon="13.3782533"><ele>364.6666666666667</ele><time>2026-04-04T10:13:17.536Z</time></trkpt><trkpt lat="43.0053367" lon="13.3781833"><ele>363.8333333333333</ele><time>2026-04-04T10:13:19.537Z</time></trkpt><trkpt lat="43.0054" lon="13.3782133"><ele>363.0</ele><time>2026-04-04T10:13:20.536Z</time></trkpt><trkpt lat="43.0054733" lon="13.3783"><ele>363.0</ele><time>2026-04-04T10:13:21.536Z</time></trkpt><trkpt lat="43.0055817" lon="13.3783867"><ele>363.0</ele><time>2026-04-04T10:13:22.536Z</time></trkpt><trkpt lat="43.0057133" lon="13.37848"><ele>363.0</ele><time>2026-04-04T10:13:23.537Z</time></trkpt><trkpt lat="43.0058567" lon="13.3785783"><ele>363.0</ele><time>2026-04-04T10:13:24.536Z</time></trkpt><trkpt lat="43.0059817" lon="13.3786617"><ele>362.0</ele><time>2026-04-04T10:13:25.536Z</time></trkpt><trkpt lat="43.00609" lon="13.3787483"><ele>361.0</ele><time>2026-04-04T10:13:26.536Z</time></trkpt><trkpt lat="43.0061933" lon="13.3788333"><ele>360.0</ele><time>2026-04-04T10:13:27.536Z</time></trkpt><trkpt lat="43.0062783" lon="13.378915"><ele>359.0</ele><time>2026-04-04T10:13:28.537Z</time></trkpt><trkpt lat="43.0063583" lon="13.378975"><ele>358.0</ele><time>2026-04-04T10:13:29.536Z</time></trkpt><trkpt lat="43.0064333" lon="13.3790217"><ele>358.0</ele><time>2026-04-04T10:13:30.536Z</time></trkpt><trkpt lat="43.0065017" lon="13.37906"><ele>358.0</ele><time>2026-04-04T10:13:31.536Z</time></trkpt><trkpt lat="43.0066017" lon="13.379095"><ele>358.0</ele><time>2026-04-04T10:13:33.536Z</time></trkpt><trkpt lat="43.0066667" lon="13.3791167"><ele>358.0</ele><time>2026-04-04T10:13:36.536Z</time></trkpt><trkpt lat="43.006725" lon="13.379155"><ele>358.0</ele><time>2026-04-04T10:14:11.537Z</time></trkpt><trkpt lat="43.0068033" lon="13.379155"><ele>358.0</ele><time>2026-04-04T10:14:15.536Z</time></trkpt><trkpt lat="43.0068783" lon="13.3791617"><ele>357.79999999999995</ele><time>2026-04-04T10:14:17.537Z</time></trkpt><trkpt lat="43.0069733" lon="13.379135"><ele>357.6</ele><time>2026-04-04T10:14:19.537Z</time></trkpt><trkpt lat="43.0070733" lon="13.37908"><ele>357.4</ele><time>2026-04-04T10:14:21.536Z</time></trkpt><trkpt lat="43.0071317" lon="13.3790417"><ele>357.20000000000005</ele><time>2026-04-04T10:14:22.536Z</time></trkpt><trkpt lat="43.007215" lon="13.3789367"><ele>357.0</ele><time>2026-04-04T10:14:24.536Z</time></trkpt><trkpt lat="43.007235" lon="13.3787717"><ele>356.6</ele><time>2026-04-04T10:14:26.537Z</time></trkpt><trkpt lat="43.007205" lon="13.3786817"><ele>356.20000000000005</ele><time>2026-04-04T10:14:27.537Z</time></trkpt><trkpt lat="43.007155" lon="13.3785683"><ele>355.8</ele><time>2026-04-04T10:14:28.537Z</time></trkpt><trkpt lat="43.0070833" lon="13.3784417"><ele>355.4</ele><time>2026-04-04T10:14:29.537Z</time></trkpt><trkpt lat="43.0070183" lon="13.3783317"><ele>355.0</ele><time>2026-04-04T10:14:30.536Z</time></trkpt><trkpt lat="43.0069433" lon="13.3782233"><ele>355.0</ele><time>2026-04-04T10:14:31.537Z</time></trkpt><trkpt lat="43.0068833" lon="13.378115"><ele>355.0</ele><time>2026-04-04T10:14:32.537Z</time></trkpt><trkpt lat="43.0068283" lon="13.3779933"><ele>355.0</ele><time>2026-04-04T10:14:33.536Z</time></trkpt><trkpt lat="43.0067467" lon="13.3779033"><ele>355.0</ele><time>2026-04-04T10:14:34.536Z</time></trkpt><trkpt lat="43.0066733" lon="13.37781"><ele>355.0</ele><time>2026-04-04T10:14:35.537Z</time></trkpt><trkpt lat="43.0065917" lon="13.3777417"><ele>355.0</ele><time>2026-04-04T10:14:36.536Z</time></trkpt><trkpt lat="43.0065317" lon="13.3776783"><ele>355.0</ele><time>2026-04-04T10:14:37.537Z</time></trkpt><trkpt lat="43.006465" lon="13.3775717"><ele>355.0</ele><time>2026-04-04T10:14:39.537Z</time></trkpt><trkpt lat="43.00645" lon="13.37748"><ele>355.0</ele><time>2026-04-04T10:14:42.537Z</time></trkpt><trkpt lat="43.0064883" lon="13.3774017"><ele>355.0</ele><time>2026-04-04T10:15:06.536Z</time></trkpt><trkpt lat="43.0065117" lon="13.3773217"><ele>355.0</ele><time>2026-04-04T10:15:07.536Z</time></trkpt><trkpt lat="43.0065417" lon="13.3772417"><ele>355.0</ele><time>2026-04-04T10:15:08.536Z</time></trkpt><trkpt lat="43.006595" lon="13.3771417"><ele>356.16666666666663</ele><time>2026-04-04T10:15:09.537Z</time></trkpt><trkpt lat="43.0066567" lon="13.3770483"><ele>357.3333333333333</ele><time>2026-04-04T10:15:10.537Z</time></trkpt><trkpt lat="43.0067183" lon="13.376955"><ele>358.5</ele><time>2026-04-04T10:15:11.537Z</time></trkpt><trkpt lat="43.0067783" lon="13.3768683"><ele>359.6666666666667</ele><time>2026-04-04T10:15:12.537Z</time></trkpt><trkpt lat="43.00682" lon="13.3767783"><ele>360.83333333333337</ele><time>2026-04-04T10:15:13.536Z</time></trkpt><trkpt lat="43.0068567" lon="13.3766733"><ele>362.0</ele><time>2026-04-04T10:15:14.536Z</time></trkpt><trkpt lat="43.0068767" lon="13.3765767"><ele>362.40000000000003</ele><time>2026-04-04T10:15:15.537Z</time></trkpt><trkpt lat="43.0068417" lon="13.3764033"><ele>362.8</ele><time>2026-04-04T10:15:17.536Z</time></trkpt><trkpt lat="43.0068067" lon="13.3762933"><ele>363.2</ele><time>2026-04-04T10:15:18.537Z</time></trkpt><trkpt lat="43.006755" lon="13.3761817"><ele>363.6</ele><time>2026-04-04T10:15:19.536Z</time></trkpt><trkpt lat="43.00669" lon="13.376065"><ele>364.0</ele><time>2026-04-04T10:15:20.536Z</time></trkpt><trkpt lat="43.0066517" lon="13.3759283"><ele>366.0</ele><time>2026-04-04T10:15:21.537Z</time></trkpt><trkpt lat="43.0066233" lon="13.37578"><ele>368.0</ele><time>2026-04-04T10:15:22.536Z</time></trkpt><trkpt lat="43.006595" lon="13.3756267"><ele>370.0</ele><time>2026-04-04T10:15:23.536Z</time></trkpt><trkpt lat="43.00657" lon="13.3754917"><ele>372.0</ele><time>2026-04-04T10:15:24.536Z</time></trkpt><trkpt lat="43.0065333" lon="13.375385"><ele>374.0</ele><time>2026-04-04T10:15:25.536Z</time></trkpt><trkpt lat="43.006485" lon="13.3753"><ele>375.83333333333337</ele><time>2026-04-04T10:15:26.537Z</time></trkpt><trkpt lat="43.006425" lon="13.3752417"><ele>377.6666666666667</ele><time>2026-04-04T10:15:27.537Z</time></trkpt><trkpt lat="43.0063567" lon="13.3751783"><ele>379.5</ele><time>2026-04-04T10:15:28.536Z</time></trkpt><trkpt lat="43.0062817" lon="13.3751117"><ele>381.33333333333337</ele><time>2026-04-04T10:15:29.537Z</time></trkpt><trkpt lat="43.00621" lon="13.37502"><ele>383.1666666666667</ele><time>2026-04-04T10:15:30.536Z</time></trkpt><trkpt lat="43.006145" lon="13.3749183"><ele>385.0</ele><time>2026-04-04T10:15:31.537Z</time></trkpt><trkpt lat="43.00609" lon="13.3748017"><ele>386.5</ele><time>2026-04-04T10:15:32.537Z</time></trkpt><trkpt lat="43.0060367" lon="13.3746767"><ele>388.0</ele><time>2026-04-04T10:15:33.536Z</time></trkpt><trkpt lat="43.00599" lon="13.3745317"><ele>389.5</ele><time>2026-04-04T10:15:34.536Z</time></trkpt><trkpt lat="43.0059583" lon="13.3743733"><ele>391.0</ele><time>2026-04-04T10:15:35.536Z</time></trkpt><trkpt lat="43.0059467" lon="13.3742033"><ele>391.0</ele><time>2026-04-04T10:15:36.536Z</time></trkpt><trkpt lat="43.00593" lon="13.374035"><ele>391.0</ele><time>2026-04-04T10:15:37.537Z</time></trkpt><trkpt lat="43.0059133" lon="13.3738717"><ele>391.0</ele><time>2026-04-04T10:15:38.537Z</time></trkpt><trkpt lat="43.00589" lon="13.3737033"><ele>391.0</ele><time>2026-04-04T10:15:39.536Z</time></trkpt><trkpt lat="43.0058867" lon="13.373535"><ele>392.5</ele><time>2026-04-04T10:15:40.537Z</time></trkpt><trkpt lat="43.0058817" lon="13.37337"><ele>394.0</ele><time>2026-04-04T10:15:41.537Z</time></trkpt><trkpt lat="43.0058733" lon="13.373205"><ele>395.5</ele><time>2026-04-04T10:15:42.536Z</time></trkpt><trkpt lat="43.0058483" lon="13.3730217"><ele>397.0</ele><time>2026-04-04T10:15:43.536Z</time></trkpt><trkpt lat="43.0058167" lon="13.3728467"><ele>398.25</ele><time>2026-04-04T10:15:44.536Z</time></trkpt><trkpt lat="43.00579" lon="13.3726633"><ele>399.5</ele><time>2026-04-04T10:15:45.536Z</time></trkpt><trkpt lat="43.0057683" lon="13.372465"><ele>400.75</ele><time>2026-04-04T10:15:46.536Z</time></trkpt><trkpt lat="43.005745" lon="13.3722683"><ele>402.0</ele><time>2026-04-04T10:15:47.537Z</time></trkpt><trkpt lat="43.0057283" lon="13.3720817"><ele>402.8</ele><time>2026-04-04T10:15:48.537Z</time></trkpt><trkpt lat="43.00571" lon="13.371915"><ele>403.6</ele><time>2026-04-04T10:15:49.536Z</time></trkpt><trkpt lat="43.0056883" lon="13.3717617"><ele>404.40000000000003</ele><time>2026-04-04T10:15:50.536Z</time></trkpt><trkpt lat="43.005645" lon="13.37163"><ele>405.20000000000005</ele><time>2026-04-04T10:15:51.537Z</time></trkpt><trkpt lat="43.0055883" lon="13.3715167"><ele>406.0</ele><time>2026-04-04T10:15:52.537Z</time></trkpt><trkpt lat="43.0055067" lon="13.371425"><ele>406.0</ele><time>2026-04-04T10:15:53.536Z</time></trkpt><trkpt lat="43.0054067" lon="13.3713633"><ele>406.0</ele><time>2026-04-04T10:15:54.536Z</time></trkpt><trkpt lat="43.0052783" lon="13.371335"><ele>406.0</ele><time>2026-04-04T10:15:55.536Z</time></trkpt><trkpt lat="43.0051183" lon="13.3713283"><ele>406.0</ele><time>2026-04-04T10:15:56.536Z</time></trkpt><trkpt lat="43.0049867" lon="13.3713"><ele>408.5</ele><time>2026-04-04T10:15:57.536Z</time></trkpt><trkpt lat="43.00486" lon="13.3712683"><ele>411.0</ele><time>2026-04-04T10:15:58.537Z</time></trkpt><trkpt lat="43.0047417" lon="13.3712467"><ele>413.5</ele><time>2026-04-04T10:15:59.536Z</time></trkpt><trkpt lat="43.0046383" lon="13.3712367"><ele>416.0</ele><time>2026-04-04T10:16:00.537Z</time></trkpt><trkpt lat="43.00453" lon="13.3712617"><ele>416.0</ele><time>2026-04-04T10:16:01.536Z</time></trkpt><trkpt lat="43.0044317" lon="13.3712983"><ele>416.0</ele><time>2026-04-04T10:16:02.537Z</time></trkpt><trkpt lat="43.0043367" lon="13.3713433"><ele>416.0</ele><time>2026-04-04T10:16:03.537Z</time></trkpt><trkpt lat="43.00424" lon="13.371375"><ele>416.0</ele><time>2026-04-04T10:16:04.536Z</time></trkpt><trkpt lat="43.0041533" lon="13.3714183"><ele>416.0</ele><time>2026-04-04T10:16:05.536Z</time></trkpt><trkpt lat="43.004065" lon="13.3714533"><ele>413.8333333333333</ele><time>2026-04-04T10:16:06.537Z</time></trkpt><trkpt lat="43.0039917" lon="13.3714933"><ele>411.66666666666663</ele><time>2026-04-04T10:16:07.536Z</time></trkpt><trkpt lat="43.0039133" lon="13.37153"><ele>409.5</ele><time>2026-04-04T10:16:08.537Z</time></trkpt><trkpt lat="43.0038433" lon="13.3715367"><ele>407.33333333333337</ele><time>2026-04-04T10:16:09.537Z</time></trkpt><trkpt lat="43.0037767" lon="13.3715183"><ele>405.1666666666667</ele><time>2026-04-04T10:16:10.537Z</time></trkpt><trkpt lat="43.0037017" lon="13.3715"><ele>403.0</ele><time>2026-04-04T10:16:11.536Z</time></trkpt><trkpt lat="43.0036217" lon="13.3714917"><ele>403.00000000000006</ele><time>2026-04-04T10:16:12.536Z</time></trkpt><trkpt lat="43.003555" lon="13.3714867"><ele>403.0</ele><time>2026-04-04T10:16:13.537Z</time></trkpt><trkpt lat="43.0034383" lon="13.3714883"><ele>403.0</ele><time>2026-04-04T10:16:15.536Z</time></trkpt><trkpt lat="43.0033767" lon="13.3715117"><ele>403.0</ele><time>2026-04-04T10:16:16.537Z</time></trkpt><trkpt lat="43.0033183" lon="13.3715467"><ele>403.00000000000006</ele><time>2026-04-04T10:16:17.537Z</time></trkpt><trkpt lat="43.0032167" lon="13.371605"><ele>403.0</ele><time>2026-04-04T10:16:19.536Z</time></trkpt><trkpt lat="43.003155" lon="13.3716233"><ele>402.59999999999997</ele><time>2026-04-04T10:16:20.536Z</time></trkpt><trkpt lat="43.0030383" lon="13.37166"><ele>402.2</ele><time>2026-04-04T10:16:22.537Z</time></trkpt><trkpt lat="43.002925" lon="13.371685"><ele>401.8</ele><time>2026-04-04T10:16:24.536Z</time></trkpt><trkpt lat="43.00285" lon="13.371705"><ele>401.4</ele><time>2026-04-04T10:16:26.536Z</time></trkpt><trkpt lat="43.002785" lon="13.37171"><ele>401.0</ele><time>2026-04-04T10:16:42.537Z</time></trkpt><trkpt lat="43.0026733" lon="13.37174"><ele>400.99999999999994</ele><time>2026-04-04T10:16:44.537Z</time></trkpt><trkpt lat="43.0025983" lon="13.3717617"><ele>401.0</ele><time>2026-04-04T10:16:45.536Z</time></trkpt><trkpt lat="43.002515" lon="13.3717817"><ele>401.0</ele><time>2026-04-04T10:16:46.535Z</time></trkpt><trkpt lat="43.0024333" lon="13.3718067"><ele>401.0</ele><time>2026-04-04T10:16:47.535Z</time></trkpt><trkpt lat="43.00235" lon="13.3718317"><ele>400.99999999999994</ele><time>2026-04-04T10:16:48.535Z</time></trkpt><trkpt lat="43.0022667" lon="13.3718633"><ele>401.0</ele><time>2026-04-04T10:16:49.535Z</time></trkpt><trkpt lat="43.002185" lon="13.3719033"><ele>401.16666666666663</ele><time>2026-04-04T10:16:50.535Z</time></trkpt><trkpt lat="43.0020983" lon="13.37195"><ele>401.3333333333333</ele><time>2026-04-04T10:16:51.536Z</time></trkpt><trkpt lat="43.0020117" lon="13.3719917"><ele>401.5</ele><time>2026-04-04T10:16:52.535Z</time></trkpt><trkpt lat="43.00193" lon="13.372025"><ele>401.66666666666663</ele><time>2026-04-04T10:16:53.536Z</time></trkpt><trkpt lat="43.001855" lon="13.372045"><ele>401.8333333333333</ele><time>2026-04-04T10:16:54.535Z</time></trkpt><trkpt lat="43.0017783" lon="13.3720683"><ele>402.0</ele><time>2026-04-04T10:16:55.536Z</time></trkpt><trkpt lat="43.0016983" lon="13.3720933"><ele>401.1666666666667</ele><time>2026-04-04T10:16:56.536Z</time></trkpt><trkpt lat="43.0016167" lon="13.37212"><ele>400.33333333333337</ele><time>2026-04-04T10:16:57.536Z</time></trkpt><trkpt lat="43.0015383" lon="13.3721417"><ele>399.5</ele><time>2026-04-04T10:16:58.535Z</time></trkpt><trkpt lat="43.0014567" lon="13.3721633"><ele>398.6666666666667</ele><time>2026-04-04T10:16:59.535Z</time></trkpt><trkpt lat="43.0013667" lon="13.372185"><ele>397.83333333333337</ele><time>2026-04-04T10:17:00.535Z</time></trkpt><trkpt lat="43.0012833" lon="13.3721767"><ele>397.0</ele><time>2026-04-04T10:17:01.535Z</time></trkpt><trkpt lat="43.0012017" lon="13.3721433"><ele>397.0</ele><time>2026-04-04T10:17:02.535Z</time></trkpt><trkpt lat="43.0011267" lon="13.3720817"><ele>397.0</ele><time>2026-04-04T10:17:03.536Z</time></trkpt><trkpt lat="43.0010533" lon="13.3720167"><ele>397.0</ele><time>2026-04-04T10:17:04.536Z</time></trkpt><trkpt lat="43.0009933" lon="13.3719267"><ele>397.0</ele><time>2026-04-04T10:17:05.536Z</time></trkpt><trkpt lat="43.0009517" lon="13.371795"><ele>397.0</ele><time>2026-04-04T10:17:06.536Z</time></trkpt><trkpt lat="43.0009217" lon="13.3716333"><ele>397.0</ele><time>2026-04-04T10:17:07.536Z</time></trkpt><trkpt lat="43.0008767" lon="13.371485"><ele>397.0</ele><time>2026-04-04T10:17:08.535Z</time></trkpt><trkpt lat="43.0008167" lon="13.3713667"><ele>397.0</ele><time>2026-04-04T10:17:09.536Z</time></trkpt><trkpt lat="43.0007233" lon="13.37127"><ele>397.0</ele><time>2026-04-04T10:17:10.535Z</time></trkpt><trkpt lat="43.0006133" lon="13.37118"><ele>398.40000000000003</ele><time>2026-04-04T10:17:11.536Z</time></trkpt><trkpt lat="43.0005133" lon="13.3710933"><ele>399.8</ele><time>2026-04-04T10:17:12.536Z</time></trkpt><trkpt lat="43.0004233" lon="13.3710033"><ele>401.2</ele><time>2026-04-04T10:17:13.535Z</time></trkpt><trkpt lat="43.000335" lon="13.3709267"><ele>402.6</ele><time>2026-04-04T10:17:14.536Z</time></trkpt><trkpt lat="43.0002617" lon="13.3708333"><ele>404.0</ele><time>2026-04-04T10:17:15.536Z</time></trkpt><trkpt lat="43.000205" lon="13.3707233"><ele>404.0</ele><time>2026-04-04T10:17:16.536Z</time></trkpt><trkpt lat="43.0001517" lon="13.3706333"><ele>404.0</ele><time>2026-04-04T10:17:17.535Z</time></trkpt><trkpt lat="43.0001117" lon="13.3705567"><ele>404.0</ele><time>2026-04-04T10:17:18.535Z</time></trkpt><trkpt lat="43.0000317" lon="13.3704667"><ele>404.0</ele><time>2026-04-04T10:17:20.535Z</time></trkpt><trkpt lat="42.9999333" lon="13.3704617"><ele>404.0</ele><time>2026-04-04T10:17:22.535Z</time></trkpt><trkpt lat="42.9998083" lon="13.3704383"><ele>406.66666666666663</ele><time>2026-04-04T10:17:24.536Z</time></trkpt><trkpt lat="42.9997317" lon="13.3704383"><ele>409.3333333333333</ele><time>2026-04-04T10:17:25.535Z</time></trkpt><trkpt lat="42.999665" lon="13.3704317"><ele>412.0</ele><time>2026-04-04T10:17:26.535Z</time></trkpt><trkpt lat="42.9995883" lon="13.37045"><ele>414.66666666666663</ele><time>2026-04-04T10:17:27.536Z</time></trkpt><trkpt lat="42.9995067" lon="13.370475"><ele>417.3333333333333</ele><time>2026-04-04T10:17:28.536Z</time></trkpt><trkpt lat="42.9994117" lon="13.3704967"><ele>420.0</ele><time>2026-04-04T10:17:29.536Z</time></trkpt><trkpt lat="42.999295" lon="13.370515"><ele>420.0</ele><time>2026-04-04T10:17:30.536Z</time></trkpt><trkpt lat="42.99918" lon="13.3705167"><ele>420.0</ele><time>2026-04-04T10:17:31.535Z</time></trkpt><trkpt lat="42.9990517" lon="13.3705417"><ele>420.0</ele><time>2026-04-04T10:17:32.535Z</time></trkpt><trkpt lat="42.9989417" lon="13.370585"><ele>420.0</ele><time>2026-04-04T10:17:33.535Z</time></trkpt><trkpt lat="42.99881" lon="13.370635"><ele>415.0</ele><time>2026-04-04T10:17:34.536Z</time></trkpt><trkpt lat="42.99866" lon="13.3706533"><ele>410.0</ele><time>2026-04-04T10:17:35.536Z</time></trkpt><trkpt lat="42.998515" lon="13.3706467"><ele>405.0</ele><time>2026-04-04T10:17:36.536Z</time></trkpt><trkpt lat="42.99837" lon="13.3706417"><ele>400.0</ele><time>2026-04-04T10:17:37.535Z</time></trkpt><trkpt lat="42.9982183" lon="13.3706283"><ele>399.75</ele><time>2026-04-04T10:17:38.536Z</time></trkpt><trkpt lat="42.9980617" lon="13.370615"><ele>399.5</ele><time>2026-04-04T10:17:39.536Z</time></trkpt><trkpt lat="42.997925" lon="13.3706117"><ele>399.25</ele><time>2026-04-04T10:17:40.535Z</time></trkpt><trkpt lat="42.997795" lon="13.3706067"><ele>399.0</ele><time>2026-04-04T10:17:41.536Z</time></trkpt><trkpt lat="42.9976833" lon="13.3706083"><ele>399.0</ele><time>2026-04-04T10:17:42.535Z</time></trkpt><trkpt lat="42.9975867" lon="13.37061"><ele>399.0</ele><time>2026-04-04T10:17:43.535Z</time></trkpt><trkpt lat="42.9974933" lon="13.37066"><ele>399.0</ele><time>2026-04-04T10:17:44.536Z</time></trkpt><trkpt lat="42.997405" lon="13.3707267"><ele>399.0</ele><time>2026-04-04T10:17:45.536Z</time></trkpt><trkpt lat="42.9973217" lon="13.3708183"><ele>399.0</ele><time>2026-04-04T10:17:46.535Z</time></trkpt><trkpt lat="42.9972467" lon="13.3709183"><ele>398.5</ele><time>2026-04-04T10:17:47.536Z</time></trkpt><trkpt lat="42.9971883" lon="13.37101"><ele>398.0</ele><time>2026-04-04T10:17:48.536Z</time></trkpt><trkpt lat="42.9971283" lon="13.3710883"><ele>397.5</ele><time>2026-04-04T10:17:49.535Z</time></trkpt><trkpt lat="42.9970717" lon="13.3711383"><ele>397.0</ele><time>2026-04-04T10:17:50.535Z</time></trkpt><trkpt lat="42.9970117" lon="13.371175"><ele>396.5</ele><time>2026-04-04T10:17:51.536Z</time></trkpt><trkpt lat="42.99695" lon="13.371195"><ele>396.0</ele><time>2026-04-04T10:17:52.536Z</time></trkpt><trkpt lat="42.9968517" lon="13.371225"><ele>396.0</ele><time>2026-04-04T10:17:54.535Z</time></trkpt><trkpt lat="42.9967833" lon="13.3712267"><ele>396.0</ele><time>2026-04-04T10:18:06.535Z</time></trkpt><trkpt lat="42.9967133" lon="13.3712083"><ele>396.0</ele><time>2026-04-04T10:18:08.535Z</time></trkpt><trkpt lat="42.9966" lon="13.3711233"><ele>396.0</ele><time>2026-04-04T10:18:10.535Z</time></trkpt><trkpt lat="42.9965233" lon="13.3710617"><ele>396.0</ele><time>2026-04-04T10:18:11.536Z</time></trkpt><trkpt lat="42.9964433" lon="13.3709867"><ele>394.8333333333333</ele><time>2026-04-04T10:18:12.536Z</time></trkpt><trkpt lat="42.9963683" lon="13.370925"><ele>393.66666666666663</ele><time>2026-04-04T10:18:13.536Z</time></trkpt><trkpt lat="42.9962867" lon="13.370895"><ele>392.5</ele><time>2026-04-04T10:18:14.535Z</time></trkpt><trkpt lat="42.99621" lon="13.3709"><ele>391.3333333333333</ele><time>2026-04-04T10:18:15.535Z</time></trkpt><trkpt lat="42.9961217" lon="13.370885"><ele>390.16666666666663</ele><time>2026-04-04T10:18:16.535Z</time></trkpt><trkpt lat="42.9960433" lon="13.3708717"><ele>389.0</ele><time>2026-04-04T10:18:17.536Z</time></trkpt><trkpt lat="42.99597" lon="13.3708467"><ele>388.99999999999994</ele><time>2026-04-04T10:18:18.536Z</time></trkpt><trkpt lat="42.9959033" lon="13.3708233"><ele>389.0</ele><time>2026-04-04T10:18:19.535Z</time></trkpt><trkpt lat="42.9957867" lon="13.3707733"><ele>389.0</ele><time>2026-04-04T10:18:21.535Z</time></trkpt><trkpt lat="42.9957183" lon="13.37074"><ele>389.0</ele><time>2026-04-04T10:18:22.535Z</time></trkpt><trkpt lat="42.995645" lon="13.3707117"><ele>388.99999999999994</ele><time>2026-04-04T10:18:23.536Z</time></trkpt><trkpt lat="42.9955783" lon="13.3706867"><ele>389.0</ele><time>2026-04-04T10:18:24.535Z</time></trkpt><trkpt lat="42.995505" lon="13.370665"><ele>386.79999999999995</ele><time>2026-04-04T10:18:25.536Z</time></trkpt><trkpt lat="42.995425" lon="13.3706467"><ele>384.59999999999997</ele><time>2026-04-04T10:18:26.535Z</time></trkpt><trkpt lat="42.9953367" lon="13.37062"><ele>382.4</ele><time>2026-04-04T10:18:27.535Z</time></trkpt><trkpt lat="42.9952267" lon="13.37059"><ele>380.2</ele><time>2026-04-04T10:18:28.536Z</time></trkpt><trkpt lat="42.9951" lon="13.3705467"><ele>378.0</ele><time>2026-04-04T10:18:29.535Z</time></trkpt><trkpt lat="42.9949667" lon="13.3705067"><ele>378.0</ele><time>2026-04-04T10:18:30.535Z</time></trkpt><trkpt lat="42.994825" lon="13.3704683"><ele>378.0</ele><time>2026-04-04T10:18:31.535Z</time></trkpt><trkpt lat="42.9946667" lon="13.370465"><ele>378.0</ele><time>2026-04-04T10:18:32.536Z</time></trkpt><trkpt lat="42.9944933" lon="13.3704683"><ele>378.0</ele><time>2026-04-04T10:18:33.536Z</time></trkpt><trkpt lat="42.994295" lon="13.3704867"><ele>378.0</ele><time>2026-04-04T10:18:34.535Z</time></trkpt><trkpt lat="42.9941083" lon="13.3705083"><ele>378.0</ele><time>2026-04-04T10:18:35.536Z</time></trkpt><trkpt lat="42.9939217" lon="13.3705233"><ele>375.3333333333333</ele><time>2026-04-04T10:18:36.536Z</time></trkpt><trkpt lat="42.99374" lon="13.3705333"><ele>372.66666666666663</ele><time>2026-04-04T10:18:37.536Z</time></trkpt><trkpt lat="42.9935633" lon="13.370535"><ele>370.0</ele><time>2026-04-04T10:18:38.535Z</time></trkpt><trkpt lat="42.9933883" lon="13.3705383"><ele>370.0</ele><time>2026-04-04T10:18:39.535Z</time></trkpt><trkpt lat="42.9932133" lon="13.3705583"><ele>370.0</ele><time>2026-04-04T10:18:40.536Z</time></trkpt><trkpt lat="42.9930483" lon="13.3705717"><ele>370.0</ele><time>2026-04-04T10:18:41.536Z</time></trkpt><trkpt lat="42.992885" lon="13.37057"><ele>370.0</ele><time>2026-04-04T10:18:42.535Z</time></trkpt><trkpt lat="42.9927317" lon="13.3705783"><ele>370.0</ele><time>2026-04-04T10:18:43.536Z</time></trkpt><trkpt lat="42.99258" lon="13.3705967"><ele>370.0</ele><time>2026-04-04T10:18:44.535Z</time></trkpt><trkpt lat="42.992415" lon="13.3706183"><ele>370.66666666666663</ele><time>2026-04-04T10:18:45.536Z</time></trkpt><trkpt lat="42.9922317" lon="13.3706333"><ele>371.3333333333333</ele><time>2026-04-04T10:18:46.535Z</time></trkpt><trkpt lat="42.992065" lon="13.3706783"><ele>372.0</ele><time>2026-04-04T10:18:47.536Z</time></trkpt><trkpt lat="42.991895" lon="13.3707233"><ele>372.0</ele><time>2026-04-04T10:18:48.535Z</time></trkpt><trkpt lat="42.991715" lon="13.3707517"><ele>372.0</ele><time>2026-04-04T10:18:49.535Z</time></trkpt><trkpt lat="42.9915433" lon="13.3707717"><ele>372.0</ele><time>2026-04-04T10:18:50.535Z</time></trkpt><trkpt lat="42.9913667" lon="13.37077"><ele>373.6666666666667</ele><time>2026-04-04T10:18:51.535Z</time></trkpt><trkpt lat="42.9911783" lon="13.3707617"><ele>375.33333333333337</ele><time>2026-04-04T10:18:52.535Z</time></trkpt><trkpt lat="42.9909967" lon="13.37075"><ele>377.0</ele><time>2026-04-04T10:18:53.536Z</time></trkpt><trkpt lat="42.990805" lon="13.3707417"><ele>377.0</ele><time>2026-04-04T10:18:54.535Z</time></trkpt><trkpt lat="42.9906033" lon="13.3707517"><ele>377.0</ele><time>2026-04-04T10:18:55.535Z</time></trkpt><trkpt lat="42.9904083" lon="13.3707417"><ele>377.0</ele><time>2026-04-04T10:18:56.535Z</time></trkpt><trkpt lat="42.9902167" lon="13.3707083"><ele>377.0</ele><time>2026-04-04T10:18:57.535Z</time></trkpt><trkpt lat="42.9900217" lon="13.3706633"><ele>377.0</ele><time>2026-04-04T10:18:58.536Z</time></trkpt><trkpt lat="42.9898317" lon="13.370605"><ele>377.0</ele><time>2026-04-04T10:18:59.536Z</time></trkpt><trkpt lat="42.98964" lon="13.3705333"><ele>376.6666666666667</ele><time>2026-04-04T10:19:00.535Z</time></trkpt><trkpt lat="42.9894467" lon="13.370455"><ele>376.3333333333333</ele><time>2026-04-04T10:19:01.535Z</time></trkpt><trkpt lat="42.989275" lon="13.370375"><ele>376.0</ele><time>2026-04-04T10:19:02.536Z</time></trkpt><trkpt lat="42.9891167" lon="13.370285"><ele>376.0</ele><time>2026-04-04T10:19:03.535Z</time></trkpt><trkpt lat="42.988975" lon="13.3701917"><ele>376.0</ele><time>2026-04-04T10:19:04.535Z</time></trkpt><trkpt lat="42.988845" lon="13.3700883"><ele>376.0</ele><time>2026-04-04T10:19:05.535Z</time></trkpt><trkpt lat="42.98871" lon="13.3699783"><ele>376.0</ele><time>2026-04-04T10:19:06.535Z</time></trkpt><trkpt lat="42.9885633" lon="13.3698683"><ele>376.0</ele><time>2026-04-04T10:19:07.536Z</time></trkpt><trkpt lat="42.9884033" lon="13.3697617"><ele>376.0</ele><time>2026-04-04T10:19:08.536Z</time></trkpt><trkpt lat="42.9882417" lon="13.3696583"><ele>377.3333333333333</ele><time>2026-04-04T10:19:09.535Z</time></trkpt><trkpt lat="42.9880783" lon="13.3695483"><ele>378.6666666666667</ele><time>2026-04-04T10:19:10.536Z</time></trkpt><trkpt lat="42.9879117" lon="13.3694433"><ele>380.0</ele><time>2026-04-04T10:19:11.536Z</time></trkpt><trkpt lat="42.987745" lon="13.369335"><ele>380.0</ele><time>2026-04-04T10:19:12.535Z</time></trkpt><trkpt lat="42.9875783" lon="13.3692417"><ele>380.0</ele><time>2026-04-04T10:19:13.535Z</time></trkpt><trkpt lat="42.9874167" lon="13.3691317"><ele>380.0</ele><time>2026-04-04T10:19:14.535Z</time></trkpt><trkpt lat="42.9872483" lon="13.3690217"><ele>380.0</ele><time>2026-04-04T10:19:15.536Z</time></trkpt><trkpt lat="42.987085" lon="13.3689033"><ele>380.0</ele><time>2026-04-04T10:19:16.536Z</time></trkpt><trkpt lat="42.986915" lon="13.3687983"><ele>380.0</ele><time>2026-04-04T10:19:17.536Z</time></trkpt><trkpt lat="42.9867267" lon="13.3686933"><ele>381.33333333333337</ele><time>2026-04-04T10:19:18.535Z</time></trkpt><trkpt lat="42.9865233" lon="13.3685917"><ele>382.6666666666667</ele><time>2026-04-04T10:19:19.536Z</time></trkpt><trkpt lat="42.9863267" lon="13.368455"><ele>384.0</ele><time>2026-04-04T10:19:20.535Z</time></trkpt><trkpt lat="42.98613" lon="13.3683167"><ele>384.0</ele><time>2026-04-04T10:19:21.536Z</time></trkpt><trkpt lat="42.9859383" lon="13.368165"><ele>384.0</ele><time>2026-04-04T10:19:22.535Z</time></trkpt><trkpt lat="42.9857633" lon="13.3680183"><ele>384.0</ele><time>2026-04-04T10:19:23.535Z</time></trkpt><trkpt lat="42.98561" lon="13.3678833"><ele>385.75</ele><time>2026-04-04T10:19:24.535Z</time></trkpt><trkpt lat="42.98549" lon="13.367755"><ele>387.5</ele><time>2026-04-04T10:19:25.536Z</time></trkpt><trkpt lat="42.9853817" lon="13.3676383"><ele>389.25</ele><time>2026-04-04T10:19:26.536Z</time></trkpt><trkpt lat="42.9852483" lon="13.3675733"><ele>391.0</ele><time>2026-04-04T10:19:27.535Z</time></trkpt><trkpt lat="42.98512" lon="13.3675217"><ele>394.25</ele><time>2026-04-04T10:19:28.535Z</time></trkpt><trkpt lat="42.98499" lon="13.367465"><ele>397.5</ele><time>2026-04-04T10:19:29.536Z</time></trkpt><trkpt lat="42.984855" lon="13.3673917"><ele>400.75</ele><time>2026-04-04T10:19:30.535Z</time></trkpt><trkpt lat="42.98471" lon="13.36732"><ele>404.0</ele><time>2026-04-04T10:19:31.535Z</time></trkpt><trkpt lat="42.9845533" lon="13.3672417"><ele>405.0</ele><time>2026-04-04T10:19:32.536Z</time></trkpt><trkpt lat="42.9844067" lon="13.367185"><ele>406.0</ele><time>2026-04-04T10:19:33.535Z</time></trkpt><trkpt lat="42.9842567" lon="13.3671467"><ele>407.0</ele><time>2026-04-04T10:19:34.535Z</time></trkpt><trkpt lat="42.98413" lon="13.3671133"><ele>408.0</ele><time>2026-04-04T10:19:35.536Z</time></trkpt><trkpt lat="42.9840033" lon="13.3670883"><ele>414.33333333333337</ele><time>2026-04-04T10:19:36.536Z</time></trkpt><trkpt lat="42.98383" lon="13.3670917"><ele>420.6666666666667</ele><time>2026-04-04T10:19:37.536Z</time></trkpt><trkpt lat="42.983645" lon="13.3671167"><ele>427.0</ele><time>2026-04-04T10:19:38.535Z</time></trkpt><trkpt lat="42.983485" lon="13.3671283"><ele>427.0</ele><time>2026-04-04T10:19:39.535Z</time></trkpt><trkpt lat="42.9833317" lon="13.3671567"><ele>427.0</ele><time>2026-04-04T10:19:40.535Z</time></trkpt><trkpt lat="42.9831917" lon="13.3671683"><ele>427.0</ele><time>2026-04-04T10:19:41.536Z</time></trkpt><trkpt lat="42.9830683" lon="13.3671733"><ele>427.0</ele><time>2026-04-04T10:19:42.536Z</time></trkpt><trkpt lat="42.982955" lon="13.367145"><ele>427.0</ele><time>2026-04-04T10:19:43.536Z</time></trkpt><trkpt lat="42.982855" lon="13.3670983"><ele>427.0</ele><time>2026-04-04T10:19:44.535Z</time></trkpt><trkpt lat="42.982775" lon="13.3670017"><ele>427.0</ele><time>2026-04-04T10:19:45.536Z</time></trkpt><trkpt lat="42.9826783" lon="13.3668867"><ele>427.0</ele><time>2026-04-04T10:19:46.536Z</time></trkpt><trkpt lat="42.9825983" lon="13.366745"><ele>427.0</ele><time>2026-04-04T10:19:47.535Z</time></trkpt><trkpt lat="42.9825417" lon="13.366585"><ele>427.0</ele><time>2026-04-04T10:19:48.536Z</time></trkpt><trkpt lat="42.98249" lon="13.3664033"><ele>427.0</ele><time>2026-04-04T10:19:49.535Z</time></trkpt><trkpt lat="42.9824233" lon="13.366235"><ele>427.0</ele><time>2026-04-04T10:19:50.535Z</time></trkpt><trkpt lat="42.9823467" lon="13.3660683"><ele>427.0</ele><time>2026-04-04T10:19:51.536Z</time></trkpt><trkpt lat="42.9822883" lon="13.3659267"><ele>427.00000000000006</ele><time>2026-04-04T10:19:52.536Z</time></trkpt><trkpt lat="42.98223" lon="13.36581"><ele>427.00000000000006</ele><time>2026-04-04T10:19:53.536Z</time></trkpt><trkpt lat="42.9821583" lon="13.3657433"><ele>427.0</ele><time>2026-04-04T10:19:54.535Z</time></trkpt><trkpt lat="42.9820867" lon="13.3656917"><ele>427.0</ele><time>2026-04-04T10:19:55.536Z</time></trkpt><trkpt lat="42.9820117" lon="13.3656467"><ele>427.00000000000006</ele><time>2026-04-04T10:19:56.535Z</time></trkpt><trkpt lat="42.9819567" lon="13.3656033"><ele>427.0</ele><time>2026-04-04T10:19:57.535Z</time></trkpt><trkpt lat="42.981905" lon="13.3654983"><ele>427.0</ele><time>2026-04-04T10:19:59.536Z</time></trkpt><trkpt lat="42.9818567" lon="13.3653483"><ele>427.0</ele><time>2026-04-04T10:20:01.535Z</time></trkpt><trkpt lat="42.98181" lon="13.365265"><ele>427.00000000000006</ele><time>2026-04-04T10:20:02.535Z</time></trkpt><trkpt lat="42.9817317" lon="13.3651983"><ele>427.0</ele><time>2026-04-04T10:20:03.535Z</time></trkpt><trkpt lat="42.98165" lon="13.3651483"><ele>429.8</ele><time>2026-04-04T10:20:04.536Z</time></trkpt><trkpt lat="42.9815517" lon="13.3651117"><ele>432.6</ele><time>2026-04-04T10:20:05.535Z</time></trkpt><trkpt lat="42.9814433" lon="13.3650817"><ele>435.40000000000003</ele><time>2026-04-04T10:20:06.535Z</time></trkpt><trkpt lat="42.9813417" lon="13.36503"><ele>438.20000000000005</ele><time>2026-04-04T10:20:07.535Z</time></trkpt><trkpt lat="42.981235" lon="13.364965"><ele>441.0</ele><time>2026-04-04T10:20:08.535Z</time></trkpt><trkpt lat="42.98113" lon="13.3649"><ele>441.0</ele><time>2026-04-04T10:20:09.535Z</time></trkpt><trkpt lat="42.9810267" lon="13.3648317"><ele>441.0</ele><time>2026-04-04T10:20:10.536Z</time></trkpt><trkpt lat="42.98092" lon="13.36476"><ele>441.0</ele><time>2026-04-04T10:20:11.535Z</time></trkpt><trkpt lat="42.9808133" lon="13.3646817"><ele>441.0</ele><time>2026-04-04T10:20:12.535Z</time></trkpt><trkpt lat="42.98071" lon="13.364585"><ele>442.75</ele><time>2026-04-04T10:20:13.535Z</time></trkpt><trkpt lat="42.98061" lon="13.3644717"><ele>444.5</ele><time>2026-04-04T10:20:14.536Z</time></trkpt><trkpt lat="42.980535" lon="13.3643333"><ele>446.25</ele><time>2026-04-04T10:20:15.535Z</time></trkpt><trkpt lat="42.980475" lon="13.364185"><ele>448.0</ele><time>2026-04-04T10:20:16.535Z</time></trkpt><trkpt lat="42.9804417" lon="13.3640217"><ele>453.25</ele><time>2026-04-04T10:20:17.536Z</time></trkpt><trkpt lat="42.980405" lon="13.36386"><ele>458.5</ele><time>2026-04-04T10:20:18.535Z</time></trkpt><trkpt lat="42.9803567" lon="13.363715"><ele>463.75</ele><time>2026-04-04T10:20:19.536Z</time></trkpt><trkpt lat="42.98032" lon="13.36356"><ele>469.0</ele><time>2026-04-04T10:20:20.536Z</time></trkpt><trkpt lat="42.9802833" lon="13.3633933"><ele>469.0</ele><time>2026-04-04T10:20:21.535Z</time></trkpt><trkpt lat="42.980255" lon="13.3632283"><ele>469.0</ele><time>2026-04-04T10:20:22.536Z</time></trkpt><trkpt lat="42.9802217" lon="13.3630667"><ele>469.0</ele><time>2026-04-04T10:20:23.536Z</time></trkpt><trkpt lat="42.9801833" lon="13.3629117"><ele>469.0</ele><time>2026-04-04T10:20:24.536Z</time></trkpt><trkpt lat="42.9801333" lon="13.362755"><ele>469.5</ele><time>2026-04-04T10:20:25.535Z</time></trkpt><trkpt lat="42.980095" lon="13.362595"><ele>470.0</ele><time>2026-04-04T10:20:26.534Z</time></trkpt><trkpt lat="42.9800483" lon="13.3624567"><ele>470.5</ele><time>2026-04-04T10:20:27.535Z</time></trkpt><trkpt lat="42.9799933" lon="13.3623183"><ele>471.0</ele><time>2026-04-04T10:20:28.534Z</time></trkpt><trkpt lat="42.9799317" lon="13.3621733"><ele>471.0</ele><time>2026-04-04T10:20:29.534Z</time></trkpt><trkpt lat="42.979825" lon="13.3620633"><ele>471.0</ele><time>2026-04-04T10:20:30.534Z</time></trkpt><trkpt lat="42.979715" lon="13.361965"><ele>471.0</ele><time>2026-04-04T10:20:31.534Z</time></trkpt><trkpt lat="42.9796033" lon="13.3618833"><ele>471.0</ele><time>2026-04-04T10:20:32.534Z</time></trkpt><trkpt lat="42.9794883" lon="13.361815"><ele>471.0</ele><time>2026-04-04T10:20:33.534Z</time></trkpt><trkpt lat="42.9794" lon="13.36171"><ele>471.0</ele><time>2026-04-04T10:20:34.535Z</time></trkpt><trkpt lat="42.979285" lon="13.3616133"><ele>471.0</ele><time>2026-04-04T10:20:35.534Z</time></trkpt><trkpt lat="42.9791667" lon="13.3615233"><ele>471.0</ele><time>2026-04-04T10:20:36.534Z</time></trkpt><trkpt lat="42.9790717" lon="13.361405"><ele>467.25</ele><time>2026-04-04T10:20:37.534Z</time></trkpt><trkpt lat="42.97899" lon="13.3612733"><ele>463.5</ele><time>2026-04-04T10:20:38.534Z</time></trkpt><trkpt lat="42.9789617" lon="13.3611"><ele>459.75</ele><time>2026-04-04T10:20:39.534Z</time></trkpt><trkpt lat="42.978915" lon="13.3609467"><ele>456.0</ele><time>2026-04-04T10:20:40.535Z</time></trkpt><trkpt lat="42.9788767" lon="13.3608017"><ele>456.0</ele><time>2026-04-04T10:20:41.534Z</time></trkpt><trkpt lat="42.9788967" lon="13.3606333"><ele>456.0</ele><time>2026-04-04T10:20:42.534Z</time></trkpt><trkpt lat="42.978905" lon="13.360465"><ele>456.0</ele><time>2026-04-04T10:20:43.535Z</time></trkpt><trkpt lat="42.978925" lon="13.36031"><ele>456.0</ele><time>2026-04-04T10:20:44.534Z</time></trkpt><trkpt lat="42.978965" lon="13.360155"><ele>457.4</ele><time>2026-04-04T10:20:45.534Z</time></trkpt><trkpt lat="42.979" lon="13.36002"><ele>458.8</ele><time>2026-04-04T10:20:46.535Z</time></trkpt><trkpt lat="42.9790133" lon="13.3598867"><ele>460.19999999999993</ele><time>2026-04-04T10:20:47.535Z</time></trkpt><trkpt lat="42.97901" lon="13.3597633"><ele>461.59999999999997</ele><time>2026-04-04T10:20:48.535Z</time></trkpt><trkpt lat="42.978995" lon="13.3596533"><ele>463.0</ele><time>2026-04-04T10:20:49.535Z</time></trkpt><trkpt lat="42.9789733" lon="13.359555"><ele>464.83333333333337</ele><time>2026-04-04T10:20:50.535Z</time></trkpt><trkpt lat="42.9789483" lon="13.3594583"><ele>466.6666666666667</ele><time>2026-04-04T10:20:51.535Z</time></trkpt><trkpt lat="42.9789217" lon="13.359365"><ele>468.5</ele><time>2026-04-04T10:20:52.534Z</time></trkpt><trkpt lat="42.9788683" lon="13.3592583"><ele>470.33333333333337</ele><time>2026-04-04T10:20:54.535Z</time></trkpt><trkpt lat="42.9788433" lon="13.359395"><ele>472.1666666666667</ele><time>2026-04-04T10:21:12.535Z</time></trkpt><trkpt lat="42.9788583" lon="13.3594983"><ele>474.0</ele><time>2026-04-04T10:21:13.534Z</time></trkpt><trkpt lat="42.9788617" lon="13.3596117"><ele>472.1666666666667</ele><time>2026-04-04T10:21:14.535Z</time></trkpt><trkpt lat="42.9788583" lon="13.35973"><ele>470.33333333333337</ele><time>2026-04-04T10:21:15.535Z</time></trkpt><trkpt lat="42.978855" lon="13.3598417"><ele>468.5</ele><time>2026-04-04T10:21:16.535Z</time></trkpt><trkpt lat="42.9788417" lon="13.3599483"><ele>466.6666666666667</ele><time>2026-04-04T10:21:17.534Z</time></trkpt><trkpt lat="42.9788283" lon="13.3600417"><ele>464.83333333333337</ele><time>2026-04-04T10:21:18.534Z</time></trkpt><trkpt lat="42.97877" lon="13.3601683"><ele>463.0</ele><time>2026-04-04T10:21:20.535Z</time></trkpt><trkpt lat="42.97869" lon="13.3601517"><ele>463.0</ele><time>2026-04-04T10:21:22.535Z</time></trkpt><trkpt lat="42.9786383" lon="13.3600767"><ele>462.99999999999994</ele><time>2026-04-04T10:21:23.535Z</time></trkpt><trkpt lat="42.9785833" lon="13.3599717"><ele>462.99999999999994</ele><time>2026-04-04T10:21:24.535Z</time></trkpt><trkpt lat="42.9785267" lon="13.3598617"><ele>463.0</ele><time>2026-04-04T10:21:25.534Z</time></trkpt><trkpt lat="42.9784717" lon="13.3597533"><ele>463.0</ele><time>2026-04-04T10:21:26.535Z</time></trkpt><trkpt lat="42.9784133" lon="13.3596583"><ele>464.83333333333337</ele><time>2026-04-04T10:21:27.535Z</time></trkpt><trkpt lat="42.9783517" lon="13.359575"><ele>466.6666666666667</ele><time>2026-04-04T10:21:28.535Z</time></trkpt><trkpt lat="42.978285" lon="13.3595"><ele>468.5</ele><time>2026-04-04T10:21:29.534Z</time></trkpt><trkpt lat="42.9782217" lon="13.3594317"><ele>470.33333333333337</ele><time>2026-04-04T10:21:30.535Z</time></trkpt><trkpt lat="42.978155" lon="13.359375"><ele>472.1666666666667</ele><time>2026-04-04T10:21:31.534Z</time></trkpt><trkpt lat="42.9780933" lon="13.359325"><ele>474.0</ele><time>2026-04-04T10:21:32.534Z</time></trkpt><trkpt lat="42.9779983" lon="13.3592667"><ele>466.5</ele><time>2026-04-04T10:21:34.535Z</time></trkpt><trkpt lat="42.9778983" lon="13.3593317"><ele>459.0</ele><time>2026-04-04T10:21:36.534Z</time></trkpt><trkpt lat="42.97785" lon="13.3594283"><ele>451.5</ele><time>2026-04-04T10:21:37.535Z</time></trkpt><trkpt lat="42.9778083" lon="13.3595317"><ele>444.0</ele><time>2026-04-04T10:21:38.534Z</time></trkpt><trkpt lat="42.977775" lon="13.359635"><ele>436.5</ele><time>2026-04-04T10:21:39.535Z</time></trkpt><trkpt lat="42.977745" lon="13.3597317"><ele>429.0</ele><time>2026-04-04T10:21:40.535Z</time></trkpt><trkpt lat="42.9777017" lon="13.3598167"><ele>427.4</ele><time>2026-04-04T10:21:41.534Z</time></trkpt><trkpt lat="42.97766" lon="13.35989"><ele>425.79999999999995</ele><time>2026-04-04T10:21:42.535Z</time></trkpt><trkpt lat="42.97762" lon="13.3599567"><ele>424.20000000000005</ele><time>2026-04-04T10:21:43.534Z</time></trkpt><trkpt lat="42.977535" lon="13.36007"><ele>422.6</ele><time>2026-04-04T10:21:45.535Z</time></trkpt><trkpt lat="42.9774333" lon="13.360155"><ele>421.0</ele><time>2026-04-04T10:21:47.535Z</time></trkpt><trkpt lat="42.9773383" lon="13.36023"><ele>418.6666666666667</ele><time>2026-04-04T10:21:49.535Z</time></trkpt><trkpt lat="42.97723" lon="13.36027"><ele>416.33333333333337</ele><time>2026-04-04T10:21:51.534Z</time></trkpt><trkpt lat="42.9771433" lon="13.3602717"><ele>414.0</ele><time>2026-04-04T10:21:53.534Z</time></trkpt><trkpt lat="42.9771" lon="13.3601733"><ele>411.66666666666663</ele><time>2026-04-04T10:21:55.535Z</time></trkpt><trkpt lat="42.9770733" lon="13.3600683"><ele>409.3333333333333</ele><time>2026-04-04T10:21:57.534Z</time></trkpt><trkpt lat="42.9770583" lon="13.35998"><ele>407.0</ele><time>2026-04-04T10:25:26.534Z</time></trkpt><trkpt lat="42.9770283" lon="13.3598917"><ele>407.0</ele><time>2026-04-04T10:25:28.533Z</time></trkpt><trkpt lat="42.9769583" lon="13.3597567"><ele>407.0</ele><time>2026-04-04T10:25:30.534Z</time></trkpt><trkpt lat="42.9769133" lon="13.35969"><ele>407.0</ele><time>2026-04-04T10:25:31.533Z</time></trkpt><trkpt lat="42.97683" lon="13.3595883"><ele>407.0</ele><time>2026-04-04T10:25:33.533Z</time></trkpt><trkpt lat="42.9767462" lon="13.3595191"><ele>407.0</ele><time>2026-04-04T10:25:35.533Z</time></trkpt><trkpt lat="42.9766979" lon="13.3594393"><ele>407.99999999999994</ele><time>2026-04-04T10:25:37.534Z</time></trkpt><trkpt lat="42.9767473" lon="13.3593576"><ele>409.0</ele><time>2026-04-04T10:25:39.534Z</time></trkpt><trkpt lat="42.9768269" lon="13.35925"><ele>410.0</ele><time>2026-04-04T10:25:41.534Z</time></trkpt><trkpt lat="42.9768617" lon="13.3591284"><ele>411.0</ele><time>2026-04-04T10:25:43.534Z</time></trkpt><trkpt lat="42.9768415" lon="13.3590383"><ele>411.99999999999994</ele><time>2026-04-04T10:25:46.534Z</time></trkpt><trkpt lat="42.9767662" lon="13.3590397"><ele>413.0</ele><time>2026-04-04T10:25:49.533Z</time></trkpt><trkpt lat="42.9766955" lon="13.3590395"><ele>415.99999999999994</ele><time>2026-04-04T10:25:51.534Z</time></trkpt><trkpt lat="42.9766182" lon="13.3589761"><ele>419.0</ele><time>2026-04-04T10:25:53.533Z</time></trkpt><trkpt lat="42.9765775" lon="13.3588724"><ele>422.0</ele><time>2026-04-04T10:25:55.534Z</time></trkpt><trkpt lat="42.9765463" lon="13.3587577"><ele>425.0</ele><time>2026-04-04T10:25:57.534Z</time></trkpt><trkpt lat="42.9765137" lon="13.3586466"><ele>427.99999999999994</ele><time>2026-04-04T10:25:59.534Z</time></trkpt><trkpt lat="42.9764616" lon="13.3585517"><ele>431.0</ele><time>2026-04-04T10:26:01.534Z</time></trkpt><trkpt lat="42.9764076" lon="13.3584685"><ele>432.66666666666663</ele><time>2026-04-04T10:26:03.534Z</time></trkpt><trkpt lat="42.9763432" lon="13.3583771"><ele>434.3333333333333</ele><time>2026-04-04T10:26:05.533Z</time></trkpt><trkpt lat="42.9762882" lon="13.3583025"><ele>436.0</ele><time>2026-04-04T10:26:07.533Z</time></trkpt><trkpt lat="42.9763144" lon="13.3582232"><ele>437.66666666666663</ele><time>2026-04-04T10:26:17.533Z</time></trkpt><trkpt lat="42.9763742" lon="13.3581651"><ele>439.3333333333333</ele><time>2026-04-04T10:26:19.534Z</time></trkpt><trkpt lat="42.9764344" lon="13.3581349"><ele>441.0</ele><time>2026-04-04T10:26:21.533Z</time></trkpt><trkpt lat="42.9765155" lon="13.3581632"><ele>441.0</ele><time>2026-04-04T10:26:23.534Z</time></trkpt><trkpt lat="42.9765852" lon="13.3581954"><ele>441.0</ele><time>2026-04-04T10:26:25.534Z</time></trkpt><trkpt lat="42.9766402" lon="13.3582542"><ele>441.0</ele><time>2026-04-04T10:26:28.533Z</time></trkpt><trkpt lat="42.9766347" lon="13.3581664"><ele>441.0</ele><time>2026-04-04T10:26:42.533Z</time></trkpt><trkpt lat="42.976544" lon="13.3581455"><ele>441.0</ele><time>2026-04-04T10:26:44.533Z</time></trkpt><trkpt lat="42.9764469" lon="13.3581173"><ele>441.0</ele><time>2026-04-04T10:26:46.533Z</time></trkpt><trkpt lat="42.976361" lon="13.3581392"><ele>441.0</ele><time>2026-04-04T10:26:49.534Z</time></trkpt><trkpt lat="42.9763071" lon="13.3582091"><ele>441.0</ele><time>2026-04-04T10:26:51.533Z</time></trkpt><trkpt lat="42.9762284" lon="13.3582396"><ele>441.0</ele><time>2026-04-04T10:26:54.534Z</time></trkpt><trkpt lat="42.9761516" lon="13.3581839"><ele>441.0</ele><time>2026-04-04T10:27:00.534Z</time></trkpt><trkpt lat="42.9760799" lon="13.3581259"><ele>441.0</ele><time>2026-04-04T10:27:02.533Z</time></trkpt><trkpt lat="42.9760165" lon="13.3580559"><ele>441.0</ele><time>2026-04-04T10:27:04.534Z</time></trkpt><trkpt lat="42.9759528" lon="13.3580262"><ele>441.20000000000005</ele><time>2026-04-04T10:27:06.533Z</time></trkpt><trkpt lat="42.9758639" lon="13.3580231"><ele>441.40000000000003</ele><time>2026-04-04T10:27:23.534Z</time></trkpt><trkpt lat="42.9757812" lon="13.3579931"><ele>441.6</ele><time>2026-04-04T10:27:25.534Z</time></trkpt><trkpt lat="42.9756744" lon="13.3579464"><ele>441.8</ele><time>2026-04-04T10:27:27.533Z</time></trkpt><trkpt lat="42.9755568" lon="13.3579317"><ele>442.0</ele><time>2026-04-04T10:27:29.534Z</time></trkpt><trkpt lat="42.9754925" lon="13.3579422"><ele>442.00000000000006</ele><time>2026-04-04T10:27:30.533Z</time></trkpt><trkpt lat="42.9754267" lon="13.3579562"><ele>442.0</ele><time>2026-04-04T10:27:31.534Z</time></trkpt><trkpt lat="42.9753528" lon="13.3579766"><ele>442.0</ele><time>2026-04-04T10:27:32.534Z</time></trkpt><trkpt lat="42.9752755" lon="13.3580002"><ele>442.0</ele><time>2026-04-04T10:27:33.533Z</time></trkpt><trkpt lat="42.9752005" lon="13.3580322"><ele>442.00000000000006</ele><time>2026-04-04T10:27:34.534Z</time></trkpt><trkpt lat="42.9751279" lon="13.3580654"><ele>442.0</ele><time>2026-04-04T10:27:35.533Z</time></trkpt><trkpt lat="42.9750483" lon="13.3581075"><ele>443.25</ele><time>2026-04-04T10:27:36.534Z</time></trkpt><trkpt lat="42.9749627" lon="13.3581569"><ele>444.5</ele><time>2026-04-04T10:27:37.533Z</time></trkpt><trkpt lat="42.9748615" lon="13.3582156"><ele>445.75</ele><time>2026-04-04T10:27:38.533Z</time></trkpt><trkpt lat="42.9747383" lon="13.3582875"><ele>447.0</ele><time>2026-04-04T10:27:39.533Z</time></trkpt><trkpt lat="42.97462" lon="13.3583643"><ele>447.0</ele><time>2026-04-04T10:27:40.534Z</time></trkpt><trkpt lat="42.9745215" lon="13.3584262"><ele>447.0</ele><time>2026-04-04T10:27:41.533Z</time></trkpt><trkpt lat="42.9744394" lon="13.3584771"><ele>447.0</ele><time>2026-04-04T10:27:42.533Z</time></trkpt><trkpt lat="42.9743831" lon="13.3585173"><ele>447.0</ele><time>2026-04-04T10:27:43.533Z</time></trkpt><trkpt lat="42.9742909" lon="13.3585398"><ele>447.0</ele><time>2026-04-04T10:27:45.534Z</time></trkpt><trkpt lat="42.9742098" lon="13.3584997"><ele>447.0</ele><time>2026-04-04T10:27:47.534Z</time></trkpt><trkpt lat="42.9741171" lon="13.3584101"><ele>448.3333333333333</ele><time>2026-04-04T10:27:49.533Z</time></trkpt><trkpt lat="42.9740647" lon="13.3583589"><ele>449.66666666666663</ele><time>2026-04-04T10:27:50.533Z</time></trkpt><trkpt lat="42.9740075" lon="13.3583103"><ele>451.0</ele><time>2026-04-04T10:27:51.534Z</time></trkpt><trkpt lat="42.9739518" lon="13.3582538"><ele>452.3333333333333</ele><time>2026-04-04T10:27:52.533Z</time></trkpt><trkpt lat="42.9738568" lon="13.3581607"><ele>453.66666666666663</ele><time>2026-04-04T10:27:54.534Z</time></trkpt><trkpt lat="42.97376" lon="13.3581117"><ele>455.0</ele><time>2026-04-04T10:27:56.534Z</time></trkpt><trkpt lat="42.9736833" lon="13.3580633"><ele>455.0</ele><time>2026-04-04T10:27:58.533Z</time></trkpt><trkpt lat="42.97367" lon="13.3579667"><ele>455.0</ele><time>2026-04-04T10:28:00.534Z</time></trkpt><trkpt lat="42.973665" lon="13.3578667"><ele>455.0</ele><time>2026-04-04T10:28:02.534Z</time></trkpt><trkpt lat="42.9736533" lon="13.3577033"><ele>455.0</ele><time>2026-04-04T10:28:11.534Z</time></trkpt><trkpt lat="42.9737367" lon="13.357615"><ele>455.0</ele><time>2026-04-04T10:39:45.533Z</time></trkpt><trkpt lat="42.9736467" lon="13.357635"><ele>455.0</ele><time>2026-04-04T10:57:05.534Z</time></trkpt><trkpt lat="42.97362" lon="13.3577467"><ele>455.0</ele><time>2026-04-04T11:31:26.54Z</time></trkpt><trkpt lat="42.973545" lon="13.3578117"><ele>455.0</ele><time>2026-04-04T11:31:28.539Z</time></trkpt><trkpt lat="42.9734483" lon="13.3578517"><ele>455.0</ele><time>2026-04-04T11:31:30.54Z</time></trkpt><trkpt lat="42.9733633" lon="13.3578333"><ele>455.0</ele><time>2026-04-04T11:31:33.539Z</time></trkpt><trkpt lat="42.9732767" lon="13.35788"><ele>455.3333333333333</ele><time>2026-04-04T11:31:42.539Z</time></trkpt><trkpt lat="42.97324" lon="13.3579583"><ele>455.66666666666663</ele><time>2026-04-04T11:31:44.54Z</time></trkpt><trkpt lat="42.9731183" lon="13.3579667"><ele>456.0</ele><time>2026-04-04T11:31:46.539Z</time></trkpt><trkpt lat="42.9730467" lon="13.3579383"><ele>456.33333333333337</ele><time>2026-04-04T11:31:47.539Z</time></trkpt><trkpt lat="42.9729733" lon="13.357915"><ele>456.6666666666667</ele><time>2026-04-04T11:31:48.54Z</time></trkpt><trkpt lat="42.9728967" lon="13.3579233"><ele>457.0</ele><time>2026-04-04T11:31:49.54Z</time></trkpt><trkpt lat="42.9728383" lon="13.3579733"><ele>456.6</ele><time>2026-04-04T11:31:50.539Z</time></trkpt><trkpt lat="42.972795" lon="13.3580733"><ele>456.20000000000005</ele><time>2026-04-04T11:31:51.539Z</time></trkpt><trkpt lat="42.9727783" lon="13.3582083"><ele>455.8</ele><time>2026-04-04T11:31:52.539Z</time></trkpt><trkpt lat="42.9727833" lon="13.35835"><ele>455.4</ele><time>2026-04-04T11:31:53.54Z</time></trkpt><trkpt lat="42.9728083" lon="13.358485"><ele>455.0</ele><time>2026-04-04T11:31:54.539Z</time></trkpt><trkpt lat="42.9728467" lon="13.358615"><ele>455.0</ele><time>2026-04-04T11:31:55.54Z</time></trkpt><trkpt lat="42.972895" lon="13.3587367"><ele>455.0</ele><time>2026-04-04T11:31:56.539Z</time></trkpt><trkpt lat="42.972935" lon="13.3588717"><ele>455.0</ele><time>2026-04-04T11:31:57.54Z</time></trkpt><trkpt lat="42.972975" lon="13.359005"><ele>455.0</ele><time>2026-04-04T11:31:58.539Z</time></trkpt><trkpt lat="42.9730083" lon="13.3591283"><ele>455.0</ele><time>2026-04-04T11:31:59.539Z</time></trkpt><trkpt lat="42.9730433" lon="13.3592717"><ele>454.75</ele><time>2026-04-04T11:32:00.539Z</time></trkpt><trkpt lat="42.9730833" lon="13.3594183"><ele>454.5</ele><time>2026-04-04T11:32:01.539Z</time></trkpt><trkpt lat="42.973125" lon="13.3595783"><ele>454.25</ele><time>2026-04-04T11:32:02.54Z</time></trkpt><trkpt lat="42.9731667" lon="13.3597417"><ele>454.0</ele><time>2026-04-04T11:32:03.539Z</time></trkpt><trkpt lat="42.9732017" lon="13.359905"><ele>453.75</ele><time>2026-04-04T11:32:04.539Z</time></trkpt><trkpt lat="42.9732467" lon="13.3600533"><ele>453.5</ele><time>2026-04-04T11:32:05.54Z</time></trkpt><trkpt lat="42.9732867" lon="13.3602067"><ele>453.25</ele><time>2026-04-04T11:32:06.539Z</time></trkpt><trkpt lat="42.9733267" lon="13.3603583"><ele>453.0</ele><time>2026-04-04T11:32:07.539Z</time></trkpt><trkpt lat="42.9733667" lon="13.3605083"><ele>453.0</ele><time>2026-04-04T11:32:08.539Z</time></trkpt><trkpt lat="42.9734033" lon="13.360665"><ele>452.99999999999994</ele><time>2026-04-04T11:32:09.539Z</time></trkpt><trkpt lat="42.97345" lon="13.3608117"><ele>452.99999999999994</ele><time>2026-04-04T11:32:10.539Z</time></trkpt><trkpt lat="42.9734883" lon="13.3609517"><ele>453.0</ele><time>2026-04-04T11:32:11.539Z</time></trkpt><trkpt lat="42.9735167" lon="13.361085"><ele>453.0</ele><time>2026-04-04T11:32:12.539Z</time></trkpt><trkpt lat="42.9735433" lon="13.361205"><ele>453.0</ele><time>2026-04-04T11:32:13.54Z</time></trkpt><trkpt lat="42.973565" lon="13.3612983"><ele>452.99999999999994</ele><time>2026-04-04T11:32:14.54Z</time></trkpt><trkpt lat="42.973585" lon="13.36144"><ele>452.99999999999994</ele><time>2026-04-04T11:32:16.54Z</time></trkpt><trkpt lat="42.97361" lon="13.3615867"><ele>453.0</ele><time>2026-04-04T11:32:18.54Z</time></trkpt><trkpt lat="42.9736517" lon="13.36173"><ele>453.0</ele><time>2026-04-04T11:32:20.54Z</time></trkpt><trkpt lat="42.9736617" lon="13.3618317"><ele>452.8333333333333</ele><time>2026-04-04T11:32:22.54Z</time></trkpt><trkpt lat="42.97363" lon="13.361925"><ele>452.66666666666663</ele><time>2026-04-04T11:32:25.539Z</time></trkpt><trkpt lat="42.9735733" lon="13.36197"><ele>452.5</ele><time>2026-04-04T11:32:58.539Z</time></trkpt><trkpt lat="42.9735033" lon="13.3620317"><ele>452.3333333333333</ele><time>2026-04-04T11:33:00.54Z</time></trkpt><trkpt lat="42.9734217" lon="13.3620983"><ele>452.16666666666663</ele><time>2026-04-04T11:33:02.54Z</time></trkpt><trkpt lat="42.97332" lon="13.3621567"><ele>452.0</ele><time>2026-04-04T11:33:04.539Z</time></trkpt><trkpt lat="42.973215" lon="13.36221"><ele>451.20000000000005</ele><time>2026-04-04T11:33:06.54Z</time></trkpt><trkpt lat="42.973105" lon="13.3622433"><ele>450.40000000000003</ele><time>2026-04-04T11:33:08.54Z</time></trkpt><trkpt lat="42.973015" lon="13.36229"><ele>449.59999999999997</ele><time>2026-04-04T11:33:10.539Z</time></trkpt><trkpt lat="42.9729433" lon="13.362345"><ele>448.79999999999995</ele><time>2026-04-04T11:33:12.54Z</time></trkpt><trkpt lat="42.9728467" lon="13.3624317"><ele>448.0</ele><time>2026-04-04T11:33:14.54Z</time></trkpt><trkpt lat="42.9727833" lon="13.36249"><ele>448.00000000000006</ele><time>2026-04-04T11:33:15.54Z</time></trkpt><trkpt lat="42.97272" lon="13.362555"><ele>448.0</ele><time>2026-04-04T11:33:16.539Z</time></trkpt><trkpt lat="42.9726667" lon="13.3626183"><ele>448.0</ele><time>2026-04-04T11:33:17.539Z</time></trkpt><trkpt lat="42.9726133" lon="13.3626783"><ele>448.0</ele><time>2026-04-04T11:33:18.539Z</time></trkpt><trkpt lat="42.9725533" lon="13.3627317"><ele>448.00000000000006</ele><time>2026-04-04T11:33:19.54Z</time></trkpt><trkpt lat="42.972495" lon="13.3627783"><ele>448.0</ele><time>2026-04-04T11:33:20.54Z</time></trkpt><trkpt lat="42.972395" lon="13.3628467"><ele>448.79999999999995</ele><time>2026-04-04T11:33:22.539Z</time></trkpt><trkpt lat="42.972305" lon="13.36291"><ele>449.59999999999997</ele><time>2026-04-04T11:33:24.54Z</time></trkpt><trkpt lat="42.972235" lon="13.3629967"><ele>450.40000000000003</ele><time>2026-04-04T11:33:26.54Z</time></trkpt><trkpt lat="42.9722233" lon="13.36311"><ele>451.20000000000005</ele><time>2026-04-04T11:33:36.54Z</time></trkpt><trkpt lat="42.9722933" lon="13.3632867"><ele>452.0</ele><time>2026-04-04T11:33:38.54Z</time></trkpt><trkpt lat="42.9723617" lon="13.3633983"><ele>449.25</ele><time>2026-04-04T11:33:39.539Z</time></trkpt><trkpt lat="42.97245" lon="13.3635233"><ele>446.5</ele><time>2026-04-04T11:33:40.54Z</time></trkpt><trkpt lat="42.9725617" lon="13.3636517"><ele>443.75</ele><time>2026-04-04T11:33:41.539Z</time></trkpt><trkpt lat="42.9726867" lon="13.3637467"><ele>441.0</ele><time>2026-04-04T11:33:42.539Z</time></trkpt><trkpt lat="42.9727967" lon="13.36383"><ele>438.6666666666667</ele><time>2026-04-04T11:33:43.54Z</time></trkpt><trkpt lat="42.9728817" lon="13.3639067"><ele>436.33333333333337</ele><time>2026-04-04T11:33:44.539Z</time></trkpt><trkpt lat="42.97295" lon="13.3639667"><ele>434.0</ele><time>2026-04-04T11:33:45.54Z</time></trkpt><trkpt lat="42.9730067" lon="13.3640133"><ele>431.6666666666667</ele><time>2026-04-04T11:33:46.539Z</time></trkpt><trkpt lat="42.97306" lon="13.3640633"><ele>429.33333333333337</ele><time>2026-04-04T11:33:47.539Z</time></trkpt><trkpt lat="42.97312" lon="13.3641033"><ele>427.0</ele><time>2026-04-04T11:33:48.54Z</time></trkpt><trkpt lat="42.973185" lon="13.3641433"><ele>427.0</ele><time>2026-04-04T11:33:49.539Z</time></trkpt><trkpt lat="42.9732983" lon="13.3642033"><ele>427.0</ele><time>2026-04-04T11:33:51.539Z</time></trkpt><trkpt lat="42.9734" lon="13.3642617"><ele>427.0</ele><time>2026-04-04T11:33:53.54Z</time></trkpt><trkpt lat="42.97351" lon="13.3643183"><ele>427.0</ele><time>2026-04-04T11:33:55.54Z</time></trkpt><trkpt lat="42.973615" lon="13.3643633"><ele>427.85714285714283</ele><time>2026-04-04T11:33:57.54Z</time></trkpt><trkpt lat="42.973675" lon="13.3644"><ele>428.7142857142857</ele><time>2026-04-04T11:33:59.539Z</time></trkpt><trkpt lat="42.973705" lon="13.3644967"><ele>429.57142857142856</ele><time>2026-04-04T11:34:21.539Z</time></trkpt><trkpt lat="42.9737467" lon="13.3645667"><ele>430.42857142857144</ele><time>2026-04-04T11:34:26.54Z</time></trkpt><trkpt lat="42.9737483" lon="13.364465"><ele>431.2857142857143</ele><time>2026-04-04T11:38:23.539Z</time></trkpt><trkpt lat="42.973695" lon="13.3643783"><ele>432.1428571428571</ele><time>2026-04-04T11:38:27.539Z</time></trkpt><trkpt lat="42.9736367" lon="13.3643333"><ele>433.0</ele><time>2026-04-04T11:38:29.539Z</time></trkpt><trkpt lat="42.97356" lon="13.3642867"><ele>433.0</ele><time>2026-04-04T11:38:31.54Z</time></trkpt><trkpt lat="42.9734733" lon="13.36422"><ele>432.99999999999994</ele><time>2026-04-04T11:38:33.54Z</time></trkpt><trkpt lat="42.9734133" lon="13.3641917"><ele>432.99999999999994</ele><time>2026-04-04T11:38:35.54Z</time></trkpt><trkpt lat="42.9733317" lon="13.3641533"><ele>433.0</ele><time>2026-04-04T11:38:56.54Z</time></trkpt><trkpt lat="42.97321" lon="13.364055"><ele>433.0</ele><time>2026-04-04T11:38:58.539Z</time></trkpt><trkpt lat="42.973135" lon="13.3640117"><ele>432.00000000000006</ele><time>2026-04-04T11:38:59.54Z</time></trkpt><trkpt lat="42.9730633" lon="13.363965"><ele>431.0</ele><time>2026-04-04T11:39:00.54Z</time></trkpt><trkpt lat="42.9730033" lon="13.3639117"><ele>430.0</ele><time>2026-04-04T11:39:01.539Z</time></trkpt><trkpt lat="42.972935" lon="13.3638433"><ele>429.0</ele><time>2026-04-04T11:39:02.539Z</time></trkpt><trkpt lat="42.9728683" lon="13.3637733"><ele>428.00000000000006</ele><time>2026-04-04T11:39:03.54Z</time></trkpt><trkpt lat="42.9727917" lon="13.3636983"><ele>427.0</ele><time>2026-04-04T11:39:04.54Z</time></trkpt><trkpt lat="42.9727183" lon="13.3636217"><ele>429.00000000000006</ele><time>2026-04-04T11:39:05.539Z</time></trkpt><trkpt lat="42.97265" lon="13.36354"><ele>431.0</ele><time>2026-04-04T11:39:06.539Z</time></trkpt><trkpt lat="42.9725767" lon="13.3634617"><ele>433.0</ele><time>2026-04-04T11:39:07.539Z</time></trkpt><trkpt lat="42.9725" lon="13.363385"><ele>435.0</ele><time>2026-04-04T11:39:08.54Z</time></trkpt><trkpt lat="42.97243" lon="13.3633117"><ele>437.00000000000006</ele><time>2026-04-04T11:39:09.539Z</time></trkpt><trkpt lat="42.9723667" lon="13.36324"><ele>439.0</ele><time>2026-04-04T11:39:10.54Z</time></trkpt><trkpt lat="42.9723167" lon="13.3631733"><ele>439.0</ele><time>2026-04-04T11:39:11.54Z</time></trkpt><trkpt lat="42.9722583" lon="13.3630517"><ele>439.0</ele><time>2026-04-04T11:39:13.54Z</time></trkpt><trkpt lat="42.9723017" lon="13.3629617"><ele>439.0</ele><time>2026-04-04T11:39:29.539Z</time></trkpt><trkpt lat="42.97243" lon="13.3628867"><ele>439.0</ele><time>2026-04-04T11:39:31.54Z</time></trkpt><trkpt lat="42.972525" lon="13.3628317"><ele>439.0</ele><time>2026-04-04T11:39:32.539Z</time></trkpt><trkpt lat="42.9726283" lon="13.36275"><ele>442.0</ele><time>2026-04-04T11:39:33.538Z</time></trkpt><trkpt lat="42.9727617" lon="13.3626133"><ele>445.0</ele><time>2026-04-04T11:39:34.538Z</time></trkpt><trkpt lat="42.972905" lon="13.3624817"><ele>448.0</ele><time>2026-04-04T11:39:35.538Z</time></trkpt><trkpt lat="42.9730417" lon="13.3623683"><ele>448.0</ele><time>2026-04-04T11:39:36.538Z</time></trkpt><trkpt lat="42.973165" lon="13.3622733"><ele>448.0</ele><time>2026-04-04T11:39:37.539Z</time></trkpt><trkpt lat="42.9732717" lon="13.3622133"><ele>448.0</ele><time>2026-04-04T11:39:38.539Z</time></trkpt><trkpt lat="42.9733767" lon="13.362155"><ele>448.0</ele><time>2026-04-04T11:39:39.538Z</time></trkpt><trkpt lat="42.973465" lon="13.3620983"><ele>448.50000000000006</ele><time>2026-04-04T11:39:40.538Z</time></trkpt><trkpt lat="42.97355" lon="13.36203"><ele>449.0</ele><time>2026-04-04T11:39:41.538Z</time></trkpt><trkpt lat="42.9736233" lon="13.36195"><ele>449.5</ele><time>2026-04-04T11:39:42.538Z</time></trkpt><trkpt lat="42.973665" lon="13.3618767"><ele>450.0</ele><time>2026-04-04T11:39:43.539Z</time></trkpt><trkpt lat="42.9736983" lon="13.3617817"><ele>450.50000000000006</ele><time>2026-04-04T11:39:44.539Z</time></trkpt><trkpt lat="42.9737133" lon="13.3616833"><ele>451.0</ele><time>2026-04-04T11:39:45.538Z</time></trkpt><trkpt lat="42.9737067" lon="13.36156"><ele>451.0</ele><time>2026-04-04T11:39:46.538Z</time></trkpt><trkpt lat="42.9736983" lon="13.361405"><ele>451.0</ele><time>2026-04-04T11:39:47.539Z</time></trkpt><trkpt lat="42.9736417" lon="13.361225"><ele>451.0</ele><time>2026-04-04T11:39:48.539Z</time></trkpt><trkpt lat="42.9735717" lon="13.3610067"><ele>451.0</ele><time>2026-04-04T11:39:49.539Z</time></trkpt><trkpt lat="42.9735017" lon="13.3607817"><ele>451.6666666666667</ele><time>2026-04-04T11:39:50.539Z</time></trkpt><trkpt lat="42.9734317" lon="13.3605517"><ele>452.33333333333337</ele><time>2026-04-04T11:39:51.538Z</time></trkpt><trkpt lat="42.973355" lon="13.36029"><ele>453.0</ele><time>2026-04-04T11:39:52.538Z</time></trkpt><trkpt lat="42.9732867" lon="13.3600383"><ele>453.0</ele><time>2026-04-04T11:39:53.538Z</time></trkpt><trkpt lat="42.97322" lon="13.359775"><ele>453.0</ele><time>2026-04-04T11:39:54.539Z</time></trkpt><trkpt lat="42.973155" lon="13.359505"><ele>453.0</ele><time>2026-04-04T11:39:55.538Z</time></trkpt><trkpt lat="42.9731" lon="13.3592433"><ele>453.33333333333337</ele><time>2026-04-04T11:39:56.538Z</time></trkpt><trkpt lat="42.973035" lon="13.35899"><ele>453.6666666666667</ele><time>2026-04-04T11:39:57.538Z</time></trkpt><trkpt lat="42.9729833" lon="13.35876"><ele>454.0</ele><time>2026-04-04T11:39:58.539Z</time></trkpt><trkpt lat="42.9729333" lon="13.3585517"><ele>454.2</ele><time>2026-04-04T11:39:59.538Z</time></trkpt><trkpt lat="42.9728967" lon="13.3583833"><ele>454.4</ele><time>2026-04-04T11:40:00.538Z</time></trkpt><trkpt lat="42.9728733" lon="13.358245"><ele>454.6</ele><time>2026-04-04T11:40:01.538Z</time></trkpt><trkpt lat="42.9728733" lon="13.3581333"><ele>454.8</ele><time>2026-04-04T11:40:02.538Z</time></trkpt><trkpt lat="42.9728967" lon="13.3580167"><ele>455.0</ele><time>2026-04-04T11:40:03.539Z</time></trkpt><trkpt lat="42.9729383" lon="13.3579317"><ele>455.0</ele><time>2026-04-04T11:40:04.539Z</time></trkpt><trkpt lat="42.9729933" lon="13.357885"><ele>455.0</ele><time>2026-04-04T11:40:05.539Z</time></trkpt><trkpt lat="42.97308" lon="13.3578783"><ele>455.0</ele><time>2026-04-04T11:40:06.538Z</time></trkpt><trkpt lat="42.9731867" lon="13.3579067"><ele>455.0</ele><time>2026-04-04T11:40:07.539Z</time></trkpt><trkpt lat="42.97329" lon="13.3579183"><ele>455.0</ele><time>2026-04-04T11:40:08.538Z</time></trkpt><trkpt lat="42.9733867" lon="13.3579083"><ele>454.99999999999994</ele><time>2026-04-04T11:40:09.538Z</time></trkpt><trkpt lat="42.9734617" lon="13.3578917"><ele>455.0</ele><time>2026-04-04T11:40:10.539Z</time></trkpt><trkpt lat="42.9735317" lon="13.3578583"><ele>455.0</ele><time>2026-04-04T11:40:11.539Z</time></trkpt><trkpt lat="42.973565" lon="13.3577767"><ele>455.0</ele><time>2026-04-04T11:40:13.538Z</time></trkpt><trkpt lat="42.9735217" lon="13.35771"><ele>454.99999999999994</ele><time>2026-04-04T11:42:59.538Z</time></trkpt><trkpt lat="42.9734417" lon="13.3577767"><ele>455.0</ele><time>2026-04-04T11:43:01.538Z</time></trkpt><trkpt lat="42.9733783" lon="13.3578417"><ele>455.4</ele><time>2026-04-04T11:43:02.539Z</time></trkpt><trkpt lat="42.9732983" lon="13.3579067"><ele>455.8</ele><time>2026-04-04T11:43:03.539Z</time></trkpt><trkpt lat="42.973215" lon="13.3579483"><ele>456.20000000000005</ele><time>2026-04-04T11:43:04.539Z</time></trkpt><trkpt lat="42.9731167" lon="13.3579567"><ele>456.6</ele><time>2026-04-04T11:43:05.538Z</time></trkpt><trkpt lat="42.9730167" lon="13.3579283"><ele>457.0</ele><time>2026-04-04T11:43:06.538Z</time></trkpt><trkpt lat="42.972905" lon="13.3578633"><ele>457.0</ele><time>2026-04-04T11:43:07.538Z</time></trkpt><trkpt lat="42.9727833" lon="13.357745"><ele>457.0</ele><time>2026-04-04T11:43:08.539Z</time></trkpt><trkpt lat="42.9726633" lon="13.3575683"><ele>457.0</ele><time>2026-04-04T11:43:09.539Z</time></trkpt><trkpt lat="42.9725333" lon="13.3573617"><ele>457.33333333333337</ele><time>2026-04-04T11:43:10.538Z</time></trkpt><trkpt lat="42.972415" lon="13.3571617"><ele>457.66666666666663</ele><time>2026-04-04T11:43:11.539Z</time></trkpt><trkpt lat="42.972305" lon="13.3570183"><ele>458.0</ele><time>2026-04-04T11:43:12.539Z</time></trkpt><trkpt lat="42.97222" lon="13.3569033"><ele>457.99999999999994</ele><time>2026-04-04T11:43:13.539Z</time></trkpt><trkpt lat="42.9721517" lon="13.3568283"><ele>458.0</ele><time>2026-04-04T11:43:14.539Z</time></trkpt><trkpt lat="42.9720917" lon="13.3567683"><ele>458.0</ele><time>2026-04-04T11:43:15.538Z</time></trkpt><trkpt lat="42.9720267" lon="13.3567167"><ele>458.0</ele><time>2026-04-04T11:43:16.539Z</time></trkpt><trkpt lat="42.97196" lon="13.3566667"><ele>457.99999999999994</ele><time>2026-04-04T11:43:17.538Z</time></trkpt><trkpt lat="42.9718733" lon="13.3566283"><ele>458.0</ele><time>2026-04-04T11:43:18.538Z</time></trkpt><trkpt lat="42.9717583" lon="13.3565817"><ele>458.0</ele><time>2026-04-04T11:43:19.538Z</time></trkpt><trkpt lat="42.9716317" lon="13.3565383"><ele>458.0</ele><time>2026-04-04T11:43:20.538Z</time></trkpt><trkpt lat="42.9714933" lon="13.3565033"><ele>458.0</ele><time>2026-04-04T11:43:21.539Z</time></trkpt><trkpt lat="42.9713533" lon="13.35646"><ele>458.0</ele><time>2026-04-04T11:43:22.538Z</time></trkpt><trkpt lat="42.9712167" lon="13.3564167"><ele>458.75</ele><time>2026-04-04T11:43:23.538Z</time></trkpt><trkpt lat="42.9710833" lon="13.356365"><ele>459.5</ele><time>2026-04-04T11:43:24.539Z</time></trkpt><trkpt lat="42.9709667" lon="13.3563067"><ele>460.25</ele><time>2026-04-04T11:43:25.538Z</time></trkpt><trkpt lat="42.9708717" lon="13.35624"><ele>461.0</ele><time>2026-04-04T11:43:26.539Z</time></trkpt><trkpt lat="42.97079" lon="13.3561467"><ele>461.5</ele><time>2026-04-04T11:43:27.538Z</time></trkpt><trkpt lat="42.9707283" lon="13.3560233"><ele>462.0</ele><time>2026-04-04T11:43:28.539Z</time></trkpt><trkpt lat="42.9706983" lon="13.3558767"><ele>462.5</ele><time>2026-04-04T11:43:29.539Z</time></trkpt><trkpt lat="42.9706883" lon="13.3557167"><ele>463.0</ele><time>2026-04-04T11:43:30.539Z</time></trkpt><trkpt lat="42.9707033" lon="13.3555317"><ele>463.6666666666667</ele><time>2026-04-04T11:43:31.538Z</time></trkpt><trkpt lat="42.9707367" lon="13.3553383"><ele>464.33333333333337</ele><time>2026-04-04T11:43:32.538Z</time></trkpt><trkpt lat="42.97078" lon="13.3551267"><ele>465.0</ele><time>2026-04-04T11:43:33.538Z</time></trkpt><trkpt lat="42.9708133" lon="13.3549067"><ele>465.0</ele><time>2026-04-04T11:43:34.539Z</time></trkpt><trkpt lat="42.97084" lon="13.3546867"><ele>465.0</ele><time>2026-04-04T11:43:35.539Z</time></trkpt><trkpt lat="42.9708633" lon="13.3544633"><ele>465.0</ele><time>2026-04-04T11:43:36.538Z</time></trkpt><trkpt lat="42.9708983" lon="13.3542467"><ele>464.5</ele><time>2026-04-04T11:43:37.538Z</time></trkpt><trkpt lat="42.97093" lon="13.3540367"><ele>464.0</ele><time>2026-04-04T11:43:38.538Z</time></trkpt><trkpt lat="42.970975" lon="13.353845"><ele>463.5</ele><time>2026-04-04T11:43:39.539Z</time></trkpt><trkpt lat="42.97103" lon="13.3536717"><ele>463.0</ele><time>2026-04-04T11:43:40.538Z</time></trkpt><trkpt lat="42.9711233" lon="13.35351"><ele>462.0</ele><time>2026-04-04T11:43:41.539Z</time></trkpt><trkpt lat="42.9712383" lon="13.3533883"><ele>461.0</ele><time>2026-04-04T11:43:42.538Z</time></trkpt><trkpt lat="42.971345" lon="13.353245"><ele>460.0</ele><time>2026-04-04T11:43:43.538Z</time></trkpt><trkpt lat="42.97146" lon="13.3531133"><ele>459.0</ele><time>2026-04-04T11:43:44.539Z</time></trkpt><trkpt lat="42.97157" lon="13.3529883"><ele>457.5</ele><time>2026-04-04T11:43:45.538Z</time></trkpt><trkpt lat="42.97169" lon="13.3528533"><ele>456.0</ele><time>2026-04-04T11:43:46.538Z</time></trkpt><trkpt lat="42.9718033" lon="13.35273"><ele>454.5</ele><time>2026-04-04T11:43:47.538Z</time></trkpt><trkpt lat="42.971915" lon="13.35261"><ele>453.0</ele><time>2026-04-04T11:43:48.538Z</time></trkpt><trkpt lat="42.9720133" lon="13.3524967"><ele>453.0</ele><time>2026-04-04T11:43:49.539Z</time></trkpt><trkpt lat="42.9721083" lon="13.35239"><ele>452.99999999999994</ele><time>2026-04-04T11:43:50.539Z</time></trkpt><trkpt lat="42.972205" lon="13.352295"><ele>452.99999999999994</ele><time>2026-04-04T11:43:51.538Z</time></trkpt><trkpt lat="42.97229" lon="13.3522317"><ele>453.0</ele><time>2026-04-04T11:43:52.538Z</time></trkpt><trkpt lat="42.97236" lon="13.352155"><ele>453.0</ele><time>2026-04-04T11:43:53.538Z</time></trkpt><trkpt lat="42.97242" lon="13.3520917"><ele>450.4</ele><time>2026-04-04T11:43:54.539Z</time></trkpt><trkpt lat="42.9724683" lon="13.3519933"><ele>447.79999999999995</ele><time>2026-04-04T11:43:56.538Z</time></trkpt><trkpt lat="42.9724033" lon="13.3519683"><ele>445.2</ele><time>2026-04-04T11:43:58.539Z</time></trkpt><trkpt lat="42.9722883" lon="13.3519883"><ele>442.6</ele><time>2026-04-04T11:44:00.538Z</time></trkpt><trkpt lat="42.97221" lon="13.3520283"><ele>440.0</ele><time>2026-04-04T11:44:01.538Z</time></trkpt><trkpt lat="42.9721183" lon="13.35207"><ele>439.99999999999994</ele><time>2026-04-04T11:44:02.539Z</time></trkpt><trkpt lat="42.9720233" lon="13.3521083"><ele>440.0</ele><time>2026-04-04T11:44:03.538Z</time></trkpt><trkpt lat="42.9719383" lon="13.3521367"><ele>440.0</ele><time>2026-04-04T11:44:04.539Z</time></trkpt><trkpt lat="42.9718633" lon="13.3521417"><ele>440.0</ele><time>2026-04-04T11:44:05.539Z</time></trkpt><trkpt lat="42.9717883" lon="13.3521417"><ele>439.99999999999994</ele><time>2026-04-04T11:44:06.539Z</time></trkpt><trkpt lat="42.9717167" lon="13.3521283"><ele>440.0</ele><time>2026-04-04T11:44:07.539Z</time></trkpt><trkpt lat="42.97165" lon="13.3521167"><ele>440.8</ele><time>2026-04-04T11:44:08.538Z</time></trkpt><trkpt lat="42.9715417" lon="13.3520783"><ele>441.6</ele><time>2026-04-04T11:44:10.539Z</time></trkpt><trkpt lat="42.9714883" lon="13.352015"><ele>442.4</ele><time>2026-04-04T11:44:12.538Z</time></trkpt><trkpt lat="42.9714533" lon="13.3519217"><ele>443.2</ele><time>2026-04-04T11:44:14.539Z</time></trkpt><trkpt lat="42.9714633" lon="13.3517983"><ele>444.0</ele><time>2026-04-04T11:44:16.538Z</time></trkpt><trkpt lat="42.97148" lon="13.3516633"><ele>444.0</ele><time>2026-04-04T11:44:18.539Z</time></trkpt><trkpt lat="42.9714967" lon="13.3515483"><ele>444.0</ele><time>2026-04-04T11:44:20.538Z</time></trkpt><trkpt lat="42.9715433" lon="13.351425"><ele>444.0</ele><time>2026-04-04T11:44:22.539Z</time></trkpt><trkpt lat="42.9715983" lon="13.3512783"><ele>444.0</ele><time>2026-04-04T11:44:24.538Z</time></trkpt><trkpt lat="42.9716533" lon="13.35115"><ele>444.0</ele><time>2026-04-04T11:44:26.539Z</time></trkpt><trkpt lat="42.9717183" lon="13.3510233"><ele>442.0</ele><time>2026-04-04T11:44:28.539Z</time></trkpt><trkpt lat="42.9717833" lon="13.3509233"><ele>440.0</ele><time>2026-04-04T11:44:30.538Z</time></trkpt><trkpt lat="42.9718517" lon="13.3508367"><ele>438.0</ele><time>2026-04-04T11:44:32.539Z</time></trkpt><trkpt lat="42.9719017" lon="13.350755"><ele>436.0</ele><time>2026-04-04T11:44:34.538Z</time></trkpt><trkpt lat="42.9719083" lon="13.3506433"><ele>434.0</ele><time>2026-04-04T11:44:37.539Z</time></trkpt><trkpt lat="42.971905" lon="13.3505467"><ele>432.0</ele><time>2026-04-04T11:44:39.538Z</time></trkpt><trkpt lat="42.9718817" lon="13.3504333"><ele>432.0</ele><time>2026-04-04T11:44:41.538Z</time></trkpt><trkpt lat="42.9718233" lon="13.35032"><ele>432.00000000000006</ele><time>2026-04-04T11:44:43.539Z</time></trkpt><trkpt lat="42.9717333" lon="13.350245"><ele>432.00000000000006</ele><time>2026-04-04T11:44:45.539Z</time></trkpt><trkpt lat="42.9716483" lon="13.35015"><ele>432.0</ele><time>2026-04-04T11:44:47.538Z</time></trkpt><trkpt lat="42.9716133" lon="13.3500733"><ele>432.0</ele><time>2026-04-04T11:44:48.538Z</time></trkpt><trkpt lat="42.9715717" lon="13.3499933"><ele>433.8</ele><time>2026-04-04T11:44:49.538Z</time></trkpt><trkpt lat="42.9715233" lon="13.3499083"><ele>435.6</ele><time>2026-04-04T11:44:50.539Z</time></trkpt><trkpt lat="42.97146" lon="13.34981"><ele>437.40000000000003</ele><time>2026-04-04T11:44:51.539Z</time></trkpt><trkpt lat="42.9714" lon="13.3496933"><ele>439.20000000000005</ele><time>2026-04-04T11:44:52.539Z</time></trkpt><trkpt lat="42.9713283" lon="13.3495817"><ele>441.0</ele><time>2026-04-04T11:44:53.539Z</time></trkpt><trkpt lat="42.9712833" lon="13.3494867"><ele>441.0</ele><time>2026-04-04T11:44:54.537Z</time></trkpt><trkpt lat="42.971245" lon="13.34941"><ele>441.0</ele><time>2026-04-04T11:44:55.537Z</time></trkpt><trkpt lat="42.971215" lon="13.349305"><ele>441.0</ele><time>2026-04-04T11:44:57.538Z</time></trkpt><trkpt lat="42.97114" lon="13.34931"><ele>441.0</ele><time>2026-04-04T11:45:01.536Z</time></trkpt><trkpt lat="42.9711417" lon="13.3494517"><ele>441.0</ele><time>2026-04-04T11:45:04.538Z</time></trkpt><trkpt lat="42.9711483" lon="13.349595"><ele>441.0</ele><time>2026-04-04T11:45:06.538Z</time></trkpt><trkpt lat="42.9710683" lon="13.3497267"><ele>441.6</ele><time>2026-04-04T11:45:08.537Z</time></trkpt><trkpt lat="42.9709997" lon="13.3497704"><ele>442.20000000000005</ele><time>2026-04-04T11:45:09.538Z</time></trkpt><trkpt lat="42.9709252" lon="13.3497993"><ele>442.79999999999995</ele><time>2026-04-04T11:45:10.538Z</time></trkpt><trkpt lat="42.9708516" lon="13.3498023"><ele>443.4</ele><time>2026-04-04T11:45:11.537Z</time></trkpt><trkpt lat="42.9707503" lon="13.3497198"><ele>444.0</ele><time>2026-04-04T11:45:13.538Z</time></trkpt><trkpt lat="42.9706777" lon="13.3495991"><ele>446.4</ele><time>2026-04-04T11:45:15.538Z</time></trkpt><trkpt lat="42.9705834" lon="13.3495195"><ele>448.79999999999995</ele><time>2026-04-04T11:45:17.538Z</time></trkpt><trkpt lat="42.9705167" lon="13.3494802"><ele>451.20000000000005</ele><time>2026-04-04T11:45:18.537Z</time></trkpt><trkpt lat="42.9704474" lon="13.349447"><ele>453.6</ele><time>2026-04-04T11:45:19.537Z</time></trkpt><trkpt lat="42.9703781" lon="13.3494158"><ele>456.0</ele><time>2026-04-04T11:45:20.538Z</time></trkpt><trkpt lat="42.9702591" lon="13.3493819"><ele>456.0</ele><time>2026-04-04T11:45:22.537Z</time></trkpt><trkpt lat="42.9701628" lon="13.3493373"><ele>456.0</ele><time>2026-04-04T11:45:24.537Z</time></trkpt><trkpt lat="42.9700748" lon="13.3492306"><ele>456.0</ele><time>2026-04-04T11:45:26.537Z</time></trkpt><trkpt lat="42.9700288" lon="13.3491714"><ele>456.0</ele><time>2026-04-04T11:45:27.537Z</time></trkpt><trkpt lat="42.9699393" lon="13.3490653"><ele>456.0</ele><time>2026-04-04T11:45:29.538Z</time></trkpt><trkpt lat="42.9698801" lon="13.3490211"><ele>455.6666666666667</ele><time>2026-04-04T11:45:30.537Z</time></trkpt><trkpt lat="42.9698096" lon="13.3489723"><ele>455.33333333333337</ele><time>2026-04-04T11:45:31.537Z</time></trkpt><trkpt lat="42.9697352" lon="13.3489077"><ele>455.0</ele><time>2026-04-04T11:45:32.537Z</time></trkpt><trkpt lat="42.9696644" lon="13.3488394"><ele>454.6666666666667</ele><time>2026-04-04T11:45:33.538Z</time></trkpt><trkpt lat="42.9696014" lon="13.3487837"><ele>454.33333333333337</ele><time>2026-04-04T11:45:34.538Z</time></trkpt><trkpt lat="42.9695332" lon="13.3487396"><ele>454.0</ele><time>2026-04-04T11:45:35.537Z</time></trkpt><trkpt lat="42.9694605" lon="13.3487078"><ele>454.00000000000006</ele><time>2026-04-04T11:45:36.537Z</time></trkpt><trkpt lat="42.969342" lon="13.3486636"><ele>454.0</ele><time>2026-04-04T11:45:38.537Z</time></trkpt><trkpt lat="42.9692815" lon="13.3486388"><ele>454.0</ele><time>2026-04-04T11:45:39.538Z</time></trkpt><trkpt lat="42.9692199" lon="13.3486125"><ele>454.0</ele><time>2026-04-04T11:45:40.538Z</time></trkpt><trkpt lat="42.9691514" lon="13.3485883"><ele>454.00000000000006</ele><time>2026-04-04T11:45:41.537Z</time></trkpt><trkpt lat="42.9690738" lon="13.3485659"><ele>454.0</ele><time>2026-04-04T11:45:42.537Z</time></trkpt><trkpt lat="42.9689992" lon="13.3485411"><ele>457.33333333333337</ele><time>2026-04-04T11:45:43.538Z</time></trkpt><trkpt lat="42.9689359" lon="13.3485159"><ele>460.6666666666667</ele><time>2026-04-04T11:45:44.538Z</time></trkpt><trkpt lat="42.9688471" lon="13.3484889"><ele>464.0</ele><time>2026-04-04T11:45:46.537Z</time></trkpt><trkpt lat="42.9687831" lon="13.3484326"><ele>467.33333333333337</ele><time>2026-04-04T11:45:48.537Z</time></trkpt><trkpt lat="42.9687514" lon="13.3483536"><ele>470.6666666666667</ele><time>2026-04-04T11:45:50.537Z</time></trkpt><trkpt lat="42.9686913" lon="13.3482917"><ele>474.0</ele><time>2026-04-04T11:45:52.537Z</time></trkpt><trkpt lat="42.9685852" lon="13.3482944"><ele>473.99999999999994</ele><time>2026-04-04T11:45:54.537Z</time></trkpt><trkpt lat="42.9685194" lon="13.3483036"><ele>474.0</ele><time>2026-04-04T11:45:55.537Z</time></trkpt><trkpt lat="42.9684498" lon="13.3483169"><ele>473.99999999999994</ele><time>2026-04-04T11:45:56.538Z</time></trkpt><trkpt lat="42.9683735" lon="13.3483357"><ele>473.99999999999994</ele><time>2026-04-04T11:45:57.538Z</time></trkpt><trkpt lat="42.9682987" lon="13.3483635"><ele>474.0</ele><time>2026-04-04T11:45:58.538Z</time></trkpt><trkpt lat="42.9682265" lon="13.3483963"><ele>473.99999999999994</ele><time>2026-04-04T11:45:59.538Z</time></trkpt><trkpt lat="42.968158" lon="13.3484235"><ele>473.99999999999994</ele><time>2026-04-04T11:46:00.538Z</time></trkpt><trkpt lat="42.9680926" lon="13.3484399"><ele>474.3333333333333</ele><time>2026-04-04T11:46:01.538Z</time></trkpt><trkpt lat="42.9680274" lon="13.3484468"><ele>474.66666666666663</ele><time>2026-04-04T11:46:02.538Z</time></trkpt><trkpt lat="42.9679598" lon="13.3484468"><ele>475.0</ele><time>2026-04-04T11:46:03.538Z</time></trkpt><trkpt lat="42.9678958" lon="13.3484414"><ele>475.3333333333333</ele><time>2026-04-04T11:46:04.538Z</time></trkpt><trkpt lat="42.9677864" lon="13.3484467"><ele>475.66666666666663</ele><time>2026-04-04T11:46:06.537Z</time></trkpt><trkpt lat="42.9676881" lon="13.3484364"><ele>476.0</ele><time>2026-04-04T11:46:08.538Z</time></trkpt><trkpt lat="42.9676031" lon="13.3484202"><ele>475.99999999999994</ele><time>2026-04-04T11:46:10.537Z</time></trkpt><trkpt lat="42.9675339" lon="13.3484242"><ele>476.0</ele><time>2026-04-04T11:46:12.537Z</time></trkpt><trkpt lat="42.9674301" lon="13.3484517"><ele>476.0</ele><time>2026-04-04T11:46:15.538Z</time></trkpt><trkpt lat="42.9673315" lon="13.3484426"><ele>476.0</ele><time>2026-04-04T11:46:17.538Z</time></trkpt><trkpt lat="42.9672533" lon="13.3484258"><ele>475.99999999999994</ele><time>2026-04-04T11:46:19.538Z</time></trkpt><trkpt lat="42.9671695" lon="13.3484106"><ele>476.0</ele><time>2026-04-04T11:46:21.537Z</time></trkpt><trkpt lat="42.9670601" lon="13.3483902"><ele>475.66666666666663</ele><time>2026-04-04T11:46:23.538Z</time></trkpt><trkpt lat="42.9669971" lon="13.3483781"><ele>475.3333333333333</ele><time>2026-04-04T11:46:24.538Z</time></trkpt><trkpt lat="42.9669211" lon="13.3483614"><ele>475.0</ele><time>2026-04-04T11:46:26.537Z</time></trkpt><trkpt lat="42.9668344" lon="13.3483511"><ele>474.66666666666663</ele><time>2026-04-04T11:46:32.537Z</time></trkpt><trkpt lat="42.9667555" lon="13.3483447"><ele>474.3333333333333</ele><time>2026-04-04T11:46:34.537Z</time></trkpt><trkpt lat="42.9666571" lon="13.3483153"><ele>474.0</ele><time>2026-04-04T11:46:36.538Z</time></trkpt><trkpt lat="42.9665522" lon="13.3482902"><ele>475.4</ele><time>2026-04-04T11:46:38.537Z</time></trkpt><trkpt lat="42.9664516" lon="13.3482943"><ele>476.79999999999995</ele><time>2026-04-04T11:46:40.538Z</time></trkpt><trkpt lat="42.9663383" lon="13.3483564"><ele>478.20000000000005</ele><time>2026-04-04T11:46:42.537Z</time></trkpt><trkpt lat="42.9662767" lon="13.3483931"><ele>479.6</ele><time>2026-04-04T11:46:43.538Z</time></trkpt><trkpt lat="42.9661716" lon="13.3484048"><ele>481.0</ele><time>2026-04-04T11:46:45.538Z</time></trkpt><trkpt lat="42.9660936" lon="13.3483894"><ele>481.00000000000006</ele><time>2026-04-04T11:46:47.537Z</time></trkpt><trkpt lat="42.9660295" lon="13.3483324"><ele>481.0</ele><time>2026-04-04T11:46:49.538Z</time></trkpt><trkpt lat="42.9659621" lon="13.3482654"><ele>481.0</ele><time>2026-04-04T11:46:52.538Z</time></trkpt><trkpt lat="42.9658917" lon="13.3482092"><ele>481.0</ele><time>2026-04-04T11:46:54.538Z</time></trkpt><trkpt lat="42.9658042" lon="13.3481497"><ele>481.00000000000006</ele><time>2026-04-04T11:46:56.537Z</time></trkpt><trkpt lat="42.965711" lon="13.3480759"><ele>481.0</ele><time>2026-04-04T11:46:58.537Z</time></trkpt><trkpt lat="42.9656445" lon="13.3480222"><ele>479.6666666666667</ele><time>2026-04-04T11:47:00.538Z</time></trkpt><trkpt lat="42.9655864" lon="13.3479614"><ele>478.33333333333337</ele><time>2026-04-04T11:47:03.538Z</time></trkpt><trkpt lat="42.965516" lon="13.3479161"><ele>477.0</ele><time>2026-04-04T11:47:06.538Z</time></trkpt><trkpt lat="42.9654224" lon="13.3479028"><ele>475.66666666666663</ele><time>2026-04-04T11:47:08.537Z</time></trkpt><trkpt lat="42.9653565" lon="13.3478989"><ele>474.3333333333333</ele><time>2026-04-04T11:47:09.537Z</time></trkpt><trkpt lat="42.9652783" lon="13.3479138"><ele>473.0</ele><time>2026-04-04T11:47:10.537Z</time></trkpt><trkpt lat="42.9651992" lon="13.347903"><ele>473.0</ele><time>2026-04-04T11:47:11.537Z</time></trkpt><trkpt lat="42.9651224" lon="13.3478929"><ele>473.0</ele><time>2026-04-04T11:47:12.537Z</time></trkpt><trkpt lat="42.9650506" lon="13.3478927"><ele>473.0</ele><time>2026-04-04T11:47:13.537Z</time></trkpt><trkpt lat="42.9649806" lon="13.3478779"><ele>473.0</ele><time>2026-04-04T11:47:14.538Z</time></trkpt><trkpt lat="42.9649131" lon="13.3478601"><ele>473.0</ele><time>2026-04-04T11:47:15.537Z</time></trkpt><trkpt lat="42.9648408" lon="13.3478421"><ele>473.0</ele><time>2026-04-04T11:47:16.538Z</time></trkpt><trkpt lat="42.964772" lon="13.3478323"><ele>473.0</ele><time>2026-04-04T11:47:17.537Z</time></trkpt><trkpt lat="42.9647008" lon="13.3478358"><ele>474.3333333333333</ele><time>2026-04-04T11:47:18.537Z</time></trkpt><trkpt lat="42.9646275" lon="13.3478436"><ele>475.66666666666663</ele><time>2026-04-04T11:47:19.537Z</time></trkpt><trkpt lat="42.9645568" lon="13.3478636"><ele>477.0</ele><time>2026-04-04T11:47:20.537Z</time></trkpt><trkpt lat="42.964478" lon="13.3478773"><ele>478.33333333333337</ele><time>2026-04-04T11:47:21.538Z</time></trkpt><trkpt lat="42.9643995" lon="13.3478941"><ele>479.6666666666667</ele><time>2026-04-04T11:47:22.538Z</time></trkpt><trkpt lat="42.9643279" lon="13.3479173"><ele>481.0</ele><time>2026-04-04T11:47:23.538Z</time></trkpt><trkpt lat="42.9642594" lon="13.3479505"><ele>481.00000000000006</ele><time>2026-04-04T11:47:24.538Z</time></trkpt><trkpt lat="42.9641903" lon="13.347968"><ele>481.0</ele><time>2026-04-04T11:47:25.538Z</time></trkpt><trkpt lat="42.9641266" lon="13.3479702"><ele>481.0</ele><time>2026-04-04T11:47:26.537Z</time></trkpt><trkpt lat="42.9640199" lon="13.3479641"><ele>481.0</ele><time>2026-04-04T11:47:28.538Z</time></trkpt><trkpt lat="42.9638942" lon="13.3479442"><ele>481.00000000000006</ele><time>2026-04-04T11:47:30.538Z</time></trkpt><trkpt lat="42.9638254" lon="13.3479345"><ele>481.0</ele><time>2026-04-04T11:47:31.538Z</time></trkpt><trkpt lat="42.9637507" lon="13.3479245"><ele>481.00000000000006</ele><time>2026-04-04T11:47:32.537Z</time></trkpt><trkpt lat="42.9636758" lon="13.34791"><ele>481.0</ele><time>2026-04-04T11:47:33.537Z</time></trkpt><trkpt lat="42.9636115" lon="13.3479046"><ele>481.0</ele><time>2026-04-04T11:47:34.537Z</time></trkpt><trkpt lat="42.9634999" lon="13.3478966"><ele>481.0</ele><time>2026-04-04T11:47:36.537Z</time></trkpt><trkpt lat="42.9634178" lon="13.347929"><ele>481.00000000000006</ele><time>2026-04-04T11:47:38.538Z</time></trkpt><trkpt lat="42.9633464" lon="13.347944"><ele>481.0</ele><time>2026-04-04T11:47:40.537Z</time></trkpt><trkpt lat="42.9632749" lon="13.3479479"><ele>481.33333333333337</ele><time>2026-04-04T11:47:42.538Z</time></trkpt><trkpt lat="42.963194" lon="13.3479224"><ele>481.6666666666667</ele><time>2026-04-04T11:47:44.538Z</time></trkpt><trkpt lat="42.963131" lon="13.3478719"><ele>482.0</ele><time>2026-04-04T11:47:46.537Z</time></trkpt><trkpt lat="42.9630742" lon="13.3478085"><ele>482.33333333333337</ele><time>2026-04-04T11:47:50.537Z</time></trkpt><trkpt lat="42.9630035" lon="13.3477378"><ele>482.6666666666667</ele><time>2026-04-04T11:47:53.538Z</time></trkpt><trkpt lat="42.9629459" lon="13.3476926"><ele>483.0</ele><time>2026-04-04T11:47:55.537Z</time></trkpt><trkpt lat="42.9628635" lon="13.3476816"><ele>483.0</ele><time>2026-04-04T11:47:58.538Z</time></trkpt><trkpt lat="42.9627865" lon="13.3477151"><ele>483.0</ele><time>2026-04-04T11:48:26.538Z</time></trkpt><trkpt lat="42.9627206" lon="13.3477632"><ele>483.0</ele><time>2026-04-04T11:48:29.537Z</time></trkpt><trkpt lat="42.9626372" lon="13.3478126"><ele>483.0</ele><time>2026-04-04T11:48:32.537Z</time></trkpt><trkpt lat="42.9625549" lon="13.3478646"><ele>483.0</ele><time>2026-04-04T11:48:34.537Z</time></trkpt><trkpt lat="42.9624587" lon="13.3479126"><ele>483.0</ele><time>2026-04-04T11:48:36.537Z</time></trkpt><trkpt lat="42.9623843" lon="13.3479571"><ele>484.3333333333333</ele><time>2026-04-04T11:48:38.537Z</time></trkpt><trkpt lat="42.9623188" lon="13.3479886"><ele>485.66666666666663</ele><time>2026-04-04T11:48:40.537Z</time></trkpt><trkpt lat="42.9622473" lon="13.3480178"><ele>487.0</ele><time>2026-04-04T11:48:42.538Z</time></trkpt><trkpt lat="42.9621719" lon="13.3480738"><ele>488.3333333333333</ele><time>2026-04-04T11:48:45.537Z</time></trkpt><trkpt lat="42.9620665" lon="13.3481638"><ele>489.66666666666663</ele><time>2026-04-04T11:49:10.537Z</time></trkpt><trkpt lat="42.9621374" lon="13.3480959"><ele>491.0</ele><time>2026-04-04T11:49:57.538Z</time></trkpt><trkpt lat="42.9622103" lon="13.3480943"><ele>490.99999999999994</ele><time>2026-04-04T11:50:01.537Z</time></trkpt><trkpt lat="42.9622913" lon="13.3481124"><ele>491.0</ele><time>2026-04-04T11:50:05.536Z</time></trkpt><trkpt lat="42.9623536" lon="13.3480999"><ele>491.0</ele><time>2026-04-04T11:50:07.536Z</time></trkpt><trkpt lat="42.9624272" lon="13.3480879"><ele>491.0</ele><time>2026-04-04T11:50:10.537Z</time></trkpt><trkpt lat="42.9625058" lon="13.3480677"><ele>490.99999999999994</ele><time>2026-04-04T11:50:13.536Z</time></trkpt><trkpt lat="42.9625848" lon="13.3480387"><ele>491.0</ele><time>2026-04-04T11:50:16.537Z</time></trkpt><trkpt lat="42.962665" lon="13.3480293"><ele>489.66666666666663</ele><time>2026-04-04T11:50:19.536Z</time></trkpt><trkpt lat="42.9627329" lon="13.3479484"><ele>488.3333333333333</ele><time>2026-04-04T11:50:23.537Z</time></trkpt><trkpt lat="42.9628041" lon="13.3478861"><ele>487.0</ele><time>2026-04-04T11:50:26.537Z</time></trkpt><trkpt lat="42.9628559" lon="13.3478222"><ele>485.66666666666663</ele><time>2026-04-04T11:50:29.536Z</time></trkpt><trkpt lat="42.9628491" lon="13.3477322"><ele>484.3333333333333</ele><time>2026-04-04T11:50:33.537Z</time></trkpt><trkpt lat="42.9627907" lon="13.3476818"><ele>483.0</ele><time>2026-04-04T11:50:35.536Z</time></trkpt><trkpt lat="42.9627161" lon="13.3476443"><ele>483.0</ele><time>2026-04-04T11:50:37.537Z</time></trkpt><trkpt lat="42.9626503" lon="13.3475589"><ele>482.99999999999994</ele><time>2026-04-04T11:50:39.537Z</time></trkpt><trkpt lat="42.9625851" lon="13.34743"><ele>482.99999999999994</ele><time>2026-04-04T11:50:41.536Z</time></trkpt><trkpt lat="42.962541" lon="13.3473227"><ele>483.0</ele><time>2026-04-04T11:50:43.536Z</time></trkpt><trkpt lat="42.9624723" lon="13.3472374"><ele>483.0</ele><time>2026-04-04T11:50:45.537Z</time></trkpt><trkpt lat="42.9623852" lon="13.3471536"><ele>482.59999999999997</ele><time>2026-04-04T11:50:47.536Z</time></trkpt><trkpt lat="42.9622899" lon="13.347088"><ele>482.19999999999993</ele><time>2026-04-04T11:50:49.537Z</time></trkpt><trkpt lat="42.9621686" lon="13.3470378"><ele>481.8</ele><time>2026-04-04T11:50:51.537Z</time></trkpt><trkpt lat="42.9620947" lon="13.347018"><ele>481.4</ele><time>2026-04-04T11:50:52.536Z</time></trkpt><trkpt lat="42.9620148" lon="13.347005"><ele>481.0</ele><time>2026-04-04T11:50:53.536Z</time></trkpt><trkpt lat="42.9619247" lon="13.346994"><ele>481.0</ele><time>2026-04-04T11:50:54.536Z</time></trkpt><trkpt lat="42.9618206" lon="13.3469849"><ele>481.0</ele><time>2026-04-04T11:50:55.536Z</time></trkpt><trkpt lat="42.9617235" lon="13.3469736"><ele>481.0</ele><time>2026-04-04T11:50:56.536Z</time></trkpt><trkpt lat="42.9616145" lon="13.3469667"><ele>481.0</ele><time>2026-04-04T11:50:57.536Z</time></trkpt><trkpt lat="42.9615258" lon="13.3469571"><ele>481.0</ele><time>2026-04-04T11:50:58.537Z</time></trkpt><trkpt lat="42.9614547" lon="13.3469447"><ele>482.00000000000006</ele><time>2026-04-04T11:50:59.536Z</time></trkpt><trkpt lat="42.9613538" lon="13.3469334"><ele>483.0</ele><time>2026-04-04T11:51:01.537Z</time></trkpt><trkpt lat="42.9612803" lon="13.3469196"><ele>484.0</ele><time>2026-04-04T11:51:03.537Z</time></trkpt><trkpt lat="42.9612029" lon="13.3469008"><ele>485.0</ele><time>2026-04-04T11:51:06.537Z</time></trkpt><trkpt lat="42.9611293" lon="13.3468548"><ele>486.00000000000006</ele><time>2026-04-04T11:51:09.536Z</time></trkpt><trkpt lat="42.9610502" lon="13.3468109"><ele>487.0</ele><time>2026-04-04T11:51:11.536Z</time></trkpt><trkpt lat="42.9609502" lon="13.3467741"><ele>487.0</ele><time>2026-04-04T11:51:13.536Z</time></trkpt><trkpt lat="42.960875" lon="13.3467183"><ele>487.00000000000006</ele><time>2026-04-04T11:51:15.536Z</time></trkpt><trkpt lat="42.9608061" lon="13.3466544"><ele>487.00000000000006</ele><time>2026-04-04T11:51:17.536Z</time></trkpt><trkpt lat="42.9607174" lon="13.3466242"><ele>487.0</ele><time>2026-04-04T11:51:19.536Z</time></trkpt><trkpt lat="42.9606167" lon="13.3466112"><ele>487.0</ele><time>2026-04-04T11:51:21.537Z</time></trkpt><trkpt lat="42.9605251" lon="13.3466084"><ele>488.8</ele><time>2026-04-04T11:51:23.536Z</time></trkpt><trkpt lat="42.9604142" lon="13.3466138"><ele>490.6</ele><time>2026-04-04T11:51:25.536Z</time></trkpt><trkpt lat="42.9603104" lon="13.3466416"><ele>492.40000000000003</ele><time>2026-04-04T11:51:27.537Z</time></trkpt><trkpt lat="42.9602134" lon="13.3466524"><ele>494.20000000000005</ele><time>2026-04-04T11:51:29.537Z</time></trkpt><trkpt lat="42.9600966" lon="13.3466413"><ele>496.0</ele><time>2026-04-04T11:51:31.537Z</time></trkpt><trkpt lat="42.960025" lon="13.3466283"><ele>497.8</ele><time>2026-04-04T11:51:32.537Z</time></trkpt><trkpt lat="42.9599549" lon="13.3466047"><ele>499.6</ele><time>2026-04-04T11:51:33.537Z</time></trkpt><trkpt lat="42.9598551" lon="13.3465527"><ele>501.4</ele><time>2026-04-04T11:51:35.537Z</time></trkpt><trkpt lat="42.9597838" lon="13.3464876"><ele>503.2</ele><time>2026-04-04T11:51:38.536Z</time></trkpt><trkpt lat="42.9596894" lon="13.3464142"><ele>505.0</ele><time>2026-04-04T11:51:41.536Z</time></trkpt><trkpt lat="42.9595881" lon="13.3463698"><ele>502.2</ele><time>2026-04-04T11:51:43.536Z</time></trkpt><trkpt lat="42.9594904" lon="13.3463703"><ele>499.4</ele><time>2026-04-04T11:51:45.536Z</time></trkpt><trkpt lat="42.9594178" lon="13.346376"><ele>496.6</ele><time>2026-04-04T11:51:46.537Z</time></trkpt><trkpt lat="42.9592906" lon="13.3463636"><ele>493.8</ele><time>2026-04-04T11:51:48.536Z</time></trkpt><trkpt lat="42.9592158" lon="13.3463663"><ele>491.0</ele><time>2026-04-04T11:51:49.537Z</time></trkpt><trkpt lat="42.959114" lon="13.3463767"><ele>490.99999999999994</ele><time>2026-04-04T11:51:51.536Z</time></trkpt><trkpt lat="42.9590487" lon="13.3463628"><ele>491.0</ele><time>2026-04-04T11:51:52.537Z</time></trkpt><trkpt lat="42.9589753" lon="13.3463431"><ele>491.0</ele><time>2026-04-04T11:51:53.536Z</time></trkpt><trkpt lat="42.9588967" lon="13.3463147"><ele>491.0</ele><time>2026-04-04T11:51:54.536Z</time></trkpt><trkpt lat="42.9588212" lon="13.3462856"><ele>490.99999999999994</ele><time>2026-04-04T11:51:55.537Z</time></trkpt><trkpt lat="42.958757" lon="13.3462752"><ele>491.0</ele><time>2026-04-04T11:51:56.536Z</time></trkpt><trkpt lat="42.9586557" lon="13.3462325"><ele>491.0</ele><time>2026-04-04T11:51:58.537Z</time></trkpt><trkpt lat="42.9585972" lon="13.3461684"><ele>491.0</ele><time>2026-04-04T11:52:00.536Z</time></trkpt><trkpt lat="42.9585222" lon="13.346124"><ele>491.0</ele><time>2026-04-04T11:52:02.536Z</time></trkpt><trkpt lat="42.958403" lon="13.3460789"><ele>491.0</ele><time>2026-04-04T11:52:04.537Z</time></trkpt><trkpt lat="42.9583237" lon="13.3460484"><ele>491.0</ele><time>2026-04-04T11:52:05.536Z</time></trkpt><trkpt lat="42.9582354" lon="13.3460158"><ele>492.3333333333333</ele><time>2026-04-04T11:52:06.537Z</time></trkpt><trkpt lat="42.9581415" lon="13.345981"><ele>493.66666666666663</ele><time>2026-04-04T11:52:07.537Z</time></trkpt><trkpt lat="42.9580511" lon="13.3459437"><ele>495.0</ele><time>2026-04-04T11:52:08.537Z</time></trkpt><trkpt lat="42.9579729" lon="13.3459048"><ele>496.33333333333337</ele><time>2026-04-04T11:52:09.537Z</time></trkpt><trkpt lat="42.9579016" lon="13.3458772"><ele>497.6666666666667</ele><time>2026-04-04T11:52:10.537Z</time></trkpt><trkpt lat="42.9578275" lon="13.3458554"><ele>499.0</ele><time>2026-04-04T11:52:11.536Z</time></trkpt><trkpt lat="42.957754" lon="13.3458345"><ele>499.00000000000006</ele><time>2026-04-04T11:52:12.536Z</time></trkpt><trkpt lat="42.9576818" lon="13.3458128"><ele>499.0</ele><time>2026-04-04T11:52:13.536Z</time></trkpt><trkpt lat="42.9576158" lon="13.3458007"><ele>499.0</ele><time>2026-04-04T11:52:14.537Z</time></trkpt><trkpt lat="42.9575331" lon="13.3457896"><ele>499.0</ele><time>2026-04-04T11:52:16.536Z</time></trkpt><trkpt lat="42.9574856" lon="13.3457147"><ele>499.00000000000006</ele><time>2026-04-04T11:52:19.537Z</time></trkpt><trkpt lat="42.9574664" lon="13.3455959"><ele>499.0</ele><time>2026-04-04T11:52:22.536Z</time></trkpt><trkpt lat="42.9574615" lon="13.3454733"><ele>496.83333333333337</ele><time>2026-04-04T11:52:25.537Z</time></trkpt><trkpt lat="42.9574532" lon="13.3453597"><ele>494.6666666666667</ele><time>2026-04-04T11:52:27.537Z</time></trkpt><trkpt lat="42.9574224" lon="13.3452473"><ele>492.5</ele><time>2026-04-04T11:52:29.536Z</time></trkpt><trkpt lat="42.9573567" lon="13.3451512"><ele>490.33333333333337</ele><time>2026-04-04T11:52:31.537Z</time></trkpt><trkpt lat="42.9572658" lon="13.3450597"><ele>488.1666666666667</ele><time>2026-04-04T11:52:33.536Z</time></trkpt><trkpt lat="42.9572072" lon="13.3450216"><ele>486.0</ele><time>2026-04-04T11:52:34.537Z</time></trkpt><trkpt lat="42.9571401" lon="13.3449947"><ele>486.0</ele><time>2026-04-04T11:52:35.537Z</time></trkpt><trkpt lat="42.9570682" lon="13.3449689"><ele>486.0</ele><time>2026-04-04T11:52:36.537Z</time></trkpt><trkpt lat="42.9569909" lon="13.3449383"><ele>486.0</ele><time>2026-04-04T11:52:37.537Z</time></trkpt><trkpt lat="42.9569164" lon="13.3448949"><ele>486.0</ele><time>2026-04-04T11:52:38.536Z</time></trkpt><trkpt lat="42.9568516" lon="13.344852"><ele>486.0</ele><time>2026-04-04T11:52:39.536Z</time></trkpt><trkpt lat="42.9567983" lon="13.3448058"><ele>486.0</ele><time>2026-04-04T11:52:40.536Z</time></trkpt><trkpt lat="42.9567307" lon="13.344682"><ele>485.3333333333333</ele><time>2026-04-04T11:52:42.536Z</time></trkpt><trkpt lat="42.9567095" lon="13.3445911"><ele>484.66666666666663</ele><time>2026-04-04T11:52:43.537Z</time></trkpt><trkpt lat="42.9566862" lon="13.3444771"><ele>484.0</ele><time>2026-04-04T11:52:44.537Z</time></trkpt><trkpt lat="42.9566649" lon="13.3443337"><ele>483.3333333333333</ele><time>2026-04-04T11:52:45.537Z</time></trkpt><trkpt lat="42.9566481" lon="13.3442069"><ele>482.66666666666663</ele><time>2026-04-04T11:52:46.536Z</time></trkpt><trkpt lat="42.9566248" lon="13.3441064"><ele>482.0</ele><time>2026-04-04T11:52:47.537Z</time></trkpt><trkpt lat="42.9565912" lon="13.3440277"><ele>482.0</ele><time>2026-04-04T11:52:48.537Z</time></trkpt><trkpt lat="42.9564763" lon="13.3439319"><ele>482.00000000000006</ele><time>2026-04-04T11:52:50.537Z</time></trkpt><trkpt lat="42.9563591" lon="13.343953"><ele>482.00000000000006</ele><time>2026-04-04T11:52:52.536Z</time></trkpt><trkpt lat="42.9563012" lon="13.3440153"><ele>482.0</ele><time>2026-04-04T11:52:53.536Z</time></trkpt><trkpt lat="42.9562359" lon="13.3441257"><ele>482.0</ele><time>2026-04-04T11:52:54.537Z</time></trkpt><trkpt lat="42.9561619" lon="13.3442503"><ele>482.0</ele><time>2026-04-04T11:52:55.536Z</time></trkpt><trkpt lat="42.956103" lon="13.3443877"><ele>482.00000000000006</ele><time>2026-04-04T11:52:56.536Z</time></trkpt><trkpt lat="42.956034" lon="13.3444739"><ele>482.00000000000006</ele><time>2026-04-04T11:52:57.537Z</time></trkpt><trkpt lat="42.9559542" lon="13.3445229"><ele>482.0</ele><time>2026-04-04T11:52:58.537Z</time></trkpt><trkpt lat="42.9558623" lon="13.3445378"><ele>482.0</ele><time>2026-04-04T11:52:59.536Z</time></trkpt><trkpt lat="42.9557364" lon="13.3445134"><ele>480.75</ele><time>2026-04-04T11:53:00.537Z</time></trkpt><trkpt lat="42.9555931" lon="13.3444705"><ele>479.5</ele><time>2026-04-04T11:53:01.537Z</time></trkpt><trkpt lat="42.9554589" lon="13.3444183"><ele>478.25</ele><time>2026-04-04T11:53:02.536Z</time></trkpt><trkpt lat="42.9553392" lon="13.3443762"><ele>477.0</ele><time>2026-04-04T11:53:03.536Z</time></trkpt><trkpt lat="42.9552274" lon="13.3443233"><ele>477.0</ele><time>2026-04-04T11:53:04.537Z</time></trkpt><trkpt lat="42.9551302" lon="13.3442644"><ele>477.0</ele><time>2026-04-04T11:53:05.537Z</time></trkpt><trkpt lat="42.955052" lon="13.3442155"><ele>477.0</ele><time>2026-04-04T11:53:06.537Z</time></trkpt><trkpt lat="42.9549893" lon="13.3441673"><ele>477.0</ele><time>2026-04-04T11:53:07.537Z</time></trkpt><trkpt lat="42.9549321" lon="13.3440963"><ele>477.0</ele><time>2026-04-04T11:53:08.537Z</time></trkpt><trkpt lat="42.9548774" lon="13.3440094"><ele>477.0</ele><time>2026-04-04T11:53:09.537Z</time></trkpt><trkpt lat="42.9548227" lon="13.3438902"><ele>476.0</ele><time>2026-04-04T11:53:10.537Z</time></trkpt><trkpt lat="42.954761" lon="13.3437586"><ele>475.00000000000006</ele><time>2026-04-04T11:53:11.537Z</time></trkpt><trkpt lat="42.9546914" lon="13.3436388"><ele>474.00000000000006</ele><time>2026-04-04T11:53:12.536Z</time></trkpt><trkpt lat="42.9546285" lon="13.3435571"><ele>473.0</ele><time>2026-04-04T11:53:13.536Z</time></trkpt><trkpt lat="42.954574" lon="13.3435015"><ele>472.0</ele><time>2026-04-04T11:53:14.536Z</time></trkpt><trkpt lat="42.9544754" lon="13.343451"><ele>472.00000000000006</ele><time>2026-04-04T11:53:16.537Z</time></trkpt><trkpt lat="42.9543973" lon="13.3434929"><ele>472.0</ele><time>2026-04-04T11:53:18.536Z</time></trkpt><trkpt lat="42.9543513" lon="13.3435716"><ele>472.0</ele><time>2026-04-04T11:53:20.537Z</time></trkpt><trkpt lat="42.9542918" lon="13.343626"><ele>472.0</ele><time>2026-04-04T11:53:23.537Z</time></trkpt><trkpt lat="42.9542322" lon="13.3435618"><ele>472.00000000000006</ele><time>2026-04-04T11:53:26.537Z</time></trkpt><trkpt lat="42.9542358" lon="13.3434286"><ele>472.0</ele><time>2026-04-04T11:53:28.537Z</time></trkpt><trkpt lat="42.9543" lon="13.3432638"><ele>472.00000000000006</ele><time>2026-04-04T11:53:30.536Z</time></trkpt><trkpt lat="42.9543454" lon="13.3432001"><ele>472.0</ele><time>2026-04-04T11:53:31.537Z</time></trkpt><trkpt lat="42.9543974" lon="13.3431446"><ele>472.0</ele><time>2026-04-04T11:53:32.536Z</time></trkpt><trkpt lat="42.9545197" lon="13.3430925"><ele>472.0</ele><time>2026-04-04T11:53:34.537Z</time></trkpt><trkpt lat="42.9545995" lon="13.3430815"><ele>472.00000000000006</ele><time>2026-04-04T11:53:35.536Z</time></trkpt><trkpt lat="42.9546959" lon="13.3430832"><ele>472.0</ele><time>2026-04-04T11:53:36.536Z</time></trkpt><trkpt lat="42.9548117" lon="13.3430867"><ele>472.0</ele><time>2026-04-04T11:53:37.536Z</time></trkpt><trkpt lat="42.9549302" lon="13.3430771"><ele>472.00000000000006</ele><time>2026-04-04T11:53:38.537Z</time></trkpt><trkpt lat="42.9550437" lon="13.3430427"><ele>472.00000000000006</ele><time>2026-04-04T11:53:39.536Z</time></trkpt><trkpt lat="42.9551346" lon="13.3429807"><ele>472.0</ele><time>2026-04-04T11:53:40.536Z</time></trkpt><trkpt lat="42.9552008" lon="13.3428965"><ele>472.0</ele><time>2026-04-04T11:53:41.536Z</time></trkpt><trkpt lat="42.9552364" lon="13.3427815"><ele>472.0</ele><time>2026-04-04T11:53:42.537Z</time></trkpt><trkpt lat="42.9552431" lon="13.3426525"><ele>472.0</ele><time>2026-04-04T11:53:43.537Z</time></trkpt><trkpt lat="42.9552065" lon="13.3425007"><ele>472.0</ele><time>2026-04-04T11:53:44.537Z</time></trkpt><trkpt lat="42.9551289" lon="13.3423338"><ele>472.0</ele><time>2026-04-04T11:53:45.536Z</time></trkpt><trkpt lat="42.9550183" lon="13.3421539"><ele>475.0</ele><time>2026-04-04T11:53:46.537Z</time></trkpt><trkpt lat="42.9549005" lon="13.3419797"><ele>478.0</ele><time>2026-04-04T11:53:47.537Z</time></trkpt><trkpt lat="42.9547834" lon="13.3418232"><ele>481.0</ele><time>2026-04-04T11:53:48.536Z</time></trkpt><trkpt lat="42.9546846" lon="13.3416865"><ele>481.0</ele><time>2026-04-04T11:53:49.536Z</time></trkpt><trkpt lat="42.9546039" lon="13.3415309"><ele>481.0</ele><time>2026-04-04T11:53:50.537Z</time></trkpt><trkpt lat="42.9545413" lon="13.3413591"><ele>481.0</ele><time>2026-04-04T11:53:51.537Z</time></trkpt><trkpt lat="42.9544922" lon="13.341201"><ele>481.0</ele><time>2026-04-04T11:53:52.537Z</time></trkpt><trkpt lat="42.9544524" lon="13.3410954"><ele>483.50000000000006</ele><time>2026-04-04T11:53:53.536Z</time></trkpt><trkpt lat="42.9543993" lon="13.3410147"><ele>486.0</ele><time>2026-04-04T11:53:54.536Z</time></trkpt><trkpt lat="42.9543321" lon="13.3409499"><ele>488.5</ele><time>2026-04-04T11:53:55.536Z</time></trkpt><trkpt lat="42.9542577" lon="13.3408954"><ele>491.0</ele><time>2026-04-04T11:53:56.537Z</time></trkpt><trkpt lat="42.9541802" lon="13.3408392"><ele>493.50000000000006</ele><time>2026-04-04T11:53:57.536Z</time></trkpt><trkpt lat="42.9541128" lon="13.3407788"><ele>496.0</ele><time>2026-04-04T11:53:58.536Z</time></trkpt><trkpt lat="42.9540561" lon="13.3407066"><ele>496.00000000000006</ele><time>2026-04-04T11:53:59.537Z</time></trkpt><trkpt lat="42.9539888" lon="13.3406364"><ele>496.0</ele><time>2026-04-04T11:54:00.536Z</time></trkpt><trkpt lat="42.9539192" lon="13.3405852"><ele>496.0</ele><time>2026-04-04T11:54:01.536Z</time></trkpt><trkpt lat="42.9538416" lon="13.3405553"><ele>496.0</ele><time>2026-04-04T11:54:02.537Z</time></trkpt><trkpt lat="42.9537618" lon="13.3405508"><ele>496.00000000000006</ele><time>2026-04-04T11:54:03.537Z</time></trkpt><trkpt lat="42.9536839" lon="13.3405664"><ele>496.0</ele><time>2026-04-04T11:54:04.536Z</time></trkpt><trkpt lat="42.9535986" lon="13.3405911"><ele>496.0</ele><time>2026-04-04T11:54:05.536Z</time></trkpt><trkpt lat="42.9535062" lon="13.3406242"><ele>496.0</ele><time>2026-04-04T11:54:06.536Z</time></trkpt><trkpt lat="42.9534125" lon="13.3406412"><ele>496.0</ele><time>2026-04-04T11:54:07.537Z</time></trkpt><trkpt lat="42.9533239" lon="13.3406835"><ele>496.0</ele><time>2026-04-04T11:54:08.537Z</time></trkpt><trkpt lat="42.9532396" lon="13.3407125"><ele>496.0</ele><time>2026-04-04T11:54:09.536Z</time></trkpt><trkpt lat="42.9531541" lon="13.340733"><ele>495.8</ele><time>2026-04-04T11:54:10.536Z</time></trkpt><trkpt lat="42.9530879" lon="13.3407271"><ele>495.6</ele><time>2026-04-04T11:54:11.536Z</time></trkpt><trkpt lat="42.9529709" lon="13.3407032"><ele>495.4</ele><time>2026-04-04T11:54:13.536Z</time></trkpt><trkpt lat="42.9528563" lon="13.3407051"><ele>495.2</ele><time>2026-04-04T11:54:15.537Z</time></trkpt><trkpt lat="42.9527468" lon="13.3407154"><ele>495.0</ele><time>2026-04-04T11:54:17.536Z</time></trkpt><trkpt lat="42.9526315" lon="13.3406956"><ele>493.8333333333333</ele><time>2026-04-04T11:54:19.537Z</time></trkpt><trkpt lat="42.9525311" lon="13.3406169"><ele>492.66666666666663</ele><time>2026-04-04T11:54:21.536Z</time></trkpt><trkpt lat="42.9524241" lon="13.3405243"><ele>491.5</ele><time>2026-04-04T11:54:23.536Z</time></trkpt><trkpt lat="42.9523664" lon="13.3404765"><ele>490.3333333333333</ele><time>2026-04-04T11:54:24.536Z</time></trkpt><trkpt lat="42.9523104" lon="13.3404307"><ele>489.16666666666663</ele><time>2026-04-04T11:54:25.536Z</time></trkpt><trkpt lat="42.9522542" lon="13.3403791"><ele>488.0</ele><time>2026-04-04T11:54:26.536Z</time></trkpt><trkpt lat="42.9522022" lon="13.3403234"><ele>490.3333333333333</ele><time>2026-04-04T11:54:27.537Z</time></trkpt><trkpt lat="42.9521527" lon="13.3402495"><ele>492.66666666666663</ele><time>2026-04-04T11:54:28.536Z</time></trkpt><trkpt lat="42.9521071" lon="13.3401615"><ele>495.0</ele><time>2026-04-04T11:54:29.537Z</time></trkpt><trkpt lat="42.9520601" lon="13.3400694"><ele>497.33333333333337</ele><time>2026-04-04T11:54:30.536Z</time></trkpt><trkpt lat="42.9520058" lon="13.3399794"><ele>499.6666666666667</ele><time>2026-04-04T11:54:31.537Z</time></trkpt><trkpt lat="42.95194" lon="13.3399075"><ele>502.0</ele><time>2026-04-04T11:54:32.536Z</time></trkpt><trkpt lat="42.9518635" lon="13.3398357"><ele>502.0</ele><time>2026-04-04T11:54:33.537Z</time></trkpt><trkpt lat="42.9517909" lon="13.3397679"><ele>502.00000000000006</ele><time>2026-04-04T11:54:34.536Z</time></trkpt><trkpt lat="42.9517276" lon="13.3397084"><ele>502.00000000000006</ele><time>2026-04-04T11:54:35.536Z</time></trkpt><trkpt lat="42.9516784" lon="13.3396521"><ele>502.0</ele><time>2026-04-04T11:54:36.536Z</time></trkpt><trkpt lat="42.9516262" lon="13.3395216"><ele>502.0</ele><time>2026-04-04T11:54:38.537Z</time></trkpt><trkpt lat="42.9516216" lon="13.3393538"><ele>504.0</ele><time>2026-04-04T11:54:40.536Z</time></trkpt><trkpt lat="42.9515973" lon="13.3392314"><ele>506.00000000000006</ele><time>2026-04-04T11:54:42.536Z</time></trkpt><trkpt lat="42.9515066" lon="13.3392135"><ele>508.00000000000006</ele><time>2026-04-04T11:54:45.536Z</time></trkpt><trkpt lat="42.9514124" lon="13.3392953"><ele>510.0</ele><time>2026-04-04T11:54:47.536Z</time></trkpt><trkpt lat="42.9513407" lon="13.3393245"><ele>512.0</ele><time>2026-04-04T11:54:48.536Z</time></trkpt><trkpt lat="42.9512504" lon="13.3393456"><ele>512.0</ele><time>2026-04-04T11:54:49.536Z</time></trkpt><trkpt lat="42.9511474" lon="13.3393426"><ele>512.0</ele><time>2026-04-04T11:54:50.536Z</time></trkpt><trkpt lat="42.9510328" lon="13.3393045"><ele>512.0</ele><time>2026-04-04T11:54:51.536Z</time></trkpt><trkpt lat="42.9508846" lon="13.3392522"><ele>512.0</ele><time>2026-04-04T11:54:52.536Z</time></trkpt><trkpt lat="42.9507311" lon="13.3391953"><ele>512.6666666666666</ele><time>2026-04-04T11:54:53.537Z</time></trkpt><trkpt lat="42.9505835" lon="13.3391546"><ele>513.3333333333334</ele><time>2026-04-04T11:54:54.537Z</time></trkpt><trkpt lat="42.9504347" lon="13.3391181"><ele>514.0</ele><time>2026-04-04T11:54:55.536Z</time></trkpt><trkpt lat="42.9502795" lon="13.339069"><ele>514.0</ele><time>2026-04-04T11:54:56.536Z</time></trkpt><trkpt lat="42.9501263" lon="13.3390078"><ele>514.0</ele><time>2026-04-04T11:54:57.535Z</time></trkpt><trkpt lat="42.949971" lon="13.3389297"><ele>514.0</ele><time>2026-04-04T11:54:58.535Z</time></trkpt><trkpt lat="42.9498242" lon="13.3388545"><ele>525.0</ele><time>2026-04-04T11:54:59.535Z</time></trkpt><trkpt lat="42.9496766" lon="13.3388083"><ele>536.0</ele><time>2026-04-04T11:55:00.536Z</time></trkpt><trkpt lat="42.9495289" lon="13.3387812"><ele>547.0</ele><time>2026-04-04T11:55:01.536Z</time></trkpt><trkpt lat="42.9493659" lon="13.3387618"><ele>543.0</ele><time>2026-04-04T11:55:02.535Z</time></trkpt><trkpt lat="42.9491923" lon="13.3387632"><ele>539.0</ele><time>2026-04-04T11:55:03.535Z</time></trkpt><trkpt lat="42.9490198" lon="13.3387795"><ele>535.0</ele><time>2026-04-04T11:55:04.535Z</time></trkpt><trkpt lat="42.9488521" lon="13.3387924"><ele>535.0</ele><time>2026-04-04T11:55:05.536Z</time></trkpt><trkpt lat="42.9487041" lon="13.3387779"><ele>535.0</ele><time>2026-04-04T11:55:06.536Z</time></trkpt><trkpt lat="42.9485684" lon="13.338776"><ele>535.0</ele><time>2026-04-04T11:55:07.535Z</time></trkpt><trkpt lat="42.9484446" lon="13.3387925"><ele>535.0</ele><time>2026-04-04T11:55:08.536Z</time></trkpt><trkpt lat="42.9483357" lon="13.3388016"><ele>532.3333333333334</ele><time>2026-04-04T11:55:09.536Z</time></trkpt><trkpt lat="42.9482439" lon="13.3387907"><ele>529.6666666666667</ele><time>2026-04-04T11:55:10.536Z</time></trkpt><trkpt lat="42.9481652" lon="13.3387776"><ele>527.0</ele><time>2026-04-04T11:55:11.535Z</time></trkpt><trkpt lat="42.9481" lon="13.3387656"><ele>524.3333333333334</ele><time>2026-04-04T11:55:12.536Z</time></trkpt><trkpt lat="42.9480213" lon="13.3387338"><ele>521.6666666666666</ele><time>2026-04-04T11:55:14.535Z</time></trkpt><trkpt lat="42.947984" lon="13.3386463"><ele>519.0</ele><time>2026-04-04T11:55:47.536Z</time></trkpt><trkpt lat="42.9480624" lon="13.3386894"><ele>519.0</ele><time>2026-04-04T11:55:58.536Z</time></trkpt><trkpt lat="42.9481207" lon="13.3387327"><ele>519.0</ele><time>2026-04-04T11:55:59.535Z</time></trkpt><trkpt lat="42.9482103" lon="13.338786"><ele>519.0</ele><time>2026-04-04T11:56:01.536Z</time></trkpt><trkpt lat="42.9482116" lon="13.3386859"><ele>519.0</ele><time>2026-04-04T11:56:07.535Z</time></trkpt><trkpt lat="42.9481586" lon="13.3386085"><ele>519.0</ele><time>2026-04-04T11:56:09.536Z</time></trkpt><trkpt lat="42.9480906" lon="13.3384997"><ele>519.0</ele><time>2026-04-04T11:56:11.536Z</time></trkpt><trkpt lat="42.9480454" lon="13.338434"><ele>519.0</ele><time>2026-04-04T11:56:12.535Z</time></trkpt><trkpt lat="42.9479835" lon="13.3383098"><ele>519.0</ele><time>2026-04-04T11:56:14.536Z</time></trkpt><trkpt lat="42.9479447" lon="13.3381963"><ele>519.0</ele><time>2026-04-04T11:56:16.535Z</time></trkpt><trkpt lat="42.947949" lon="13.3380973"><ele>519.0</ele><time>2026-04-04T11:56:18.536Z</time></trkpt><trkpt lat="42.9480156" lon="13.3380299"><ele>519.0</ele><time>2026-04-04T11:56:20.536Z</time></trkpt><trkpt lat="42.9481036" lon="13.3379735"><ele>524.0</ele><time>2026-04-04T11:56:22.536Z</time></trkpt><trkpt lat="42.9481933" lon="13.3379053"><ele>529.0</ele><time>2026-04-04T11:56:24.535Z</time></trkpt><trkpt lat="42.9482826" lon="13.3378242"><ele>534.0</ele><time>2026-04-04T11:56:26.535Z</time></trkpt><trkpt lat="42.9483614" lon="13.3377271"><ele>539.0</ele><time>2026-04-04T11:56:28.536Z</time></trkpt><trkpt lat="42.9484544" lon="13.3376444"><ele>544.0</ele><time>2026-04-04T11:56:30.535Z</time></trkpt><trkpt lat="42.9485369" lon="13.337567"><ele>548.4</ele><time>2026-04-04T11:56:32.535Z</time></trkpt><trkpt lat="42.9486017" lon="13.3375097"><ele>552.8</ele><time>2026-04-04T11:56:34.536Z</time></trkpt><trkpt lat="42.9486952" lon="13.337521"><ele>557.2</ele><time>2026-04-04T11:56:38.536Z</time></trkpt><trkpt lat="42.9487896" lon="13.337583"><ele>561.6</ele><time>2026-04-04T11:56:40.536Z</time></trkpt><trkpt lat="42.9489038" lon="13.3376319"><ele>566.0</ele><time>2026-04-04T11:56:42.535Z</time></trkpt><trkpt lat="42.9489888" lon="13.3376852"><ele>566.0</ele><time>2026-04-04T11:56:44.535Z</time></trkpt><trkpt lat="42.9490576" lon="13.3377174"><ele>566.0</ele><time>2026-04-04T12:17:51.531Z</time></trkpt><trkpt lat="42.9491281" lon="13.3377736"><ele>566.0</ele><time>2026-04-04T12:17:53.53Z</time></trkpt><trkpt lat="42.9491934" lon="13.3378615"><ele>566.0</ele><time>2026-04-04T12:17:55.53Z</time></trkpt><trkpt lat="42.9492416" lon="13.337939"><ele>566.0</ele><time>2026-04-04T12:17:57.53Z</time></trkpt><trkpt lat="42.9492839" lon="13.3380099"><ele>566.0</ele><time>2026-04-04T12:18:00.53Z</time></trkpt><trkpt lat="42.9492351" lon="13.3379176"><ele>566.0</ele><time>2026-04-04T12:18:28.531Z</time></trkpt><trkpt lat="42.9491976" lon="13.3378339"><ele>566.0</ele><time>2026-04-04T12:18:30.53Z</time></trkpt><trkpt lat="42.9491533" lon="13.3377592"><ele>566.0</ele><time>2026-04-04T12:18:33.53Z</time></trkpt><trkpt lat="42.9490911" lon="13.3377307"><ele>566.0</ele><time>2026-04-04T12:19:08.529Z</time></trkpt><trkpt lat="42.9490604" lon="13.337645"><ele>566.0</ele><time>2026-04-04T12:19:12.529Z</time></trkpt><trkpt lat="42.9489812" lon="13.3376506"><ele>566.0</ele><time>2026-04-04T12:19:43.53Z</time></trkpt><trkpt lat="42.949054" lon="13.3376282"><ele>566.0</ele><time>2026-04-04T12:19:47.529Z</time></trkpt><trkpt lat="42.9491105" lon="13.3375866"><ele>566.0</ele><time>2026-04-04T12:19:49.53Z</time></trkpt><trkpt lat="42.949169" lon="13.3375214"><ele>566.0</ele><time>2026-04-04T12:19:51.529Z</time></trkpt><trkpt lat="42.9492515" lon="13.3374931"><ele>566.0</ele><time>2026-04-04T12:19:53.529Z</time></trkpt><trkpt lat="42.9493306" lon="13.3374947"><ele>566.0</ele><time>2026-04-04T12:19:55.53Z</time></trkpt><trkpt lat="42.9494034" lon="13.3375042"><ele>566.0</ele><time>2026-04-04T12:20:25.53Z</time></trkpt><trkpt lat="42.9494689" lon="13.3375404"><ele>566.0</ele><time>2026-04-04T12:20:27.529Z</time></trkpt><trkpt lat="42.9495513" lon="13.337543"><ele>569.8</ele><time>2026-04-04T12:20:30.529Z</time></trkpt><trkpt lat="42.9496311" lon="13.3375164"><ele>573.6</ele><time>2026-04-04T12:20:32.529Z</time></trkpt><trkpt lat="42.9497279" lon="13.3374725"><ele>577.4</ele><time>2026-04-04T12:20:34.529Z</time></trkpt><trkpt lat="42.9498055" lon="13.3374188"><ele>581.2</ele><time>2026-04-04T12:34:52.525Z</time></trkpt><trkpt lat="42.9499026" lon="13.3374479"><ele>585.0</ele><time>2026-04-04T12:34:55.526Z</time></trkpt><trkpt lat="42.9499796" lon="13.3375046"><ele>585.6</ele><time>2026-04-04T12:34:57.525Z</time></trkpt><trkpt lat="42.9500762" lon="13.3375527"><ele>586.2</ele><time>2026-04-04T12:34:59.525Z</time></trkpt><trkpt lat="42.9501763" lon="13.3376034"><ele>586.8</ele><time>2026-04-04T12:35:01.526Z</time></trkpt><trkpt lat="42.950267" lon="13.3376656"><ele>587.4</ele><time>2026-04-04T12:35:03.526Z</time></trkpt><trkpt lat="42.9503391" lon="13.3377175"><ele>588.0</ele><time>2026-04-04T12:35:05.526Z</time></trkpt><trkpt lat="42.9504214" lon="13.3377492"><ele>588.0</ele><time>2026-04-04T12:35:29.526Z</time></trkpt><trkpt lat="42.9504767" lon="13.3377923"><ele>588.0</ele><time>2026-04-04T12:35:31.526Z</time></trkpt><trkpt lat="42.9505428" lon="13.3378946"><ele>588.0</ele><time>2026-04-04T12:35:33.526Z</time></trkpt><trkpt lat="42.9505893" lon="13.337977"><ele>588.0</ele><time>2026-04-04T12:35:35.525Z</time></trkpt><trkpt lat="42.9506859" lon="13.3380077"><ele>588.0</ele><time>2026-04-04T12:35:47.525Z</time></trkpt><trkpt lat="42.9508134" lon="13.3380599"><ele>587.1666666666666</ele><time>2026-04-04T12:35:49.525Z</time></trkpt><trkpt lat="42.9508858" lon="13.3380908"><ele>586.3333333333334</ele><time>2026-04-04T12:35:50.526Z</time></trkpt><trkpt lat="42.950963" lon="13.3381039"><ele>585.5</ele><time>2026-04-04T12:35:51.526Z</time></trkpt><trkpt lat="42.951064" lon="13.3380989"><ele>584.6666666666667</ele><time>2026-04-04T12:35:53.526Z</time></trkpt><trkpt lat="42.9511118" lon="13.3380423"><ele>583.8333333333334</ele><time>2026-04-04T12:35:55.526Z</time></trkpt><trkpt lat="42.9511273" lon="13.3379174"><ele>583.0</ele><time>2026-04-04T12:35:57.525Z</time></trkpt><trkpt lat="42.9511299" lon="13.3378243"><ele>583.0</ele><time>2026-04-04T12:35:58.525Z</time></trkpt><trkpt lat="42.9511368" lon="13.3377233"><ele>583.0</ele><time>2026-04-04T12:35:59.525Z</time></trkpt><trkpt lat="42.9511453" lon="13.3376335"><ele>583.0</ele><time>2026-04-04T12:36:00.525Z</time></trkpt><trkpt lat="42.9511543" lon="13.3375435"><ele>583.0</ele><time>2026-04-04T12:36:01.526Z</time></trkpt><trkpt lat="42.9511501" lon="13.3374521"><ele>583.0</ele><time>2026-04-04T12:36:02.525Z</time></trkpt><trkpt lat="42.9511327" lon="13.3372941"><ele>583.0</ele><time>2026-04-04T12:36:04.525Z</time></trkpt><trkpt lat="42.9511184" lon="13.3371463"><ele>586.3333333333334</ele><time>2026-04-04T12:36:06.524Z</time></trkpt><trkpt lat="42.9510974" lon="13.3370454"><ele>589.6666666666667</ele><time>2026-04-04T12:36:08.525Z</time></trkpt><trkpt lat="42.951108" lon="13.33695"><ele>593.0</ele><time>2026-04-04T12:36:13.524Z</time></trkpt><trkpt lat="42.9511125" lon="13.3368401"><ele>596.3333333333334</ele><time>2026-04-04T12:36:23.525Z</time></trkpt><trkpt lat="42.9510934" lon="13.3367465"><ele>599.6666666666666</ele><time>2026-04-04T12:36:25.525Z</time></trkpt><trkpt lat="42.9510736" lon="13.3366063"><ele>603.0</ele><time>2026-04-04T12:36:27.524Z</time></trkpt><trkpt lat="42.9510406" lon="13.3364339"><ele>604.0</ele><time>2026-04-04T12:36:29.525Z</time></trkpt><trkpt lat="42.9510253" lon="13.3363373"><ele>605.0</ele><time>2026-04-04T12:36:30.525Z</time></trkpt><trkpt lat="42.9510044" lon="13.3362374"><ele>606.0</ele><time>2026-04-04T12:36:31.524Z</time></trkpt><trkpt lat="42.9509898" lon="13.3361455"><ele>607.0</ele><time>2026-04-04T12:36:32.525Z</time></trkpt><trkpt lat="42.9509721" lon="13.3360247"><ele>608.0</ele><time>2026-04-04T12:36:34.524Z</time></trkpt><trkpt lat="42.950979" lon="13.3359218"><ele>609.0</ele><time>2026-04-04T12:36:37.524Z</time></trkpt><trkpt lat="42.9510321" lon="13.335829"><ele>609.0</ele><time>2026-04-04T12:36:39.524Z</time></trkpt><trkpt lat="42.9510745" lon="13.3357638"><ele>609.0</ele><time>2026-04-04T12:36:40.524Z</time></trkpt><trkpt lat="42.9511215" lon="13.3356814"><ele>609.0</ele><time>2026-04-04T12:36:41.525Z</time></trkpt><trkpt lat="42.9511679" lon="13.3355945"><ele>609.0</ele><time>2026-04-04T12:36:42.524Z</time></trkpt><trkpt lat="42.9512034" lon="13.3355117"><ele>609.0</ele><time>2026-04-04T12:36:43.524Z</time></trkpt><trkpt lat="42.9512402" lon="13.3354364"><ele>609.0</ele><time>2026-04-04T12:36:44.525Z</time></trkpt><trkpt lat="42.951305" lon="13.3353224"><ele>611.0</ele><time>2026-04-04T12:36:46.524Z</time></trkpt><trkpt lat="42.9513621" lon="13.3352525"><ele>613.0</ele><time>2026-04-04T12:36:48.524Z</time></trkpt><trkpt lat="42.9514192" lon="13.3351973"><ele>615.0</ele><time>2026-04-04T12:37:15.525Z</time></trkpt><trkpt lat="42.951467" lon="13.3351383"><ele>617.0</ele><time>2026-04-04T12:37:18.524Z</time></trkpt><trkpt lat="42.9515508" lon="13.335031"><ele>619.0</ele><time>2026-04-04T12:38:12.525Z</time></trkpt><trkpt lat="42.9516162" lon="13.3349629"><ele>621.0</ele><time>2026-04-04T12:38:27.524Z</time></trkpt><trkpt lat="42.9516643" lon="13.334889"><ele>621.0</ele><time>2026-04-04T12:38:29.524Z</time></trkpt><trkpt lat="42.9517074" lon="13.3348124"><ele>621.0</ele><time>2026-04-04T12:38:31.524Z</time></trkpt><trkpt lat="42.9517416" lon="13.3347213"><ele>621.0</ele><time>2026-04-04T12:38:33.525Z</time></trkpt><trkpt lat="42.9516708" lon="13.3347572"><ele>621.0</ele><time>2026-04-04T12:52:54.522Z</time></trkpt><trkpt lat="42.9515833" lon="13.3348778"><ele>621.0</ele><time>2026-04-04T12:53:09.523Z</time></trkpt><trkpt lat="42.9515039" lon="13.3349841"><ele>621.0</ele><time>2026-04-04T12:53:46.523Z</time></trkpt><trkpt lat="42.9514038" lon="13.3350691"><ele>621.0</ele><time>2026-04-04T12:54:09.523Z</time></trkpt><trkpt lat="42.9513204" lon="13.3351643"><ele>621.0</ele><time>2026-04-04T12:55:19.522Z</time></trkpt><trkpt lat="42.9512611" lon="13.3352991"><ele>621.0</ele><time>2026-04-04T12:55:37.522Z</time></trkpt><trkpt lat="42.9512107" lon="13.3354539"><ele>620.9999999999999</ele><time>2026-04-04T12:56:04.521Z</time></trkpt><trkpt lat="42.9511727" lon="13.3355439"><ele>621.0</ele><time>2026-04-04T12:56:07.522Z</time></trkpt><trkpt lat="42.95112" lon="13.3356267"><ele>621.0</ele><time>2026-04-04T12:57:09.522Z</time></trkpt><trkpt lat="42.95107" lon="13.3356883"><ele>621.0</ele><time>2026-04-04T12:57:12.521Z</time></trkpt><trkpt lat="42.951035" lon="13.3357667"><ele>621.0</ele><time>2026-04-04T12:57:14.522Z</time></trkpt><trkpt lat="42.9509783" lon="13.335845"><ele>620.9999999999999</ele><time>2026-04-04T12:57:16.521Z</time></trkpt><trkpt lat="42.9509367" lon="13.3359267"><ele>621.0</ele><time>2026-04-04T12:57:18.522Z</time></trkpt><trkpt lat="42.9509217" lon="13.3360467"><ele>619.0</ele><time>2026-04-04T12:57:21.521Z</time></trkpt><trkpt lat="42.9509417" lon="13.3361533"><ele>617.0</ele><time>2026-04-04T12:57:24.522Z</time></trkpt><trkpt lat="42.9509867" lon="13.336255"><ele>615.0</ele><time>2026-04-04T12:57:28.521Z</time></trkpt><trkpt lat="42.9510117" lon="13.3363517"><ele>613.0</ele><time>2026-04-04T12:57:30.522Z</time></trkpt><trkpt lat="42.951045" lon="13.3364583"><ele>611.0</ele><time>2026-04-04T12:57:32.521Z</time></trkpt><trkpt lat="42.9510733" lon="13.336555"><ele>609.0</ele><time>2026-04-04T12:57:34.521Z</time></trkpt><trkpt lat="42.9510933" lon="13.3366567"><ele>607.8</ele><time>2026-04-04T12:57:36.522Z</time></trkpt><trkpt lat="42.951095" lon="13.3367583"><ele>606.5999999999999</ele><time>2026-04-04T12:57:38.522Z</time></trkpt><trkpt lat="42.951095" lon="13.3368767"><ele>605.4</ele><time>2026-04-04T12:57:40.521Z</time></trkpt><trkpt lat="42.9511117" lon="13.337"><ele>604.1999999999999</ele><time>2026-04-04T12:57:42.521Z</time></trkpt><trkpt lat="42.9511433" lon="13.3371433"><ele>603.0</ele><time>2026-04-04T12:57:44.521Z</time></trkpt><trkpt lat="42.951165" lon="13.33727"><ele>599.0</ele><time>2026-04-04T12:57:46.521Z</time></trkpt><trkpt lat="42.9511817" lon="13.3373883"><ele>595.0</ele><time>2026-04-04T12:57:48.522Z</time></trkpt><trkpt lat="42.9511633" lon="13.337515"><ele>591.0</ele><time>2026-04-04T12:57:50.521Z</time></trkpt><trkpt lat="42.95113" lon="13.3376467"><ele>587.0</ele><time>2026-04-04T12:57:52.522Z</time></trkpt><trkpt lat="42.951105" lon="13.3377733"><ele>583.0</ele><time>2026-04-04T12:57:54.522Z</time></trkpt><trkpt lat="42.951095" lon="13.33788"><ele>583.0</ele><time>2026-04-04T12:57:56.521Z</time></trkpt><trkpt lat="42.9510567" lon="13.33796"><ele>583.0</ele><time>2026-04-04T12:57:58.521Z</time></trkpt><trkpt lat="42.9509833" lon="13.3380117"><ele>583.0</ele><time>2026-04-04T12:58:01.522Z</time></trkpt><trkpt lat="42.95088" lon="13.3380067"><ele>583.0</ele><time>2026-04-04T12:58:03.522Z</time></trkpt><trkpt lat="42.95076" lon="13.3379683"><ele>583.0</ele><time>2026-04-04T12:58:05.521Z</time></trkpt><trkpt lat="42.9506817" lon="13.3379533"><ele>583.8333333333334</ele><time>2026-04-04T12:58:06.521Z</time></trkpt><trkpt lat="42.9506183" lon="13.3379267"><ele>584.6666666666667</ele><time>2026-04-04T12:58:07.522Z</time></trkpt><trkpt lat="42.9505217" lon="13.3378333"><ele>585.5</ele><time>2026-04-04T12:58:09.521Z</time></trkpt><trkpt lat="42.9504733" lon="13.3377617"><ele>586.3333333333334</ele><time>2026-04-04T12:58:10.521Z</time></trkpt><trkpt lat="42.950425" lon="13.3376883"><ele>587.1666666666666</ele><time>2026-04-04T12:58:12.522Z</time></trkpt><trkpt lat="42.9503417" lon="13.3376717"><ele>588.0</ele><time>2026-04-04T12:58:15.521Z</time></trkpt><trkpt lat="42.9502733" lon="13.3376167"><ele>588.0</ele><time>2026-04-04T12:58:17.522Z</time></trkpt><trkpt lat="42.9501983" lon="13.337575"><ele>588.0</ele><time>2026-04-04T12:58:19.522Z</time></trkpt><trkpt lat="42.95013" lon="13.337535"><ele>588.0</ele><time>2026-04-04T12:58:21.521Z</time></trkpt><trkpt lat="42.9500633" lon="13.337495"><ele>588.0</ele><time>2026-04-04T12:58:23.522Z</time></trkpt><trkpt lat="42.9499967" lon="13.3374633"><ele>588.0</ele><time>2026-04-04T12:58:25.521Z</time></trkpt><trkpt lat="42.94992" lon="13.3374217"><ele>588.0</ele><time>2026-04-04T12:58:27.522Z</time></trkpt><trkpt lat="42.949845" lon="13.3373967"><ele>587.5</ele><time>2026-04-04T12:58:29.521Z</time></trkpt><trkpt lat="42.9497783" lon="13.3374167"><ele>587.0</ele><time>2026-04-04T12:58:31.521Z</time></trkpt><trkpt lat="42.9496967" lon="13.3374717"><ele>586.5</ele><time>2026-04-04T12:58:34.521Z</time></trkpt><trkpt lat="42.9496333" lon="13.3374983"><ele>586.0</ele><time>2026-04-04T12:58:36.521Z</time></trkpt><trkpt lat="42.9495567" lon="13.3374933"><ele>585.5</ele><time>2026-04-04T12:58:39.522Z</time></trkpt><trkpt lat="42.949475" lon="13.3374717"><ele>585.0</ele><time>2026-04-04T12:58:42.521Z</time></trkpt><trkpt lat="42.9494067" lon="13.3374383"><ele>585.0</ele><time>2026-04-04T12:58:44.521Z</time></trkpt><trkpt lat="42.94934" lon="13.3374267"><ele>585.0</ele><time>2026-04-04T12:58:46.521Z</time></trkpt><trkpt lat="42.94924" lon="13.3374217"><ele>585.0</ele><time>2026-04-04T12:58:49.521Z</time></trkpt><trkpt lat="42.9491667" lon="13.3374333"><ele>585.0</ele><time>2026-04-04T12:58:52.521Z</time></trkpt><trkpt lat="42.9491083" lon="13.3374833"><ele>585.0</ele><time>2026-04-04T12:58:54.522Z</time></trkpt><trkpt lat="42.94903" lon="13.3375333"><ele>585.0</ele><time>2026-04-04T12:58:56.522Z</time></trkpt><trkpt lat="42.9489583" lon="13.3375533"><ele>581.8333333333334</ele><time>2026-04-04T12:58:59.522Z</time></trkpt><trkpt lat="42.9488733" lon="13.3375383"><ele>578.6666666666666</ele><time>2026-04-04T12:59:14.521Z</time></trkpt><trkpt lat="42.9488033" lon="13.3374867"><ele>575.5</ele><time>2026-04-04T12:59:17.522Z</time></trkpt><trkpt lat="42.9487483" lon="13.33744"><ele>572.3333333333333</ele><time>2026-04-04T12:59:20.521Z</time></trkpt><trkpt lat="42.9486817" lon="13.3374317"><ele>569.1666666666666</ele><time>2026-04-04T12:59:24.521Z</time></trkpt><trkpt lat="42.94858" lon="13.3374867"><ele>566.0</ele><time>2026-04-04T13:00:49.521Z</time></trkpt><trkpt lat="42.9485133" lon="13.3375483"><ele>566.0</ele><time>2026-04-04T13:00:59.521Z</time></trkpt><trkpt lat="42.9484333" lon="13.3375983"><ele>566.0</ele><time>2026-04-04T13:01:01.521Z</time></trkpt><trkpt lat="42.9483517" lon="13.3376467"><ele>566.0</ele><time>2026-04-04T13:01:03.521Z</time></trkpt><trkpt lat="42.9482917" lon="13.3377083"><ele>566.0</ele><time>2026-04-04T13:01:05.521Z</time></trkpt><trkpt lat="42.9482183" lon="13.3377783"><ele>566.0</ele><time>2026-04-04T13:01:08.522Z</time></trkpt><trkpt lat="42.9481517" lon="13.3378433"><ele>566.0</ele><time>2026-04-04T13:01:11.521Z</time></trkpt><trkpt lat="42.9480767" lon="13.3379117"><ele>562.3333333333333</ele><time>2026-04-04T13:01:14.522Z</time></trkpt><trkpt lat="42.948" lon="13.3379667"><ele>558.6666666666666</ele><time>2026-04-04T13:01:17.522Z</time></trkpt><trkpt lat="42.947935" lon="13.3380233"><ele>555.0</ele><time>2026-04-04T13:01:20.522Z</time></trkpt><trkpt lat="42.947895" lon="13.3381017"><ele>551.3333333333334</ele><time>2026-04-04T13:01:23.521Z</time></trkpt><trkpt lat="42.947885" lon="13.3381883"><ele>547.6666666666667</ele><time>2026-04-04T13:01:25.522Z</time></trkpt><trkpt lat="42.9479067" lon="13.338295"><ele>544.0</ele><time>2026-04-04T13:01:27.521Z</time></trkpt><trkpt lat="42.947945" lon="13.3384133"><ele>539.8333333333334</ele><time>2026-04-04T13:01:29.521Z</time></trkpt><trkpt lat="42.9479983" lon="13.3385"><ele>535.6666666666667</ele><time>2026-04-04T13:01:31.522Z</time></trkpt><trkpt lat="42.94805" lon="13.3385583"><ele>531.5</ele><time>2026-04-04T13:01:33.522Z</time></trkpt><trkpt lat="42.9481133" lon="13.3386383"><ele>527.3333333333334</ele><time>2026-04-04T13:01:35.521Z</time></trkpt><trkpt lat="42.9481633" lon="13.3387017"><ele>523.1666666666666</ele><time>2026-04-04T13:01:37.522Z</time></trkpt><trkpt lat="42.9482333" lon="13.3387783"><ele>519.0</ele><time>2026-04-04T13:01:40.521Z</time></trkpt><trkpt lat="42.9483117" lon="13.3388367"><ele>522.2</ele><time>2026-04-04T13:01:43.522Z</time></trkpt><trkpt lat="42.9484033" lon="13.3388333"><ele>525.4</ele><time>2026-04-04T13:04:03.522Z</time></trkpt><trkpt lat="42.9484683" lon="13.3388533"><ele>528.6</ele><time>2026-04-04T13:04:05.522Z</time></trkpt><trkpt lat="42.9485567" lon="13.3388767"><ele>531.8</ele><time>2026-04-04T13:04:07.522Z</time></trkpt><trkpt lat="42.9486717" lon="13.3389067"><ele>535.0</ele><time>2026-04-04T13:04:09.521Z</time></trkpt><trkpt lat="42.9487983" lon="13.3389067"><ele>535.0</ele><time>2026-04-04T13:04:11.521Z</time></trkpt><trkpt lat="42.94887" lon="13.3388967"><ele>535.0</ele><time>2026-04-04T13:04:12.522Z</time></trkpt><trkpt lat="42.9489467" lon="13.33889"><ele>535.0</ele><time>2026-04-04T13:04:13.522Z</time></trkpt><trkpt lat="42.9490233" lon="13.338885"><ele>535.0</ele><time>2026-04-04T13:04:14.521Z</time></trkpt><trkpt lat="42.9490967" lon="13.3388717"><ele>535.0</ele><time>2026-04-04T13:04:15.522Z</time></trkpt><trkpt lat="42.9491667" lon="13.3388667"><ele>535.0</ele><time>2026-04-04T13:04:16.522Z</time></trkpt><trkpt lat="42.949235" lon="13.33887"><ele>535.0</ele><time>2026-04-04T13:04:17.522Z</time></trkpt><trkpt lat="42.9493017" lon="13.33887"><ele>537.0</ele><time>2026-04-04T13:04:18.521Z</time></trkpt><trkpt lat="42.9493767" lon="13.3388783"><ele>539.0</ele><time>2026-04-04T13:04:19.522Z</time></trkpt><trkpt lat="42.94945" lon="13.3388817"><ele>541.0</ele><time>2026-04-04T13:04:20.521Z</time></trkpt><trkpt lat="42.9495283" lon="13.3388883"><ele>543.0</ele><time>2026-04-04T13:04:21.521Z</time></trkpt><trkpt lat="42.9496083" lon="13.3388983"><ele>545.0</ele><time>2026-04-04T13:04:22.522Z</time></trkpt><trkpt lat="42.9496917" lon="13.3389233"><ele>547.0</ele><time>2026-04-04T13:04:23.522Z</time></trkpt><trkpt lat="42.94977" lon="13.3389483"><ele>541.5</ele><time>2026-04-04T13:04:24.522Z</time></trkpt><trkpt lat="42.9498483" lon="13.33898"><ele>536.0</ele><time>2026-04-04T13:04:25.521Z</time></trkpt><trkpt lat="42.9499317" lon="13.3390233"><ele>530.5</ele><time>2026-04-04T13:04:26.521Z</time></trkpt><trkpt lat="42.9500167" lon="13.3390717"><ele>525.0</ele><time>2026-04-04T13:04:27.522Z</time></trkpt><trkpt lat="42.9500983" lon="13.339115"><ele>519.5</ele><time>2026-04-04T13:04:28.521Z</time></trkpt><trkpt lat="42.950185" lon="13.3391533"><ele>514.0</ele><time>2026-04-04T13:04:29.521Z</time></trkpt><trkpt lat="42.950265" lon="13.33918"><ele>514.0</ele><time>2026-04-04T13:04:30.521Z</time></trkpt><trkpt lat="42.950345" lon="13.3392083"><ele>514.0</ele><time>2026-04-04T13:04:31.52Z</time></trkpt><trkpt lat="42.95043" lon="13.3392317"><ele>514.0</ele><time>2026-04-04T13:04:32.52Z</time></trkpt><trkpt lat="42.950515" lon="13.3392467"><ele>514.0</ele><time>2026-04-04T13:04:33.52Z</time></trkpt><trkpt lat="42.9505983" lon="13.3392567"><ele>514.0</ele><time>2026-04-04T13:04:34.52Z</time></trkpt><trkpt lat="42.950695" lon="13.3392683"><ele>514.0</ele><time>2026-04-04T13:04:35.52Z</time></trkpt><trkpt lat="42.950785" lon="13.3392883"><ele>514.0</ele><time>2026-04-04T13:04:36.52Z</time></trkpt><trkpt lat="42.9508683" lon="13.3393133"><ele>514.0</ele><time>2026-04-04T13:04:37.52Z</time></trkpt><trkpt lat="42.95095" lon="13.3393483"><ele>514.0</ele><time>2026-04-04T13:04:38.52Z</time></trkpt><trkpt lat="42.9510367" lon="13.3393883"><ele>514.0</ele><time>2026-04-04T13:04:39.52Z</time></trkpt><trkpt lat="42.9511217" lon="13.3394167"><ele>514.0</ele><time>2026-04-04T13:04:40.52Z</time></trkpt><trkpt lat="42.9512067" lon="13.3394233"><ele>514.0</ele><time>2026-04-04T13:04:41.52Z</time></trkpt><trkpt lat="42.9512783" lon="13.3394183"><ele>513.7142857142857</ele><time>2026-04-04T13:04:42.52Z</time></trkpt><trkpt lat="42.95135" lon="13.3394"><ele>513.4285714285714</ele><time>2026-04-04T13:04:43.521Z</time></trkpt><trkpt lat="42.951415" lon="13.33936"><ele>513.1428571428571</ele><time>2026-04-04T13:04:44.52Z</time></trkpt><trkpt lat="42.9514683" lon="13.3393133"><ele>512.8571428571429</ele><time>2026-04-04T13:04:45.52Z</time></trkpt><trkpt lat="42.9515467" lon="13.339245"><ele>512.5714285714286</ele><time>2026-04-04T13:04:47.52Z</time></trkpt><trkpt lat="42.95161" lon="13.3392583"><ele>512.2857142857142</ele><time>2026-04-04T13:04:51.52Z</time></trkpt><trkpt lat="42.9516567" lon="13.3393483"><ele>512.0</ele><time>2026-04-04T13:04:54.521Z</time></trkpt><trkpt lat="42.951655" lon="13.339475"><ele>512.0</ele><time>2026-04-04T13:04:56.52Z</time></trkpt><trkpt lat="42.9516433" lon="13.3395667"><ele>512.0</ele><time>2026-04-04T13:04:57.521Z</time></trkpt><trkpt lat="42.9516383" lon="13.3397333"><ele>512.0</ele><time>2026-04-04T13:04:59.52Z</time></trkpt><trkpt lat="42.95173" lon="13.3398617"><ele>512.0</ele><time>2026-04-04T13:05:01.52Z</time></trkpt><trkpt lat="42.9517933" lon="13.3399033"><ele>512.0</ele><time>2026-04-04T13:05:02.52Z</time></trkpt><trkpt lat="42.95186" lon="13.3399367"><ele>510.57142857142856</ele><time>2026-04-04T13:05:03.521Z</time></trkpt><trkpt lat="42.9519233" lon="13.3399867"><ele>509.1428571428571</ele><time>2026-04-04T13:05:04.52Z</time></trkpt><trkpt lat="42.95198" lon="13.3400417"><ele>507.71428571428567</ele><time>2026-04-04T13:05:05.521Z</time></trkpt><trkpt lat="42.9520283" lon="13.3401017"><ele>506.2857142857142</ele><time>2026-04-04T13:05:06.52Z</time></trkpt><trkpt lat="42.95207" lon="13.34018"><ele>504.85714285714283</ele><time>2026-04-04T13:05:07.521Z</time></trkpt><trkpt lat="42.9520967" lon="13.3402583"><ele>503.42857142857133</ele><time>2026-04-04T13:05:08.52Z</time></trkpt><trkpt lat="42.95213" lon="13.34034"><ele>501.99999999999994</ele><time>2026-04-04T13:05:09.521Z</time></trkpt><trkpt lat="42.952175" lon="13.3404167"><ele>501.99999999999994</ele><time>2026-04-04T13:05:10.521Z</time></trkpt><trkpt lat="42.9522283" lon="13.3404833"><ele>502.0</ele><time>2026-04-04T13:05:11.521Z</time></trkpt><trkpt lat="42.952285" lon="13.3405333"><ele>501.99999999999994</ele><time>2026-04-04T13:05:12.52Z</time></trkpt><trkpt lat="42.9523417" lon="13.34058"><ele>501.99999999999994</ele><time>2026-04-04T13:05:13.52Z</time></trkpt><trkpt lat="42.9524017" lon="13.340615"><ele>502.0</ele><time>2026-04-04T13:05:14.52Z</time></trkpt><trkpt lat="42.9524617" lon="13.34065"><ele>501.99999999999994</ele><time>2026-04-04T13:05:15.52Z</time></trkpt><trkpt lat="42.9525233" lon="13.3406883"><ele>501.99999999999994</ele><time>2026-04-04T13:05:16.52Z</time></trkpt><trkpt lat="42.952585" lon="13.3407117"><ele>500.6</ele><time>2026-04-04T13:05:17.52Z</time></trkpt><trkpt lat="42.9526467" lon="13.34073"><ele>499.20000000000005</ele><time>2026-04-04T13:05:18.52Z</time></trkpt><trkpt lat="42.952765" lon="13.3407483"><ele>497.8</ele><time>2026-04-04T13:05:20.52Z</time></trkpt><trkpt lat="42.9528283" lon="13.340745"><ele>496.4</ele><time>2026-04-04T13:05:21.521Z</time></trkpt><trkpt lat="42.95295" lon="13.3407567"><ele>495.0</ele><time>2026-04-04T13:05:23.52Z</time></trkpt><trkpt lat="42.95308" lon="13.340785"><ele>495.0</ele><time>2026-04-04T13:05:25.52Z</time></trkpt><trkpt lat="42.9531567" lon="13.3407933"><ele>495.0</ele><time>2026-04-04T13:05:26.521Z</time></trkpt><trkpt lat="42.9532333" lon="13.3408017"><ele>495.0</ele><time>2026-04-04T13:05:27.52Z</time></trkpt><trkpt lat="42.953315" lon="13.3408117"><ele>495.0</ele><time>2026-04-04T13:05:28.521Z</time></trkpt><trkpt lat="42.9533933" lon="13.34082"><ele>495.0</ele><time>2026-04-04T13:05:29.521Z</time></trkpt><trkpt lat="42.9534783" lon="13.3408233"><ele>495.0</ele><time>2026-04-04T13:05:30.52Z</time></trkpt><trkpt lat="42.9535583" lon="13.34082"><ele>495.1666666666667</ele><time>2026-04-04T13:05:31.521Z</time></trkpt><trkpt lat="42.9536417" lon="13.3408017"><ele>495.33333333333337</ele><time>2026-04-04T13:05:32.52Z</time></trkpt><trkpt lat="42.9537133" lon="13.3407633"><ele>495.5</ele><time>2026-04-04T13:05:33.52Z</time></trkpt><trkpt lat="42.95378" lon="13.3407183"><ele>495.6666666666667</ele><time>2026-04-04T13:05:34.52Z</time></trkpt><trkpt lat="42.9538417" lon="13.34068"><ele>495.83333333333337</ele><time>2026-04-04T13:05:35.521Z</time></trkpt><trkpt lat="42.9539583" lon="13.3406733"><ele>496.0</ele><time>2026-04-04T13:05:37.521Z</time></trkpt><trkpt lat="42.9540533" lon="13.3407717"><ele>496.00000000000006</ele><time>2026-04-04T13:05:39.521Z</time></trkpt><trkpt lat="42.9540867" lon="13.3408533"><ele>496.0</ele><time>2026-04-04T13:05:40.521Z</time></trkpt><trkpt lat="42.9541183" lon="13.3409433"><ele>496.0</ele><time>2026-04-04T13:05:41.52Z</time></trkpt><trkpt lat="42.9541733" lon="13.341025"><ele>496.0</ele><time>2026-04-04T13:05:42.52Z</time></trkpt><trkpt lat="42.9542433" lon="13.3410817"><ele>496.00000000000006</ele><time>2026-04-04T13:05:43.52Z</time></trkpt><trkpt lat="42.9543183" lon="13.3411167"><ele>496.0</ele><time>2026-04-04T13:05:44.521Z</time></trkpt><trkpt lat="42.9543917" lon="13.3411367"><ele>497.1666666666667</ele><time>2026-04-04T13:05:45.52Z</time></trkpt><trkpt lat="42.954465" lon="13.3411667"><ele>498.33333333333337</ele><time>2026-04-04T13:05:46.521Z</time></trkpt><trkpt lat="42.9545183" lon="13.3412183"><ele>499.5</ele><time>2026-04-04T13:05:47.52Z</time></trkpt><trkpt lat="42.9545567" lon="13.34131"><ele>500.66666666666663</ele><time>2026-04-04T13:05:48.521Z</time></trkpt><trkpt lat="42.9545833" lon="13.3414167"><ele>501.8333333333333</ele><time>2026-04-04T13:05:49.521Z</time></trkpt><trkpt lat="42.954605" lon="13.3415483"><ele>503.0</ele><time>2026-04-04T13:05:50.521Z</time></trkpt><trkpt lat="42.9546417" lon="13.34167"><ele>499.3333333333333</ele><time>2026-04-04T13:05:51.521Z</time></trkpt><trkpt lat="42.9546833" lon="13.3417833"><ele>495.66666666666663</ele><time>2026-04-04T13:05:52.521Z</time></trkpt><trkpt lat="42.95474" lon="13.3418783"><ele>492.0</ele><time>2026-04-04T13:05:53.521Z</time></trkpt><trkpt lat="42.9548017" lon="13.341955"><ele>488.33333333333337</ele><time>2026-04-04T13:05:54.521Z</time></trkpt><trkpt lat="42.95486" lon="13.3420367"><ele>484.6666666666667</ele><time>2026-04-04T13:05:55.52Z</time></trkpt><trkpt lat="42.9549133" lon="13.3421267"><ele>481.0</ele><time>2026-04-04T13:05:56.52Z</time></trkpt><trkpt lat="42.9549617" lon="13.3422133"><ele>481.50000000000006</ele><time>2026-04-04T13:05:57.521Z</time></trkpt><trkpt lat="42.9550083" lon="13.3422767"><ele>482.0</ele><time>2026-04-04T13:05:58.52Z</time></trkpt><trkpt lat="42.955075" lon="13.3423267"><ele>482.5</ele><time>2026-04-04T13:06:00.52Z</time></trkpt><trkpt lat="42.9551567" lon="13.3423"><ele>483.0</ele><time>2026-04-04T13:06:09.52Z</time></trkpt><trkpt lat="42.955205" lon="13.3421767"><ele>483.50000000000006</ele><time>2026-04-04T13:06:11.521Z</time></trkpt><trkpt lat="42.9552333" lon="13.3420683"><ele>484.0</ele><time>2026-04-04T13:06:12.521Z</time></trkpt><trkpt lat="42.9552633" lon="13.3419483"><ele>484.0</ele><time>2026-04-04T13:06:13.521Z</time></trkpt><trkpt lat="42.955305" lon="13.3418283"><ele>484.0</ele><time>2026-04-04T13:06:14.52Z</time></trkpt><trkpt lat="42.9553533" lon="13.3417183"><ele>484.0</ele><time>2026-04-04T13:06:15.521Z</time></trkpt><trkpt lat="42.955415" lon="13.3416217"><ele>484.0</ele><time>2026-04-04T13:06:16.521Z</time></trkpt><trkpt lat="42.9554867" lon="13.3415583"><ele>484.0</ele><time>2026-04-04T13:06:17.521Z</time></trkpt><trkpt lat="42.9555767" lon="13.341525"><ele>484.0</ele><time>2026-04-04T13:06:18.52Z</time></trkpt><trkpt lat="42.9556783" lon="13.3415217"><ele>484.0</ele><time>2026-04-04T13:06:19.52Z</time></trkpt><trkpt lat="42.95578" lon="13.3415617"><ele>484.0</ele><time>2026-04-04T13:06:20.521Z</time></trkpt><trkpt lat="42.9558817" lon="13.3416033"><ele>484.0</ele><time>2026-04-04T13:06:21.521Z</time></trkpt><trkpt lat="42.9559817" lon="13.34163"><ele>484.0</ele><time>2026-04-04T13:06:22.521Z</time></trkpt><trkpt lat="42.9560817" lon="13.34164"><ele>485.6</ele><time>2026-04-04T13:06:23.52Z</time></trkpt><trkpt lat="42.9561717" lon="13.3416283"><ele>487.2</ele><time>2026-04-04T13:06:24.521Z</time></trkpt><trkpt lat="42.9562633" lon="13.341625"><ele>488.80000000000007</ele><time>2026-04-04T13:06:25.52Z</time></trkpt><trkpt lat="42.9563617" lon="13.3416333"><ele>490.40000000000003</ele><time>2026-04-04T13:06:26.52Z</time></trkpt><trkpt lat="42.9564567" lon="13.3416633"><ele>492.0</ele><time>2026-04-04T13:06:27.521Z</time></trkpt><trkpt lat="42.9565567" lon="13.3417"><ele>492.0</ele><time>2026-04-04T13:06:28.52Z</time></trkpt><trkpt lat="42.9566467" lon="13.34178"><ele>492.00000000000006</ele><time>2026-04-04T13:06:29.521Z</time></trkpt><trkpt lat="42.9567117" lon="13.3418883"><ele>492.00000000000006</ele><time>2026-04-04T13:06:30.521Z</time></trkpt><trkpt lat="42.95678" lon="13.342015"><ele>492.0</ele><time>2026-04-04T13:06:31.521Z</time></trkpt><trkpt lat="42.9568517" lon="13.3421533"><ele>492.0</ele><time>2026-04-04T13:06:32.52Z</time></trkpt><trkpt lat="42.9569267" lon="13.3422967"><ele>488.25</ele><time>2026-04-04T13:06:33.52Z</time></trkpt><trkpt lat="42.9570083" lon="13.3424217"><ele>484.5</ele><time>2026-04-04T13:06:34.52Z</time></trkpt><trkpt lat="42.957095" lon="13.3425617"><ele>480.75</ele><time>2026-04-04T13:06:35.521Z</time></trkpt><trkpt lat="42.9571867" lon="13.3426883"><ele>477.0</ele><time>2026-04-04T13:06:36.521Z</time></trkpt><trkpt lat="42.9572817" lon="13.3428067"><ele>477.0</ele><time>2026-04-04T13:06:37.52Z</time></trkpt><trkpt lat="42.9573833" lon="13.3429167"><ele>477.0</ele><time>2026-04-04T13:06:38.521Z</time></trkpt><trkpt lat="42.9574933" lon="13.34301"><ele>477.0</ele><time>2026-04-04T13:06:39.521Z</time></trkpt><trkpt lat="42.9576067" lon="13.343095"><ele>477.0</ele><time>2026-04-04T13:06:40.52Z</time></trkpt><trkpt lat="42.95772" lon="13.3431783"><ele>474.25</ele><time>2026-04-04T13:06:41.52Z</time></trkpt><trkpt lat="42.9578383" lon="13.3432633"><ele>471.5</ele><time>2026-04-04T13:06:42.521Z</time></trkpt><trkpt lat="42.957955" lon="13.343345"><ele>468.75</ele><time>2026-04-04T13:06:43.52Z</time></trkpt><trkpt lat="42.958075" lon="13.343425"><ele>466.0</ele><time>2026-04-04T13:06:44.521Z</time></trkpt><trkpt lat="42.9581883" lon="13.3435067"><ele>466.0</ele><time>2026-04-04T13:06:45.521Z</time></trkpt><trkpt lat="42.95831" lon="13.34359"><ele>466.0</ele><time>2026-04-04T13:06:46.52Z</time></trkpt><trkpt lat="42.9584217" lon="13.3436733"><ele>466.0</ele><time>2026-04-04T13:06:47.52Z</time></trkpt><trkpt lat="42.958535" lon="13.3437517"><ele>466.0</ele><time>2026-04-04T13:06:48.52Z</time></trkpt><trkpt lat="42.9586533" lon="13.3438333"><ele>466.5</ele><time>2026-04-04T13:06:49.521Z</time></trkpt><trkpt lat="42.9587633" lon="13.3439183"><ele>467.0</ele><time>2026-04-04T13:06:50.52Z</time></trkpt><trkpt lat="42.9588733" lon="13.343995"><ele>467.5</ele><time>2026-04-04T13:06:51.521Z</time></trkpt><trkpt lat="42.958985" lon="13.344065"><ele>468.0</ele><time>2026-04-04T13:06:52.521Z</time></trkpt><trkpt lat="42.95911" lon="13.3441133"><ele>468.0</ele><time>2026-04-04T13:06:53.52Z</time></trkpt><trkpt lat="42.9592333" lon="13.34415"><ele>468.0</ele><time>2026-04-04T13:06:54.521Z</time></trkpt><trkpt lat="42.9593617" lon="13.344165"><ele>468.0</ele><time>2026-04-04T13:06:55.52Z</time></trkpt><trkpt lat="42.959485" lon="13.3441733"><ele>468.0</ele><time>2026-04-04T13:06:56.52Z</time></trkpt><trkpt lat="42.9595983" lon="13.3441683"><ele>468.0</ele><time>2026-04-04T13:06:57.521Z</time></trkpt><trkpt lat="42.9597133" lon="13.3441583"><ele>468.0</ele><time>2026-04-04T13:06:58.52Z</time></trkpt><trkpt lat="42.9598317" lon="13.3441383"><ele>468.0</ele><time>2026-04-04T13:06:59.521Z</time></trkpt><trkpt lat="42.9599467" lon="13.3441267"><ele>468.0</ele><time>2026-04-04T13:07:00.52Z</time></trkpt><trkpt lat="42.9600583" lon="13.3441117"><ele>466.5</ele><time>2026-04-04T13:07:01.521Z</time></trkpt><trkpt lat="42.9601717" lon="13.3440983"><ele>465.0</ele><time>2026-04-04T13:07:02.521Z</time></trkpt><trkpt lat="42.96029" lon="13.3440883"><ele>463.5</ele><time>2026-04-04T13:07:03.52Z</time></trkpt><trkpt lat="42.9604183" lon="13.3440717"><ele>462.0</ele><time>2026-04-04T13:07:04.521Z</time></trkpt><trkpt lat="42.9605417" lon="13.3440617"><ele>462.0</ele><time>2026-04-04T13:07:05.52Z</time></trkpt><trkpt lat="42.9606767" lon="13.344065"><ele>462.0</ele><time>2026-04-04T13:07:06.521Z</time></trkpt><trkpt lat="42.960815" lon="13.3440567"><ele>462.0</ele><time>2026-04-04T13:07:07.52Z</time></trkpt><trkpt lat="42.9609533" lon="13.3440467"><ele>462.0</ele><time>2026-04-04T13:07:08.521Z</time></trkpt><trkpt lat="42.9610983" lon="13.3440367"><ele>462.25</ele><time>2026-04-04T13:07:09.52Z</time></trkpt><trkpt lat="42.9612483" lon="13.3440317"><ele>462.5</ele><time>2026-04-04T13:07:10.521Z</time></trkpt><trkpt lat="42.9613817" lon="13.3440233"><ele>462.75</ele><time>2026-04-04T13:07:11.521Z</time></trkpt><trkpt lat="42.9615183" lon="13.3440167"><ele>463.0</ele><time>2026-04-04T13:07:12.521Z</time></trkpt><trkpt lat="42.9616533" lon="13.3440417"><ele>463.25</ele><time>2026-04-04T13:07:13.52Z</time></trkpt><trkpt lat="42.9617817" lon="13.3440933"><ele>463.5</ele><time>2026-04-04T13:07:14.52Z</time></trkpt><trkpt lat="42.961905" lon="13.3441817"><ele>463.75</ele><time>2026-04-04T13:07:15.521Z</time></trkpt><trkpt lat="42.9620283" lon="13.34428"><ele>464.0</ele><time>2026-04-04T13:07:16.52Z</time></trkpt><trkpt lat="42.9621533" lon="13.34436"><ele>464.0</ele><time>2026-04-04T13:07:17.521Z</time></trkpt><trkpt lat="42.9622733" lon="13.3444233"><ele>464.0</ele><time>2026-04-04T13:07:18.52Z</time></trkpt><trkpt lat="42.9624033" lon="13.3444583"><ele>464.0</ele><time>2026-04-04T13:07:19.52Z</time></trkpt><trkpt lat="42.9625333" lon="13.344465"><ele>464.0</ele><time>2026-04-04T13:07:20.52Z</time></trkpt><trkpt lat="42.9626667" lon="13.3444233"><ele>463.5</ele><time>2026-04-04T13:07:21.52Z</time></trkpt><trkpt lat="42.9627883" lon="13.3443567"><ele>463.0</ele><time>2026-04-04T13:07:22.521Z</time></trkpt><trkpt lat="42.9629083" lon="13.3442717"><ele>462.5</ele><time>2026-04-04T13:07:23.521Z</time></trkpt><trkpt lat="42.96302" lon="13.3441883"><ele>462.0</ele><time>2026-04-04T13:07:24.52Z</time></trkpt><trkpt lat="42.9631433" lon="13.3440967"><ele>462.0</ele><time>2026-04-04T13:07:25.52Z</time></trkpt><trkpt lat="42.9632717" lon="13.3440017"><ele>462.0</ele><time>2026-04-04T13:07:26.52Z</time></trkpt><trkpt lat="42.9634017" lon="13.3439133"><ele>462.0</ele><time>2026-04-04T13:07:27.521Z</time></trkpt><trkpt lat="42.9635367" lon="13.3438367"><ele>462.0</ele><time>2026-04-04T13:07:28.52Z</time></trkpt><trkpt lat="42.9636767" lon="13.34379"><ele>465.25</ele><time>2026-04-04T13:07:29.52Z</time></trkpt><trkpt lat="42.9638183" lon="13.3437733"><ele>468.5</ele><time>2026-04-04T13:07:30.521Z</time></trkpt><trkpt lat="42.9639583" lon="13.3437683"><ele>471.75</ele><time>2026-04-04T13:07:31.521Z</time></trkpt><trkpt lat="42.964095" lon="13.343765"><ele>475.0</ele><time>2026-04-04T13:07:32.521Z</time></trkpt><trkpt lat="42.96424" lon="13.3437583"><ele>475.0</ele><time>2026-04-04T13:07:33.521Z</time></trkpt><trkpt lat="42.9643867" lon="13.3437833"><ele>475.0</ele><time>2026-04-04T13:07:34.52Z</time></trkpt><trkpt lat="42.96453" lon="13.3438183"><ele>475.0</ele><time>2026-04-04T13:07:35.521Z</time></trkpt><trkpt lat="42.9646733" lon="13.3438817"><ele>475.0</ele><time>2026-04-04T13:07:36.52Z</time></trkpt><trkpt lat="42.9648117" lon="13.343955"><ele>471.75</ele><time>2026-04-04T13:07:37.521Z</time></trkpt><trkpt lat="42.964945" lon="13.3440383"><ele>468.5</ele><time>2026-04-04T13:07:38.52Z</time></trkpt><trkpt lat="42.96507" lon="13.3441217"><ele>465.25</ele><time>2026-04-04T13:07:39.52Z</time></trkpt><trkpt lat="42.9651933" lon="13.344215"><ele>462.0</ele><time>2026-04-04T13:07:40.521Z</time></trkpt><trkpt lat="42.9653083" lon="13.3443217"><ele>461.5</ele><time>2026-04-04T13:07:41.521Z</time></trkpt><trkpt lat="42.9654083" lon="13.344455"><ele>461.0</ele><time>2026-04-04T13:07:42.521Z</time></trkpt><trkpt lat="42.9654767" lon="13.3446067"><ele>460.5</ele><time>2026-04-04T13:07:43.52Z</time></trkpt><trkpt lat="42.9655117" lon="13.34477"><ele>460.0</ele><time>2026-04-04T13:07:44.52Z</time></trkpt><trkpt lat="42.9655483" lon="13.344925"><ele>459.25</ele><time>2026-04-04T13:07:45.521Z</time></trkpt><trkpt lat="42.9656017" lon="13.3450617"><ele>458.5</ele><time>2026-04-04T13:07:46.52Z</time></trkpt><trkpt lat="42.9656867" lon="13.345175"><ele>457.75</ele><time>2026-04-04T13:07:47.521Z</time></trkpt><trkpt lat="42.9657817" lon="13.34525"><ele>457.0</ele><time>2026-04-04T13:07:48.521Z</time></trkpt><trkpt lat="42.9658933" lon="13.345285"><ele>455.0</ele><time>2026-04-04T13:07:49.521Z</time></trkpt><trkpt lat="42.9660117" lon="13.345275"><ele>453.0</ele><time>2026-04-04T13:07:50.52Z</time></trkpt><trkpt lat="42.96613" lon="13.345225"><ele>451.0</ele><time>2026-04-04T13:07:51.521Z</time></trkpt><trkpt lat="42.966245" lon="13.3451467"><ele>449.0</ele><time>2026-04-04T13:07:52.521Z</time></trkpt><trkpt lat="42.9663483" lon="13.3450417"><ele>449.0</ele><time>2026-04-04T13:07:53.521Z</time></trkpt><trkpt lat="42.9664367" lon="13.3449183"><ele>449.0</ele><time>2026-04-04T13:07:54.521Z</time></trkpt><trkpt lat="42.9665217" lon="13.3447767"><ele>449.0</ele><time>2026-04-04T13:07:55.521Z</time></trkpt><trkpt lat="42.9666083" lon="13.3446383"><ele>449.0</ele><time>2026-04-04T13:07:56.521Z</time></trkpt><trkpt lat="42.9666967" lon="13.3445033"><ele>448.5</ele><time>2026-04-04T13:07:57.52Z</time></trkpt><trkpt lat="42.96678" lon="13.3443733"><ele>448.0</ele><time>2026-04-04T13:07:58.52Z</time></trkpt><trkpt lat="42.9668683" lon="13.34425"><ele>447.5</ele><time>2026-04-04T13:07:59.521Z</time></trkpt><trkpt lat="42.966975" lon="13.344155"><ele>447.0</ele><time>2026-04-04T13:08:00.52Z</time></trkpt><trkpt lat="42.9670883" lon="13.3440833"><ele>447.0</ele><time>2026-04-04T13:08:01.52Z</time></trkpt><trkpt lat="42.96721" lon="13.3440433"><ele>447.0</ele><time>2026-04-04T13:08:02.52Z</time></trkpt><trkpt lat="42.9673383" lon="13.3440167"><ele>447.0</ele><time>2026-04-04T13:08:03.52Z</time></trkpt><trkpt lat="42.96747" lon="13.344005"><ele>447.0</ele><time>2026-04-04T13:08:04.52Z</time></trkpt><trkpt lat="42.9676" lon="13.3440017"><ele>448.5</ele><time>2026-04-04T13:08:05.521Z</time></trkpt><trkpt lat="42.9677433" lon="13.3439983"><ele>450.0</ele><time>2026-04-04T13:08:06.521Z</time></trkpt><trkpt lat="42.967885" lon="13.344005"><ele>451.5</ele><time>2026-04-04T13:08:07.521Z</time></trkpt><trkpt lat="42.9680233" lon="13.3440183"><ele>453.0</ele><time>2026-04-04T13:08:08.521Z</time></trkpt><trkpt lat="42.968165" lon="13.3440283"><ele>453.0</ele><time>2026-04-04T13:08:09.52Z</time></trkpt><trkpt lat="42.9683083" lon="13.3440417"><ele>453.0</ele><time>2026-04-04T13:08:10.52Z</time></trkpt><trkpt lat="42.9684467" lon="13.34405"><ele>453.0</ele><time>2026-04-04T13:08:11.521Z</time></trkpt><trkpt lat="42.9685817" lon="13.3440517"><ele>453.0</ele><time>2026-04-04T13:08:12.52Z</time></trkpt><trkpt lat="42.96872" lon="13.3440617"><ele>454.0</ele><time>2026-04-04T13:08:13.52Z</time></trkpt><trkpt lat="42.96886" lon="13.3440667"><ele>455.0</ele><time>2026-04-04T13:08:14.52Z</time></trkpt><trkpt lat="42.969005" lon="13.3440783"><ele>456.0</ele><time>2026-04-04T13:08:15.52Z</time></trkpt><trkpt lat="42.9691583" lon="13.3440883"><ele>457.0</ele><time>2026-04-04T13:08:16.52Z</time></trkpt><trkpt lat="42.9693017" lon="13.3440933"><ele>457.0</ele><time>2026-04-04T13:08:17.521Z</time></trkpt><trkpt lat="42.96945" lon="13.3441067"><ele>457.0</ele><time>2026-04-04T13:08:18.521Z</time></trkpt><trkpt lat="42.9695967" lon="13.3441167"><ele>457.0</ele><time>2026-04-04T13:08:19.52Z</time></trkpt><trkpt lat="42.969735" lon="13.3441333"><ele>457.0</ele><time>2026-04-04T13:08:20.52Z</time></trkpt><trkpt lat="42.96987" lon="13.34413"><ele>457.0</ele><time>2026-04-04T13:08:21.521Z</time></trkpt><trkpt lat="42.97" lon="13.3441417"><ele>457.0</ele><time>2026-04-04T13:08:22.52Z</time></trkpt><trkpt lat="42.97013" lon="13.34418"><ele>457.0</ele><time>2026-04-04T13:08:23.52Z</time></trkpt><trkpt lat="42.9702733" lon="13.344215"><ele>457.0</ele><time>2026-04-04T13:08:24.521Z</time></trkpt><trkpt lat="42.9704033" lon="13.3442867"><ele>459.0</ele><time>2026-04-04T13:08:25.52Z</time></trkpt><trkpt lat="42.9705033" lon="13.3443533"><ele>461.00000000000006</ele><time>2026-04-04T13:08:26.52Z</time></trkpt><trkpt lat="42.9705917" lon="13.3444333"><ele>463.00000000000006</ele><time>2026-04-04T13:08:27.52Z</time></trkpt><trkpt lat="42.9706583" lon="13.344485"><ele>465.0</ele><time>2026-04-04T13:08:28.52Z</time></trkpt><trkpt lat="42.97073" lon="13.344555"><ele>467.0</ele><time>2026-04-04T13:08:30.52Z</time></trkpt><trkpt lat="42.97081" lon="13.34463"><ele>467.40000000000003</ele><time>2026-04-04T13:09:45.52Z</time></trkpt><trkpt lat="42.9708633" lon="13.3447133"><ele>467.80000000000007</ele><time>2026-04-04T13:09:46.52Z</time></trkpt><trkpt lat="42.9709367" lon="13.3447967"><ele>468.2</ele><time>2026-04-04T13:09:47.521Z</time></trkpt><trkpt lat="42.9710283" lon="13.34491"><ele>468.6</ele><time>2026-04-04T13:09:48.521Z</time></trkpt><trkpt lat="42.9711333" lon="13.345025"><ele>469.0</ele><time>2026-04-04T13:09:49.52Z</time></trkpt><trkpt lat="42.971245" lon="13.345125"><ele>469.0</ele><time>2026-04-04T13:09:50.52Z</time></trkpt><trkpt lat="42.9713517" lon="13.3452117"><ele>469.0</ele><time>2026-04-04T13:09:51.52Z</time></trkpt><trkpt lat="42.9714667" lon="13.345275"><ele>469.0</ele><time>2026-04-04T13:09:52.52Z</time></trkpt><trkpt lat="42.9715867" lon="13.3453283"><ele>469.0</ele><time>2026-04-04T13:09:53.521Z</time></trkpt><trkpt lat="42.971685" lon="13.3453733"><ele>470.0</ele><time>2026-04-04T13:09:54.52Z</time></trkpt><trkpt lat="42.9717917" lon="13.3453967"><ele>471.0</ele><time>2026-04-04T13:09:55.521Z</time></trkpt><trkpt lat="42.9719067" lon="13.3454067"><ele>472.0</ele><time>2026-04-04T13:09:56.52Z</time></trkpt><trkpt lat="42.9720133" lon="13.3453717"><ele>473.0</ele><time>2026-04-04T13:09:57.521Z</time></trkpt><trkpt lat="42.9721283" lon="13.3453083"><ele>473.0</ele><time>2026-04-04T13:09:58.521Z</time></trkpt><trkpt lat="42.9722467" lon="13.3452083"><ele>473.0</ele><time>2026-04-04T13:09:59.521Z</time></trkpt><trkpt lat="42.972375" lon="13.3451117"><ele>473.0</ele><time>2026-04-04T13:10:00.52Z</time></trkpt><trkpt lat="42.9725167" lon="13.3450317"><ele>473.0</ele><time>2026-04-04T13:10:01.521Z</time></trkpt><trkpt lat="42.9726783" lon="13.3449967"><ele>474.0</ele><time>2026-04-04T13:10:02.52Z</time></trkpt><trkpt lat="42.97282" lon="13.3450083"><ele>475.0</ele><time>2026-04-04T13:10:03.521Z</time></trkpt><trkpt lat="42.97295" lon="13.34507"><ele>476.0</ele><time>2026-04-04T13:10:04.52Z</time></trkpt><trkpt lat="42.9730667" lon="13.345195"><ele>477.0</ele><time>2026-04-04T13:10:05.52Z</time></trkpt><trkpt lat="42.973185" lon="13.34532"><ele>477.0</ele><time>2026-04-04T13:10:06.521Z</time></trkpt><trkpt lat="42.97329" lon="13.3454367"><ele>477.0</ele><time>2026-04-04T13:10:07.52Z</time></trkpt><trkpt lat="42.9734117" lon="13.3455333"><ele>477.0</ele><time>2026-04-04T13:10:08.521Z</time></trkpt><trkpt lat="42.973505" lon="13.3456667"><ele>477.0</ele><time>2026-04-04T13:10:09.521Z</time></trkpt><trkpt lat="42.9735967" lon="13.345795"><ele>477.75</ele><time>2026-04-04T13:10:10.521Z</time></trkpt><trkpt lat="42.973675" lon="13.345935"><ele>478.5</ele><time>2026-04-04T13:10:11.521Z</time></trkpt><trkpt lat="42.9737367" lon="13.3460967"><ele>479.25</ele><time>2026-04-04T13:10:12.52Z</time></trkpt><trkpt lat="42.9738167" lon="13.3462567"><ele>480.0</ele><time>2026-04-04T13:10:13.52Z</time></trkpt><trkpt lat="42.97389" lon="13.3464017"><ele>480.0</ele><time>2026-04-04T13:10:14.521Z</time></trkpt><trkpt lat="42.9739583" lon="13.3465267"><ele>480.0</ele><time>2026-04-04T13:10:15.521Z</time></trkpt><trkpt lat="42.974015" lon="13.346675"><ele>480.0</ele><time>2026-04-04T13:10:16.521Z</time></trkpt><trkpt lat="42.9740817" lon="13.3468133"><ele>480.0</ele><time>2026-04-04T13:10:17.521Z</time></trkpt><trkpt lat="42.9741433" lon="13.3469367"><ele>480.4</ele><time>2026-04-04T13:10:18.52Z</time></trkpt><trkpt lat="42.9742067" lon="13.3470683"><ele>480.8</ele><time>2026-04-04T13:10:19.521Z</time></trkpt><trkpt lat="42.9742683" lon="13.3471867"><ele>481.20000000000005</ele><time>2026-04-04T13:10:20.521Z</time></trkpt><trkpt lat="42.9743317" lon="13.3473133"><ele>481.6</ele><time>2026-04-04T13:10:21.521Z</time></trkpt><trkpt lat="42.974395" lon="13.3474383"><ele>482.0</ele><time>2026-04-04T13:10:22.52Z</time></trkpt><trkpt lat="42.97445" lon="13.34756"><ele>482.0</ele><time>2026-04-04T13:10:23.521Z</time></trkpt><trkpt lat="42.974515" lon="13.3476917"><ele>482.0</ele><time>2026-04-04T13:10:24.52Z</time></trkpt><trkpt lat="42.97459" lon="13.347815"><ele>482.0</ele><time>2026-04-04T13:10:25.521Z</time></trkpt><trkpt lat="42.97465" lon="13.34795"><ele>482.0</ele><time>2026-04-04T13:10:26.521Z</time></trkpt><trkpt lat="42.97471" lon="13.348065"><ele>479.6</ele><time>2026-04-04T13:10:27.52Z</time></trkpt><trkpt lat="42.974775" lon="13.34818"><ele>477.20000000000005</ele><time>2026-04-04T13:10:28.521Z</time></trkpt><trkpt lat="42.9748367" lon="13.348285"><ele>474.8</ele><time>2026-04-04T13:10:29.52Z</time></trkpt><trkpt lat="42.9748867" lon="13.34839"><ele>472.4</ele><time>2026-04-04T13:10:30.52Z</time></trkpt><trkpt lat="42.9749333" lon="13.3484867"><ele>470.0</ele><time>2026-04-04T13:10:31.52Z</time></trkpt><trkpt lat="42.97498" lon="13.3485933"><ele>471.4</ele><time>2026-04-04T13:10:32.52Z</time></trkpt><trkpt lat="42.9750267" lon="13.3487133"><ele>472.8</ele><time>2026-04-04T13:10:33.52Z</time></trkpt><trkpt lat="42.975055" lon="13.3488283"><ele>474.20000000000005</ele><time>2026-04-04T13:10:34.521Z</time></trkpt><trkpt lat="42.975095" lon="13.34894"><ele>475.6</ele><time>2026-04-04T13:10:35.521Z</time></trkpt><trkpt lat="42.97513" lon="13.34906"><ele>477.0</ele><time>2026-04-04T13:10:36.52Z</time></trkpt><trkpt lat="42.9751717" lon="13.3491683"><ele>477.0</ele><time>2026-04-04T13:10:37.521Z</time></trkpt><trkpt lat="42.9752183" lon="13.3492567"><ele>477.00000000000006</ele><time>2026-04-04T13:10:38.52Z</time></trkpt><trkpt lat="42.9752683" lon="13.3493683"><ele>477.00000000000006</ele><time>2026-04-04T13:10:39.521Z</time></trkpt><trkpt lat="42.9753217" lon="13.349475"><ele>477.0</ele><time>2026-04-04T13:10:40.52Z</time></trkpt><trkpt lat="42.9753933" lon="13.34958"><ele>477.0</ele><time>2026-04-04T13:10:41.521Z</time></trkpt><trkpt lat="42.9754483" lon="13.3496833"><ele>475.8</ele><time>2026-04-04T13:10:42.521Z</time></trkpt><trkpt lat="42.975515" lon="13.3497867"><ele>474.6</ele><time>2026-04-04T13:10:43.521Z</time></trkpt><trkpt lat="42.9755667" lon="13.34989"><ele>473.40000000000003</ele><time>2026-04-04T13:10:44.521Z</time></trkpt><trkpt lat="42.9756267" lon="13.3499783"><ele>472.20000000000005</ele><time>2026-04-04T13:10:45.521Z</time></trkpt><trkpt lat="42.9756783" lon="13.35007"><ele>471.0</ele><time>2026-04-04T13:10:46.519Z</time></trkpt><trkpt lat="42.9757367" lon="13.3501617"><ele>471.0</ele><time>2026-04-04T13:10:47.52Z</time></trkpt><trkpt lat="42.975785" lon="13.3502533"><ele>471.0</ele><time>2026-04-04T13:10:48.52Z</time></trkpt><trkpt lat="42.9758333" lon="13.3503483"><ele>471.0</ele><time>2026-04-04T13:10:49.52Z</time></trkpt><trkpt lat="42.975885" lon="13.3504633"><ele>471.0</ele><time>2026-04-04T13:10:50.519Z</time></trkpt><trkpt lat="42.9759483" lon="13.3505717"><ele>471.0</ele><time>2026-04-04T13:10:51.52Z</time></trkpt><trkpt lat="42.976005" lon="13.3506883"><ele>471.3333333333333</ele><time>2026-04-04T13:10:52.52Z</time></trkpt><trkpt lat="42.9760567" lon="13.3507767"><ele>471.66666666666663</ele><time>2026-04-04T13:10:53.519Z</time></trkpt><trkpt lat="42.9760967" lon="13.3508533"><ele>472.0</ele><time>2026-04-04T13:10:54.519Z</time></trkpt><trkpt lat="42.97615" lon="13.350935"><ele>472.3333333333333</ele><time>2026-04-04T13:10:56.52Z</time></trkpt><trkpt lat="42.9762267" lon="13.351005"><ele>472.66666666666663</ele><time>2026-04-04T13:10:58.52Z</time></trkpt><trkpt lat="42.9762883" lon="13.3510467"><ele>473.0</ele><time>2026-04-04T13:10:59.519Z</time></trkpt><trkpt lat="42.9763583" lon="13.3510717"><ele>473.0</ele><time>2026-04-04T13:11:00.519Z</time></trkpt><trkpt lat="42.9764433" lon="13.3510917"><ele>472.99999999999994</ele><time>2026-04-04T13:11:01.519Z</time></trkpt><trkpt lat="42.9765483" lon="13.351125"><ele>472.99999999999994</ele><time>2026-04-04T13:11:02.52Z</time></trkpt><trkpt lat="42.9766617" lon="13.3511717"><ele>473.0</ele><time>2026-04-04T13:11:03.519Z</time></trkpt><trkpt lat="42.9767817" lon="13.3512067"><ele>473.0</ele><time>2026-04-04T13:11:04.52Z</time></trkpt><trkpt lat="42.9769017" lon="13.3512833"><ele>474.0</ele><time>2026-04-04T13:11:05.519Z</time></trkpt><trkpt lat="42.9770267" lon="13.3513667"><ele>475.0</ele><time>2026-04-04T13:11:06.519Z</time></trkpt><trkpt lat="42.97715" lon="13.351445"><ele>476.0</ele><time>2026-04-04T13:11:07.52Z</time></trkpt><trkpt lat="42.9772567" lon="13.3515433"><ele>477.0</ele><time>2026-04-04T13:11:08.52Z</time></trkpt><trkpt lat="42.9773633" lon="13.35165"><ele>477.0</ele><time>2026-04-04T13:11:09.519Z</time></trkpt><trkpt lat="42.977465" lon="13.351775"><ele>477.0</ele><time>2026-04-04T13:11:10.519Z</time></trkpt><trkpt lat="42.9775517" lon="13.35191"><ele>477.0</ele><time>2026-04-04T13:11:11.52Z</time></trkpt><trkpt lat="42.9776167" lon="13.35207"><ele>477.0</ele><time>2026-04-04T13:11:12.519Z</time></trkpt><trkpt lat="42.9776867" lon="13.352195"><ele>479.5</ele><time>2026-04-04T13:11:13.519Z</time></trkpt><trkpt lat="42.9777683" lon="13.352325"><ele>482.0</ele><time>2026-04-04T13:11:14.52Z</time></trkpt><trkpt lat="42.9778433" lon="13.3524617"><ele>484.5</ele><time>2026-04-04T13:11:15.519Z</time></trkpt><trkpt lat="42.977905" lon="13.3526067"><ele>487.0</ele><time>2026-04-04T13:11:16.52Z</time></trkpt><trkpt lat="42.9779883" lon="13.35274"><ele>487.0</ele><time>2026-04-04T13:11:17.519Z</time></trkpt><trkpt lat="42.9780533" lon="13.3528767"><ele>487.0</ele><time>2026-04-04T13:11:18.52Z</time></trkpt><trkpt lat="42.9781217" lon="13.3530033"><ele>487.0</ele><time>2026-04-04T13:11:19.52Z</time></trkpt><trkpt lat="42.9781883" lon="13.3531217"><ele>487.0</ele><time>2026-04-04T13:11:20.52Z</time></trkpt><trkpt lat="42.9782567" lon="13.3532333"><ele>486.20000000000005</ele><time>2026-04-04T13:11:21.52Z</time></trkpt><trkpt lat="42.9783267" lon="13.3533533"><ele>485.40000000000003</ele><time>2026-04-04T13:11:22.52Z</time></trkpt><trkpt lat="42.978395" lon="13.3534717"><ele>484.59999999999997</ele><time>2026-04-04T13:11:23.519Z</time></trkpt><trkpt lat="42.9784567" lon="13.3535767"><ele>483.79999999999995</ele><time>2026-04-04T13:11:24.52Z</time></trkpt><trkpt lat="42.9785117" lon="13.353695"><ele>483.0</ele><time>2026-04-04T13:11:25.52Z</time></trkpt><trkpt lat="42.9785767" lon="13.3538467"><ele>487.0</ele><time>2026-04-04T13:11:26.519Z</time></trkpt><trkpt lat="42.97861" lon="13.3539817"><ele>490.99999999999994</ele><time>2026-04-04T13:11:27.52Z</time></trkpt><trkpt lat="42.978625" lon="13.3541067"><ele>494.99999999999994</ele><time>2026-04-04T13:11:28.52Z</time></trkpt><trkpt lat="42.9786317" lon="13.354235"><ele>499.0</ele><time>2026-04-04T13:11:29.519Z</time></trkpt><trkpt lat="42.9786417" lon="13.354365"><ele>503.0</ele><time>2026-04-04T13:11:30.52Z</time></trkpt><trkpt lat="42.978645" lon="13.3544883"><ele>503.0</ele><time>2026-04-04T13:11:31.519Z</time></trkpt><trkpt lat="42.9786567" lon="13.35462"><ele>502.99999999999994</ele><time>2026-04-04T13:11:32.52Z</time></trkpt><trkpt lat="42.9786817" lon="13.354745"><ele>502.99999999999994</ele><time>2026-04-04T13:11:33.519Z</time></trkpt><trkpt lat="42.97871" lon="13.3548617"><ele>503.0</ele><time>2026-04-04T13:11:34.519Z</time></trkpt><trkpt lat="42.9787383" lon="13.3549833"><ele>503.0</ele><time>2026-04-04T13:11:35.519Z</time></trkpt><trkpt lat="42.9787517" lon="13.3551067"><ele>503.3333333333333</ele><time>2026-04-04T13:11:36.519Z</time></trkpt><trkpt lat="42.9787667" lon="13.3552267"><ele>503.66666666666663</ele><time>2026-04-04T13:11:37.519Z</time></trkpt><trkpt lat="42.9787783" lon="13.3553483"><ele>504.0</ele><time>2026-04-04T13:11:38.52Z</time></trkpt><trkpt lat="42.9787933" lon="13.355465"><ele>504.33333333333337</ele><time>2026-04-04T13:11:39.519Z</time></trkpt><trkpt lat="42.978825" lon="13.3555767"><ele>504.6666666666667</ele><time>2026-04-04T13:11:40.52Z</time></trkpt><trkpt lat="42.9788717" lon="13.3556683"><ele>505.0</ele><time>2026-04-04T13:11:41.519Z</time></trkpt><trkpt lat="42.9789383" lon="13.3557383"><ele>504.00000000000006</ele><time>2026-04-04T13:11:42.52Z</time></trkpt><trkpt lat="42.9790183" lon="13.3557767"><ele>503.0</ele><time>2026-04-04T13:11:43.519Z</time></trkpt><trkpt lat="42.9790983" lon="13.3558083"><ele>502.0</ele><time>2026-04-04T13:11:44.519Z</time></trkpt><trkpt lat="42.9791783" lon="13.355835"><ele>501.0</ele><time>2026-04-04T13:11:45.52Z</time></trkpt><trkpt lat="42.9792667" lon="13.3558533"><ele>500.00000000000006</ele><time>2026-04-04T13:11:46.52Z</time></trkpt><trkpt lat="42.9793533" lon="13.3558733"><ele>499.0</ele><time>2026-04-04T13:11:47.52Z</time></trkpt><trkpt lat="42.9794267" lon="13.3558933"><ele>499.00000000000006</ele><time>2026-04-04T13:11:48.52Z</time></trkpt><trkpt lat="42.9795" lon="13.3559117"><ele>499.0</ele><time>2026-04-04T13:11:49.519Z</time></trkpt><trkpt lat="42.9795783" lon="13.3558967"><ele>499.0</ele><time>2026-04-04T13:11:50.519Z</time></trkpt><trkpt lat="42.9796633" lon="13.3558433"><ele>499.0</ele><time>2026-04-04T13:11:52.52Z</time></trkpt><trkpt lat="42.979735" lon="13.35582"><ele>499.00000000000006</ele><time>2026-04-04T13:11:55.519Z</time></trkpt><trkpt lat="42.9797933" lon="13.3558967"><ele>499.0</ele><time>2026-04-04T13:25:39.518Z</time></trkpt><trkpt lat="42.9798767" lon="13.3559183"><ele>499.00000000000006</ele><time>2026-04-04T13:25:41.518Z</time></trkpt><trkpt lat="42.97997" lon="13.3559517"><ele>499.0</ele><time>2026-04-04T13:25:43.518Z</time></trkpt><trkpt lat="42.980095" lon="13.355975"><ele>499.0</ele><time>2026-04-04T13:25:45.518Z</time></trkpt><trkpt lat="42.980165" lon="13.3559867"><ele>499.0</ele><time>2026-04-04T13:25:46.517Z</time></trkpt><trkpt lat="42.9802333" lon="13.35601"><ele>499.00000000000006</ele><time>2026-04-04T13:25:47.517Z</time></trkpt><trkpt lat="42.9802983" lon="13.3560333"><ele>499.0</ele><time>2026-04-04T13:25:48.517Z</time></trkpt><trkpt lat="42.980415" lon="13.3560633"><ele>499.4</ele><time>2026-04-04T13:25:50.518Z</time></trkpt><trkpt lat="42.9805217" lon="13.356065"><ele>499.79999999999995</ele><time>2026-04-04T13:25:52.517Z</time></trkpt><trkpt lat="42.98062" lon="13.3560783"><ele>500.20000000000005</ele><time>2026-04-04T13:25:54.517Z</time></trkpt><trkpt lat="42.9807283" lon="13.3560867"><ele>500.6</ele><time>2026-04-04T13:25:56.518Z</time></trkpt><trkpt lat="42.9808583" lon="13.3561317"><ele>501.0</ele><time>2026-04-04T13:25:58.518Z</time></trkpt><trkpt lat="42.98092" lon="13.3561767"><ele>499.14285714285717</ele><time>2026-04-04T13:25:59.517Z</time></trkpt><trkpt lat="42.9809867" lon="13.3561983"><ele>497.2857142857142</ele><time>2026-04-04T13:26:00.517Z</time></trkpt><trkpt lat="42.9810717" lon="13.3561983"><ele>495.4285714285714</ele><time>2026-04-04T13:26:01.517Z</time></trkpt><trkpt lat="42.9811483" lon="13.3562017"><ele>493.57142857142856</ele><time>2026-04-04T13:26:02.517Z</time></trkpt><trkpt lat="42.9812267" lon="13.3562017"><ele>491.71428571428567</ele><time>2026-04-04T13:26:03.518Z</time></trkpt><trkpt lat="42.9812933" lon="13.3562117"><ele>489.8571428571428</ele><time>2026-04-04T13:26:04.517Z</time></trkpt><trkpt lat="42.9813667" lon="13.35622"><ele>487.99999999999994</ele><time>2026-04-04T13:26:05.518Z</time></trkpt><trkpt lat="42.9814417" lon="13.3562333"><ele>487.99999999999994</ele><time>2026-04-04T13:26:06.518Z</time></trkpt><trkpt lat="42.9815133" lon="13.35626"><ele>488.0</ele><time>2026-04-04T13:26:07.517Z</time></trkpt><trkpt lat="42.9815767" lon="13.3562667"><ele>488.0</ele><time>2026-04-04T13:26:08.517Z</time></trkpt><trkpt lat="42.98164" lon="13.356275"><ele>488.0</ele><time>2026-04-04T13:26:09.517Z</time></trkpt><trkpt lat="42.9817717" lon="13.3563283"><ele>487.99999999999994</ele><time>2026-04-04T13:26:11.517Z</time></trkpt><trkpt lat="42.9818567" lon="13.3563717"><ele>488.0</ele><time>2026-04-04T13:26:12.518Z</time></trkpt><trkpt lat="42.9819383" lon="13.3564117"><ele>484.99999999999994</ele><time>2026-04-04T13:26:13.517Z</time></trkpt><trkpt lat="42.9820217" lon="13.3564583"><ele>482.0</ele><time>2026-04-04T13:26:14.517Z</time></trkpt><trkpt lat="42.9821" lon="13.35652"><ele>479.0</ele><time>2026-04-04T13:26:15.518Z</time></trkpt><trkpt lat="42.9821733" lon="13.356555"><ele>476.0</ele><time>2026-04-04T13:26:16.517Z</time></trkpt><trkpt lat="42.9822233" lon="13.3566633"><ele>472.99999999999994</ele><time>2026-04-04T13:26:17.518Z</time></trkpt><trkpt lat="42.98225" lon="13.3567817"><ele>470.0</ele><time>2026-04-04T13:26:18.517Z</time></trkpt><trkpt lat="42.9822617" lon="13.3569083"><ele>469.99999999999994</ele><time>2026-04-04T13:26:19.517Z</time></trkpt><trkpt lat="42.98227" lon="13.357025"><ele>470.0</ele><time>2026-04-04T13:26:20.518Z</time></trkpt><trkpt lat="42.9822733" lon="13.357135"><ele>470.0</ele><time>2026-04-04T13:26:21.517Z</time></trkpt><trkpt lat="42.98226" lon="13.357245"><ele>470.0</ele><time>2026-04-04T13:26:22.517Z</time></trkpt><trkpt lat="42.982245" lon="13.35736"><ele>469.99999999999994</ele><time>2026-04-04T13:26:23.517Z</time></trkpt><trkpt lat="42.98222" lon="13.3574833"><ele>470.0</ele><time>2026-04-04T13:26:24.518Z</time></trkpt><trkpt lat="42.98221" lon="13.35761"><ele>470.2</ele><time>2026-04-04T13:26:25.517Z</time></trkpt><trkpt lat="42.9822233" lon="13.357755"><ele>470.4</ele><time>2026-04-04T13:26:26.518Z</time></trkpt><trkpt lat="42.98225" lon="13.3579017"><ele>470.6</ele><time>2026-04-04T13:26:27.517Z</time></trkpt><trkpt lat="42.98228" lon="13.3580367"><ele>470.8</ele><time>2026-04-04T13:26:28.518Z</time></trkpt><trkpt lat="42.9823167" lon="13.35817"><ele>471.0</ele><time>2026-04-04T13:26:29.518Z</time></trkpt><trkpt lat="42.9823383" lon="13.3583033"><ele>470.8333333333333</ele><time>2026-04-04T13:26:30.517Z</time></trkpt><trkpt lat="42.982355" lon="13.3584283"><ele>470.66666666666663</ele><time>2026-04-04T13:26:31.517Z</time></trkpt><trkpt lat="42.982365" lon="13.3585417"><ele>470.5</ele><time>2026-04-04T13:26:32.517Z</time></trkpt><trkpt lat="42.982365" lon="13.3586283"><ele>470.3333333333333</ele><time>2026-04-04T13:26:33.518Z</time></trkpt><trkpt lat="42.9823617" lon="13.3587333"><ele>470.16666666666663</ele><time>2026-04-04T13:26:35.518Z</time></trkpt><trkpt lat="42.98237" lon="13.3588233"><ele>470.0</ele><time>2026-04-04T13:26:59.517Z</time></trkpt><trkpt lat="42.9823717" lon="13.3589367"><ele>469.99999999999994</ele><time>2026-04-04T13:27:02.516Z</time></trkpt><trkpt lat="42.98239" lon="13.3590633"><ele>470.0</ele><time>2026-04-04T13:27:05.516Z</time></trkpt><trkpt lat="42.9823967" lon="13.35915"><ele>470.0</ele><time>2026-04-04T13:27:07.516Z</time></trkpt><trkpt lat="42.9823733" lon="13.359005"><ele>470.0</ele><time>2026-04-04T13:27:19.517Z</time></trkpt><trkpt lat="42.9823583" lon="13.3588633"><ele>469.99999999999994</ele><time>2026-04-04T13:27:21.516Z</time></trkpt><trkpt lat="42.9823533" lon="13.3587617"><ele>470.0</ele><time>2026-04-04T13:27:24.516Z</time></trkpt><trkpt lat="42.9823633" lon="13.3586433"><ele>470.2</ele><time>2026-04-04T13:27:32.517Z</time></trkpt><trkpt lat="42.98237" lon="13.3585017"><ele>470.4</ele><time>2026-04-04T13:27:34.516Z</time></trkpt><trkpt lat="42.982365" lon="13.3583917"><ele>470.6</ele><time>2026-04-04T13:27:35.517Z</time></trkpt><trkpt lat="42.9823633" lon="13.3582667"><ele>470.8</ele><time>2026-04-04T13:27:36.517Z</time></trkpt><trkpt lat="42.9823433" lon="13.358135"><ele>471.0</ele><time>2026-04-04T13:27:37.517Z</time></trkpt><trkpt lat="42.9823067" lon="13.3580067"><ele>471.0</ele><time>2026-04-04T13:27:38.517Z</time></trkpt><trkpt lat="42.982265" lon="13.3578817"><ele>471.0</ele><time>2026-04-04T13:27:39.517Z</time></trkpt><trkpt lat="42.982235" lon="13.3577483"><ele>471.0</ele><time>2026-04-04T13:27:40.517Z</time></trkpt><trkpt lat="42.982215" lon="13.3576117"><ele>471.0</ele><time>2026-04-04T13:27:41.516Z</time></trkpt><trkpt lat="42.9822017" lon="13.3574817"><ele>471.0</ele><time>2026-04-04T13:27:42.516Z</time></trkpt><trkpt lat="42.9822" lon="13.357345"><ele>471.0</ele><time>2026-04-04T13:27:43.517Z</time></trkpt><trkpt lat="42.9822067" lon="13.3572033"><ele>471.0</ele><time>2026-04-04T13:27:44.516Z</time></trkpt><trkpt lat="42.9822033" lon="13.3570667"><ele>471.0</ele><time>2026-04-04T13:27:45.516Z</time></trkpt><trkpt lat="42.9822067" lon="13.3569383"><ele>471.0</ele><time>2026-04-04T13:27:46.517Z</time></trkpt><trkpt lat="42.9822033" lon="13.35682"><ele>471.0</ele><time>2026-04-04T13:27:47.516Z</time></trkpt><trkpt lat="42.9822" lon="13.3567033"><ele>470.8333333333333</ele><time>2026-04-04T13:27:48.516Z</time></trkpt><trkpt lat="42.9821667" lon="13.3565983"><ele>470.66666666666663</ele><time>2026-04-04T13:27:49.517Z</time></trkpt><trkpt lat="42.98215" lon="13.356495"><ele>470.5</ele><time>2026-04-04T13:27:50.516Z</time></trkpt><trkpt lat="42.9821017" lon="13.35639"><ele>470.3333333333333</ele><time>2026-04-04T13:27:51.516Z</time></trkpt><trkpt lat="42.9820417" lon="13.3563017"><ele>470.16666666666663</ele><time>2026-04-04T13:27:52.516Z</time></trkpt><trkpt lat="42.9819617" lon="13.3562467"><ele>470.0</ele><time>2026-04-04T13:27:53.516Z</time></trkpt><trkpt lat="42.9818867" lon="13.35618"><ele>467.8333333333333</ele><time>2026-04-04T13:27:54.517Z</time></trkpt><trkpt lat="42.9818133" lon="13.3561183"><ele>465.66666666666663</ele><time>2026-04-04T13:27:55.516Z</time></trkpt><trkpt lat="42.9817517" lon="13.3560683"><ele>463.5</ele><time>2026-04-04T13:27:56.517Z</time></trkpt><trkpt lat="42.9816417" lon="13.356025"><ele>461.33333333333337</ele><time>2026-04-04T13:27:58.516Z</time></trkpt><trkpt lat="42.98157" lon="13.3560233"><ele>459.1666666666667</ele><time>2026-04-04T13:27:59.516Z</time></trkpt><trkpt lat="42.981505" lon="13.3560033"><ele>457.0</ele><time>2026-04-04T13:28:00.517Z</time></trkpt><trkpt lat="42.98143" lon="13.3559917"><ele>462.1666666666667</ele><time>2026-04-04T13:28:01.517Z</time></trkpt><trkpt lat="42.9813433" lon="13.356"><ele>467.33333333333337</ele><time>2026-04-04T13:28:02.517Z</time></trkpt><trkpt lat="42.9812533" lon="13.355995"><ele>472.5</ele><time>2026-04-04T13:28:03.516Z</time></trkpt><trkpt lat="42.9811633" lon="13.3559967"><ele>477.66666666666663</ele><time>2026-04-04T13:28:04.517Z</time></trkpt><trkpt lat="42.981075" lon="13.3560167"><ele>482.8333333333333</ele><time>2026-04-04T13:28:05.516Z</time></trkpt><trkpt lat="42.9809917" lon="13.3560183"><ele>488.0</ele><time>2026-04-04T13:28:06.516Z</time></trkpt><trkpt lat="42.9809183" lon="13.3560183"><ele>490.59999999999997</ele><time>2026-04-04T13:28:07.517Z</time></trkpt><trkpt lat="42.9808033" lon="13.3560183"><ele>493.19999999999993</ele><time>2026-04-04T13:28:09.517Z</time></trkpt><trkpt lat="42.9807067" lon="13.3560383"><ele>495.8</ele><time>2026-04-04T13:28:11.516Z</time></trkpt><trkpt lat="42.9806083" lon="13.35606"><ele>498.4</ele><time>2026-04-04T13:28:13.516Z</time></trkpt><trkpt lat="42.98049" lon="13.3560617"><ele>501.0</ele><time>2026-04-04T13:28:15.517Z</time></trkpt><trkpt lat="42.9804283" lon="13.3560383"><ele>501.0</ele><time>2026-04-04T13:28:16.516Z</time></trkpt><trkpt lat="42.9803183" lon="13.3560117"><ele>501.0</ele><time>2026-04-04T13:28:18.516Z</time></trkpt><trkpt lat="42.9802083" lon="13.35598"><ele>501.0</ele><time>2026-04-04T13:28:20.516Z</time></trkpt><trkpt lat="42.98009" lon="13.355955"><ele>501.0</ele><time>2026-04-04T13:28:22.517Z</time></trkpt><trkpt lat="42.979965" lon="13.3560033"><ele>500.6</ele><time>2026-04-04T13:28:24.516Z</time></trkpt><trkpt lat="42.9799017" lon="13.3560567"><ele>500.20000000000005</ele><time>2026-04-04T13:28:25.517Z</time></trkpt><trkpt lat="42.9798433" lon="13.3561367"><ele>499.79999999999995</ele><time>2026-04-04T13:28:26.517Z</time></trkpt><trkpt lat="42.9797867" lon="13.356235"><ele>499.4</ele><time>2026-04-04T13:28:27.516Z</time></trkpt><trkpt lat="42.9797083" lon="13.3563517"><ele>499.0</ele><time>2026-04-04T13:28:28.517Z</time></trkpt><trkpt lat="42.9796267" lon="13.3564717"><ele>500.25</ele><time>2026-04-04T13:28:29.517Z</time></trkpt><trkpt lat="42.97954" lon="13.3565983"><ele>501.5</ele><time>2026-04-04T13:28:30.516Z</time></trkpt><trkpt lat="42.9794417" lon="13.3567017"><ele>502.75</ele><time>2026-04-04T13:28:31.517Z</time></trkpt><trkpt lat="42.979355" lon="13.3568267"><ele>504.0</ele><time>2026-04-04T13:28:32.516Z</time></trkpt><trkpt lat="42.97928" lon="13.3569433"><ele>504.0</ele><time>2026-04-04T13:28:33.516Z</time></trkpt><trkpt lat="42.97919" lon="13.3570533"><ele>504.0</ele><time>2026-04-04T13:28:34.517Z</time></trkpt><trkpt lat="42.97913" lon="13.3571467"><ele>504.0</ele><time>2026-04-04T13:28:35.517Z</time></trkpt><trkpt lat="42.979085" lon="13.357265"><ele>504.0</ele><time>2026-04-04T13:28:36.517Z</time></trkpt><trkpt lat="42.979035" lon="13.3574083"><ele>504.0</ele><time>2026-04-04T13:28:37.516Z</time></trkpt><trkpt lat="42.9790283" lon="13.3575567"><ele>501.25</ele><time>2026-04-04T13:28:38.516Z</time></trkpt><trkpt lat="42.97905" lon="13.3577183"><ele>498.5</ele><time>2026-04-04T13:28:39.516Z</time></trkpt><trkpt lat="42.9790683" lon="13.3578917"><ele>495.75</ele><time>2026-04-04T13:28:40.517Z</time></trkpt><trkpt lat="42.9790983" lon="13.3580617"><ele>493.0</ele><time>2026-04-04T13:28:41.516Z</time></trkpt><trkpt lat="42.97911" lon="13.35824"><ele>491.25</ele><time>2026-04-04T13:28:42.517Z</time></trkpt><trkpt lat="42.9791417" lon="13.358405"><ele>489.5</ele><time>2026-04-04T13:28:43.516Z</time></trkpt><trkpt lat="42.9791767" lon="13.358585"><ele>487.75</ele><time>2026-04-04T13:28:44.516Z</time></trkpt><trkpt lat="42.979235" lon="13.3587367"><ele>486.0</ele><time>2026-04-04T13:28:45.517Z</time></trkpt><trkpt lat="42.979315" lon="13.358875"><ele>494.5</ele><time>2026-04-04T13:28:46.517Z</time></trkpt><trkpt lat="42.9794067" lon="13.3590283"><ele>503.0</ele><time>2026-04-04T13:28:47.516Z</time></trkpt><trkpt lat="42.9794867" lon="13.359185"><ele>511.5</ele><time>2026-04-04T13:28:48.516Z</time></trkpt><trkpt lat="42.9795433" lon="13.3593633"><ele>520.0</ele><time>2026-04-04T13:28:49.516Z</time></trkpt><trkpt lat="42.979575" lon="13.3595533"><ele>517.75</ele><time>2026-04-04T13:28:50.516Z</time></trkpt><trkpt lat="42.979605" lon="13.35975"><ele>515.5</ele><time>2026-04-04T13:28:51.517Z</time></trkpt><trkpt lat="42.9796" lon="13.3599433"><ele>513.25</ele><time>2026-04-04T13:28:52.517Z</time></trkpt><trkpt lat="42.9795783" lon="13.3601283"><ele>511.0</ele><time>2026-04-04T13:28:53.516Z</time></trkpt><trkpt lat="42.979545" lon="13.3603"><ele>511.0</ele><time>2026-04-04T13:28:54.517Z</time></trkpt><trkpt lat="42.9795183" lon="13.3604617"><ele>511.0</ele><time>2026-04-04T13:28:55.516Z</time></trkpt><trkpt lat="42.9795083" lon="13.3606217"><ele>511.0</ele><time>2026-04-04T13:28:56.517Z</time></trkpt><trkpt lat="42.97953" lon="13.3607767"><ele>511.0</ele><time>2026-04-04T13:28:57.516Z</time></trkpt><trkpt lat="42.979595" lon="13.360915"><ele>508.25</ele><time>2026-04-04T13:28:58.516Z</time></trkpt><trkpt lat="42.9796867" lon="13.3610267"><ele>505.5</ele><time>2026-04-04T13:28:59.516Z</time></trkpt><trkpt lat="42.979785" lon="13.3611367"><ele>502.75</ele><time>2026-04-04T13:29:00.517Z</time></trkpt><trkpt lat="42.9798817" lon="13.3612133"><ele>500.0</ele><time>2026-04-04T13:29:01.516Z</time></trkpt><trkpt lat="42.9799667" lon="13.3612883"><ele>500.99999999999994</ele><time>2026-04-04T13:29:02.516Z</time></trkpt><trkpt lat="42.9800383" lon="13.3613483"><ele>502.0</ele><time>2026-04-04T13:29:03.517Z</time></trkpt><trkpt lat="42.980095" lon="13.3613917"><ele>503.0</ele><time>2026-04-04T13:29:04.516Z</time></trkpt><trkpt lat="42.9801517" lon="13.3614417"><ele>504.0</ele><time>2026-04-04T13:29:07.517Z</time></trkpt><trkpt lat="42.9802433" lon="13.3615383"><ele>504.99999999999994</ele><time>2026-04-04T13:29:15.516Z</time></trkpt><trkpt lat="42.980315" lon="13.3616483"><ele>506.0</ele><time>2026-04-04T13:29:16.517Z</time></trkpt><trkpt lat="42.9803733" lon="13.3617883"><ele>506.0</ele><time>2026-04-04T13:29:17.516Z</time></trkpt><trkpt lat="42.9804033" lon="13.3619633"><ele>506.0</ele><time>2026-04-04T13:29:18.516Z</time></trkpt><trkpt lat="42.98042" lon="13.3621367"><ele>506.0</ele><time>2026-04-04T13:29:19.516Z</time></trkpt><trkpt lat="42.9804667" lon="13.3623033"><ele>506.0</ele><time>2026-04-04T13:29:20.516Z</time></trkpt><trkpt lat="42.9805517" lon="13.3624617"><ele>501.0</ele><time>2026-04-04T13:29:21.516Z</time></trkpt><trkpt lat="42.9806567" lon="13.3626133"><ele>496.0</ele><time>2026-04-04T13:29:22.517Z</time></trkpt><trkpt lat="42.9807517" lon="13.3627817"><ele>491.0</ele><time>2026-04-04T13:29:23.517Z</time></trkpt><trkpt lat="42.98083" lon="13.3629883"><ele>495.66666666666663</ele><time>2026-04-04T13:29:24.516Z</time></trkpt><trkpt lat="42.9808817" lon="13.3632033"><ele>500.33333333333337</ele><time>2026-04-04T13:29:25.517Z</time></trkpt><trkpt lat="42.980905" lon="13.3633833"><ele>505.0</ele><time>2026-04-04T13:29:26.517Z</time></trkpt><trkpt lat="42.9809283" lon="13.3635917"><ele>505.0</ele><time>2026-04-04T13:29:27.516Z</time></trkpt><trkpt lat="42.9809883" lon="13.36376"><ele>505.0</ele><time>2026-04-04T13:29:28.516Z</time></trkpt><trkpt lat="42.9810717" lon="13.36391"><ele>505.0</ele><time>2026-04-04T13:29:29.517Z</time></trkpt><trkpt lat="42.9811867" lon="13.364045"><ele>505.0</ele><time>2026-04-04T13:29:30.517Z</time></trkpt><trkpt lat="42.9813083" lon="13.3641667"><ele>497.0</ele><time>2026-04-04T13:29:31.516Z</time></trkpt><trkpt lat="42.9814417" lon="13.364295"><ele>489.0</ele><time>2026-04-04T13:29:32.516Z</time></trkpt><trkpt lat="42.981575" lon="13.364415"><ele>481.0</ele><time>2026-04-04T13:29:33.517Z</time></trkpt><trkpt lat="42.9817133" lon="13.3645517"><ele>481.0</ele><time>2026-04-04T13:29:34.517Z</time></trkpt><trkpt lat="42.98186" lon="13.36466"><ele>481.0</ele><time>2026-04-04T13:29:35.516Z</time></trkpt><trkpt lat="42.9820183" lon="13.3647467"><ele>481.0</ele><time>2026-04-04T13:29:36.516Z</time></trkpt><trkpt lat="42.9821817" lon="13.3648083"><ele>471.33333333333337</ele><time>2026-04-04T13:29:37.516Z</time></trkpt><trkpt lat="42.9823517" lon="13.3648883"><ele>461.66666666666663</ele><time>2026-04-04T13:29:38.516Z</time></trkpt><trkpt lat="42.9825133" lon="13.3649533"><ele>452.0</ele><time>2026-04-04T13:29:39.516Z</time></trkpt><trkpt lat="42.9826667" lon="13.36502"><ele>452.0</ele><time>2026-04-04T13:29:40.517Z</time></trkpt><trkpt lat="42.9828233" lon="13.365075"><ele>452.0</ele><time>2026-04-04T13:29:41.516Z</time></trkpt><trkpt lat="42.9829767" lon="13.36513"><ele>452.0</ele><time>2026-04-04T13:29:42.516Z</time></trkpt><trkpt lat="42.9831233" lon="13.3651817"><ele>452.0</ele><time>2026-04-04T13:29:43.516Z</time></trkpt><trkpt lat="42.98327" lon="13.3652617"><ele>452.0</ele><time>2026-04-04T13:29:44.516Z</time></trkpt><trkpt lat="42.9834083" lon="13.3653333"><ele>452.0</ele><time>2026-04-04T13:29:45.516Z</time></trkpt><trkpt lat="42.9835233" lon="13.3654133"><ele>452.0</ele><time>2026-04-04T13:29:46.517Z</time></trkpt><trkpt lat="42.9836333" lon="13.36552"><ele>447.0</ele><time>2026-04-04T13:29:47.516Z</time></trkpt><trkpt lat="42.9837117" lon="13.3656633"><ele>442.0</ele><time>2026-04-04T13:29:48.516Z</time></trkpt><trkpt lat="42.9837817" lon="13.3658117"><ele>437.0</ele><time>2026-04-04T13:29:49.516Z</time></trkpt><trkpt lat="42.9838467" lon="13.3659333"><ele>432.0</ele><time>2026-04-04T13:29:50.517Z</time></trkpt><trkpt lat="42.9839283" lon="13.3659983"><ele>432.0</ele><time>2026-04-04T13:29:51.516Z</time></trkpt><trkpt lat="42.984005" lon="13.3660917"><ele>432.0</ele><time>2026-04-04T13:29:52.516Z</time></trkpt><trkpt lat="42.9840567" lon="13.3661867"><ele>432.0</ele><time>2026-04-04T13:29:53.516Z</time></trkpt><trkpt lat="42.984085" lon="13.36628"><ele>432.0</ele><time>2026-04-04T13:29:54.516Z</time></trkpt><trkpt lat="42.98409" lon="13.3663733"><ele>432.0</ele><time>2026-04-04T13:29:55.516Z</time></trkpt><trkpt lat="42.9841133" lon="13.3664917"><ele>432.0</ele><time>2026-04-04T13:29:57.517Z</time></trkpt><trkpt lat="42.98419" lon="13.3665083"><ele>428.57142857142856</ele><time>2026-04-04T13:29:59.516Z</time></trkpt><trkpt lat="42.9842533" lon="13.3665083"><ele>425.1428571428571</ele><time>2026-04-04T13:30:00.517Z</time></trkpt><trkpt lat="42.9843317" lon="13.3664983"><ele>421.7142857142857</ele><time>2026-04-04T13:30:01.516Z</time></trkpt><trkpt lat="42.9844083" lon="13.3664667"><ele>418.2857142857143</ele><time>2026-04-04T13:30:02.517Z</time></trkpt><trkpt lat="42.984475" lon="13.36642"><ele>414.8571428571429</ele><time>2026-04-04T13:30:03.516Z</time></trkpt><trkpt lat="42.9845367" lon="13.3663917"><ele>411.42857142857144</ele><time>2026-04-04T13:30:04.516Z</time></trkpt><trkpt lat="42.984595" lon="13.3663583"><ele>408.0</ele><time>2026-04-04T13:30:05.517Z</time></trkpt><trkpt lat="42.98469" lon="13.366415"><ele>408.0</ele><time>2026-04-04T13:30:07.516Z</time></trkpt><trkpt lat="42.984725" lon="13.3665217"><ele>408.0</ele><time>2026-04-04T13:30:08.516Z</time></trkpt><trkpt lat="42.9847567" lon="13.3666733"><ele>408.0</ele><time>2026-04-04T13:30:09.517Z</time></trkpt><trkpt lat="42.98481" lon="13.3667867"><ele>408.0</ele><time>2026-04-04T13:30:10.517Z</time></trkpt><trkpt lat="42.98487" lon="13.3668717"><ele>408.0</ele><time>2026-04-04T13:30:11.516Z</time></trkpt><trkpt lat="42.9849633" lon="13.3669267"><ele>405.59999999999997</ele><time>2026-04-04T13:30:12.516Z</time></trkpt><trkpt lat="42.9850633" lon="13.366945"><ele>403.2</ele><time>2026-04-04T13:30:13.517Z</time></trkpt><trkpt lat="42.985165" lon="13.3669283"><ele>400.8</ele><time>2026-04-04T13:30:14.516Z</time></trkpt><trkpt lat="42.9852467" lon="13.366915"><ele>398.4</ele><time>2026-04-04T13:30:15.517Z</time></trkpt><trkpt lat="42.985315" lon="13.3669133"><ele>396.0</ele><time>2026-04-04T13:30:16.517Z</time></trkpt><trkpt lat="42.9854033" lon="13.366965"><ele>396.0</ele><time>2026-04-04T13:30:18.516Z</time></trkpt><trkpt lat="42.9854133" lon="13.3670633"><ele>396.0</ele><time>2026-04-04T13:30:20.517Z</time></trkpt><trkpt lat="42.9853033" lon="13.367205"><ele>396.0</ele><time>2026-04-04T13:30:43.516Z</time></trkpt><trkpt lat="42.9851933" lon="13.3672633"><ele>396.0</ele><time>2026-04-04T13:30:45.517Z</time></trkpt><trkpt lat="42.98512" lon="13.36731"><ele>396.0</ele><time>2026-04-04T13:30:46.516Z</time></trkpt><trkpt lat="42.985065" lon="13.3674033"><ele>395.1666666666667</ele><time>2026-04-04T13:30:48.516Z</time></trkpt><trkpt lat="42.9851167" lon="13.3675183"><ele>394.33333333333337</ele><time>2026-04-04T13:30:50.516Z</time></trkpt><trkpt lat="42.9851917" lon="13.3675483"><ele>393.5</ele><time>2026-04-04T13:30:51.516Z</time></trkpt><trkpt lat="42.9852817" lon="13.36758"><ele>392.6666666666667</ele><time>2026-04-04T13:30:52.516Z</time></trkpt><trkpt lat="42.985365" lon="13.3676167"><ele>391.83333333333337</ele><time>2026-04-04T13:30:53.517Z</time></trkpt><trkpt lat="42.9854433" lon="13.3676683"><ele>391.0</ele><time>2026-04-04T13:30:54.517Z</time></trkpt><trkpt lat="42.9855183" lon="13.3677333"><ele>391.0</ele><time>2026-04-04T13:30:55.516Z</time></trkpt><trkpt lat="42.9855917" lon="13.3678067"><ele>391.0</ele><time>2026-04-04T13:30:56.516Z</time></trkpt><trkpt lat="42.9856617" lon="13.367885"><ele>391.0</ele><time>2026-04-04T13:30:57.515Z</time></trkpt><trkpt lat="42.9857433" lon="13.3679567"><ele>391.0</ele><time>2026-04-04T13:30:58.516Z</time></trkpt><trkpt lat="42.9858183" lon="13.3680317"><ele>391.0</ele><time>2026-04-04T13:30:59.516Z</time></trkpt><trkpt lat="42.9859" lon="13.3681067"><ele>389.6</ele><time>2026-04-04T13:31:00.516Z</time></trkpt><trkpt lat="42.9859817" lon="13.3681783"><ele>388.20000000000005</ele><time>2026-04-04T13:31:01.516Z</time></trkpt><trkpt lat="42.986065" lon="13.368245"><ele>386.79999999999995</ele><time>2026-04-04T13:31:02.516Z</time></trkpt><trkpt lat="42.9861533" lon="13.3683117"><ele>385.4</ele><time>2026-04-04T13:31:03.516Z</time></trkpt><trkpt lat="42.9862433" lon="13.3683817"><ele>384.0</ele><time>2026-04-04T13:31:04.515Z</time></trkpt><trkpt lat="42.9863317" lon="13.3684583"><ele>384.0</ele><time>2026-04-04T13:31:05.515Z</time></trkpt><trkpt lat="42.9864233" lon="13.3685267"><ele>384.0</ele><time>2026-04-04T13:31:06.516Z</time></trkpt><trkpt lat="42.9865183" lon="13.3685833"><ele>384.0</ele><time>2026-04-04T13:31:07.516Z</time></trkpt><trkpt lat="42.986615" lon="13.3686433"><ele>384.0</ele><time>2026-04-04T13:31:08.516Z</time></trkpt><trkpt lat="42.9867167" lon="13.368695"><ele>384.0</ele><time>2026-04-04T13:31:09.515Z</time></trkpt><trkpt lat="42.986825" lon="13.368745"><ele>384.25</ele><time>2026-04-04T13:31:10.515Z</time></trkpt><trkpt lat="42.98694" lon="13.3687817"><ele>384.5</ele><time>2026-04-04T13:31:11.516Z</time></trkpt><trkpt lat="42.9870517" lon="13.3688317"><ele>384.75</ele><time>2026-04-04T13:31:12.515Z</time></trkpt><trkpt lat="42.9871633" lon="13.368895"><ele>385.0</ele><time>2026-04-04T13:31:13.515Z</time></trkpt><trkpt lat="42.9872783" lon="13.3689683"><ele>383.75</ele><time>2026-04-04T13:31:14.515Z</time></trkpt><trkpt lat="42.9873867" lon="13.3690667"><ele>382.5</ele><time>2026-04-04T13:31:15.516Z</time></trkpt><trkpt lat="42.9875" lon="13.3691583"><ele>381.25</ele><time>2026-04-04T13:31:16.515Z</time></trkpt><trkpt lat="42.9876167" lon="13.3692433"><ele>380.0</ele><time>2026-04-04T13:31:17.515Z</time></trkpt><trkpt lat="42.9877483" lon="13.369325"><ele>380.0</ele><time>2026-04-04T13:31:18.515Z</time></trkpt><trkpt lat="42.9878817" lon="13.36942"><ele>380.0</ele><time>2026-04-04T13:31:19.516Z</time></trkpt><trkpt lat="42.98802" lon="13.3695117"><ele>380.0</ele><time>2026-04-04T13:31:20.516Z</time></trkpt><trkpt lat="42.9881617" lon="13.369605"><ele>378.6666666666667</ele><time>2026-04-04T13:31:21.516Z</time></trkpt><trkpt lat="42.9883083" lon="13.369695"><ele>377.3333333333333</ele><time>2026-04-04T13:31:22.516Z</time></trkpt><trkpt lat="42.988455" lon="13.36979"><ele>376.0</ele><time>2026-04-04T13:31:23.515Z</time></trkpt><trkpt lat="42.9886017" lon="13.369895"><ele>376.0</ele><time>2026-04-04T13:31:24.515Z</time></trkpt><trkpt lat="42.9887433" lon="13.3700033"><ele>376.0</ele><time>2026-04-04T13:31:25.516Z</time></trkpt><trkpt lat="42.9888867" lon="13.3701033"><ele>376.0</ele><time>2026-04-04T13:31:26.516Z</time></trkpt><trkpt lat="42.9890333" lon="13.3702067"><ele>376.0</ele><time>2026-04-04T13:31:27.516Z</time></trkpt><trkpt lat="42.989195" lon="13.3703083"><ele>376.0</ele><time>2026-04-04T13:31:28.516Z</time></trkpt><trkpt lat="42.9893633" lon="13.3704033"><ele>376.0</ele><time>2026-04-04T13:31:29.515Z</time></trkpt><trkpt lat="42.9895433" lon="13.3704767"><ele>376.3333333333333</ele><time>2026-04-04T13:31:30.515Z</time></trkpt><trkpt lat="42.9897133" lon="13.3705417"><ele>376.6666666666667</ele><time>2026-04-04T13:31:31.516Z</time></trkpt><trkpt lat="42.9898833" lon="13.3706067"><ele>377.0</ele><time>2026-04-04T13:31:32.516Z</time></trkpt><trkpt lat="42.99004" lon="13.3706633"><ele>377.0</ele><time>2026-04-04T13:31:33.516Z</time></trkpt><trkpt lat="42.9901817" lon="13.3707083"><ele>377.0</ele><time>2026-04-04T13:31:34.515Z</time></trkpt><trkpt lat="42.99031" lon="13.3707517"><ele>377.0</ele><time>2026-04-04T13:31:35.515Z</time></trkpt><trkpt lat="42.99044" lon="13.3707783"><ele>377.0</ele><time>2026-04-04T13:31:36.516Z</time></trkpt><trkpt lat="42.9905667" lon="13.370785"><ele>377.0</ele><time>2026-04-04T13:31:37.515Z</time></trkpt><trkpt lat="42.9907083" lon="13.37077"><ele>377.0</ele><time>2026-04-04T13:31:38.515Z</time></trkpt><trkpt lat="42.9908517" lon="13.3707483"><ele>377.0</ele><time>2026-04-04T13:31:39.516Z</time></trkpt><trkpt lat="42.9910133" lon="13.3707433"><ele>377.0</ele><time>2026-04-04T13:31:40.516Z</time></trkpt><trkpt lat="42.991175" lon="13.3707583"><ele>377.0</ele><time>2026-04-04T13:31:41.516Z</time></trkpt><trkpt lat="42.9913417" lon="13.3707733"><ele>377.0</ele><time>2026-04-04T13:31:42.516Z</time></trkpt><trkpt lat="42.9915" lon="13.370785"><ele>377.0</ele><time>2026-04-04T13:31:43.516Z</time></trkpt><trkpt lat="42.9916617" lon="13.3707883"><ele>375.33333333333337</ele><time>2026-04-04T13:31:44.515Z</time></trkpt><trkpt lat="42.9918217" lon="13.37078"><ele>373.6666666666667</ele><time>2026-04-04T13:31:45.515Z</time></trkpt><trkpt lat="42.9919867" lon="13.3707567"><ele>372.0</ele><time>2026-04-04T13:31:46.515Z</time></trkpt><trkpt lat="42.9921583" lon="13.3707283"><ele>372.0</ele><time>2026-04-04T13:31:47.515Z</time></trkpt><trkpt lat="42.99234" lon="13.3706883"><ele>372.0</ele><time>2026-04-04T13:31:48.515Z</time></trkpt><trkpt lat="42.992525" lon="13.3706333"><ele>372.0</ele><time>2026-04-04T13:31:49.515Z</time></trkpt><trkpt lat="42.9927067" lon="13.370605"><ele>371.3333333333333</ele><time>2026-04-04T13:31:50.516Z</time></trkpt><trkpt lat="42.992895" lon="13.3705883"><ele>370.66666666666663</ele><time>2026-04-04T13:31:51.516Z</time></trkpt><trkpt lat="42.9930983" lon="13.3705783"><ele>370.0</ele><time>2026-04-04T13:31:52.515Z</time></trkpt><trkpt lat="42.993295" lon="13.3705633"><ele>370.0</ele><time>2026-04-04T13:31:53.516Z</time></trkpt><trkpt lat="42.9935" lon="13.3705567"><ele>370.0</ele><time>2026-04-04T13:31:54.516Z</time></trkpt><trkpt lat="42.9937033" lon="13.370545"><ele>370.0</ele><time>2026-04-04T13:31:55.516Z</time></trkpt><trkpt lat="42.9939067" lon="13.3705417"><ele>370.0</ele><time>2026-04-04T13:31:56.515Z</time></trkpt><trkpt lat="42.9941017" lon="13.3705383"><ele>370.0</ele><time>2026-04-04T13:31:57.515Z</time></trkpt><trkpt lat="42.9942983" lon="13.37053"><ele>370.0</ele><time>2026-04-04T13:31:58.516Z</time></trkpt><trkpt lat="42.9944933" lon="13.37052"><ele>370.0</ele><time>2026-04-04T13:31:59.516Z</time></trkpt><trkpt lat="42.9946683" lon="13.370515"><ele>370.0</ele><time>2026-04-04T13:32:00.515Z</time></trkpt><trkpt lat="42.994835" lon="13.3705067"><ele>370.0</ele><time>2026-04-04T13:32:01.516Z</time></trkpt><trkpt lat="42.9949933" lon="13.3705367"><ele>371.66666666666663</ele><time>2026-04-04T13:32:02.515Z</time></trkpt><trkpt lat="42.9951667" lon="13.37058"><ele>373.3333333333333</ele><time>2026-04-04T13:32:03.516Z</time></trkpt><trkpt lat="42.9953467" lon="13.37062"><ele>375.0</ele><time>2026-04-04T13:32:04.515Z</time></trkpt><trkpt lat="42.995535" lon="13.3706883"><ele>375.0</ele><time>2026-04-04T13:32:05.516Z</time></trkpt><trkpt lat="42.9957117" lon="13.370745"><ele>375.0</ele><time>2026-04-04T13:32:06.515Z</time></trkpt><trkpt lat="42.9958817" lon="13.370815"><ele>375.0</ele><time>2026-04-04T13:32:07.515Z</time></trkpt><trkpt lat="42.996045" lon="13.37088"><ele>379.66666666666663</ele><time>2026-04-04T13:32:08.516Z</time></trkpt><trkpt lat="42.9962117" lon="13.370925"><ele>384.3333333333333</ele><time>2026-04-04T13:32:09.516Z</time></trkpt><trkpt lat="42.9963667" lon="13.3709717"><ele>389.0</ele><time>2026-04-04T13:32:10.516Z</time></trkpt><trkpt lat="42.9965033" lon="13.3710133"><ele>389.0</ele><time>2026-04-04T13:32:11.516Z</time></trkpt><trkpt lat="42.9966183" lon="13.3710767"><ele>389.0</ele><time>2026-04-04T13:32:12.515Z</time></trkpt><trkpt lat="42.99671" lon="13.3711517"><ele>389.0</ele><time>2026-04-04T13:32:13.516Z</time></trkpt><trkpt lat="42.9967783" lon="13.371215"><ele>389.0</ele><time>2026-04-04T13:32:14.516Z</time></trkpt><trkpt lat="42.9968433" lon="13.3712483"><ele>389.0</ele><time>2026-04-04T13:32:15.516Z</time></trkpt><trkpt lat="42.9969117" lon="13.3712467"><ele>390.75</ele><time>2026-04-04T13:32:16.516Z</time></trkpt><trkpt lat="42.9970033" lon="13.3712267"><ele>392.5</ele><time>2026-04-04T13:32:17.515Z</time></trkpt><trkpt lat="42.9971" lon="13.3711617"><ele>394.25</ele><time>2026-04-04T13:32:18.515Z</time></trkpt><trkpt lat="42.9972017" lon="13.3710617"><ele>396.0</ele><time>2026-04-04T13:32:19.516Z</time></trkpt><trkpt lat="42.9972967" lon="13.3709517"><ele>396.0</ele><time>2026-04-04T13:32:20.515Z</time></trkpt><trkpt lat="42.9973817" lon="13.3708333"><ele>396.0</ele><time>2026-04-04T13:32:21.515Z</time></trkpt><trkpt lat="42.997465" lon="13.3707183"><ele>396.0</ele><time>2026-04-04T13:32:22.516Z</time></trkpt><trkpt lat="42.9975667" lon="13.3706333"><ele>396.0</ele><time>2026-04-04T13:32:23.515Z</time></trkpt><trkpt lat="42.997675" lon="13.3705833"><ele>396.6</ele><time>2026-04-04T13:32:24.516Z</time></trkpt><trkpt lat="42.997785" lon="13.3705583"><ele>397.20000000000005</ele><time>2026-04-04T13:32:25.516Z</time></trkpt><trkpt lat="42.99789" lon="13.3705567"><ele>397.79999999999995</ele><time>2026-04-04T13:32:26.515Z</time></trkpt><trkpt lat="42.9980033" lon="13.3705683"><ele>398.4</ele><time>2026-04-04T13:32:27.516Z</time></trkpt><trkpt lat="42.9981217" lon="13.3705817"><ele>399.0</ele><time>2026-04-04T13:32:28.515Z</time></trkpt><trkpt lat="42.99826" lon="13.3706133"><ele>399.25</ele><time>2026-04-04T13:32:29.515Z</time></trkpt><trkpt lat="42.9984017" lon="13.370645"><ele>399.5</ele><time>2026-04-04T13:32:30.516Z</time></trkpt><trkpt lat="42.9985367" lon="13.370665"><ele>399.75</ele><time>2026-04-04T13:32:31.516Z</time></trkpt><trkpt lat="42.998655" lon="13.3706733"><ele>400.0</ele><time>2026-04-04T13:32:32.516Z</time></trkpt><trkpt lat="42.9987717" lon="13.3706783"><ele>400.0</ele><time>2026-04-04T13:32:33.515Z</time></trkpt><trkpt lat="42.998885" lon="13.370665"><ele>400.0</ele><time>2026-04-04T13:32:34.515Z</time></trkpt><trkpt lat="42.9989867" lon="13.37064"><ele>400.0</ele><time>2026-04-04T13:32:35.516Z</time></trkpt><trkpt lat="42.999085" lon="13.3705867"><ele>400.0</ele><time>2026-04-04T13:32:36.516Z</time></trkpt><trkpt lat="42.9991817" lon="13.3705567"><ele>400.0</ele><time>2026-04-04T13:32:37.515Z</time></trkpt><trkpt lat="42.9992767" lon="13.370555"><ele>400.8</ele><time>2026-04-04T13:32:38.515Z</time></trkpt><trkpt lat="42.9993783" lon="13.37055"><ele>401.6</ele><time>2026-04-04T13:32:39.516Z</time></trkpt><trkpt lat="42.999485" lon="13.3705283"><ele>402.4</ele><time>2026-04-04T13:32:40.515Z</time></trkpt><trkpt lat="42.9995917" lon="13.3704767"><ele>403.2</ele><time>2026-04-04T13:32:41.515Z</time></trkpt><trkpt lat="42.9996983" lon="13.3704433"><ele>404.0</ele><time>2026-04-04T13:32:42.515Z</time></trkpt><trkpt lat="42.9998017" lon="13.3704433"><ele>404.0</ele><time>2026-04-04T13:32:43.515Z</time></trkpt><trkpt lat="42.9999083" lon="13.3704683"><ele>404.0</ele><time>2026-04-04T13:32:44.516Z</time></trkpt><trkpt lat="43.0000167" lon="13.3704883"><ele>404.0</ele><time>2026-04-04T13:32:45.516Z</time></trkpt><trkpt lat="43.0000983" lon="13.3705033"><ele>404.0</ele><time>2026-04-04T13:32:46.515Z</time></trkpt><trkpt lat="43.0001833" lon="13.3705167"><ele>404.0</ele><time>2026-04-04T13:32:47.515Z</time></trkpt><trkpt lat="43.000255" lon="13.37058"><ele>404.0</ele><time>2026-04-04T13:32:48.515Z</time></trkpt><trkpt lat="43.0003217" lon="13.37068"><ele>404.0</ele><time>2026-04-04T13:32:49.515Z</time></trkpt><trkpt lat="43.0003733" lon="13.3708117"><ele>404.0</ele><time>2026-04-04T13:32:50.515Z</time></trkpt><trkpt lat="43.0004217" lon="13.3709233"><ele>404.0</ele><time>2026-04-04T13:32:51.515Z</time></trkpt><trkpt lat="43.0004867" lon="13.371025"><ele>404.0</ele><time>2026-04-04T13:32:52.515Z</time></trkpt><trkpt lat="43.0005667" lon="13.371125"><ele>404.0</ele><time>2026-04-04T13:32:53.516Z</time></trkpt><trkpt lat="43.00066" lon="13.37122"><ele>404.0</ele><time>2026-04-04T13:32:54.516Z</time></trkpt><trkpt lat="43.00076" lon="13.3712967"><ele>404.0</ele><time>2026-04-04T13:32:55.516Z</time></trkpt><trkpt lat="43.00085" lon="13.3713833"><ele>404.0</ele><time>2026-04-04T13:32:56.516Z</time></trkpt><trkpt lat="43.00092" lon="13.37147"><ele>404.0</ele><time>2026-04-04T13:32:57.515Z</time></trkpt><trkpt lat="43.0009683" lon="13.371565"><ele>402.6</ele><time>2026-04-04T13:32:58.515Z</time></trkpt><trkpt lat="43.0010017" lon="13.3716833"><ele>401.2</ele><time>2026-04-04T13:32:59.515Z</time></trkpt><trkpt lat="43.0010367" lon="13.3718117"><ele>399.8</ele><time>2026-04-04T13:33:00.516Z</time></trkpt><trkpt lat="43.0010883" lon="13.3719383"><ele>398.40000000000003</ele><time>2026-04-04T13:33:01.515Z</time></trkpt><trkpt lat="43.0011467" lon="13.372055"><ele>397.0</ele><time>2026-04-04T13:33:02.515Z</time></trkpt><trkpt lat="43.0012267" lon="13.372145"><ele>397.0</ele><time>2026-04-04T13:33:03.515Z</time></trkpt><trkpt lat="43.0013167" lon="13.3722033"><ele>397.0</ele><time>2026-04-04T13:33:04.516Z</time></trkpt><trkpt lat="43.001415" lon="13.3722217"><ele>397.0</ele><time>2026-04-04T13:33:05.515Z</time></trkpt><trkpt lat="43.0015283" lon="13.3722117"><ele>397.0</ele><time>2026-04-04T13:33:06.515Z</time></trkpt><trkpt lat="43.0016383" lon="13.3721717"><ele>397.0</ele><time>2026-04-04T13:33:07.515Z</time></trkpt><trkpt lat="43.0017633" lon="13.3721167"><ele>398.25</ele><time>2026-04-04T13:33:08.516Z</time></trkpt><trkpt lat="43.0018833" lon="13.37207"><ele>399.5</ele><time>2026-04-04T13:33:09.515Z</time></trkpt><trkpt lat="43.001995" lon="13.3720317"><ele>400.75</ele><time>2026-04-04T13:33:10.516Z</time></trkpt><trkpt lat="43.00212" lon="13.3719833"><ele>402.0</ele><time>2026-04-04T13:33:11.515Z</time></trkpt><trkpt lat="43.002245" lon="13.3719267"><ele>402.0</ele><time>2026-04-04T13:33:12.516Z</time></trkpt><trkpt lat="43.0023817" lon="13.3718617"><ele>402.0</ele><time>2026-04-04T13:33:13.516Z</time></trkpt><trkpt lat="43.00253" lon="13.3718133"><ele>402.0</ele><time>2026-04-04T13:33:14.515Z</time></trkpt><trkpt lat="43.0026783" lon="13.3717733"><ele>402.0</ele><time>2026-04-04T13:33:15.515Z</time></trkpt><trkpt lat="43.0028217" lon="13.3717383"><ele>401.66666666666663</ele><time>2026-04-04T13:33:16.515Z</time></trkpt><trkpt lat="43.0029717" lon="13.37169"><ele>401.3333333333333</ele><time>2026-04-04T13:33:17.516Z</time></trkpt><trkpt lat="43.0031217" lon="13.3716533"><ele>401.0</ele><time>2026-04-04T13:33:18.515Z</time></trkpt><trkpt lat="43.00327" lon="13.3716067"><ele>401.5</ele><time>2026-04-04T13:33:19.516Z</time></trkpt><trkpt lat="43.00341" lon="13.371545"><ele>402.0</ele><time>2026-04-04T13:33:20.516Z</time></trkpt><trkpt lat="43.0035417" lon="13.3714983"><ele>402.5</ele><time>2026-04-04T13:33:21.516Z</time></trkpt><trkpt lat="43.0036683" lon="13.3714833"><ele>403.0</ele><time>2026-04-04T13:33:22.515Z</time></trkpt><trkpt lat="43.0037783" lon="13.3714933"><ele>403.0</ele><time>2026-04-04T13:33:23.515Z</time></trkpt><trkpt lat="43.0038783" lon="13.3714983"><ele>403.0</ele><time>2026-04-04T13:33:24.515Z</time></trkpt><trkpt lat="43.004" lon="13.3714917"><ele>403.0</ele><time>2026-04-04T13:33:25.516Z</time></trkpt><trkpt lat="43.00412" lon="13.3714517"><ele>403.0</ele><time>2026-04-04T13:33:26.516Z</time></trkpt><trkpt lat="43.0042417" lon="13.3714033"><ele>403.75</ele><time>2026-04-04T13:33:27.515Z</time></trkpt><trkpt lat="43.0043633" lon="13.3713583"><ele>404.5</ele><time>2026-04-04T13:33:28.516Z</time></trkpt><trkpt lat="43.004475" lon="13.3713083"><ele>405.25</ele><time>2026-04-04T13:33:29.516Z</time></trkpt><trkpt lat="43.004585" lon="13.3712717"><ele>406.0</ele><time>2026-04-04T13:33:30.516Z</time></trkpt><trkpt lat="43.004695" lon="13.3712467"><ele>406.0</ele><time>2026-04-04T13:33:31.516Z</time></trkpt><trkpt lat="43.0048" lon="13.3712367"><ele>406.0</ele><time>2026-04-04T13:33:32.516Z</time></trkpt><trkpt lat="43.0049017" lon="13.371255"><ele>406.0</ele><time>2026-04-04T13:33:33.516Z</time></trkpt><trkpt lat="43.00501" lon="13.37129"><ele>406.0</ele><time>2026-04-04T13:33:34.515Z</time></trkpt><trkpt lat="43.00512" lon="13.3713333"><ele>406.0</ele><time>2026-04-04T13:33:35.515Z</time></trkpt><trkpt lat="43.005235" lon="13.371375"><ele>406.0</ele><time>2026-04-04T13:33:36.516Z</time></trkpt><trkpt lat="43.0053433" lon="13.371405"><ele>406.0</ele><time>2026-04-04T13:33:37.515Z</time></trkpt><trkpt lat="43.0054383" lon="13.3714317"><ele>406.0</ele><time>2026-04-04T13:33:38.515Z</time></trkpt><trkpt lat="43.005535" lon="13.3714633"><ele>406.0</ele><time>2026-04-04T13:33:39.516Z</time></trkpt><trkpt lat="43.00562" lon="13.371525"><ele>406.0</ele><time>2026-04-04T13:33:40.516Z</time></trkpt><trkpt lat="43.0056983" lon="13.3715983"><ele>406.0</ele><time>2026-04-04T13:33:41.516Z</time></trkpt><trkpt lat="43.0057517" lon="13.3717217"><ele>406.0</ele><time>2026-04-04T13:33:42.516Z</time></trkpt><trkpt lat="43.00578" lon="13.3718833"><ele>406.0</ele><time>2026-04-04T13:33:43.515Z</time></trkpt><trkpt lat="43.005785" lon="13.3720667"><ele>406.0</ele><time>2026-04-04T13:33:44.515Z</time></trkpt><trkpt lat="43.0057917" lon="13.3722683"><ele>405.0</ele><time>2026-04-04T13:33:45.516Z</time></trkpt><trkpt lat="43.0058067" lon="13.3724783"><ele>404.0</ele><time>2026-04-04T13:33:46.515Z</time></trkpt><trkpt lat="43.0058333" lon="13.3726833"><ele>403.0</ele><time>2026-04-04T13:33:47.516Z</time></trkpt><trkpt lat="43.0058667" lon="13.372865"><ele>402.0</ele><time>2026-04-04T13:33:48.516Z</time></trkpt><trkpt lat="43.0058983" lon="13.3730317"><ele>400.75</ele><time>2026-04-04T13:33:49.516Z</time></trkpt><trkpt lat="43.0059133" lon="13.37321"><ele>399.5</ele><time>2026-04-04T13:33:50.515Z</time></trkpt><trkpt lat="43.0059217" lon="13.3733683"><ele>398.25</ele><time>2026-04-04T13:33:51.516Z</time></trkpt><trkpt lat="43.0059267" lon="13.373525"><ele>397.0</ele><time>2026-04-04T13:33:52.515Z</time></trkpt><trkpt lat="43.0059183" lon="13.3737033"><ele>395.5</ele><time>2026-04-04T13:33:53.515Z</time></trkpt><trkpt lat="43.0059267" lon="13.3738917"><ele>394.0</ele><time>2026-04-04T13:33:54.515Z</time></trkpt><trkpt lat="43.00594" lon="13.3740817"><ele>392.5</ele><time>2026-04-04T13:33:55.515Z</time></trkpt><trkpt lat="43.0059567" lon="13.374275"><ele>391.0</ele><time>2026-04-04T13:33:56.516Z</time></trkpt><trkpt lat="43.0059933" lon="13.3744617"><ele>391.0</ele><time>2026-04-04T13:33:57.515Z</time></trkpt><trkpt lat="43.0060383" lon="13.374635"><ele>391.0</ele><time>2026-04-04T13:33:58.515Z</time></trkpt><trkpt lat="43.00609" lon="13.3747833"><ele>391.0</ele><time>2026-04-04T13:33:59.515Z</time></trkpt><trkpt lat="43.0061367" lon="13.3749217"><ele>391.0</ele><time>2026-04-04T13:34:00.515Z</time></trkpt><trkpt lat="43.0061817" lon="13.3750467"><ele>389.8</ele><time>2026-04-04T13:34:01.516Z</time></trkpt><trkpt lat="43.0062383" lon="13.3751567"><ele>388.6</ele><time>2026-04-04T13:34:02.515Z</time></trkpt><trkpt lat="43.0063033" lon="13.3752483"><ele>387.4</ele><time>2026-04-04T13:34:03.515Z</time></trkpt><trkpt lat="43.0063783" lon="13.375325"><ele>386.2</ele><time>2026-04-04T13:34:04.516Z</time></trkpt><trkpt lat="43.0064517" lon="13.3753917"><ele>385.0</ele><time>2026-04-04T13:34:05.515Z</time></trkpt><trkpt lat="43.0065167" lon="13.3754517"><ele>385.00000000000006</ele><time>2026-04-04T13:34:06.516Z</time></trkpt><trkpt lat="43.0065667" lon="13.37552"><ele>385.0</ele><time>2026-04-04T13:34:07.516Z</time></trkpt><trkpt lat="43.0065983" lon="13.37562"><ele>385.0</ele><time>2026-04-04T13:34:08.515Z</time></trkpt><trkpt lat="43.0066083" lon="13.3757333"><ele>385.0</ele><time>2026-04-04T13:34:09.515Z</time></trkpt><trkpt lat="43.0066233" lon="13.3758633"><ele>385.00000000000006</ele><time>2026-04-04T13:34:10.515Z</time></trkpt><trkpt lat="43.00664" lon="13.375995"><ele>385.0</ele><time>2026-04-04T13:34:11.515Z</time></trkpt><trkpt lat="43.0066667" lon="13.3761283"><ele>382.6666666666667</ele><time>2026-04-04T13:34:12.515Z</time></trkpt><trkpt lat="43.0066933" lon="13.3762533"><ele>380.33333333333337</ele><time>2026-04-04T13:34:13.515Z</time></trkpt><trkpt lat="43.0067367" lon="13.37637"><ele>378.0</ele><time>2026-04-04T13:34:14.515Z</time></trkpt><trkpt lat="43.0067867" lon="13.3764767"><ele>375.6666666666667</ele><time>2026-04-04T13:34:15.515Z</time></trkpt><trkpt lat="43.0068333" lon="13.3765683"><ele>373.33333333333337</ele><time>2026-04-04T13:34:16.516Z</time></trkpt><trkpt lat="43.0068617" lon="13.3766517"><ele>371.0</ele><time>2026-04-04T13:34:17.515Z</time></trkpt><trkpt lat="43.0068717" lon="13.3767383"><ele>369.6</ele><time>2026-04-04T13:34:18.516Z</time></trkpt><trkpt lat="43.0068433" lon="13.3768267"><ele>368.20000000000005</ele><time>2026-04-04T13:34:19.515Z</time></trkpt><trkpt lat="43.00681" lon="13.3769217"><ele>366.79999999999995</ele><time>2026-04-04T13:34:20.516Z</time></trkpt><trkpt lat="43.006755" lon="13.3770467"><ele>365.4</ele><time>2026-04-04T13:34:21.516Z</time></trkpt><trkpt lat="43.0066683" lon="13.3771783"><ele>364.0</ele><time>2026-04-04T13:34:22.516Z</time></trkpt><trkpt lat="43.0065833" lon="13.3772967"><ele>362.2</ele><time>2026-04-04T13:34:23.515Z</time></trkpt><trkpt lat="43.0065267" lon="13.377415"><ele>360.4</ele><time>2026-04-04T13:34:24.516Z</time></trkpt><trkpt lat="43.0065" lon="13.377535"><ele>358.6</ele><time>2026-04-04T13:34:25.516Z</time></trkpt><trkpt lat="43.006495" lon="13.3776417"><ele>356.8</ele><time>2026-04-04T13:34:26.515Z</time></trkpt><trkpt lat="43.0065267" lon="13.3777517"><ele>355.0</ele><time>2026-04-04T13:34:27.516Z</time></trkpt><trkpt lat="43.0065883" lon="13.37786"><ele>355.0</ele><time>2026-04-04T13:34:28.516Z</time></trkpt><trkpt lat="43.0066867" lon="13.3779767"><ele>355.0</ele><time>2026-04-04T13:34:29.515Z</time></trkpt><trkpt lat="43.0067983" lon="13.3781133"><ele>355.0</ele><time>2026-04-04T13:34:30.515Z</time></trkpt><trkpt lat="43.0069117" lon="13.378275"><ele>355.0</ele><time>2026-04-04T13:34:31.515Z</time></trkpt><trkpt lat="43.0070067" lon="13.3784183"><ele>355.0</ele><time>2026-04-04T13:34:32.516Z</time></trkpt><trkpt lat="43.0070883" lon="13.3785367"><ele>355.0</ele><time>2026-04-04T13:34:33.515Z</time></trkpt><trkpt lat="43.00716" lon="13.3786383"><ele>355.0</ele><time>2026-04-04T13:34:34.515Z</time></trkpt><trkpt lat="43.0072083" lon="13.3787567"><ele>355.0</ele><time>2026-04-04T13:34:35.515Z</time></trkpt><trkpt lat="43.0072633" lon="13.3788883"><ele>355.0</ele><time>2026-04-04T13:34:36.516Z</time></trkpt><trkpt lat="43.0073267" lon="13.3790483"><ele>354.66666666666663</ele><time>2026-04-04T13:34:37.515Z</time></trkpt><trkpt lat="43.0074017" lon="13.379215"><ele>354.3333333333333</ele><time>2026-04-04T13:34:38.515Z</time></trkpt><trkpt lat="43.00749" lon="13.3794083"><ele>354.0</ele><time>2026-04-04T13:34:39.515Z</time></trkpt><trkpt lat="43.0076033" lon="13.3796133"><ele>354.0</ele><time>2026-04-04T13:34:40.516Z</time></trkpt><trkpt lat="43.0077467" lon="13.37984"><ele>354.0</ele><time>2026-04-04T13:34:41.515Z</time></trkpt><trkpt lat="43.007905" lon="13.3800717"><ele>354.0</ele><time>2026-04-04T13:34:42.516Z</time></trkpt><trkpt lat="43.0080667" lon="13.380305"><ele>354.0</ele><time>2026-04-04T13:34:43.516Z</time></trkpt><trkpt lat="43.00823" lon="13.3805233"><ele>353.6666666666667</ele><time>2026-04-04T13:34:44.516Z</time></trkpt><trkpt lat="43.0083617" lon="13.380705"><ele>353.33333333333337</ele><time>2026-04-04T13:34:45.515Z</time></trkpt><trkpt lat="43.0084817" lon="13.3809"><ele>353.0</ele><time>2026-04-04T13:34:46.516Z</time></trkpt><trkpt lat="43.0085983" lon="13.381055"><ele>353.0</ele><time>2026-04-04T13:34:47.516Z</time></trkpt><trkpt lat="43.0087083" lon="13.3811917"><ele>353.0</ele><time>2026-04-04T13:34:48.516Z</time></trkpt><trkpt lat="43.0088217" lon="13.3813067"><ele>353.0</ele><time>2026-04-04T13:34:49.516Z</time></trkpt><trkpt lat="43.008905" lon="13.381405"><ele>353.0</ele><time>2026-04-04T13:34:50.515Z</time></trkpt><trkpt lat="43.009005" lon="13.38149"><ele>353.0</ele><time>2026-04-04T13:34:51.516Z</time></trkpt><trkpt lat="43.0091217" lon="13.3815467"><ele>353.0</ele><time>2026-04-04T13:34:52.515Z</time></trkpt><trkpt lat="43.0092633" lon="13.3815717"><ele>353.0</ele><time>2026-04-04T13:34:53.515Z</time></trkpt><trkpt lat="43.0094333" lon="13.3815917"><ele>353.0</ele><time>2026-04-04T13:34:54.516Z</time></trkpt><trkpt lat="43.0096017" lon="13.381625"><ele>353.0</ele><time>2026-04-04T13:34:55.516Z</time></trkpt><trkpt lat="43.0097633" lon="13.3816567"><ele>353.0</ele><time>2026-04-04T13:34:56.516Z</time></trkpt><trkpt lat="43.0099233" lon="13.3817033"><ele>353.0</ele><time>2026-04-04T13:34:57.516Z</time></trkpt><trkpt lat="43.0100783" lon="13.3817817"><ele>354.0</ele><time>2026-04-04T13:34:58.516Z</time></trkpt><trkpt lat="43.0102267" lon="13.3818833"><ele>355.0</ele><time>2026-04-04T13:34:59.516Z</time></trkpt><trkpt lat="43.01036" lon="13.3820067"><ele>356.0</ele><time>2026-04-04T13:35:00.516Z</time></trkpt><trkpt lat="43.010475" lon="13.3821517"><ele>357.0</ele><time>2026-04-04T13:35:01.516Z</time></trkpt><trkpt lat="43.0105767" lon="13.3822917"><ele>358.0</ele><time>2026-04-04T13:35:02.515Z</time></trkpt><trkpt lat="43.0106567" lon="13.3824483"><ele>359.0</ele><time>2026-04-04T13:35:03.515Z</time></trkpt><trkpt lat="43.010745" lon="13.382565"><ele>360.0</ele><time>2026-04-04T13:35:04.516Z</time></trkpt><trkpt lat="43.0108283" lon="13.3826283"><ele>360.0</ele><time>2026-04-04T13:35:05.516Z</time></trkpt><trkpt lat="43.0109183" lon="13.3826533"><ele>360.0</ele><time>2026-04-04T13:35:06.516Z</time></trkpt><trkpt lat="43.0109983" lon="13.3826583"><ele>360.0</ele><time>2026-04-04T13:35:07.516Z</time></trkpt><trkpt lat="43.0110683" lon="13.3826333"><ele>360.0</ele><time>2026-04-04T13:35:08.515Z</time></trkpt><trkpt lat="43.0111367" lon="13.3825817"><ele>360.0</ele><time>2026-04-04T13:35:09.516Z</time></trkpt><trkpt lat="43.0112117" lon="13.3824967"><ele>360.0</ele><time>2026-04-04T13:35:10.515Z</time></trkpt><trkpt lat="43.0112883" lon="13.3824217"><ele>360.0</ele><time>2026-04-04T13:35:11.514Z</time></trkpt><trkpt lat="43.01136" lon="13.3823567"><ele>360.0</ele><time>2026-04-04T13:35:12.515Z</time></trkpt><trkpt lat="43.011425" lon="13.38232"><ele>360.0</ele><time>2026-04-04T13:35:13.514Z</time></trkpt><trkpt lat="43.0114933" lon="13.38231"><ele>360.0</ele><time>2026-04-04T13:35:14.515Z</time></trkpt><trkpt lat="43.0115583" lon="13.382335"><ele>360.0</ele><time>2026-04-04T13:35:15.515Z</time></trkpt><trkpt lat="43.0116083" lon="13.3824267"><ele>360.0</ele><time>2026-04-04T13:35:16.515Z</time></trkpt><trkpt lat="43.011645" lon="13.38256"><ele>363.1666666666667</ele><time>2026-04-04T13:35:17.515Z</time></trkpt><trkpt lat="43.0116867" lon="13.3826833"><ele>366.3333333333333</ele><time>2026-04-04T13:35:18.514Z</time></trkpt><trkpt lat="43.0117367" lon="13.38276"><ele>369.5</ele><time>2026-04-04T13:35:19.514Z</time></trkpt><trkpt lat="43.0118033" lon="13.3827933"><ele>372.66666666666663</ele><time>2026-04-04T13:35:20.514Z</time></trkpt><trkpt lat="43.01187" lon="13.3827867"><ele>375.8333333333333</ele><time>2026-04-04T13:35:21.515Z</time></trkpt><trkpt lat="43.0119317" lon="13.3827333"><ele>379.0</ele><time>2026-04-04T13:35:22.515Z</time></trkpt><trkpt lat="43.011995" lon="13.3826533"><ele>379.0</ele><time>2026-04-04T13:35:23.514Z</time></trkpt><trkpt lat="43.012055" lon="13.3825167"><ele>379.0</ele><time>2026-04-04T13:35:24.514Z</time></trkpt><trkpt lat="43.01212" lon="13.3823767"><ele>379.0</ele><time>2026-04-04T13:35:25.515Z</time></trkpt><trkpt lat="43.0121933" lon="13.3822567"><ele>379.0</ele><time>2026-04-04T13:35:26.514Z</time></trkpt><trkpt lat="43.012275" lon="13.3821517"><ele>381.0</ele><time>2026-04-04T13:35:27.514Z</time></trkpt><trkpt lat="43.0123667" lon="13.382075"><ele>383.0</ele><time>2026-04-04T13:35:28.515Z</time></trkpt><trkpt lat="43.0124967" lon="13.3820333"><ele>385.0</ele><time>2026-04-04T13:35:29.514Z</time></trkpt><trkpt lat="43.0126217" lon="13.3819817"><ele>387.0</ele><time>2026-04-04T13:35:30.514Z</time></trkpt><trkpt lat="43.0127467" lon="13.3819083"><ele>387.0</ele><time>2026-04-04T13:35:31.515Z</time></trkpt><trkpt lat="43.0128617" lon="13.3817833"><ele>387.0</ele><time>2026-04-04T13:35:32.515Z</time></trkpt><trkpt lat="43.0129683" lon="13.38164"><ele>387.0</ele><time>2026-04-04T13:35:33.514Z</time></trkpt><trkpt lat="43.013075" lon="13.3815167"><ele>387.0</ele><time>2026-04-04T13:35:34.514Z</time></trkpt><trkpt lat="43.0132067" lon="13.3814167"><ele>390.66666666666663</ele><time>2026-04-04T13:35:35.515Z</time></trkpt><trkpt lat="43.013345" lon="13.3813333"><ele>394.3333333333333</ele><time>2026-04-04T13:35:36.514Z</time></trkpt><trkpt lat="43.0134933" lon="13.3812633"><ele>398.0</ele><time>2026-04-04T13:35:37.515Z</time></trkpt><trkpt lat="43.0136383" lon="13.3812167"><ele>398.0</ele><time>2026-04-04T13:35:38.515Z</time></trkpt><trkpt lat="43.0137617" lon="13.3812"><ele>398.0</ele><time>2026-04-04T13:35:39.514Z</time></trkpt><trkpt lat="43.0138783" lon="13.38119"><ele>398.0</ele><time>2026-04-04T13:35:40.514Z</time></trkpt><trkpt lat="43.0140033" lon="13.38119"><ele>398.0</ele><time>2026-04-04T13:35:41.514Z</time></trkpt><trkpt lat="43.0141317" lon="13.3812033"><ele>403.0</ele><time>2026-04-04T13:35:42.515Z</time></trkpt><trkpt lat="43.01425" lon="13.3812217"><ele>408.0</ele><time>2026-04-04T13:35:43.515Z</time></trkpt><trkpt lat="43.0143767" lon="13.3812167"><ele>413.0</ele><time>2026-04-04T13:35:44.514Z</time></trkpt><trkpt lat="43.0144967" lon="13.381185"><ele>418.0</ele><time>2026-04-04T13:35:45.514Z</time></trkpt><trkpt lat="43.01461" lon="13.38112"><ele>418.0</ele><time>2026-04-04T13:35:46.515Z</time></trkpt><trkpt lat="43.0147383" lon="13.3810583"><ele>418.0</ele><time>2026-04-04T13:35:47.515Z</time></trkpt><trkpt lat="43.0148733" lon="13.3810117"><ele>418.0</ele><time>2026-04-04T13:35:48.514Z</time></trkpt><trkpt lat="43.015015" lon="13.3809767"><ele>418.0</ele><time>2026-04-04T13:35:49.514Z</time></trkpt><trkpt lat="43.0151617" lon="13.38093"><ele>422.25</ele><time>2026-04-04T13:35:50.515Z</time></trkpt><trkpt lat="43.0152883" lon="13.3808933"><ele>426.5</ele><time>2026-04-04T13:35:51.515Z</time></trkpt><trkpt lat="43.0154283" lon="13.38087"><ele>430.75</ele><time>2026-04-04T13:35:52.515Z</time></trkpt><trkpt lat="43.0155467" lon="13.3808433"><ele>435.0</ele><time>2026-04-04T13:35:53.514Z</time></trkpt><trkpt lat="43.0156667" lon="13.38084"><ele>435.0</ele><time>2026-04-04T13:35:54.514Z</time></trkpt><trkpt lat="43.0158017" lon="13.380815"><ele>435.0</ele><time>2026-04-04T13:35:55.515Z</time></trkpt><trkpt lat="43.0159283" lon="13.3808083"><ele>435.0</ele><time>2026-04-04T13:35:56.515Z</time></trkpt><trkpt lat="43.0160467" lon="13.380805"><ele>435.0</ele><time>2026-04-04T13:35:57.514Z</time></trkpt><trkpt lat="43.01614" lon="13.380805"><ele>437.0</ele><time>2026-04-04T13:35:58.515Z</time></trkpt><trkpt lat="43.0162017" lon="13.38083"><ele>439.0</ele><time>2026-04-04T13:35:59.515Z</time></trkpt><trkpt lat="43.0162683" lon="13.3808767"><ele>441.0</ele><time>2026-04-04T13:36:01.515Z</time></trkpt><trkpt lat="43.0161933" lon="13.38099"><ele>443.0</ele><time>2026-04-04T13:36:03.514Z</time></trkpt><trkpt lat="43.0161517" lon="13.381095"><ele>445.0</ele><time>2026-04-04T13:36:04.514Z</time></trkpt><trkpt lat="43.01614" lon="13.3812267"><ele>447.0</ele><time>2026-04-04T13:36:05.515Z</time></trkpt><trkpt lat="43.0161533" lon="13.3813517"><ele>447.0</ele><time>2026-04-04T13:36:06.515Z</time></trkpt><trkpt lat="43.016195" lon="13.3814717"><ele>447.00000000000006</ele><time>2026-04-04T13:36:07.515Z</time></trkpt><trkpt lat="43.0162433" lon="13.3816"><ele>447.00000000000006</ele><time>2026-04-04T13:36:08.514Z</time></trkpt><trkpt lat="43.01626" lon="13.3817333"><ele>447.0</ele><time>2026-04-04T13:36:09.515Z</time></trkpt><trkpt lat="43.0162583" lon="13.3818633"><ele>447.0</ele><time>2026-04-04T13:36:10.514Z</time></trkpt><trkpt lat="43.0162133" lon="13.3819967"><ele>447.0</ele><time>2026-04-04T13:36:11.514Z</time></trkpt><trkpt lat="43.01614" lon="13.382125"><ele>447.0</ele><time>2026-04-04T13:36:12.514Z</time></trkpt><trkpt lat="43.0160317" lon="13.3822633"><ele>447.0</ele><time>2026-04-04T13:36:13.515Z</time></trkpt><trkpt lat="43.0159133" lon="13.382395"><ele>447.0</ele><time>2026-04-04T13:36:14.514Z</time></trkpt><trkpt lat="43.0158017" lon="13.3825333"><ele>442.5</ele><time>2026-04-04T13:36:15.515Z</time></trkpt><trkpt lat="43.01571" lon="13.3826683"><ele>438.0</ele><time>2026-04-04T13:36:16.514Z</time></trkpt><trkpt lat="43.015615" lon="13.3827933"><ele>433.5</ele><time>2026-04-04T13:36:17.514Z</time></trkpt><trkpt lat="43.0155233" lon="13.3829167"><ele>429.0</ele><time>2026-04-04T13:36:18.514Z</time></trkpt><trkpt lat="43.0154367" lon="13.3830467"><ele>427.25</ele><time>2026-04-04T13:36:19.514Z</time></trkpt><trkpt lat="43.015365" lon="13.3832"><ele>425.5</ele><time>2026-04-04T13:36:20.515Z</time></trkpt><trkpt lat="43.0152867" lon="13.383365"><ele>423.75</ele><time>2026-04-04T13:36:21.515Z</time></trkpt><trkpt lat="43.0152333" lon="13.383535"><ele>422.0</ele><time>2026-04-04T13:36:22.514Z</time></trkpt><trkpt lat="43.015175" lon="13.3837167"><ele>422.75</ele><time>2026-04-04T13:36:23.515Z</time></trkpt><trkpt lat="43.0151217" lon="13.3839017"><ele>423.5</ele><time>2026-04-04T13:36:24.514Z</time></trkpt><trkpt lat="43.0150567" lon="13.384085"><ele>424.25</ele><time>2026-04-04T13:36:25.514Z</time></trkpt><trkpt lat="43.0149883" lon="13.3842567"><ele>425.0</ele><time>2026-04-04T13:36:26.515Z</time></trkpt><trkpt lat="43.01494" lon="13.3844367"><ele>417.66666666666663</ele><time>2026-04-04T13:36:27.515Z</time></trkpt><trkpt lat="43.0148817" lon="13.38462"><ele>410.33333333333337</ele><time>2026-04-04T13:36:28.515Z</time></trkpt><trkpt lat="43.0148067" lon="13.3848033"><ele>403.0</ele><time>2026-04-04T13:36:29.515Z</time></trkpt><trkpt lat="43.0147317" lon="13.384985"><ele>403.0</ele><time>2026-04-04T13:36:30.514Z</time></trkpt><trkpt lat="43.0146717" lon="13.3851883"><ele>403.0</ele><time>2026-04-04T13:36:31.515Z</time></trkpt><trkpt lat="43.0146" lon="13.3853633"><ele>403.0</ele><time>2026-04-04T13:36:32.515Z</time></trkpt><trkpt lat="43.014525" lon="13.3855167"><ele>403.0</ele><time>2026-04-04T13:36:33.514Z</time></trkpt><trkpt lat="43.0144633" lon="13.3856817"><ele>403.25</ele><time>2026-04-04T13:36:34.514Z</time></trkpt><trkpt lat="43.0143983" lon="13.3858383"><ele>403.5</ele><time>2026-04-04T13:36:35.515Z</time></trkpt><trkpt lat="43.0143433" lon="13.3859983"><ele>403.75</ele><time>2026-04-04T13:36:36.514Z</time></trkpt><trkpt lat="43.0142967" lon="13.3861817"><ele>404.0</ele><time>2026-04-04T13:36:37.515Z</time></trkpt><trkpt lat="43.0142533" lon="13.3863517"><ele>404.4</ele><time>2026-04-04T13:36:38.514Z</time></trkpt><trkpt lat="43.014215" lon="13.3865033"><ele>404.79999999999995</ele><time>2026-04-04T13:36:39.514Z</time></trkpt><trkpt lat="43.0141967" lon="13.386655"><ele>405.20000000000005</ele><time>2026-04-04T13:36:40.515Z</time></trkpt><trkpt lat="43.014185" lon="13.3867883"><ele>405.6</ele><time>2026-04-04T13:36:41.515Z</time></trkpt><trkpt lat="43.0142083" lon="13.386945"><ele>406.0</ele><time>2026-04-04T13:36:42.515Z</time></trkpt><trkpt lat="43.014255" lon="13.38711"><ele>404.75</ele><time>2026-04-04T13:36:43.514Z</time></trkpt><trkpt lat="43.0143033" lon="13.3872917"><ele>403.5</ele><time>2026-04-04T13:36:44.515Z</time></trkpt><trkpt lat="43.0143467" lon="13.38747"><ele>402.25</ele><time>2026-04-04T13:36:45.515Z</time></trkpt><trkpt lat="43.0143883" lon="13.387625"><ele>401.0</ele><time>2026-04-04T13:36:46.514Z</time></trkpt><trkpt lat="43.0144167" lon="13.3877733"><ele>401.0</ele><time>2026-04-04T13:36:47.515Z</time></trkpt><trkpt lat="43.0144383" lon="13.3879183"><ele>401.0</ele><time>2026-04-04T13:36:48.515Z</time></trkpt><trkpt lat="43.0144533" lon="13.388065"><ele>401.0</ele><time>2026-04-04T13:36:49.514Z</time></trkpt><trkpt lat="43.0144467" lon="13.3882183"><ele>401.0</ele><time>2026-04-04T13:36:50.514Z</time></trkpt><trkpt lat="43.01442" lon="13.3883783"><ele>401.0</ele><time>2026-04-04T13:36:51.514Z</time></trkpt><trkpt lat="43.0143917" lon="13.3885283"><ele>400.0</ele><time>2026-04-04T13:36:52.514Z</time></trkpt><trkpt lat="43.01436" lon="13.3886633"><ele>399.0</ele><time>2026-04-04T13:36:53.514Z</time></trkpt><trkpt lat="43.01433" lon="13.3887983"><ele>398.0</ele><time>2026-04-04T13:36:54.515Z</time></trkpt><trkpt lat="43.014315" lon="13.3889233"><ele>397.0</ele><time>2026-04-04T13:36:55.514Z</time></trkpt><trkpt lat="43.0143133" lon="13.389045"><ele>396.0</ele><time>2026-04-04T13:36:56.515Z</time></trkpt><trkpt lat="43.0143367" lon="13.389155"><ele>394.25</ele><time>2026-04-04T13:36:57.515Z</time></trkpt><trkpt lat="43.0143767" lon="13.3892583"><ele>392.5</ele><time>2026-04-04T13:36:58.515Z</time></trkpt><trkpt lat="43.01445" lon="13.3893567"><ele>390.75</ele><time>2026-04-04T13:36:59.515Z</time></trkpt><trkpt lat="43.0145617" lon="13.38945"><ele>389.0</ele><time>2026-04-04T13:37:00.514Z</time></trkpt><trkpt lat="43.0146867" lon="13.3895317"><ele>389.0</ele><time>2026-04-04T13:37:01.514Z</time></trkpt><trkpt lat="43.014815" lon="13.3896233"><ele>389.0</ele><time>2026-04-04T13:37:02.515Z</time></trkpt><trkpt lat="43.0149133" lon="13.3897317"><ele>389.0</ele><time>2026-04-04T13:37:03.515Z</time></trkpt><trkpt lat="43.015" lon="13.3898617"><ele>389.0</ele><time>2026-04-04T13:37:04.514Z</time></trkpt><trkpt lat="43.015065" lon="13.39001"><ele>387.75</ele><time>2026-04-04T13:37:05.515Z</time></trkpt><trkpt lat="43.01513" lon="13.390155"><ele>386.5</ele><time>2026-04-04T13:37:06.514Z</time></trkpt><trkpt lat="43.0152067" lon="13.390305"><ele>385.25</ele><time>2026-04-04T13:37:07.514Z</time></trkpt><trkpt lat="43.015285" lon="13.3904467"><ele>384.0</ele><time>2026-04-04T13:37:08.514Z</time></trkpt><trkpt lat="43.0153567" lon="13.3905883"><ele>382.6</ele><time>2026-04-04T13:37:09.515Z</time></trkpt><trkpt lat="43.0154267" lon="13.3907133"><ele>381.2</ele><time>2026-04-04T13:37:10.514Z</time></trkpt><trkpt lat="43.01548" lon="13.39084"><ele>379.8</ele><time>2026-04-04T13:37:11.514Z</time></trkpt><trkpt lat="43.0155267" lon="13.3909717"><ele>378.40000000000003</ele><time>2026-04-04T13:37:12.515Z</time></trkpt><trkpt lat="43.0155467" lon="13.3911"><ele>377.0</ele><time>2026-04-04T13:37:13.514Z</time></trkpt><trkpt lat="43.0155583" lon="13.3912267"><ele>376.0</ele><time>2026-04-04T13:37:14.515Z</time></trkpt><trkpt lat="43.0155433" lon="13.391365"><ele>375.0</ele><time>2026-04-04T13:37:15.515Z</time></trkpt><trkpt lat="43.0155033" lon="13.3914917"><ele>374.0</ele><time>2026-04-04T13:37:16.514Z</time></trkpt><trkpt lat="43.01543" lon="13.3915933"><ele>373.0</ele><time>2026-04-04T13:37:17.514Z</time></trkpt><trkpt lat="43.0153483" lon="13.3916683"><ele>372.0</ele><time>2026-04-04T13:37:18.514Z</time></trkpt><trkpt lat="43.01524" lon="13.3916967"><ele>372.0</ele><time>2026-04-04T13:37:19.515Z</time></trkpt><trkpt lat="43.015125" lon="13.3916933"><ele>372.0</ele><time>2026-04-04T13:37:20.514Z</time></trkpt><trkpt lat="43.0149917" lon="13.3916333"><ele>372.0</ele><time>2026-04-04T13:37:21.515Z</time></trkpt><trkpt lat="43.014855" lon="13.391575"><ele>372.0</ele><time>2026-04-04T13:37:22.514Z</time></trkpt><trkpt lat="43.014725" lon="13.3915183"><ele>370.6</ele><time>2026-04-04T13:37:23.515Z</time></trkpt><trkpt lat="43.01461" lon="13.39145"><ele>369.20000000000005</ele><time>2026-04-04T13:37:24.514Z</time></trkpt><trkpt lat="43.0144917" lon="13.3914017"><ele>367.8</ele><time>2026-04-04T13:37:25.514Z</time></trkpt><trkpt lat="43.0143917" lon="13.39138"><ele>366.4</ele><time>2026-04-04T13:37:26.515Z</time></trkpt><trkpt lat="43.0143067" lon="13.3914017"><ele>365.0</ele><time>2026-04-04T13:37:27.514Z</time></trkpt><trkpt lat="43.01423" lon="13.3914667"><ele>365.0</ele><time>2026-04-04T13:37:28.514Z</time></trkpt><trkpt lat="43.0141567" lon="13.3915733"><ele>365.0</ele><time>2026-04-04T13:37:29.514Z</time></trkpt><trkpt lat="43.0140783" lon="13.39171"><ele>365.0</ele><time>2026-04-04T13:37:30.514Z</time></trkpt><trkpt lat="43.0139983" lon="13.3918817"><ele>365.0</ele><time>2026-04-04T13:37:31.515Z</time></trkpt><trkpt lat="43.0138917" lon="13.3920433"><ele>364.33333333333337</ele><time>2026-04-04T13:37:32.515Z</time></trkpt><trkpt lat="43.0137617" lon="13.39219"><ele>363.6666666666667</ele><time>2026-04-04T13:37:33.514Z</time></trkpt><trkpt lat="43.0136083" lon="13.3923283"><ele>363.0</ele><time>2026-04-04T13:37:34.514Z</time></trkpt><trkpt lat="43.013455" lon="13.3924683"><ele>362.0</ele><time>2026-04-04T13:37:35.515Z</time></trkpt><trkpt lat="43.0132867" lon="13.3926217"><ele>361.0</ele><time>2026-04-04T13:37:36.515Z</time></trkpt><trkpt lat="43.0131217" lon="13.3927883"><ele>360.0</ele><time>2026-04-04T13:37:37.514Z</time></trkpt><trkpt lat="43.0129567" lon="13.39296"><ele>359.6666666666667</ele><time>2026-04-04T13:37:38.514Z</time></trkpt><trkpt lat="43.0127917" lon="13.39312"><ele>359.33333333333337</ele><time>2026-04-04T13:37:39.515Z</time></trkpt><trkpt lat="43.0126067" lon="13.3932567"><ele>359.0</ele><time>2026-04-04T13:37:40.514Z</time></trkpt><trkpt lat="43.0124417" lon="13.393375"><ele>354.6666666666667</ele><time>2026-04-04T13:37:41.514Z</time></trkpt><trkpt lat="43.0122867" lon="13.3934633"><ele>350.3333333333333</ele><time>2026-04-04T13:37:42.515Z</time></trkpt><trkpt lat="43.0121433" lon="13.3935567"><ele>346.0</ele><time>2026-04-04T13:37:43.514Z</time></trkpt><trkpt lat="43.0120117" lon="13.3936483"><ele>346.0</ele><time>2026-04-04T13:37:44.515Z</time></trkpt><trkpt lat="43.011905" lon="13.3937383"><ele>346.0</ele><time>2026-04-04T13:37:45.515Z</time></trkpt><trkpt lat="43.0118167" lon="13.39384"><ele>346.0</ele><time>2026-04-04T13:37:46.515Z</time></trkpt><trkpt lat="43.01175" lon="13.3939567"><ele>346.0</ele><time>2026-04-04T13:37:47.514Z</time></trkpt><trkpt lat="43.01169" lon="13.3941"><ele>346.0</ele><time>2026-04-04T13:37:48.514Z</time></trkpt><trkpt lat="43.0116333" lon="13.3942617"><ele>346.0</ele><time>2026-04-04T13:37:49.514Z</time></trkpt><trkpt lat="43.0115867" lon="13.3944383"><ele>346.0</ele><time>2026-04-04T13:37:50.514Z</time></trkpt><trkpt lat="43.0115483" lon="13.3945967"><ele>346.0</ele><time>2026-04-04T13:37:51.515Z</time></trkpt><trkpt lat="43.0115083" lon="13.3947317"><ele>346.0</ele><time>2026-04-04T13:37:52.514Z</time></trkpt><trkpt lat="43.011485" lon="13.394835"><ele>346.0</ele><time>2026-04-04T13:37:53.515Z</time></trkpt><trkpt lat="43.011465" lon="13.3949233"><ele>346.0</ele><time>2026-04-04T13:37:54.515Z</time></trkpt><trkpt lat="43.0114533" lon="13.39505"><ele>346.0</ele><time>2026-04-04T13:37:56.514Z</time></trkpt><trkpt lat="43.011455" lon="13.39514"><ele>346.0</ele><time>2026-04-04T13:37:58.514Z</time></trkpt><trkpt lat="43.011465" lon="13.39524"><ele>346.0</ele><time>2026-04-04T13:38:00.514Z</time></trkpt><trkpt lat="43.0114833" lon="13.3954133"><ele>346.66666666666663</ele><time>2026-04-04T13:38:02.515Z</time></trkpt><trkpt lat="43.0114817" lon="13.39551"><ele>347.3333333333333</ele><time>2026-04-04T13:38:03.514Z</time></trkpt><trkpt lat="43.0114817" lon="13.3956117"><ele>348.0</ele><time>2026-04-04T13:38:04.514Z</time></trkpt><trkpt lat="43.0114733" lon="13.39571"><ele>348.6666666666667</ele><time>2026-04-04T13:38:05.515Z</time></trkpt><trkpt lat="43.0114367" lon="13.3958583"><ele>349.33333333333337</ele><time>2026-04-04T13:38:07.515Z</time></trkpt><trkpt lat="43.0113683" lon="13.3959883"><ele>350.0</ele><time>2026-04-04T13:38:09.515Z</time></trkpt><trkpt lat="43.0113283" lon="13.39606"><ele>350.0</ele><time>2026-04-04T13:38:10.515Z</time></trkpt><trkpt lat="43.0112967" lon="13.39616"><ele>350.0</ele><time>2026-04-04T13:38:11.514Z</time></trkpt><trkpt lat="43.01127" lon="13.3962867"><ele>350.0</ele><time>2026-04-04T13:38:12.514Z</time></trkpt><trkpt lat="43.01124" lon="13.3964083"><ele>350.0</ele><time>2026-04-04T13:38:13.514Z</time></trkpt><trkpt lat="43.01121" lon="13.3965583"><ele>350.0</ele><time>2026-04-04T13:38:14.515Z</time></trkpt><trkpt lat="43.0111817" lon="13.3967233"><ele>350.75</ele><time>2026-04-04T13:38:15.515Z</time></trkpt><trkpt lat="43.01115" lon="13.3968933"><ele>351.5</ele><time>2026-04-04T13:38:16.514Z</time></trkpt><trkpt lat="43.011115" lon="13.39707"><ele>352.25</ele><time>2026-04-04T13:38:17.514Z</time></trkpt><trkpt lat="43.0110967" lon="13.39726"><ele>353.0</ele><time>2026-04-04T13:38:18.514Z</time></trkpt><trkpt lat="43.011095" lon="13.397445"><ele>353.0</ele><time>2026-04-04T13:38:19.514Z</time></trkpt><trkpt lat="43.011105" lon="13.3976383"><ele>353.0</ele><time>2026-04-04T13:38:20.515Z</time></trkpt><trkpt lat="43.011105" lon="13.3978367"><ele>353.0</ele><time>2026-04-04T13:38:21.515Z</time></trkpt><trkpt lat="43.0111117" lon="13.398045"><ele>353.0</ele><time>2026-04-04T13:38:22.514Z</time></trkpt><trkpt lat="43.0111267" lon="13.3982483"><ele>351.5</ele><time>2026-04-04T13:38:23.514Z</time></trkpt><trkpt lat="43.0111367" lon="13.3984533"><ele>350.0</ele><time>2026-04-04T13:38:24.515Z</time></trkpt><trkpt lat="43.0111483" lon="13.3986367"><ele>348.5</ele><time>2026-04-04T13:38:25.515Z</time></trkpt><trkpt lat="43.01117" lon="13.39884"><ele>347.0</ele><time>2026-04-04T13:38:26.514Z</time></trkpt><trkpt lat="43.0112" lon="13.3990533"><ele>344.6666666666667</ele><time>2026-04-04T13:38:27.514Z</time></trkpt><trkpt lat="43.0112517" lon="13.3992733"><ele>342.3333333333333</ele><time>2026-04-04T13:38:28.514Z</time></trkpt><trkpt lat="43.011315" lon="13.39949"><ele>340.0</ele><time>2026-04-04T13:38:29.515Z</time></trkpt><trkpt lat="43.0113917" lon="13.3997183"><ele>338.0</ele><time>2026-04-04T13:38:30.514Z</time></trkpt><trkpt lat="43.0114733" lon="13.3999583"><ele>336.0</ele><time>2026-04-04T13:38:31.515Z</time></trkpt><trkpt lat="43.0115317" lon="13.4001933"><ele>334.0</ele><time>2026-04-04T13:38:32.515Z</time></trkpt><trkpt lat="43.0115917" lon="13.4004133"><ele>334.0</ele><time>2026-04-04T13:38:33.514Z</time></trkpt><trkpt lat="43.011655" lon="13.4006317"><ele>334.0</ele><time>2026-04-04T13:38:34.514Z</time></trkpt><trkpt lat="43.0117133" lon="13.40087"><ele>334.0</ele><time>2026-04-04T13:38:35.515Z</time></trkpt><trkpt lat="43.011745" lon="13.401085"><ele>338.0</ele><time>2026-04-04T13:38:36.515Z</time></trkpt><trkpt lat="43.0117417" lon="13.4012967"><ele>342.0</ele><time>2026-04-04T13:38:37.514Z</time></trkpt><trkpt lat="43.0117067" lon="13.4014983"><ele>346.0</ele><time>2026-04-04T13:38:38.514Z</time></trkpt><trkpt lat="43.01167" lon="13.4017083"><ele>345.0</ele><time>2026-04-04T13:38:39.514Z</time></trkpt><trkpt lat="43.011615" lon="13.4018717"><ele>344.0</ele><time>2026-04-04T13:38:40.515Z</time></trkpt><trkpt lat="43.0115767" lon="13.4020417"><ele>343.0</ele><time>2026-04-04T13:38:41.515Z</time></trkpt><trkpt lat="43.0115367" lon="13.4021867"><ele>342.0</ele><time>2026-04-04T13:38:42.515Z</time></trkpt><trkpt lat="43.01151" lon="13.4023133"><ele>342.0</ele><time>2026-04-04T13:38:43.514Z</time></trkpt><trkpt lat="43.0114917" lon="13.402415"><ele>342.0</ele><time>2026-04-04T13:38:44.515Z</time></trkpt><trkpt lat="43.0114633" lon="13.4025217"><ele>342.0</ele><time>2026-04-04T13:38:46.515Z</time></trkpt><trkpt lat="43.0115267" lon="13.4025683"><ele>342.0</ele><time>2026-04-04T13:38:49.514Z</time></trkpt><trkpt lat="43.011595" lon="13.40253"><ele>342.0</ele><time>2026-04-04T13:38:51.514Z</time></trkpt><trkpt lat="43.011665" lon="13.40244"><ele>342.0</ele><time>2026-04-04T13:38:53.514Z</time></trkpt><trkpt lat="43.01173" lon="13.4023367"><ele>343.0</ele><time>2026-04-04T13:38:55.515Z</time></trkpt><trkpt lat="43.0117933" lon="13.4022483"><ele>344.0</ele><time>2026-04-04T13:38:57.515Z</time></trkpt><trkpt lat="43.0118583" lon="13.402175"><ele>345.0</ele><time>2026-04-04T13:38:59.515Z</time></trkpt><trkpt lat="43.0119533" lon="13.4021167"><ele>346.0</ele><time>2026-04-04T13:39:01.515Z</time></trkpt><trkpt lat="43.01202" lon="13.4021067"><ele>347.0</ele><time>2026-04-04T13:39:02.514Z</time></trkpt><trkpt lat="43.0120917" lon="13.4021033"><ele>348.0</ele><time>2026-04-04T13:39:03.514Z</time></trkpt><trkpt lat="43.0121667" lon="13.4021167"><ele>348.0</ele><time>2026-04-04T13:39:04.514Z</time></trkpt><trkpt lat="43.0122317" lon="13.4021467"><ele>348.0</ele><time>2026-04-04T13:39:05.514Z</time></trkpt><trkpt lat="43.0122917" lon="13.402185"><ele>348.0</ele><time>2026-04-04T13:39:06.514Z</time></trkpt><trkpt lat="43.0123467" lon="13.4022583"><ele>348.0</ele><time>2026-04-04T13:39:07.515Z</time></trkpt><trkpt lat="43.0123967" lon="13.4023517"><ele>348.0</ele><time>2026-04-04T13:39:08.515Z</time></trkpt><trkpt lat="43.0124433" lon="13.4024667"><ele>348.0</ele><time>2026-04-04T13:39:09.514Z</time></trkpt><trkpt lat="43.0124667" lon="13.4025817"><ele>348.6666666666667</ele><time>2026-04-04T13:39:10.514Z</time></trkpt><trkpt lat="43.012475" lon="13.4026983"><ele>349.3333333333333</ele><time>2026-04-04T13:39:11.514Z</time></trkpt><trkpt lat="43.012475" lon="13.4027983"><ele>350.0</ele><time>2026-04-04T13:39:12.514Z</time></trkpt><trkpt lat="43.012455" lon="13.4029317"><ele>350.66666666666663</ele><time>2026-04-04T13:39:14.515Z</time></trkpt><trkpt lat="43.012445" lon="13.40303"><ele>351.3333333333333</ele><time>2026-04-04T13:39:25.515Z</time></trkpt><trkpt lat="43.01243" lon="13.40315"><ele>352.0</ele><time>2026-04-04T13:39:27.514Z</time></trkpt><trkpt lat="43.01243" lon="13.4032867"><ele>352.0</ele><time>2026-04-04T13:39:29.515Z</time></trkpt><trkpt lat="43.01242" lon="13.403405"><ele>352.0</ele><time>2026-04-04T13:39:31.515Z</time></trkpt><trkpt lat="43.01241" lon="13.4035117"><ele>352.0</ele><time>2026-04-04T13:39:34.514Z</time></trkpt><trkpt lat="43.012395" lon="13.4036217"><ele>352.0</ele><time>2026-04-04T13:39:37.515Z</time></trkpt><trkpt lat="43.0124" lon="13.4037433"><ele>352.0</ele><time>2026-04-04T13:39:39.514Z</time></trkpt><trkpt lat="43.0123967" lon="13.4038367"><ele>352.0</ele><time>2026-04-04T13:39:40.515Z</time></trkpt><trkpt lat="43.012385" lon="13.4039533"><ele>352.6</ele><time>2026-04-04T13:39:41.514Z</time></trkpt><trkpt lat="43.0123917" lon="13.4040917"><ele>353.20000000000005</ele><time>2026-04-04T13:39:42.514Z</time></trkpt><trkpt lat="43.0123833" lon="13.404235"><ele>353.8</ele><time>2026-04-04T13:39:43.513Z</time></trkpt><trkpt lat="43.01237" lon="13.404375"><ele>354.4</ele><time>2026-04-04T13:39:44.513Z</time></trkpt><trkpt lat="43.0123517" lon="13.40452"><ele>355.0</ele><time>2026-04-04T13:39:45.513Z</time></trkpt><trkpt lat="43.01234" lon="13.40466"><ele>355.0</ele><time>2026-04-04T13:39:46.513Z</time></trkpt><trkpt lat="43.0123317" lon="13.4048083"><ele>355.0</ele><time>2026-04-04T13:39:47.514Z</time></trkpt><trkpt lat="43.012325" lon="13.4049517"><ele>355.0</ele><time>2026-04-04T13:39:48.514Z</time></trkpt><trkpt lat="43.012315" lon="13.405105"><ele>355.0</ele><time>2026-04-04T13:39:49.513Z</time></trkpt><trkpt lat="43.0123117" lon="13.4052517"><ele>355.0</ele><time>2026-04-04T13:39:50.513Z</time></trkpt><trkpt lat="43.0123083" lon="13.405395"><ele>354.6</ele><time>2026-04-04T13:39:51.513Z</time></trkpt><trkpt lat="43.0123" lon="13.4055517"><ele>354.2</ele><time>2026-04-04T13:39:52.513Z</time></trkpt><trkpt lat="43.0122833" lon="13.405705"><ele>353.79999999999995</ele><time>2026-04-04T13:39:53.514Z</time></trkpt><trkpt lat="43.01228" lon="13.40585"><ele>353.4</ele><time>2026-04-04T13:39:54.513Z</time></trkpt><trkpt lat="43.0122767" lon="13.40599"><ele>353.0</ele><time>2026-04-04T13:39:55.513Z</time></trkpt><trkpt lat="43.0122633" lon="13.4061333"><ele>353.0</ele><time>2026-04-04T13:39:56.514Z</time></trkpt><trkpt lat="43.01225" lon="13.4062783"><ele>353.0</ele><time>2026-04-04T13:39:57.513Z</time></trkpt><trkpt lat="43.012245" lon="13.4064167"><ele>353.0</ele><time>2026-04-04T13:39:58.513Z</time></trkpt><trkpt lat="43.0122483" lon="13.4065667"><ele>353.0</ele><time>2026-04-04T13:39:59.513Z</time></trkpt><trkpt lat="43.0122567" lon="13.4067"><ele>353.0</ele><time>2026-04-04T13:40:00.513Z</time></trkpt><trkpt lat="43.0122717" lon="13.4068133"><ele>353.2</ele><time>2026-04-04T13:40:01.513Z</time></trkpt><trkpt lat="43.0122983" lon="13.406925"><ele>353.4</ele><time>2026-04-04T13:40:02.514Z</time></trkpt><trkpt lat="43.012295" lon="13.4070683"><ele>353.59999999999997</ele><time>2026-04-04T13:40:04.513Z</time></trkpt><trkpt lat="43.0122883" lon="13.4072183"><ele>353.79999999999995</ele><time>2026-04-04T13:40:06.514Z</time></trkpt><trkpt lat="43.01228" lon="13.4073217"><ele>354.0</ele><time>2026-04-04T13:40:07.513Z</time></trkpt><trkpt lat="43.0122783" lon="13.4074233"><ele>354.0</ele><time>2026-04-04T13:40:08.514Z</time></trkpt><trkpt lat="43.01231" lon="13.4075817"><ele>354.0</ele><time>2026-04-04T13:40:10.513Z</time></trkpt><trkpt lat="43.0123633" lon="13.4077083"><ele>354.0</ele><time>2026-04-04T13:40:12.514Z</time></trkpt><trkpt lat="43.0124567" lon="13.40777"><ele>354.0</ele><time>2026-04-04T13:40:14.514Z</time></trkpt><trkpt lat="43.01252" lon="13.4077967"><ele>354.0</ele><time>2026-04-04T13:40:15.513Z</time></trkpt><trkpt lat="43.0125883" lon="13.4078233"><ele>356.6666666666667</ele><time>2026-04-04T13:40:16.514Z</time></trkpt><trkpt lat="43.0126567" lon="13.4078483"><ele>359.3333333333333</ele><time>2026-04-04T13:40:17.513Z</time></trkpt><trkpt lat="43.0127617" lon="13.40787"><ele>362.0</ele><time>2026-04-04T13:40:19.513Z</time></trkpt><trkpt lat="43.012855" lon="13.4078733"><ele>364.66666666666663</ele><time>2026-04-04T13:40:21.513Z</time></trkpt><trkpt lat="43.0129283" lon="13.4078833"><ele>367.3333333333333</ele><time>2026-04-04T13:40:23.513Z</time></trkpt><trkpt lat="43.0129917" lon="13.40794"><ele>370.0</ele><time>2026-04-04T13:40:25.514Z</time></trkpt><trkpt lat="43.013055" lon="13.4079783"><ele>370.0</ele><time>2026-04-04T13:40:28.514Z</time></trkpt><trkpt lat="43.013115" lon="13.4079133"><ele>370.0</ele><time>2026-04-04T13:40:32.513Z</time></trkpt><trkpt lat="43.0131683" lon="13.4078183"><ele>370.0</ele><time>2026-04-04T13:40:34.514Z</time></trkpt><trkpt lat="43.0132067" lon="13.4076933"><ele>370.0</ele><time>2026-04-04T13:40:36.513Z</time></trkpt><trkpt lat="43.0132533" lon="13.4075667"><ele>370.0</ele><time>2026-04-04T13:40:38.513Z</time></trkpt><trkpt lat="43.0133033" lon="13.4074217"><ele>371.6</ele><time>2026-04-04T13:40:40.513Z</time></trkpt><trkpt lat="43.0133367" lon="13.4072867"><ele>373.2</ele><time>2026-04-04T13:40:42.513Z</time></trkpt><trkpt lat="43.01336" lon="13.407145"><ele>374.79999999999995</ele><time>2026-04-04T13:40:44.513Z</time></trkpt><trkpt lat="43.0133883" lon="13.4070217"><ele>376.4</ele><time>2026-04-04T13:40:46.513Z</time></trkpt><trkpt lat="43.0134717" lon="13.40692"><ele>378.0</ele><time>2026-04-04T13:40:48.514Z</time></trkpt><trkpt lat="43.0135267" lon="13.4068617"><ele>380.0</ele><time>2026-04-04T13:40:49.513Z</time></trkpt><trkpt lat="43.013585" lon="13.4067967"><ele>382.0</ele><time>2026-04-04T13:40:50.513Z</time></trkpt><trkpt lat="43.013645" lon="13.406725"><ele>384.0</ele><time>2026-04-04T13:40:51.513Z</time></trkpt><trkpt lat="43.013705" lon="13.406655"><ele>386.0</ele><time>2026-04-04T13:40:52.514Z</time></trkpt><trkpt lat="43.0137617" lon="13.4065883"><ele>388.0</ele><time>2026-04-04T13:40:53.513Z</time></trkpt><trkpt lat="43.013845" lon="13.4064933"><ele>390.0</ele><time>2026-04-04T13:40:55.514Z</time></trkpt><trkpt lat="43.0138717" lon="13.4064"><ele>392.6</ele><time>2026-04-04T13:40:57.514Z</time></trkpt><trkpt lat="43.0139167" lon="13.4063"><ele>395.2</ele><time>2026-04-04T13:40:59.513Z</time></trkpt><trkpt lat="43.0139833" lon="13.4061983"><ele>397.79999999999995</ele><time>2026-04-04T13:41:01.513Z</time></trkpt><trkpt lat="43.01407" lon="13.4060833"><ele>400.4</ele><time>2026-04-04T13:41:03.514Z</time></trkpt><trkpt lat="43.0141233" lon="13.40602"><ele>403.0</ele><time>2026-04-04T13:41:04.514Z</time></trkpt><trkpt lat="43.01418" lon="13.4059533"><ele>403.1666666666667</ele><time>2026-04-04T13:41:05.513Z</time></trkpt><trkpt lat="43.0142317" lon="13.4058817"><ele>403.33333333333337</ele><time>2026-04-04T13:41:06.513Z</time></trkpt><trkpt lat="43.01428" lon="13.405795"><ele>403.5</ele><time>2026-04-04T13:41:07.514Z</time></trkpt><trkpt lat="43.0143283" lon="13.4056983"><ele>403.66666666666663</ele><time>2026-04-04T13:41:08.514Z</time></trkpt><trkpt lat="43.01438" lon="13.4056067"><ele>403.8333333333333</ele><time>2026-04-04T13:41:09.513Z</time></trkpt><trkpt lat="43.0144283" lon="13.4055383"><ele>404.0</ele><time>2026-04-04T13:41:10.514Z</time></trkpt><trkpt lat="43.0144867" lon="13.405485"><ele>404.42857142857144</ele><time>2026-04-04T13:41:11.513Z</time></trkpt><trkpt lat="43.0145517" lon="13.405455"><ele>404.85714285714283</ele><time>2026-04-04T13:41:12.513Z</time></trkpt><trkpt lat="43.0146133" lon="13.4054367"><ele>405.28571428571433</ele><time>2026-04-04T13:41:13.513Z</time></trkpt><trkpt lat="43.014675" lon="13.405415"><ele>405.7142857142857</ele><time>2026-04-04T13:41:14.513Z</time></trkpt><trkpt lat="43.014735" lon="13.4053867"><ele>406.14285714285717</ele><time>2026-04-04T13:41:15.513Z</time></trkpt><trkpt lat="43.014845" lon="13.4053817"><ele>406.5714285714286</ele><time>2026-04-04T13:41:17.513Z</time></trkpt><trkpt lat="43.0149167" lon="13.4053833"><ele>407.0</ele><time>2026-04-04T13:41:19.513Z</time></trkpt><trkpt lat="43.01501" lon="13.4053917"><ele>408.16666666666663</ele><time>2026-04-04T13:41:22.513Z</time></trkpt><trkpt lat="43.0151067" lon="13.4053467"><ele>409.3333333333333</ele><time>2026-04-04T13:41:24.513Z</time></trkpt><trkpt lat="43.015165" lon="13.4052967"><ele>410.5</ele><time>2026-04-04T13:41:25.514Z</time></trkpt><trkpt lat="43.01522" lon="13.40521"><ele>411.66666666666663</ele><time>2026-04-04T13:41:26.514Z</time></trkpt><trkpt lat="43.0152683" lon="13.40512"><ele>412.8333333333333</ele><time>2026-04-04T13:41:27.513Z</time></trkpt><trkpt lat="43.0153083" lon="13.40501"><ele>414.0</ele><time>2026-04-04T13:41:28.513Z</time></trkpt><trkpt lat="43.01535" lon="13.404885"><ele>414.0</ele><time>2026-04-04T13:41:29.513Z</time></trkpt><trkpt lat="43.015405" lon="13.4047683"><ele>414.0</ele><time>2026-04-04T13:41:30.514Z</time></trkpt><trkpt lat="43.015465" lon="13.40466"><ele>414.0</ele><time>2026-04-04T13:41:31.513Z</time></trkpt><trkpt lat="43.0155367" lon="13.404555"><ele>414.0</ele><time>2026-04-04T13:41:32.513Z</time></trkpt><trkpt lat="43.0156067" lon="13.4044583"><ele>414.0</ele><time>2026-04-04T13:41:33.513Z</time></trkpt><trkpt lat="43.01567" lon="13.4043783"><ele>414.5</ele><time>2026-04-04T13:41:34.514Z</time></trkpt><trkpt lat="43.01573" lon="13.4043"><ele>415.0</ele><time>2026-04-04T13:41:35.513Z</time></trkpt><trkpt lat="43.0157817" lon="13.404215"><ele>415.5</ele><time>2026-04-04T13:41:36.513Z</time></trkpt><trkpt lat="43.01582" lon="13.40413"><ele>416.0</ele><time>2026-04-04T13:41:37.514Z</time></trkpt><trkpt lat="43.0158567" lon="13.4040483"><ele>416.5</ele><time>2026-04-04T13:41:38.513Z</time></trkpt><trkpt lat="43.0159183" lon="13.4039267"><ele>417.0</ele><time>2026-04-04T13:41:40.513Z</time></trkpt><trkpt lat="43.0159817" lon="13.403845"><ele>418.40000000000003</ele><time>2026-04-04T13:41:42.514Z</time></trkpt><trkpt lat="43.0160733" lon="13.4038317"><ele>419.8</ele><time>2026-04-04T13:41:44.513Z</time></trkpt><trkpt lat="43.0162033" lon="13.4038967"><ele>421.2</ele><time>2026-04-04T13:41:46.514Z</time></trkpt><trkpt lat="43.0162833" lon="13.4039467"><ele>422.6</ele><time>2026-04-04T13:41:47.514Z</time></trkpt><trkpt lat="43.016375" lon="13.4039783"><ele>424.0</ele><time>2026-04-04T13:41:48.514Z</time></trkpt><trkpt lat="43.0164717" lon="13.403995"><ele>424.0</ele><time>2026-04-04T13:41:49.514Z</time></trkpt><trkpt lat="43.0165667" lon="13.404015"><ele>424.0</ele><time>2026-04-04T13:41:50.514Z</time></trkpt><trkpt lat="43.016665" lon="13.4040483"><ele>424.0</ele><time>2026-04-04T13:41:51.514Z</time></trkpt><trkpt lat="43.01676" lon="13.4040967"><ele>424.0</ele><time>2026-04-04T13:41:52.514Z</time></trkpt><trkpt lat="43.0168567" lon="13.4041633"><ele>424.0</ele><time>2026-04-04T13:41:53.514Z</time></trkpt><trkpt lat="43.0169333" lon="13.4042617"><ele>425.4</ele><time>2026-04-04T13:41:54.513Z</time></trkpt><trkpt lat="43.0170067" lon="13.4043767"><ele>426.79999999999995</ele><time>2026-04-04T13:41:55.514Z</time></trkpt><trkpt lat="43.0170683" lon="13.4044967"><ele>428.20000000000005</ele><time>2026-04-04T13:41:56.513Z</time></trkpt><trkpt lat="43.0171167" lon="13.4046183"><ele>429.6</ele><time>2026-04-04T13:41:57.513Z</time></trkpt><trkpt lat="43.0171533" lon="13.4047417"><ele>431.0</ele><time>2026-04-04T13:41:58.513Z</time></trkpt><trkpt lat="43.0171767" lon="13.4048717"><ele>430.99999999999994</ele><time>2026-04-04T13:41:59.514Z</time></trkpt><trkpt lat="43.0172017" lon="13.4049983"><ele>431.0</ele><time>2026-04-04T13:42:00.513Z</time></trkpt><trkpt lat="43.0172233" lon="13.4051117"><ele>431.0</ele><time>2026-04-04T13:42:01.513Z</time></trkpt><trkpt lat="43.017235" lon="13.4052217"><ele>431.0</ele><time>2026-04-04T13:42:02.514Z</time></trkpt><trkpt lat="43.017255" lon="13.405335"><ele>430.99999999999994</ele><time>2026-04-04T13:42:04.513Z</time></trkpt><trkpt lat="43.0173133" lon="13.40523"><ele>431.0</ele><time>2026-04-04T13:42:07.514Z</time></trkpt><trkpt lat="43.01733" lon="13.40514"><ele>430.99999999999994</ele><time>2026-04-04T13:42:08.513Z</time></trkpt><trkpt lat="43.0173467" lon="13.40504"><ele>431.0</ele><time>2026-04-04T13:42:09.513Z</time></trkpt><trkpt lat="43.0173783" lon="13.4049283"><ele>431.0</ele><time>2026-04-04T13:42:10.514Z</time></trkpt><trkpt lat="43.0174167" lon="13.4048267"><ele>431.0</ele><time>2026-04-04T13:42:11.514Z</time></trkpt><trkpt lat="43.0174533" lon="13.4047217"><ele>430.99999999999994</ele><time>2026-04-04T13:42:12.514Z</time></trkpt><trkpt lat="43.0174933" lon="13.4046217"><ele>431.0</ele><time>2026-04-04T13:42:13.514Z</time></trkpt><trkpt lat="43.0175283" lon="13.4045133"><ele>434.99999999999994</ele><time>2026-04-04T13:42:14.514Z</time></trkpt><trkpt lat="43.0175533" lon="13.4044167"><ele>439.0</ele><time>2026-04-04T13:42:15.513Z</time></trkpt><trkpt lat="43.017565" lon="13.4043167"><ele>443.0</ele><time>2026-04-04T13:42:16.514Z</time></trkpt><trkpt lat="43.0175717" lon="13.4042067"><ele>447.0</ele><time>2026-04-04T13:42:18.514Z</time></trkpt><trkpt lat="43.017535" lon="13.4043533"><ele>450.99999999999994</ele><time>2026-04-04T13:59:51.511Z</time></trkpt><trkpt lat="43.0175267" lon="13.4044833"><ele>455.0</ele><time>2026-04-04T14:04:32.51Z</time></trkpt><trkpt lat="43.0175317" lon="13.4046183"><ele>450.99999999999994</ele><time>2026-04-04T14:08:07.509Z</time></trkpt><trkpt lat="43.0174767" lon="13.4046817"><ele>447.0</ele><time>2026-04-04T14:12:19.509Z</time></trkpt><trkpt lat="43.01742" lon="13.4047533"><ele>443.0</ele><time>2026-04-04T14:12:34.508Z</time></trkpt><trkpt lat="43.0173833" lon="13.404825"><ele>439.0</ele><time>2026-04-04T14:12:36.509Z</time></trkpt><trkpt lat="43.01733" lon="13.40497"><ele>434.99999999999994</ele><time>2026-04-04T14:12:38.509Z</time></trkpt><trkpt lat="43.0173033" lon="13.40506"><ele>431.0</ele><time>2026-04-04T14:12:39.508Z</time></trkpt><trkpt lat="43.0172817" lon="13.40515"><ele>431.0</ele><time>2026-04-04T14:12:40.509Z</time></trkpt><trkpt lat="43.0172667" lon="13.405295"><ele>431.0</ele><time>2026-04-04T14:12:42.509Z</time></trkpt><trkpt lat="43.0172733" lon="13.40545"><ele>431.0</ele><time>2026-04-04T14:12:44.508Z</time></trkpt><trkpt lat="43.01729" lon="13.405595"><ele>431.0</ele><time>2026-04-04T14:12:46.509Z</time></trkpt><trkpt lat="43.0172133" lon="13.405685"><ele>431.0</ele><time>2026-04-04T14:12:49.509Z</time></trkpt><trkpt lat="43.01709" lon="13.405745"><ele>432.6</ele><time>2026-04-04T14:12:51.508Z</time></trkpt><trkpt lat="43.017005" lon="13.4057867"><ele>434.20000000000005</ele><time>2026-04-04T14:12:52.508Z</time></trkpt><trkpt lat="43.0169083" lon="13.4058233"><ele>435.79999999999995</ele><time>2026-04-04T14:12:53.509Z</time></trkpt><trkpt lat="43.01682" lon="13.40589"><ele>437.4</ele><time>2026-04-04T14:12:54.509Z</time></trkpt><trkpt lat="43.0167283" lon="13.4059417"><ele>439.0</ele><time>2026-04-04T14:12:55.509Z</time></trkpt><trkpt lat="43.0166517" lon="13.4059933"><ele>435.1666666666667</ele><time>2026-04-04T14:12:56.509Z</time></trkpt><trkpt lat="43.0165733" lon="13.406045"><ele>431.33333333333337</ele><time>2026-04-04T14:12:57.508Z</time></trkpt><trkpt lat="43.0165017" lon="13.4060783"><ele>427.5</ele><time>2026-04-04T14:12:58.508Z</time></trkpt><trkpt lat="43.0164267" lon="13.4061017"><ele>423.66666666666663</ele><time>2026-04-04T14:12:59.509Z</time></trkpt><trkpt lat="43.01636" lon="13.4061333"><ele>419.8333333333333</ele><time>2026-04-04T14:13:00.508Z</time></trkpt><trkpt lat="43.0162533" lon="13.4062317"><ele>416.0</ele><time>2026-04-04T14:13:02.509Z</time></trkpt><trkpt lat="43.0162017" lon="13.4063133"><ele>417.20000000000005</ele><time>2026-04-04T14:13:03.508Z</time></trkpt><trkpt lat="43.016165" lon="13.4064017"><ele>418.40000000000003</ele><time>2026-04-04T14:13:04.509Z</time></trkpt><trkpt lat="43.0161267" lon="13.4065117"><ele>419.6</ele><time>2026-04-04T14:13:05.509Z</time></trkpt><trkpt lat="43.01608" lon="13.4066433"><ele>420.8</ele><time>2026-04-04T14:13:06.508Z</time></trkpt><trkpt lat="43.0160267" lon="13.406775"><ele>422.0</ele><time>2026-04-04T14:13:07.508Z</time></trkpt><trkpt lat="43.0159667" lon="13.4069067"><ele>422.0</ele><time>2026-04-04T14:13:08.509Z</time></trkpt><trkpt lat="43.0159133" lon="13.4070433"><ele>422.0</ele><time>2026-04-04T14:13:09.508Z</time></trkpt><trkpt lat="43.0158683" lon="13.4071483"><ele>422.0</ele><time>2026-04-04T14:13:10.508Z</time></trkpt><trkpt lat="43.015825" lon="13.4072583"><ele>422.0</ele><time>2026-04-04T14:13:11.509Z</time></trkpt><trkpt lat="43.0157817" lon="13.4073617"><ele>422.0</ele><time>2026-04-04T14:13:12.509Z</time></trkpt><trkpt lat="43.01576" lon="13.407465"><ele>422.16666666666663</ele><time>2026-04-04T14:13:13.508Z</time></trkpt><trkpt lat="43.0157517" lon="13.4075833"><ele>422.3333333333333</ele><time>2026-04-04T14:13:14.509Z</time></trkpt><trkpt lat="43.015755" lon="13.4076917"><ele>422.5</ele><time>2026-04-04T14:13:15.509Z</time></trkpt><trkpt lat="43.0157633" lon="13.407785"><ele>422.66666666666663</ele><time>2026-04-04T14:13:16.509Z</time></trkpt><trkpt lat="43.015845" lon="13.4079133"><ele>422.8333333333333</ele><time>2026-04-04T14:13:18.508Z</time></trkpt><trkpt lat="43.0159267" lon="13.407945"><ele>423.0</ele><time>2026-04-04T14:13:19.509Z</time></trkpt><trkpt lat="43.01602" lon="13.4079667"><ele>423.0</ele><time>2026-04-04T14:13:20.508Z</time></trkpt><trkpt lat="43.0161083" lon="13.4079667"><ele>423.0</ele><time>2026-04-04T14:13:21.509Z</time></trkpt><trkpt lat="43.016215" lon="13.4079517"><ele>423.0</ele><time>2026-04-04T14:13:22.508Z</time></trkpt><trkpt lat="43.01633" lon="13.407925"><ele>423.0</ele><time>2026-04-04T14:13:23.509Z</time></trkpt><trkpt lat="43.01644" lon="13.407895"><ele>423.0</ele><time>2026-04-04T14:13:24.509Z</time></trkpt><trkpt lat="43.0165467" lon="13.407865"><ele>423.0</ele><time>2026-04-04T14:13:25.509Z</time></trkpt><trkpt lat="43.016645" lon="13.40784"><ele>423.0</ele><time>2026-04-04T14:13:26.509Z</time></trkpt><trkpt lat="43.0167433" lon="13.4078133"><ele>423.0</ele><time>2026-04-04T14:13:27.508Z</time></trkpt><trkpt lat="43.016835" lon="13.4077917"><ele>423.0</ele><time>2026-04-04T14:13:28.509Z</time></trkpt><trkpt lat="43.0169367" lon="13.4077633"><ele>423.0</ele><time>2026-04-04T14:13:29.508Z</time></trkpt><trkpt lat="43.0170383" lon="13.40774"><ele>422.4</ele><time>2026-04-04T14:13:30.508Z</time></trkpt><trkpt lat="43.01714" lon="13.4077333"><ele>421.79999999999995</ele><time>2026-04-04T14:13:31.509Z</time></trkpt><trkpt lat="43.01724" lon="13.4077333"><ele>421.2</ele><time>2026-04-04T14:13:32.508Z</time></trkpt><trkpt lat="43.0173317" lon="13.40773"><ele>420.6</ele><time>2026-04-04T14:13:33.508Z</time></trkpt><trkpt lat="43.0174167" lon="13.407715"><ele>420.0</ele><time>2026-04-04T14:13:34.508Z</time></trkpt><trkpt lat="43.0174967" lon="13.4077083"><ele>418.5</ele><time>2026-04-04T14:13:35.508Z</time></trkpt><trkpt lat="43.017565" lon="13.407705"><ele>417.0</ele><time>2026-04-04T14:13:36.508Z</time></trkpt><trkpt lat="43.01764" lon="13.407725"><ele>415.5</ele><time>2026-04-04T14:13:37.508Z</time></trkpt><trkpt lat="43.0177233" lon="13.4077317"><ele>414.0</ele><time>2026-04-04T14:13:38.509Z</time></trkpt><trkpt lat="43.017805" lon="13.40772"><ele>412.5</ele><time>2026-04-04T14:13:39.509Z</time></trkpt><trkpt lat="43.0178833" lon="13.4077017"><ele>411.0</ele><time>2026-04-04T14:13:40.508Z</time></trkpt><trkpt lat="43.0179583" lon="13.4076767"><ele>411.0</ele><time>2026-04-04T14:13:41.509Z</time></trkpt><trkpt lat="43.0180333" lon="13.4076483"><ele>411.0</ele><time>2026-04-04T14:13:42.508Z</time></trkpt><trkpt lat="43.0181033" lon="13.4076"><ele>411.0</ele><time>2026-04-04T14:13:43.509Z</time></trkpt><trkpt lat="43.0181633" lon="13.4075633"><ele>411.0</ele><time>2026-04-04T14:13:44.508Z</time></trkpt><trkpt lat="43.018265" lon="13.407545"><ele>411.0</ele><time>2026-04-04T14:13:46.508Z</time></trkpt><trkpt lat="43.0183183" lon="13.40761"><ele>411.0</ele><time>2026-04-04T14:13:48.509Z</time></trkpt><trkpt lat="43.01834" lon="13.4077683"><ele>409.20000000000005</ele><time>2026-04-04T14:13:50.508Z</time></trkpt><trkpt lat="43.0183467" lon="13.4078833"><ele>407.40000000000003</ele><time>2026-04-04T14:13:51.509Z</time></trkpt><trkpt lat="43.018385" lon="13.4080083"><ele>405.6</ele><time>2026-04-04T14:13:52.508Z</time></trkpt><trkpt lat="43.0184367" lon="13.4081217"><ele>403.8</ele><time>2026-04-04T14:13:53.508Z</time></trkpt><trkpt lat="43.0184683" lon="13.4082267"><ele>402.0</ele><time>2026-04-04T14:13:54.508Z</time></trkpt><trkpt lat="43.0184983" lon="13.4083367"><ele>401.75</ele><time>2026-04-04T14:13:55.508Z</time></trkpt><trkpt lat="43.01852" lon="13.4084667"><ele>401.5</ele><time>2026-04-04T14:13:56.508Z</time></trkpt><trkpt lat="43.01853" lon="13.4086133"><ele>401.25</ele><time>2026-04-04T14:13:57.509Z</time></trkpt><trkpt lat="43.0185483" lon="13.4087767"><ele>401.0</ele><time>2026-04-04T14:13:58.508Z</time></trkpt><trkpt lat="43.0185617" lon="13.4089583"><ele>401.0</ele><time>2026-04-04T14:13:59.508Z</time></trkpt><trkpt lat="43.0185833" lon="13.4091517"><ele>401.0</ele><time>2026-04-04T14:14:00.509Z</time></trkpt><trkpt lat="43.0186017" lon="13.40933"><ele>401.0</ele><time>2026-04-04T14:14:01.509Z</time></trkpt><trkpt lat="43.0186217" lon="13.40947"><ele>401.0</ele><time>2026-04-04T14:14:02.509Z</time></trkpt><trkpt lat="43.0186267" lon="13.40957"><ele>401.57142857142856</ele><time>2026-04-04T14:14:03.509Z</time></trkpt><trkpt lat="43.0186367" lon="13.4096867"><ele>402.14285714285717</ele><time>2026-04-04T14:14:05.508Z</time></trkpt><trkpt lat="43.01857" lon="13.4096817"><ele>402.71428571428567</ele><time>2026-04-04T14:14:18.508Z</time></trkpt><trkpt lat="43.0185083" lon="13.40971"><ele>403.2857142857143</ele><time>2026-04-04T14:14:20.508Z</time></trkpt><trkpt lat="43.018445" lon="13.4097367"><ele>403.85714285714283</ele><time>2026-04-04T14:14:22.507Z</time></trkpt><trkpt lat="43.0183867" lon="13.4097983"><ele>404.4285714285714</ele><time>2026-04-04T14:14:24.507Z</time></trkpt><trkpt lat="43.0183667" lon="13.4099167"><ele>405.0</ele><time>2026-04-04T14:14:26.508Z</time></trkpt><trkpt lat="43.0184" lon="13.4100567"><ele>405.0</ele><time>2026-04-04T14:14:28.508Z</time></trkpt><trkpt lat="43.018415" lon="13.4101433"><ele>405.0</ele><time>2026-04-04T14:14:29.507Z</time></trkpt><trkpt lat="43.0184167" lon="13.41024"><ele>405.0</ele><time>2026-04-04T14:14:30.508Z</time></trkpt><trkpt lat="43.0184033" lon="13.4103467"><ele>405.0</ele><time>2026-04-04T14:14:31.508Z</time></trkpt><trkpt lat="43.0183617" lon="13.4104767"><ele>405.0</ele><time>2026-04-04T14:14:32.507Z</time></trkpt><trkpt lat="43.0183117" lon="13.4105867"><ele>405.0</ele><time>2026-04-04T14:14:33.508Z</time></trkpt><trkpt lat="43.018225" lon="13.410695"><ele>401.25</ele><time>2026-04-04T14:14:34.507Z</time></trkpt><trkpt lat="43.0180983" lon="13.410785"><ele>397.5</ele><time>2026-04-04T14:14:35.507Z</time></trkpt><trkpt lat="43.01798" lon="13.4108767"><ele>393.75</ele><time>2026-04-04T14:14:36.507Z</time></trkpt><trkpt lat="43.01788" lon="13.4109483"><ele>390.0</ele><time>2026-04-04T14:14:37.508Z</time></trkpt><trkpt lat="43.0177933" lon="13.411015"><ele>390.0</ele><time>2026-04-04T14:14:38.507Z</time></trkpt><trkpt lat="43.01772" lon="13.4110667"><ele>390.0</ele><time>2026-04-04T14:14:39.507Z</time></trkpt><trkpt lat="43.01765" lon="13.4111"><ele>390.0</ele><time>2026-04-04T14:14:40.507Z</time></trkpt><trkpt lat="43.0175833" lon="13.4111083"><ele>390.0</ele><time>2026-04-04T14:14:41.508Z</time></trkpt><trkpt lat="43.0175217" lon="13.4110767"><ele>390.0</ele><time>2026-04-04T14:14:42.508Z</time></trkpt><trkpt lat="43.0174633" lon="13.4110067"><ele>390.0</ele><time>2026-04-04T14:14:43.507Z</time></trkpt><trkpt lat="43.0174117" lon="13.4109017"><ele>387.0</ele><time>2026-04-04T14:14:44.508Z</time></trkpt><trkpt lat="43.0173483" lon="13.4107633"><ele>384.0</ele><time>2026-04-04T14:14:45.507Z</time></trkpt><trkpt lat="43.0172767" lon="13.4106583"><ele>381.0</ele><time>2026-04-04T14:14:46.508Z</time></trkpt><trkpt lat="43.017195" lon="13.4106167"><ele>378.0</ele><time>2026-04-04T14:14:47.508Z</time></trkpt><trkpt lat="43.0170783" lon="13.4106367"><ele>375.0</ele><time>2026-04-04T14:14:48.508Z</time></trkpt><trkpt lat="43.0169433" lon="13.4106933"><ele>375.0</ele><time>2026-04-04T14:14:49.508Z</time></trkpt><trkpt lat="43.0168033" lon="13.4107433"><ele>375.0</ele><time>2026-04-04T14:14:50.508Z</time></trkpt><trkpt lat="43.0166717" lon="13.4107783"><ele>375.0</ele><time>2026-04-04T14:14:51.508Z</time></trkpt><trkpt lat="43.0165433" lon="13.4108033"><ele>375.0</ele><time>2026-04-04T14:14:52.508Z</time></trkpt><trkpt lat="43.0164417" lon="13.41082"><ele>373.3333333333333</ele><time>2026-04-04T14:14:53.508Z</time></trkpt><trkpt lat="43.01635" lon="13.4108283"><ele>371.6666666666667</ele><time>2026-04-04T14:14:54.507Z</time></trkpt><trkpt lat="43.0162767" lon="13.4108283"><ele>370.0</ele><time>2026-04-04T14:14:55.507Z</time></trkpt><trkpt lat="43.0162033" lon="13.4108283"><ele>368.33333333333337</ele><time>2026-04-04T14:14:56.508Z</time></trkpt><trkpt lat="43.0161283" lon="13.41084"><ele>366.6666666666667</ele><time>2026-04-04T14:14:57.507Z</time></trkpt><trkpt lat="43.0160483" lon="13.4108783"><ele>365.0</ele><time>2026-04-04T14:14:58.508Z</time></trkpt><trkpt lat="43.0159617" lon="13.4109317"><ele>365.0</ele><time>2026-04-04T14:14:59.508Z</time></trkpt><trkpt lat="43.0158667" lon="13.4109917"><ele>365.0</ele><time>2026-04-04T14:15:00.508Z</time></trkpt><trkpt lat="43.0157617" lon="13.4110733"><ele>365.0</ele><time>2026-04-04T14:15:01.508Z</time></trkpt><trkpt lat="43.0156567" lon="13.411145"><ele>365.0</ele><time>2026-04-04T14:15:02.508Z</time></trkpt><trkpt lat="43.0155467" lon="13.41121"><ele>364.5</ele><time>2026-04-04T14:15:03.507Z</time></trkpt><trkpt lat="43.015435" lon="13.4112733"><ele>364.0</ele><time>2026-04-04T14:15:04.507Z</time></trkpt><trkpt lat="43.01531" lon="13.411335"><ele>363.5</ele><time>2026-04-04T14:15:05.508Z</time></trkpt><trkpt lat="43.0151933" lon="13.4113933"><ele>363.0</ele><time>2026-04-04T14:15:06.507Z</time></trkpt><trkpt lat="43.0150733" lon="13.41145"><ele>361.25</ele><time>2026-04-04T14:15:07.507Z</time></trkpt><trkpt lat="43.0149467" lon="13.4115217"><ele>359.5</ele><time>2026-04-04T14:15:08.507Z</time></trkpt><trkpt lat="43.0148217" lon="13.411615"><ele>357.75</ele><time>2026-04-04T14:15:09.508Z</time></trkpt><trkpt lat="43.0146983" lon="13.4116983"><ele>356.0</ele><time>2026-04-04T14:15:10.508Z</time></trkpt><trkpt lat="43.0145817" lon="13.4117717"><ele>356.0</ele><time>2026-04-04T14:15:11.508Z</time></trkpt><trkpt lat="43.0144683" lon="13.4118433"><ele>356.0</ele><time>2026-04-04T14:15:12.507Z</time></trkpt><trkpt lat="43.0143583" lon="13.4119"><ele>356.0</ele><time>2026-04-04T14:15:13.508Z</time></trkpt><trkpt lat="43.0142583" lon="13.4119733"><ele>356.0</ele><time>2026-04-04T14:15:14.507Z</time></trkpt><trkpt lat="43.0141767" lon="13.4120467"><ele>353.8</ele><time>2026-04-04T14:15:15.508Z</time></trkpt><trkpt lat="43.0141083" lon="13.4121417"><ele>351.6</ele><time>2026-04-04T14:15:16.507Z</time></trkpt><trkpt lat="43.014055" lon="13.412265"><ele>349.4</ele><time>2026-04-04T14:15:17.507Z</time></trkpt><trkpt lat="43.0140217" lon="13.4124017"><ele>347.2</ele><time>2026-04-04T14:15:18.508Z</time></trkpt><trkpt lat="43.0139983" lon="13.4125633"><ele>345.0</ele><time>2026-04-04T14:15:19.507Z</time></trkpt><trkpt lat="43.01396" lon="13.41273"><ele>344.75</ele><time>2026-04-04T14:15:20.507Z</time></trkpt><trkpt lat="43.0139117" lon="13.4129017"><ele>344.5</ele><time>2026-04-04T14:15:21.508Z</time></trkpt><trkpt lat="43.01384" lon="13.41306"><ele>344.25</ele><time>2026-04-04T14:15:22.508Z</time></trkpt><trkpt lat="43.0137383" lon="13.4132083"><ele>344.0</ele><time>2026-04-04T14:15:23.508Z</time></trkpt><trkpt lat="43.0136417" lon="13.4133317"><ele>344.0</ele><time>2026-04-04T14:15:24.507Z</time></trkpt><trkpt lat="43.0135317" lon="13.41345"><ele>344.0</ele><time>2026-04-04T14:15:25.508Z</time></trkpt><trkpt lat="43.0134233" lon="13.41355"><ele>344.0</ele><time>2026-04-04T14:15:26.507Z</time></trkpt><trkpt lat="43.013315" lon="13.4136567"><ele>344.0</ele><time>2026-04-04T14:15:27.508Z</time></trkpt><trkpt lat="43.0132" lon="13.413755"><ele>342.75</ele><time>2026-04-04T14:15:28.507Z</time></trkpt><trkpt lat="43.0130833" lon="13.41385"><ele>341.5</ele><time>2026-04-04T14:15:29.507Z</time></trkpt><trkpt lat="43.0129683" lon="13.4139567"><ele>340.25</ele><time>2026-04-04T14:15:30.507Z</time></trkpt><trkpt lat="43.0128433" lon="13.41404"><ele>339.0</ele><time>2026-04-04T14:15:31.508Z</time></trkpt><trkpt lat="43.0127333" lon="13.4140983"><ele>339.0</ele><time>2026-04-04T14:15:32.508Z</time></trkpt><trkpt lat="43.012635" lon="13.41415"><ele>339.0</ele><time>2026-04-04T14:15:33.507Z</time></trkpt><trkpt lat="43.01255" lon="13.4141633"><ele>339.0</ele><time>2026-04-04T14:15:34.508Z</time></trkpt><trkpt lat="43.0124733" lon="13.4141683"><ele>339.0</ele><time>2026-04-04T14:15:35.507Z</time></trkpt><trkpt lat="43.0124067" lon="13.4141383"><ele>339.0</ele><time>2026-04-04T14:15:36.507Z</time></trkpt><trkpt lat="43.0123583" lon="13.4140817"><ele>339.0</ele><time>2026-04-04T14:15:37.507Z</time></trkpt><trkpt lat="43.0123233" lon="13.4139567"><ele>334.3333333333333</ele><time>2026-04-04T14:15:38.507Z</time></trkpt><trkpt lat="43.01231" lon="13.4137817"><ele>329.66666666666663</ele><time>2026-04-04T14:15:39.507Z</time></trkpt><trkpt lat="43.0123" lon="13.4135633"><ele>325.0</ele><time>2026-04-04T14:15:40.508Z</time></trkpt><trkpt lat="43.0122683" lon="13.4133283"><ele>325.0</ele><time>2026-04-04T14:15:41.508Z</time></trkpt><trkpt lat="43.0122133" lon="13.413145"><ele>325.0</ele><time>2026-04-04T14:15:42.507Z</time></trkpt><trkpt lat="43.012165" lon="13.4130183"><ele>325.0</ele><time>2026-04-04T14:15:43.508Z</time></trkpt><trkpt lat="43.0121" lon="13.4129333"><ele>325.0</ele><time>2026-04-04T14:15:44.508Z</time></trkpt><trkpt lat="43.0120383" lon="13.41287"><ele>325.0</ele><time>2026-04-04T14:15:45.508Z</time></trkpt><trkpt lat="43.0119767" lon="13.41283"><ele>324.8</ele><time>2026-04-04T14:15:46.508Z</time></trkpt><trkpt lat="43.011905" lon="13.4128117"><ele>324.6</ele><time>2026-04-04T14:15:47.507Z</time></trkpt><trkpt lat="43.0118033" lon="13.4128183"><ele>324.4</ele><time>2026-04-04T14:15:48.507Z</time></trkpt><trkpt lat="43.0117083" lon="13.4128183"><ele>324.2</ele><time>2026-04-04T14:15:49.508Z</time></trkpt><trkpt lat="43.0116283" lon="13.4127817"><ele>324.0</ele><time>2026-04-04T14:15:50.508Z</time></trkpt><trkpt lat="43.01152" lon="13.4126883"><ele>324.0</ele><time>2026-04-04T14:15:52.507Z</time></trkpt><trkpt lat="43.0114683" lon="13.4126383"><ele>324.0</ele><time>2026-04-04T14:15:53.507Z</time></trkpt><trkpt lat="43.01138" lon="13.4125983"><ele>324.0</ele><time>2026-04-04T14:15:55.508Z</time></trkpt><trkpt lat="43.0112967" lon="13.4127133"><ele>324.0</ele><time>2026-04-04T14:15:57.507Z</time></trkpt><trkpt lat="43.0112367" lon="13.412795"><ele>324.0</ele><time>2026-04-04T14:15:58.508Z</time></trkpt><trkpt lat="43.0111867" lon="13.412865"><ele>324.0</ele><time>2026-04-04T14:15:59.508Z</time></trkpt><trkpt lat="43.0111017" lon="13.4129367"><ele>324.0</ele><time>2026-04-04T14:16:01.507Z</time></trkpt><trkpt lat="43.01103" lon="13.4129017"><ele>324.0</ele><time>2026-04-04T14:16:03.507Z</time></trkpt><trkpt lat="43.010955" lon="13.412905"><ele>324.0</ele><time>2026-04-04T14:16:04.507Z</time></trkpt><trkpt lat="43.0108917" lon="13.4128967"><ele>324.0</ele><time>2026-04-04T14:16:05.507Z</time></trkpt><trkpt lat="43.0108267" lon="13.4129"><ele>324.0</ele><time>2026-04-04T14:16:06.508Z</time></trkpt><trkpt lat="43.0107567" lon="13.4129017"><ele>324.0</ele><time>2026-04-04T14:16:07.508Z</time></trkpt><trkpt lat="43.0106833" lon="13.4128983"><ele>324.0</ele><time>2026-04-04T14:16:08.507Z</time></trkpt><trkpt lat="43.0105983" lon="13.4129"><ele>324.75</ele><time>2026-04-04T14:16:09.508Z</time></trkpt><trkpt lat="43.0104983" lon="13.4128933"><ele>325.5</ele><time>2026-04-04T14:16:10.508Z</time></trkpt><trkpt lat="43.0103817" lon="13.412885"><ele>326.25</ele><time>2026-04-04T14:16:11.508Z</time></trkpt><trkpt lat="43.0102683" lon="13.412885"><ele>327.0</ele><time>2026-04-04T14:16:12.507Z</time></trkpt><trkpt lat="43.0101467" lon="13.41288"><ele>327.0</ele><time>2026-04-04T14:16:13.507Z</time></trkpt><trkpt lat="43.010015" lon="13.412895"><ele>327.0</ele><time>2026-04-04T14:16:14.507Z</time></trkpt><trkpt lat="43.0099083" lon="13.4129183"><ele>327.0</ele><time>2026-04-04T14:16:15.507Z</time></trkpt><trkpt lat="43.0098" lon="13.4129367"><ele>327.0</ele><time>2026-04-04T14:16:16.507Z</time></trkpt><trkpt lat="43.0096983" lon="13.4129583"><ele>326.8</ele><time>2026-04-04T14:16:17.507Z</time></trkpt><trkpt lat="43.00961" lon="13.4129817"><ele>326.6</ele><time>2026-04-04T14:16:18.507Z</time></trkpt><trkpt lat="43.0095183" lon="13.4129933"><ele>326.40000000000003</ele><time>2026-04-04T14:16:19.508Z</time></trkpt><trkpt lat="43.009435" lon="13.413005"><ele>326.20000000000005</ele><time>2026-04-04T14:16:20.507Z</time></trkpt><trkpt lat="43.0093367" lon="13.4130267"><ele>326.0</ele><time>2026-04-04T14:16:21.507Z</time></trkpt><trkpt lat="43.0092517" lon="13.41305"><ele>326.0</ele><time>2026-04-04T14:16:22.507Z</time></trkpt><trkpt lat="43.0091783" lon="13.4130933"><ele>326.0</ele><time>2026-04-04T14:16:23.508Z</time></trkpt><trkpt lat="43.0091067" lon="13.4131467"><ele>326.0</ele><time>2026-04-04T14:16:24.508Z</time></trkpt><trkpt lat="43.0090367" lon="13.4132117"><ele>326.0</ele><time>2026-04-04T14:16:25.508Z</time></trkpt><trkpt lat="43.0089517" lon="13.4132767"><ele>326.0</ele><time>2026-04-04T14:16:26.508Z</time></trkpt><trkpt lat="43.00887" lon="13.4133367"><ele>326.0</ele><time>2026-04-04T14:16:27.508Z</time></trkpt><trkpt lat="43.0087933" lon="13.4134067"><ele>327.8</ele><time>2026-04-04T14:16:28.507Z</time></trkpt><trkpt lat="43.0087133" lon="13.4134933"><ele>329.6</ele><time>2026-04-04T14:16:29.508Z</time></trkpt><trkpt lat="43.00864" lon="13.4135817"><ele>331.4</ele><time>2026-04-04T14:16:30.508Z</time></trkpt><trkpt lat="43.0085717" lon="13.41368"><ele>333.2</ele><time>2026-04-04T14:16:31.508Z</time></trkpt><trkpt lat="43.0085167" lon="13.41381"><ele>335.0</ele><time>2026-04-04T14:16:32.508Z</time></trkpt><trkpt lat="43.0084517" lon="13.4139433"><ele>335.4</ele><time>2026-04-04T14:16:33.507Z</time></trkpt><trkpt lat="43.0083883" lon="13.4140667"><ele>335.8</ele><time>2026-04-04T14:16:34.507Z</time></trkpt><trkpt lat="43.008325" lon="13.4141733"><ele>336.20000000000005</ele><time>2026-04-04T14:16:35.507Z</time></trkpt><trkpt lat="43.0082583" lon="13.4142633"><ele>336.6</ele><time>2026-04-04T14:16:36.508Z</time></trkpt><trkpt lat="43.0081867" lon="13.414325"><ele>337.0</ele><time>2026-04-04T14:16:37.507Z</time></trkpt><trkpt lat="43.0081067" lon="13.4143833"><ele>338.0</ele><time>2026-04-04T14:16:38.508Z</time></trkpt><trkpt lat="43.0080317" lon="13.41441"><ele>339.0</ele><time>2026-04-04T14:16:39.507Z</time></trkpt><trkpt lat="43.00793" lon="13.414475"><ele>340.0</ele><time>2026-04-04T14:16:41.507Z</time></trkpt><trkpt lat="43.0078433" lon="13.414615"><ele>341.0</ele><time>2026-04-04T14:16:43.507Z</time></trkpt><trkpt lat="43.007795" lon="13.4147133"><ele>342.0</ele><time>2026-04-04T14:16:44.508Z</time></trkpt><trkpt lat="43.0077333" lon="13.4148267"><ele>343.75</ele><time>2026-04-04T14:16:45.507Z</time></trkpt><trkpt lat="43.0076533" lon="13.4149783"><ele>345.5</ele><time>2026-04-04T14:16:46.507Z</time></trkpt><trkpt lat="43.00758" lon="13.4151317"><ele>347.25</ele><time>2026-04-04T14:16:47.508Z</time></trkpt><trkpt lat="43.0075317" lon="13.4153217"><ele>349.0</ele><time>2026-04-04T14:16:48.507Z</time></trkpt><trkpt lat="43.007515" lon="13.4155083"><ele>352.25</ele><time>2026-04-04T14:16:49.507Z</time></trkpt><trkpt lat="43.0075333" lon="13.4157"><ele>355.5</ele><time>2026-04-04T14:16:50.507Z</time></trkpt><trkpt lat="43.007575" lon="13.41589"><ele>358.75</ele><time>2026-04-04T14:16:51.508Z</time></trkpt><trkpt lat="43.0076517" lon="13.4160733"><ele>362.0</ele><time>2026-04-04T14:16:52.507Z</time></trkpt><trkpt lat="43.0077733" lon="13.4162533"><ele>367.6666666666667</ele><time>2026-04-04T14:16:53.508Z</time></trkpt><trkpt lat="43.00791" lon="13.4164283"><ele>373.3333333333333</ele><time>2026-04-04T14:16:54.507Z</time></trkpt><trkpt lat="43.0080567" lon="13.4165933"><ele>379.0</ele><time>2026-04-04T14:16:55.507Z</time></trkpt><trkpt lat="43.0081983" lon="13.4167517"><ele>372.0</ele><time>2026-04-04T14:16:56.507Z</time></trkpt><trkpt lat="43.0083567" lon="13.4169117"><ele>365.0</ele><time>2026-04-04T14:16:57.507Z</time></trkpt><trkpt lat="43.0084983" lon="13.4171"><ele>358.0</ele><time>2026-04-04T14:16:58.508Z</time></trkpt><trkpt lat="43.00865" lon="13.4173083"><ele>358.0</ele><time>2026-04-04T14:16:59.508Z</time></trkpt><trkpt lat="43.00881" lon="13.417525"><ele>358.0</ele><time>2026-04-04T14:17:00.507Z</time></trkpt><trkpt lat="43.0089617" lon="13.417705"><ele>358.0</ele><time>2026-04-04T14:17:01.507Z</time></trkpt><trkpt lat="43.0091117" lon="13.4179083"><ele>354.3333333333333</ele><time>2026-04-04T14:17:02.508Z</time></trkpt><trkpt lat="43.00925" lon="13.4181133"><ele>350.6666666666667</ele><time>2026-04-04T14:17:03.508Z</time></trkpt><trkpt lat="43.00938" lon="13.41832"><ele>347.0</ele><time>2026-04-04T14:17:04.507Z</time></trkpt><trkpt lat="43.0095083" lon="13.41853"><ele>347.0</ele><time>2026-04-04T14:17:05.508Z</time></trkpt><trkpt lat="43.009635" lon="13.41873"><ele>347.0</ele><time>2026-04-04T14:17:06.508Z</time></trkpt><trkpt lat="43.0097683" lon="13.4189283"><ele>347.0</ele><time>2026-04-04T14:17:07.508Z</time></trkpt><trkpt lat="43.009895" lon="13.4191333"><ele>348.33333333333337</ele><time>2026-04-04T14:17:08.508Z</time></trkpt><trkpt lat="43.0100333" lon="13.4193367"><ele>349.6666666666667</ele><time>2026-04-04T14:17:09.507Z</time></trkpt><trkpt lat="43.010165" lon="13.41953"><ele>351.0</ele><time>2026-04-04T14:17:10.508Z</time></trkpt><trkpt lat="43.010315" lon="13.4197183"><ele>351.0</ele><time>2026-04-04T14:17:11.507Z</time></trkpt><trkpt lat="43.0104667" lon="13.4198933"><ele>351.0</ele><time>2026-04-04T14:17:12.507Z</time></trkpt><trkpt lat="43.0106233" lon="13.420045"><ele>351.0</ele><time>2026-04-04T14:17:13.508Z</time></trkpt><trkpt lat="43.0107883" lon="13.420185"><ele>349.3333333333333</ele><time>2026-04-04T14:17:14.507Z</time></trkpt><trkpt lat="43.0109633" lon="13.4203183"><ele>347.66666666666663</ele><time>2026-04-04T14:17:15.508Z</time></trkpt><trkpt lat="43.0111267" lon="13.42046"><ele>346.0</ele><time>2026-04-04T14:17:16.508Z</time></trkpt><trkpt lat="43.0112883" lon="13.4206183"><ele>346.0</ele><time>2026-04-04T14:17:17.507Z</time></trkpt><trkpt lat="43.0114283" lon="13.4207767"><ele>346.0</ele><time>2026-04-04T14:17:18.507Z</time></trkpt><trkpt lat="43.011585" lon="13.4209417"><ele>346.0</ele><time>2026-04-04T14:17:19.508Z</time></trkpt><trkpt lat="43.011725" lon="13.4211367"><ele>345.0</ele><time>2026-04-04T14:17:20.507Z</time></trkpt><trkpt lat="43.0118417" lon="13.4213283"><ele>344.0</ele><time>2026-04-04T14:17:21.508Z</time></trkpt><trkpt lat="43.0119217" lon="13.42152"><ele>343.0</ele><time>2026-04-04T14:17:22.508Z</time></trkpt><trkpt lat="43.0119767" lon="13.4217"><ele>343.0</ele><time>2026-04-04T14:17:23.508Z</time></trkpt><trkpt lat="43.0120483" lon="13.42183"><ele>343.0</ele><time>2026-04-04T14:17:24.507Z</time></trkpt><trkpt lat="43.0121583" lon="13.4219083"><ele>343.0</ele><time>2026-04-04T14:17:25.507Z</time></trkpt><trkpt lat="43.0122967" lon="13.421945"><ele>343.0</ele><time>2026-04-04T14:17:26.507Z</time></trkpt><trkpt lat="43.01245" lon="13.4219533"><ele>341.3333333333333</ele><time>2026-04-04T14:17:27.508Z</time></trkpt><trkpt lat="43.0126167" lon="13.4219433"><ele>339.6666666666667</ele><time>2026-04-04T14:17:28.507Z</time></trkpt><trkpt lat="43.0127983" lon="13.42195"><ele>338.0</ele><time>2026-04-04T14:17:29.508Z</time></trkpt><trkpt lat="43.012995" lon="13.4219517"><ele>338.0</ele><time>2026-04-04T14:17:30.507Z</time></trkpt><trkpt lat="43.0131983" lon="13.42197"><ele>338.0</ele><time>2026-04-04T14:17:31.508Z</time></trkpt><trkpt lat="43.0133983" lon="13.421965"><ele>338.0</ele><time>2026-04-04T14:17:32.507Z</time></trkpt><trkpt lat="43.0136167" lon="13.4219817"><ele>336.33333333333337</ele><time>2026-04-04T14:17:33.508Z</time></trkpt><trkpt lat="43.0138183" lon="13.42199"><ele>334.6666666666667</ele><time>2026-04-04T14:17:34.508Z</time></trkpt><trkpt lat="43.014015" lon="13.4219983"><ele>333.0</ele><time>2026-04-04T14:17:35.508Z</time></trkpt><trkpt lat="43.01421" lon="13.4220033"><ele>332.6666666666667</ele><time>2026-04-04T14:17:36.507Z</time></trkpt><trkpt lat="43.0144033" lon="13.422025"><ele>332.33333333333337</ele><time>2026-04-04T14:17:37.507Z</time></trkpt><trkpt lat="43.0145783" lon="13.4220517"><ele>332.0</ele><time>2026-04-04T14:17:38.508Z</time></trkpt><trkpt lat="43.0147383" lon="13.4221"><ele>332.33333333333337</ele><time>2026-04-04T14:17:39.507Z</time></trkpt><trkpt lat="43.0148917" lon="13.4221633"><ele>332.6666666666667</ele><time>2026-04-04T14:17:40.507Z</time></trkpt><trkpt lat="43.0150183" lon="13.4223167"><ele>333.0</ele><time>2026-04-04T14:17:41.508Z</time></trkpt><trkpt lat="43.01512" lon="13.42251"><ele>333.0</ele><time>2026-04-04T14:17:42.508Z</time></trkpt><trkpt lat="43.0152167" lon="13.4227333"><ele>333.0</ele><time>2026-04-04T14:17:43.508Z</time></trkpt><trkpt lat="43.0153183" lon="13.422955"><ele>333.0</ele><time>2026-04-04T14:17:44.508Z</time></trkpt><trkpt lat="43.0154183" lon="13.4231933"><ele>333.6666666666667</ele><time>2026-04-04T14:17:45.507Z</time></trkpt><trkpt lat="43.015525" lon="13.423415"><ele>334.33333333333337</ele><time>2026-04-04T14:17:46.508Z</time></trkpt><trkpt lat="43.0156217" lon="13.4236467"><ele>335.0</ele><time>2026-04-04T14:17:47.507Z</time></trkpt><trkpt lat="43.01572" lon="13.4238367"><ele>333.6666666666667</ele><time>2026-04-04T14:17:48.508Z</time></trkpt><trkpt lat="43.0158183" lon="13.4240267"><ele>332.3333333333333</ele><time>2026-04-04T14:17:49.508Z</time></trkpt><trkpt lat="43.0159283" lon="13.424215"><ele>331.0</ele><time>2026-04-04T14:17:50.507Z</time></trkpt><trkpt lat="43.01605" lon="13.4243567"><ele>331.0</ele><time>2026-04-04T14:17:51.507Z</time></trkpt><trkpt lat="43.01616" lon="13.4244983"><ele>331.0</ele><time>2026-04-04T14:17:52.507Z</time></trkpt><trkpt lat="43.01627" lon="13.4246317"><ele>331.0</ele><time>2026-04-04T14:17:53.508Z</time></trkpt><trkpt lat="43.0163933" lon="13.424765"><ele>329.5</ele><time>2026-04-04T14:17:54.507Z</time></trkpt><trkpt lat="43.0164983" lon="13.4249217"><ele>328.0</ele><time>2026-04-04T14:17:55.508Z</time></trkpt><trkpt lat="43.0165917" lon="13.4250617"><ele>326.5</ele><time>2026-04-04T14:17:56.508Z</time></trkpt><trkpt lat="43.0166767" lon="13.4252283"><ele>325.0</ele><time>2026-04-04T14:17:57.508Z</time></trkpt><trkpt lat="43.0167467" lon="13.4254083"><ele>327.75</ele><time>2026-04-04T14:17:58.508Z</time></trkpt><trkpt lat="43.01681" lon="13.4255967"><ele>330.5</ele><time>2026-04-04T14:17:59.508Z</time></trkpt><trkpt lat="43.0168717" lon="13.4257883"><ele>333.25</ele><time>2026-04-04T14:18:00.507Z</time></trkpt><trkpt lat="43.0169217" lon="13.4259633"><ele>336.0</ele><time>2026-04-04T14:18:01.507Z</time></trkpt><trkpt lat="43.0169783" lon="13.42613"><ele>336.0</ele><time>2026-04-04T14:18:02.507Z</time></trkpt><trkpt lat="43.0170417" lon="13.4262883"><ele>336.0</ele><time>2026-04-04T14:18:03.508Z</time></trkpt><trkpt lat="43.0171083" lon="13.4264267"><ele>336.0</ele><time>2026-04-04T14:18:04.507Z</time></trkpt><trkpt lat="43.0171717" lon="13.4265733"><ele>336.0</ele><time>2026-04-04T14:18:05.507Z</time></trkpt><trkpt lat="43.017245" lon="13.4267083"><ele>338.75</ele><time>2026-04-04T14:18:06.507Z</time></trkpt><trkpt lat="43.0173383" lon="13.426825"><ele>341.5</ele><time>2026-04-04T14:18:07.507Z</time></trkpt><trkpt lat="43.01744" lon="13.426935"><ele>344.25</ele><time>2026-04-04T14:18:08.507Z</time></trkpt><trkpt lat="43.0175583" lon="13.4270233"><ele>347.0</ele><time>2026-04-04T14:18:09.506Z</time></trkpt><trkpt lat="43.0177033" lon="13.427115"><ele>346.75</ele><time>2026-04-04T14:18:10.506Z</time></trkpt><trkpt lat="43.0178433" lon="13.4272"><ele>346.5</ele><time>2026-04-04T14:18:11.506Z</time></trkpt><trkpt lat="43.0179717" lon="13.4272733"><ele>346.25</ele><time>2026-04-04T14:18:12.507Z</time></trkpt><trkpt lat="43.0181167" lon="13.42731"><ele>346.0</ele><time>2026-04-04T14:18:13.507Z</time></trkpt><trkpt lat="43.018255" lon="13.4273383"><ele>340.3333333333333</ele><time>2026-04-04T14:18:14.506Z</time></trkpt><trkpt lat="43.0184067" lon="13.42736"><ele>334.6666666666667</ele><time>2026-04-04T14:18:15.507Z</time></trkpt><trkpt lat="43.01856" lon="13.4273883"><ele>329.0</ele><time>2026-04-04T14:18:16.507Z</time></trkpt><trkpt lat="43.0187017" lon="13.4274317"><ele>329.0</ele><time>2026-04-04T14:18:17.507Z</time></trkpt><trkpt lat="43.0188433" lon="13.4275183"><ele>329.0</ele><time>2026-04-04T14:18:18.507Z</time></trkpt><trkpt lat="43.0189817" lon="13.4276467"><ele>329.0</ele><time>2026-04-04T14:18:19.506Z</time></trkpt><trkpt lat="43.01912" lon="13.4278117"><ele>329.6666666666667</ele><time>2026-04-04T14:18:20.506Z</time></trkpt><trkpt lat="43.0192783" lon="13.4279817"><ele>330.3333333333333</ele><time>2026-04-04T14:18:21.507Z</time></trkpt><trkpt lat="43.0194433" lon="13.428135"><ele>331.0</ele><time>2026-04-04T14:18:22.506Z</time></trkpt><trkpt lat="43.0196117" lon="13.4282733"><ele>331.0</ele><time>2026-04-04T14:18:23.506Z</time></trkpt><trkpt lat="43.019765" lon="13.4284117"><ele>331.0</ele><time>2026-04-04T14:18:24.507Z</time></trkpt><trkpt lat="43.0199" lon="13.4285533"><ele>331.0</ele><time>2026-04-04T14:18:25.506Z</time></trkpt><trkpt lat="43.020015" lon="13.4286967"><ele>329.66666666666663</ele><time>2026-04-04T14:18:26.507Z</time></trkpt><trkpt lat="43.0201433" lon="13.428825"><ele>328.3333333333333</ele><time>2026-04-04T14:18:27.507Z</time></trkpt><trkpt lat="43.0202717" lon="13.428975"><ele>327.0</ele><time>2026-04-04T14:18:28.506Z</time></trkpt><trkpt lat="43.0204133" lon="13.4291367"><ele>327.0</ele><time>2026-04-04T14:18:29.507Z</time></trkpt><trkpt lat="43.0205517" lon="13.4293133"><ele>327.0</ele><time>2026-04-04T14:18:30.507Z</time></trkpt><trkpt lat="43.0206883" lon="13.4294867"><ele>327.0</ele><time>2026-04-04T14:18:31.506Z</time></trkpt><trkpt lat="43.0208083" lon="13.4296517"><ele>326.0</ele><time>2026-04-04T14:18:32.506Z</time></trkpt><trkpt lat="43.0209183" lon="13.4297983"><ele>325.0</ele><time>2026-04-04T14:18:33.507Z</time></trkpt><trkpt lat="43.0210267" lon="13.4299433"><ele>324.0</ele><time>2026-04-04T14:18:34.507Z</time></trkpt><trkpt lat="43.0211117" lon="13.4300783"><ele>323.0</ele><time>2026-04-04T14:18:35.507Z</time></trkpt><trkpt lat="43.0211833" lon="13.4302183"><ele>323.0</ele><time>2026-04-04T14:18:36.507Z</time></trkpt><trkpt lat="43.0212517" lon="13.4303883"><ele>323.0</ele><time>2026-04-04T14:18:37.506Z</time></trkpt><trkpt lat="43.021315" lon="13.4305667"><ele>323.0</ele><time>2026-04-04T14:18:38.507Z</time></trkpt><trkpt lat="43.0213717" lon="13.4307833"><ele>325.33333333333337</ele><time>2026-04-04T14:18:39.507Z</time></trkpt><trkpt lat="43.0214083" lon="13.431025"><ele>327.6666666666667</ele><time>2026-04-04T14:18:40.506Z</time></trkpt><trkpt lat="43.0214517" lon="13.431275"><ele>330.0</ele><time>2026-04-04T14:18:41.506Z</time></trkpt><trkpt lat="43.021485" lon="13.431535"><ele>331.3333333333333</ele><time>2026-04-04T14:18:42.507Z</time></trkpt><trkpt lat="43.0215133" lon="13.4318083"><ele>332.66666666666663</ele><time>2026-04-04T14:18:43.507Z</time></trkpt><trkpt lat="43.0215367" lon="13.43209"><ele>334.0</ele><time>2026-04-04T14:18:44.507Z</time></trkpt><trkpt lat="43.0215517" lon="13.4323717"><ele>334.5</ele><time>2026-04-04T14:18:45.506Z</time></trkpt><trkpt lat="43.021555" lon="13.4326867"><ele>335.0</ele><time>2026-04-04T14:18:46.506Z</time></trkpt><trkpt lat="43.0215633" lon="13.4329867"><ele>335.0</ele><time>2026-04-04T14:18:47.506Z</time></trkpt><trkpt lat="43.021575" lon="13.43328"><ele>335.0</ele><time>2026-04-04T14:18:48.506Z</time></trkpt><trkpt lat="43.02157" lon="13.4335533"><ele>335.0</ele><time>2026-04-04T14:18:49.506Z</time></trkpt><trkpt lat="43.0215633" lon="13.433805"><ele>333.33333333333337</ele><time>2026-04-04T14:18:50.506Z</time></trkpt><trkpt lat="43.0215467" lon="13.4340817"><ele>331.6666666666667</ele><time>2026-04-04T14:18:51.506Z</time></trkpt><trkpt lat="43.0215483" lon="13.434365"><ele>330.0</ele><time>2026-04-04T14:18:52.507Z</time></trkpt><trkpt lat="43.0215433" lon="13.4346333"><ele>327.6666666666667</ele><time>2026-04-04T14:18:53.506Z</time></trkpt><trkpt lat="43.0215483" lon="13.4349233"><ele>325.33333333333337</ele><time>2026-04-04T14:18:54.506Z</time></trkpt><trkpt lat="43.0215533" lon="13.4352117"><ele>323.0</ele><time>2026-04-04T14:18:55.507Z</time></trkpt><trkpt lat="43.02157" lon="13.435505"><ele>322.6666666666667</ele><time>2026-04-04T14:18:56.507Z</time></trkpt><trkpt lat="43.0215983" lon="13.4358017"><ele>322.3333333333333</ele><time>2026-04-04T14:18:57.506Z</time></trkpt><trkpt lat="43.021645" lon="13.4360783"><ele>322.0</ele><time>2026-04-04T14:18:58.507Z</time></trkpt><trkpt lat="43.0216833" lon="13.43636"><ele>321.0</ele><time>2026-04-04T14:18:59.506Z</time></trkpt><trkpt lat="43.021735" lon="13.43666"><ele>320.0</ele><time>2026-04-04T14:19:00.506Z</time></trkpt><trkpt lat="43.0217767" lon="13.436935"><ele>319.0</ele><time>2026-04-04T14:19:01.506Z</time></trkpt><trkpt lat="43.0218117" lon="13.4371967"><ele>319.0</ele><time>2026-04-04T14:19:02.506Z</time></trkpt><trkpt lat="43.0218417" lon="13.4374533"><ele>319.0</ele><time>2026-04-04T14:19:03.507Z</time></trkpt><trkpt lat="43.0218733" lon="13.4377017"><ele>319.0</ele><time>2026-04-04T14:19:04.506Z</time></trkpt><trkpt lat="43.0218967" lon="13.43794"><ele>318.66666666666663</ele><time>2026-04-04T14:19:05.507Z</time></trkpt><trkpt lat="43.0218933" lon="13.438185"><ele>318.3333333333333</ele><time>2026-04-04T14:19:06.507Z</time></trkpt><trkpt lat="43.02191" lon="13.438445"><ele>318.0</ele><time>2026-04-04T14:19:07.506Z</time></trkpt><trkpt lat="43.0218817" lon="13.4387017"><ele>317.6666666666667</ele><time>2026-04-04T14:19:08.506Z</time></trkpt><trkpt lat="43.0218917" lon="13.4389467"><ele>317.33333333333337</ele><time>2026-04-04T14:19:09.506Z</time></trkpt><trkpt lat="43.02195" lon="13.43916"><ele>317.0</ele><time>2026-04-04T14:19:10.506Z</time></trkpt><trkpt lat="43.0220417" lon="13.43939"><ele>317.0</ele><time>2026-04-04T14:19:11.506Z</time></trkpt><trkpt lat="43.02216" lon="13.439595"><ele>317.0</ele><time>2026-04-04T14:19:12.506Z</time></trkpt><trkpt lat="43.0222967" lon="13.4398233"><ele>317.0</ele><time>2026-04-04T14:19:13.506Z</time></trkpt><trkpt lat="43.0224283" lon="13.4400617"><ele>317.0</ele><time>2026-04-04T14:19:14.506Z</time></trkpt><trkpt lat="43.0225483" lon="13.4402967"><ele>317.0</ele><time>2026-04-04T14:19:15.506Z</time></trkpt><trkpt lat="43.0226733" lon="13.4405267"><ele>317.0</ele><time>2026-04-04T14:19:16.507Z</time></trkpt><trkpt lat="43.0227883" lon="13.44075"><ele>317.0</ele><time>2026-04-04T14:19:17.506Z</time></trkpt><trkpt lat="43.0228883" lon="13.4409583"><ele>317.0</ele><time>2026-04-04T14:19:18.506Z</time></trkpt><trkpt lat="43.022955" lon="13.4411767"><ele>317.0</ele><time>2026-04-04T14:19:19.507Z</time></trkpt><trkpt lat="43.02298" lon="13.44139"><ele>318.6666666666667</ele><time>2026-04-04T14:19:20.506Z</time></trkpt><trkpt lat="43.0229967" lon="13.4416083"><ele>320.3333333333333</ele><time>2026-04-04T14:19:21.507Z</time></trkpt><trkpt lat="43.0229867" lon="13.4418717"><ele>322.0</ele><time>2026-04-04T14:19:22.506Z</time></trkpt><trkpt lat="43.022975" lon="13.4421417"><ele>322.0</ele><time>2026-04-04T14:19:23.507Z</time></trkpt><trkpt lat="43.022955" lon="13.4424333"><ele>322.0</ele><time>2026-04-04T14:19:24.506Z</time></trkpt><trkpt lat="43.0229417" lon="13.4427267"><ele>322.0</ele><time>2026-04-04T14:19:25.506Z</time></trkpt><trkpt lat="43.0229233" lon="13.44305"><ele>320.0</ele><time>2026-04-04T14:19:26.507Z</time></trkpt><trkpt lat="43.0229033" lon="13.4433633"><ele>318.0</ele><time>2026-04-04T14:19:27.507Z</time></trkpt><trkpt lat="43.0228817" lon="13.443685"><ele>320.0</ele><time>2026-04-04T14:19:28.506Z</time></trkpt><trkpt lat="43.0228517" lon="13.4440083"><ele>322.0</ele><time>2026-04-04T14:19:29.506Z</time></trkpt><trkpt lat="43.0228233" lon="13.4443367"><ele>321.66666666666663</ele><time>2026-04-04T14:19:30.506Z</time></trkpt><trkpt lat="43.0228" lon="13.44465"><ele>321.3333333333333</ele><time>2026-04-04T14:19:31.506Z</time></trkpt><trkpt lat="43.022775" lon="13.444925"><ele>321.0</ele><time>2026-04-04T14:19:32.506Z</time></trkpt><trkpt lat="43.0227483" lon="13.4451783"><ele>321.0</ele><time>2026-04-04T14:19:33.507Z</time></trkpt><trkpt lat="43.0227133" lon="13.4454367"><ele>321.0</ele><time>2026-04-04T14:19:34.507Z</time></trkpt><trkpt lat="43.0227067" lon="13.4456767"><ele>321.0</ele><time>2026-04-04T14:19:35.507Z</time></trkpt><trkpt lat="43.0227283" lon="13.4459183"><ele>321.6666666666667</ele><time>2026-04-04T14:19:36.506Z</time></trkpt><trkpt lat="43.0227733" lon="13.4461517"><ele>322.33333333333337</ele><time>2026-04-04T14:19:37.507Z</time></trkpt><trkpt lat="43.0228567" lon="13.4464083"><ele>323.0</ele><time>2026-04-04T14:19:38.506Z</time></trkpt><trkpt lat="43.0229717" lon="13.4466867"><ele>323.0</ele><time>2026-04-04T14:19:39.506Z</time></trkpt><trkpt lat="43.0230333" lon="13.4469617"><ele>323.0</ele><time>2026-04-04T14:19:40.507Z</time></trkpt><trkpt lat="43.0231083" lon="13.4472317"><ele>323.0</ele><time>2026-04-04T14:19:41.507Z</time></trkpt><trkpt lat="43.0232017" lon="13.4475067"><ele>322.6666666666667</ele><time>2026-04-04T14:19:42.506Z</time></trkpt><trkpt lat="43.0232817" lon="13.447755"><ele>322.3333333333333</ele><time>2026-04-04T14:19:43.506Z</time></trkpt><trkpt lat="43.023345" lon="13.4479967"><ele>322.0</ele><time>2026-04-04T14:19:44.507Z</time></trkpt><trkpt lat="43.02337" lon="13.4482317"><ele>322.0</ele><time>2026-04-04T14:19:45.506Z</time></trkpt><trkpt lat="43.023335" lon="13.4484533"><ele>322.0</ele><time>2026-04-04T14:19:46.507Z</time></trkpt><trkpt lat="43.0232633" lon="13.44869"><ele>322.0</ele><time>2026-04-04T14:19:47.507Z</time></trkpt><trkpt lat="43.0231533" lon="13.4489117"><ele>319.0</ele><time>2026-04-04T14:19:48.507Z</time></trkpt><trkpt lat="43.0230117" lon="13.4491633"><ele>316.0</ele><time>2026-04-04T14:19:49.506Z</time></trkpt><trkpt lat="43.0228817" lon="13.449415"><ele>312.0</ele><time>2026-04-04T14:19:50.506Z</time></trkpt><trkpt lat="43.0227783" lon="13.4496733"><ele>308.0</ele><time>2026-04-04T14:19:51.506Z</time></trkpt><trkpt lat="43.0226483" lon="13.4499317"><ele>304.0</ele><time>2026-04-04T14:19:52.507Z</time></trkpt><trkpt lat="43.0225133" lon="13.4501783"><ele>307.66666666666663</ele><time>2026-04-04T14:19:53.506Z</time></trkpt><trkpt lat="43.02238" lon="13.4503983"><ele>311.3333333333333</ele><time>2026-04-04T14:19:54.507Z</time></trkpt><trkpt lat="43.02223" lon="13.4506"><ele>315.0</ele><time>2026-04-04T14:19:55.506Z</time></trkpt><trkpt lat="43.0220633" lon="13.4508133"><ele>315.0</ele><time>2026-04-04T14:19:56.507Z</time></trkpt><trkpt lat="43.021925" lon="13.4510433"><ele>315.0</ele><time>2026-04-04T14:19:57.506Z</time></trkpt><trkpt lat="43.0218433" lon="13.4513333"><ele>315.0</ele><time>2026-04-04T14:19:58.506Z</time></trkpt><trkpt lat="43.0217817" lon="13.4516333"><ele>312.0</ele><time>2026-04-04T14:19:59.506Z</time></trkpt><trkpt lat="43.02174" lon="13.45196"><ele>309.0</ele><time>2026-04-04T14:20:00.507Z</time></trkpt><trkpt lat="43.0217283" lon="13.4523117"><ele>308.0</ele><time>2026-04-04T14:20:01.507Z</time></trkpt><trkpt lat="43.0217267" lon="13.4526617"><ele>307.0</ele><time>2026-04-04T14:20:02.507Z</time></trkpt><trkpt lat="43.0217217" lon="13.4529967"><ele>303.0</ele><time>2026-04-04T14:20:03.506Z</time></trkpt><trkpt lat="43.0217183" lon="13.4533267"><ele>299.0</ele><time>2026-04-04T14:20:04.507Z</time></trkpt><trkpt lat="43.0217183" lon="13.4536683"><ele>301.5</ele><time>2026-04-04T14:20:05.506Z</time></trkpt><trkpt lat="43.021715" lon="13.4539833"><ele>304.0</ele><time>2026-04-04T14:20:06.506Z</time></trkpt><trkpt lat="43.0217467" lon="13.454285"><ele>304.0</ele><time>2026-04-04T14:20:07.507Z</time></trkpt><trkpt lat="43.021795" lon="13.4545767"><ele>304.0</ele><time>2026-04-04T14:20:08.507Z</time></trkpt><trkpt lat="43.0218583" lon="13.4548533"><ele>304.0</ele><time>2026-04-04T14:20:09.507Z</time></trkpt><trkpt lat="43.0219467" lon="13.4551317"><ele>310.5</ele><time>2026-04-04T14:20:10.506Z</time></trkpt><trkpt lat="43.022045" lon="13.4553967"><ele>317.0</ele><time>2026-04-04T14:20:11.507Z</time></trkpt><trkpt lat="43.0221733" lon="13.4556633"><ele>317.0</ele><time>2026-04-04T14:20:12.506Z</time></trkpt><trkpt lat="43.022295" lon="13.45592"><ele>317.0</ele><time>2026-04-04T14:20:13.506Z</time></trkpt><trkpt lat="43.0224283" lon="13.4561817"><ele>310.33333333333337</ele><time>2026-04-04T14:20:14.507Z</time></trkpt><trkpt lat="43.02255" lon="13.456445"><ele>303.6666666666667</ele><time>2026-04-04T14:20:15.506Z</time></trkpt><trkpt lat="43.02266" lon="13.4566983"><ele>297.0</ele><time>2026-04-04T14:20:16.507Z</time></trkpt><trkpt lat="43.0227717" lon="13.456935"><ele>300.0</ele><time>2026-04-04T14:20:17.506Z</time></trkpt><trkpt lat="43.0229033" lon="13.4571367"><ele>303.0</ele><time>2026-04-04T14:20:18.507Z</time></trkpt><trkpt lat="43.0230533" lon="13.457295"><ele>306.0</ele><time>2026-04-04T14:20:19.506Z</time></trkpt><trkpt lat="43.023215" lon="13.4574017"><ele>303.0</ele><time>2026-04-04T14:20:20.506Z</time></trkpt><trkpt lat="43.02336" lon="13.4574833"><ele>300.0</ele><time>2026-04-04T14:20:21.506Z</time></trkpt><trkpt lat="43.0235017" lon="13.4575333"><ele>297.0</ele><time>2026-04-04T14:20:22.506Z</time></trkpt><trkpt lat="43.0236517" lon="13.457535"><ele>297.0</ele><time>2026-04-04T14:20:23.506Z</time></trkpt><trkpt lat="43.0237933" lon="13.4574983"><ele>297.0</ele><time>2026-04-04T14:20:24.506Z</time></trkpt><trkpt lat="43.0239383" lon="13.4574667"><ele>297.0</ele><time>2026-04-04T14:20:25.506Z</time></trkpt><trkpt lat="43.024075" lon="13.45746"><ele>297.0</ele><time>2026-04-04T14:20:26.506Z</time></trkpt><trkpt lat="43.0242067" lon="13.457495"><ele>297.0</ele><time>2026-04-04T14:20:27.506Z</time></trkpt><trkpt lat="43.0243183" lon="13.45756"><ele>297.0</ele><time>2026-04-04T14:20:28.507Z</time></trkpt><trkpt lat="43.02439" lon="13.4576683"><ele>297.0</ele><time>2026-04-04T14:20:29.507Z</time></trkpt><trkpt lat="43.0244233" lon="13.457785"><ele>297.0</ele><time>2026-04-04T14:20:30.507Z</time></trkpt><trkpt lat="43.0244217" lon="13.457955"><ele>297.0</ele><time>2026-04-04T14:20:31.507Z</time></trkpt><trkpt lat="43.0243617" lon="13.45816"><ele>297.3333333333333</ele><time>2026-04-04T14:20:32.506Z</time></trkpt><trkpt lat="43.0243233" lon="13.4583833"><ele>297.66666666666663</ele><time>2026-04-04T14:20:33.507Z</time></trkpt><trkpt lat="43.0243033" lon="13.45862"><ele>298.0</ele><time>2026-04-04T14:20:34.507Z</time></trkpt><trkpt lat="43.02431" lon="13.45883"><ele>298.75</ele><time>2026-04-04T14:20:35.507Z</time></trkpt><trkpt lat="43.0243667" lon="13.45901"><ele>299.5</ele><time>2026-04-04T14:20:36.507Z</time></trkpt><trkpt lat="43.0244667" lon="13.459155"><ele>300.25</ele><time>2026-04-04T14:20:37.507Z</time></trkpt><trkpt lat="43.0245867" lon="13.4592433"><ele>301.0</ele><time>2026-04-04T14:20:38.507Z</time></trkpt><trkpt lat="43.02473" lon="13.45926"><ele>301.0</ele><time>2026-04-04T14:20:39.506Z</time></trkpt><trkpt lat="43.0248733" lon="13.4592483"><ele>301.0</ele><time>2026-04-04T14:20:40.507Z</time></trkpt><trkpt lat="43.0249933" lon="13.4592367"><ele>301.0</ele><time>2026-04-04T14:20:41.506Z</time></trkpt><trkpt lat="43.0251017" lon="13.4592867"><ele>301.0</ele><time>2026-04-04T14:20:42.507Z</time></trkpt><trkpt lat="43.025205" lon="13.4594083"><ele>300.3333333333333</ele><time>2026-04-04T14:20:43.507Z</time></trkpt><trkpt lat="43.02529" lon="13.4595683"><ele>299.6666666666667</ele><time>2026-04-04T14:20:44.506Z</time></trkpt><trkpt lat="43.0253717" lon="13.4597583"><ele>299.0</ele><time>2026-04-04T14:20:45.506Z</time></trkpt><trkpt lat="43.0254533" lon="13.4599433"><ele>299.0</ele><time>2026-04-04T14:20:46.506Z</time></trkpt><trkpt lat="43.0255367" lon="13.460125"><ele>299.0</ele><time>2026-04-04T14:20:47.507Z</time></trkpt><trkpt lat="43.0256033" lon="13.4603017"><ele>299.0</ele><time>2026-04-04T14:20:48.506Z</time></trkpt><trkpt lat="43.02563" lon="13.4604833"><ele>299.0</ele><time>2026-04-04T14:20:49.507Z</time></trkpt><trkpt lat="43.0256183" lon="13.4606417"><ele>297.25</ele><time>2026-04-04T14:20:50.506Z</time></trkpt><trkpt lat="43.0255533" lon="13.46076"><ele>295.5</ele><time>2026-04-04T14:20:51.506Z</time></trkpt><trkpt lat="43.0254433" lon="13.4608617"><ele>293.75</ele><time>2026-04-04T14:20:52.506Z</time></trkpt><trkpt lat="43.0252983" lon="13.4609617"><ele>292.0</ele><time>2026-04-04T14:20:53.506Z</time></trkpt><trkpt lat="43.02513" lon="13.46106"><ele>292.3333333333333</ele><time>2026-04-04T14:20:54.506Z</time></trkpt><trkpt lat="43.0249683" lon="13.4611683"><ele>292.6666666666667</ele><time>2026-04-04T14:20:55.506Z</time></trkpt><trkpt lat="43.0248167" lon="13.4612833"><ele>293.0</ele><time>2026-04-04T14:20:56.507Z</time></trkpt><trkpt lat="43.0246867" lon="13.4613683"><ele>293.0</ele><time>2026-04-04T14:20:57.507Z</time></trkpt><trkpt lat="43.0245483" lon="13.46138"><ele>293.0</ele><time>2026-04-04T14:20:58.506Z</time></trkpt><trkpt lat="43.0244067" lon="13.4613267"><ele>293.0</ele><time>2026-04-04T14:20:59.506Z</time></trkpt><trkpt lat="43.02426" lon="13.4612217"><ele>294.33333333333337</ele><time>2026-04-04T14:21:00.506Z</time></trkpt><trkpt lat="43.0240983" lon="13.46115"><ele>295.6666666666667</ele><time>2026-04-04T14:21:01.507Z</time></trkpt><trkpt lat="43.0239267" lon="13.461135"><ele>297.0</ele><time>2026-04-04T14:21:02.507Z</time></trkpt><trkpt lat="43.02377" lon="13.4611767"><ele>297.0</ele><time>2026-04-04T14:21:03.506Z</time></trkpt><trkpt lat="43.023625" lon="13.4612667"><ele>297.0</ele><time>2026-04-04T14:21:04.506Z</time></trkpt><trkpt lat="43.0235067" lon="13.461375"><ele>297.0</ele><time>2026-04-04T14:21:05.507Z</time></trkpt><trkpt lat="43.0234417" lon="13.4614983"><ele>297.0</ele><time>2026-04-04T14:21:06.507Z</time></trkpt><trkpt lat="43.0234167" lon="13.4616517"><ele>295.25</ele><time>2026-04-04T14:21:07.507Z</time></trkpt><trkpt lat="43.0234283" lon="13.4618117"><ele>293.5</ele><time>2026-04-04T14:21:08.506Z</time></trkpt><trkpt lat="43.0234817" lon="13.461965"><ele>291.75</ele><time>2026-04-04T14:21:09.506Z</time></trkpt><trkpt lat="43.02356" lon="13.4620733"><ele>290.0</ele><time>2026-04-04T14:21:10.507Z</time></trkpt><trkpt lat="43.0236533" lon="13.4621383"><ele>290.0</ele><time>2026-04-04T14:21:11.507Z</time></trkpt><trkpt lat="43.02376" lon="13.4621633"><ele>290.0</ele><time>2026-04-04T14:21:12.507Z</time></trkpt><trkpt lat="43.0238867" lon="13.4621933"><ele>290.0</ele><time>2026-04-04T14:21:13.506Z</time></trkpt><trkpt lat="43.0240167" lon="13.462245"><ele>290.0</ele><time>2026-04-04T14:21:14.506Z</time></trkpt><trkpt lat="43.0241383" lon="13.462315"><ele>288.75</ele><time>2026-04-04T14:21:15.506Z</time></trkpt><trkpt lat="43.0242483" lon="13.4624083"><ele>287.5</ele><time>2026-04-04T14:21:16.506Z</time></trkpt><trkpt lat="43.0243433" lon="13.462575"><ele>286.25</ele><time>2026-04-04T14:21:17.506Z</time></trkpt><trkpt lat="43.0244467" lon="13.46272"><ele>285.0</ele><time>2026-04-04T14:21:18.507Z</time></trkpt><trkpt lat="43.024575" lon="13.4628267"><ele>285.0</ele><time>2026-04-04T14:21:19.506Z</time></trkpt><trkpt lat="43.02474" lon="13.462885"><ele>285.0</ele><time>2026-04-04T14:21:20.506Z</time></trkpt><trkpt lat="43.0248967" lon="13.46291"><ele>285.0</ele><time>2026-04-04T14:21:21.507Z</time></trkpt><trkpt lat="43.0250467" lon="13.4629267"><ele>285.3333333333333</ele><time>2026-04-04T14:21:22.507Z</time></trkpt><trkpt lat="43.0252017" lon="13.4629533"><ele>285.66666666666663</ele><time>2026-04-04T14:21:23.507Z</time></trkpt><trkpt lat="43.0253483" lon="13.4629983"><ele>286.0</ele><time>2026-04-04T14:21:24.507Z</time></trkpt><trkpt lat="43.0254883" lon="13.4630833"><ele>286.0</ele><time>2026-04-04T14:21:25.507Z</time></trkpt><trkpt lat="43.0255933" lon="13.4632133"><ele>286.0</ele><time>2026-04-04T14:21:26.507Z</time></trkpt><trkpt lat="43.0256967" lon="13.46341"><ele>286.0</ele><time>2026-04-04T14:21:27.506Z</time></trkpt><trkpt lat="43.0258083" lon="13.4636183"><ele>282.3333333333333</ele><time>2026-04-04T14:21:28.506Z</time></trkpt><trkpt lat="43.02592" lon="13.4637833"><ele>278.6666666666667</ele><time>2026-04-04T14:21:29.507Z</time></trkpt><trkpt lat="43.0260167" lon="13.4639667"><ele>275.0</ele><time>2026-04-04T14:21:30.507Z</time></trkpt><trkpt lat="43.026095" lon="13.464165"><ele>275.0</ele><time>2026-04-04T14:21:31.507Z</time></trkpt><trkpt lat="43.0261567" lon="13.4643867"><ele>275.0</ele><time>2026-04-04T14:21:32.507Z</time></trkpt><trkpt lat="43.0262083" lon="13.4646167"><ele>275.0</ele><time>2026-04-04T14:21:33.506Z</time></trkpt><trkpt lat="43.0262683" lon="13.4647983"><ele>277.6666666666667</ele><time>2026-04-04T14:21:34.507Z</time></trkpt><trkpt lat="43.0263617" lon="13.464935"><ele>280.3333333333333</ele><time>2026-04-04T14:21:35.506Z</time></trkpt><trkpt lat="43.026495" lon="13.4650317"><ele>283.0</ele><time>2026-04-04T14:21:36.507Z</time></trkpt><trkpt lat="43.02665" lon="13.46512"><ele>277.0</ele><time>2026-04-04T14:21:37.507Z</time></trkpt><trkpt lat="43.0268083" lon="13.4651667"><ele>271.0</ele><time>2026-04-04T14:21:38.507Z</time></trkpt><trkpt lat="43.0269883" lon="13.4651867"><ele>265.0</ele><time>2026-04-04T14:21:39.507Z</time></trkpt><trkpt lat="43.0271717" lon="13.465225"><ele>265.0</ele><time>2026-04-04T14:21:40.506Z</time></trkpt><trkpt lat="43.02736" lon="13.4652717"><ele>265.0</ele><time>2026-04-04T14:21:41.507Z</time></trkpt><trkpt lat="43.0275367" lon="13.4653067"><ele>265.0</ele><time>2026-04-04T14:21:42.507Z</time></trkpt><trkpt lat="43.02772" lon="13.4653267"><ele>264.66666666666663</ele><time>2026-04-04T14:21:43.506Z</time></trkpt><trkpt lat="43.027895" lon="13.465365"><ele>264.3333333333333</ele><time>2026-04-04T14:21:44.507Z</time></trkpt><trkpt lat="43.028055" lon="13.4653567"><ele>264.0</ele><time>2026-04-04T14:21:45.506Z</time></trkpt><trkpt lat="43.0282067" lon="13.4653233"><ele>264.6666666666667</ele><time>2026-04-04T14:21:46.507Z</time></trkpt><trkpt lat="43.0283517" lon="13.4652517"><ele>265.33333333333337</ele><time>2026-04-04T14:21:47.506Z</time></trkpt><trkpt lat="43.028485" lon="13.4651533"><ele>266.0</ele><time>2026-04-04T14:21:48.507Z</time></trkpt><trkpt lat="43.0286283" lon="13.4650333"><ele>266.0</ele><time>2026-04-04T14:21:49.507Z</time></trkpt><trkpt lat="43.02877" lon="13.464895"><ele>266.0</ele><time>2026-04-04T14:21:50.506Z</time></trkpt><trkpt lat="43.0289183" lon="13.464775"><ele>266.0</ele><time>2026-04-04T14:21:51.507Z</time></trkpt><trkpt lat="43.0290483" lon="13.46467"><ele>263.0</ele><time>2026-04-04T14:21:52.506Z</time></trkpt><trkpt lat="43.0291833" lon="13.464605"><ele>260.0</ele><time>2026-04-04T14:21:53.506Z</time></trkpt><trkpt lat="43.0293383" lon="13.4645633"><ele>257.0</ele><time>2026-04-04T14:21:54.506Z</time></trkpt><trkpt lat="43.0295167" lon="13.46459"><ele>260.6666666666667</ele><time>2026-04-04T14:21:55.506Z</time></trkpt><trkpt lat="43.0296933" lon="13.464665"><ele>264.3333333333333</ele><time>2026-04-04T14:21:56.507Z</time></trkpt><trkpt lat="43.029865" lon="13.46479"><ele>268.0</ele><time>2026-04-04T14:21:57.507Z</time></trkpt><trkpt lat="43.030025" lon="13.464955"><ele>268.0</ele><time>2026-04-04T14:21:58.507Z</time></trkpt><trkpt lat="43.0301683" lon="13.4651317"><ele>268.0</ele><time>2026-04-04T14:21:59.507Z</time></trkpt><trkpt lat="43.0303017" lon="13.465335"><ele>268.0</ele><time>2026-04-04T14:22:00.506Z</time></trkpt><trkpt lat="43.030445" lon="13.4655133"><ele>268.0</ele><time>2026-04-04T14:22:01.506Z</time></trkpt><trkpt lat="43.030585" lon="13.4656717"><ele>268.0</ele><time>2026-04-04T14:22:02.507Z</time></trkpt><trkpt lat="43.030715" lon="13.4658317"><ele>268.0</ele><time>2026-04-04T14:22:03.507Z</time></trkpt><trkpt lat="43.03089" lon="13.4659233"><ele>268.0</ele><time>2026-04-04T14:22:04.506Z</time></trkpt><trkpt lat="43.03106" lon="13.4659733"><ele>268.0</ele><time>2026-04-04T14:22:05.507Z</time></trkpt><trkpt lat="43.0312267" lon="13.4660017"><ele>268.0</ele><time>2026-04-04T14:22:06.506Z</time></trkpt><trkpt lat="43.031395" lon="13.4660383"><ele>268.0</ele><time>2026-04-04T14:22:07.505Z</time></trkpt><trkpt lat="43.0315583" lon="13.4660783"><ele>268.0</ele><time>2026-04-04T14:22:08.505Z</time></trkpt><trkpt lat="43.03171" lon="13.4661567"><ele>268.0</ele><time>2026-04-04T14:22:09.505Z</time></trkpt><trkpt lat="43.031855" lon="13.4662483"><ele>272.0</ele><time>2026-04-04T14:22:10.505Z</time></trkpt><trkpt lat="43.03199" lon="13.46634"><ele>276.0</ele><time>2026-04-04T14:22:11.505Z</time></trkpt><trkpt lat="43.032115" lon="13.4664433"><ele>280.0</ele><time>2026-04-04T14:22:12.506Z</time></trkpt><trkpt lat="43.0322667" lon="13.46651"><ele>280.0</ele><time>2026-04-04T14:22:13.506Z</time></trkpt><trkpt lat="43.0324217" lon="13.4665767"><ele>280.0</ele><time>2026-04-04T14:22:14.505Z</time></trkpt><trkpt lat="43.0325617" lon="13.46664"><ele>280.0</ele><time>2026-04-04T14:22:15.506Z</time></trkpt><trkpt lat="43.0326933" lon="13.4666633"><ele>280.0</ele><time>2026-04-04T14:22:16.506Z</time></trkpt><trkpt lat="43.0328267" lon="13.4666533"><ele>277.3333333333333</ele><time>2026-04-04T14:22:17.505Z</time></trkpt><trkpt lat="43.0329683" lon="13.46663"><ele>274.6666666666667</ele><time>2026-04-04T14:22:18.505Z</time></trkpt><trkpt lat="43.0331133" lon="13.4666067"><ele>272.0</ele><time>2026-04-04T14:22:19.506Z</time></trkpt><trkpt lat="43.0332783" lon="13.4665717"><ele>271.25</ele><time>2026-04-04T14:22:20.505Z</time></trkpt><trkpt lat="43.033415" lon="13.4665133"><ele>270.5</ele><time>2026-04-04T14:22:21.505Z</time></trkpt><trkpt lat="43.0335533" lon="13.4664833"><ele>269.75</ele><time>2026-04-04T14:22:22.506Z</time></trkpt><trkpt lat="43.0336817" lon="13.4664583"><ele>269.0</ele><time>2026-04-04T14:22:23.505Z</time></trkpt><trkpt lat="43.0338217" lon="13.466465"><ele>269.0</ele><time>2026-04-04T14:22:24.506Z</time></trkpt><trkpt lat="43.0339633" lon="13.4664783"><ele>269.0</ele><time>2026-04-04T14:22:25.506Z</time></trkpt><trkpt lat="43.0341283" lon="13.4665"><ele>269.0</ele><time>2026-04-04T14:22:26.506Z</time></trkpt><trkpt lat="43.03431" lon="13.4665317"><ele>269.33333333333337</ele><time>2026-04-04T14:22:27.505Z</time></trkpt><trkpt lat="43.03451" lon="13.466595"><ele>269.6666666666667</ele><time>2026-04-04T14:22:28.506Z</time></trkpt><trkpt lat="43.0347283" lon="13.4666483"><ele>270.0</ele><time>2026-04-04T14:22:29.506Z</time></trkpt><trkpt lat="43.03495" lon="13.4667083"><ele>269.0</ele><time>2026-04-04T14:22:30.505Z</time></trkpt><trkpt lat="43.0351633" lon="13.4667517"><ele>268.0</ele><time>2026-04-04T14:22:31.506Z</time></trkpt><trkpt lat="43.0353833" lon="13.4667817"><ele>267.0</ele><time>2026-04-04T14:22:32.505Z</time></trkpt><trkpt lat="43.03558" lon="13.4668133"><ele>267.0</ele><time>2026-04-04T14:22:33.505Z</time></trkpt><trkpt lat="43.0358017" lon="13.4668233"><ele>267.0</ele><time>2026-04-04T14:22:34.506Z</time></trkpt><trkpt lat="43.036035" lon="13.4668283"><ele>264.5</ele><time>2026-04-04T14:22:35.505Z</time></trkpt><trkpt lat="43.0362783" lon="13.4667867"><ele>262.0</ele><time>2026-04-04T14:22:36.505Z</time></trkpt><trkpt lat="43.03653" lon="13.4667033"><ele>263.0</ele><time>2026-04-04T14:22:37.506Z</time></trkpt><trkpt lat="43.03678" lon="13.4666133"><ele>264.0</ele><time>2026-04-04T14:22:38.505Z</time></trkpt><trkpt lat="43.0370233" lon="13.4665467"><ele>264.0</ele><time>2026-04-04T14:22:39.505Z</time></trkpt><trkpt lat="43.0372483" lon="13.4665067"><ele>264.0</ele><time>2026-04-04T14:22:40.506Z</time></trkpt><trkpt lat="43.037455" lon="13.4665233"><ele>264.0</ele><time>2026-04-04T14:22:41.505Z</time></trkpt><trkpt lat="43.0376633" lon="13.4665517"><ele>265.0</ele><time>2026-04-04T14:22:42.506Z</time></trkpt><trkpt lat="43.0378883" lon="13.4666433"><ele>266.0</ele><time>2026-04-04T14:22:43.505Z</time></trkpt><trkpt lat="43.03813" lon="13.466755"><ele>262.5</ele><time>2026-04-04T14:22:44.506Z</time></trkpt><trkpt lat="43.03837" lon="13.4668667"><ele>259.0</ele><time>2026-04-04T14:22:45.506Z</time></trkpt><trkpt lat="43.0386167" lon="13.4669767"><ele>259.0</ele><time>2026-04-04T14:22:46.505Z</time></trkpt><trkpt lat="43.0388533" lon="13.4670783"><ele>259.0</ele><time>2026-04-04T14:22:47.505Z</time></trkpt><trkpt lat="43.0390983" lon="13.4671733"><ele>259.0</ele><time>2026-04-04T14:22:48.506Z</time></trkpt><trkpt lat="43.0393267" lon="13.4672667"><ele>259.0</ele><time>2026-04-04T14:22:49.506Z</time></trkpt><trkpt lat="43.0395633" lon="13.46734"><ele>259.0</ele><time>2026-04-04T14:22:50.505Z</time></trkpt><trkpt lat="43.03979" lon="13.4674133"><ele>259.0</ele><time>2026-04-04T14:22:51.506Z</time></trkpt><trkpt lat="43.0400133" lon="13.4674867"><ele>257.66666666666663</ele><time>2026-04-04T14:22:52.505Z</time></trkpt><trkpt lat="43.0402317" lon="13.46758"><ele>256.3333333333333</ele><time>2026-04-04T14:22:53.505Z</time></trkpt><trkpt lat="43.0404367" lon="13.4676683"><ele>255.0</ele><time>2026-04-04T14:22:54.506Z</time></trkpt><trkpt lat="43.04063" lon="13.4677617"><ele>255.33333333333331</ele><time>2026-04-04T14:22:55.505Z</time></trkpt><trkpt lat="43.0408033" lon="13.46783"><ele>255.66666666666666</ele><time>2026-04-04T14:22:56.505Z</time></trkpt><trkpt lat="43.04097" lon="13.4679383"><ele>256.0</ele><time>2026-04-04T14:22:57.506Z</time></trkpt><trkpt lat="43.0411133" lon="13.4681067"><ele>256.0</ele><time>2026-04-04T14:22:58.506Z</time></trkpt><trkpt lat="43.04125" lon="13.4683267"><ele>256.0</ele><time>2026-04-04T14:22:59.506Z</time></trkpt><trkpt lat="43.0413633" lon="13.468565"><ele>256.0</ele><time>2026-04-04T14:23:00.506Z</time></trkpt><trkpt lat="43.0414983" lon="13.4688033"><ele>253.0</ele><time>2026-04-04T14:23:01.506Z</time></trkpt><trkpt lat="43.0416517" lon="13.4690317"><ele>250.0</ele><time>2026-04-04T14:23:02.505Z</time></trkpt><trkpt lat="43.0418067" lon="13.469275"><ele>250.0</ele><time>2026-04-04T14:23:03.505Z</time></trkpt><trkpt lat="43.0419567" lon="13.4695017"><ele>250.0</ele><time>2026-04-04T14:23:04.505Z</time></trkpt><trkpt lat="43.0421017" lon="13.469735"><ele>250.0</ele><time>2026-04-04T14:23:05.505Z</time></trkpt><trkpt lat="43.0422617" lon="13.46997"><ele>250.0</ele><time>2026-04-04T14:23:06.506Z</time></trkpt><trkpt lat="43.0424283" lon="13.4702167"><ele>250.0</ele><time>2026-04-04T14:23:07.505Z</time></trkpt><trkpt lat="43.042585" lon="13.47046"><ele>250.0</ele><time>2026-04-04T14:23:08.506Z</time></trkpt><trkpt lat="43.042745" lon="13.4706933"><ele>250.0</ele><time>2026-04-04T14:23:09.505Z</time></trkpt><trkpt lat="43.0428917" lon="13.4708867"><ele>250.0</ele><time>2026-04-04T14:23:10.506Z</time></trkpt><trkpt lat="43.0430683" lon="13.47106"><ele>250.0</ele><time>2026-04-04T14:23:11.506Z</time></trkpt><trkpt lat="43.0432617" lon="13.4711767"><ele>250.0</ele><time>2026-04-04T14:23:12.506Z</time></trkpt><trkpt lat="43.0434633" lon="13.471265"><ele>250.0</ele><time>2026-04-04T14:23:13.505Z</time></trkpt><trkpt lat="43.0436783" lon="13.4713117"><ele>250.66666666666666</ele><time>2026-04-04T14:23:14.505Z</time></trkpt><trkpt lat="43.0438983" lon="13.4713533"><ele>251.33333333333331</ele><time>2026-04-04T14:23:15.505Z</time></trkpt><trkpt lat="43.0441233" lon="13.4713867"><ele>252.0</ele><time>2026-04-04T14:23:16.506Z</time></trkpt><trkpt lat="43.04435" lon="13.4714267"><ele>249.5</ele><time>2026-04-04T14:23:17.506Z</time></trkpt><trkpt lat="43.0445733" lon="13.4714517"><ele>247.0</ele><time>2026-04-04T14:23:18.505Z</time></trkpt><trkpt lat="43.0448133" lon="13.471485"><ele>246.5</ele><time>2026-04-04T14:23:19.506Z</time></trkpt><trkpt lat="43.0450533" lon="13.4715133"><ele>246.0</ele><time>2026-04-04T14:23:20.506Z</time></trkpt><trkpt lat="43.0452917" lon="13.471535"><ele>246.0</ele><time>2026-04-04T14:23:21.506Z</time></trkpt><trkpt lat="43.0455233" lon="13.4715233"><ele>246.0</ele><time>2026-04-04T14:23:22.506Z</time></trkpt><trkpt lat="43.0457433" lon="13.4714717"><ele>245.66666666666669</ele><time>2026-04-04T14:23:23.506Z</time></trkpt><trkpt lat="43.0459633" lon="13.4714083"><ele>245.33333333333334</ele><time>2026-04-04T14:23:24.505Z</time></trkpt><trkpt lat="43.0461683" lon="13.47131"><ele>245.0</ele><time>2026-04-04T14:23:25.505Z</time></trkpt><trkpt lat="43.0463683" lon="13.4711867"><ele>245.0</ele><time>2026-04-04T14:23:26.505Z</time></trkpt><trkpt lat="43.0465683" lon="13.47105"><ele>245.0</ele><time>2026-04-04T14:23:27.505Z</time></trkpt><trkpt lat="43.0467667" lon="13.4709117"><ele>245.0</ele><time>2026-04-04T14:23:28.505Z</time></trkpt><trkpt lat="43.0469667" lon="13.4707817"><ele>245.0</ele><time>2026-04-04T14:23:29.506Z</time></trkpt><trkpt lat="43.047165" lon="13.4706433"><ele>245.0</ele><time>2026-04-04T14:23:30.505Z</time></trkpt><trkpt lat="43.0473667" lon="13.47051"><ele>245.0</ele><time>2026-04-04T14:23:31.506Z</time></trkpt><trkpt lat="43.04758" lon="13.4704"><ele>244.5</ele><time>2026-04-04T14:23:32.505Z</time></trkpt><trkpt lat="43.0478017" lon="13.470315"><ele>244.0</ele><time>2026-04-04T14:23:33.505Z</time></trkpt><trkpt lat="43.04802" lon="13.4702333"><ele>244.0</ele><time>2026-04-04T14:23:34.505Z</time></trkpt><trkpt lat="43.0482417" lon="13.4701567"><ele>244.0</ele><time>2026-04-04T14:23:35.505Z</time></trkpt><trkpt lat="43.048465" lon="13.4700833"><ele>245.0</ele><time>2026-04-04T14:23:36.505Z</time></trkpt><trkpt lat="43.04869" lon="13.4700083"><ele>246.0</ele><time>2026-04-04T14:23:37.506Z</time></trkpt><trkpt lat="43.0489117" lon="13.4699367"><ele>246.0</ele><time>2026-04-04T14:23:38.506Z</time></trkpt><trkpt lat="43.0491233" lon="13.4698633"><ele>246.0</ele><time>2026-04-04T14:23:39.505Z</time></trkpt><trkpt lat="43.04935" lon="13.46981"><ele>246.0</ele><time>2026-04-04T14:23:40.505Z</time></trkpt><trkpt lat="43.0495817" lon="13.46975"><ele>246.0</ele><time>2026-04-04T14:23:41.505Z</time></trkpt><trkpt lat="43.0498067" lon="13.4696833"><ele>246.0</ele><time>2026-04-04T14:23:42.506Z</time></trkpt><trkpt lat="43.05003" lon="13.4696067"><ele>243.5</ele><time>2026-04-04T14:23:43.505Z</time></trkpt><trkpt lat="43.0502483" lon="13.4695483"><ele>241.0</ele><time>2026-04-04T14:23:44.506Z</time></trkpt><trkpt lat="43.05048" lon="13.4695083"><ele>241.0</ele><time>2026-04-04T14:23:45.505Z</time></trkpt><trkpt lat="43.050705" lon="13.46948"><ele>241.0</ele><time>2026-04-04T14:23:46.506Z</time></trkpt><trkpt lat="43.050925" lon="13.469445"><ele>241.0</ele><time>2026-04-04T14:23:47.505Z</time></trkpt><trkpt lat="43.05115" lon="13.4693917"><ele>240.0</ele><time>2026-04-04T14:23:48.506Z</time></trkpt><trkpt lat="43.0513733" lon="13.4693567"><ele>239.0</ele><time>2026-04-04T14:23:49.505Z</time></trkpt><trkpt lat="43.0515983" lon="13.4693167"><ele>239.0</ele><time>2026-04-04T14:23:50.506Z</time></trkpt><trkpt lat="43.0518167" lon="13.4692883"><ele>239.0</ele><time>2026-04-04T14:23:51.506Z</time></trkpt><trkpt lat="43.0520283" lon="13.4692417"><ele>239.0</ele><time>2026-04-04T14:23:52.506Z</time></trkpt><trkpt lat="43.05225" lon="13.4691867"><ele>240.0</ele><time>2026-04-04T14:23:53.505Z</time></trkpt><trkpt lat="43.0524683" lon="13.469135"><ele>241.0</ele><time>2026-04-04T14:23:54.505Z</time></trkpt><trkpt lat="43.0526933" lon="13.469075"><ele>241.0</ele><time>2026-04-04T14:23:55.506Z</time></trkpt><trkpt lat="43.052915" lon="13.46903"><ele>241.0</ele><time>2026-04-04T14:23:56.505Z</time></trkpt><trkpt lat="43.0531417" lon="13.4689933"><ele>241.0</ele><time>2026-04-04T14:23:57.505Z</time></trkpt><trkpt lat="43.0533633" lon="13.4689633"><ele>241.0</ele><time>2026-04-04T14:23:58.506Z</time></trkpt><trkpt lat="43.0535933" lon="13.4689217"><ele>241.0</ele><time>2026-04-04T14:23:59.505Z</time></trkpt><trkpt lat="43.0538217" lon="13.4688933"><ele>241.0</ele><time>2026-04-04T14:24:00.505Z</time></trkpt><trkpt lat="43.0540417" lon="13.468855"><ele>242.5</ele><time>2026-04-04T14:24:01.506Z</time></trkpt><trkpt lat="43.0542717" lon="13.468815"><ele>244.0</ele><time>2026-04-04T14:24:02.505Z</time></trkpt><trkpt lat="43.0544967" lon="13.46877"><ele>242.33333333333331</ele><time>2026-04-04T14:24:03.505Z</time></trkpt><trkpt lat="43.0547083" lon="13.4687167"><ele>240.66666666666669</ele><time>2026-04-04T14:24:04.506Z</time></trkpt><trkpt lat="43.0549333" lon="13.468695"><ele>239.0</ele><time>2026-04-04T14:24:05.505Z</time></trkpt><trkpt lat="43.0551483" lon="13.4686733"><ele>239.0</ele><time>2026-04-04T14:24:06.505Z</time></trkpt><trkpt lat="43.0553533" lon="13.468635"><ele>239.0</ele><time>2026-04-04T14:24:07.505Z</time></trkpt><trkpt lat="43.0555483" lon="13.4686117"><ele>239.0</ele><time>2026-04-04T14:24:08.506Z</time></trkpt><trkpt lat="43.0557417" lon="13.4686183"><ele>238.66666666666669</ele><time>2026-04-04T14:24:09.506Z</time></trkpt><trkpt lat="43.0559333" lon="13.4687083"><ele>238.33333333333331</ele><time>2026-04-04T14:24:10.506Z</time></trkpt><trkpt lat="43.0561017" lon="13.4688367"><ele>238.0</ele><time>2026-04-04T14:24:11.505Z</time></trkpt><trkpt lat="43.0562717" lon="13.4689933"><ele>238.0</ele><time>2026-04-04T14:24:12.506Z</time></trkpt><trkpt lat="43.0564267" lon="13.469205"><ele>238.0</ele><time>2026-04-04T14:24:13.505Z</time></trkpt><trkpt lat="43.05659" lon="13.4694117"><ele>238.0</ele><time>2026-04-04T14:24:14.506Z</time></trkpt><trkpt lat="43.056745" lon="13.4696233"><ele>237.5</ele><time>2026-04-04T14:24:15.505Z</time></trkpt><trkpt lat="43.0569083" lon="13.46983"><ele>237.0</ele><time>2026-04-04T14:24:16.505Z</time></trkpt><trkpt lat="43.0570867" lon="13.4700567"><ele>237.0</ele><time>2026-04-04T14:24:17.506Z</time></trkpt><trkpt lat="43.0572583" lon="13.4702583"><ele>237.0</ele><time>2026-04-04T14:24:18.505Z</time></trkpt><trkpt lat="43.0574417" lon="13.4704583"><ele>237.0</ele><time>2026-04-04T14:24:19.506Z</time></trkpt><trkpt lat="43.0576183" lon="13.4706583"><ele>237.0</ele><time>2026-04-04T14:24:20.505Z</time></trkpt><trkpt lat="43.05779" lon="13.4708567"><ele>237.0</ele><time>2026-04-04T14:24:21.506Z</time></trkpt><trkpt lat="43.057965" lon="13.47106"><ele>237.0</ele><time>2026-04-04T14:24:22.506Z</time></trkpt><trkpt lat="43.0581433" lon="13.4712683"><ele>236.66666666666669</ele><time>2026-04-04T14:24:23.506Z</time></trkpt><trkpt lat="43.058325" lon="13.4714517"><ele>236.33333333333334</ele><time>2026-04-04T14:24:24.505Z</time></trkpt><trkpt lat="43.0585033" lon="13.4716183"><ele>236.0</ele><time>2026-04-04T14:24:25.505Z</time></trkpt><trkpt lat="43.0586917" lon="13.47175"><ele>236.0</ele><time>2026-04-04T14:24:26.505Z</time></trkpt><trkpt lat="43.0588917" lon="13.4718517"><ele>236.0</ele><time>2026-04-04T14:24:27.506Z</time></trkpt><trkpt lat="43.0591017" lon="13.4719183"><ele>236.0</ele><time>2026-04-04T14:24:28.506Z</time></trkpt><trkpt lat="43.059315" lon="13.471925"><ele>234.5</ele><time>2026-04-04T14:24:29.505Z</time></trkpt><trkpt lat="43.0595383" lon="13.471915"><ele>233.0</ele><time>2026-04-04T14:24:30.506Z</time></trkpt><trkpt lat="43.05976" lon="13.4718467"><ele>232.5</ele><time>2026-04-04T14:24:31.505Z</time></trkpt><trkpt lat="43.0599883" lon="13.47174"><ele>232.0</ele><time>2026-04-04T14:24:32.506Z</time></trkpt><trkpt lat="43.0602333" lon="13.4716033"><ele>232.0</ele><time>2026-04-04T14:24:33.506Z</time></trkpt><trkpt lat="43.0604917" lon="13.4714633"><ele>232.0</ele><time>2026-04-04T14:24:34.506Z</time></trkpt><trkpt lat="43.0607417" lon="13.4713117"><ele>231.0</ele><time>2026-04-04T14:24:35.505Z</time></trkpt><trkpt lat="43.0609667" lon="13.4711867"><ele>230.0</ele><time>2026-04-04T14:24:36.506Z</time></trkpt><trkpt lat="43.0611567" lon="13.4710867"><ele>229.0</ele><time>2026-04-04T14:24:37.505Z</time></trkpt><trkpt lat="43.0613317" lon="13.4709967"><ele>229.0</ele><time>2026-04-04T14:24:38.506Z</time></trkpt><trkpt lat="43.0614983" lon="13.4709567"><ele>229.0</ele><time>2026-04-04T14:24:39.505Z</time></trkpt><trkpt lat="43.0616567" lon="13.4709467"><ele>229.0</ele><time>2026-04-04T14:24:40.505Z</time></trkpt><trkpt lat="43.061795" lon="13.4710017"><ele>228.0</ele><time>2026-04-04T14:24:41.505Z</time></trkpt><trkpt lat="43.0619117" lon="13.4711367"><ele>227.0</ele><time>2026-04-04T14:24:42.505Z</time></trkpt><trkpt lat="43.0620133" lon="13.47131"><ele>226.0</ele><time>2026-04-04T14:24:43.505Z</time></trkpt><trkpt lat="43.0621533" lon="13.471455"><ele>226.33333333333331</ele><time>2026-04-04T14:24:44.505Z</time></trkpt><trkpt lat="43.0623167" lon="13.471585"><ele>226.66666666666669</ele><time>2026-04-04T14:24:45.505Z</time></trkpt><trkpt lat="43.062515" lon="13.4716733"><ele>227.0</ele><time>2026-04-04T14:24:46.505Z</time></trkpt><trkpt lat="43.0627017" lon="13.4717317"><ele>227.0</ele><time>2026-04-04T14:24:47.505Z</time></trkpt><trkpt lat="43.0629217" lon="13.4717567"><ele>227.0</ele><time>2026-04-04T14:24:48.505Z</time></trkpt><trkpt lat="43.06315" lon="13.471765"><ele>227.0</ele><time>2026-04-04T14:24:49.505Z</time></trkpt><trkpt lat="43.0633833" lon="13.47176"><ele>227.5</ele><time>2026-04-04T14:24:50.506Z</time></trkpt><trkpt lat="43.0636267" lon="13.4717483"><ele>228.0</ele><time>2026-04-04T14:24:51.506Z</time></trkpt><trkpt lat="43.063865" lon="13.4717183"><ele>228.0</ele><time>2026-04-04T14:24:52.505Z</time></trkpt><trkpt lat="43.0641033" lon="13.4716433"><ele>228.0</ele><time>2026-04-04T14:24:53.506Z</time></trkpt><trkpt lat="43.0643" lon="13.4715617"><ele>228.66666666666669</ele><time>2026-04-04T14:24:54.505Z</time></trkpt><trkpt lat="43.0645067" lon="13.4714583"><ele>229.33333333333334</ele><time>2026-04-04T14:24:55.506Z</time></trkpt><trkpt lat="43.0647117" lon="13.47132"><ele>230.0</ele><time>2026-04-04T14:24:56.506Z</time></trkpt><trkpt lat="43.0648817" lon="13.4712217"><ele>226.66666666666669</ele><time>2026-04-04T14:24:57.506Z</time></trkpt><trkpt lat="43.06505" lon="13.471135"><ele>223.33333333333331</ele><time>2026-04-04T14:24:58.506Z</time></trkpt><trkpt lat="43.0651983" lon="13.471095"><ele>220.0</ele><time>2026-04-04T14:24:59.506Z</time></trkpt><trkpt lat="43.065365" lon="13.4710983"><ele>220.0</ele><time>2026-04-04T14:25:00.505Z</time></trkpt><trkpt lat="43.0655433" lon="13.4711367"><ele>220.0</ele><time>2026-04-04T14:25:01.505Z</time></trkpt><trkpt lat="43.0657383" lon="13.4712167"><ele>220.0</ele><time>2026-04-04T14:25:02.506Z</time></trkpt><trkpt lat="43.0659367" lon="13.4712983"><ele>227.33333333333331</ele><time>2026-04-04T14:25:03.505Z</time></trkpt><trkpt lat="43.0661417" lon="13.471375"><ele>234.66666666666669</ele><time>2026-04-04T14:25:04.505Z</time></trkpt><trkpt lat="43.066365" lon="13.471435"><ele>242.0</ele><time>2026-04-04T14:25:05.506Z</time></trkpt><trkpt lat="43.0665867" lon="13.4715"><ele>236.0</ele><time>2026-04-04T14:25:06.505Z</time></trkpt><trkpt lat="43.0668183" lon="13.471545"><ele>230.0</ele><time>2026-04-04T14:25:07.505Z</time></trkpt><trkpt lat="43.0670533" lon="13.4715767"><ele>230.0</ele><time>2026-04-04T14:25:08.506Z</time></trkpt><trkpt lat="43.0672883" lon="13.4716017"><ele>230.0</ele><time>2026-04-04T14:25:09.505Z</time></trkpt><trkpt lat="43.0675167" lon="13.4716067"><ele>231.5</ele><time>2026-04-04T14:25:10.505Z</time></trkpt><trkpt lat="43.0677617" lon="13.4715883"><ele>233.0</ele><time>2026-04-04T14:25:11.505Z</time></trkpt><trkpt lat="43.067985" lon="13.471565"><ele>233.0</ele><time>2026-04-04T14:25:12.506Z</time></trkpt><trkpt lat="43.068215" lon="13.4715367"><ele>233.0</ele><time>2026-04-04T14:25:13.506Z</time></trkpt><trkpt lat="43.0684583" lon="13.47152"><ele>233.0</ele><time>2026-04-04T14:25:14.506Z</time></trkpt><trkpt lat="43.0686833" lon="13.4715017"><ele>233.0</ele><time>2026-04-04T14:25:15.505Z</time></trkpt><trkpt lat="43.0688983" lon="13.471515"><ele>233.0</ele><time>2026-04-04T14:25:16.506Z</time></trkpt><trkpt lat="43.0691317" lon="13.4715483"><ele>232.0</ele><time>2026-04-04T14:25:17.505Z</time></trkpt><trkpt lat="43.0693383" lon="13.4715517"><ele>231.0</ele><time>2026-04-04T14:25:18.506Z</time></trkpt><trkpt lat="43.0695467" lon="13.4715733"><ele>230.0</ele><time>2026-04-04T14:25:19.505Z</time></trkpt><trkpt lat="43.0697717" lon="13.4716067"><ele>228.0</ele><time>2026-04-04T14:25:20.505Z</time></trkpt><trkpt lat="43.0699733" lon="13.4716283"><ele>226.0</ele><time>2026-04-04T14:25:21.505Z</time></trkpt><trkpt lat="43.07012" lon="13.4716267"><ele>224.0</ele><time>2026-04-04T14:25:22.505Z</time></trkpt><trkpt lat="43.0703217" lon="13.4717117"><ele>224.0</ele><time>2026-04-04T14:25:23.505Z</time></trkpt><trkpt lat="43.0705217" lon="13.4718533"><ele>224.0</ele><time>2026-04-04T14:25:24.505Z</time></trkpt><trkpt lat="43.0706983" lon="13.4719767"><ele>224.0</ele><time>2026-04-04T14:25:25.505Z</time></trkpt><trkpt lat="43.0708717" lon="13.47214"><ele>229.66666666666669</ele><time>2026-04-04T14:25:26.506Z</time></trkpt><trkpt lat="43.0710367" lon="13.472335"><ele>235.33333333333331</ele><time>2026-04-04T14:25:27.506Z</time></trkpt><trkpt lat="43.0712167" lon="13.4725233"><ele>241.0</ele><time>2026-04-04T14:25:28.505Z</time></trkpt><trkpt lat="43.071395" lon="13.47271"><ele>241.0</ele><time>2026-04-04T14:25:29.506Z</time></trkpt><trkpt lat="43.0715833" lon="13.472895"><ele>241.0</ele><time>2026-04-04T14:25:30.505Z</time></trkpt><trkpt lat="43.0717817" lon="13.4730917"><ele>238.5</ele><time>2026-04-04T14:25:31.505Z</time></trkpt><trkpt lat="43.0719683" lon="13.4732867"><ele>236.0</ele><time>2026-04-04T14:25:32.506Z</time></trkpt><trkpt lat="43.0721617" lon="13.473485"><ele>236.0</ele><time>2026-04-04T14:25:33.505Z</time></trkpt><trkpt lat="43.0723433" lon="13.4736733"><ele>236.0</ele><time>2026-04-04T14:25:34.506Z</time></trkpt><trkpt lat="43.0725517" lon="13.4738683"><ele>228.0</ele><time>2026-04-04T14:25:35.506Z</time></trkpt><trkpt lat="43.07274" lon="13.4740867"><ele>220.0</ele><time>2026-04-04T14:25:36.506Z</time></trkpt><trkpt lat="43.07291" lon="13.4742867"><ele>220.0</ele><time>2026-04-04T14:25:37.505Z</time></trkpt><trkpt lat="43.07307" lon="13.4745017"><ele>220.0</ele><time>2026-04-04T14:25:38.506Z</time></trkpt><trkpt lat="43.0732083" lon="13.474725"><ele>220.0</ele><time>2026-04-04T14:25:39.506Z</time></trkpt><trkpt lat="43.073335" lon="13.4749583"><ele>219.33333333333331</ele><time>2026-04-04T14:25:40.505Z</time></trkpt><trkpt lat="43.0734167" lon="13.4752367"><ele>218.66666666666669</ele><time>2026-04-04T14:25:41.505Z</time></trkpt><trkpt lat="43.073475" lon="13.4755367"><ele>218.0</ele><time>2026-04-04T14:25:42.506Z</time></trkpt><trkpt lat="43.0735067" lon="13.47585"><ele>219.66666666666669</ele><time>2026-04-04T14:25:43.505Z</time></trkpt><trkpt lat="43.0735617" lon="13.47614"><ele>221.33333333333331</ele><time>2026-04-04T14:25:44.505Z</time></trkpt><trkpt lat="43.0736083" lon="13.4764233"><ele>223.0</ele><time>2026-04-04T14:25:45.506Z</time></trkpt><trkpt lat="43.0736483" lon="13.4766967"><ele>223.66666666666666</ele><time>2026-04-04T14:25:46.505Z</time></trkpt><trkpt lat="43.073675" lon="13.4769633"><ele>224.33333333333331</ele><time>2026-04-04T14:25:47.506Z</time></trkpt><trkpt lat="43.0736817" lon="13.4772233"><ele>225.0</ele><time>2026-04-04T14:25:48.506Z</time></trkpt><trkpt lat="43.0736533" lon="13.4774333"><ele>226.33333333333331</ele><time>2026-04-04T14:25:49.506Z</time></trkpt><trkpt lat="43.0736" lon="13.4776267"><ele>227.66666666666666</ele><time>2026-04-04T14:25:50.505Z</time></trkpt><trkpt lat="43.0735483" lon="13.4778467"><ele>229.0</ele><time>2026-04-04T14:25:51.505Z</time></trkpt><trkpt lat="43.0735083" lon="13.47809"><ele>229.0</ele><time>2026-04-04T14:25:52.505Z</time></trkpt><trkpt lat="43.0734867" lon="13.4783483"><ele>229.0</ele><time>2026-04-04T14:25:53.506Z</time></trkpt><trkpt lat="43.0734967" lon="13.4786217"><ele>229.0</ele><time>2026-04-04T14:25:54.505Z</time></trkpt><trkpt lat="43.073535" lon="13.478895"><ele>230.66666666666666</ele><time>2026-04-04T14:25:55.506Z</time></trkpt><trkpt lat="43.0735933" lon="13.47917"><ele>232.33333333333331</ele><time>2026-04-04T14:25:56.506Z</time></trkpt><trkpt lat="43.0736983" lon="13.4794517"><ele>234.0</ele><time>2026-04-04T14:25:57.505Z</time></trkpt><trkpt lat="43.0738017" lon="13.4797117"><ele>235.0</ele><time>2026-04-04T14:25:58.506Z</time></trkpt><trkpt lat="43.0739417" lon="13.4799367"><ele>236.0</ele><time>2026-04-04T14:25:59.505Z</time></trkpt><trkpt lat="43.0740817" lon="13.4801533"><ele>237.0</ele><time>2026-04-04T14:26:00.505Z</time></trkpt><trkpt lat="43.07422" lon="13.4803683"><ele>233.0</ele><time>2026-04-04T14:26:01.506Z</time></trkpt><trkpt lat="43.0743533" lon="13.480555"><ele>229.0</ele><time>2026-04-04T14:26:02.506Z</time></trkpt><trkpt lat="43.0744683" lon="13.4807283"><ele>225.0</ele><time>2026-04-04T14:26:03.506Z</time></trkpt><trkpt lat="43.0745933" lon="13.48092"><ele>225.0</ele><time>2026-04-04T14:26:04.505Z</time></trkpt><trkpt lat="43.0746983" lon="13.4811067"><ele>225.0</ele><time>2026-04-04T14:26:05.505Z</time></trkpt><trkpt lat="43.0747583" lon="13.4813"><ele>225.0</ele><time>2026-04-04T14:26:06.506Z</time></trkpt><trkpt lat="43.074745" lon="13.48149"><ele>226.0</ele><time>2026-04-04T14:26:07.506Z</time></trkpt><trkpt lat="43.0747167" lon="13.48169"><ele>227.0</ele><time>2026-04-04T14:26:08.506Z</time></trkpt><trkpt lat="43.0746733" lon="13.481895"><ele>228.0</ele><time>2026-04-04T14:26:09.505Z</time></trkpt><trkpt lat="43.0746233" lon="13.48209"><ele>227.33333333333331</ele><time>2026-04-04T14:26:10.505Z</time></trkpt><trkpt lat="43.074625" lon="13.4823117"><ele>226.66666666666666</ele><time>2026-04-04T14:26:11.505Z</time></trkpt><trkpt lat="43.0746683" lon="13.4825217"><ele>226.0</ele><time>2026-04-04T14:26:12.505Z</time></trkpt><trkpt lat="43.0747417" lon="13.4827383"><ele>225.33333333333331</ele><time>2026-04-04T14:26:13.505Z</time></trkpt><trkpt lat="43.0748283" lon="13.48295"><ele>224.66666666666669</ele><time>2026-04-04T14:26:14.506Z</time></trkpt><trkpt lat="43.0749233" lon="13.483185"><ele>224.0</ele><time>2026-04-04T14:26:15.505Z</time></trkpt><trkpt lat="43.0750233" lon="13.4834317"><ele>224.0</ele><time>2026-04-04T14:26:16.505Z</time></trkpt><trkpt lat="43.075125" lon="13.4836633"><ele>224.0</ele><time>2026-04-04T14:26:17.506Z</time></trkpt><trkpt lat="43.075235" lon="13.4838967"><ele>224.0</ele><time>2026-04-04T14:26:18.505Z</time></trkpt><trkpt lat="43.0753483" lon="13.4841167"><ele>225.0</ele><time>2026-04-04T14:26:19.505Z</time></trkpt><trkpt lat="43.0754817" lon="13.4843267"><ele>226.0</ele><time>2026-04-04T14:26:20.505Z</time></trkpt><trkpt lat="43.0755983" lon="13.4845317"><ele>227.0</ele><time>2026-04-04T14:26:21.506Z</time></trkpt><trkpt lat="43.075705" lon="13.484755"><ele>226.33333333333334</ele><time>2026-04-04T14:26:22.505Z</time></trkpt><trkpt lat="43.0758033" lon="13.48494"><ele>225.66666666666669</ele><time>2026-04-04T14:26:23.505Z</time></trkpt><trkpt lat="43.0759117" lon="13.4851483"><ele>225.0</ele><time>2026-04-04T14:26:24.505Z</time></trkpt><trkpt lat="43.0760183" lon="13.4853583"><ele>224.66666666666669</ele><time>2026-04-04T14:26:25.505Z</time></trkpt><trkpt lat="43.0761233" lon="13.4855383"><ele>224.33333333333334</ele><time>2026-04-04T14:26:26.506Z</time></trkpt><trkpt lat="43.07623" lon="13.4857167"><ele>224.0</ele><time>2026-04-04T14:26:27.505Z</time></trkpt><trkpt lat="43.0763483" lon="13.485905"><ele>224.0</ele><time>2026-04-04T14:26:28.505Z</time></trkpt><trkpt lat="43.0764633" lon="13.4860933"><ele>224.0</ele><time>2026-04-04T14:26:29.506Z</time></trkpt><trkpt lat="43.0765633" lon="13.4862633"><ele>224.0</ele><time>2026-04-04T14:26:30.505Z</time></trkpt><trkpt lat="43.076655" lon="13.4864367"><ele>224.0</ele><time>2026-04-04T14:26:31.506Z</time></trkpt><trkpt lat="43.076755" lon="13.486615"><ele>224.0</ele><time>2026-04-04T14:26:32.505Z</time></trkpt><trkpt lat="43.0768517" lon="13.4868017"><ele>224.0</ele><time>2026-04-04T14:26:33.505Z</time></trkpt><trkpt lat="43.0769533" lon="13.4869833"><ele>224.33333333333334</ele><time>2026-04-04T14:26:34.506Z</time></trkpt><trkpt lat="43.07705" lon="13.4871517"><ele>224.66666666666669</ele><time>2026-04-04T14:26:35.505Z</time></trkpt><trkpt lat="43.0771467" lon="13.48732"><ele>225.0</ele><time>2026-04-04T14:26:36.505Z</time></trkpt><trkpt lat="43.0772417" lon="13.4875033"><ele>225.0</ele><time>2026-04-04T14:26:37.504Z</time></trkpt><trkpt lat="43.0773283" lon="13.4876733"><ele>225.0</ele><time>2026-04-04T14:26:38.505Z</time></trkpt><trkpt lat="43.0774183" lon="13.487845"><ele>225.0</ele><time>2026-04-04T14:26:39.505Z</time></trkpt><trkpt lat="43.0775033" lon="13.4880117"><ele>225.0</ele><time>2026-04-04T14:26:40.504Z</time></trkpt><trkpt lat="43.07758" lon="13.48816"><ele>225.0</ele><time>2026-04-04T14:26:41.504Z</time></trkpt><trkpt lat="43.0776583" lon="13.4883133"><ele>225.0</ele><time>2026-04-04T14:26:42.504Z</time></trkpt><trkpt lat="43.07774" lon="13.4884633"><ele>225.0</ele><time>2026-04-04T14:26:43.505Z</time></trkpt><trkpt lat="43.0778233" lon="13.4886067"><ele>225.0</ele><time>2026-04-04T14:26:44.504Z</time></trkpt><trkpt lat="43.0779083" lon="13.4887333"><ele>225.0</ele><time>2026-04-04T14:26:45.505Z</time></trkpt><trkpt lat="43.078" lon="13.4888467"><ele>225.0</ele><time>2026-04-04T14:26:46.504Z</time></trkpt><trkpt lat="43.0781017" lon="13.4889717"><ele>225.0</ele><time>2026-04-04T14:26:47.505Z</time></trkpt><trkpt lat="43.0782167" lon="13.48909"><ele>224.0</ele><time>2026-04-04T14:26:48.504Z</time></trkpt><trkpt lat="43.0783483" lon="13.4892083"><ele>223.0</ele><time>2026-04-04T14:26:49.504Z</time></trkpt><trkpt lat="43.0784917" lon="13.4893217"><ele>222.0</ele><time>2026-04-04T14:26:50.504Z</time></trkpt><trkpt lat="43.07865" lon="13.4894167"><ele>222.0</ele><time>2026-04-04T14:26:51.505Z</time></trkpt><trkpt lat="43.0788167" lon="13.4895033"><ele>222.0</ele><time>2026-04-04T14:26:52.504Z</time></trkpt><trkpt lat="43.078985" lon="13.4895783"><ele>222.0</ele><time>2026-04-04T14:26:53.505Z</time></trkpt><trkpt lat="43.0791417" lon="13.4896467"><ele>221.66666666666669</ele><time>2026-04-04T14:26:54.505Z</time></trkpt><trkpt lat="43.0793117" lon="13.4897083"><ele>221.33333333333334</ele><time>2026-04-04T14:26:55.505Z</time></trkpt><trkpt lat="43.0794833" lon="13.4897733"><ele>221.0</ele><time>2026-04-04T14:26:56.504Z</time></trkpt><trkpt lat="43.0796383" lon="13.4898417"><ele>221.0</ele><time>2026-04-04T14:26:57.504Z</time></trkpt><trkpt lat="43.0797817" lon="13.4899233"><ele>221.0</ele><time>2026-04-04T14:26:58.504Z</time></trkpt><trkpt lat="43.0799217" lon="13.4899933"><ele>221.0</ele><time>2026-04-04T14:26:59.504Z</time></trkpt><trkpt lat="43.0800617" lon="13.4900583"><ele>220.4</ele><time>2026-04-04T14:27:00.505Z</time></trkpt><trkpt lat="43.080185" lon="13.4901333"><ele>219.8</ele><time>2026-04-04T14:27:01.505Z</time></trkpt><trkpt lat="43.0802717" lon="13.4902067"><ele>219.20000000000002</ele><time>2026-04-04T14:27:02.505Z</time></trkpt><trkpt lat="43.0803517" lon="13.4902533"><ele>218.60000000000002</ele><time>2026-04-04T14:27:03.504Z</time></trkpt><trkpt lat="43.0804117" lon="13.4902917"><ele>218.0</ele><time>2026-04-04T14:27:04.504Z</time></trkpt><trkpt lat="43.0804683" lon="13.49033"><ele>218.0</ele><time>2026-04-04T14:27:05.505Z</time></trkpt><trkpt lat="43.0805267" lon="13.4903667"><ele>218.0</ele><time>2026-04-04T14:27:06.504Z</time></trkpt><trkpt lat="43.0806433" lon="13.49046"><ele>218.0</ele><time>2026-04-04T14:27:08.504Z</time></trkpt><trkpt lat="43.0807117" lon="13.49052"><ele>218.0</ele><time>2026-04-04T14:27:09.505Z</time></trkpt><trkpt lat="43.08079" lon="13.4905817"><ele>218.0</ele><time>2026-04-04T14:27:10.505Z</time></trkpt><trkpt lat="43.0808717" lon="13.4906433"><ele>217.75</ele><time>2026-04-04T14:27:11.505Z</time></trkpt><trkpt lat="43.0809633" lon="13.4907083"><ele>217.5</ele><time>2026-04-04T14:27:12.504Z</time></trkpt><trkpt lat="43.0810617" lon="13.4907933"><ele>217.25</ele><time>2026-04-04T14:27:13.504Z</time></trkpt><trkpt lat="43.081165" lon="13.490875"><ele>217.0</ele><time>2026-04-04T14:27:14.504Z</time></trkpt><trkpt lat="43.0812733" lon="13.4909517"><ele>217.0</ele><time>2026-04-04T14:27:15.505Z</time></trkpt><trkpt lat="43.0813817" lon="13.491035"><ele>217.0</ele><time>2026-04-04T14:27:16.504Z</time></trkpt><trkpt lat="43.081495" lon="13.4911233"><ele>217.0</ele><time>2026-04-04T14:27:17.504Z</time></trkpt><trkpt lat="43.0815933" lon="13.4912067"><ele>217.0</ele><time>2026-04-04T14:27:18.504Z</time></trkpt><trkpt lat="43.0816683" lon="13.4912983"><ele>216.5</ele><time>2026-04-04T14:27:19.504Z</time></trkpt><trkpt lat="43.0817817" lon="13.4914"><ele>216.0</ele><time>2026-04-04T14:27:20.504Z</time></trkpt><trkpt lat="43.08185" lon="13.4915217"><ele>215.5</ele><time>2026-04-04T14:27:21.504Z</time></trkpt><trkpt lat="43.08189" lon="13.4916567"><ele>215.0</ele><time>2026-04-04T14:27:22.505Z</time></trkpt><trkpt lat="43.0819367" lon="13.4918017"><ele>215.0</ele><time>2026-04-04T14:27:23.505Z</time></trkpt><trkpt lat="43.0819817" lon="13.49194"><ele>215.0</ele><time>2026-04-04T14:27:24.504Z</time></trkpt><trkpt lat="43.0820267" lon="13.49209"><ele>215.0</ele><time>2026-04-04T14:27:25.504Z</time></trkpt><trkpt lat="43.0820783" lon="13.492235"><ele>215.0</ele><time>2026-04-04T14:27:26.505Z</time></trkpt><trkpt lat="43.0821083" lon="13.49238"><ele>215.00000000000003</ele><time>2026-04-04T14:27:27.505Z</time></trkpt><trkpt lat="43.0821417" lon="13.4925133"><ele>215.0</ele><time>2026-04-04T14:27:28.504Z</time></trkpt><trkpt lat="43.0821833" lon="13.49263"><ele>215.0</ele><time>2026-04-04T14:27:29.504Z</time></trkpt><trkpt lat="43.0822283" lon="13.4927317"><ele>215.0</ele><time>2026-04-04T14:27:30.505Z</time></trkpt><trkpt lat="43.082265" lon="13.4928167"><ele>215.00000000000003</ele><time>2026-04-04T14:27:31.504Z</time></trkpt><trkpt lat="43.0822983" lon="13.4928983"><ele>215.0</ele><time>2026-04-04T14:27:32.504Z</time></trkpt><trkpt lat="43.0823317" lon="13.492985"><ele>215.0</ele><time>2026-04-04T14:27:33.504Z</time></trkpt><trkpt lat="43.0823633" lon="13.4930817"><ele>215.0</ele><time>2026-04-04T14:27:34.505Z</time></trkpt><trkpt lat="43.0823967" lon="13.4932"><ele>215.0</ele><time>2026-04-04T14:27:35.505Z</time></trkpt><trkpt lat="43.0824317" lon="13.49332"><ele>215.0</ele><time>2026-04-04T14:27:36.504Z</time></trkpt><trkpt lat="43.0824817" lon="13.4934667"><ele>215.0</ele><time>2026-04-04T14:27:37.504Z</time></trkpt><trkpt lat="43.0825367" lon="13.493625"><ele>214.0</ele><time>2026-04-04T14:27:38.505Z</time></trkpt><trkpt lat="43.082615" lon="13.493815"><ele>213.0</ele><time>2026-04-04T14:27:39.505Z</time></trkpt><trkpt lat="43.0826917" lon="13.4940417"><ele>212.0</ele><time>2026-04-04T14:27:40.504Z</time></trkpt><trkpt lat="43.0827917" lon="13.4943033"><ele>212.0</ele><time>2026-04-04T14:27:41.505Z</time></trkpt><trkpt lat="43.0828867" lon="13.4945933"><ele>212.0</ele><time>2026-04-04T14:27:42.504Z</time></trkpt><trkpt lat="43.0830017" lon="13.4948933"><ele>212.0</ele><time>2026-04-04T14:27:43.504Z</time></trkpt><trkpt lat="43.0831083" lon="13.4951983"><ele>212.0</ele><time>2026-04-04T14:27:44.505Z</time></trkpt><trkpt lat="43.0832133" lon="13.4954733"><ele>209.5</ele><time>2026-04-04T14:27:45.505Z</time></trkpt><trkpt lat="43.0833133" lon="13.495755"><ele>207.0</ele><time>2026-04-04T14:27:46.504Z</time></trkpt><trkpt lat="43.0834117" lon="13.49603"><ele>207.0</ele><time>2026-04-04T14:27:47.504Z</time></trkpt><trkpt lat="43.0835017" lon="13.4963033"><ele>207.0</ele><time>2026-04-04T14:27:48.504Z</time></trkpt><trkpt lat="43.0835933" lon="13.4965633"><ele>207.0</ele><time>2026-04-04T14:27:49.505Z</time></trkpt><trkpt lat="43.0836867" lon="13.4968133"><ele>207.0</ele><time>2026-04-04T14:27:50.504Z</time></trkpt><trkpt lat="43.0837867" lon="13.4970533"><ele>207.0</ele><time>2026-04-04T14:27:51.504Z</time></trkpt><trkpt lat="43.0838883" lon="13.497265"><ele>207.0</ele><time>2026-04-04T14:27:52.504Z</time></trkpt><trkpt lat="43.0840067" lon="13.497455"><ele>204.0</ele><time>2026-04-04T14:27:53.504Z</time></trkpt><trkpt lat="43.0841467" lon="13.4976167"><ele>201.0</ele><time>2026-04-04T14:27:54.505Z</time></trkpt><trkpt lat="43.0843033" lon="13.4977683"><ele>198.0</ele><time>2026-04-04T14:27:55.504Z</time></trkpt><trkpt lat="43.0844867" lon="13.4979017"><ele>197.66666666666669</ele><time>2026-04-04T14:27:56.505Z</time></trkpt><trkpt lat="43.084675" lon="13.4979833"><ele>197.33333333333334</ele><time>2026-04-04T14:27:57.505Z</time></trkpt><trkpt lat="43.08488" lon="13.49802"><ele>197.0</ele><time>2026-04-04T14:27:58.505Z</time></trkpt><trkpt lat="43.0850917" lon="13.4980233"><ele>193.66666666666669</ele><time>2026-04-04T14:27:59.504Z</time></trkpt><trkpt lat="43.085295" lon="13.4980217"><ele>190.33333333333334</ele><time>2026-04-04T14:28:00.504Z</time></trkpt><trkpt lat="43.0855117" lon="13.4980183"><ele>187.0</ele><time>2026-04-04T14:28:01.505Z</time></trkpt><trkpt lat="43.085725" lon="13.4980183"><ele>184.33333333333334</ele><time>2026-04-04T14:28:02.505Z</time></trkpt><trkpt lat="43.0859367" lon="13.4980117"><ele>181.66666666666666</ele><time>2026-04-04T14:28:03.505Z</time></trkpt><trkpt lat="43.0861583" lon="13.4979933"><ele>179.0</ele><time>2026-04-04T14:28:04.504Z</time></trkpt><trkpt lat="43.0863733" lon="13.4979917"><ele>179.0</ele><time>2026-04-04T14:28:05.504Z</time></trkpt><trkpt lat="43.0865867" lon="13.4979917"><ele>179.0</ele><time>2026-04-04T14:28:06.504Z</time></trkpt><trkpt lat="43.0868133" lon="13.4979817"><ele>179.0</ele><time>2026-04-04T14:28:07.504Z</time></trkpt><trkpt lat="43.0870417" lon="13.49798"><ele>180.33333333333331</ele><time>2026-04-04T14:28:08.504Z</time></trkpt><trkpt lat="43.0872617" lon="13.4979817"><ele>181.66666666666666</ele><time>2026-04-04T14:28:09.504Z</time></trkpt><trkpt lat="43.0874833" lon="13.49798"><ele>183.0</ele><time>2026-04-04T14:28:10.504Z</time></trkpt><trkpt lat="43.0877033" lon="13.4979667"><ele>185.0</ele><time>2026-04-04T14:28:11.505Z</time></trkpt><trkpt lat="43.0879117" lon="13.497925"><ele>187.0</ele><time>2026-04-04T14:28:12.504Z</time></trkpt><trkpt lat="43.0881217" lon="13.497875"><ele>189.0</ele><time>2026-04-04T14:28:13.504Z</time></trkpt><trkpt lat="43.0883167" lon="13.4977617"><ele>190.33333333333331</ele><time>2026-04-04T14:28:14.505Z</time></trkpt><trkpt lat="43.0885033" lon="13.497625"><ele>191.66666666666666</ele><time>2026-04-04T14:28:15.505Z</time></trkpt><trkpt lat="43.0886933" lon="13.497465"><ele>193.0</ele><time>2026-04-04T14:28:16.504Z</time></trkpt><trkpt lat="43.0888633" lon="13.4972967"><ele>193.0</ele><time>2026-04-04T14:28:17.505Z</time></trkpt><trkpt lat="43.0890233" lon="13.497125"><ele>193.0</ele><time>2026-04-04T14:28:18.505Z</time></trkpt><trkpt lat="43.0891867" lon="13.4969417"><ele>193.0</ele><time>2026-04-04T14:28:19.505Z</time></trkpt><trkpt lat="43.08936" lon="13.4967733"><ele>194.33333333333331</ele><time>2026-04-04T14:28:20.505Z</time></trkpt><trkpt lat="43.0895233" lon="13.4965933"><ele>195.66666666666669</ele><time>2026-04-04T14:28:21.505Z</time></trkpt><trkpt lat="43.0896983" lon="13.4964267"><ele>197.0</ele><time>2026-04-04T14:28:22.505Z</time></trkpt><trkpt lat="43.089875" lon="13.49625"><ele>199.33333333333334</ele><time>2026-04-04T14:28:23.505Z</time></trkpt><trkpt lat="43.090045" lon="13.496085"><ele>201.66666666666669</ele><time>2026-04-04T14:28:24.504Z</time></trkpt><trkpt lat="43.090205" lon="13.4959233"><ele>204.0</ele><time>2026-04-04T14:28:25.504Z</time></trkpt><trkpt lat="43.0903717" lon="13.49576"><ele>204.0</ele><time>2026-04-04T14:28:26.504Z</time></trkpt><trkpt lat="43.0905383" lon="13.49559"><ele>204.0</ele><time>2026-04-04T14:28:27.504Z</time></trkpt><trkpt lat="43.0907117" lon="13.495425"><ele>204.0</ele><time>2026-04-04T14:28:28.504Z</time></trkpt><trkpt lat="43.0908817" lon="13.49526"><ele>206.66666666666669</ele><time>2026-04-04T14:28:29.504Z</time></trkpt><trkpt lat="43.0910567" lon="13.4951017"><ele>209.33333333333334</ele><time>2026-04-04T14:28:30.505Z</time></trkpt><trkpt lat="43.0912433" lon="13.4949583"><ele>212.0</ele><time>2026-04-04T14:28:31.504Z</time></trkpt><trkpt lat="43.0914317" lon="13.4948233"><ele>212.33333333333334</ele><time>2026-04-04T14:28:32.504Z</time></trkpt><trkpt lat="43.091635" lon="13.4947283"><ele>212.66666666666669</ele><time>2026-04-04T14:28:33.504Z</time></trkpt><trkpt lat="43.09184" lon="13.4946683"><ele>213.0</ele><time>2026-04-04T14:28:34.504Z</time></trkpt><trkpt lat="43.0920283" lon="13.494645"><ele>213.0</ele><time>2026-04-04T14:28:35.504Z</time></trkpt><trkpt lat="43.0922417" lon="13.49463"><ele>213.0</ele><time>2026-04-04T14:28:36.505Z</time></trkpt><trkpt lat="43.0924367" lon="13.4946633"><ele>213.0</ele><time>2026-04-04T14:28:37.504Z</time></trkpt><trkpt lat="43.0926283" lon="13.4947233"><ele>213.33333333333331</ele><time>2026-04-04T14:28:38.504Z</time></trkpt><trkpt lat="43.0928183" lon="13.494775"><ele>213.66666666666666</ele><time>2026-04-04T14:28:39.505Z</time></trkpt><trkpt lat="43.0929983" lon="13.4948317"><ele>214.0</ele><time>2026-04-04T14:28:40.505Z</time></trkpt><trkpt lat="43.093175" lon="13.4949017"><ele>213.66666666666666</ele><time>2026-04-04T14:28:41.505Z</time></trkpt><trkpt lat="43.0933483" lon="13.4949617"><ele>213.33333333333331</ele><time>2026-04-04T14:28:42.505Z</time></trkpt><trkpt lat="43.09353" lon="13.4950117"><ele>213.0</ele><time>2026-04-04T14:28:43.505Z</time></trkpt><trkpt lat="43.0937017" lon="13.49508"><ele>213.0</ele><time>2026-04-04T14:28:44.504Z</time></trkpt><trkpt lat="43.0938817" lon="13.4951283"><ele>213.0</ele><time>2026-04-04T14:28:45.505Z</time></trkpt><trkpt lat="43.0940467" lon="13.4951983"><ele>213.0</ele><time>2026-04-04T14:28:46.505Z</time></trkpt><trkpt lat="43.0942233" lon="13.4952633"><ele>213.0</ele><time>2026-04-04T14:28:47.505Z</time></trkpt><trkpt lat="43.0943967" lon="13.495325"><ele>213.0</ele><time>2026-04-04T14:28:48.505Z</time></trkpt><trkpt lat="43.094585" lon="13.4953933"><ele>213.0</ele><time>2026-04-04T14:28:49.504Z</time></trkpt><trkpt lat="43.0947667" lon="13.4954617"><ele>213.33333333333331</ele><time>2026-04-04T14:28:50.505Z</time></trkpt><trkpt lat="43.0949483" lon="13.495515"><ele>213.66666666666666</ele><time>2026-04-04T14:28:51.505Z</time></trkpt><trkpt lat="43.0951333" lon="13.4955817"><ele>214.0</ele><time>2026-04-04T14:28:52.504Z</time></trkpt><trkpt lat="43.09532" lon="13.495635"><ele>214.0</ele><time>2026-04-04T14:28:53.505Z</time></trkpt><trkpt lat="43.0955067" lon="13.49569"><ele>214.0</ele><time>2026-04-04T14:28:54.505Z</time></trkpt><trkpt lat="43.0956933" lon="13.4957483"><ele>214.0</ele><time>2026-04-04T14:28:55.505Z</time></trkpt><trkpt lat="43.0958717" lon="13.4957983"><ele>214.0</ele><time>2026-04-04T14:28:56.505Z</time></trkpt><trkpt lat="43.0960467" lon="13.4958767"><ele>214.0</ele><time>2026-04-04T14:28:57.504Z</time></trkpt><trkpt lat="43.096205" lon="13.4959533"><ele>214.0</ele><time>2026-04-04T14:28:58.504Z</time></trkpt><trkpt lat="43.0963717" lon="13.4960167"><ele>214.0</ele><time>2026-04-04T14:28:59.505Z</time></trkpt><trkpt lat="43.0965367" lon="13.49607"><ele>214.0</ele><time>2026-04-04T14:29:00.505Z</time></trkpt><trkpt lat="43.0967" lon="13.49611"><ele>214.0</ele><time>2026-04-04T14:29:01.504Z</time></trkpt><trkpt lat="43.096855" lon="13.496155"><ele>214.0</ele><time>2026-04-04T14:29:02.505Z</time></trkpt><trkpt lat="43.0970133" lon="13.4961967"><ele>214.0</ele><time>2026-04-04T14:29:03.505Z</time></trkpt><trkpt lat="43.0971583" lon="13.496245"><ele>214.0</ele><time>2026-04-04T14:29:04.504Z</time></trkpt><trkpt lat="43.0972983" lon="13.4962833"><ele>214.0</ele><time>2026-04-04T14:29:05.504Z</time></trkpt><trkpt lat="43.0974017" lon="13.496305"><ele>213.99999999999997</ele><time>2026-04-04T14:29:06.505Z</time></trkpt><trkpt lat="43.0974883" lon="13.4963417"><ele>213.99999999999997</ele><time>2026-04-04T14:29:07.505Z</time></trkpt><trkpt lat="43.09756" lon="13.49637"><ele>214.0</ele><time>2026-04-04T14:29:08.504Z</time></trkpt><trkpt lat="43.0976217" lon="13.4964"><ele>214.0</ele><time>2026-04-04T14:29:09.505Z</time></trkpt><trkpt lat="43.0977317" lon="13.496465"><ele>214.0</ele><time>2026-04-04T14:29:11.504Z</time></trkpt><trkpt lat="43.0978033" lon="13.496485"><ele>213.99999999999997</ele><time>2026-04-04T14:29:12.504Z</time></trkpt><trkpt lat="43.097895" lon="13.4965117"><ele>213.99999999999997</ele><time>2026-04-04T14:29:13.505Z</time></trkpt><trkpt lat="43.097995" lon="13.4965383"><ele>214.0</ele><time>2026-04-04T14:29:14.504Z</time></trkpt><trkpt lat="43.0981017" lon="13.496565"><ele>214.0</ele><time>2026-04-04T14:29:15.504Z</time></trkpt><trkpt lat="43.09823" lon="13.4966017"><ele>213.33333333333331</ele><time>2026-04-04T14:29:16.504Z</time></trkpt><trkpt lat="43.09837" lon="13.4966517"><ele>212.66666666666669</ele><time>2026-04-04T14:29:17.505Z</time></trkpt><trkpt lat="43.0985183" lon="13.4967283"><ele>212.0</ele><time>2026-04-04T14:29:18.504Z</time></trkpt><trkpt lat="43.0986717" lon="13.4968183"><ele>212.0</ele><time>2026-04-04T14:29:19.504Z</time></trkpt><trkpt lat="43.0988233" lon="13.49692"><ele>212.0</ele><time>2026-04-04T14:29:20.504Z</time></trkpt><trkpt lat="43.0989783" lon="13.49703"><ele>212.0</ele><time>2026-04-04T14:29:21.504Z</time></trkpt><trkpt lat="43.099135" lon="13.497145"><ele>211.25</ele><time>2026-04-04T14:29:22.504Z</time></trkpt><trkpt lat="43.0992817" lon="13.497255"><ele>210.5</ele><time>2026-04-04T14:29:23.505Z</time></trkpt><trkpt lat="43.09941" lon="13.49734"><ele>209.75</ele><time>2026-04-04T14:29:24.504Z</time></trkpt><trkpt lat="43.0995283" lon="13.497415"><ele>209.0</ele><time>2026-04-04T14:29:25.504Z</time></trkpt><trkpt lat="43.09964" lon="13.4974933"><ele>209.0</ele><time>2026-04-04T14:29:26.505Z</time></trkpt><trkpt lat="43.09974" lon="13.49756"><ele>209.0</ele><time>2026-04-04T14:29:27.504Z</time></trkpt><trkpt lat="43.0998533" lon="13.4976217"><ele>209.0</ele><time>2026-04-04T14:29:28.504Z</time></trkpt><trkpt lat="43.099955" lon="13.4976983"><ele>209.0</ele><time>2026-04-04T14:29:29.505Z</time></trkpt><trkpt lat="43.1000383" lon="13.4977767"><ele>210.0</ele><time>2026-04-04T14:29:30.504Z</time></trkpt><trkpt lat="43.1001133" lon="13.4979167"><ele>211.0</ele><time>2026-04-04T14:29:31.504Z</time></trkpt><trkpt lat="43.1001917" lon="13.4980317"><ele>212.0</ele><time>2026-04-04T14:29:32.505Z</time></trkpt><trkpt lat="43.1002567" lon="13.49818"><ele>213.0</ele><time>2026-04-04T14:29:33.504Z</time></trkpt><trkpt lat="43.1003017" lon="13.4983433"><ele>213.0</ele><time>2026-04-04T14:29:34.504Z</time></trkpt><trkpt lat="43.100345" lon="13.49852"><ele>213.0</ele><time>2026-04-04T14:29:35.504Z</time></trkpt><trkpt lat="43.1003883" lon="13.4986633"><ele>213.0</ele><time>2026-04-04T14:29:36.505Z</time></trkpt><trkpt lat="43.10042" lon="13.4987983"><ele>213.0</ele><time>2026-04-04T14:29:37.504Z</time></trkpt><trkpt lat="43.1004367" lon="13.4988933"><ele>213.0</ele><time>2026-04-04T14:29:38.504Z</time></trkpt><trkpt lat="43.1004767" lon="13.499025"><ele>213.0</ele><time>2026-04-04T14:29:40.505Z</time></trkpt><trkpt lat="43.1004933" lon="13.4991283"><ele>213.0</ele><time>2026-04-04T14:29:43.504Z</time></trkpt><trkpt lat="43.10054" lon="13.49929"><ele>213.0</ele><time>2026-04-04T14:29:45.504Z</time></trkpt><trkpt lat="43.1005867" lon="13.4994167"><ele>213.0</ele><time>2026-04-04T14:29:46.505Z</time></trkpt><trkpt lat="43.100655" lon="13.49962"><ele>212.66666666666669</ele><time>2026-04-04T14:29:47.505Z</time></trkpt><trkpt lat="43.1007333" lon="13.4998433"><ele>212.33333333333334</ele><time>2026-04-04T14:29:48.505Z</time></trkpt><trkpt lat="43.10083" lon="13.5001017"><ele>212.0</ele><time>2026-04-04T14:29:49.505Z</time></trkpt><trkpt lat="43.100935" lon="13.5003817"><ele>210.0</ele><time>2026-04-04T14:29:50.505Z</time></trkpt><trkpt lat="43.1010367" lon="13.5006583"><ele>208.0</ele><time>2026-04-04T14:29:51.504Z</time></trkpt><trkpt lat="43.1011183" lon="13.5009317"><ele>206.0</ele><time>2026-04-04T14:29:52.505Z</time></trkpt><trkpt lat="43.101195" lon="13.50122"><ele>204.5</ele><time>2026-04-04T14:29:53.505Z</time></trkpt><trkpt lat="43.10126" lon="13.5015167"><ele>203.0</ele><time>2026-04-04T14:29:54.505Z</time></trkpt><trkpt lat="43.101315" lon="13.5018233"><ele>204.0</ele><time>2026-04-04T14:29:55.505Z</time></trkpt><trkpt lat="43.1013533" lon="13.5021183"><ele>205.0</ele><time>2026-04-04T14:29:56.505Z</time></trkpt><trkpt lat="43.101375" lon="13.502395"><ele>206.0</ele><time>2026-04-04T14:29:57.504Z</time></trkpt><trkpt lat="43.1014067" lon="13.5026383"><ele>206.0</ele><time>2026-04-04T14:29:58.505Z</time></trkpt><trkpt lat="43.1014383" lon="13.502875"><ele>206.0</ele><time>2026-04-04T14:29:59.504Z</time></trkpt><trkpt lat="43.1014533" lon="13.5030917"><ele>206.0</ele><time>2026-04-04T14:30:00.505Z</time></trkpt><trkpt lat="43.10148" lon="13.5033017"><ele>206.0</ele><time>2026-04-04T14:30:01.505Z</time></trkpt><trkpt lat="43.101505" lon="13.5035033"><ele>206.0</ele><time>2026-04-04T14:30:02.505Z</time></trkpt><trkpt lat="43.1015217" lon="13.5037"><ele>206.0</ele><time>2026-04-04T14:30:03.505Z</time></trkpt><trkpt lat="43.1015383" lon="13.5039033"><ele>206.0</ele><time>2026-04-04T14:30:04.504Z</time></trkpt><trkpt lat="43.1015517" lon="13.5041183"><ele>205.33333333333334</ele><time>2026-04-04T14:30:05.504Z</time></trkpt><trkpt lat="43.1015633" lon="13.50434"><ele>204.66666666666669</ele><time>2026-04-04T14:30:06.504Z</time></trkpt><trkpt lat="43.10158" lon="13.50458"><ele>204.0</ele><time>2026-04-04T14:30:07.504Z</time></trkpt><trkpt lat="43.1015783" lon="13.504855"><ele>204.0</ele><time>2026-04-04T14:30:08.504Z</time></trkpt><trkpt lat="43.1015667" lon="13.5051317"><ele>204.0</ele><time>2026-04-04T14:30:09.504Z</time></trkpt><trkpt lat="43.1015533" lon="13.50539"><ele>204.0</ele><time>2026-04-04T14:30:10.504Z</time></trkpt><trkpt lat="43.1015367" lon="13.5056483"><ele>204.0</ele><time>2026-04-04T14:30:11.504Z</time></trkpt><trkpt lat="43.1015167" lon="13.50591"><ele>204.0</ele><time>2026-04-04T14:30:12.504Z</time></trkpt><trkpt lat="43.1014917" lon="13.506125"><ele>204.0</ele><time>2026-04-04T14:30:13.505Z</time></trkpt><trkpt lat="43.10146" lon="13.5063317"><ele>203.75</ele><time>2026-04-04T14:30:14.504Z</time></trkpt><trkpt lat="43.1014417" lon="13.50652"><ele>203.5</ele><time>2026-04-04T14:30:15.505Z</time></trkpt><trkpt lat="43.1014317" lon="13.5067183"><ele>203.25</ele><time>2026-04-04T14:30:16.504Z</time></trkpt><trkpt lat="43.1013983" lon="13.5069317"><ele>203.0</ele><time>2026-04-04T14:30:17.505Z</time></trkpt><trkpt lat="43.1013767" lon="13.5071633"><ele>202.66666666666669</ele><time>2026-04-04T14:30:18.505Z</time></trkpt><trkpt lat="43.1013583" lon="13.5074383"><ele>202.33333333333331</ele><time>2026-04-04T14:30:19.504Z</time></trkpt><trkpt lat="43.1013283" lon="13.5077583"><ele>202.0</ele><time>2026-04-04T14:30:20.505Z</time></trkpt><trkpt lat="43.1012967" lon="13.508065"><ele>202.0</ele><time>2026-04-04T14:30:21.505Z</time></trkpt><trkpt lat="43.1012583" lon="13.5083483"><ele>202.0</ele><time>2026-04-04T14:30:22.504Z</time></trkpt><trkpt lat="43.1012317" lon="13.50862"><ele>202.0</ele><time>2026-04-04T14:30:23.504Z</time></trkpt><trkpt lat="43.1012117" lon="13.50888"><ele>201.66666666666666</ele><time>2026-04-04T14:30:24.505Z</time></trkpt><trkpt lat="43.1012067" lon="13.5091217"><ele>201.33333333333331</ele><time>2026-04-04T14:30:25.505Z</time></trkpt><trkpt lat="43.1012217" lon="13.5093483"><ele>201.0</ele><time>2026-04-04T14:30:26.505Z</time></trkpt><trkpt lat="43.101245" lon="13.50958"><ele>200.0</ele><time>2026-04-04T14:30:27.505Z</time></trkpt><trkpt lat="43.1012767" lon="13.50981"><ele>199.0</ele><time>2026-04-04T14:30:28.505Z</time></trkpt><trkpt lat="43.1013133" lon="13.5100633"><ele>198.0</ele><time>2026-04-04T14:30:29.505Z</time></trkpt><trkpt lat="43.10136" lon="13.5103083"><ele>196.66666666666669</ele><time>2026-04-04T14:30:30.505Z</time></trkpt><trkpt lat="43.1014033" lon="13.5105483"><ele>195.33333333333334</ele><time>2026-04-04T14:30:31.505Z</time></trkpt><trkpt lat="43.10146" lon="13.5108133"><ele>194.0</ele><time>2026-04-04T14:30:32.504Z</time></trkpt><trkpt lat="43.1015233" lon="13.5110867"><ele>195.33333333333334</ele><time>2026-04-04T14:30:33.505Z</time></trkpt><trkpt lat="43.101585" lon="13.51135"><ele>196.66666666666669</ele><time>2026-04-04T14:30:34.504Z</time></trkpt><trkpt lat="43.1016467" lon="13.51161"><ele>198.0</ele><time>2026-04-04T14:30:35.505Z</time></trkpt><trkpt lat="43.1017117" lon="13.511865"><ele>198.0</ele><time>2026-04-04T14:30:36.505Z</time></trkpt><trkpt lat="43.10177" lon="13.5121283"><ele>198.0</ele><time>2026-04-04T14:30:37.504Z</time></trkpt><trkpt lat="43.10183" lon="13.5123917"><ele>198.0</ele><time>2026-04-04T14:30:38.504Z</time></trkpt><trkpt lat="43.10189" lon="13.512655"><ele>196.33333333333331</ele><time>2026-04-04T14:30:39.505Z</time></trkpt><trkpt lat="43.10194" lon="13.5129167"><ele>194.66666666666666</ele><time>2026-04-04T14:30:40.504Z</time></trkpt><trkpt lat="43.1019917" lon="13.5131817"><ele>193.0</ele><time>2026-04-04T14:30:41.504Z</time></trkpt><trkpt lat="43.1020417" lon="13.5134517"><ele>193.0</ele><time>2026-04-04T14:30:42.504Z</time></trkpt><trkpt lat="43.102095" lon="13.51372"><ele>193.0</ele><time>2026-04-04T14:30:43.504Z</time></trkpt><trkpt lat="43.1021417" lon="13.51398"><ele>193.0</ele><time>2026-04-04T14:30:44.505Z</time></trkpt><trkpt lat="43.1021867" lon="13.5142367"><ele>192.66666666666666</ele><time>2026-04-04T14:30:45.505Z</time></trkpt><trkpt lat="43.1022317" lon="13.514495"><ele>192.33333333333331</ele><time>2026-04-04T14:30:46.505Z</time></trkpt><trkpt lat="43.10228" lon="13.514735"><ele>192.0</ele><time>2026-04-04T14:30:47.505Z</time></trkpt><trkpt lat="43.1023233" lon="13.5149683"><ele>192.33333333333331</ele><time>2026-04-04T14:30:48.504Z</time></trkpt><trkpt lat="43.102355" lon="13.51517"><ele>192.66666666666666</ele><time>2026-04-04T14:30:49.504Z</time></trkpt><trkpt lat="43.1023933" lon="13.5153717"><ele>193.0</ele><time>2026-04-04T14:30:50.505Z</time></trkpt><trkpt lat="43.102425" lon="13.5155867"><ele>193.0</ele><time>2026-04-04T14:30:51.505Z</time></trkpt><trkpt lat="43.102455" lon="13.5158017"><ele>193.0</ele><time>2026-04-04T14:30:52.504Z</time></trkpt><trkpt lat="43.1024967" lon="13.5160117"><ele>193.0</ele><time>2026-04-04T14:30:53.505Z</time></trkpt><trkpt lat="43.1025383" lon="13.5162333"><ele>192.33333333333331</ele><time>2026-04-04T14:30:54.504Z</time></trkpt><trkpt lat="43.10257" lon="13.5164567"><ele>191.66666666666666</ele><time>2026-04-04T14:30:55.505Z</time></trkpt><trkpt lat="43.10261" lon="13.516695"><ele>191.0</ele><time>2026-04-04T14:30:56.505Z</time></trkpt><trkpt lat="43.1026533" lon="13.5169317"><ele>190.66666666666666</ele><time>2026-04-04T14:30:57.505Z</time></trkpt><trkpt lat="43.1026917" lon="13.5171867"><ele>190.33333333333334</ele><time>2026-04-04T14:30:58.505Z</time></trkpt><trkpt lat="43.102735" lon="13.5174367"><ele>190.0</ele><time>2026-04-04T14:30:59.505Z</time></trkpt><trkpt lat="43.10278" lon="13.51768"><ele>189.66666666666669</ele><time>2026-04-04T14:31:00.505Z</time></trkpt><trkpt lat="43.10282" lon="13.5179433"><ele>189.33333333333334</ele><time>2026-04-04T14:31:01.504Z</time></trkpt><trkpt lat="43.1028683" lon="13.5182217"><ele>189.0</ele><time>2026-04-04T14:31:02.504Z</time></trkpt><trkpt lat="43.10292" lon="13.5184983"><ele>188.66666666666666</ele><time>2026-04-04T14:31:03.504Z</time></trkpt><trkpt lat="43.1029733" lon="13.5187883"><ele>188.33333333333331</ele><time>2026-04-04T14:31:04.504Z</time></trkpt><trkpt lat="43.1030283" lon="13.5190933"><ele>188.0</ele><time>2026-04-04T14:31:05.505Z</time></trkpt><trkpt lat="43.10308" lon="13.5194183"><ele>187.0</ele><time>2026-04-04T14:31:06.504Z</time></trkpt><trkpt lat="43.10313" lon="13.5197517"><ele>186.0</ele><time>2026-04-04T14:31:07.504Z</time></trkpt><trkpt lat="43.103175" lon="13.52009"><ele>184.5</ele><time>2026-04-04T14:31:08.503Z</time></trkpt><trkpt lat="43.1032117" lon="13.5204"><ele>183.0</ele><time>2026-04-04T14:31:09.504Z</time></trkpt><trkpt lat="43.103235" lon="13.5207183"><ele>183.0</ele><time>2026-04-04T14:31:10.504Z</time></trkpt><trkpt lat="43.103235" lon="13.52104"><ele>183.0</ele><time>2026-04-04T14:31:11.503Z</time></trkpt><trkpt lat="43.10323" lon="13.5213517"><ele>182.66666666666666</ele><time>2026-04-04T14:31:12.504Z</time></trkpt><trkpt lat="43.1032283" lon="13.5216567"><ele>182.33333333333331</ele><time>2026-04-04T14:31:13.503Z</time></trkpt><trkpt lat="43.103225" lon="13.5219517"><ele>182.0</ele><time>2026-04-04T14:31:14.504Z</time></trkpt><trkpt lat="43.1032083" lon="13.5222283"><ele>182.0</ele><time>2026-04-04T14:31:15.504Z</time></trkpt><trkpt lat="43.103185" lon="13.5225033"><ele>182.0</ele><time>2026-04-04T14:31:16.503Z</time></trkpt><trkpt lat="43.1031617" lon="13.5227933"><ele>182.0</ele><time>2026-04-04T14:31:17.503Z</time></trkpt><trkpt lat="43.1031417" lon="13.5230817"><ele>182.66666666666666</ele><time>2026-04-04T14:31:18.504Z</time></trkpt><trkpt lat="43.1031233" lon="13.5233717"><ele>183.33333333333334</ele><time>2026-04-04T14:31:19.504Z</time></trkpt><trkpt lat="43.1031" lon="13.5236433"><ele>184.0</ele><time>2026-04-04T14:31:20.504Z</time></trkpt><trkpt lat="43.1030833" lon="13.5239083"><ele>184.0</ele><time>2026-04-04T14:31:21.504Z</time></trkpt><trkpt lat="43.10307" lon="13.52416"><ele>184.0</ele><time>2026-04-04T14:31:22.504Z</time></trkpt><trkpt lat="43.1030517" lon="13.5244033"><ele>184.0</ele><time>2026-04-04T14:31:23.504Z</time></trkpt><trkpt lat="43.10303" lon="13.5246417"><ele>184.0</ele><time>2026-04-04T14:31:24.503Z</time></trkpt><trkpt lat="43.1030117" lon="13.5248717"><ele>184.0</ele><time>2026-04-04T14:31:25.504Z</time></trkpt><trkpt lat="43.1029983" lon="13.5250883"><ele>184.0</ele><time>2026-04-04T14:31:26.504Z</time></trkpt><trkpt lat="43.1029833" lon="13.5253033"><ele>183.66666666666669</ele><time>2026-04-04T14:31:27.504Z</time></trkpt><trkpt lat="43.10297" lon="13.5255183"><ele>183.33333333333334</ele><time>2026-04-04T14:31:28.503Z</time></trkpt><trkpt lat="43.102955" lon="13.5257283"><ele>183.0</ele><time>2026-04-04T14:31:29.504Z</time></trkpt><trkpt lat="43.1029433" lon="13.5259217"><ele>183.0</ele><time>2026-04-04T14:31:30.503Z</time></trkpt><trkpt lat="43.1029283" lon="13.52612"><ele>183.0</ele><time>2026-04-04T14:31:31.504Z</time></trkpt><trkpt lat="43.1029117" lon="13.5263133"><ele>183.0</ele><time>2026-04-04T14:31:32.504Z</time></trkpt><trkpt lat="43.1028833" lon="13.5265367"><ele>182.25</ele><time>2026-04-04T14:31:33.503Z</time></trkpt><trkpt lat="43.1028667" lon="13.5267383"><ele>181.5</ele><time>2026-04-04T14:31:34.504Z</time></trkpt><trkpt lat="43.1028533" lon="13.5269367"><ele>180.75</ele><time>2026-04-04T14:31:35.504Z</time></trkpt><trkpt lat="43.1028467" lon="13.5271417"><ele>180.0</ele><time>2026-04-04T14:31:36.504Z</time></trkpt><trkpt lat="43.10284" lon="13.5273767"><ele>179.66666666666666</ele><time>2026-04-04T14:31:37.504Z</time></trkpt><trkpt lat="43.1028283" lon="13.527625"><ele>179.33333333333331</ele><time>2026-04-04T14:31:38.504Z</time></trkpt><trkpt lat="43.1027983" lon="13.5279"><ele>179.0</ele><time>2026-04-04T14:31:39.503Z</time></trkpt><trkpt lat="43.1027833" lon="13.5281833"><ele>179.0</ele><time>2026-04-04T14:31:40.504Z</time></trkpt><trkpt lat="43.1027733" lon="13.528485"><ele>179.0</ele><time>2026-04-04T14:31:41.503Z</time></trkpt><trkpt lat="43.1027533" lon="13.528805"><ele>178.5</ele><time>2026-04-04T14:31:42.503Z</time></trkpt><trkpt lat="43.1027417" lon="13.5291317"><ele>178.0</ele><time>2026-04-04T14:31:43.504Z</time></trkpt><trkpt lat="43.1027017" lon="13.529475"><ele>176.0</ele><time>2026-04-04T14:31:44.504Z</time></trkpt><trkpt lat="43.1026667" lon="13.5298117"><ele>174.0</ele><time>2026-04-04T14:31:45.503Z</time></trkpt><trkpt lat="43.10261" lon="13.53012"><ele>173.0</ele><time>2026-04-04T14:31:46.503Z</time></trkpt><trkpt lat="43.1025317" lon="13.5304133"><ele>172.0</ele><time>2026-04-04T14:31:47.503Z</time></trkpt><trkpt lat="43.10243" lon="13.5307033"><ele>171.5</ele><time>2026-04-04T14:31:48.504Z</time></trkpt><trkpt lat="43.1023083" lon="13.531005"><ele>171.0</ele><time>2026-04-04T14:31:49.504Z</time></trkpt><trkpt lat="43.1021783" lon="13.5312817"><ele>171.0</ele><time>2026-04-04T14:31:50.503Z</time></trkpt><trkpt lat="43.1020667" lon="13.5315383"><ele>171.0</ele><time>2026-04-04T14:31:51.503Z</time></trkpt><trkpt lat="43.101955" lon="13.5317817"><ele>171.0</ele><time>2026-04-04T14:31:52.504Z</time></trkpt><trkpt lat="43.1018383" lon="13.5320117"><ele>170.66666666666666</ele><time>2026-04-04T14:31:53.503Z</time></trkpt><trkpt lat="43.101755" lon="13.5322917"><ele>170.33333333333331</ele><time>2026-04-04T14:31:54.504Z</time></trkpt><trkpt lat="43.1017083" lon="13.5325733"><ele>170.0</ele><time>2026-04-04T14:31:55.504Z</time></trkpt><trkpt lat="43.1016883" lon="13.5328717"><ele>169.33333333333331</ele><time>2026-04-04T14:31:56.504Z</time></trkpt><trkpt lat="43.1016883" lon="13.5331467"><ele>168.66666666666666</ele><time>2026-04-04T14:31:57.503Z</time></trkpt><trkpt lat="43.1017083" lon="13.5334217"><ele>168.0</ele><time>2026-04-04T14:31:58.504Z</time></trkpt><trkpt lat="43.1017467" lon="13.533675"><ele>167.33333333333334</ele><time>2026-04-04T14:31:59.504Z</time></trkpt><trkpt lat="43.1018017" lon="13.533925"><ele>166.66666666666669</ele><time>2026-04-04T14:32:00.503Z</time></trkpt><trkpt lat="43.1018717" lon="13.534175"><ele>166.0</ele><time>2026-04-04T14:32:01.503Z</time></trkpt><trkpt lat="43.10193" lon="13.5344317"><ele>165.33333333333334</ele><time>2026-04-04T14:32:02.503Z</time></trkpt><trkpt lat="43.1019867" lon="13.5347183"><ele>164.66666666666666</ele><time>2026-04-04T14:32:03.503Z</time></trkpt><trkpt lat="43.1020433" lon="13.5350233"><ele>164.0</ele><time>2026-04-04T14:32:04.504Z</time></trkpt><trkpt lat="43.1021067" lon="13.5353483"><ele>164.5</ele><time>2026-04-04T14:32:05.503Z</time></trkpt><trkpt lat="43.102175" lon="13.535675"><ele>165.0</ele><time>2026-04-04T14:32:06.503Z</time></trkpt><trkpt lat="43.1022567" lon="13.536015"><ele>165.0</ele><time>2026-04-04T14:32:07.503Z</time></trkpt><trkpt lat="43.1023317" lon="13.5363883"><ele>165.0</ele><time>2026-04-04T14:32:08.504Z</time></trkpt><trkpt lat="43.1024083" lon="13.53678"><ele>166.5</ele><time>2026-04-04T14:32:09.504Z</time></trkpt><trkpt lat="43.1024883" lon="13.5371817"><ele>168.0</ele><time>2026-04-04T14:32:10.503Z</time></trkpt><trkpt lat="43.10257" lon="13.5375667"><ele>167.5</ele><time>2026-04-04T14:32:11.503Z</time></trkpt><trkpt lat="43.1026517" lon="13.537935"><ele>167.0</ele><time>2026-04-04T14:32:12.504Z</time></trkpt><trkpt lat="43.102735" lon="13.5382817"><ele>167.0</ele><time>2026-04-04T14:32:13.503Z</time></trkpt><trkpt lat="43.1028233" lon="13.53861"><ele>167.0</ele><time>2026-04-04T14:32:14.503Z</time></trkpt><trkpt lat="43.1029067" lon="13.5389133"><ele>167.0</ele><time>2026-04-04T14:32:15.503Z</time></trkpt><trkpt lat="43.1029783" lon="13.53919"><ele>167.0</ele><time>2026-04-04T14:32:16.503Z</time></trkpt><trkpt lat="43.1030383" lon="13.53944"><ele>167.0</ele><time>2026-04-04T14:32:17.503Z</time></trkpt><trkpt lat="43.1030967" lon="13.5396717"><ele>167.0</ele><time>2026-04-04T14:32:18.504Z</time></trkpt><trkpt lat="43.1031533" lon="13.5398917"><ele>167.0</ele><time>2026-04-04T14:32:19.504Z</time></trkpt><trkpt lat="43.1032017" lon="13.540095"><ele>167.0</ele><time>2026-04-04T14:32:20.504Z</time></trkpt><trkpt lat="43.1032333" lon="13.5402733"><ele>167.75</ele><time>2026-04-04T14:32:21.503Z</time></trkpt><trkpt lat="43.1032583" lon="13.540445"><ele>168.5</ele><time>2026-04-04T14:32:22.504Z</time></trkpt><trkpt lat="43.1032817" lon="13.5406167"><ele>169.25</ele><time>2026-04-04T14:32:23.504Z</time></trkpt><trkpt lat="43.1033233" lon="13.540775"><ele>170.0</ele><time>2026-04-04T14:32:24.503Z</time></trkpt><trkpt lat="43.1033967" lon="13.5409233"><ele>170.0</ele><time>2026-04-04T14:32:25.504Z</time></trkpt><trkpt lat="43.10348" lon="13.5410833"><ele>170.0</ele><time>2026-04-04T14:32:26.503Z</time></trkpt><trkpt lat="43.1035733" lon="13.5412833"><ele>170.0</ele><time>2026-04-04T14:32:27.504Z</time></trkpt><trkpt lat="43.1036717" lon="13.54149"><ele>170.0</ele><time>2026-04-04T14:32:28.504Z</time></trkpt><trkpt lat="43.1037783" lon="13.5417083"><ele>170.0</ele><time>2026-04-04T14:32:29.504Z</time></trkpt><trkpt lat="43.1038783" lon="13.54196"><ele>170.0</ele><time>2026-04-04T14:32:30.503Z</time></trkpt><trkpt lat="43.1039817" lon="13.54223"><ele>170.5</ele><time>2026-04-04T14:32:31.504Z</time></trkpt><trkpt lat="43.1040983" lon="13.5424967"><ele>171.0</ele><time>2026-04-04T14:32:32.503Z</time></trkpt><trkpt lat="43.104205" lon="13.5427733"><ele>170.66666666666666</ele><time>2026-04-04T14:32:33.503Z</time></trkpt><trkpt lat="43.1043133" lon="13.54304"><ele>170.33333333333331</ele><time>2026-04-04T14:32:34.503Z</time></trkpt><trkpt lat="43.1044183" lon="13.5433067"><ele>170.0</ele><time>2026-04-04T14:32:35.504Z</time></trkpt><trkpt lat="43.1045283" lon="13.543575"><ele>169.33333333333331</ele><time>2026-04-04T14:32:36.504Z</time></trkpt><trkpt lat="43.1046267" lon="13.5438183"><ele>168.66666666666666</ele><time>2026-04-04T14:32:37.503Z</time></trkpt><trkpt lat="43.104715" lon="13.54406"><ele>168.0</ele><time>2026-04-04T14:32:38.503Z</time></trkpt><trkpt lat="43.1047983" lon="13.5442683"><ele>168.0</ele><time>2026-04-04T14:32:39.504Z</time></trkpt><trkpt lat="43.1048783" lon="13.5444683"><ele>168.0</ele><time>2026-04-04T14:32:40.504Z</time></trkpt><trkpt lat="43.1049617" lon="13.5446483"><ele>168.0</ele><time>2026-04-04T14:32:41.503Z</time></trkpt><trkpt lat="43.1050333" lon="13.5448167"><ele>168.0</ele><time>2026-04-04T14:32:42.503Z</time></trkpt><trkpt lat="43.105105" lon="13.5449733"><ele>168.0</ele><time>2026-04-04T14:32:43.503Z</time></trkpt><trkpt lat="43.1051767" lon="13.54515"><ele>168.0</ele><time>2026-04-04T14:32:44.504Z</time></trkpt><trkpt lat="43.1052433" lon="13.5453217"><ele>168.0</ele><time>2026-04-04T14:32:45.504Z</time></trkpt><trkpt lat="43.1053067" lon="13.5454833"><ele>168.0</ele><time>2026-04-04T14:32:46.503Z</time></trkpt><trkpt lat="43.1053667" lon="13.545645"><ele>168.0</ele><time>2026-04-04T14:32:47.504Z</time></trkpt><trkpt lat="43.1054517" lon="13.5457967"><ele>168.0</ele><time>2026-04-04T14:32:48.504Z</time></trkpt><trkpt lat="43.1055233" lon="13.5459433"><ele>168.0</ele><time>2026-04-04T14:32:49.503Z</time></trkpt><trkpt lat="43.1056017" lon="13.546115"><ele>167.5</ele><time>2026-04-04T14:32:50.504Z</time></trkpt><trkpt lat="43.1056767" lon="13.54628"><ele>167.0</ele><time>2026-04-04T14:32:51.503Z</time></trkpt><trkpt lat="43.1057433" lon="13.5464467"><ele>166.5</ele><time>2026-04-04T14:32:52.503Z</time></trkpt><trkpt lat="43.1058117" lon="13.5466017"><ele>166.0</ele><time>2026-04-04T14:32:53.504Z</time></trkpt><trkpt lat="43.1058783" lon="13.5467583"><ele>165.75</ele><time>2026-04-04T14:32:54.503Z</time></trkpt><trkpt lat="43.1059417" lon="13.54691"><ele>165.5</ele><time>2026-04-04T14:32:55.503Z</time></trkpt><trkpt lat="43.1059967" lon="13.5470633"><ele>165.25</ele><time>2026-04-04T14:32:56.504Z</time></trkpt><trkpt lat="43.1060617" lon="13.5472167"><ele>165.0</ele><time>2026-04-04T14:32:57.503Z</time></trkpt><trkpt lat="43.1061267" lon="13.54737"><ele>165.0</ele><time>2026-04-04T14:32:58.504Z</time></trkpt><trkpt lat="43.106195" lon="13.5475183"><ele>165.0</ele><time>2026-04-04T14:32:59.504Z</time></trkpt><trkpt lat="43.106255" lon="13.5476583"><ele>165.0</ele><time>2026-04-04T14:33:00.503Z</time></trkpt><trkpt lat="43.1063217" lon="13.5478083"><ele>165.0</ele><time>2026-04-04T14:33:01.504Z</time></trkpt><trkpt lat="43.1063783" lon="13.5479633"><ele>165.25</ele><time>2026-04-04T14:33:02.504Z</time></trkpt><trkpt lat="43.1064333" lon="13.54812"><ele>165.5</ele><time>2026-04-04T14:33:03.503Z</time></trkpt><trkpt lat="43.1064933" lon="13.5482733"><ele>165.75</ele><time>2026-04-04T14:33:04.503Z</time></trkpt><trkpt lat="43.1065467" lon="13.548435"><ele>166.0</ele><time>2026-04-04T14:33:05.503Z</time></trkpt><trkpt lat="43.106615" lon="13.54859"><ele>166.5</ele><time>2026-04-04T14:33:06.504Z</time></trkpt><trkpt lat="43.1066833" lon="13.5487517"><ele>167.0</ele><time>2026-04-04T14:33:07.504Z</time></trkpt><trkpt lat="43.1067567" lon="13.5489233"><ele>167.5</ele><time>2026-04-04T14:33:08.503Z</time></trkpt><trkpt lat="43.1068267" lon="13.5491133"><ele>168.0</ele><time>2026-04-04T14:33:09.504Z</time></trkpt><trkpt lat="43.1068983" lon="13.549285"><ele>168.0</ele><time>2026-04-04T14:33:10.504Z</time></trkpt><trkpt lat="43.1069733" lon="13.5494533"><ele>168.0</ele><time>2026-04-04T14:33:11.504Z</time></trkpt><trkpt lat="43.107045" lon="13.54962"><ele>168.0</ele><time>2026-04-04T14:33:12.503Z</time></trkpt><trkpt lat="43.10711" lon="13.5497817"><ele>168.0</ele><time>2026-04-04T14:33:13.504Z</time></trkpt><trkpt lat="43.1071683" lon="13.549945"><ele>167.75</ele><time>2026-04-04T14:33:14.503Z</time></trkpt><trkpt lat="43.107225" lon="13.5501017"><ele>167.5</ele><time>2026-04-04T14:33:15.504Z</time></trkpt><trkpt lat="43.10729" lon="13.5502517"><ele>167.25</ele><time>2026-04-04T14:33:16.504Z</time></trkpt><trkpt lat="43.10735" lon="13.5504033"><ele>167.0</ele><time>2026-04-04T14:33:17.503Z</time></trkpt><trkpt lat="43.1074117" lon="13.550555"><ele>166.75</ele><time>2026-04-04T14:33:18.504Z</time></trkpt><trkpt lat="43.107475" lon="13.5507167"><ele>166.5</ele><time>2026-04-04T14:33:19.503Z</time></trkpt><trkpt lat="43.107545" lon="13.55089"><ele>166.25</ele><time>2026-04-04T14:33:20.503Z</time></trkpt><trkpt lat="43.1076167" lon="13.5510583"><ele>166.0</ele><time>2026-04-04T14:33:21.504Z</time></trkpt><trkpt lat="43.107685" lon="13.55123"><ele>165.5</ele><time>2026-04-04T14:33:22.503Z</time></trkpt><trkpt lat="43.1077483" lon="13.5513867"><ele>165.0</ele><time>2026-04-04T14:33:23.503Z</time></trkpt><trkpt lat="43.1078117" lon="13.55155"><ele>164.5</ele><time>2026-04-04T14:33:24.503Z</time></trkpt><trkpt lat="43.1078717" lon="13.55171"><ele>164.0</ele><time>2026-04-04T14:33:25.504Z</time></trkpt><trkpt lat="43.1079383" lon="13.551865"><ele>164.0</ele><time>2026-04-04T14:33:26.503Z</time></trkpt><trkpt lat="43.1080133" lon="13.5520333"><ele>164.0</ele><time>2026-04-04T14:33:27.503Z</time></trkpt><trkpt lat="43.1080867" lon="13.5522183"><ele>164.0</ele><time>2026-04-04T14:33:28.504Z</time></trkpt><trkpt lat="43.1081583" lon="13.5524067"><ele>163.75</ele><time>2026-04-04T14:33:29.503Z</time></trkpt><trkpt lat="43.1082283" lon="13.5525867"><ele>163.5</ele><time>2026-04-04T14:33:30.504Z</time></trkpt><trkpt lat="43.1082883" lon="13.552755"><ele>163.25</ele><time>2026-04-04T14:33:31.504Z</time></trkpt><trkpt lat="43.1083467" lon="13.5529183"><ele>163.0</ele><time>2026-04-04T14:33:32.503Z</time></trkpt><trkpt lat="43.108405" lon="13.5530717"><ele>163.0</ele><time>2026-04-04T14:33:33.504Z</time></trkpt><trkpt lat="43.1084717" lon="13.5532217"><ele>163.0</ele><time>2026-04-04T14:33:34.504Z</time></trkpt><trkpt lat="43.10853" lon="13.5533733"><ele>163.0</ele><time>2026-04-04T14:33:35.504Z</time></trkpt><trkpt lat="43.10858" lon="13.5535183"><ele>163.0</ele><time>2026-04-04T14:33:36.503Z</time></trkpt><trkpt lat="43.1086367" lon="13.5536717"><ele>162.75</ele><time>2026-04-04T14:33:37.504Z</time></trkpt><trkpt lat="43.1086917" lon="13.55381"><ele>162.5</ele><time>2026-04-04T14:33:38.504Z</time></trkpt><trkpt lat="43.1087483" lon="13.5539567"><ele>162.25</ele><time>2026-04-04T14:33:39.504Z</time></trkpt><trkpt lat="43.10881" lon="13.5541017"><ele>162.0</ele><time>2026-04-04T14:33:40.503Z</time></trkpt><trkpt lat="43.108875" lon="13.5542583"><ele>162.0</ele><time>2026-04-04T14:33:41.503Z</time></trkpt><trkpt lat="43.10894" lon="13.5544133"><ele>162.0</ele><time>2026-04-04T14:33:42.504Z</time></trkpt><trkpt lat="43.1090033" lon="13.5545767"><ele>162.0</ele><time>2026-04-04T14:33:43.503Z</time></trkpt><trkpt lat="43.1090783" lon="13.5547367"><ele>162.0</ele><time>2026-04-04T14:33:44.503Z</time></trkpt><trkpt lat="43.1091533" lon="13.554905"><ele>162.25</ele><time>2026-04-04T14:33:45.504Z</time></trkpt><trkpt lat="43.1092233" lon="13.5550717"><ele>162.5</ele><time>2026-04-04T14:33:46.504Z</time></trkpt><trkpt lat="43.1093033" lon="13.5552367"><ele>162.75</ele><time>2026-04-04T14:33:47.503Z</time></trkpt><trkpt lat="43.1093783" lon="13.5554067"><ele>163.0</ele><time>2026-04-04T14:33:48.503Z</time></trkpt><trkpt lat="43.109455" lon="13.5555817"><ele>163.0</ele><time>2026-04-04T14:33:49.503Z</time></trkpt><trkpt lat="43.1095367" lon="13.555755"><ele>163.0</ele><time>2026-04-04T14:33:50.503Z</time></trkpt><trkpt lat="43.109615" lon="13.5559283"><ele>163.0</ele><time>2026-04-04T14:33:51.503Z</time></trkpt><trkpt lat="43.1096967" lon="13.5561"><ele>163.0</ele><time>2026-04-04T14:33:52.504Z</time></trkpt><trkpt lat="43.1097783" lon="13.556285"><ele>162.66666666666669</ele><time>2026-04-04T14:33:53.503Z</time></trkpt><trkpt lat="43.10986" lon="13.55646"><ele>162.33333333333334</ele><time>2026-04-04T14:33:54.503Z</time></trkpt><trkpt lat="43.1099467" lon="13.556645"><ele>162.0</ele><time>2026-04-04T14:33:55.504Z</time></trkpt><trkpt lat="43.1100433" lon="13.5568467"><ele>161.66666666666666</ele><time>2026-04-04T14:33:56.503Z</time></trkpt><trkpt lat="43.1101333" lon="13.55705"><ele>161.33333333333331</ele><time>2026-04-04T14:33:57.504Z</time></trkpt><trkpt lat="43.1102283" lon="13.5572517"><ele>161.0</ele><time>2026-04-04T14:33:58.503Z</time></trkpt><trkpt lat="43.11031" lon="13.5574483"><ele>161.0</ele><time>2026-04-04T14:33:59.503Z</time></trkpt><trkpt lat="43.1103867" lon="13.557635"><ele>161.0</ele><time>2026-04-04T14:34:00.503Z</time></trkpt><trkpt lat="43.11047" lon="13.5578067"><ele>161.0</ele><time>2026-04-04T14:34:01.503Z</time></trkpt><trkpt lat="43.110555" lon="13.5579833"><ele>161.0</ele><time>2026-04-04T14:34:02.504Z</time></trkpt><trkpt lat="43.1106367" lon="13.55816"><ele>161.0</ele><time>2026-04-04T14:34:03.504Z</time></trkpt><trkpt lat="43.1107133" lon="13.5583417"><ele>161.0</ele><time>2026-04-04T14:34:04.503Z</time></trkpt><trkpt lat="43.1107933" lon="13.5585233"><ele>161.25</ele><time>2026-04-04T14:34:05.503Z</time></trkpt><trkpt lat="43.11087" lon="13.558705"><ele>161.5</ele><time>2026-04-04T14:34:06.504Z</time></trkpt><trkpt lat="43.1109467" lon="13.5588833"><ele>161.75</ele><time>2026-04-04T14:34:07.504Z</time></trkpt><trkpt lat="43.1110217" lon="13.5590483"><ele>162.0</ele><time>2026-04-04T14:34:08.504Z</time></trkpt><trkpt lat="43.1111" lon="13.5592017"><ele>162.0</ele><time>2026-04-04T14:34:09.503Z</time></trkpt><trkpt lat="43.1111683" lon="13.5593517"><ele>162.0</ele><time>2026-04-04T14:34:10.504Z</time></trkpt><trkpt lat="43.111235" lon="13.55949"><ele>162.0</ele><time>2026-04-04T14:34:11.504Z</time></trkpt><trkpt lat="43.1112983" lon="13.5596283"><ele>162.0</ele><time>2026-04-04T14:34:12.504Z</time></trkpt><trkpt lat="43.11136" lon="13.5597617"><ele>161.8</ele><time>2026-04-04T14:34:13.504Z</time></trkpt><trkpt lat="43.1114183" lon="13.5598867"><ele>161.6</ele><time>2026-04-04T14:34:14.504Z</time></trkpt><trkpt lat="43.1114783" lon="13.5600117"><ele>161.4</ele><time>2026-04-04T14:34:15.504Z</time></trkpt><trkpt lat="43.1115433" lon="13.5601317"><ele>161.20000000000002</ele><time>2026-04-04T14:34:16.503Z</time></trkpt><trkpt lat="43.1115967" lon="13.560255"><ele>161.0</ele><time>2026-04-04T14:34:17.503Z</time></trkpt><trkpt lat="43.11165" lon="13.5603733"><ele>161.4</ele><time>2026-04-04T14:34:18.504Z</time></trkpt><trkpt lat="43.11171" lon="13.560495"><ele>161.8</ele><time>2026-04-04T14:34:19.504Z</time></trkpt><trkpt lat="43.111775" lon="13.5606117"><ele>162.20000000000002</ele><time>2026-04-04T14:34:20.503Z</time></trkpt><trkpt lat="43.1118317" lon="13.5607267"><ele>162.60000000000002</ele><time>2026-04-04T14:34:21.503Z</time></trkpt><trkpt lat="43.1119017" lon="13.560845"><ele>163.0</ele><time>2026-04-04T14:34:22.504Z</time></trkpt><trkpt lat="43.1119767" lon="13.5609733"><ele>163.0</ele><time>2026-04-04T14:34:23.503Z</time></trkpt><trkpt lat="43.1120467" lon="13.561115"><ele>163.0</ele><time>2026-04-04T14:34:24.504Z</time></trkpt><trkpt lat="43.1121183" lon="13.561245"><ele>163.0</ele><time>2026-04-04T14:34:25.503Z</time></trkpt><trkpt lat="43.1121817" lon="13.5613717"><ele>163.0</ele><time>2026-04-04T14:34:26.503Z</time></trkpt><trkpt lat="43.112235" lon="13.5614917"><ele>162.8</ele><time>2026-04-04T14:34:27.504Z</time></trkpt><trkpt lat="43.1122867" lon="13.5616067"><ele>162.60000000000002</ele><time>2026-04-04T14:34:28.503Z</time></trkpt><trkpt lat="43.112355" lon="13.5617333"><ele>162.39999999999998</ele><time>2026-04-04T14:34:29.504Z</time></trkpt><trkpt lat="43.11241" lon="13.5618533"><ele>162.2</ele><time>2026-04-04T14:34:30.503Z</time></trkpt><trkpt lat="43.11247" lon="13.561965"><ele>162.0</ele><time>2026-04-04T14:34:31.504Z</time></trkpt><trkpt lat="43.1125383" lon="13.56208"><ele>161.5</ele><time>2026-04-04T14:34:32.503Z</time></trkpt><trkpt lat="43.11261" lon="13.562215"><ele>161.0</ele><time>2026-04-04T14:34:33.503Z</time></trkpt><trkpt lat="43.112695" lon="13.5623517"><ele>160.5</ele><time>2026-04-04T14:34:34.503Z</time></trkpt><trkpt lat="43.1127717" lon="13.5625017"><ele>160.0</ele><time>2026-04-04T14:34:35.504Z</time></trkpt><trkpt lat="43.11287" lon="13.5626717"><ele>160.0</ele><time>2026-04-04T14:34:36.504Z</time></trkpt><trkpt lat="43.1129683" lon="13.5628483"><ele>160.0</ele><time>2026-04-04T14:34:37.504Z</time></trkpt><trkpt lat="43.1130567" lon="13.56302"><ele>160.0</ele><time>2026-04-04T14:34:38.504Z</time></trkpt><trkpt lat="43.1131367" lon="13.5631783"><ele>160.0</ele><time>2026-04-04T14:34:39.503Z</time></trkpt><trkpt lat="43.113205" lon="13.56333"><ele>160.0</ele><time>2026-04-04T14:34:40.503Z</time></trkpt><trkpt lat="43.1132767" lon="13.56347"><ele>160.0</ele><time>2026-04-04T14:34:41.504Z</time></trkpt><trkpt lat="43.1133633" lon="13.5636517"><ele>160.0</ele><time>2026-04-04T14:34:42.504Z</time></trkpt><trkpt lat="43.11346" lon="13.56385"><ele>159.5</ele><time>2026-04-04T14:34:43.503Z</time></trkpt><trkpt lat="43.113555" lon="13.5640183"><ele>159.0</ele><time>2026-04-04T14:34:44.504Z</time></trkpt><trkpt lat="43.11364" lon="13.56418"><ele>158.5</ele><time>2026-04-04T14:34:45.503Z</time></trkpt><trkpt lat="43.1137117" lon="13.564305"><ele>158.0</ele><time>2026-04-04T14:34:46.504Z</time></trkpt><trkpt lat="43.1137683" lon="13.56441"><ele>158.0</ele><time>2026-04-04T14:34:47.503Z</time></trkpt><trkpt lat="43.11381" lon="13.5644867"><ele>158.0</ele><time>2026-04-04T14:34:48.503Z</time></trkpt><trkpt lat="43.1138833" lon="13.56461"><ele>158.0</ele><time>2026-04-04T14:34:50.504Z</time></trkpt><trkpt lat="43.11397" lon="13.5647367"><ele>158.0</ele><time>2026-04-04T14:34:52.504Z</time></trkpt><trkpt lat="43.1140233" lon="13.5648233"><ele>158.0</ele><time>2026-04-04T14:34:53.503Z</time></trkpt><trkpt lat="43.1140833" lon="13.56493"><ele>157.75</ele><time>2026-04-04T14:34:54.503Z</time></trkpt><trkpt lat="43.1141717" lon="13.5650583"><ele>157.5</ele><time>2026-04-04T14:34:55.503Z</time></trkpt><trkpt lat="43.1142733" lon="13.565215"><ele>157.25</ele><time>2026-04-04T14:34:56.503Z</time></trkpt><trkpt lat="43.1143833" lon="13.5653767"><ele>157.0</ele><time>2026-04-04T14:34:57.504Z</time></trkpt><trkpt lat="43.11451" lon="13.56554"><ele>156.66666666666669</ele><time>2026-04-04T14:34:58.503Z</time></trkpt><trkpt lat="43.11462" lon="13.5656817"><ele>156.33333333333334</ele><time>2026-04-04T14:34:59.504Z</time></trkpt><trkpt lat="43.1147283" lon="13.5658267"><ele>156.0</ele><time>2026-04-04T14:35:00.504Z</time></trkpt><trkpt lat="43.114845" lon="13.5659767"><ele>155.66666666666666</ele><time>2026-04-04T14:35:01.504Z</time></trkpt><trkpt lat="43.1149683" lon="13.5661133"><ele>155.33333333333331</ele><time>2026-04-04T14:35:02.503Z</time></trkpt><trkpt lat="43.11508" lon="13.5662517"><ele>155.0</ele><time>2026-04-04T14:35:03.504Z</time></trkpt><trkpt lat="43.11519" lon="13.5663767"><ele>154.75</ele><time>2026-04-04T14:35:04.503Z</time></trkpt><trkpt lat="43.115285" lon="13.5665"><ele>154.5</ele><time>2026-04-04T14:35:05.503Z</time></trkpt><trkpt lat="43.115375" lon="13.5666233"><ele>154.25</ele><time>2026-04-04T14:35:06.503Z</time></trkpt><trkpt lat="43.11546" lon="13.5667417"><ele>154.0</ele><time>2026-04-04T14:35:07.503Z</time></trkpt><trkpt lat="43.1155433" lon="13.566855"><ele>154.0</ele><time>2026-04-04T14:35:08.503Z</time></trkpt><trkpt lat="43.11563" lon="13.5669883"><ele>154.0</ele><time>2026-04-04T14:35:09.503Z</time></trkpt><trkpt lat="43.1157333" lon="13.56711"><ele>154.0</ele><time>2026-04-04T14:35:10.504Z</time></trkpt><trkpt lat="43.1158333" lon="13.56724"><ele>154.0</ele><time>2026-04-04T14:35:11.504Z</time></trkpt><trkpt lat="43.11595" lon="13.567375"><ele>153.66666666666669</ele><time>2026-04-04T14:35:12.503Z</time></trkpt><trkpt lat="43.1160733" lon="13.5675233"><ele>153.33333333333334</ele><time>2026-04-04T14:35:13.504Z</time></trkpt><trkpt lat="43.1162033" lon="13.567685"><ele>153.0</ele><time>2026-04-04T14:35:14.504Z</time></trkpt><trkpt lat="43.11634" lon="13.5678633"><ele>152.66666666666666</ele><time>2026-04-04T14:35:15.504Z</time></trkpt><trkpt lat="43.1164817" lon="13.56804"><ele>152.33333333333331</ele><time>2026-04-04T14:35:16.503Z</time></trkpt><trkpt lat="43.116625" lon="13.5682117"><ele>152.0</ele><time>2026-04-04T14:35:17.503Z</time></trkpt><trkpt lat="43.1167617" lon="13.5683933"><ele>152.66666666666666</ele><time>2026-04-04T14:35:18.503Z</time></trkpt><trkpt lat="43.1169033" lon="13.5685733"><ele>153.33333333333334</ele><time>2026-04-04T14:35:19.503Z</time></trkpt><trkpt lat="43.1170417" lon="13.5687633"><ele>154.0</ele><time>2026-04-04T14:35:20.504Z</time></trkpt><trkpt lat="43.1171883" lon="13.56896"><ele>154.0</ele><time>2026-04-04T14:35:21.503Z</time></trkpt><trkpt lat="43.1173217" lon="13.5691667"><ele>154.0</ele><time>2026-04-04T14:35:22.504Z</time></trkpt><trkpt lat="43.117455" lon="13.5693717"><ele>154.0</ele><time>2026-04-04T14:35:23.504Z</time></trkpt><trkpt lat="43.1175783" lon="13.5695767"><ele>154.66666666666669</ele><time>2026-04-04T14:35:24.504Z</time></trkpt><trkpt lat="43.1176883" lon="13.5697883"><ele>155.33333333333334</ele><time>2026-04-04T14:35:25.504Z</time></trkpt><trkpt lat="43.11778" lon="13.5700117"><ele>156.0</ele><time>2026-04-04T14:35:26.504Z</time></trkpt><trkpt lat="43.1178717" lon="13.5702283"><ele>155.33333333333334</ele><time>2026-04-04T14:35:27.503Z</time></trkpt><trkpt lat="43.1179633" lon="13.57046"><ele>154.66666666666669</ele><time>2026-04-04T14:35:28.503Z</time></trkpt><trkpt lat="43.1180417" lon="13.5706883"><ele>154.0</ele><time>2026-04-04T14:35:29.503Z</time></trkpt><trkpt lat="43.118125" lon="13.57091"><ele>154.0</ele><time>2026-04-04T14:35:30.504Z</time></trkpt><trkpt lat="43.1182017" lon="13.571135"><ele>154.0</ele><time>2026-04-04T14:35:31.503Z</time></trkpt><trkpt lat="43.1182833" lon="13.5713633"><ele>154.0</ele><time>2026-04-04T14:35:32.503Z</time></trkpt><trkpt lat="43.118365" lon="13.5715983"><ele>154.0</ele><time>2026-04-04T14:35:33.504Z</time></trkpt><trkpt lat="43.1184467" lon="13.57183"><ele>154.0</ele><time>2026-04-04T14:35:34.503Z</time></trkpt><trkpt lat="43.118535" lon="13.5720717"><ele>154.0</ele><time>2026-04-04T14:35:35.503Z</time></trkpt><trkpt lat="43.11863" lon="13.572315"><ele>153.0</ele><time>2026-04-04T14:35:36.504Z</time></trkpt><trkpt lat="43.1187017" lon="13.57256"><ele>152.0</ele><time>2026-04-04T14:35:37.504Z</time></trkpt><trkpt lat="43.1187883" lon="13.5727967"><ele>151.0</ele><time>2026-04-04T14:35:38.504Z</time></trkpt><trkpt lat="43.1188733" lon="13.573035"><ele>151.33333333333334</ele><time>2026-04-04T14:35:39.504Z</time></trkpt><trkpt lat="43.118965" lon="13.5732867"><ele>151.66666666666666</ele><time>2026-04-04T14:35:40.503Z</time></trkpt><trkpt lat="43.1190467" lon="13.573535"><ele>152.0</ele><time>2026-04-04T14:35:41.504Z</time></trkpt><trkpt lat="43.1191283" lon="13.5737833"><ele>152.0</ele><time>2026-04-04T14:35:42.503Z</time></trkpt><trkpt lat="43.1192183" lon="13.5740217"><ele>152.0</ele><time>2026-04-04T14:35:43.502Z</time></trkpt><trkpt lat="43.1193117" lon="13.5742767"><ele>152.0</ele><time>2026-04-04T14:35:44.503Z</time></trkpt><trkpt lat="43.1193967" lon="13.5745267"><ele>151.33333333333331</ele><time>2026-04-04T14:35:45.502Z</time></trkpt><trkpt lat="43.1194783" lon="13.5747783"><ele>150.66666666666666</ele><time>2026-04-04T14:35:46.503Z</time></trkpt><trkpt lat="43.1195617" lon="13.5750133"><ele>150.0</ele><time>2026-04-04T14:35:47.503Z</time></trkpt><trkpt lat="43.1196433" lon="13.575255"><ele>149.66666666666666</ele><time>2026-04-04T14:35:48.503Z</time></trkpt><trkpt lat="43.119725" lon="13.5754733"><ele>149.33333333333331</ele><time>2026-04-04T14:35:49.502Z</time></trkpt><trkpt lat="43.1197983" lon="13.5756833"><ele>149.0</ele><time>2026-04-04T14:35:50.503Z</time></trkpt><trkpt lat="43.11987" lon="13.575895"><ele>149.5</ele><time>2026-04-04T14:35:51.502Z</time></trkpt><trkpt lat="43.1199367" lon="13.5760933"><ele>150.0</ele><time>2026-04-04T14:35:52.502Z</time></trkpt><trkpt lat="43.1199967" lon="13.5762817"><ele>150.5</ele><time>2026-04-04T14:35:53.502Z</time></trkpt><trkpt lat="43.1200467" lon="13.576455"><ele>151.0</ele><time>2026-04-04T14:35:54.503Z</time></trkpt><trkpt lat="43.1200967" lon="13.576625"><ele>151.0</ele><time>2026-04-04T14:35:55.503Z</time></trkpt><trkpt lat="43.1201483" lon="13.5767817"><ele>151.0</ele><time>2026-04-04T14:35:56.502Z</time></trkpt><trkpt lat="43.1201967" lon="13.57694"><ele>151.0</ele><time>2026-04-04T14:35:57.503Z</time></trkpt><trkpt lat="43.1202517" lon="13.5770933"><ele>151.0</ele><time>2026-04-04T14:35:58.503Z</time></trkpt><trkpt lat="43.1203" lon="13.5772383"><ele>150.5</ele><time>2026-04-04T14:35:59.502Z</time></trkpt><trkpt lat="43.1203517" lon="13.5773867"><ele>150.0</ele><time>2026-04-04T14:36:00.503Z</time></trkpt><trkpt lat="43.12041" lon="13.5775317"><ele>149.5</ele><time>2026-04-04T14:36:01.503Z</time></trkpt><trkpt lat="43.1204783" lon="13.577695"><ele>149.0</ele><time>2026-04-04T14:36:02.503Z</time></trkpt><trkpt lat="43.1205517" lon="13.5778733"><ele>149.0</ele><time>2026-04-04T14:36:03.503Z</time></trkpt><trkpt lat="43.120635" lon="13.5780617"><ele>149.0</ele><time>2026-04-04T14:36:04.503Z</time></trkpt><trkpt lat="43.1207183" lon="13.57826"><ele>149.0</ele><time>2026-04-04T14:36:05.503Z</time></trkpt><trkpt lat="43.1208017" lon="13.5784717"><ele>147.66666666666666</ele><time>2026-04-04T14:36:06.502Z</time></trkpt><trkpt lat="43.12089" lon="13.5786917"><ele>146.33333333333334</ele><time>2026-04-04T14:36:07.503Z</time></trkpt><trkpt lat="43.1209783" lon="13.578905"><ele>145.0</ele><time>2026-04-04T14:36:08.503Z</time></trkpt><trkpt lat="43.1210817" lon="13.5791367"><ele>145.0</ele><time>2026-04-04T14:36:09.502Z</time></trkpt><trkpt lat="43.1211767" lon="13.5793583"><ele>145.0</ele><time>2026-04-04T14:36:10.503Z</time></trkpt><trkpt lat="43.121265" lon="13.579575"><ele>145.0</ele><time>2026-04-04T14:36:11.502Z</time></trkpt><trkpt lat="43.12136" lon="13.5797883"><ele>144.33333333333334</ele><time>2026-04-04T14:36:12.502Z</time></trkpt><trkpt lat="43.1214517" lon="13.5800183"><ele>143.66666666666666</ele><time>2026-04-04T14:36:13.503Z</time></trkpt><trkpt lat="43.12155" lon="13.5802417"><ele>143.0</ele><time>2026-04-04T14:36:14.502Z</time></trkpt><trkpt lat="43.1216467" lon="13.5804433"><ele>142.66666666666666</ele><time>2026-04-04T14:36:15.502Z</time></trkpt><trkpt lat="43.1217267" lon="13.5806433"><ele>142.33333333333334</ele><time>2026-04-04T14:36:16.503Z</time></trkpt><trkpt lat="43.1218033" lon="13.5808383"><ele>142.0</ele><time>2026-04-04T14:36:17.502Z</time></trkpt><trkpt lat="43.1218817" lon="13.5810267"><ele>141.5</ele><time>2026-04-04T14:36:18.503Z</time></trkpt><trkpt lat="43.12196" lon="13.5812033"><ele>141.0</ele><time>2026-04-04T14:36:19.502Z</time></trkpt><trkpt lat="43.12203" lon="13.5813867"><ele>140.5</ele><time>2026-04-04T14:36:20.502Z</time></trkpt><trkpt lat="43.1220933" lon="13.5815617"><ele>140.0</ele><time>2026-04-04T14:36:21.502Z</time></trkpt><trkpt lat="43.1221517" lon="13.5817283"><ele>140.0</ele><time>2026-04-04T14:36:22.503Z</time></trkpt><trkpt lat="43.1222067" lon="13.5818917"><ele>140.0</ele><time>2026-04-04T14:36:23.503Z</time></trkpt><trkpt lat="43.1222633" lon="13.582045"><ele>140.0</ele><time>2026-04-04T14:36:24.502Z</time></trkpt><trkpt lat="43.122305" lon="13.5821833"><ele>140.0</ele><time>2026-04-04T14:36:25.502Z</time></trkpt><trkpt lat="43.1223583" lon="13.58232"><ele>139.5</ele><time>2026-04-04T14:36:26.503Z</time></trkpt><trkpt lat="43.122425" lon="13.5824617"><ele>139.0</ele><time>2026-04-04T14:36:27.503Z</time></trkpt><trkpt lat="43.1224817" lon="13.5826133"><ele>138.5</ele><time>2026-04-04T14:36:28.502Z</time></trkpt><trkpt lat="43.1225367" lon="13.5827683"><ele>138.0</ele><time>2026-04-04T14:36:29.502Z</time></trkpt><trkpt lat="43.1225967" lon="13.5829317"><ele>137.75</ele><time>2026-04-04T14:36:30.503Z</time></trkpt><trkpt lat="43.1226583" lon="13.5831133"><ele>137.5</ele><time>2026-04-04T14:36:31.503Z</time></trkpt><trkpt lat="43.1227083" lon="13.5832883"><ele>137.25</ele><time>2026-04-04T14:36:32.503Z</time></trkpt><trkpt lat="43.1227633" lon="13.5834583"><ele>137.0</ele><time>2026-04-04T14:36:33.503Z</time></trkpt><trkpt lat="43.1228367" lon="13.58364"><ele>137.33333333333331</ele><time>2026-04-04T14:36:34.503Z</time></trkpt><trkpt lat="43.1229067" lon="13.5838333"><ele>137.66666666666666</ele><time>2026-04-04T14:36:35.502Z</time></trkpt><trkpt lat="43.1229883" lon="13.5840267"><ele>138.0</ele><time>2026-04-04T14:36:36.502Z</time></trkpt><trkpt lat="43.123065" lon="13.5842317"><ele>138.0</ele><time>2026-04-04T14:36:37.503Z</time></trkpt><trkpt lat="43.123135" lon="13.58445"><ele>138.0</ele><time>2026-04-04T14:36:38.503Z</time></trkpt><trkpt lat="43.1232033" lon="13.5846617"><ele>138.0</ele><time>2026-04-04T14:36:39.502Z</time></trkpt><trkpt lat="43.1232767" lon="13.5848667"><ele>138.0</ele><time>2026-04-04T14:36:40.503Z</time></trkpt><trkpt lat="43.1233233" lon="13.5850883"><ele>138.0</ele><time>2026-04-04T14:36:41.503Z</time></trkpt><trkpt lat="43.1233567" lon="13.5853033"><ele>138.0</ele><time>2026-04-04T14:36:42.502Z</time></trkpt><trkpt lat="43.1233883" lon="13.585515"><ele>137.0</ele><time>2026-04-04T14:36:43.503Z</time></trkpt><trkpt lat="43.1234317" lon="13.5857283"><ele>136.0</ele><time>2026-04-04T14:36:44.502Z</time></trkpt><trkpt lat="43.1234767" lon="13.5859567"><ele>135.0</ele><time>2026-04-04T14:36:45.502Z</time></trkpt><trkpt lat="43.1235417" lon="13.5861783"><ele>134.66666666666666</ele><time>2026-04-04T14:36:46.502Z</time></trkpt><trkpt lat="43.1236133" lon="13.5863917"><ele>134.33333333333331</ele><time>2026-04-04T14:36:47.502Z</time></trkpt><trkpt lat="43.1237" lon="13.5866"><ele>134.0</ele><time>2026-04-04T14:36:48.503Z</time></trkpt><trkpt lat="43.123795" lon="13.586785"><ele>134.0</ele><time>2026-04-04T14:36:49.502Z</time></trkpt><trkpt lat="43.1238983" lon="13.5869617"><ele>134.0</ele><time>2026-04-04T14:36:50.502Z</time></trkpt><trkpt lat="43.1239933" lon="13.5871217"><ele>134.0</ele><time>2026-04-04T14:36:51.502Z</time></trkpt><trkpt lat="43.1240867" lon="13.587265"><ele>134.25</ele><time>2026-04-04T14:36:52.503Z</time></trkpt><trkpt lat="43.1241733" lon="13.5874083"><ele>134.5</ele><time>2026-04-04T14:36:53.503Z</time></trkpt><trkpt lat="43.1242533" lon="13.5875583"><ele>134.75</ele><time>2026-04-04T14:36:54.502Z</time></trkpt><trkpt lat="43.124325" lon="13.5877117"><ele>135.0</ele><time>2026-04-04T14:36:55.503Z</time></trkpt><trkpt lat="43.124395" lon="13.5878683"><ele>135.0</ele><time>2026-04-04T14:36:56.502Z</time></trkpt><trkpt lat="43.1244633" lon="13.588025"><ele>135.0</ele><time>2026-04-04T14:36:57.503Z</time></trkpt><trkpt lat="43.1245367" lon="13.5881833"><ele>135.0</ele><time>2026-04-04T14:36:58.503Z</time></trkpt><trkpt lat="43.1246017" lon="13.5883517"><ele>135.0</ele><time>2026-04-04T14:36:59.502Z</time></trkpt><trkpt lat="43.1246633" lon="13.5885217"><ele>135.25</ele><time>2026-04-04T14:37:00.502Z</time></trkpt><trkpt lat="43.1247233" lon="13.5886983"><ele>135.5</ele><time>2026-04-04T14:37:01.502Z</time></trkpt><trkpt lat="43.1247883" lon="13.5888733"><ele>135.75</ele><time>2026-04-04T14:37:02.503Z</time></trkpt><trkpt lat="43.124845" lon="13.5890417"><ele>136.0</ele><time>2026-04-04T14:37:03.502Z</time></trkpt><trkpt lat="43.1248967" lon="13.5892167"><ele>136.0</ele><time>2026-04-04T14:37:04.502Z</time></trkpt><trkpt lat="43.1249533" lon="13.5893967"><ele>136.0</ele><time>2026-04-04T14:37:05.503Z</time></trkpt><trkpt lat="43.125015" lon="13.589575"><ele>136.0</ele><time>2026-04-04T14:37:06.502Z</time></trkpt><trkpt lat="43.1250767" lon="13.589755"><ele>136.0</ele><time>2026-04-04T14:37:07.503Z</time></trkpt><trkpt lat="43.12515" lon="13.5899183"><ele>134.75</ele><time>2026-04-04T14:37:08.503Z</time></trkpt><trkpt lat="43.1252217" lon="13.59008"><ele>133.5</ele><time>2026-04-04T14:37:09.503Z</time></trkpt><trkpt lat="43.12531" lon="13.5902317"><ele>132.25</ele><time>2026-04-04T14:37:10.503Z</time></trkpt><trkpt lat="43.1254083" lon="13.5903817"><ele>131.0</ele><time>2026-04-04T14:37:11.502Z</time></trkpt><trkpt lat="43.1254983" lon="13.5905"><ele>131.4</ele><time>2026-04-04T14:37:12.502Z</time></trkpt><trkpt lat="43.12557" lon="13.59062"><ele>131.8</ele><time>2026-04-04T14:37:13.502Z</time></trkpt><trkpt lat="43.1256417" lon="13.5907367"><ele>132.20000000000002</ele><time>2026-04-04T14:37:14.502Z</time></trkpt><trkpt lat="43.1257217" lon="13.5908417"><ele>132.6</ele><time>2026-04-04T14:37:15.502Z</time></trkpt><trkpt lat="43.125795" lon="13.5909517"><ele>133.0</ele><time>2026-04-04T14:37:16.503Z</time></trkpt><trkpt lat="43.1258617" lon="13.5910683"><ele>133.0</ele><time>2026-04-04T14:37:17.502Z</time></trkpt><trkpt lat="43.1259267" lon="13.5911733"><ele>133.0</ele><time>2026-04-04T14:37:18.502Z</time></trkpt><trkpt lat="43.1259917" lon="13.5912767"><ele>133.0</ele><time>2026-04-04T14:37:19.502Z</time></trkpt><trkpt lat="43.1260367" lon="13.5913983"><ele>133.0</ele><time>2026-04-04T14:37:20.502Z</time></trkpt><trkpt lat="43.1260683" lon="13.59152"><ele>133.0</ele><time>2026-04-04T14:37:21.503Z</time></trkpt><trkpt lat="43.1260967" lon="13.59163"><ele>132.33333333333334</ele><time>2026-04-04T14:37:22.502Z</time></trkpt><trkpt lat="43.1260967" lon="13.59175"><ele>131.66666666666669</ele><time>2026-04-04T14:37:23.502Z</time></trkpt><trkpt lat="43.1260967" lon="13.5918617"><ele>131.0</ele><time>2026-04-04T14:37:24.503Z</time></trkpt><trkpt lat="43.126085" lon="13.5919617"><ele>130.33333333333334</ele><time>2026-04-04T14:37:25.502Z</time></trkpt><trkpt lat="43.1260633" lon="13.592065"><ele>129.66666666666666</ele><time>2026-04-04T14:37:26.503Z</time></trkpt><trkpt lat="43.1260417" lon="13.59217"><ele>129.0</ele><time>2026-04-04T14:37:27.502Z</time></trkpt><trkpt lat="43.1260317" lon="13.59226"><ele>128.5</ele><time>2026-04-04T14:37:28.502Z</time></trkpt><trkpt lat="43.12605" lon="13.592355"><ele>128.0</ele><time>2026-04-04T14:37:29.502Z</time></trkpt><trkpt lat="43.126095" lon="13.5924333"><ele>127.5</ele><time>2026-04-04T14:37:30.502Z</time></trkpt><trkpt lat="43.1261517" lon="13.5924917"><ele>127.0</ele><time>2026-04-04T14:37:31.503Z</time></trkpt><trkpt lat="43.1262333" lon="13.5925283"><ele>126.5</ele><time>2026-04-04T14:37:32.502Z</time></trkpt><trkpt lat="43.12632" lon="13.5925683"><ele>126.0</ele><time>2026-04-04T14:37:33.502Z</time></trkpt><trkpt lat="43.126415" lon="13.5926233"><ele>126.0</ele><time>2026-04-04T14:37:34.502Z</time></trkpt><trkpt lat="43.12651" lon="13.5927033"><ele>126.0</ele><time>2026-04-04T14:37:35.503Z</time></trkpt><trkpt lat="43.1266" lon="13.5927983"><ele>126.0</ele><time>2026-04-04T14:37:36.502Z</time></trkpt><trkpt lat="43.1266767" lon="13.5929117"><ele>126.0</ele><time>2026-04-04T14:37:37.502Z</time></trkpt><trkpt lat="43.12674" lon="13.593025"><ele>126.0</ele><time>2026-04-04T14:37:38.503Z</time></trkpt><trkpt lat="43.1267933" lon="13.5931483"><ele>126.0</ele><time>2026-04-04T14:37:39.502Z</time></trkpt><trkpt lat="43.12685" lon="13.5932783"><ele>126.0</ele><time>2026-04-04T14:37:40.503Z</time></trkpt><trkpt lat="43.1269033" lon="13.5934183"><ele>126.0</ele><time>2026-04-04T14:37:41.503Z</time></trkpt><trkpt lat="43.1269567" lon="13.5935617"><ele>126.0</ele><time>2026-04-04T14:37:42.502Z</time></trkpt><trkpt lat="43.1270167" lon="13.593695"><ele>126.0</ele><time>2026-04-04T14:37:43.503Z</time></trkpt><trkpt lat="43.1270817" lon="13.5938417"><ele>126.0</ele><time>2026-04-04T14:37:44.503Z</time></trkpt><trkpt lat="43.1271567" lon="13.5939833"><ele>126.0</ele><time>2026-04-04T14:37:45.503Z</time></trkpt><trkpt lat="43.1272283" lon="13.594125"><ele>126.0</ele><time>2026-04-04T14:37:46.502Z</time></trkpt><trkpt lat="43.1272983" lon="13.59425"><ele>126.0</ele><time>2026-04-04T14:37:47.502Z</time></trkpt><trkpt lat="43.1273633" lon="13.5943717"><ele>126.0</ele><time>2026-04-04T14:37:48.502Z</time></trkpt><trkpt lat="43.127435" lon="13.5945033"><ele>126.0</ele><time>2026-04-04T14:37:49.503Z</time></trkpt><trkpt lat="43.1275183" lon="13.5946233"><ele>126.0</ele><time>2026-04-04T14:37:50.502Z</time></trkpt><trkpt lat="43.127595" lon="13.5947467"><ele>126.19999999999999</ele><time>2026-04-04T14:37:51.503Z</time></trkpt><trkpt lat="43.1276667" lon="13.594865"><ele>126.39999999999999</ele><time>2026-04-04T14:37:52.502Z</time></trkpt><trkpt lat="43.1277283" lon="13.5949783"><ele>126.6</ele><time>2026-04-04T14:37:53.503Z</time></trkpt><trkpt lat="43.1277817" lon="13.5950833"><ele>126.8</ele><time>2026-04-04T14:37:54.503Z</time></trkpt><trkpt lat="43.1278267" lon="13.59517"><ele>127.0</ele><time>2026-04-04T14:37:55.503Z</time></trkpt><trkpt lat="43.1278567" lon="13.59525"><ele>127.0</ele><time>2026-04-04T14:37:56.503Z</time></trkpt><trkpt lat="43.1279333" lon="13.595395"><ele>127.0</ele><time>2026-04-04T14:37:58.502Z</time></trkpt><trkpt lat="43.1279917" lon="13.5954933"><ele>127.0</ele><time>2026-04-04T14:37:59.502Z</time></trkpt><trkpt lat="43.1280683" lon="13.59561"><ele>127.0</ele><time>2026-04-04T14:38:00.503Z</time></trkpt><trkpt lat="43.1281617" lon="13.5957467"><ele>127.0</ele><time>2026-04-04T14:38:01.502Z</time></trkpt><trkpt lat="43.12826" lon="13.5958983"><ele>127.0</ele><time>2026-04-04T14:38:02.502Z</time></trkpt><trkpt lat="43.1283667" lon="13.5960633"><ele>127.0</ele><time>2026-04-04T14:38:03.502Z</time></trkpt><trkpt lat="43.1284617" lon="13.59621"><ele>127.0</ele><time>2026-04-04T14:38:04.503Z</time></trkpt><trkpt lat="43.128555" lon="13.59634"><ele>127.0</ele><time>2026-04-04T14:38:05.502Z</time></trkpt><trkpt lat="43.1286733" lon="13.5964933"><ele>127.0</ele><time>2026-04-04T14:38:06.503Z</time></trkpt><trkpt lat="43.12879" lon="13.59665"><ele>127.0</ele><time>2026-04-04T14:38:07.502Z</time></trkpt><trkpt lat="43.128915" lon="13.59682"><ele>127.0</ele><time>2026-04-04T14:38:08.502Z</time></trkpt><trkpt lat="43.1290617" lon="13.596965"><ele>127.0</ele><time>2026-04-04T14:38:09.503Z</time></trkpt><trkpt lat="43.1292217" lon="13.5971067"><ele>127.0</ele><time>2026-04-04T14:38:10.502Z</time></trkpt><trkpt lat="43.1293967" lon="13.5972383"><ele>127.0</ele><time>2026-04-04T14:38:11.503Z</time></trkpt><trkpt lat="43.1295567" lon="13.59738"><ele>127.0</ele><time>2026-04-04T14:38:12.502Z</time></trkpt><trkpt lat="43.1297383" lon="13.5975333"><ele>126.66666666666667</ele><time>2026-04-04T14:38:13.502Z</time></trkpt><trkpt lat="43.12994" lon="13.59766"><ele>126.33333333333334</ele><time>2026-04-04T14:38:14.503Z</time></trkpt><trkpt lat="43.1301383" lon="13.5977917"><ele>126.0</ele><time>2026-04-04T14:38:15.503Z</time></trkpt><trkpt lat="43.1303267" lon="13.5979367"><ele>126.0</ele><time>2026-04-04T14:38:16.503Z</time></trkpt><trkpt lat="43.1305083" lon="13.5980983"><ele>126.0</ele><time>2026-04-04T14:38:17.503Z</time></trkpt><trkpt lat="43.1306833" lon="13.5982767"><ele>126.0</ele><time>2026-04-04T14:38:18.503Z</time></trkpt><trkpt lat="43.1308517" lon="13.5984667"><ele>126.0</ele><time>2026-04-04T14:38:19.503Z</time></trkpt><trkpt lat="43.131015" lon="13.5986717"><ele>126.0</ele><time>2026-04-04T14:38:20.503Z</time></trkpt><trkpt lat="43.1311633" lon="13.59892"><ele>126.0</ele><time>2026-04-04T14:38:21.503Z</time></trkpt><trkpt lat="43.1313083" lon="13.5991483"><ele>126.0</ele><time>2026-04-04T14:38:22.502Z</time></trkpt><trkpt lat="43.1314517" lon="13.5993817"><ele>126.0</ele><time>2026-04-04T14:38:23.502Z</time></trkpt><trkpt lat="43.1315967" lon="13.5996117"><ele>126.66666666666666</ele><time>2026-04-04T14:38:24.502Z</time></trkpt><trkpt lat="43.1317483" lon="13.599825"><ele>127.33333333333333</ele><time>2026-04-04T14:38:25.503Z</time></trkpt><trkpt lat="43.1319083" lon="13.6000383"><ele>128.0</ele><time>2026-04-04T14:38:26.502Z</time></trkpt><trkpt lat="43.1320617" lon="13.60024"><ele>128.33333333333331</ele><time>2026-04-04T14:38:27.502Z</time></trkpt><trkpt lat="43.1322083" lon="13.6004683"><ele>128.66666666666666</ele><time>2026-04-04T14:38:28.502Z</time></trkpt><trkpt lat="43.1323533" lon="13.6007"><ele>129.0</ele><time>2026-04-04T14:38:29.502Z</time></trkpt><trkpt lat="43.1324983" lon="13.6009367"><ele>127.33333333333334</ele><time>2026-04-04T14:38:30.502Z</time></trkpt><trkpt lat="43.132615" lon="13.6011783"><ele>125.66666666666667</ele><time>2026-04-04T14:38:31.502Z</time></trkpt><trkpt lat="43.1327133" lon="13.601445"><ele>124.0</ele><time>2026-04-04T14:38:32.502Z</time></trkpt><trkpt lat="43.1327983" lon="13.60174"><ele>123.0</ele><time>2026-04-04T14:38:33.502Z</time></trkpt><trkpt lat="43.132895" lon="13.602015"><ele>122.0</ele><time>2026-04-04T14:38:34.503Z</time></trkpt><trkpt lat="43.1329883" lon="13.6022717"><ele>121.0</ele><time>2026-04-04T14:38:35.502Z</time></trkpt><trkpt lat="43.1331" lon="13.60254"><ele>121.0</ele><time>2026-04-04T14:38:36.503Z</time></trkpt><trkpt lat="43.1332317" lon="13.6027817"><ele>121.0</ele><time>2026-04-04T14:38:37.502Z</time></trkpt><trkpt lat="43.1333633" lon="13.603025"><ele>121.0</ele><time>2026-04-04T14:38:38.503Z</time></trkpt><trkpt lat="43.1335067" lon="13.6032517"><ele>121.0</ele><time>2026-04-04T14:38:39.503Z</time></trkpt><trkpt lat="43.13367" lon="13.6034483"><ele>121.0</ele><time>2026-04-04T14:38:40.503Z</time></trkpt><trkpt lat="43.1338467" lon="13.6036083"><ele>121.0</ele><time>2026-04-04T14:38:41.502Z</time></trkpt><trkpt lat="43.1340333" lon="13.6037933"><ele>122.0</ele><time>2026-04-04T14:38:42.502Z</time></trkpt><trkpt lat="43.134205" lon="13.60398"><ele>123.0</ele><time>2026-04-04T14:38:43.503Z</time></trkpt><trkpt lat="43.13437" lon="13.6041667"><ele>124.0</ele><time>2026-04-04T14:38:44.503Z</time></trkpt><trkpt lat="43.1345083" lon="13.6043917"><ele>125.66666666666667</ele><time>2026-04-04T14:38:45.503Z</time></trkpt><trkpt lat="43.134645" lon="13.6046233"><ele>127.33333333333334</ele><time>2026-04-04T14:38:46.503Z</time></trkpt><trkpt lat="43.1347883" lon="13.6048617"><ele>129.0</ele><time>2026-04-04T14:38:47.503Z</time></trkpt><trkpt lat="43.134925" lon="13.605105"><ele>125.0</ele><time>2026-04-04T14:38:48.502Z</time></trkpt><trkpt lat="43.135065" lon="13.60534"><ele>121.0</ele><time>2026-04-04T14:38:49.503Z</time></trkpt><trkpt lat="43.135215" lon="13.60558"><ele>121.0</ele><time>2026-04-04T14:38:50.503Z</time></trkpt><trkpt lat="43.135375" lon="13.6058"><ele>121.0</ele><time>2026-04-04T14:38:51.503Z</time></trkpt><trkpt lat="43.135545" lon="13.6059983"><ele>119.0</ele><time>2026-04-04T14:38:52.503Z</time></trkpt><trkpt lat="43.1357367" lon="13.6061767"><ele>117.0</ele><time>2026-04-04T14:38:53.503Z</time></trkpt><trkpt lat="43.1359383" lon="13.606335"><ele>117.0</ele><time>2026-04-04T14:38:54.502Z</time></trkpt><trkpt lat="43.1361317" lon="13.6065183"><ele>117.0</ele><time>2026-04-04T14:38:55.503Z</time></trkpt><trkpt lat="43.13633" lon="13.6066967"><ele>117.0</ele><time>2026-04-04T14:38:56.502Z</time></trkpt><trkpt lat="43.1365267" lon="13.6068767"><ele>117.0</ele><time>2026-04-04T14:38:57.503Z</time></trkpt><trkpt lat="43.1367267" lon="13.607075"><ele>116.0</ele><time>2026-04-04T14:38:58.502Z</time></trkpt><trkpt lat="43.1369183" lon="13.6072567"><ele>115.0</ele><time>2026-04-04T14:38:59.503Z</time></trkpt><trkpt lat="43.1371117" lon="13.6074483"><ele>115.0</ele><time>2026-04-04T14:39:00.502Z</time></trkpt><trkpt lat="43.137295" lon="13.60763"><ele>115.0</ele><time>2026-04-04T14:39:01.502Z</time></trkpt><trkpt lat="43.1374817" lon="13.6078167"><ele>114.5</ele><time>2026-04-04T14:39:02.503Z</time></trkpt><trkpt lat="43.1376767" lon="13.6080133"><ele>114.0</ele><time>2026-04-04T14:39:03.503Z</time></trkpt><trkpt lat="43.1378667" lon="13.6081917"><ele>114.0</ele><time>2026-04-04T14:39:04.503Z</time></trkpt><trkpt lat="43.138065" lon="13.608375"><ele>114.0</ele><time>2026-04-04T14:39:05.503Z</time></trkpt><trkpt lat="43.1382633" lon="13.608555"><ele>114.5</ele><time>2026-04-04T14:39:06.503Z</time></trkpt><trkpt lat="43.1384583" lon="13.6087283"><ele>115.0</ele><time>2026-04-04T14:39:07.502Z</time></trkpt><trkpt lat="43.13865" lon="13.608905"><ele>115.0</ele><time>2026-04-04T14:39:08.502Z</time></trkpt><trkpt lat="43.138845" lon="13.6090983"><ele>115.0</ele><time>2026-04-04T14:39:09.503Z</time></trkpt><trkpt lat="43.1390283" lon="13.6092817"><ele>115.0</ele><time>2026-04-04T14:39:10.502Z</time></trkpt><trkpt lat="43.1392133" lon="13.6094783"><ele>115.0</ele><time>2026-04-04T14:39:11.502Z</time></trkpt><trkpt lat="43.1394033" lon="13.60969"><ele>115.0</ele><time>2026-04-04T14:39:12.503Z</time></trkpt><trkpt lat="43.1395833" lon="13.609895"><ele>115.0</ele><time>2026-04-04T14:39:13.503Z</time></trkpt><trkpt lat="43.13977" lon="13.6101017"><ele>115.0</ele><time>2026-04-04T14:39:14.502Z</time></trkpt><trkpt lat="43.1399567" lon="13.6103117"><ele>115.0</ele><time>2026-04-04T14:39:15.503Z</time></trkpt><trkpt lat="43.1401433" lon="13.6105183"><ele>115.0</ele><time>2026-04-04T14:39:16.503Z</time></trkpt><trkpt lat="43.1403267" lon="13.610725"><ele>115.0</ele><time>2026-04-04T14:39:17.502Z</time></trkpt><trkpt lat="43.14051" lon="13.6109133"><ele>115.0</ele><time>2026-04-04T14:39:18.502Z</time></trkpt><trkpt lat="43.1406983" lon="13.6111117"><ele>115.0</ele><time>2026-04-04T14:39:19.502Z</time></trkpt><trkpt lat="43.1408867" lon="13.6113217"><ele>116.0</ele><time>2026-04-04T14:39:20.503Z</time></trkpt><trkpt lat="43.1410667" lon="13.61153"><ele>117.0</ele><time>2026-04-04T14:39:21.503Z</time></trkpt><trkpt lat="43.141255" lon="13.6117383"><ele>117.0</ele><time>2026-04-04T14:39:22.503Z</time></trkpt><trkpt lat="43.1414383" lon="13.6119617"><ele>117.0</ele><time>2026-04-04T14:39:23.502Z</time></trkpt><trkpt lat="43.14162" lon="13.61218"><ele>115.5</ele><time>2026-04-04T14:39:24.503Z</time></trkpt><trkpt lat="43.141805" lon="13.612385"><ele>114.0</ele><time>2026-04-04T14:39:25.502Z</time></trkpt><trkpt lat="43.1419967" lon="13.6125917"><ele>114.0</ele><time>2026-04-04T14:39:26.503Z</time></trkpt><trkpt lat="43.14218" lon="13.6127983"><ele>114.0</ele><time>2026-04-04T14:39:27.502Z</time></trkpt><trkpt lat="43.142365" lon="13.6130083"><ele>115.5</ele><time>2026-04-04T14:39:28.502Z</time></trkpt><trkpt lat="43.1425517" lon="13.6131983"><ele>117.0</ele><time>2026-04-04T14:39:29.503Z</time></trkpt><trkpt lat="43.14273" lon="13.6134067"><ele>117.0</ele><time>2026-04-04T14:39:30.503Z</time></trkpt><trkpt lat="43.142895" lon="13.6136133"><ele>117.0</ele><time>2026-04-04T14:39:31.503Z</time></trkpt><trkpt lat="43.1430533" lon="13.61381"><ele>117.0</ele><time>2026-04-04T14:39:32.502Z</time></trkpt><trkpt lat="43.143205" lon="13.614015"><ele>116.66666666666666</ele><time>2026-04-04T14:39:33.502Z</time></trkpt><trkpt lat="43.1433683" lon="13.614205"><ele>116.33333333333333</ele><time>2026-04-04T14:39:34.502Z</time></trkpt><trkpt lat="43.1435267" lon="13.61441"><ele>116.0</ele><time>2026-04-04T14:39:35.503Z</time></trkpt><trkpt lat="43.1436867" lon="13.61461"><ele>116.33333333333333</ele><time>2026-04-04T14:39:36.502Z</time></trkpt><trkpt lat="43.1438467" lon="13.614815"><ele>116.66666666666666</ele><time>2026-04-04T14:39:37.502Z</time></trkpt><trkpt lat="43.14401" lon="13.6150233"><ele>117.0</ele><time>2026-04-04T14:39:38.503Z</time></trkpt><trkpt lat="43.144165" lon="13.6152367"><ele>115.33333333333334</ele><time>2026-04-04T14:39:39.502Z</time></trkpt><trkpt lat="43.1443267" lon="13.6154467"><ele>113.66666666666667</ele><time>2026-04-04T14:39:40.502Z</time></trkpt><trkpt lat="43.144485" lon="13.6156533"><ele>112.0</ele><time>2026-04-04T14:39:41.503Z</time></trkpt><trkpt lat="43.14464" lon="13.6158567"><ele>112.0</ele><time>2026-04-04T14:39:42.503Z</time></trkpt><trkpt lat="43.144805" lon="13.6160517"><ele>112.0</ele><time>2026-04-04T14:39:43.503Z</time></trkpt><trkpt lat="43.1449633" lon="13.61625"><ele>112.0</ele><time>2026-04-04T14:39:44.503Z</time></trkpt><trkpt lat="43.1451167" lon="13.6164567"><ele>112.33333333333334</ele><time>2026-04-04T14:39:45.502Z</time></trkpt><trkpt lat="43.1452617" lon="13.61668"><ele>112.66666666666666</ele><time>2026-04-04T14:39:46.502Z</time></trkpt><trkpt lat="43.1453883" lon="13.6169233"><ele>113.0</ele><time>2026-04-04T14:39:47.503Z</time></trkpt><trkpt lat="43.1455033" lon="13.61717"><ele>114.0</ele><time>2026-04-04T14:39:48.502Z</time></trkpt><trkpt lat="43.1456133" lon="13.6174183"><ele>115.0</ele><time>2026-04-04T14:39:49.503Z</time></trkpt><trkpt lat="43.1457333" lon="13.6176533"><ele>116.0</ele><time>2026-04-04T14:39:50.502Z</time></trkpt><trkpt lat="43.1458533" lon="13.6178817"><ele>114.0</ele><time>2026-04-04T14:39:51.503Z</time></trkpt><trkpt lat="43.1459633" lon="13.6180967"><ele>112.0</ele><time>2026-04-04T14:39:52.503Z</time></trkpt><trkpt lat="43.1460783" lon="13.6183283"><ele>110.0</ele><time>2026-04-04T14:39:53.503Z</time></trkpt><trkpt lat="43.1461833" lon="13.6185583"><ele>109.0</ele><time>2026-04-04T14:39:54.503Z</time></trkpt><trkpt lat="43.1463017" lon="13.61878"><ele>108.0</ele><time>2026-04-04T14:39:55.502Z</time></trkpt><trkpt lat="43.1464" lon="13.6190033"><ele>107.0</ele><time>2026-04-04T14:39:56.502Z</time></trkpt><trkpt lat="43.14648" lon="13.6192617"><ele>108.0</ele><time>2026-04-04T14:39:57.503Z</time></trkpt><trkpt lat="43.146565" lon="13.619505"><ele>109.0</ele><time>2026-04-04T14:39:58.503Z</time></trkpt><trkpt lat="43.1466467" lon="13.619745"><ele>110.0</ele><time>2026-04-04T14:39:59.503Z</time></trkpt><trkpt lat="43.1467233" lon="13.6199817"><ele>110.0</ele><time>2026-04-04T14:40:00.502Z</time></trkpt><trkpt lat="43.1468067" lon="13.6202167"><ele>110.0</ele><time>2026-04-04T14:40:01.502Z</time></trkpt><trkpt lat="43.14688" lon="13.62047"><ele>110.0</ele><time>2026-04-04T14:40:02.503Z</time></trkpt><trkpt lat="43.14697" lon="13.6206983"><ele>108.66666666666666</ele><time>2026-04-04T14:40:03.501Z</time></trkpt><trkpt lat="43.1470633" lon="13.6209217"><ele>107.33333333333334</ele><time>2026-04-04T14:40:04.501Z</time></trkpt><trkpt lat="43.14714" lon="13.6211683"><ele>106.0</ele><time>2026-04-04T14:40:05.502Z</time></trkpt><trkpt lat="43.1472217" lon="13.6214033"><ele>106.0</ele><time>2026-04-04T14:40:06.502Z</time></trkpt><trkpt lat="43.14731" lon="13.6216333"><ele>106.0</ele><time>2026-04-04T14:40:07.502Z</time></trkpt><trkpt lat="43.147395" lon="13.62187"><ele>106.0</ele><time>2026-04-04T14:40:08.502Z</time></trkpt><trkpt lat="43.1474833" lon="13.6220983"><ele>105.33333333333334</ele><time>2026-04-04T14:40:09.501Z</time></trkpt><trkpt lat="43.1475683" lon="13.622335"><ele>104.66666666666666</ele><time>2026-04-04T14:40:10.501Z</time></trkpt><trkpt lat="43.1476517" lon="13.622575"><ele>104.0</ele><time>2026-04-04T14:40:11.501Z</time></trkpt><trkpt lat="43.1477317" lon="13.6228083"><ele>103.33333333333333</ele><time>2026-04-04T14:40:12.501Z</time></trkpt><trkpt lat="43.147825" lon="13.6230467"><ele>102.66666666666666</ele><time>2026-04-04T14:40:13.502Z</time></trkpt><trkpt lat="43.147905" lon="13.6233"><ele>102.0</ele><time>2026-04-04T14:40:14.501Z</time></trkpt><trkpt lat="43.14801" lon="13.6235333"><ele>102.0</ele><time>2026-04-04T14:40:15.501Z</time></trkpt><trkpt lat="43.1481333" lon="13.623735"><ele>102.0</ele><time>2026-04-04T14:40:16.501Z</time></trkpt><trkpt lat="43.14828" lon="13.62391"><ele>102.0</ele><time>2026-04-04T14:40:17.502Z</time></trkpt><trkpt lat="43.1484417" lon="13.624075"><ele>102.0</ele><time>2026-04-04T14:40:18.501Z</time></trkpt><trkpt lat="43.1486117" lon="13.62422"><ele>102.0</ele><time>2026-04-04T14:40:19.501Z</time></trkpt><trkpt lat="43.14878" lon="13.6243483"><ele>102.0</ele><time>2026-04-04T14:40:20.501Z</time></trkpt><trkpt lat="43.14895" lon="13.6244617"><ele>101.0</ele><time>2026-04-04T14:40:21.502Z</time></trkpt><trkpt lat="43.1491217" lon="13.6245767"><ele>100.0</ele><time>2026-04-04T14:40:22.502Z</time></trkpt><trkpt lat="43.1492917" lon="13.6246933"><ele>99.0</ele><time>2026-04-04T14:40:23.501Z</time></trkpt><trkpt lat="43.1494533" lon="13.6248083"><ele>99.0</ele><time>2026-04-04T14:40:24.502Z</time></trkpt><trkpt lat="43.14961" lon="13.6249533"><ele>99.0</ele><time>2026-04-04T14:40:25.502Z</time></trkpt><trkpt lat="43.1497683" lon="13.62511"><ele>99.0</ele><time>2026-04-04T14:40:26.502Z</time></trkpt><trkpt lat="43.1499033" lon="13.6252833"><ele>99.33333333333334</ele><time>2026-04-04T14:40:27.501Z</time></trkpt><trkpt lat="43.15004" lon="13.6254667"><ele>99.66666666666667</ele><time>2026-04-04T14:40:28.502Z</time></trkpt><trkpt lat="43.1501883" lon="13.6256383"><ele>100.0</ele><time>2026-04-04T14:40:29.502Z</time></trkpt><trkpt lat="43.15033" lon="13.6258083"><ele>100.0</ele><time>2026-04-04T14:40:30.501Z</time></trkpt><trkpt lat="43.15048" lon="13.6259867"><ele>100.0</ele><time>2026-04-04T14:40:31.501Z</time></trkpt><trkpt lat="43.1506467" lon="13.6261567"><ele>100.0</ele><time>2026-04-04T14:40:32.501Z</time></trkpt><trkpt lat="43.1508283" lon="13.6263483"><ele>99.66666666666667</ele><time>2026-04-04T14:40:33.502Z</time></trkpt><trkpt lat="43.1510067" lon="13.6265217"><ele>99.33333333333334</ele><time>2026-04-04T14:40:34.502Z</time></trkpt><trkpt lat="43.1511783" lon="13.6266933"><ele>99.0</ele><time>2026-04-04T14:40:35.501Z</time></trkpt><trkpt lat="43.1513533" lon="13.6268517"><ele>98.66666666666666</ele><time>2026-04-04T14:40:36.502Z</time></trkpt><trkpt lat="43.1515317" lon="13.627015"><ele>98.33333333333333</ele><time>2026-04-04T14:40:37.502Z</time></trkpt><trkpt lat="43.1516983" lon="13.6271767"><ele>98.0</ele><time>2026-04-04T14:40:38.501Z</time></trkpt><trkpt lat="43.1518733" lon="13.6273267"><ele>98.0</ele><time>2026-04-04T14:40:39.501Z</time></trkpt><trkpt lat="43.1520417" lon="13.62748"><ele>98.0</ele><time>2026-04-04T14:40:40.501Z</time></trkpt><trkpt lat="43.15222" lon="13.6276"><ele>98.0</ele><time>2026-04-04T14:40:41.501Z</time></trkpt><trkpt lat="43.1524133" lon="13.627705"><ele>97.66666666666666</ele><time>2026-04-04T14:40:42.502Z</time></trkpt><trkpt lat="43.1526017" lon="13.627815"><ele>97.33333333333334</ele><time>2026-04-04T14:40:43.501Z</time></trkpt><trkpt lat="43.1527883" lon="13.6279283"><ele>97.0</ele><time>2026-04-04T14:40:44.501Z</time></trkpt><trkpt lat="43.1529783" lon="13.628045"><ele>97.0</ele><time>2026-04-04T14:40:45.501Z</time></trkpt><trkpt lat="43.153165" lon="13.6281567"><ele>97.0</ele><time>2026-04-04T14:40:46.502Z</time></trkpt><trkpt lat="43.1533533" lon="13.6282633"><ele>97.0</ele><time>2026-04-04T14:40:47.501Z</time></trkpt><trkpt lat="43.1535433" lon="13.6283767"><ele>96.66666666666667</ele><time>2026-04-04T14:40:48.502Z</time></trkpt><trkpt lat="43.15372" lon="13.6284883"><ele>96.33333333333334</ele><time>2026-04-04T14:40:49.501Z</time></trkpt><trkpt lat="43.1539033" lon="13.6286"><ele>96.0</ele><time>2026-04-04T14:40:50.502Z</time></trkpt><trkpt lat="43.1540817" lon="13.628715"><ele>96.0</ele><time>2026-04-04T14:40:51.502Z</time></trkpt><trkpt lat="43.15425" lon="13.6288317"><ele>96.0</ele><time>2026-04-04T14:40:52.501Z</time></trkpt><trkpt lat="43.1544267" lon="13.6289717"><ele>96.0</ele><time>2026-04-04T14:40:53.501Z</time></trkpt><trkpt lat="43.154595" lon="13.6291067"><ele>96.0</ele><time>2026-04-04T14:40:54.501Z</time></trkpt><trkpt lat="43.1547633" lon="13.6292517"><ele>96.0</ele><time>2026-04-04T14:40:55.502Z</time></trkpt><trkpt lat="43.1549383" lon="13.6294083"><ele>96.0</ele><time>2026-04-04T14:40:56.502Z</time></trkpt><trkpt lat="43.1551033" lon="13.629565"><ele>96.0</ele><time>2026-04-04T14:40:57.501Z</time></trkpt><trkpt lat="43.1552717" lon="13.629705"><ele>96.0</ele><time>2026-04-04T14:40:58.501Z</time></trkpt><trkpt lat="43.1554333" lon="13.6298467"><ele>96.0</ele><time>2026-04-04T14:40:59.502Z</time></trkpt><trkpt lat="43.1556183" lon="13.63001"><ele>96.0</ele><time>2026-04-04T14:41:00.502Z</time></trkpt><trkpt lat="43.1558083" lon="13.6301817"><ele>96.0</ele><time>2026-04-04T14:41:01.502Z</time></trkpt><trkpt lat="43.1560167" lon="13.6303717"><ele>96.0</ele><time>2026-04-04T14:41:02.501Z</time></trkpt><trkpt lat="43.1562217" lon="13.6305667"><ele>96.0</ele><time>2026-04-04T14:41:03.501Z</time></trkpt><trkpt lat="43.1564233" lon="13.6307483"><ele>96.33333333333334</ele><time>2026-04-04T14:41:04.502Z</time></trkpt><trkpt lat="43.1566033" lon="13.630925"><ele>96.66666666666667</ele><time>2026-04-04T14:41:05.502Z</time></trkpt><trkpt lat="43.156775" lon="13.631115"><ele>97.0</ele><time>2026-04-04T14:41:06.502Z</time></trkpt><trkpt lat="43.15693" lon="13.6312833"><ele>96.0</ele><time>2026-04-04T14:41:07.501Z</time></trkpt><trkpt lat="43.1570767" lon="13.631465"><ele>95.0</ele><time>2026-04-04T14:41:08.501Z</time></trkpt><trkpt lat="43.1572083" lon="13.6316467"><ele>94.0</ele><time>2026-04-04T14:41:09.501Z</time></trkpt><trkpt lat="43.157335" lon="13.6318283"><ele>94.66666666666666</ele><time>2026-04-04T14:41:10.502Z</time></trkpt><trkpt lat="43.157455" lon="13.6320033"><ele>95.33333333333333</ele><time>2026-04-04T14:41:11.501Z</time></trkpt><trkpt lat="43.15757" lon="13.6321733"><ele>96.0</ele><time>2026-04-04T14:41:12.502Z</time></trkpt><trkpt lat="43.15767" lon="13.6323517"><ele>96.0</ele><time>2026-04-04T14:41:13.501Z</time></trkpt><trkpt lat="43.157765" lon="13.63253"><ele>96.0</ele><time>2026-04-04T14:41:14.501Z</time></trkpt><trkpt lat="43.1578483" lon="13.6327117"><ele>96.0</ele><time>2026-04-04T14:41:15.502Z</time></trkpt><trkpt lat="43.1579233" lon="13.6328933"><ele>96.0</ele><time>2026-04-04T14:41:16.502Z</time></trkpt><trkpt lat="43.1579983" lon="13.6330683"><ele>96.0</ele><time>2026-04-04T14:41:17.501Z</time></trkpt><trkpt lat="43.1580667" lon="13.6332333"><ele>96.0</ele><time>2026-04-04T14:41:18.501Z</time></trkpt><trkpt lat="43.1581317" lon="13.6334017"><ele>96.0</ele><time>2026-04-04T14:41:19.501Z</time></trkpt><trkpt lat="43.158205" lon="13.63355"><ele>95.25</ele><time>2026-04-04T14:41:20.501Z</time></trkpt><trkpt lat="43.1582717" lon="13.63371"><ele>94.5</ele><time>2026-04-04T14:41:21.502Z</time></trkpt><trkpt lat="43.1583333" lon="13.6338733"><ele>93.75</ele><time>2026-04-04T14:41:22.502Z</time></trkpt><trkpt lat="43.1584017" lon="13.634035"><ele>93.0</ele><time>2026-04-04T14:41:23.502Z</time></trkpt><trkpt lat="43.1584683" lon="13.6342217"><ele>93.0</ele><time>2026-04-04T14:41:24.501Z</time></trkpt><trkpt lat="43.1585383" lon="13.6344"><ele>93.0</ele><time>2026-04-04T14:41:25.501Z</time></trkpt><trkpt lat="43.158625" lon="13.6345633"><ele>93.0</ele><time>2026-04-04T14:41:26.501Z</time></trkpt><trkpt lat="43.158705" lon="13.6347417"><ele>93.0</ele><time>2026-04-04T14:41:27.502Z</time></trkpt><trkpt lat="43.1587817" lon="13.6349167"><ele>92.33333333333333</ele><time>2026-04-04T14:41:28.502Z</time></trkpt><trkpt lat="43.1588733" lon="13.6351083"><ele>91.66666666666666</ele><time>2026-04-04T14:41:29.501Z</time></trkpt><trkpt lat="43.15898" lon="13.6353033"><ele>91.0</ele><time>2026-04-04T14:41:30.502Z</time></trkpt><trkpt lat="43.1590983" lon="13.6355067"><ele>91.0</ele><time>2026-04-04T14:41:31.502Z</time></trkpt><trkpt lat="43.159215" lon="13.6357217"><ele>91.0</ele><time>2026-04-04T14:41:32.502Z</time></trkpt><trkpt lat="43.1593433" lon="13.635955"><ele>91.0</ele><time>2026-04-04T14:41:33.502Z</time></trkpt><trkpt lat="43.1594783" lon="13.6362017"><ele>90.0</ele><time>2026-04-04T14:41:34.501Z</time></trkpt><trkpt lat="43.1596117" lon="13.6364533"><ele>89.0</ele><time>2026-04-04T14:41:35.501Z</time></trkpt><trkpt lat="43.1597583" lon="13.6367133"><ele>89.5</ele><time>2026-04-04T14:41:36.501Z</time></trkpt><trkpt lat="43.1599" lon="13.636975"><ele>90.0</ele><time>2026-04-04T14:41:37.501Z</time></trkpt><trkpt lat="43.1600317" lon="13.6372383"><ele>90.0</ele><time>2026-04-04T14:41:38.501Z</time></trkpt><trkpt lat="43.1601733" lon="13.637505"><ele>90.0</ele><time>2026-04-04T14:41:39.501Z</time></trkpt><trkpt lat="43.1603133" lon="13.637765"><ele>89.0</ele><time>2026-04-04T14:41:40.502Z</time></trkpt><trkpt lat="43.1604517" lon="13.6380367"><ele>88.0</ele><time>2026-04-04T14:41:41.502Z</time></trkpt><trkpt lat="43.160605" lon="13.6383083"><ele>89.0</ele><time>2026-04-04T14:41:42.501Z</time></trkpt><trkpt lat="43.1607533" lon="13.6385767"><ele>90.0</ele><time>2026-04-04T14:41:43.502Z</time></trkpt><trkpt lat="43.1608967" lon="13.6388467"><ele>90.0</ele><time>2026-04-04T14:41:44.502Z</time></trkpt><trkpt lat="43.1610467" lon="13.6391133"><ele>90.0</ele><time>2026-04-04T14:41:45.501Z</time></trkpt><trkpt lat="43.1611967" lon="13.639385"><ele>89.5</ele><time>2026-04-04T14:41:46.501Z</time></trkpt><trkpt lat="43.1613317" lon="13.639675"><ele>89.0</ele><time>2026-04-04T14:41:47.502Z</time></trkpt><trkpt lat="43.161475" lon="13.6399633"><ele>89.0</ele><time>2026-04-04T14:41:48.501Z</time></trkpt><trkpt lat="43.161615" lon="13.6402483"><ele>89.0</ele><time>2026-04-04T14:41:49.501Z</time></trkpt><trkpt lat="43.161745" lon="13.64053"><ele>89.0</ele><time>2026-04-04T14:41:50.501Z</time></trkpt><trkpt lat="43.1618833" lon="13.6408183"><ele>89.0</ele><time>2026-04-04T14:41:51.501Z</time></trkpt><trkpt lat="43.1620167" lon="13.6411083"><ele>87.5</ele><time>2026-04-04T14:41:52.501Z</time></trkpt><trkpt lat="43.1621483" lon="13.6414017"><ele>86.0</ele><time>2026-04-04T14:41:53.501Z</time></trkpt><trkpt lat="43.1622783" lon="13.6416917"><ele>86.5</ele><time>2026-04-04T14:41:54.502Z</time></trkpt><trkpt lat="43.1624017" lon="13.6419833"><ele>87.0</ele><time>2026-04-04T14:41:55.502Z</time></trkpt><trkpt lat="43.162515" lon="13.6422817"><ele>87.0</ele><time>2026-04-04T14:41:56.502Z</time></trkpt><trkpt lat="43.1626283" lon="13.6425733"><ele>87.0</ele><time>2026-04-04T14:41:57.501Z</time></trkpt><trkpt lat="43.1627367" lon="13.6428733"><ele>86.0</ele><time>2026-04-04T14:41:58.501Z</time></trkpt><trkpt lat="43.1628517" lon="13.6431867"><ele>85.0</ele><time>2026-04-04T14:41:59.501Z</time></trkpt><trkpt lat="43.16296" lon="13.6434917"><ele>84.5</ele><time>2026-04-04T14:42:00.501Z</time></trkpt><trkpt lat="43.16307" lon="13.6437833"><ele>84.0</ele><time>2026-04-04T14:42:01.501Z</time></trkpt><trkpt lat="43.1631783" lon="13.6440783"><ele>85.0</ele><time>2026-04-04T14:42:02.501Z</time></trkpt><trkpt lat="43.163285" lon="13.64437"><ele>86.0</ele><time>2026-04-04T14:42:03.501Z</time></trkpt><trkpt lat="43.1633867" lon="13.64467"><ele>86.0</ele><time>2026-04-04T14:42:04.501Z</time></trkpt><trkpt lat="43.1634833" lon="13.6449667"><ele>86.0</ele><time>2026-04-04T14:42:05.502Z</time></trkpt><trkpt lat="43.1635883" lon="13.6452567"><ele>85.5</ele><time>2026-04-04T14:42:06.501Z</time></trkpt><trkpt lat="43.1636967" lon="13.645545"><ele>85.0</ele><time>2026-04-04T14:42:07.502Z</time></trkpt><trkpt lat="43.1638033" lon="13.6458367"><ele>84.0</ele><time>2026-04-04T14:42:08.502Z</time></trkpt><trkpt lat="43.1639067" lon="13.64613"><ele>83.0</ele><time>2026-04-04T14:42:09.502Z</time></trkpt><trkpt lat="43.1640117" lon="13.6464183"><ele>83.5</ele><time>2026-04-04T14:42:10.502Z</time></trkpt><trkpt lat="43.1641167" lon="13.646715"><ele>84.0</ele><time>2026-04-04T14:42:11.502Z</time></trkpt><trkpt lat="43.164225" lon="13.647005"><ele>84.0</ele><time>2026-04-04T14:42:12.502Z</time></trkpt><trkpt lat="43.164335" lon="13.6473017"><ele>84.0</ele><time>2026-04-04T14:42:13.502Z</time></trkpt><trkpt lat="43.164445" lon="13.6476067"><ele>83.5</ele><time>2026-04-04T14:42:14.502Z</time></trkpt><trkpt lat="43.1645567" lon="13.647905"><ele>83.0</ele><time>2026-04-04T14:42:15.501Z</time></trkpt><trkpt lat="43.1646817" lon="13.6482017"><ele>83.0</ele><time>2026-04-04T14:42:16.502Z</time></trkpt><trkpt lat="43.16481" lon="13.6484817"><ele>83.0</ele><time>2026-04-04T14:42:17.502Z</time></trkpt><trkpt lat="43.16496" lon="13.6487433"><ele>84.5</ele><time>2026-04-04T14:42:18.501Z</time></trkpt><trkpt lat="43.1651133" lon="13.649"><ele>86.0</ele><time>2026-04-04T14:42:19.502Z</time></trkpt><trkpt lat="43.1652717" lon="13.6492467"><ele>83.5</ele><time>2026-04-04T14:42:20.501Z</time></trkpt><trkpt lat="43.16543" lon="13.6494767"><ele>81.0</ele><time>2026-04-04T14:42:21.502Z</time></trkpt><trkpt lat="43.165595" lon="13.649705"><ele>84.5</ele><time>2026-04-04T14:42:22.501Z</time></trkpt><trkpt lat="43.1657567" lon="13.6499183"><ele>88.0</ele><time>2026-04-04T14:42:23.502Z</time></trkpt><trkpt lat="43.1659183" lon="13.6501433"><ele>85.5</ele><time>2026-04-04T14:42:24.501Z</time></trkpt><trkpt lat="43.1660817" lon="13.650365"><ele>83.0</ele><time>2026-04-04T14:42:25.501Z</time></trkpt><trkpt lat="43.1662467" lon="13.65059"><ele>83.0</ele><time>2026-04-04T14:42:26.502Z</time></trkpt><trkpt lat="43.1664167" lon="13.6507967"><ele>83.0</ele><time>2026-04-04T14:42:27.502Z</time></trkpt><trkpt lat="43.1665883" lon="13.6510083"><ele>82.0</ele><time>2026-04-04T14:42:28.502Z</time></trkpt><trkpt lat="43.1667683" lon="13.6511933"><ele>81.0</ele><time>2026-04-04T14:42:29.502Z</time></trkpt><trkpt lat="43.1669617" lon="13.6513683"><ele>81.0</ele><time>2026-04-04T14:42:30.502Z</time></trkpt><trkpt lat="43.1671533" lon="13.6515383"><ele>81.0</ele><time>2026-04-04T14:42:31.501Z</time></trkpt><trkpt lat="43.167345" lon="13.6517117"><ele>82.0</ele><time>2026-04-04T14:42:32.502Z</time></trkpt><trkpt lat="43.167535" lon="13.6518833"><ele>83.0</ele><time>2026-04-04T14:42:33.502Z</time></trkpt><trkpt lat="43.167725" lon="13.6520667"><ele>83.0</ele><time>2026-04-04T14:42:34.502Z</time></trkpt><trkpt lat="43.167905" lon="13.652255"><ele>83.0</ele><time>2026-04-04T14:42:35.501Z</time></trkpt><trkpt lat="43.1680933" lon="13.6524167"><ele>83.0</ele><time>2026-04-04T14:42:36.502Z</time></trkpt><trkpt lat="43.16828" lon="13.65257"><ele>82.5</ele><time>2026-04-04T14:42:37.502Z</time></trkpt><trkpt lat="43.168465" lon="13.652735"><ele>82.0</ele><time>2026-04-04T14:42:38.502Z</time></trkpt><trkpt lat="43.1686517" lon="13.6529167"><ele>82.0</ele><time>2026-04-04T14:42:39.501Z</time></trkpt><trkpt lat="43.168845" lon="13.6531033"><ele>82.0</ele><time>2026-04-04T14:42:40.501Z</time></trkpt><trkpt lat="43.1690117" lon="13.653305"><ele>82.5</ele><time>2026-04-04T14:42:41.501Z</time></trkpt><trkpt lat="43.1691933" lon="13.6535067"><ele>83.0</ele><time>2026-04-04T14:42:42.501Z</time></trkpt><trkpt lat="43.1693783" lon="13.65372"><ele>83.0</ele><time>2026-04-04T14:42:43.501Z</time></trkpt><trkpt lat="43.16956" lon="13.6539283"><ele>83.0</ele><time>2026-04-04T14:42:44.501Z</time></trkpt><trkpt lat="43.1697467" lon="13.65415"><ele>82.5</ele><time>2026-04-04T14:42:45.502Z</time></trkpt><trkpt lat="43.1699317" lon="13.6543767"><ele>82.0</ele><time>2026-04-04T14:42:46.502Z</time></trkpt><trkpt lat="43.1701183" lon="13.6546083"><ele>82.0</ele><time>2026-04-04T14:42:47.501Z</time></trkpt><trkpt lat="43.1703017" lon="13.654835"><ele>82.0</ele><time>2026-04-04T14:42:48.501Z</time></trkpt><trkpt lat="43.17049" lon="13.6550533"><ele>82.0</ele><time>2026-04-04T14:42:49.501Z</time></trkpt><trkpt lat="43.1706667" lon="13.655275"><ele>82.0</ele><time>2026-04-04T14:42:50.501Z</time></trkpt><trkpt lat="43.170845" lon="13.6555067"><ele>81.0</ele><time>2026-04-04T14:42:51.501Z</time></trkpt><trkpt lat="43.1710117" lon="13.6557383"><ele>80.0</ele><time>2026-04-04T14:42:52.502Z</time></trkpt><trkpt lat="43.1711717" lon="13.6559633"><ele>79.5</ele><time>2026-04-04T14:42:53.501Z</time></trkpt><trkpt lat="43.1713217" lon="13.656195"><ele>79.0</ele><time>2026-04-04T14:42:54.501Z</time></trkpt><trkpt lat="43.1714617" lon="13.656435"><ele>79.66666666666666</ele><time>2026-04-04T14:42:55.501Z</time></trkpt><trkpt lat="43.1715833" lon="13.6566633"><ele>80.33333333333333</ele><time>2026-04-04T14:42:56.501Z</time></trkpt><trkpt lat="43.1716917" lon="13.6568967"><ele>81.0</ele><time>2026-04-04T14:42:57.502Z</time></trkpt><trkpt lat="43.1717867" lon="13.65714"><ele>81.0</ele><time>2026-04-04T14:42:58.502Z</time></trkpt><trkpt lat="43.17187" lon="13.657375"><ele>81.0</ele><time>2026-04-04T14:42:59.501Z</time></trkpt><trkpt lat="43.1719383" lon="13.6576167"><ele>81.0</ele><time>2026-04-04T14:43:00.501Z</time></trkpt><trkpt lat="43.1719917" lon="13.65787"><ele>80.66666666666667</ele><time>2026-04-04T14:43:01.502Z</time></trkpt><trkpt lat="43.1720283" lon="13.6581417"><ele>80.33333333333334</ele><time>2026-04-04T14:43:02.501Z</time></trkpt><trkpt lat="43.17206" lon="13.6584283"><ele>80.0</ele><time>2026-04-04T14:43:03.502Z</time></trkpt><trkpt lat="43.17209" lon="13.658725"><ele>79.0</ele><time>2026-04-04T14:43:04.502Z</time></trkpt><trkpt lat="43.1721167" lon="13.6590367"><ele>78.0</ele><time>2026-04-04T14:43:05.502Z</time></trkpt><trkpt lat="43.17213" lon="13.65936"><ele>77.5</ele><time>2026-04-04T14:43:06.501Z</time></trkpt><trkpt lat="43.1721683" lon="13.65969"><ele>77.0</ele><time>2026-04-04T14:43:07.501Z</time></trkpt><trkpt lat="43.1722083" lon="13.6600033"><ele>76.0</ele><time>2026-04-04T14:43:08.501Z</time></trkpt><trkpt lat="43.1722417" lon="13.660335"><ele>75.0</ele><time>2026-04-04T14:43:09.501Z</time></trkpt><trkpt lat="43.172285" lon="13.6606533"><ele>75.0</ele><time>2026-04-04T14:43:10.501Z</time></trkpt><trkpt lat="43.1723233" lon="13.66097"><ele>75.0</ele><time>2026-04-04T14:43:11.501Z</time></trkpt><trkpt lat="43.1723733" lon="13.6612833"><ele>75.5</ele><time>2026-04-04T14:43:12.501Z</time></trkpt><trkpt lat="43.172435" lon="13.66159"><ele>76.0</ele><time>2026-04-04T14:43:13.501Z</time></trkpt><trkpt lat="43.172495" lon="13.6618967"><ele>75.5</ele><time>2026-04-04T14:43:14.501Z</time></trkpt><trkpt lat="43.1725567" lon="13.6622067"><ele>75.0</ele><time>2026-04-04T14:43:15.501Z</time></trkpt><trkpt lat="43.172625" lon="13.6625233"><ele>75.0</ele><time>2026-04-04T14:43:16.502Z</time></trkpt><trkpt lat="43.1726883" lon="13.662845"><ele>75.0</ele><time>2026-04-04T14:43:17.501Z</time></trkpt><trkpt lat="43.1727567" lon="13.6631583"><ele>75.0</ele><time>2026-04-04T14:43:18.501Z</time></trkpt><trkpt lat="43.172825" lon="13.6634767"><ele>75.0</ele><time>2026-04-04T14:43:19.501Z</time></trkpt><trkpt lat="43.1728967" lon="13.6637883"><ele>75.0</ele><time>2026-04-04T14:43:20.502Z</time></trkpt><trkpt lat="43.17298" lon="13.6640867"><ele>75.0</ele><time>2026-04-04T14:43:21.501Z</time></trkpt><trkpt lat="43.1730517" lon="13.6644"><ele>74.5</ele><time>2026-04-04T14:43:22.501Z</time></trkpt><trkpt lat="43.17313" lon="13.66471"><ele>74.0</ele><time>2026-04-04T14:43:23.501Z</time></trkpt><trkpt lat="43.1732067" lon="13.665025"><ele>74.5</ele><time>2026-04-04T14:43:24.501Z</time></trkpt><trkpt lat="43.17327" lon="13.6653467"><ele>75.0</ele><time>2026-04-04T14:43:25.501Z</time></trkpt><trkpt lat="43.173335" lon="13.6656667"><ele>75.0</ele><time>2026-04-04T14:43:26.502Z</time></trkpt><trkpt lat="43.1734017" lon="13.6659783"><ele>75.0</ele><time>2026-04-04T14:43:27.502Z</time></trkpt><trkpt lat="43.1734717" lon="13.6662767"><ele>73.0</ele><time>2026-04-04T14:43:28.502Z</time></trkpt><trkpt lat="43.1735317" lon="13.6665767"><ele>71.0</ele><time>2026-04-04T14:43:29.501Z</time></trkpt><trkpt lat="43.1735917" lon="13.66688"><ele>70.66666666666667</ele><time>2026-04-04T14:43:30.502Z</time></trkpt><trkpt lat="43.1736533" lon="13.667175"><ele>70.33333333333333</ele><time>2026-04-04T14:43:31.501Z</time></trkpt><trkpt lat="43.173715" lon="13.66746"><ele>70.0</ele><time>2026-04-04T14:43:32.501Z</time></trkpt><trkpt lat="43.1737717" lon="13.6677367"><ele>70.0</ele><time>2026-04-04T14:43:33.502Z</time></trkpt><trkpt lat="43.17383" lon="13.66801"><ele>70.0</ele><time>2026-04-04T14:43:34.502Z</time></trkpt><trkpt lat="43.173885" lon="13.668265"><ele>70.0</ele><time>2026-04-04T14:43:35.502Z</time></trkpt><trkpt lat="43.1739367" lon="13.6685117"><ele>70.0</ele><time>2026-04-04T14:43:36.502Z</time></trkpt><trkpt lat="43.1739833" lon="13.6687483"><ele>70.0</ele><time>2026-04-04T14:43:37.501Z</time></trkpt><trkpt lat="43.1740283" lon="13.66897"><ele>70.0</ele><time>2026-04-04T14:43:38.502Z</time></trkpt><trkpt lat="43.1740783" lon="13.6691667"><ele>70.25</ele><time>2026-04-04T14:43:39.502Z</time></trkpt><trkpt lat="43.17413" lon="13.66935"><ele>70.5</ele><time>2026-04-04T14:43:40.501Z</time></trkpt><trkpt lat="43.174165" lon="13.6695183"><ele>70.75</ele><time>2026-04-04T14:43:41.502Z</time></trkpt><trkpt lat="43.1741967" lon="13.6696683"><ele>71.0</ele><time>2026-04-04T14:43:42.501Z</time></trkpt><trkpt lat="43.174225" lon="13.66979"><ele>71.0</ele><time>2026-04-04T14:43:43.502Z</time></trkpt><trkpt lat="43.1742433" lon="13.6698783"><ele>71.0</ele><time>2026-04-04T14:43:44.501Z</time></trkpt><trkpt lat="43.1742717" lon="13.6699883"><ele>71.0</ele><time>2026-04-04T14:43:46.502Z</time></trkpt><trkpt lat="43.1742983" lon="13.6700917"><ele>71.0</ele><time>2026-04-04T14:43:48.501Z</time></trkpt><trkpt lat="43.1743183" lon="13.6701917"><ele>71.0</ele><time>2026-04-04T14:43:50.501Z</time></trkpt><trkpt lat="43.174335" lon="13.6702867"><ele>71.0</ele><time>2026-04-04T14:43:52.501Z</time></trkpt><trkpt lat="43.1743517" lon="13.6703717"><ele>71.0</ele><time>2026-04-04T14:43:54.502Z</time></trkpt><trkpt lat="43.1743717" lon="13.6704717"><ele>70.83333333333334</ele><time>2026-04-04T14:43:57.501Z</time></trkpt><trkpt lat="43.174405" lon="13.67056"><ele>70.66666666666667</ele><time>2026-04-04T14:43:59.501Z</time></trkpt><trkpt lat="43.174435" lon="13.67065"><ele>70.5</ele><time>2026-04-04T14:44:01.501Z</time></trkpt><trkpt lat="43.1744517" lon="13.6707383"><ele>70.33333333333333</ele><time>2026-04-04T14:44:03.502Z</time></trkpt><trkpt lat="43.174475" lon="13.6708333"><ele>70.16666666666666</ele><time>2026-04-04T14:44:05.501Z</time></trkpt><trkpt lat="43.1745133" lon="13.6709483"><ele>70.0</ele><time>2026-04-04T14:44:08.502Z</time></trkpt><trkpt lat="43.17456" lon="13.6710533"><ele>70.0</ele><time>2026-04-04T14:44:11.501Z</time></trkpt><trkpt lat="43.17462" lon="13.6711267"><ele>70.0</ele><time>2026-04-04T14:44:13.501Z</time></trkpt><trkpt lat="43.17469" lon="13.6712183"><ele>70.0</ele><time>2026-04-04T14:44:15.502Z</time></trkpt><trkpt lat="43.1747467" lon="13.6713233"><ele>70.0</ele><time>2026-04-04T14:44:17.502Z</time></trkpt><trkpt lat="43.1748017" lon="13.6714683"><ele>70.0</ele><time>2026-04-04T14:44:19.502Z</time></trkpt><trkpt lat="43.1748417" lon="13.67155"><ele>70.0</ele><time>2026-04-04T14:44:20.501Z</time></trkpt><trkpt lat="43.1749033" lon="13.67163"><ele>70.0</ele><time>2026-04-04T14:44:21.501Z</time></trkpt><trkpt lat="43.17498" lon="13.6717367"><ele>70.0</ele><time>2026-04-04T14:44:22.502Z</time></trkpt><trkpt lat="43.17506" lon="13.6718533"><ele>70.0</ele><time>2026-04-04T14:44:23.5Z</time></trkpt><trkpt lat="43.1751467" lon="13.671975"><ele>70.0</ele><time>2026-04-04T14:44:24.5Z</time></trkpt><trkpt lat="43.17524" lon="13.6720933"><ele>69.66666666666666</ele><time>2026-04-04T14:44:25.5Z</time></trkpt><trkpt lat="43.17534" lon="13.6722333"><ele>69.33333333333333</ele><time>2026-04-04T14:44:26.5Z</time></trkpt><trkpt lat="43.175455" lon="13.672385"><ele>69.0</ele><time>2026-04-04T14:44:27.5Z</time></trkpt><trkpt lat="43.17557" lon="13.672525"><ele>69.0</ele><time>2026-04-04T14:44:28.5Z</time></trkpt><trkpt lat="43.1756783" lon="13.6726633"><ele>69.0</ele><time>2026-04-04T14:44:29.501Z</time></trkpt><trkpt lat="43.1757867" lon="13.672805"><ele>69.0</ele><time>2026-04-04T14:44:30.5Z</time></trkpt><trkpt lat="43.1758867" lon="13.6729467"><ele>69.0</ele><time>2026-04-04T14:44:31.5Z</time></trkpt><trkpt lat="43.1759833" lon="13.6730717"><ele>69.0</ele><time>2026-04-04T14:44:32.5Z</time></trkpt><trkpt lat="43.1760817" lon="13.6732033"><ele>69.0</ele><time>2026-04-04T14:44:33.5Z</time></trkpt><trkpt lat="43.1761817" lon="13.6733283"><ele>69.0</ele><time>2026-04-04T14:44:34.501Z</time></trkpt><trkpt lat="43.17626" lon="13.6734233"><ele>69.0</ele><time>2026-04-04T14:44:35.501Z</time></trkpt><trkpt lat="43.1763283" lon="13.6734983"><ele>69.0</ele><time>2026-04-04T14:44:36.5Z</time></trkpt><trkpt lat="43.176395" lon="13.6735683"><ele>69.0</ele><time>2026-04-04T14:44:37.501Z</time></trkpt><trkpt lat="43.1764617" lon="13.6736433"><ele>69.0</ele><time>2026-04-04T14:44:38.5Z</time></trkpt><trkpt lat="43.17654" lon="13.6737383"><ele>69.0</ele><time>2026-04-04T14:44:39.5Z</time></trkpt><trkpt lat="43.17663" lon="13.6738583"><ele>69.0</ele><time>2026-04-04T14:44:40.501Z</time></trkpt><trkpt lat="43.1767133" lon="13.673955"><ele>69.0</ele><time>2026-04-04T14:44:41.5Z</time></trkpt><trkpt lat="43.1767867" lon="13.674045"><ele>69.0</ele><time>2026-04-04T14:44:42.501Z</time></trkpt><trkpt lat="43.1768517" lon="13.67412"><ele>69.0</ele><time>2026-04-04T14:44:43.5Z</time></trkpt><trkpt lat="43.1769083" lon="13.6742017"><ele>69.0</ele><time>2026-04-04T14:44:44.5Z</time></trkpt><trkpt lat="43.1769517" lon="13.674305"><ele>69.0</ele><time>2026-04-04T14:44:45.501Z</time></trkpt><trkpt lat="43.1769767" lon="13.67443"><ele>69.0</ele><time>2026-04-04T14:44:46.5Z</time></trkpt><trkpt lat="43.1769933" lon="13.6745767"><ele>68.25</ele><time>2026-04-04T14:44:47.501Z</time></trkpt><trkpt lat="43.1770133" lon="13.67475"><ele>67.5</ele><time>2026-04-04T14:44:48.501Z</time></trkpt><trkpt lat="43.17705" lon="13.6749017"><ele>66.75</ele><time>2026-04-04T14:44:49.501Z</time></trkpt><trkpt lat="43.1771267" lon="13.6750017"><ele>66.0</ele><time>2026-04-04T14:44:50.5Z</time></trkpt><trkpt lat="43.1772367" lon="13.6750433"><ele>66.0</ele><time>2026-04-04T14:44:51.5Z</time></trkpt><trkpt lat="43.1773433" lon="13.6750583"><ele>66.0</ele><time>2026-04-04T14:44:52.501Z</time></trkpt><trkpt lat="43.1774383" lon="13.6750933"><ele>66.0</ele><time>2026-04-04T14:44:53.501Z</time></trkpt><trkpt lat="43.177545" lon="13.67516"><ele>66.0</ele><time>2026-04-04T14:44:54.5Z</time></trkpt><trkpt lat="43.17763" lon="13.67527"><ele>66.0</ele><time>2026-04-04T14:44:55.501Z</time></trkpt><trkpt lat="43.1776933" lon="13.6754217"><ele>65.66666666666667</ele><time>2026-04-04T14:44:56.5Z</time></trkpt><trkpt lat="43.17775" lon="13.6756183"><ele>65.33333333333334</ele><time>2026-04-04T14:44:57.5Z</time></trkpt><trkpt lat="43.177775" lon="13.6758833"><ele>65.0</ele><time>2026-04-04T14:44:58.5Z</time></trkpt><trkpt lat="43.17779" lon="13.67617"><ele>65.0</ele><time>2026-04-04T14:44:59.5Z</time></trkpt><trkpt lat="43.17778" lon="13.676505"><ele>65.0</ele><time>2026-04-04T14:45:00.5Z</time></trkpt><trkpt lat="43.1777767" lon="13.67683"><ele>66.0</ele><time>2026-04-04T14:45:01.5Z</time></trkpt><trkpt lat="43.1777867" lon="13.67717"><ele>67.0</ele><time>2026-04-04T14:45:02.5Z</time></trkpt><trkpt lat="43.1778033" lon="13.677515"><ele>67.0</ele><time>2026-04-04T14:45:03.501Z</time></trkpt><trkpt lat="43.1778167" lon="13.6778617"><ele>67.0</ele><time>2026-04-04T14:45:04.5Z</time></trkpt><trkpt lat="43.177835" lon="13.6782"><ele>67.0</ele><time>2026-04-04T14:45:05.501Z</time></trkpt><trkpt lat="43.1778367" lon="13.6785017"><ele>67.0</ele><time>2026-04-04T14:45:06.5Z</time></trkpt><trkpt lat="43.177825" lon="13.6787817"><ele>67.0</ele><time>2026-04-04T14:45:07.501Z</time></trkpt><trkpt lat="43.17779" lon="13.6790633"><ele>66.33333333333333</ele><time>2026-04-04T14:45:08.5Z</time></trkpt><trkpt lat="43.1777433" lon="13.679325"><ele>65.66666666666667</ele><time>2026-04-04T14:45:09.5Z</time></trkpt><trkpt lat="43.17769" lon="13.679535"><ele>65.0</ele><time>2026-04-04T14:45:10.5Z</time></trkpt><trkpt lat="43.1776267" lon="13.6797133"><ele>65.0</ele><time>2026-04-04T14:45:11.5Z</time></trkpt><trkpt lat="43.1775333" lon="13.679875"><ele>65.0</ele><time>2026-04-04T14:45:12.501Z</time></trkpt><trkpt lat="43.17742" lon="13.6800367"><ele>65.0</ele><time>2026-04-04T14:45:13.5Z</time></trkpt><trkpt lat="43.1773017" lon="13.6801917"><ele>64.66666666666667</ele><time>2026-04-04T14:45:14.501Z</time></trkpt><trkpt lat="43.1771933" lon="13.6803317"><ele>64.33333333333333</ele><time>2026-04-04T14:45:15.5Z</time></trkpt><trkpt lat="43.1770883" lon="13.6804833"><ele>64.0</ele><time>2026-04-04T14:45:16.5Z</time></trkpt><trkpt lat="43.176975" lon="13.680645"><ele>64.0</ele><time>2026-04-04T14:45:17.5Z</time></trkpt><trkpt lat="43.17685" lon="13.68082"><ele>64.0</ele><time>2026-04-04T14:45:18.5Z</time></trkpt><trkpt lat="43.17674" lon="13.6810067"><ele>64.0</ele><time>2026-04-04T14:45:19.5Z</time></trkpt><trkpt lat="43.17661" lon="13.68119"><ele>64.0</ele><time>2026-04-04T14:45:20.5Z</time></trkpt><trkpt lat="43.176455" lon="13.6813667"><ele>64.0</ele><time>2026-04-04T14:45:21.501Z</time></trkpt><trkpt lat="43.1762633" lon="13.6815217"><ele>64.0</ele><time>2026-04-04T14:45:22.5Z</time></trkpt><trkpt lat="43.1760633" lon="13.6816533"><ele>64.0</ele><time>2026-04-04T14:45:23.501Z</time></trkpt><trkpt lat="43.1758433" lon="13.6817733"><ele>64.0</ele><time>2026-04-04T14:45:24.5Z</time></trkpt><trkpt lat="43.17562" lon="13.681885"><ele>64.5</ele><time>2026-04-04T14:45:25.5Z</time></trkpt><trkpt lat="43.1754017" lon="13.6819917"><ele>65.0</ele><time>2026-04-04T14:45:26.501Z</time></trkpt><trkpt lat="43.1751933" lon="13.6820917"><ele>65.0</ele><time>2026-04-04T14:45:27.5Z</time></trkpt><trkpt lat="43.17499" lon="13.6821917"><ele>65.0</ele><time>2026-04-04T14:45:28.501Z</time></trkpt><trkpt lat="43.1748067" lon="13.68229"><ele>65.0</ele><time>2026-04-04T14:45:29.501Z</time></trkpt><trkpt lat="43.174635" lon="13.6823833"><ele>64.5</ele><time>2026-04-04T14:45:30.501Z</time></trkpt><trkpt lat="43.1744783" lon="13.68246"><ele>64.0</ele><time>2026-04-04T14:45:31.5Z</time></trkpt><trkpt lat="43.1743433" lon="13.6825267"><ele>63.5</ele><time>2026-04-04T14:45:32.501Z</time></trkpt><trkpt lat="43.1742267" lon="13.6825867"><ele>63.0</ele><time>2026-04-04T14:45:33.5Z</time></trkpt><trkpt lat="43.1741083" lon="13.68264"><ele>63.0</ele><time>2026-04-04T14:45:34.5Z</time></trkpt><trkpt lat="43.1739833" lon="13.6827017"><ele>63.0</ele><time>2026-04-04T14:45:35.501Z</time></trkpt><trkpt lat="43.173845" lon="13.6827833"><ele>63.0</ele><time>2026-04-04T14:45:36.5Z</time></trkpt><trkpt lat="43.1737117" lon="13.6828567"><ele>63.0</ele><time>2026-04-04T14:45:37.5Z</time></trkpt><trkpt lat="43.173585" lon="13.6829183"><ele>63.0</ele><time>2026-04-04T14:45:38.501Z</time></trkpt><trkpt lat="43.1734583" lon="13.68298"><ele>63.0</ele><time>2026-04-04T14:45:39.5Z</time></trkpt><trkpt lat="43.1733283" lon="13.68305"><ele>63.0</ele><time>2026-04-04T14:45:40.5Z</time></trkpt><trkpt lat="43.1731767" lon="13.68312"><ele>63.0</ele><time>2026-04-04T14:45:41.501Z</time></trkpt><trkpt lat="43.1730333" lon="13.6831933"><ele>65.33333333333333</ele><time>2026-04-04T14:45:42.501Z</time></trkpt><trkpt lat="43.1728883" lon="13.6832533"><ele>67.66666666666666</ele><time>2026-04-04T14:45:43.5Z</time></trkpt><trkpt lat="43.1727367" lon="13.683305"><ele>70.0</ele><time>2026-04-04T14:45:44.501Z</time></trkpt><trkpt lat="43.1725783" lon="13.683295"><ele>70.0</ele><time>2026-04-04T14:45:45.5Z</time></trkpt><trkpt lat="43.17241" lon="13.6832567"><ele>70.0</ele><time>2026-04-04T14:45:46.501Z</time></trkpt><trkpt lat="43.1722467" lon="13.6831733"><ele>70.0</ele><time>2026-04-04T14:45:47.501Z</time></trkpt><trkpt lat="43.17206" lon="13.6830433"><ele>70.0</ele><time>2026-04-04T14:45:48.501Z</time></trkpt><trkpt lat="43.1718817" lon="13.68289"><ele>70.0</ele><time>2026-04-04T14:45:49.5Z</time></trkpt><trkpt lat="43.1717217" lon="13.6827417"><ele>70.0</ele><time>2026-04-04T14:45:50.501Z</time></trkpt><trkpt lat="43.17157" lon="13.6826167"><ele>72.0</ele><time>2026-04-04T14:45:51.5Z</time></trkpt><trkpt lat="43.1714267" lon="13.6825133"><ele>74.0</ele><time>2026-04-04T14:45:52.501Z</time></trkpt><trkpt lat="43.1712617" lon="13.6824317"><ele>76.0</ele><time>2026-04-04T14:45:53.5Z</time></trkpt><trkpt lat="43.1710817" lon="13.682345"><ele>76.0</ele><time>2026-04-04T14:45:54.5Z</time></trkpt><trkpt lat="43.1708833" lon="13.6822517"><ele>76.0</ele><time>2026-04-04T14:45:55.5Z</time></trkpt><trkpt lat="43.17068" lon="13.682165"><ele>76.0</ele><time>2026-04-04T14:45:56.5Z</time></trkpt><trkpt lat="43.170475" lon="13.6821"><ele>78.0</ele><time>2026-04-04T14:45:57.501Z</time></trkpt><trkpt lat="43.1702883" lon="13.6820567"><ele>80.0</ele><time>2026-04-04T14:45:58.5Z</time></trkpt><trkpt lat="43.1701233" lon="13.6820583"><ele>82.0</ele><time>2026-04-04T14:45:59.5Z</time></trkpt><trkpt lat="43.1699867" lon="13.6820867"><ele>82.0</ele><time>2026-04-04T14:46:00.5Z</time></trkpt><trkpt lat="43.169875" lon="13.682125"><ele>82.0</ele><time>2026-04-04T14:46:01.501Z</time></trkpt><trkpt lat="43.169775" lon="13.6821567"><ele>82.0</ele><time>2026-04-04T14:46:02.5Z</time></trkpt><trkpt lat="43.1696983" lon="13.6822117"><ele>82.0</ele><time>2026-04-04T14:46:03.5Z</time></trkpt><trkpt lat="43.169625" lon="13.6823033"><ele>82.0</ele><time>2026-04-04T14:46:04.501Z</time></trkpt><trkpt lat="43.16956" lon="13.6824217"><ele>80.66666666666666</ele><time>2026-04-04T14:46:05.5Z</time></trkpt><trkpt lat="43.1694833" lon="13.682565"><ele>79.33333333333333</ele><time>2026-04-04T14:46:06.501Z</time></trkpt><trkpt lat="43.1693767" lon="13.6827117"><ele>78.0</ele><time>2026-04-04T14:46:07.5Z</time></trkpt><trkpt lat="43.1692633" lon="13.6828883"><ele>78.0</ele><time>2026-04-04T14:46:08.501Z</time></trkpt><trkpt lat="43.1691417" lon="13.6830783"><ele>78.0</ele><time>2026-04-04T14:46:09.5Z</time></trkpt><trkpt lat="43.16902" lon="13.68326"><ele>78.0</ele><time>2026-04-04T14:46:10.5Z</time></trkpt><trkpt lat="43.1688867" lon="13.6834467"><ele>80.0</ele><time>2026-04-04T14:46:11.5Z</time></trkpt><trkpt lat="43.168795" lon="13.683655"><ele>82.0</ele><time>2026-04-04T14:46:12.5Z</time></trkpt><trkpt lat="43.1687233" lon="13.6838583"><ele>84.0</ele><time>2026-04-04T14:46:13.5Z</time></trkpt><trkpt lat="43.16867" lon="13.684045"><ele>84.0</ele><time>2026-04-04T14:46:14.501Z</time></trkpt><trkpt lat="43.1686083" lon="13.6842333"><ele>84.0</ele><time>2026-04-04T14:46:15.501Z</time></trkpt><trkpt lat="43.16854" lon="13.6844133"><ele>84.0</ele><time>2026-04-04T14:46:16.5Z</time></trkpt><trkpt lat="43.1684667" lon="13.6846017"><ele>85.6</ele><time>2026-04-04T14:46:17.501Z</time></trkpt><trkpt lat="43.1684067" lon="13.6847767"><ele>87.2</ele><time>2026-04-04T14:46:18.501Z</time></trkpt><trkpt lat="43.1683583" lon="13.6849167"><ele>88.8</ele><time>2026-04-04T14:46:19.5Z</time></trkpt><trkpt lat="43.1683183" lon="13.685035"><ele>90.39999999999999</ele><time>2026-04-04T14:46:20.501Z</time></trkpt><trkpt lat="43.1682833" lon="13.6851333"><ele>92.0</ele><time>2026-04-04T14:46:21.5Z</time></trkpt><trkpt lat="43.168255" lon="13.6852233"><ele>91.5</ele><time>2026-04-04T14:46:22.5Z</time></trkpt><trkpt lat="43.1682167" lon="13.6853317"><ele>91.0</ele><time>2026-04-04T14:46:23.5Z</time></trkpt><trkpt lat="43.1681617" lon="13.685465"><ele>90.5</ele><time>2026-04-04T14:46:24.5Z</time></trkpt><trkpt lat="43.1680983" lon="13.68562"><ele>90.0</ele><time>2026-04-04T14:46:25.501Z</time></trkpt><trkpt lat="43.16802" lon="13.6857867"><ele>90.0</ele><time>2026-04-04T14:46:26.5Z</time></trkpt><trkpt lat="43.167915" lon="13.6859683"><ele>90.0</ele><time>2026-04-04T14:46:27.501Z</time></trkpt><trkpt lat="43.1677967" lon="13.68616"><ele>90.0</ele><time>2026-04-04T14:46:28.501Z</time></trkpt><trkpt lat="43.1676617" lon="13.6863633"><ele>91.66666666666667</ele><time>2026-04-04T14:46:29.501Z</time></trkpt><trkpt lat="43.1675317" lon="13.686565"><ele>93.33333333333334</ele><time>2026-04-04T14:46:30.5Z</time></trkpt><trkpt lat="43.1674167" lon="13.686765"><ele>95.0</ele><time>2026-04-04T14:46:31.501Z</time></trkpt><trkpt lat="43.1673167" lon="13.6869517"><ele>95.5</ele><time>2026-04-04T14:46:32.5Z</time></trkpt><trkpt lat="43.167235" lon="13.6871183"><ele>96.0</ele><time>2026-04-04T14:46:33.501Z</time></trkpt><trkpt lat="43.1671583" lon="13.6872733"><ele>96.5</ele><time>2026-04-04T14:46:34.5Z</time></trkpt><trkpt lat="43.16709" lon="13.68743"><ele>97.0</ele><time>2026-04-04T14:46:35.5Z</time></trkpt><trkpt lat="43.167015" lon="13.6876183"><ele>98.66666666666667</ele><time>2026-04-04T14:46:36.501Z</time></trkpt><trkpt lat="43.166915" lon="13.6878117"><ele>100.33333333333334</ele><time>2026-04-04T14:46:37.5Z</time></trkpt><trkpt lat="43.1668217" lon="13.688015"><ele>102.0</ele><time>2026-04-04T14:46:38.501Z</time></trkpt><trkpt lat="43.16672" lon="13.68824"><ele>102.0</ele><time>2026-04-04T14:46:39.5Z</time></trkpt><trkpt lat="43.1666183" lon="13.68849"><ele>102.0</ele><time>2026-04-04T14:46:40.501Z</time></trkpt><trkpt lat="43.1665017" lon="13.6887517"><ele>102.0</ele><time>2026-04-04T14:46:41.501Z</time></trkpt><trkpt lat="43.1663783" lon="13.6890267"><ele>100.5</ele><time>2026-04-04T14:46:42.5Z</time></trkpt><trkpt lat="43.16626" lon="13.6893033"><ele>99.0</ele><time>2026-04-04T14:46:43.5Z</time></trkpt><trkpt lat="43.16613" lon="13.6895933"><ele>102.0</ele><time>2026-04-04T14:46:44.5Z</time></trkpt><trkpt lat="43.16601" lon="13.6898917"><ele>105.0</ele><time>2026-04-04T14:46:45.501Z</time></trkpt><trkpt lat="43.1658967" lon="13.6901917"><ele>107.5</ele><time>2026-04-04T14:46:46.5Z</time></trkpt><trkpt lat="43.165785" lon="13.6905"><ele>110.0</ele><time>2026-04-04T14:46:47.501Z</time></trkpt><trkpt lat="43.16568" lon="13.6908133"><ele>106.5</ele><time>2026-04-04T14:46:48.501Z</time></trkpt><trkpt lat="43.1656" lon="13.69114"><ele>103.0</ele><time>2026-04-04T14:46:49.501Z</time></trkpt><trkpt lat="43.16554" lon="13.6914667"><ele>103.0</ele><time>2026-04-04T14:46:50.5Z</time></trkpt><trkpt lat="43.1655133" lon="13.6917933"><ele>103.0</ele><time>2026-04-04T14:46:51.501Z</time></trkpt><trkpt lat="43.16552" lon="13.6921333"><ele>104.5</ele><time>2026-04-04T14:46:52.5Z</time></trkpt><trkpt lat="43.1655233" lon="13.6924883"><ele>106.0</ele><time>2026-04-04T14:46:53.501Z</time></trkpt><trkpt lat="43.16553" lon="13.6928383"><ele>106.5</ele><time>2026-04-04T14:46:54.5Z</time></trkpt><trkpt lat="43.16552" lon="13.6931717"><ele>107.0</ele><time>2026-04-04T14:46:55.5Z</time></trkpt><trkpt lat="43.1654983" lon="13.69349"><ele>109.0</ele><time>2026-04-04T14:46:56.501Z</time></trkpt><trkpt lat="43.1654517" lon="13.693785"><ele>111.0</ele><time>2026-04-04T14:46:57.501Z</time></trkpt><trkpt lat="43.1653683" lon="13.694065"><ele>113.0</ele><time>2026-04-04T14:46:58.501Z</time></trkpt><trkpt lat="43.165275" lon="13.6943183"><ele>114.33333333333333</ele><time>2026-04-04T14:46:59.5Z</time></trkpt><trkpt lat="43.1651733" lon="13.6945533"><ele>115.66666666666666</ele><time>2026-04-04T14:47:00.501Z</time></trkpt><trkpt lat="43.1651133" lon="13.694785"><ele>117.0</ele><time>2026-04-04T14:47:01.501Z</time></trkpt><trkpt lat="43.16509" lon="13.695015"><ele>117.0</ele><time>2026-04-04T14:47:02.5Z</time></trkpt><trkpt lat="43.165115" lon="13.6952467"><ele>117.0</ele><time>2026-04-04T14:47:03.5Z</time></trkpt><trkpt lat="43.1651733" lon="13.695465"><ele>117.0</ele><time>2026-04-04T14:47:04.501Z</time></trkpt><trkpt lat="43.16523" lon="13.6956667"><ele>117.19999999999999</ele><time>2026-04-04T14:47:05.501Z</time></trkpt><trkpt lat="43.1652717" lon="13.695835"><ele>117.39999999999999</ele><time>2026-04-04T14:47:06.501Z</time></trkpt><trkpt lat="43.1652833" lon="13.69598"><ele>117.60000000000001</ele><time>2026-04-04T14:47:07.501Z</time></trkpt><trkpt lat="43.1652233" lon="13.6961033"><ele>117.80000000000001</ele><time>2026-04-04T14:47:08.5Z</time></trkpt><trkpt lat="43.16514" lon="13.696185"><ele>118.0</ele><time>2026-04-04T14:47:09.501Z</time></trkpt><trkpt lat="43.1650533" lon="13.69623"><ele>119.16666666666667</ele><time>2026-04-04T14:47:10.5Z</time></trkpt><trkpt lat="43.1649683" lon="13.69626"><ele>120.33333333333334</ele><time>2026-04-04T14:47:11.501Z</time></trkpt><trkpt lat="43.16489" lon="13.69625"><ele>121.5</ele><time>2026-04-04T14:47:12.5Z</time></trkpt><trkpt lat="43.1648267" lon="13.69625"><ele>122.66666666666666</ele><time>2026-04-04T14:47:13.501Z</time></trkpt><trkpt lat="43.164715" lon="13.6963167"><ele>123.83333333333333</ele><time>2026-04-04T14:47:15.5Z</time></trkpt><trkpt lat="43.1647" lon="13.696405"><ele>125.0</ele><time>2026-04-04T14:47:16.501Z</time></trkpt><trkpt lat="43.164715" lon="13.6964983"><ele>125.0</ele><time>2026-04-04T14:47:17.5Z</time></trkpt><trkpt lat="43.1647533" lon="13.696575"><ele>125.0</ele><time>2026-04-04T14:47:18.501Z</time></trkpt><trkpt lat="43.1648183" lon="13.6966383"><ele>125.0</ele><time>2026-04-04T14:47:19.5Z</time></trkpt><trkpt lat="43.1649183" lon="13.696685"><ele>125.0</ele><time>2026-04-04T14:47:20.501Z</time></trkpt><trkpt lat="43.1650483" lon="13.6967317"><ele>125.0</ele><time>2026-04-04T14:47:21.5Z</time></trkpt><trkpt lat="43.165195" lon="13.6968117"><ele>129.66666666666666</ele><time>2026-04-04T14:47:22.501Z</time></trkpt><trkpt lat="43.1653517" lon="13.6969267"><ele>134.33333333333334</ele><time>2026-04-04T14:47:23.5Z</time></trkpt><trkpt lat="43.1655083" lon="13.69705"><ele>139.0</ele><time>2026-04-04T14:47:24.5Z</time></trkpt><trkpt lat="43.165675" lon="13.697195"><ele>138.66666666666669</ele><time>2026-04-04T14:47:25.5Z</time></trkpt><trkpt lat="43.1658567" lon="13.6973217"><ele>138.33333333333334</ele><time>2026-04-04T14:47:26.501Z</time></trkpt><trkpt lat="43.16605" lon="13.6974267"><ele>138.0</ele><time>2026-04-04T14:47:27.5Z</time></trkpt><trkpt lat="43.1662583" lon="13.6975167"><ele>138.0</ele><time>2026-04-04T14:47:28.5Z</time></trkpt><trkpt lat="43.1664683" lon="13.6975817"><ele>138.0</ele><time>2026-04-04T14:47:29.5Z</time></trkpt><trkpt lat="43.1666967" lon="13.6976167"><ele>138.0</ele><time>2026-04-04T14:47:30.501Z</time></trkpt><trkpt lat="43.1669267" lon="13.69763"><ele>137.66666666666666</ele><time>2026-04-04T14:47:31.5Z</time></trkpt><trkpt lat="43.16715" lon="13.69765"><ele>137.33333333333331</ele><time>2026-04-04T14:47:32.5Z</time></trkpt><trkpt lat="43.1673667" lon="13.6976867"><ele>137.0</ele><time>2026-04-04T14:47:33.5Z</time></trkpt><trkpt lat="43.16756" lon="13.69777"><ele>141.0</ele><time>2026-04-04T14:47:34.5Z</time></trkpt><trkpt lat="43.1677233" lon="13.6978733"><ele>145.0</ele><time>2026-04-04T14:47:35.5Z</time></trkpt><trkpt lat="43.1678517" lon="13.6980233"><ele>149.0</ele><time>2026-04-04T14:47:36.5Z</time></trkpt><trkpt lat="43.1679417" lon="13.6982117"><ele>149.0</ele><time>2026-04-04T14:47:37.501Z</time></trkpt><trkpt lat="43.1679983" lon="13.6984217"><ele>149.0</ele><time>2026-04-04T14:47:38.5Z</time></trkpt><trkpt lat="43.1679967" lon="13.698655"><ele>149.0</ele><time>2026-04-04T14:47:39.5Z</time></trkpt><trkpt lat="43.1679567" lon="13.6988733"><ele>151.0</ele><time>2026-04-04T14:47:40.501Z</time></trkpt><trkpt lat="43.1678783" lon="13.6990933"><ele>153.0</ele><time>2026-04-04T14:47:41.5Z</time></trkpt><trkpt lat="43.167785" lon="13.69931"><ele>155.0</ele><time>2026-04-04T14:47:42.501Z</time></trkpt><trkpt lat="43.1676883" lon="13.6995283"><ele>159.0</ele><time>2026-04-04T14:47:43.5Z</time></trkpt><trkpt lat="43.1675817" lon="13.699725"><ele>163.0</ele><time>2026-04-04T14:47:44.5Z</time></trkpt><trkpt lat="43.1674417" lon="13.6998933"><ele>167.0</ele><time>2026-04-04T14:47:45.501Z</time></trkpt><trkpt lat="43.1673017" lon="13.700005"><ele>168.33333333333331</ele><time>2026-04-04T14:47:46.501Z</time></trkpt><trkpt lat="43.16714" lon="13.7000683"><ele>169.66666666666666</ele><time>2026-04-04T14:47:47.501Z</time></trkpt><trkpt lat="43.1669633" lon="13.700075"><ele>171.0</ele><time>2026-04-04T14:47:48.501Z</time></trkpt><trkpt lat="43.166805" lon="13.7000017"><ele>171.0</ele><time>2026-04-04T14:47:49.501Z</time></trkpt><trkpt lat="43.1666367" lon="13.6998867"><ele>171.0</ele><time>2026-04-04T14:47:50.501Z</time></trkpt><trkpt lat="43.1664617" lon="13.6997667"><ele>171.0</ele><time>2026-04-04T14:47:51.501Z</time></trkpt><trkpt lat="43.16628" lon="13.6996733"><ele>173.66666666666666</ele><time>2026-04-04T14:47:52.501Z</time></trkpt><trkpt lat="43.1660867" lon="13.6996367"><ele>176.33333333333331</ele><time>2026-04-04T14:47:53.5Z</time></trkpt><trkpt lat="43.16589" lon="13.6996433"><ele>179.0</ele><time>2026-04-04T14:47:54.5Z</time></trkpt><trkpt lat="43.1657067" lon="13.6997033"><ele>177.66666666666666</ele><time>2026-04-04T14:47:55.5Z</time></trkpt><trkpt lat="43.16552" lon="13.6998167"><ele>176.33333333333334</ele><time>2026-04-04T14:47:56.501Z</time></trkpt><trkpt lat="43.165345" lon="13.6999667"><ele>175.0</ele><time>2026-04-04T14:47:57.501Z</time></trkpt><trkpt lat="43.165195" lon="13.70015"><ele>179.0</ele><time>2026-04-04T14:47:58.5Z</time></trkpt><trkpt lat="43.165065" lon="13.7003733"><ele>183.0</ele><time>2026-04-04T14:47:59.5Z</time></trkpt><trkpt lat="43.164965" lon="13.7006067"><ele>187.0</ele><time>2026-04-04T14:48:00.501Z</time></trkpt><trkpt lat="43.164885" lon="13.700835"><ele>186.25</ele><time>2026-04-04T14:48:01.5Z</time></trkpt><trkpt lat="43.1648233" lon="13.7010217"><ele>185.5</ele><time>2026-04-04T14:48:02.501Z</time></trkpt><trkpt lat="43.16476" lon="13.70118"><ele>184.75</ele><time>2026-04-04T14:48:03.501Z</time></trkpt><trkpt lat="43.164705" lon="13.7012933"><ele>184.0</ele><time>2026-04-04T14:48:04.5Z</time></trkpt><trkpt lat="43.1646583" lon="13.7013933"><ele>185.16666666666669</ele><time>2026-04-04T14:48:05.501Z</time></trkpt><trkpt lat="43.1646233" lon="13.7014783"><ele>186.33333333333334</ele><time>2026-04-04T14:48:06.501Z</time></trkpt><trkpt lat="43.1645767" lon="13.70155"><ele>187.5</ele><time>2026-04-04T14:48:07.501Z</time></trkpt><trkpt lat="43.1645183" lon="13.701675"><ele>188.66666666666666</ele><time>2026-04-04T14:48:09.5Z</time></trkpt><trkpt lat="43.1645483" lon="13.70181"><ele>189.83333333333331</ele><time>2026-04-04T14:48:11.5Z</time></trkpt><trkpt lat="43.1646067" lon="13.70186"><ele>191.0</ele><time>2026-04-04T14:48:12.5Z</time></trkpt><trkpt lat="43.164665" lon="13.7019133"><ele>192.8</ele><time>2026-04-04T14:48:13.5Z</time></trkpt><trkpt lat="43.1647183" lon="13.70198"><ele>194.60000000000002</ele><time>2026-04-04T14:48:14.5Z</time></trkpt><trkpt lat="43.1647667" lon="13.7020667"><ele>196.4</ele><time>2026-04-04T14:48:15.5Z</time></trkpt><trkpt lat="43.1648117" lon="13.7021767"><ele>198.2</ele><time>2026-04-04T14:48:16.501Z</time></trkpt><trkpt lat="43.1648533" lon="13.7023033"><ele>200.0</ele><time>2026-04-04T14:48:17.501Z</time></trkpt><trkpt lat="43.1649133" lon="13.7024367"><ele>201.0</ele><time>2026-04-04T14:48:18.5Z</time></trkpt><trkpt lat="43.16496" lon="13.702605"><ele>202.0</ele><time>2026-04-04T14:48:19.5Z</time></trkpt><trkpt lat="43.165" lon="13.7028"><ele>203.0</ele><time>2026-04-04T14:48:20.5Z</time></trkpt><trkpt lat="43.1650083" lon="13.7030233"><ele>204.0</ele><time>2026-04-04T14:48:21.501Z</time></trkpt><trkpt lat="43.1649867" lon="13.7032433"><ele>204.0</ele><time>2026-04-04T14:48:22.5Z</time></trkpt><trkpt lat="43.1649517" lon="13.703455"><ele>204.0</ele><time>2026-04-04T14:48:23.501Z</time></trkpt><trkpt lat="43.1648917" lon="13.70364"><ele>204.0</ele><time>2026-04-04T14:48:24.5Z</time></trkpt><trkpt lat="43.1648083" lon="13.7038"><ele>204.0</ele><time>2026-04-04T14:48:25.501Z</time></trkpt><trkpt lat="43.164725" lon="13.7039333"><ele>203.6</ele><time>2026-04-04T14:48:26.5Z</time></trkpt><trkpt lat="43.1646267" lon="13.7040267"><ele>203.2</ele><time>2026-04-04T14:48:27.5Z</time></trkpt><trkpt lat="43.1645283" lon="13.7040917"><ele>202.79999999999998</ele><time>2026-04-04T14:48:28.5Z</time></trkpt><trkpt lat="43.16443" lon="13.704155"><ele>202.39999999999998</ele><time>2026-04-04T14:48:29.501Z</time></trkpt><trkpt lat="43.1643467" lon="13.7042133"><ele>202.0</ele><time>2026-04-04T14:48:30.5Z</time></trkpt><trkpt lat="43.1642983" lon="13.7042783"><ele>201.39999999999998</ele><time>2026-04-04T14:48:31.501Z</time></trkpt><trkpt lat="43.1643133" lon="13.7044233"><ele>200.79999999999998</ele><time>2026-04-04T14:48:33.5Z</time></trkpt><trkpt lat="43.1643733" lon="13.7044833"><ele>200.2</ele><time>2026-04-04T14:48:34.5Z</time></trkpt><trkpt lat="43.1644767" lon="13.704545"><ele>199.6</ele><time>2026-04-04T14:48:35.501Z</time></trkpt><trkpt lat="43.1646083" lon="13.7045917"><ele>199.0</ele><time>2026-04-04T14:48:36.5Z</time></trkpt><trkpt lat="43.1647733" lon="13.7046183"><ele>199.0</ele><time>2026-04-04T14:48:37.5Z</time></trkpt><trkpt lat="43.1649733" lon="13.70464"><ele>199.0</ele><time>2026-04-04T14:48:38.5Z</time></trkpt><trkpt lat="43.16515" lon="13.704655"><ele>199.0</ele><time>2026-04-04T14:48:39.5Z</time></trkpt><trkpt lat="43.1653267" lon="13.7046567"><ele>199.0</ele><time>2026-04-04T14:48:40.501Z</time></trkpt><trkpt lat="43.1654833" lon="13.70466"><ele>199.0</ele><time>2026-04-04T14:48:41.501Z</time></trkpt><trkpt lat="43.1656" lon="13.704685"><ele>199.0</ele><time>2026-04-04T14:48:42.5Z</time></trkpt><trkpt lat="43.1656867" lon="13.7047017"><ele>199.0</ele><time>2026-04-04T14:48:43.501Z</time></trkpt><trkpt lat="43.1657683" lon="13.70472"><ele>199.0</ele><time>2026-04-04T14:48:44.5Z</time></trkpt><trkpt lat="43.1658317" lon="13.7047133"><ele>200.0</ele><time>2026-04-04T14:48:45.5Z</time></trkpt><trkpt lat="43.165935" lon="13.70473"><ele>201.0</ele><time>2026-04-04T14:48:47.5Z</time></trkpt><trkpt lat="43.166015" lon="13.7047667"><ele>202.0</ele><time>2026-04-04T14:48:49.5Z</time></trkpt><trkpt lat="43.16608" lon="13.7049133"><ele>203.0</ele><time>2026-04-04T14:48:51.501Z</time></trkpt><trkpt lat="43.1661117" lon="13.7049983"><ele>204.0</ele><time>2026-04-04T14:48:52.501Z</time></trkpt><trkpt lat="43.166145" lon="13.7050917"><ele>204.0</ele><time>2026-04-04T14:48:53.501Z</time></trkpt><trkpt lat="43.1661717" lon="13.7052033"><ele>204.0</ele><time>2026-04-04T14:48:54.501Z</time></trkpt><trkpt lat="43.1662033" lon="13.7053317"><ele>204.0</ele><time>2026-04-04T14:48:55.5Z</time></trkpt><trkpt lat="43.1662383" lon="13.7054533"><ele>204.0</ele><time>2026-04-04T14:48:56.5Z</time></trkpt><trkpt lat="43.166295" lon="13.7055817"><ele>204.0</ele><time>2026-04-04T14:48:57.5Z</time></trkpt><trkpt lat="43.1663533" lon="13.7057283"><ele>204.0</ele><time>2026-04-04T14:48:58.499Z</time></trkpt><trkpt lat="43.166415" lon="13.705885"><ele>204.0</ele><time>2026-04-04T14:48:59.5Z</time></trkpt><trkpt lat="43.1664833" lon="13.7060383"><ele>204.0</ele><time>2026-04-04T14:49:00.5Z</time></trkpt><trkpt lat="43.16654" lon="13.7062"><ele>204.0</ele><time>2026-04-04T14:49:01.499Z</time></trkpt><trkpt lat="43.1666083" lon="13.7063567"><ele>204.0</ele><time>2026-04-04T14:49:02.499Z</time></trkpt><trkpt lat="43.1666833" lon="13.7065283"><ele>204.0</ele><time>2026-04-04T14:49:03.5Z</time></trkpt><trkpt lat="43.1667617" lon="13.7067233"><ele>204.0</ele><time>2026-04-04T14:49:04.499Z</time></trkpt><trkpt lat="43.166845" lon="13.7069383"><ele>202.33333333333331</ele><time>2026-04-04T14:49:05.5Z</time></trkpt><trkpt lat="43.1669383" lon="13.7071733"><ele>200.66666666666666</ele><time>2026-04-04T14:49:06.499Z</time></trkpt><trkpt lat="43.1670083" lon="13.70736"><ele>199.0</ele><time>2026-04-04T14:49:07.499Z</time></trkpt><trkpt lat="43.1670833" lon="13.7075683"><ele>197.66666666666666</ele><time>2026-04-04T14:49:08.5Z</time></trkpt><trkpt lat="43.1671633" lon="13.7077717"><ele>196.33333333333331</ele><time>2026-04-04T14:49:09.5Z</time></trkpt><trkpt lat="43.1672333" lon="13.7079633"><ele>195.0</ele><time>2026-04-04T14:49:10.499Z</time></trkpt><trkpt lat="43.1673033" lon="13.7081333"><ele>195.75</ele><time>2026-04-04T14:49:11.499Z</time></trkpt><trkpt lat="43.1673833" lon="13.7082967"><ele>196.5</ele><time>2026-04-04T14:49:12.499Z</time></trkpt><trkpt lat="43.1674617" lon="13.70845"><ele>197.25</ele><time>2026-04-04T14:49:13.5Z</time></trkpt><trkpt lat="43.1675467" lon="13.7086017"><ele>198.0</ele><time>2026-04-04T14:49:14.5Z</time></trkpt><trkpt lat="43.1676383" lon="13.70876"><ele>198.0</ele><time>2026-04-04T14:49:15.499Z</time></trkpt><trkpt lat="43.167735" lon="13.70892"><ele>198.0</ele><time>2026-04-04T14:49:16.5Z</time></trkpt><trkpt lat="43.1678267" lon="13.7090783"><ele>198.0</ele><time>2026-04-04T14:49:17.499Z</time></trkpt><trkpt lat="43.16792" lon="13.709225"><ele>198.0</ele><time>2026-04-04T14:49:18.5Z</time></trkpt><trkpt lat="43.1680117" lon="13.7093783"><ele>195.66666666666666</ele><time>2026-04-04T14:49:19.5Z</time></trkpt><trkpt lat="43.1681033" lon="13.7095417"><ele>193.33333333333331</ele><time>2026-04-04T14:49:20.499Z</time></trkpt><trkpt lat="43.1681983" lon="13.7096917"><ele>191.0</ele><time>2026-04-04T14:49:21.5Z</time></trkpt><trkpt lat="43.1683067" lon="13.709845"><ele>192.66666666666666</ele><time>2026-04-04T14:49:22.5Z</time></trkpt><trkpt lat="43.1684233" lon="13.7099967"><ele>194.33333333333331</ele><time>2026-04-04T14:49:23.499Z</time></trkpt><trkpt lat="43.1685367" lon="13.7101433"><ele>196.0</ele><time>2026-04-04T14:49:24.5Z</time></trkpt><trkpt lat="43.1686433" lon="13.7102883"><ele>196.0</ele><time>2026-04-04T14:49:25.5Z</time></trkpt><trkpt lat="43.168755" lon="13.7104383"><ele>196.0</ele><time>2026-04-04T14:49:26.499Z</time></trkpt><trkpt lat="43.16887" lon="13.7105767"><ele>196.0</ele><time>2026-04-04T14:49:27.5Z</time></trkpt><trkpt lat="43.1689983" lon="13.7107083"><ele>198.0</ele><time>2026-04-04T14:49:28.499Z</time></trkpt><trkpt lat="43.1691317" lon="13.71085"><ele>200.0</ele><time>2026-04-04T14:49:29.499Z</time></trkpt><trkpt lat="43.1692733" lon="13.71103"><ele>202.0</ele><time>2026-04-04T14:49:30.499Z</time></trkpt><trkpt lat="43.1694183" lon="13.71122"><ele>202.0</ele><time>2026-04-04T14:49:31.5Z</time></trkpt><trkpt lat="43.1695767" lon="13.7114383"><ele>202.0</ele><time>2026-04-04T14:49:32.5Z</time></trkpt><trkpt lat="43.1697233" lon="13.71165"><ele>202.0</ele><time>2026-04-04T14:49:33.5Z</time></trkpt><trkpt lat="43.1698583" lon="13.7118817"><ele>204.33333333333331</ele><time>2026-04-04T14:49:34.499Z</time></trkpt><trkpt lat="43.1699833" lon="13.7121083"><ele>206.66666666666669</ele><time>2026-04-04T14:49:35.5Z</time></trkpt><trkpt lat="43.1701117" lon="13.7123383"><ele>209.0</ele><time>2026-04-04T14:49:36.499Z</time></trkpt><trkpt lat="43.1702483" lon="13.7125617"><ele>210.33333333333334</ele><time>2026-04-04T14:49:37.5Z</time></trkpt><trkpt lat="43.1703883" lon="13.7127683"><ele>211.66666666666669</ele><time>2026-04-04T14:49:38.5Z</time></trkpt><trkpt lat="43.17054" lon="13.7129683"><ele>213.0</ele><time>2026-04-04T14:49:39.499Z</time></trkpt><trkpt lat="43.1706983" lon="13.7131583"><ele>213.0</ele><time>2026-04-04T14:49:40.5Z</time></trkpt><trkpt lat="43.1708383" lon="13.7133683"><ele>213.0</ele><time>2026-04-04T14:49:41.5Z</time></trkpt><trkpt lat="43.1709867" lon="13.7135417"><ele>213.0</ele><time>2026-04-04T14:49:42.499Z</time></trkpt><trkpt lat="43.17113" lon="13.713715"><ele>213.0</ele><time>2026-04-04T14:49:43.499Z</time></trkpt><trkpt lat="43.17127" lon="13.7138883"><ele>213.0</ele><time>2026-04-04T14:49:44.5Z</time></trkpt><trkpt lat="43.17142" lon="13.7140433"><ele>213.0</ele><time>2026-04-04T14:49:45.5Z</time></trkpt><trkpt lat="43.1715783" lon="13.71419"><ele>213.0</ele><time>2026-04-04T14:49:46.5Z</time></trkpt><trkpt lat="43.1717517" lon="13.7143317"><ele>213.0</ele><time>2026-04-04T14:49:47.499Z</time></trkpt><trkpt lat="43.17193" lon="13.71447"><ele>213.0</ele><time>2026-04-04T14:49:48.5Z</time></trkpt><trkpt lat="43.1721017" lon="13.714625"><ele>210.66666666666669</ele><time>2026-04-04T14:49:49.5Z</time></trkpt><trkpt lat="43.1722833" lon="13.7147917"><ele>208.33333333333334</ele><time>2026-04-04T14:49:50.499Z</time></trkpt><trkpt lat="43.1724533" lon="13.7149767"><ele>206.0</ele><time>2026-04-04T14:49:51.499Z</time></trkpt><trkpt lat="43.1726117" lon="13.715195"><ele>203.5</ele><time>2026-04-04T14:49:52.5Z</time></trkpt><trkpt lat="43.1727433" lon="13.7154533"><ele>201.0</ele><time>2026-04-04T14:49:53.5Z</time></trkpt><trkpt lat="43.17287" lon="13.7157217"><ele>201.0</ele><time>2026-04-04T14:49:54.5Z</time></trkpt><trkpt lat="43.1729883" lon="13.71599"><ele>201.0</ele><time>2026-04-04T14:49:55.499Z</time></trkpt><trkpt lat="43.1731083" lon="13.7162783"><ele>197.5</ele><time>2026-04-04T14:49:56.499Z</time></trkpt><trkpt lat="43.1732183" lon="13.7165667"><ele>194.0</ele><time>2026-04-04T14:49:57.499Z</time></trkpt><trkpt lat="43.1733183" lon="13.7168583"><ele>193.0</ele><time>2026-04-04T14:49:58.499Z</time></trkpt><trkpt lat="43.1733817" lon="13.7171633"><ele>192.0</ele><time>2026-04-04T14:49:59.499Z</time></trkpt><trkpt lat="43.1734367" lon="13.71749"><ele>189.0</ele><time>2026-04-04T14:50:00.5Z</time></trkpt><trkpt lat="43.1734783" lon="13.7178167"><ele>186.0</ele><time>2026-04-04T14:50:01.5Z</time></trkpt><trkpt lat="43.1735283" lon="13.7181417"><ele>186.0</ele><time>2026-04-04T14:50:02.499Z</time></trkpt><trkpt lat="43.1735867" lon="13.7184733"><ele>186.0</ele><time>2026-04-04T14:50:03.499Z</time></trkpt><trkpt lat="43.17365" lon="13.7187883"><ele>183.5</ele><time>2026-04-04T14:50:04.499Z</time></trkpt><trkpt lat="43.1737067" lon="13.7191133"><ele>181.0</ele><time>2026-04-04T14:50:05.499Z</time></trkpt><trkpt lat="43.1737633" lon="13.7194217"><ele>176.5</ele><time>2026-04-04T14:50:06.5Z</time></trkpt><trkpt lat="43.173825" lon="13.71973"><ele>172.0</ele><time>2026-04-04T14:50:07.5Z</time></trkpt><trkpt lat="43.1738783" lon="13.7200317"><ele>171.0</ele><time>2026-04-04T14:50:08.499Z</time></trkpt><trkpt lat="43.1739333" lon="13.720325"><ele>170.0</ele><time>2026-04-04T14:50:09.499Z</time></trkpt><trkpt lat="43.1739967" lon="13.72061"><ele>169.0</ele><time>2026-04-04T14:50:10.5Z</time></trkpt><trkpt lat="43.17408" lon="13.7208883"><ele>166.33333333333334</ele><time>2026-04-04T14:50:11.5Z</time></trkpt><trkpt lat="43.1741833" lon="13.7211583"><ele>163.66666666666666</ele><time>2026-04-04T14:50:12.499Z</time></trkpt><trkpt lat="43.1742917" lon="13.7214083"><ele>161.0</ele><time>2026-04-04T14:50:13.499Z</time></trkpt><trkpt lat="43.1744033" lon="13.7216383"><ele>161.0</ele><time>2026-04-04T14:50:14.5Z</time></trkpt><trkpt lat="43.174505" lon="13.7218633"><ele>161.0</ele><time>2026-04-04T14:50:15.5Z</time></trkpt><trkpt lat="43.1746133" lon="13.7220783"><ele>161.0</ele><time>2026-04-04T14:50:16.5Z</time></trkpt><trkpt lat="43.1747083" lon="13.72229"><ele>159.66666666666666</ele><time>2026-04-04T14:50:17.5Z</time></trkpt><trkpt lat="43.1748033" lon="13.7224967"><ele>158.33333333333334</ele><time>2026-04-04T14:50:18.5Z</time></trkpt><trkpt lat="43.1748833" lon="13.72271"><ele>157.0</ele><time>2026-04-04T14:50:19.499Z</time></trkpt><trkpt lat="43.174965" lon="13.7229267"><ele>155.66666666666669</ele><time>2026-04-04T14:50:20.499Z</time></trkpt><trkpt lat="43.1750283" lon="13.723155"><ele>154.33333333333334</ele><time>2026-04-04T14:50:21.5Z</time></trkpt><trkpt lat="43.1751083" lon="13.7234133"><ele>153.0</ele><time>2026-04-04T14:50:22.499Z</time></trkpt><trkpt lat="43.1752117" lon="13.72369"><ele>149.0</ele><time>2026-04-04T14:50:23.5Z</time></trkpt><trkpt lat="43.1753283" lon="13.723955"><ele>145.0</ele><time>2026-04-04T14:50:24.499Z</time></trkpt><trkpt lat="43.1754617" lon="13.72422"><ele>145.0</ele><time>2026-04-04T14:50:25.499Z</time></trkpt><trkpt lat="43.1755917" lon="13.7244783"><ele>145.0</ele><time>2026-04-04T14:50:26.5Z</time></trkpt><trkpt lat="43.1757233" lon="13.724725"><ele>145.0</ele><time>2026-04-04T14:50:27.499Z</time></trkpt><trkpt lat="43.17585" lon="13.724935"><ele>145.0</ele><time>2026-04-04T14:50:28.499Z</time></trkpt><trkpt lat="43.1759483" lon="13.7251633"><ele>145.0</ele><time>2026-04-04T14:50:29.5Z</time></trkpt><trkpt lat="43.1760333" lon="13.7254067"><ele>144.33333333333334</ele><time>2026-04-04T14:50:30.5Z</time></trkpt><trkpt lat="43.176115" lon="13.725665"><ele>143.66666666666666</ele><time>2026-04-04T14:50:31.499Z</time></trkpt><trkpt lat="43.1761983" lon="13.7259117"><ele>143.0</ele><time>2026-04-04T14:50:32.5Z</time></trkpt><trkpt lat="43.1762683" lon="13.72615"><ele>141.0</ele><time>2026-04-04T14:50:33.499Z</time></trkpt><trkpt lat="43.1763283" lon="13.7263617"><ele>139.0</ele><time>2026-04-04T14:50:34.499Z</time></trkpt><trkpt lat="43.1763833" lon="13.7265667"><ele>137.0</ele><time>2026-04-04T14:50:35.499Z</time></trkpt><trkpt lat="43.17644" lon="13.7267867"><ele>136.33333333333331</ele><time>2026-04-04T14:50:36.499Z</time></trkpt><trkpt lat="43.1765" lon="13.72701"><ele>135.66666666666666</ele><time>2026-04-04T14:50:37.499Z</time></trkpt><trkpt lat="43.176555" lon="13.7272367"><ele>135.0</ele><time>2026-04-04T14:50:38.499Z</time></trkpt><trkpt lat="43.1766017" lon="13.72743"><ele>135.0</ele><time>2026-04-04T14:50:39.499Z</time></trkpt><trkpt lat="43.176645" lon="13.7275917"><ele>135.0</ele><time>2026-04-04T14:50:40.499Z</time></trkpt><trkpt lat="43.1766733" lon="13.7277233"><ele>135.0</ele><time>2026-04-04T14:50:41.499Z</time></trkpt><trkpt lat="43.1766883" lon="13.7278283"><ele>135.0</ele><time>2026-04-04T14:50:42.5Z</time></trkpt><trkpt lat="43.1766417" lon="13.72795"><ele>135.0</ele><time>2026-04-04T14:50:44.499Z</time></trkpt><trkpt lat="43.1765733" lon="13.7280017"><ele>131.0</ele><time>2026-04-04T14:50:45.5Z</time></trkpt><trkpt lat="43.176475" lon="13.7280467"><ele>127.0</ele><time>2026-04-04T14:50:46.499Z</time></trkpt><trkpt lat="43.176355" lon="13.7280833"><ele>123.0</ele><time>2026-04-04T14:50:47.499Z</time></trkpt><trkpt lat="43.1762033" lon="13.728115"><ele>119.0</ele><time>2026-04-04T14:50:48.499Z</time></trkpt><trkpt lat="43.1760517" lon="13.72813"><ele>119.0</ele><time>2026-04-04T14:50:49.5Z</time></trkpt><trkpt lat="43.1759083" lon="13.7281133"><ele>119.0</ele><time>2026-04-04T14:50:50.499Z</time></trkpt><trkpt lat="43.1757817" lon="13.728105"><ele>119.0</ele><time>2026-04-04T14:50:51.499Z</time></trkpt><trkpt lat="43.1756467" lon="13.7280483"><ele>119.0</ele><time>2026-04-04T14:50:52.499Z</time></trkpt><trkpt lat="43.1755117" lon="13.727975"><ele>117.0</ele><time>2026-04-04T14:50:53.499Z</time></trkpt><trkpt lat="43.175405" lon="13.7278933"><ele>115.0</ele><time>2026-04-04T14:50:54.499Z</time></trkpt><trkpt lat="43.1753017" lon="13.7278233"><ele>113.0</ele><time>2026-04-04T14:50:55.499Z</time></trkpt><trkpt lat="43.1752283" lon="13.7277483"><ele>111.0</ele><time>2026-04-04T14:50:56.499Z</time></trkpt><trkpt lat="43.17518" lon="13.7276633"><ele>109.0</ele><time>2026-04-04T14:50:57.5Z</time></trkpt><trkpt lat="43.1751483" lon="13.72758"><ele>109.00000000000001</ele><time>2026-04-04T14:50:58.5Z</time></trkpt><trkpt lat="43.17514" lon="13.72748"><ele>109.0</ele><time>2026-04-04T14:50:59.5Z</time></trkpt><trkpt lat="43.1751533" lon="13.7273633"><ele>109.0</ele><time>2026-04-04T14:51:00.5Z</time></trkpt><trkpt lat="43.1751667" lon="13.72725"><ele>109.0</ele><time>2026-04-04T14:51:01.5Z</time></trkpt><trkpt lat="43.1751933" lon="13.72714"><ele>109.00000000000001</ele><time>2026-04-04T14:51:03.5Z</time></trkpt><trkpt lat="43.1752633" lon="13.7271717"><ele>109.0</ele><time>2026-04-04T14:51:09.5Z</time></trkpt><trkpt lat="43.1752967" lon="13.7273283"><ele>109.0</ele><time>2026-04-04T15:21:47.501Z</time></trkpt><trkpt lat="43.1752217" lon="13.7274583"><ele>109.0</ele><time>2026-04-04T17:22:35.518Z</time></trkpt><trkpt lat="43.1752817" lon="13.7273683"><ele>109.0</ele><time>2026-04-04T19:35:29.546Z</time></trkpt><trkpt lat="43.1753033" lon="13.7272483"><ele>109.0</ele><time>2026-04-04T19:35:30.547Z</time></trkpt><trkpt lat="43.175265" lon="13.72736"><ele>109.0</ele><time>2026-04-04T20:09:54.555Z</time></trkpt><trkpt lat="43.1753117" lon="13.7272467"><ele>109.0</ele><time>2026-04-05T03:45:40.669Z</time></trkpt><trkpt lat="43.175255" lon="13.7273467"><ele>109.0</ele><time>2026-04-05T08:37:28.678Z</time></trkpt><trkpt lat="43.1752783" lon="13.7274683"><ele>109.0</ele><time>2026-04-05T09:42:56.661Z</time></trkpt><trkpt lat="43.175235" lon="13.7275817"><ele>109.0</ele><time>2026-04-05T09:50:46.66Z</time></trkpt><trkpt lat="43.1752183" lon="13.72746"><ele>109.0</ele><time>2026-04-05T10:14:29.661Z</time></trkpt><trkpt lat="43.175225" lon="13.727335"><ele>109.0</ele><time>2026-04-05T10:23:54.661Z</time></trkpt><trkpt lat="43.1751967" lon="13.7272533"><ele>109.0</ele><time>2026-04-05T10:31:38.055Z</time></trkpt><trkpt lat="43.1753633" lon="13.7271617"><ele>109.0</ele><time>2026-04-05T10:32:54.959Z</time></trkpt><trkpt lat="43.1754067" lon="13.72693"><ele>109.0</ele><time>2026-04-05T10:32:55.96Z</time></trkpt><trkpt lat="43.1753617" lon="13.7271583"><ele>109.00000000000001</ele><time>2026-04-05T10:33:02.959Z</time></trkpt><trkpt lat="43.17532" lon="13.7272233"><ele>109.0</ele><time>2026-04-05T10:33:12.96Z</time></trkpt><trkpt lat="43.1754033" lon="13.7271833"><ele>109.0</ele><time>2026-04-05T10:41:31.961Z</time></trkpt><trkpt lat="43.17533" lon="13.727185"><ele>109.0</ele><time>2026-04-05T10:43:31.96Z</time></trkpt><trkpt lat="43.1753467" lon="13.7270583"><ele>109.00000000000001</ele><time>2026-04-05T10:47:40.961Z</time></trkpt><trkpt lat="43.1753767" lon="13.7271617"><ele>109.0</ele><time>2026-04-05T10:48:16.961Z</time></trkpt><trkpt lat="43.17531" lon="13.727215"><ele>109.0</ele><time>2026-04-05T10:48:21.961Z</time></trkpt><trkpt lat="43.1752417" lon="13.727195"><ele>109.0</ele><time>2026-04-05T10:48:24.961Z</time></trkpt><trkpt lat="43.1753067" lon="13.7272717"><ele>109.0</ele><time>2026-04-05T10:49:26.961Z</time></trkpt><trkpt lat="43.1753883" lon="13.7272333"><ele>109.0</ele><time>2026-04-05T10:51:43.962Z</time></trkpt><trkpt lat="43.1753033" lon="13.7272"><ele>109.0</ele><time>2026-04-05T10:55:54.962Z</time></trkpt><trkpt lat="43.175215" lon="13.727065"><ele>109.00000000000001</ele><time>2026-04-05T10:56:47.962Z</time></trkpt><trkpt lat="43.1752167" lon="13.7269567"><ele>109.0</ele><time>2026-04-05T10:56:55.962Z</time></trkpt><trkpt lat="43.1753033" lon="13.7269933"><ele>109.0</ele><time>2026-04-05T10:58:13.961Z</time></trkpt><trkpt lat="43.1753633" lon="13.7271033"><ele>109.0</ele><time>2026-04-05T11:01:47.963Z</time></trkpt><trkpt lat="43.1753683" lon="13.7270117"><ele>109.00000000000001</ele><time>2026-04-05T11:02:04.963Z</time></trkpt><trkpt lat="43.17534" lon="13.7271433"><ele>109.0</ele><time>2026-04-05T11:02:19.963Z</time></trkpt><trkpt lat="43.1751317" lon="13.727205"><ele>109.0</ele><time>2026-04-05T11:17:12.964Z</time></trkpt><trkpt lat="43.175225" lon="13.7272983"><ele>109.0</ele><time>2026-04-05T11:17:39.965Z</time></trkpt><trkpt lat="43.175285" lon="13.7271683"><ele>109.0</ele><time>2026-04-05T11:20:29.964Z</time></trkpt><trkpt lat="43.175265" lon="13.7270817"><ele>109.0</ele><time>2026-04-05T11:20:32.965Z</time></trkpt><trkpt lat="43.1752333" lon="13.7269983"><ele>109.0</ele><time>2026-04-05T11:20:36.964Z</time></trkpt><trkpt lat="43.1752133" lon="13.727155"><ele>109.00000000000001</ele><time>2026-04-05T11:21:27.965Z</time></trkpt><trkpt lat="43.175275" lon="13.7271833"><ele>109.0</ele><time>2026-04-05T11:24:34.966Z</time></trkpt><trkpt lat="43.1753283" lon="13.7272833"><ele>109.0</ele><time>2026-04-05T11:31:30.966Z</time></trkpt><trkpt lat="43.1753733" lon="13.7271983"><ele>109.0</ele><time>2026-04-05T11:31:39.967Z</time></trkpt><trkpt lat="43.175325" lon="13.7271367"><ele>109.00000000000001</ele><time>2026-04-05T11:36:21.966Z</time></trkpt><trkpt lat="43.17541" lon="13.7270583"><ele>109.0</ele><time>2026-04-05T11:36:34.966Z</time></trkpt><trkpt lat="43.175385" lon="13.7271733"><ele>109.0</ele><time>2026-04-05T11:36:57.967Z</time></trkpt><trkpt lat="43.1753017" lon="13.727225"><ele>109.0</ele><time>2026-04-05T11:39:16.968Z</time></trkpt><trkpt lat="43.175395" lon="13.7272133"><ele>109.0</ele><time>2026-04-05T11:43:52.968Z</time></trkpt><trkpt lat="43.17535" lon="13.7272983"><ele>109.0</ele><time>2026-04-05T11:44:22.968Z</time></trkpt><trkpt lat="43.1753883" lon="13.7271183"><ele>109.0</ele><time>2026-04-05T11:50:03.969Z</time></trkpt><trkpt lat="43.17534" lon="13.72724"><ele>109.0</ele><time>2026-04-05T11:50:56.969Z</time></trkpt><trkpt lat="43.175325" lon="13.727145"><ele>109.0</ele><time>2026-04-05T11:52:24.969Z</time></trkpt><trkpt lat="43.1754217" lon="13.7271283"><ele>109.0</ele><time>2026-04-05T11:54:43.97Z</time></trkpt><trkpt lat="43.1753283" lon="13.7271583"><ele>109.0</ele><time>2026-04-05T11:55:55.97Z</time></trkpt><trkpt lat="43.1753617" lon="13.727275"><ele>109.0</ele><time>2026-04-05T11:59:03.969Z</time></trkpt><trkpt lat="43.1754267" lon="13.727165"><ele>109.00000000000001</ele><time>2026-04-05T12:00:07.97Z</time></trkpt><trkpt lat="43.17543" lon="13.7270583"><ele>109.0</ele><time>2026-04-05T12:00:18.971Z</time></trkpt><trkpt lat="43.1753733" lon="13.7272133"><ele>109.0</ele><time>2026-04-05T12:01:00.971Z</time></trkpt><trkpt lat="43.17531" lon="13.7272883"><ele>109.0</ele><time>2026-04-05T12:02:53.971Z</time></trkpt><trkpt lat="43.17533" lon="13.72717"><ele>109.00000000000001</ele><time>2026-04-05T12:05:29.971Z</time></trkpt><trkpt lat="43.1754" lon="13.7271933"><ele>109.0</ele><time>2026-04-05T12:17:29.972Z</time></trkpt><trkpt lat="43.17549" lon="13.7271717"><ele>109.00000000000001</ele><time>2026-04-05T12:17:41.973Z</time></trkpt><trkpt lat="43.1754867" lon="13.7270833"><ele>109.0</ele><time>2026-04-05T12:18:32.973Z</time></trkpt><trkpt lat="43.1753867" lon="13.7271233"><ele>109.0</ele><time>2026-04-05T12:19:40.973Z</time></trkpt><trkpt lat="43.1752517" lon="13.7271733"><ele>109.0</ele><time>2026-04-05T12:27:37.975Z</time></trkpt><trkpt lat="43.1753233" lon="13.7271517"><ele>109.00000000000001</ele><time>2026-04-05T12:29:55.975Z</time></trkpt><trkpt lat="43.1753783" lon="13.7271083"><ele>109.0</ele><time>2026-04-05T12:32:23.976Z</time></trkpt><trkpt lat="43.1753417" lon="13.7272233"><ele>109.0</ele><time>2026-04-05T12:36:18.976Z</time></trkpt><trkpt lat="43.1753533" lon="13.7270667"><ele>109.0</ele><time>2026-04-05T12:36:49.975Z</time></trkpt><trkpt lat="43.175405" lon="13.7271767"><ele>109.0</ele><time>2026-04-05T12:37:25.976Z</time></trkpt><trkpt lat="43.1753667" lon="13.72731"><ele>109.0</ele><time>2026-04-05T12:38:52.976Z</time></trkpt><trkpt lat="43.175385" lon="13.7272067"><ele>109.0</ele><time>2026-04-05T12:39:29.977Z</time></trkpt><trkpt lat="43.17541" lon="13.727115"><ele>109.0</ele><time>2026-04-05T12:40:34.976Z</time></trkpt><trkpt lat="43.175445" lon="13.7270183"><ele>109.0</ele><time>2026-04-05T12:40:48.977Z</time></trkpt><trkpt lat="43.175415" lon="13.72714"><ele>109.0</ele><time>2026-04-05T12:41:06.977Z</time></trkpt><trkpt lat="43.175355" lon="13.7272467"><ele>109.0</ele><time>2026-04-05T12:41:12.977Z</time></trkpt><trkpt lat="43.1753333" lon="13.7271"><ele>109.0</ele><time>2026-04-05T12:41:42.977Z</time></trkpt><trkpt lat="43.1754233" lon="13.7271533"><ele>109.00000000000001</ele><time>2026-04-05T12:42:03.977Z</time></trkpt><trkpt lat="43.1754317" lon="13.7270567"><ele>109.0</ele><time>2026-04-05T12:43:43.977Z</time></trkpt><trkpt lat="43.1755417" lon="13.7269667"><ele>109.0</ele><time>2026-04-05T12:44:26.977Z</time></trkpt><trkpt lat="43.1755183" lon="13.7270583"><ele>109.0</ele><time>2026-04-05T12:46:34.978Z</time></trkpt><trkpt lat="43.1755417" lon="13.726975"><ele>109.00000000000001</ele><time>2026-04-05T12:46:49.977Z</time></trkpt><trkpt lat="43.1755767" lon="13.7269"><ele>109.0</ele><time>2026-04-05T12:46:57.978Z</time></trkpt><trkpt lat="43.17559" lon="13.7268083"><ele>109.00000000000001</ele><time>2026-04-05T12:47:12.977Z</time></trkpt><trkpt lat="43.1755733" lon="13.7268933"><ele>109.0</ele><time>2026-04-05T12:48:04.978Z</time></trkpt><trkpt lat="43.1755367" lon="13.727025"><ele>109.0</ele><time>2026-04-05T12:48:20.977Z</time></trkpt><trkpt lat="43.1754933" lon="13.7271033"><ele>109.0</ele><time>2026-04-05T12:48:25.978Z</time></trkpt><trkpt lat="43.1755333" lon="13.7270133"><ele>109.00000000000001</ele><time>2026-04-05T12:48:30.978Z</time></trkpt><trkpt lat="43.1755933" lon="13.7269367"><ele>109.0</ele><time>2026-04-05T12:48:36.978Z</time></trkpt><trkpt lat="43.1755433" lon="13.727025"><ele>109.0</ele><time>2026-04-05T12:48:44.977Z</time></trkpt><trkpt lat="43.1754733" lon="13.7271233"><ele>109.0</ele><time>2026-04-05T12:48:54.978Z</time></trkpt><trkpt lat="43.1754133" lon="13.7271933"><ele>109.0</ele><time>2026-04-05T12:49:00.978Z</time></trkpt><trkpt lat="43.1754867" lon="13.7270667"><ele>109.0</ele><time>2026-04-05T12:49:06.977Z</time></trkpt><trkpt lat="43.1753867" lon="13.7271383"><ele>109.0</ele><time>2026-04-05T12:49:50.977Z</time></trkpt><trkpt lat="43.1753183" lon="13.7272233"><ele>109.00000000000001</ele><time>2026-04-05T12:49:53.978Z</time></trkpt><trkpt lat="43.17542" lon="13.7271733"><ele>109.0</ele><time>2026-04-05T12:50:20.977Z</time></trkpt><trkpt lat="43.175485" lon="13.7271417"><ele>109.0</ele><time>2026-04-05T12:50:25.978Z</time></trkpt><trkpt lat="43.175395" lon="13.727235"><ele>109.0</ele><time>2026-04-05T12:50:43.978Z</time></trkpt><trkpt lat="43.175325" lon="13.7272267"><ele>109.00000000000001</ele><time>2026-04-05T12:51:09.977Z</time></trkpt><trkpt lat="43.17531" lon="13.7271367"><ele>109.0</ele><time>2026-04-05T12:52:10.978Z</time></trkpt><trkpt lat="43.175375" lon="13.7271217"><ele>109.00000000000001</ele><time>2026-04-05T12:52:40.979Z</time></trkpt><trkpt lat="43.175435" lon="13.7270383"><ele>109.0</ele><time>2026-04-05T12:53:00.978Z</time></trkpt><trkpt lat="43.175495" lon="13.726985"><ele>109.0</ele><time>2026-04-05T12:54:36.979Z</time></trkpt><trkpt lat="43.175405" lon="13.7270067"><ele>109.0</ele><time>2026-04-05T12:55:06.978Z</time></trkpt><trkpt lat="43.175325" lon="13.7271317"><ele>109.00000000000001</ele><time>2026-04-05T12:57:24.979Z</time></trkpt><trkpt lat="43.1752617" lon="13.7271767"><ele>109.0</ele><time>2026-04-05T12:57:35.98Z</time></trkpt><trkpt lat="43.1752467" lon="13.7272783"><ele>109.0</ele><time>2026-04-05T12:58:01.98Z</time></trkpt><trkpt lat="43.1753067" lon="13.7271817"><ele>109.0</ele><time>2026-04-05T12:58:55.98Z</time></trkpt><trkpt lat="43.175385" lon="13.727125"><ele>109.0</ele><time>2026-04-05T13:00:54.98Z</time></trkpt><trkpt lat="43.1754483" lon="13.7270067"><ele>109.0</ele><time>2026-04-05T13:02:45.979Z</time></trkpt><trkpt lat="43.17557" lon="13.7269567"><ele>109.0</ele><time>2026-04-05T13:07:44.981Z</time></trkpt><trkpt lat="43.1754667" lon="13.727105"><ele>109.0</ele><time>2026-04-05T13:09:22.98Z</time></trkpt><trkpt lat="43.1754883" lon="13.726995"><ele>109.0</ele><time>2026-04-05T13:10:06.981Z</time></trkpt><trkpt lat="43.17543" lon="13.7270383"><ele>109.0</ele><time>2026-04-05T13:10:17.981Z</time></trkpt><trkpt lat="43.175325" lon="13.7271367"><ele>109.0</ele><time>2026-04-05T13:11:38.982Z</time></trkpt><trkpt lat="43.1754567" lon="13.72716"><ele>109.0</ele><time>2026-04-05T13:16:07.982Z</time></trkpt><trkpt lat="43.1753917" lon="13.7271067"><ele>109.00000000000001</ele><time>2026-04-05T13:19:22.982Z</time></trkpt><trkpt lat="43.17542" lon="13.72699"><ele>109.0</ele><time>2026-04-05T13:19:31.983Z</time></trkpt><trkpt lat="43.1754233" lon="13.7270817"><ele>109.0</ele><time>2026-04-05T13:29:25.985Z</time></trkpt><trkpt lat="43.1755" lon="13.7271483"><ele>109.0</ele><time>2026-04-05T13:33:49.984Z</time></trkpt><trkpt lat="43.175435" lon="13.7272317"><ele>109.00000000000001</ele><time>2026-04-05T13:35:00.985Z</time></trkpt><trkpt lat="43.1753817" lon="13.72716"><ele>109.0</ele><time>2026-04-05T13:40:50.986Z</time></trkpt><trkpt lat="43.17533" lon="13.727055"><ele>109.0</ele><time>2026-04-05T13:41:06.986Z</time></trkpt><trkpt lat="43.175295" lon="13.7271917"><ele>109.0</ele><time>2026-04-05T13:43:18.986Z</time></trkpt><trkpt lat="43.1753933" lon="13.7271133"><ele>109.0</ele><time>2026-04-05T13:43:44.987Z</time></trkpt><trkpt lat="43.175425" lon="13.7269967"><ele>109.0</ele><time>2026-04-05T13:47:06.987Z</time></trkpt><trkpt lat="43.1754117" lon="13.7269067"><ele>109.0</ele><time>2026-04-05T13:47:23.987Z</time></trkpt><trkpt lat="43.17536" lon="13.7271383"><ele>109.0</ele><time>2026-04-05T13:47:49.987Z</time></trkpt><trkpt lat="43.1753067" lon="13.72727"><ele>109.0</ele><time>2026-04-05T13:48:33.988Z</time></trkpt><trkpt lat="43.1752983" lon="13.7270833"><ele>109.0</ele><time>2026-04-05T13:49:49.988Z</time></trkpt><trkpt lat="43.17536" lon="13.7271133"><ele>109.0</ele><time>2026-04-05T13:52:06.987Z</time></trkpt><trkpt lat="43.17545" lon="13.7271433"><ele>109.0</ele><time>2026-04-05T13:52:44.988Z</time></trkpt><trkpt lat="43.1755067" lon="13.7272217"><ele>109.0</ele><time>2026-04-05T13:53:52.988Z</time></trkpt><trkpt lat="43.17549" lon="13.7271283"><ele>109.0</ele><time>2026-04-05T13:54:31.988Z</time></trkpt><trkpt lat="43.1753567" lon="13.7270233"><ele>109.0</ele><time>2026-04-05T13:55:21.989Z</time></trkpt><trkpt lat="43.1752867" lon="13.7271367"><ele>109.0</ele><time>2026-04-05T13:55:57.989Z</time></trkpt><trkpt lat="43.1752967" lon="13.7272833"><ele>109.0</ele><time>2026-04-05T14:05:09.99Z</time></trkpt><trkpt lat="43.1753667" lon="13.7272183"><ele>109.0</ele><time>2026-04-05T14:07:39.991Z</time></trkpt><trkpt lat="43.17535" lon="13.72708"><ele>109.0</ele><time>2026-04-05T14:11:24.99Z</time></trkpt><trkpt lat="43.175345" lon="13.7272283"><ele>109.0</ele><time>2026-04-05T14:27:31.993Z</time></trkpt><trkpt lat="43.1752933" lon="13.7271167"><ele>109.0</ele><time>2026-04-05T14:29:04.994Z</time></trkpt><trkpt lat="43.1752283" lon="13.7272033"><ele>109.0</ele><time>2026-04-05T14:29:31.993Z</time></trkpt><trkpt lat="43.17531" lon="13.7272733"><ele>109.00000000000001</ele><time>2026-04-05T14:31:30.995Z</time></trkpt><trkpt lat="43.1753483" lon="13.7271933"><ele>109.0</ele><time>2026-04-05T14:31:43.995Z</time></trkpt><trkpt lat="43.1752817" lon="13.72715"><ele>109.0</ele><time>2026-04-05T14:34:00.995Z</time></trkpt><trkpt lat="43.1753017" lon="13.7270433"><ele>109.0</ele><time>2026-04-05T14:41:38.995Z</time></trkpt><trkpt lat="43.17533" lon="13.7269517"><ele>109.00000000000001</ele><time>2026-04-05T14:45:34.996Z</time></trkpt><trkpt lat="43.175315" lon="13.7271217"><ele>109.0</ele><time>2026-04-05T14:47:40.997Z</time></trkpt><trkpt lat="43.175255" lon="13.7269933"><ele>109.00000000000001</ele><time>2026-04-05T14:49:42.997Z</time></trkpt><trkpt lat="43.1753317" lon="13.7270017"><ele>109.0</ele><time>2026-04-05T14:51:18.997Z</time></trkpt><trkpt lat="43.1754283" lon="13.727005"><ele>109.0</ele><time>2026-04-05T14:51:56.998Z</time></trkpt><trkpt lat="43.1754283" lon="13.727135"><ele>109.0</ele><time>2026-04-05T14:53:14.998Z</time></trkpt><trkpt lat="43.175395" lon="13.7272133"><ele>109.00000000000001</ele><time>2026-04-05T14:54:17.997Z</time></trkpt><trkpt lat="43.1752983" lon="13.7271883"><ele>109.0</ele><time>2026-04-05T14:55:58.999Z</time></trkpt><trkpt lat="43.175385" lon="13.7272183"><ele>109.0</ele><time>2026-04-05T14:58:23.998Z</time></trkpt><trkpt lat="43.1753367" lon="13.7273017"><ele>109.0</ele><time>2026-04-05T15:06:22.999Z</time></trkpt><trkpt lat="43.1753817" lon="13.7271383"><ele>109.0</ele><time>2026-04-05T15:16:38.002Z</time></trkpt><trkpt lat="43.1753767" lon="13.7270233"><ele>109.0</ele><time>2026-04-05T15:25:53.003Z</time></trkpt><trkpt lat="43.1753317" lon="13.727115"><ele>109.0</ele><time>2026-04-05T15:28:56.004Z</time></trkpt><trkpt lat="43.1754267" lon="13.72719"><ele>109.0</ele><time>2026-04-05T15:29:27.003Z</time></trkpt><trkpt lat="43.175405" lon="13.72707"><ele>109.0</ele><time>2026-04-05T15:30:14.003Z</time></trkpt><trkpt lat="43.175365" lon="13.7272117"><ele>109.0</ele><time>2026-04-05T15:31:19.004Z</time></trkpt><trkpt lat="43.1752367" lon="13.7272817"><ele>109.0</ele><time>2026-04-05T15:32:44.005Z</time></trkpt><trkpt lat="43.1753233" lon="13.7272117"><ele>109.0</ele><time>2026-04-05T15:34:25.005Z</time></trkpt><trkpt lat="43.1753633" lon="13.727125"><ele>109.0</ele><time>2026-04-05T15:34:38.005Z</time></trkpt><trkpt lat="43.1754117" lon="13.72706"><ele>109.0</ele><time>2026-04-05T15:35:01.004Z</time></trkpt><trkpt lat="43.1752717" lon="13.7271867"><ele>109.0</ele><time>2026-04-05T15:35:11.005Z</time></trkpt><trkpt lat="43.1753267" lon="13.7271183"><ele>109.0</ele><time>2026-04-05T15:36:08.005Z</time></trkpt><trkpt lat="43.1752867" lon="13.7272417"><ele>109.0</ele><time>2026-04-05T15:37:31.005Z</time></trkpt><trkpt lat="43.1753467" lon="13.727205"><ele>109.00000000000001</ele><time>2026-04-05T15:41:08.006Z</time></trkpt><trkpt lat="43.175365" lon="13.7271217"><ele>109.0</ele><time>2026-04-05T15:42:10.006Z</time></trkpt><trkpt lat="43.1753267" lon="13.7272083"><ele>109.0</ele><time>2026-04-05T15:44:45.006Z</time></trkpt><trkpt lat="43.1753217" lon="13.7273317"><ele>109.0</ele><time>2026-04-05T15:44:53.006Z</time></trkpt><trkpt lat="43.1752583" lon="13.7273333"><ele>109.00000000000001</ele><time>2026-04-05T15:45:17.006Z</time></trkpt><trkpt lat="43.1753067" lon="13.7272233"><ele>109.0</ele><time>2026-04-05T15:45:24.007Z</time></trkpt><trkpt lat="43.1753733" lon="13.7271583"><ele>109.0</ele><time>2026-04-05T15:45:27.007Z</time></trkpt><trkpt lat="43.1753167" lon="13.7272517"><ele>109.0</ele><time>2026-04-05T15:45:57.007Z</time></trkpt><trkpt lat="43.1752517" lon="13.727125"><ele>109.0</ele><time>2026-04-05T15:46:58.007Z</time></trkpt><trkpt lat="43.1753383" lon="13.7271117"><ele>109.0</ele><time>2026-04-05T15:48:14.007Z</time></trkpt><trkpt lat="43.175225" lon="13.727195"><ele>109.0</ele><time>2026-04-05T15:49:16.007Z</time></trkpt><trkpt lat="43.1753467" lon="13.727145"><ele>109.00000000000001</ele><time>2026-04-05T15:50:18.007Z</time></trkpt><trkpt lat="43.17533" lon="13.72728"><ele>109.0</ele><time>2026-04-05T15:55:26.007Z</time></trkpt><trkpt lat="43.175355" lon="13.7271567"><ele>109.0</ele><time>2026-04-05T16:00:54.009Z</time></trkpt><trkpt lat="43.1753533" lon="13.7270117"><ele>109.0</ele><time>2026-04-05T16:02:13.008Z</time></trkpt><trkpt lat="43.175335" lon="13.7269283"><ele>109.00000000000001</ele><time>2026-04-05T16:05:26.01Z</time></trkpt><trkpt lat="43.1753917" lon="13.7270067"><ele>109.0</ele><time>2026-04-05T16:07:06.01Z</time></trkpt><trkpt lat="43.17543" lon="13.7270883"><ele>109.00000000000001</ele><time>2026-04-05T16:07:12.009Z</time></trkpt><trkpt lat="43.17535" lon="13.72709"><ele>109.0</ele><time>2026-04-05T16:08:08.009Z</time></trkpt><trkpt lat="43.1753367" lon="13.7271933"><ele>109.0</ele><time>2026-04-05T16:15:21.011Z</time></trkpt><trkpt lat="43.175305" lon="13.7272717"><ele>109.0</ele><time>2026-04-05T16:18:26.012Z</time></trkpt><trkpt lat="43.1753433" lon="13.727135"><ele>109.00000000000001</ele><time>2026-04-05T16:18:56.012Z</time></trkpt><trkpt lat="43.1754167" lon="13.7271483"><ele>109.0</ele><time>2026-04-05T16:20:47.011Z</time></trkpt><trkpt lat="43.1753667" lon="13.7272283"><ele>109.00000000000001</ele><time>2026-04-05T16:22:18.013Z</time></trkpt><trkpt lat="43.1753567" lon="13.7271333"><ele>109.0</ele><time>2026-04-05T16:23:01.013Z</time></trkpt><trkpt lat="43.175365" lon="13.7270433"><ele>109.0</ele><time>2026-04-05T16:23:06.012Z</time></trkpt><trkpt lat="43.1753017" lon="13.7271917"><ele>109.0</ele><time>2026-04-05T16:24:05.013Z</time></trkpt><trkpt lat="43.1753667" lon="13.7272017"><ele>109.00000000000001</ele><time>2026-04-05T16:26:16.013Z</time></trkpt><trkpt lat="43.175335" lon="13.7270783"><ele>109.0</ele><time>2026-04-05T16:27:22.012Z</time></trkpt><trkpt lat="43.1753483" lon="13.7271917"><ele>109.00000000000001</ele><time>2026-04-05T16:28:03.013Z</time></trkpt><trkpt lat="43.1754017" lon="13.7271317"><ele>109.0</ele><time>2026-04-05T16:29:36.014Z</time></trkpt><trkpt lat="43.1753317" lon="13.7271917"><ele>109.0</ele><time>2026-04-05T16:29:55.013Z</time></trkpt><trkpt lat="43.1752767" lon="13.7272533"><ele>109.0</ele><time>2026-04-05T16:35:13.014Z</time></trkpt><trkpt lat="43.1753617" lon="13.7271233"><ele>109.00000000000001</ele><time>2026-04-05T16:37:31.015Z</time></trkpt><trkpt lat="43.1753983" lon="13.7270083"><ele>109.0</ele><time>2026-04-05T16:38:06.015Z</time></trkpt><trkpt lat="43.1753167" lon="13.7270733"><ele>109.00000000000001</ele><time>2026-04-05T16:38:17.015Z</time></trkpt><trkpt lat="43.1752817" lon="13.72718"><ele>109.0</ele><time>2026-04-05T16:38:23.015Z</time></trkpt><trkpt lat="43.175335" lon="13.7272317"><ele>109.0</ele><time>2026-04-05T16:39:35.015Z</time></trkpt><trkpt lat="43.175285" lon="13.7271217"><ele>109.0</ele><time>2026-04-05T16:39:56.015Z</time></trkpt><trkpt lat="43.1754" lon="13.7271683"><ele>109.00000000000001</ele><time>2026-04-05T16:41:32.016Z</time></trkpt><trkpt lat="43.17533" lon="13.727165"><ele>109.0</ele><time>2026-04-05T16:43:06.015Z</time></trkpt><trkpt lat="43.17546" lon="13.7271167"><ele>109.00000000000001</ele><time>2026-04-05T16:46:39.016Z</time></trkpt><trkpt lat="43.17538" lon="13.727165"><ele>109.0</ele><time>2026-04-05T16:46:59.016Z</time></trkpt><trkpt lat="43.1754283" lon="13.7270967"><ele>109.0</ele><time>2026-04-05T16:50:28.017Z</time></trkpt><trkpt lat="43.1753583" lon="13.7271833"><ele>109.0</ele><time>2026-04-05T16:50:41.017Z</time></trkpt><trkpt lat="43.1752917" lon="13.7272183"><ele>109.00000000000001</ele><time>2026-04-05T16:50:43.016Z</time></trkpt><trkpt lat="43.175315" lon="13.7271267"><ele>109.0</ele><time>2026-04-05T16:51:22.017Z</time></trkpt><trkpt lat="43.175385" lon="13.7270867"><ele>109.0</ele><time>2026-04-05T16:59:58.017Z</time></trkpt><trkpt lat="43.1753683" lon="13.727205"><ele>109.0</ele><time>2026-04-05T17:03:32.019Z</time></trkpt><trkpt lat="43.1752383" lon="13.7273067"><ele>109.0</ele><time>2026-04-05T17:12:27.02Z</time></trkpt><trkpt lat="43.1753217" lon="13.72731"><ele>109.0</ele><time>2026-04-05T17:12:49.02Z</time></trkpt><trkpt lat="43.1752955" lon="13.7271481"><ele>109.0</ele><time>2026-04-05T17:13:57.982Z</time></trkpt></trkseg></trk></gpx>